<?xml version='1.0' encoding='UTF-8'?><gpx version="1.1" creator="JPX - https://github.com/jenetics/jpx" xmlns="http://www.topografix.com/GPX/1/1"><trk><trkseg><trkpt lat="-24.731577480711646" lon="113.75821720521667"><ele>9.0</ele><time>2026-04-17T07:32:11Z</time></trkpt><trkpt lat="-24.731344353302365" lon="113.75839514844913"><ele>9.0</ele><time>2026-04-17T07:32:12Z</time></trkpt><trkpt lat="-24.731118911717314" lon="113.75858405818086"><ele>9.5</ele><time>2026-04-17T07:32:13Z</time></trkpt><trkpt lat="-24.73089805542608" lon="113.75877997603477"><ele>10.0</ele><time>2026-04-17T07:32:14Z</time></trkpt><trkpt lat="-24.730684361396072" lon="113.7589804598189"><ele>10.0</ele><time>2026-04-17T07:32:15Z</time></trkpt><trkpt lat="-24.730478053807737" lon="113.75919579826352"><ele>10.0</ele><time>2026-04-17T07:32:16Z</time></trkpt><trkpt lat="-24.730279793556626" lon="113.75942138574389"><ele>10.0</ele><time>2026-04-17T07:32:17Z</time></trkpt><trkpt lat="-24.73008463651564" lon="113.7596618048776"><ele>10.0</ele><time>2026-04-17T07:32:18Z</time></trkpt><trkpt lat="-24.72989611767107" lon="113.75991775996215"><ele>10.0</ele><time>2026-04-17T07:32:19Z</time></trkpt><trkpt lat="-24.729713444592218" lon="113.76018099973642"><ele>10.0</ele><time>2026-04-17T07:32:20Z</time></trkpt><trkpt lat="-24.729539477309874" lon="113.7604496851252"><ele>11.0</ele><time>2026-04-17T07:32:21Z</time></trkpt><trkpt lat="-24.72937801828552" lon="113.76072716021605"><ele>12.0</ele><time>2026-04-17T07:32:22Z</time></trkpt><trkpt lat="-24.729225211158777" lon="113.76100549296524"><ele>12.0</ele><time>2026-04-17T07:32:23Z</time></trkpt><trkpt lat="-24.729084099721938" lon="113.76129061036187"><ele>12.0</ele><time>2026-04-17T07:32:24Z</time></trkpt><trkpt lat="-24.72895665370861" lon="113.76158544436882"><ele>11.0</ele><time>2026-04-17T07:32:25Z</time></trkpt><trkpt lat="-24.728836938741058" lon="113.76189519449919"><ele>10.0</ele><time>2026-04-17T07:32:26Z</time></trkpt><trkpt lat="-24.72872725018482" lon="113.76221745653652"><ele>10.0</ele><time>2026-04-17T07:32:27Z</time></trkpt><trkpt lat="-24.72862286209649" lon="113.76254088265785"><ele>10.0</ele><time>2026-04-17T07:32:28Z</time></trkpt><trkpt lat="-24.72851787377238" lon="113.76287241420565"><ele>11.0</ele><time>2026-04-17T07:32:29Z</time></trkpt><trkpt lat="-24.728408271863028" lon="113.76320224808515"><ele>12.0</ele><time>2026-04-17T07:32:30Z</time></trkpt><trkpt lat="-24.728298965452485" lon="113.76352515168693"><ele>13.0</ele><time>2026-04-17T07:32:31Z</time></trkpt><trkpt lat="-24.72818778155586" lon="113.76384717840307"><ele>14.0</ele><time>2026-04-17T07:32:32Z</time></trkpt><trkpt lat="-24.728078321261847" lon="113.76416804845043"><ele>13.5</ele><time>2026-04-17T07:32:33Z</time></trkpt><trkpt lat="-24.72797292670712" lon="113.76448561193435"><ele>13.0</ele><time>2026-04-17T07:32:34Z</time></trkpt><trkpt lat="-24.72786798234175" lon="113.76480802663592"><ele>13.0</ele><time>2026-04-17T07:32:35Z</time></trkpt><trkpt lat="-24.727764446957007" lon="113.76512715988794"><ele>13.0</ele><time>2026-04-17T07:32:36Z</time></trkpt><trkpt lat="-24.727660345265427" lon="113.76544758819848"><ele>13.0</ele><time>2026-04-17T07:32:37Z</time></trkpt><trkpt lat="-24.727555662227374" lon="113.76577211465684"><ele>13.0</ele><time>2026-04-17T07:32:38Z</time></trkpt><trkpt lat="-24.72744882020075" lon="113.76609697615791"><ele>13.0</ele><time>2026-04-17T07:32:39Z</time></trkpt><trkpt lat="-24.72734090862588" lon="113.76642240521502"><ele>13.0</ele><time>2026-04-17T07:32:40Z</time></trkpt><trkpt lat="-24.72723194360151" lon="113.76675018092358"><ele>12.5</ele><time>2026-04-17T07:32:41Z</time></trkpt><trkpt lat="-24.727121096384554" lon="113.76707627200229"><ele>12.0</ele><time>2026-04-17T07:32:42Z</time></trkpt><trkpt lat="-24.72700896940163" lon="113.76740129544523"><ele>12.0</ele><time>2026-04-17T07:32:43Z</time></trkpt><trkpt lat="-24.726899178446693" lon="113.76772243363017"><ele>12.0</ele><time>2026-04-17T07:32:44Z</time></trkpt><trkpt lat="-24.72679311145793" lon="113.76804078871517"><ele>12.0</ele><time>2026-04-17T07:32:45Z</time></trkpt><trkpt lat="-24.72669117284559" lon="113.76835582344613"><ele>12.0</ele><time>2026-04-17T07:32:46Z</time></trkpt><trkpt lat="-24.726591553936984" lon="113.76867509584663"><ele>12.5</ele><time>2026-04-17T07:32:47Z</time></trkpt><trkpt lat="-24.726498414888354" lon="113.76899403071815"><ele>13.0</ele><time>2026-04-17T07:32:48Z</time></trkpt><trkpt lat="-24.72641078847065" lon="113.76931359183108"><ele>13.5</ele><time>2026-04-17T07:32:49Z</time></trkpt><trkpt lat="-24.726332581852645" lon="113.76963426901416"><ele>14.0</ele><time>2026-04-17T07:32:50Z</time></trkpt><trkpt lat="-24.72626136660307" lon="113.76996007729315"><ele>13.5</ele><time>2026-04-17T07:32:51Z</time></trkpt><trkpt lat="-24.726200004491766" lon="113.77028672497474"><ele>13.0</ele><time>2026-04-17T07:32:52Z</time></trkpt><trkpt lat="-24.72613756154861" lon="113.77061238742597"><ele>13.0</ele><time>2026-04-17T07:32:53Z</time></trkpt><trkpt lat="-24.726073414540895" lon="113.77093677142346"><ele>13.0</ele><time>2026-04-17T07:32:54Z</time></trkpt><trkpt lat="-24.72600831965311" lon="113.77125948000833"><ele>13.0</ele><time>2026-04-17T07:32:55Z</time></trkpt><trkpt lat="-24.72594131042027" lon="113.77157228908587"><ele>13.0</ele><time>2026-04-17T07:32:56Z</time></trkpt><trkpt lat="-24.725876903093265" lon="113.77188145465122"><ele>13.5</ele><time>2026-04-17T07:32:57Z</time></trkpt><trkpt lat="-24.72581361179357" lon="113.77219033907247"><ele>14.0</ele><time>2026-04-17T07:32:58Z</time></trkpt><trkpt lat="-24.725749280181073" lon="113.77249945115477"><ele>14.5</ele><time>2026-04-17T07:32:59Z</time></trkpt><trkpt lat="-24.72568516814127" lon="113.77280516789433"><ele>15.0</ele><time>2026-04-17T07:33:00Z</time></trkpt><trkpt lat="-24.72562268485528" lon="113.77311079384381"><ele>15.0</ele><time>2026-04-17T07:33:01Z</time></trkpt><trkpt lat="-24.725561362546784" lon="113.77341568084796"><ele>15.0</ele><time>2026-04-17T07:33:02Z</time></trkpt><trkpt lat="-24.72549820654212" lon="113.77371898278649"><ele>14.0</ele><time>2026-04-17T07:33:03Z</time></trkpt><trkpt lat="-24.72543411707979" lon="113.77402333016298"><ele>13.0</ele><time>2026-04-17T07:33:04Z</time></trkpt><trkpt lat="-24.72537364532978" lon="113.77432759683869"><ele>13.5</ele><time>2026-04-17T07:33:05Z</time></trkpt><trkpt lat="-24.72531447429916" lon="113.77462980436765"><ele>14.0</ele><time>2026-04-17T07:33:06Z</time></trkpt><trkpt lat="-24.725248176092236" lon="113.77493225400217"><ele>14.5</ele><time>2026-04-17T07:33:07Z</time></trkpt><trkpt lat="-24.725175323389358" lon="113.77523194825149"><ele>15.0</ele><time>2026-04-17T07:33:08Z</time></trkpt><trkpt lat="-24.72508965050831" lon="113.77553705206974"><ele>15.0</ele><time>2026-04-17T07:33:09Z</time></trkpt><trkpt lat="-24.72499227243149" lon="113.7758443608675"><ele>15.0</ele><time>2026-04-17T07:33:10Z</time></trkpt><trkpt lat="-24.724881475931475" lon="113.77615170643064"><ele>15.0</ele><time>2026-04-17T07:33:11Z</time></trkpt><trkpt lat="-24.724758364403357" lon="113.77646715933261"><ele>15.0</ele><time>2026-04-17T07:33:12Z</time></trkpt><trkpt lat="-24.72462570929385" lon="113.77678150734637"><ele>15.5</ele><time>2026-04-17T07:33:13Z</time></trkpt><trkpt lat="-24.724487289185415" lon="113.77709622565861"><ele>16.0</ele><time>2026-04-17T07:33:14Z</time></trkpt><trkpt lat="-24.724350114068613" lon="113.777412728312"><ele>13.5</ele><time>2026-04-17T07:33:15Z</time></trkpt><trkpt lat="-24.724215622393203" lon="113.77772763123312"><ele>11.0</ele><time>2026-04-17T07:33:16Z</time></trkpt><trkpt lat="-24.724079713280652" lon="113.77804708136885"><ele>11.0</ele><time>2026-04-17T07:33:17Z</time></trkpt><trkpt lat="-24.723945163684483" lon="113.77836651613943"><ele>11.0</ele><time>2026-04-17T07:33:18Z</time></trkpt><trkpt lat="-24.723812946306538" lon="113.77868551727063"><ele>11.5</ele><time>2026-04-17T07:33:19Z</time></trkpt><trkpt lat="-24.72367881264779" lon="113.77900253173767"><ele>12.0</ele><time>2026-04-17T07:33:20Z</time></trkpt><trkpt lat="-24.723541607034974" lon="113.7793196487526"><ele>12.0</ele><time>2026-04-17T07:33:21Z</time></trkpt><trkpt lat="-24.72340204777115" lon="113.77963842397251"><ele>12.0</ele><time>2026-04-17T07:33:22Z</time></trkpt><trkpt lat="-24.72326573021037" lon="113.77995681698881"><ele>12.0</ele><time>2026-04-17T07:33:23Z</time></trkpt><trkpt lat="-24.723129563156444" lon="113.78027874231074"><ele>12.0</ele><time>2026-04-17T07:33:24Z</time></trkpt><trkpt lat="-24.72299243336756" lon="113.78060529283835"><ele>12.0</ele><time>2026-04-17T07:33:25Z</time></trkpt><trkpt lat="-24.722856020177616" lon="113.78092854868883"><ele>12.0</ele><time>2026-04-17T07:33:26Z</time></trkpt><trkpt lat="-24.72271746769786" lon="113.7812541137494"><ele>12.0</ele><time>2026-04-17T07:33:27Z</time></trkpt><trkpt lat="-24.7225781637209" lon="113.78158240821743"><ele>12.0</ele><time>2026-04-17T07:33:28Z</time></trkpt><trkpt lat="-24.722439849384347" lon="113.78190693145555"><ele>12.0</ele><time>2026-04-17T07:33:29Z</time></trkpt><trkpt lat="-24.722303186944515" lon="113.78222619934535"><ele>12.0</ele><time>2026-04-17T07:33:30Z</time></trkpt><trkpt lat="-24.72216373432036" lon="113.78254822276213"><ele>12.0</ele><time>2026-04-17T07:33:31Z</time></trkpt><trkpt lat="-24.7220254938427" lon="113.78286403346081"><ele>12.0</ele><time>2026-04-17T07:33:32Z</time></trkpt><trkpt lat="-24.72188960257283" lon="113.7831803143169"><ele>12.0</ele><time>2026-04-17T07:33:33Z</time></trkpt><trkpt lat="-24.721756737611134" lon="113.78349784836628"><ele>12.0</ele><time>2026-04-17T07:33:34Z</time></trkpt><trkpt lat="-24.721626859387573" lon="113.78381600695424"><ele>12.0</ele><time>2026-04-17T07:33:35Z</time></trkpt><trkpt lat="-24.721491302749627" lon="113.78413460470941"><ele>12.0</ele><time>2026-04-17T07:33:36Z</time></trkpt><trkpt lat="-24.721356566618926" lon="113.78445023744315"><ele>11.5</ele><time>2026-04-17T07:33:37Z</time></trkpt><trkpt lat="-24.721221656171675" lon="113.78477052292018"><ele>11.0</ele><time>2026-04-17T07:33:38Z</time></trkpt><trkpt lat="-24.721086844790015" lon="113.78509173056895"><ele>12.0</ele><time>2026-04-17T07:33:39Z</time></trkpt><trkpt lat="-24.720950439846256" lon="113.78541372850272"><ele>13.0</ele><time>2026-04-17T07:33:40Z</time></trkpt><trkpt lat="-24.720814750499287" lon="113.7857373286305"><ele>12.0</ele><time>2026-04-17T07:33:41Z</time></trkpt><trkpt lat="-24.720678027130823" lon="113.78606236941361"><ele>11.0</ele><time>2026-04-17T07:33:42Z</time></trkpt><trkpt lat="-24.720538995094355" lon="113.7863885244539"><ele>11.0</ele><time>2026-04-17T07:33:43Z</time></trkpt><trkpt lat="-24.720397304784544" lon="113.78671692467312"><ele>11.0</ele><time>2026-04-17T07:33:44Z</time></trkpt><trkpt lat="-24.720255720821516" lon="113.7870423533255"><ele>10.5</ele><time>2026-04-17T07:33:45Z</time></trkpt><trkpt lat="-24.72011850474529" lon="113.78736662351963"><ele>10.0</ele><time>2026-04-17T07:33:46Z</time></trkpt><trkpt lat="-24.719985296766783" lon="113.78769207675793"><ele>11.0</ele><time>2026-04-17T07:33:47Z</time></trkpt><trkpt lat="-24.719851069698358" lon="113.78801880649134"><ele>12.0</ele><time>2026-04-17T07:33:48Z</time></trkpt><trkpt lat="-24.719712295296343" lon="113.78834168795561"><ele>12.5</ele><time>2026-04-17T07:33:49Z</time></trkpt><trkpt lat="-24.71957044377196" lon="113.78866110339364"><ele>13.0</ele><time>2026-04-17T07:33:50Z</time></trkpt><trkpt lat="-24.71943325026723" lon="113.78897844003299"><ele>13.0</ele><time>2026-04-17T07:33:51Z</time></trkpt><trkpt lat="-24.719296162834016" lon="113.78930108984673"><ele>13.0</ele><time>2026-04-17T07:33:52Z</time></trkpt><trkpt lat="-24.719160205142124" lon="113.78962604503391"><ele>13.0</ele><time>2026-04-17T07:33:53Z</time></trkpt><trkpt lat="-24.719020053095047" lon="113.78995628007723"><ele>13.0</ele><time>2026-04-17T07:33:54Z</time></trkpt><trkpt lat="-24.71887804310376" lon="113.7902857069976"><ele>12.0</ele><time>2026-04-17T07:33:55Z</time></trkpt><trkpt lat="-24.718735250474786" lon="113.79061813315101"><ele>11.0</ele><time>2026-04-17T07:33:56Z</time></trkpt><trkpt lat="-24.718594970505233" lon="113.79094944042231"><ele>13.0</ele><time>2026-04-17T07:33:57Z</time></trkpt><trkpt lat="-24.71845473193693" lon="113.79128503858327"><ele>15.0</ele><time>2026-04-17T07:33:58Z</time></trkpt><trkpt lat="-24.718314931509227" lon="113.79161600957242"><ele>14.0</ele><time>2026-04-17T07:33:59Z</time></trkpt><trkpt lat="-24.71817383371571" lon="113.79194346781705"><ele>13.0</ele><time>2026-04-17T07:34:00Z</time></trkpt><trkpt lat="-24.71803347891642" lon="113.79226876130575"><ele>13.0</ele><time>2026-04-17T07:34:01Z</time></trkpt><trkpt lat="-24.717894801955286" lon="113.79258627132764"><ele>13.0</ele><time>2026-04-17T07:34:02Z</time></trkpt><trkpt lat="-24.7177551680177" lon="113.79290406869225"><ele>14.0</ele><time>2026-04-17T07:34:03Z</time></trkpt><trkpt lat="-24.717586299422923" lon="113.79319227159091"><ele>15.0</ele><time>2026-04-17T07:34:04.001Z</time></trkpt><trkpt lat="-24.717413865533306" lon="113.79349148424886"><ele>15.0</ele><time>2026-04-17T07:34:05.001Z</time></trkpt><trkpt lat="-24.717226628767985" lon="113.79378867738133"><ele>15.0</ele><time>2026-04-17T07:34:06.001Z</time></trkpt><trkpt lat="-24.717038386822068" lon="113.79408991518739"><ele>14.0</ele><time>2026-04-17T07:34:07.001Z</time></trkpt><trkpt lat="-24.716828173958923" lon="113.79436857546264"><ele>13.0</ele><time>2026-04-17T07:34:08.001Z</time></trkpt><trkpt lat="-24.716613855078013" lon="113.79463729885585"><ele>13.0</ele><time>2026-04-17T07:34:09.001Z</time></trkpt><trkpt lat="-24.716391516400446" lon="113.79489614307273"><ele>13.0</ele><time>2026-04-17T07:34:10.001Z</time></trkpt><trkpt lat="-24.716160117906213" lon="113.79514288726976"><ele>13.0</ele><time>2026-04-17T07:34:11.001Z</time></trkpt><trkpt lat="-24.715917175789265" lon="113.79537929664158"><ele>13.0</ele><time>2026-04-17T07:34:12.001Z</time></trkpt><trkpt lat="-24.71566775688516" lon="113.79560400943215"><ele>13.0</ele><time>2026-04-17T07:34:13.001Z</time></trkpt><trkpt lat="-24.71541297846249" lon="113.7958172425377"><ele>13.0</ele><time>2026-04-17T07:34:14.001Z</time></trkpt><trkpt lat="-24.71515161757347" lon="113.79602060244903"><ele>13.0</ele><time>2026-04-17T07:34:15Z</time></trkpt><trkpt lat="-24.71488079833451" lon="113.79621303506214"><ele>13.0</ele><time>2026-04-17T07:34:16Z</time></trkpt><trkpt lat="-24.714607981520547" lon="113.79639219164228"><ele>13.5</ele><time>2026-04-17T07:34:17Z</time></trkpt><trkpt lat="-24.71432995517314" lon="113.79655850372782"><ele>14.0</ele><time>2026-04-17T07:34:18Z</time></trkpt><trkpt lat="-24.714047395096156" lon="113.79671312308147"><ele>14.0</ele><time>2026-04-17T07:34:19Z</time></trkpt><trkpt lat="-24.71375877467573" lon="113.796853205817"><ele>14.0</ele><time>2026-04-17T07:34:20Z</time></trkpt><trkpt lat="-24.71346530728578" lon="113.79697945521485"><ele>14.0</ele><time>2026-04-17T07:34:21Z</time></trkpt><trkpt lat="-24.713169610846624" lon="113.79709703033961"><ele>14.0</ele><time>2026-04-17T07:34:22Z</time></trkpt><trkpt lat="-24.71287057072882" lon="113.79720814724755"><ele>13.5</ele><time>2026-04-17T07:34:23Z</time></trkpt><trkpt lat="-24.712568608284183" lon="113.79730809015264"><ele>13.0</ele><time>2026-04-17T07:34:24Z</time></trkpt><trkpt lat="-24.7122651054262" lon="113.797405325215"><ele>13.0</ele><time>2026-04-17T07:34:25Z</time></trkpt><trkpt lat="-24.711954810937748" lon="113.79750469446184"><ele>13.0</ele><time>2026-04-17T07:34:26Z</time></trkpt><trkpt lat="-24.711648306942244" lon="113.79760850395706"><ele>13.0</ele><time>2026-04-17T07:34:27Z</time></trkpt><trkpt lat="-24.71134184002309" lon="113.79771551230304"><ele>13.0</ele><time>2026-04-17T07:34:28Z</time></trkpt><trkpt lat="-24.711037910036808" lon="113.79782125755156"><ele>13.5</ele><time>2026-04-17T07:34:29Z</time></trkpt><trkpt lat="-24.710730141851755" lon="113.79792648349877"><ele>14.0</ele><time>2026-04-17T07:34:30Z</time></trkpt><trkpt lat="-24.7104249451395" lon="113.79802939694923"><ele>13.5</ele><time>2026-04-17T07:34:31Z</time></trkpt><trkpt lat="-24.710123261856793" lon="113.79813041656216"><ele>13.0</ele><time>2026-04-17T07:34:32Z</time></trkpt><trkpt lat="-24.709825591823062" lon="113.79823239634577"><ele>13.0</ele><time>2026-04-17T07:34:33Z</time></trkpt><trkpt lat="-24.709527702522184" lon="113.79833541367947"><ele>13.0</ele><time>2026-04-17T07:34:34Z</time></trkpt><trkpt lat="-24.709230728062348" lon="113.79843792371742"><ele>12.5</ele><time>2026-04-17T07:34:35Z</time></trkpt><trkpt lat="-24.70893346354517" lon="113.79854040104789"><ele>12.0</ele><time>2026-04-17T07:34:36Z</time></trkpt><trkpt lat="-24.70863817242451" lon="113.79864101466978"><ele>13.0</ele><time>2026-04-17T07:34:37Z</time></trkpt><trkpt lat="-24.708341505699654" lon="113.79874116074159"><ele>14.0</ele><time>2026-04-17T07:34:38Z</time></trkpt><trkpt lat="-24.708048566850177" lon="113.79884459423036"><ele>14.0</ele><time>2026-04-17T07:34:39Z</time></trkpt><trkpt lat="-24.707756571774382" lon="113.79895152076628"><ele>14.0</ele><time>2026-04-17T07:34:40Z</time></trkpt><trkpt lat="-24.70746264489191" lon="113.7990665465543"><ele>14.0</ele><time>2026-04-17T07:34:41Z</time></trkpt><trkpt lat="-24.707178922785033" lon="113.79919239051989"><ele>14.0</ele><time>2026-04-17T07:34:42Z</time></trkpt><trkpt lat="-24.70689949403095" lon="113.79933078125177"><ele>14.0</ele><time>2026-04-17T07:34:43Z</time></trkpt><trkpt lat="-24.706626811970494" lon="113.79948753060346"><ele>14.0</ele><time>2026-04-17T07:34:44Z</time></trkpt><trkpt lat="-24.706349489635848" lon="113.7996425880912"><ele>14.0</ele><time>2026-04-17T07:34:45Z</time></trkpt><trkpt lat="-24.706092018769784" lon="113.79984656664519"><ele>14.0</ele><time>2026-04-17T07:34:46Z</time></trkpt><trkpt lat="-24.70583043435528" lon="113.80003717198332"><ele>14.0</ele><time>2026-04-17T07:34:47Z</time></trkpt><trkpt lat="-24.705574571630542" lon="113.80023345254993"><ele>14.0</ele><time>2026-04-17T07:34:48Z</time></trkpt><trkpt lat="-24.705324872335197" lon="113.80043989335114"><ele>13.0</ele><time>2026-04-17T07:34:49Z</time></trkpt><trkpt lat="-24.705080042342832" lon="113.80065325130936"><ele>12.0</ele><time>2026-04-17T07:34:50Z</time></trkpt><trkpt lat="-24.704832955623253" lon="113.80087365982914"><ele>12.5</ele><time>2026-04-17T07:34:51Z</time></trkpt><trkpt lat="-24.704585417582003" lon="113.80109170816436"><ele>13.0</ele><time>2026-04-17T07:34:52Z</time></trkpt><trkpt lat="-24.704335667464314" lon="113.80130702785489"><ele>13.5</ele><time>2026-04-17T07:34:53Z</time></trkpt><trkpt lat="-24.704089475511473" lon="113.80152108384291"><ele>14.0</ele><time>2026-04-17T07:34:54Z</time></trkpt><trkpt lat="-24.7038402249977" lon="113.80174050296726"><ele>14.0</ele><time>2026-04-17T07:34:55Z</time></trkpt><trkpt lat="-24.703596640773736" lon="113.80195718695941"><ele>14.0</ele><time>2026-04-17T07:34:56Z</time></trkpt><trkpt lat="-24.70335383773319" lon="113.80217066655207"><ele>13.5</ele><time>2026-04-17T07:34:57Z</time></trkpt><trkpt lat="-24.703110493597364" lon="113.8023838700155"><ele>13.0</ele><time>2026-04-17T07:34:58Z</time></trkpt><trkpt lat="-24.702863012438637" lon="113.80259842885793"><ele>13.5</ele><time>2026-04-17T07:34:59Z</time></trkpt><trkpt lat="-24.70261527910114" lon="113.80281346261712"><ele>14.0</ele><time>2026-04-17T07:35:00Z</time></trkpt><trkpt lat="-24.702364724908023" lon="113.80303280453268"><ele>14.0</ele><time>2026-04-17T07:35:01Z</time></trkpt><trkpt lat="-24.702115328866274" lon="113.80325174766413"><ele>14.0</ele><time>2026-04-17T07:35:02Z</time></trkpt><trkpt lat="-24.70186241996941" lon="113.80347079887325"><ele>14.5</ele><time>2026-04-17T07:35:03Z</time></trkpt><trkpt lat="-24.70161087922525" lon="113.80368805337153"><ele>15.0</ele><time>2026-04-17T07:35:04Z</time></trkpt><trkpt lat="-24.70135815794108" lon="113.80390601372696"><ele>15.0</ele><time>2026-04-17T07:35:05Z</time></trkpt><trkpt lat="-24.701105127343887" lon="113.80412318744075"><ele>15.0</ele><time>2026-04-17T07:35:06Z</time></trkpt><trkpt lat="-24.700857830615774" lon="113.80433788382956"><ele>14.5</ele><time>2026-04-17T07:35:07Z</time></trkpt><trkpt lat="-24.700611866728625" lon="113.80455721040282"><ele>14.0</ele><time>2026-04-17T07:35:08Z</time></trkpt><trkpt lat="-24.700368552365223" lon="113.80477724626962"><ele>14.0</ele><time>2026-04-17T07:35:09Z</time></trkpt><trkpt lat="-24.70012483560264" lon="113.80499552654187"><ele>14.0</ele><time>2026-04-17T07:35:10Z</time></trkpt><trkpt lat="-24.699879064779047" lon="113.80520909141454"><ele>13.5</ele><time>2026-04-17T07:35:11Z</time></trkpt><trkpt lat="-24.699630637869532" lon="113.80542161750748"><ele>13.0</ele><time>2026-04-17T07:35:12Z</time></trkpt><trkpt lat="-24.699378974539922" lon="113.80563593147002"><ele>14.5</ele><time>2026-04-17T07:35:13Z</time></trkpt><trkpt lat="-24.699129359407284" lon="113.80585082284985"><ele>16.0</ele><time>2026-04-17T07:35:14Z</time></trkpt><trkpt lat="-24.698881684548034" lon="113.80606793560911"><ele>16.0</ele><time>2026-04-17T07:35:15Z</time></trkpt><trkpt lat="-24.69863468609258" lon="113.80628574896286"><ele>16.0</ele><time>2026-04-17T07:35:16Z</time></trkpt><trkpt lat="-24.69838913865535" lon="113.80650083955246"><ele>16.5</ele><time>2026-04-17T07:35:17Z</time></trkpt><trkpt lat="-24.698139838525545" lon="113.8067155135967"><ele>17.0</ele><time>2026-04-17T07:35:18Z</time></trkpt><trkpt lat="-24.697890478593955" lon="113.80692907202895"><ele>17.0</ele><time>2026-04-17T07:35:19Z</time></trkpt><trkpt lat="-24.697638750817354" lon="113.80714569410365"><ele>17.0</ele><time>2026-04-17T07:35:20Z</time></trkpt><trkpt lat="-24.697389228840887" lon="113.80736180572555"><ele>17.0</ele><time>2026-04-17T07:35:21Z</time></trkpt><trkpt lat="-24.697141293035454" lon="113.80757946920349"><ele>17.0</ele><time>2026-04-17T07:35:22Z</time></trkpt><trkpt lat="-24.696896357557186" lon="113.8077961808135"><ele>16.5</ele><time>2026-04-17T07:35:23Z</time></trkpt><trkpt lat="-24.6966508170577" lon="113.80801154676658"><ele>16.0</ele><time>2026-04-17T07:35:24Z</time></trkpt><trkpt lat="-24.696407078194298" lon="113.80822604539122"><ele>16.0</ele><time>2026-04-17T07:35:25Z</time></trkpt><trkpt lat="-24.696162705249304" lon="113.808440518872"><ele>16.0</ele><time>2026-04-17T07:35:26Z</time></trkpt><trkpt lat="-24.695918977970912" lon="113.8086516355996"><ele>17.0</ele><time>2026-04-17T07:35:27Z</time></trkpt><trkpt lat="-24.695676132480873" lon="113.80885954469369"><ele>18.0</ele><time>2026-04-17T07:35:28Z</time></trkpt><trkpt lat="-24.695438993512322" lon="113.8090659783734"><ele>17.5</ele><time>2026-04-17T07:35:29Z</time></trkpt><trkpt lat="-24.695200800311625" lon="113.80927376920582"><ele>17.0</ele><time>2026-04-17T07:35:30Z</time></trkpt><trkpt lat="-24.694960018584467" lon="113.80948460809499"><ele>17.0</ele><time>2026-04-17T07:35:31Z</time></trkpt><trkpt lat="-24.69471709932293" lon="113.80969829626935"><ele>17.0</ele><time>2026-04-17T07:35:32Z</time></trkpt><trkpt lat="-24.694476652408483" lon="113.80991279517653"><ele>16.5</ele><time>2026-04-17T07:35:33Z</time></trkpt><trkpt lat="-24.694237439650163" lon="113.81012316735213"><ele>16.0</ele><time>2026-04-17T07:35:34Z</time></trkpt><trkpt lat="-24.693996477702086" lon="113.81033296861547"><ele>17.0</ele><time>2026-04-17T07:35:35Z</time></trkpt><trkpt lat="-24.693753931360725" lon="113.81053978768574"><ele>18.0</ele><time>2026-04-17T07:35:36Z</time></trkpt><trkpt lat="-24.693513073764002" lon="113.81074684769952"><ele>18.5</ele><time>2026-04-17T07:35:37Z</time></trkpt><trkpt lat="-24.693278746350565" lon="113.81095325980074"><ele>19.0</ele><time>2026-04-17T07:35:38Z</time></trkpt><trkpt lat="-24.693045803587122" lon="113.81115921443939"><ele>18.5</ele><time>2026-04-17T07:35:39Z</time></trkpt><trkpt lat="-24.692815230452386" lon="113.81136405679779"><ele>18.0</ele><time>2026-04-17T07:35:40Z</time></trkpt><trkpt lat="-24.692583147722782" lon="113.81156711671741"><ele>18.0</ele><time>2026-04-17T07:35:41Z</time></trkpt><trkpt lat="-24.69235058677562" lon="113.81176817964659"><ele>18.0</ele><time>2026-04-17T07:35:42Z</time></trkpt><trkpt lat="-24.692117314103026" lon="113.81196824226393"><ele>18.0</ele><time>2026-04-17T07:35:43Z</time></trkpt><trkpt lat="-24.69187583254216" lon="113.81217422796412"><ele>18.0</ele><time>2026-04-17T07:35:44Z</time></trkpt><trkpt lat="-24.69163278753416" lon="113.8123872662142"><ele>18.0</ele><time>2026-04-17T07:35:45Z</time></trkpt><trkpt lat="-24.691386646873497" lon="113.81260438831836"><ele>18.0</ele><time>2026-04-17T07:35:46Z</time></trkpt><trkpt lat="-24.691136490053243" lon="113.8128215778256"><ele>16.5</ele><time>2026-04-17T07:35:47Z</time></trkpt><trkpt lat="-24.690884726618055" lon="113.81303832275029"><ele>15.0</ele><time>2026-04-17T07:35:48Z</time></trkpt><trkpt lat="-24.690634998839855" lon="113.81325463051454"><ele>15.0</ele><time>2026-04-17T07:35:49Z</time></trkpt><trkpt lat="-24.690390820255843" lon="113.81347185845172"><ele>15.0</ele><time>2026-04-17T07:35:50Z</time></trkpt><trkpt lat="-24.690148523252805" lon="113.81368946943238"><ele>16.0</ele><time>2026-04-17T07:35:51Z</time></trkpt><trkpt lat="-24.689904137319022" lon="113.8139055667037"><ele>17.0</ele><time>2026-04-17T07:35:52Z</time></trkpt><trkpt lat="-24.689655455380446" lon="113.81411919142955"><ele>17.0</ele><time>2026-04-17T07:35:53Z</time></trkpt><trkpt lat="-24.689404331324454" lon="113.81433457409847"><ele>17.0</ele><time>2026-04-17T07:35:54Z</time></trkpt><trkpt lat="-24.68915470379675" lon="113.81455254126759"><ele>17.0</ele><time>2026-04-17T07:35:55Z</time></trkpt><trkpt lat="-24.688906404306632" lon="113.81477203984247"><ele>17.0</ele><time>2026-04-17T07:35:56Z</time></trkpt><trkpt lat="-24.68865515501284" lon="113.81499264971343"><ele>17.5</ele><time>2026-04-17T07:35:57Z</time></trkpt><trkpt lat="-24.688405496529544" lon="113.81521090648978"><ele>18.0</ele><time>2026-04-17T07:35:58Z</time></trkpt><trkpt lat="-24.68815767383683" lon="113.81542756958102"><ele>18.0</ele><time>2026-04-17T07:35:59Z</time></trkpt><trkpt lat="-24.687909067823718" lon="113.81564414048826"><ele>18.0</ele><time>2026-04-17T07:36:00Z</time></trkpt><trkpt lat="-24.68766176158805" lon="113.81585810070592"><ele>18.0</ele><time>2026-04-17T07:36:01Z</time></trkpt><trkpt lat="-24.68741555577701" lon="113.81607229929494"><ele>18.0</ele><time>2026-04-17T07:36:02Z</time></trkpt><trkpt lat="-24.687165996168112" lon="113.81629038140188"><ele>18.5</ele><time>2026-04-17T07:36:03Z</time></trkpt><trkpt lat="-24.686920762749274" lon="113.81650403299717"><ele>19.0</ele><time>2026-04-17T07:36:04Z</time></trkpt><trkpt lat="-24.68667508436761" lon="113.81671890871415"><ele>18.5</ele><time>2026-04-17T07:36:05Z</time></trkpt><trkpt lat="-24.686425067299897" lon="113.81693690527182"><ele>18.0</ele><time>2026-04-17T07:36:06Z</time></trkpt><trkpt lat="-24.686176162127694" lon="113.81715387299552"><ele>18.0</ele><time>2026-04-17T07:36:07Z</time></trkpt><trkpt lat="-24.685923809961313" lon="113.8173750340602"><ele>18.0</ele><time>2026-04-17T07:36:08Z</time></trkpt><trkpt lat="-24.68567519883014" lon="113.8175943492953"><ele>18.0</ele><time>2026-04-17T07:36:09Z</time></trkpt><trkpt lat="-24.68542574872441" lon="113.81781530885716"><ele>18.0</ele><time>2026-04-17T07:36:10.001Z</time></trkpt><trkpt lat="-24.685178093017456" lon="113.81803558369656"><ele>18.5</ele><time>2026-04-17T07:36:11.001Z</time></trkpt><trkpt lat="-24.684925831044023" lon="113.81825535729752"><ele>19.0</ele><time>2026-04-17T07:36:12.001Z</time></trkpt><trkpt lat="-24.684673012891327" lon="113.81846713204246"><ele>19.0</ele><time>2026-04-17T07:36:13.001Z</time></trkpt><trkpt lat="-24.684420233076526" lon="113.81867929805608"><ele>19.0</ele><time>2026-04-17T07:36:14.001Z</time></trkpt><trkpt lat="-24.684175154156613" lon="113.81889163845406"><ele>19.0</ele><time>2026-04-17T07:36:15.001Z</time></trkpt><trkpt lat="-24.683932375951006" lon="113.81910537131877"><ele>19.0</ele><time>2026-04-17T07:36:16.001Z</time></trkpt><trkpt lat="-24.68369256272442" lon="113.81931822620761"><ele>19.5</ele><time>2026-04-17T07:36:17.001Z</time></trkpt><trkpt lat="-24.683453428160433" lon="113.81953129344642"><ele>20.0</ele><time>2026-04-17T07:36:18.001Z</time></trkpt><trkpt lat="-24.683207310539068" lon="113.81974678255291"><ele>20.0</ele><time>2026-04-17T07:36:19.001Z</time></trkpt><trkpt lat="-24.68295938055342" lon="113.81996198517878"><ele>20.0</ele><time>2026-04-17T07:36:20.001Z</time></trkpt><trkpt lat="-24.682711714332083" lon="113.82017629543408"><ele>20.0</ele><time>2026-04-17T07:36:21.001Z</time></trkpt><trkpt lat="-24.6824602799922" lon="113.8203911839531"><ele>20.0</ele><time>2026-04-17T07:36:22Z</time></trkpt><trkpt lat="-24.682212256668095" lon="113.82060577014654"><ele>20.0</ele><time>2026-04-17T07:36:23Z</time></trkpt><trkpt lat="-24.681963843990264" lon="113.8208236869026"><ele>20.0</ele><time>2026-04-17T07:36:24Z</time></trkpt><trkpt lat="-24.681716131273618" lon="113.82104344779485"><ele>20.0</ele><time>2026-04-17T07:36:25Z</time></trkpt><trkpt lat="-24.68146925974725" lon="113.82126235729233"><ele>20.0</ele><time>2026-04-17T07:36:26Z</time></trkpt><trkpt lat="-24.681217643045063" lon="113.82148265572766"><ele>20.5</ele><time>2026-04-17T07:36:27Z</time></trkpt><trkpt lat="-24.680968711128724" lon="113.8217003682349"><ele>21.0</ele><time>2026-04-17T07:36:28Z</time></trkpt><trkpt lat="-24.680720266803746" lon="113.82191858633857"><ele>21.0</ele><time>2026-04-17T07:36:29Z</time></trkpt><trkpt lat="-24.680470113619386" lon="113.82213538657105"><ele>21.0</ele><time>2026-04-17T07:36:30Z</time></trkpt><trkpt lat="-24.680222047309634" lon="113.82234998165154"><ele>21.0</ele><time>2026-04-17T07:36:31Z</time></trkpt><trkpt lat="-24.679973547403833" lon="113.82256482318452"><ele>21.0</ele><time>2026-04-17T07:36:32Z</time></trkpt><trkpt lat="-24.6797247413786" lon="113.82277961563041"><ele>21.5</ele><time>2026-04-17T07:36:33Z</time></trkpt><trkpt lat="-24.679468584553756" lon="113.82299855704655"><ele>22.0</ele><time>2026-04-17T07:36:34Z</time></trkpt><trkpt lat="-24.679214140721644" lon="113.82321765451002"><ele>22.0</ele><time>2026-04-17T07:36:35Z</time></trkpt><trkpt lat="-24.6789624146613" lon="113.8234375013813"><ele>22.0</ele><time>2026-04-17T07:36:36Z</time></trkpt><trkpt lat="-24.678712047851743" lon="113.82365645015393"><ele>23.0</ele><time>2026-04-17T07:36:37Z</time></trkpt><trkpt lat="-24.67846084263728" lon="113.82387903367581"><ele>24.0</ele><time>2026-04-17T07:36:38Z</time></trkpt><trkpt lat="-24.678210266810506" lon="113.82409933018178"><ele>24.0</ele><time>2026-04-17T07:36:39Z</time></trkpt><trkpt lat="-24.67796099275815" lon="113.82431726115806"><ele>24.0</ele><time>2026-04-17T07:36:40Z</time></trkpt><trkpt lat="-24.67771523005824" lon="113.8245341256282"><ele>23.5</ele><time>2026-04-17T07:36:41Z</time></trkpt><trkpt lat="-24.677468981217114" lon="113.824751515382"><ele>23.0</ele><time>2026-04-17T07:36:42Z</time></trkpt><trkpt lat="-24.677220517630886" lon="113.82496869146053"><ele>23.0</ele><time>2026-04-17T07:36:43Z</time></trkpt><trkpt lat="-24.67696914159582" lon="113.82518603616181"><ele>23.0</ele><time>2026-04-17T07:36:44Z</time></trkpt><trkpt lat="-24.676714958427954" lon="113.82540339600585"><ele>23.0</ele><time>2026-04-17T07:36:45Z</time></trkpt><trkpt lat="-24.676461684841374" lon="113.82562302810008"><ele>23.0</ele><time>2026-04-17T07:36:46Z</time></trkpt><trkpt lat="-24.676208388161633" lon="113.8258462983865"><ele>23.5</ele><time>2026-04-17T07:36:47Z</time></trkpt><trkpt lat="-24.67595893079093" lon="113.82606955362463"><ele>24.0</ele><time>2026-04-17T07:36:48Z</time></trkpt><trkpt lat="-24.67570948451516" lon="113.82628998361189"><ele>24.0</ele><time>2026-04-17T07:36:49Z</time></trkpt><trkpt lat="-24.675456959514154" lon="113.82651041748947"><ele>24.0</ele><time>2026-04-17T07:36:50Z</time></trkpt><trkpt lat="-24.675200962343432" lon="113.82673060636539"><ele>23.5</ele><time>2026-04-17T07:36:51Z</time></trkpt><trkpt lat="-24.674942575559783" lon="113.82695135283156"><ele>23.0</ele><time>2026-04-17T07:36:52Z</time></trkpt><trkpt lat="-24.674688885285406" lon="113.8271688424688"><ele>22.5</ele><time>2026-04-17T07:36:53Z</time></trkpt><trkpt lat="-24.674432281417243" lon="113.82739304595859"><ele>22.0</ele><time>2026-04-17T07:36:54Z</time></trkpt><trkpt lat="-24.674174718782407" lon="113.82761652580895"><ele>21.5</ele><time>2026-04-17T07:36:55Z</time></trkpt><trkpt lat="-24.673914851962905" lon="113.82784233725644"><ele>21.0</ele><time>2026-04-17T07:36:56Z</time></trkpt><trkpt lat="-24.67365627933326" lon="113.82806979398194"><ele>22.0</ele><time>2026-04-17T07:36:57Z</time></trkpt><trkpt lat="-24.673403857686644" lon="113.82829516103484"><ele>23.0</ele><time>2026-04-17T07:36:58Z</time></trkpt><trkpt lat="-24.67315234416299" lon="113.82851917734877"><ele>23.0</ele><time>2026-04-17T07:36:59Z</time></trkpt><trkpt lat="-24.672902340365027" lon="113.82873735456931"><ele>23.0</ele><time>2026-04-17T07:37:00Z</time></trkpt><trkpt lat="-24.67264811715504" lon="113.82895227827436"><ele>23.0</ele><time>2026-04-17T07:37:01Z</time></trkpt><trkpt lat="-24.672393781767376" lon="113.82916049810422"><ele>23.0</ele><time>2026-04-17T07:37:02Z</time></trkpt><trkpt lat="-24.672135169996572" lon="113.82936264480301"><ele>21.5</ele><time>2026-04-17T07:37:03Z</time></trkpt><trkpt lat="-24.671869563354715" lon="113.82955875266255"><ele>20.0</ele><time>2026-04-17T07:37:04Z</time></trkpt><trkpt lat="-24.671597817302985" lon="113.82973884330062"><ele>20.0</ele><time>2026-04-17T07:37:05Z</time></trkpt><trkpt lat="-24.671313355977468" lon="113.82990672742761"><ele>20.0</ele><time>2026-04-17T07:37:06Z</time></trkpt><trkpt lat="-24.671025833744025" lon="113.83006321327237"><ele>22.0</ele><time>2026-04-17T07:37:07Z</time></trkpt><trkpt lat="-24.670726058080817" lon="113.83020618025688"><ele>24.0</ele><time>2026-04-17T07:37:08Z</time></trkpt><trkpt lat="-24.670422418548142" lon="113.83033826756225"><ele>22.5</ele><time>2026-04-17T07:37:09Z</time></trkpt><trkpt lat="-24.670116208231775" lon="113.83046494389558"><ele>21.0</ele><time>2026-04-17T07:37:10Z</time></trkpt><trkpt lat="-24.669807226787768" lon="113.83058088965315"><ele>21.0</ele><time>2026-04-17T07:37:11Z</time></trkpt><trkpt lat="-24.66949537727875" lon="113.83069471397287"><ele>21.0</ele><time>2026-04-17T07:37:12Z</time></trkpt><trkpt lat="-24.6691900986492" lon="113.83081008422072"><ele>21.5</ele><time>2026-04-17T07:37:13Z</time></trkpt><trkpt lat="-24.668889281265304" lon="113.83093159971662"><ele>22.0</ele><time>2026-04-17T07:37:14Z</time></trkpt><trkpt lat="-24.668594273493945" lon="113.83105497855487"><ele>22.0</ele><time>2026-04-17T07:37:15Z</time></trkpt><trkpt lat="-24.668300821033924" lon="113.83117456346204"><ele>22.0</ele><time>2026-04-17T07:37:16Z</time></trkpt><trkpt lat="-24.668006845621587" lon="113.8312926706289"><ele>22.5</ele><time>2026-04-17T07:37:17Z</time></trkpt><trkpt lat="-24.667714813691017" lon="113.83141037840107"><ele>23.0</ele><time>2026-04-17T07:37:18Z</time></trkpt><trkpt lat="-24.667420157451325" lon="113.83153001896262"><ele>23.0</ele><time>2026-04-17T07:37:19Z</time></trkpt><trkpt lat="-24.66714129253216" lon="113.83164202259013"><ele>23.0</ele><time>2026-04-17T07:37:20Z</time></trkpt><trkpt lat="-24.666880839768485" lon="113.83174755598674"><ele>22.5</ele><time>2026-04-17T07:37:21Z</time></trkpt><trkpt lat="-24.66661527650775" lon="113.8318537190427"><ele>22.0</ele><time>2026-04-17T07:37:22Z</time></trkpt><trkpt lat="-24.666344639117373" lon="113.83196406432347"><ele>22.0</ele><time>2026-04-17T07:37:23Z</time></trkpt><trkpt lat="-24.666068963416155" lon="113.83207700584855"><ele>22.0</ele><time>2026-04-17T07:37:24Z</time></trkpt><trkpt lat="-24.66579028277647" lon="113.83218898823834"><ele>22.0</ele><time>2026-04-17T07:37:25Z</time></trkpt><trkpt lat="-24.665507905309386" lon="113.83230194089595"><ele>22.0</ele><time>2026-04-17T07:37:26Z</time></trkpt><trkpt lat="-24.665222030031472" lon="113.83241687653658"><ele>21.5</ele><time>2026-04-17T07:37:27Z</time></trkpt><trkpt lat="-24.664931145486385" lon="113.83253517778302"><ele>21.0</ele><time>2026-04-17T07:37:28Z</time></trkpt><trkpt lat="-24.664642137936035" lon="113.83265220830843"><ele>21.5</ele><time>2026-04-17T07:37:29Z</time></trkpt><trkpt lat="-24.664346967039315" lon="113.83277141710947"><ele>22.0</ele><time>2026-04-17T07:37:30Z</time></trkpt><trkpt lat="-24.66405489540865" lon="113.8328898006857"><ele>22.0</ele><time>2026-04-17T07:37:31Z</time></trkpt><trkpt lat="-24.66376274950948" lon="113.83300931950886"><ele>22.0</ele><time>2026-04-17T07:37:32Z</time></trkpt><trkpt lat="-24.66347098711521" lon="113.83312522425854"><ele>22.5</ele><time>2026-04-17T07:37:33Z</time></trkpt><trkpt lat="-24.66317468937835" lon="113.83324033993922"><ele>23.0</ele><time>2026-04-17T07:37:34Z</time></trkpt><trkpt lat="-24.662878105286417" lon="113.83335816880563"><ele>22.0</ele><time>2026-04-17T07:37:35Z</time></trkpt><trkpt lat="-24.662585191490354" lon="113.83347594950315"><ele>21.0</ele><time>2026-04-17T07:37:36Z</time></trkpt><trkpt lat="-24.662294700749676" lon="113.8335953290002"><ele>21.0</ele><time>2026-04-17T07:37:37Z</time></trkpt><trkpt lat="-24.66199625434641" lon="113.83371770649809"><ele>21.0</ele><time>2026-04-17T07:37:38Z</time></trkpt><trkpt lat="-24.661698998813797" lon="113.83383949673767"><ele>20.0</ele><time>2026-04-17T07:37:39Z</time></trkpt><trkpt lat="-24.661410008733295" lon="113.83395534948218"><ele>19.0</ele><time>2026-04-17T07:37:40Z</time></trkpt><trkpt lat="-24.661118510223904" lon="113.83407357338876"><ele>19.0</ele><time>2026-04-17T07:37:41Z</time></trkpt><trkpt lat="-24.66082926738398" lon="113.83418945695082"><ele>19.0</ele><time>2026-04-17T07:37:42Z</time></trkpt><trkpt lat="-24.660538227563563" lon="113.83430602616707"><ele>19.0</ele><time>2026-04-17T07:37:43Z</time></trkpt><trkpt lat="-24.660246212703687" lon="113.83442313244427"><ele>19.0</ele><time>2026-04-17T07:37:44Z</time></trkpt><trkpt lat="-24.659956435108054" lon="113.834540176337"><ele>19.0</ele><time>2026-04-17T07:37:45Z</time></trkpt><trkpt lat="-24.659669573812078" lon="113.83465538758259"><ele>19.0</ele><time>2026-04-17T07:37:46Z</time></trkpt><trkpt lat="-24.659389438022153" lon="113.83476901040589"><ele>19.0</ele><time>2026-04-17T07:37:47Z</time></trkpt><trkpt lat="-24.659129609129693" lon="113.83487344131547"><ele>19.0</ele><time>2026-04-17T07:37:48Z</time></trkpt><trkpt lat="-24.658892501484484" lon="113.83496834888392"><ele>19.0</ele><time>2026-04-17T07:37:49Z</time></trkpt><trkpt lat="-24.658675902160912" lon="113.83505757103129"><ele>19.0</ele><time>2026-04-17T07:37:50Z</time></trkpt><trkpt lat="-24.658477711022332" lon="113.83513590182609"><ele>19.0</ele><time>2026-04-17T07:37:51Z</time></trkpt><trkpt lat="-24.658304410247087" lon="113.83519888910031"><ele>19.5</ele><time>2026-04-17T07:37:52Z</time></trkpt><trkpt lat="-24.65815968940022" lon="113.8352419666197"><ele>20.0</ele><time>2026-04-17T07:37:53Z</time></trkpt><trkpt lat="-24.65803460081569" lon="113.8352732645238"><ele>20.5</ele><time>2026-04-17T07:37:54Z</time></trkpt><trkpt lat="-24.65793413918739" lon="113.83529767766849"><ele>21.0</ele><time>2026-04-17T07:37:55Z</time></trkpt><trkpt lat="-24.657867046056776" lon="113.8353173815436"><ele>21.0</ele><time>2026-04-17T07:37:56Z</time></trkpt><trkpt lat="-24.65779276412075" lon="113.83535107050878"><ele>21.0</ele><time>2026-04-17T07:37:58Z</time></trkpt><trkpt lat="-24.657708739391868" lon="113.83537945095657"><ele>21.0</ele><time>2026-04-17T07:38:00Z</time></trkpt><trkpt lat="-24.657636995873727" lon="113.83542183952157"><ele>21.0</ele><time>2026-04-17T07:41:04Z</time></trkpt><trkpt lat="-24.657579887312483" lon="113.83546327971727"><ele>21.0</ele><time>2026-04-17T07:41:05Z</time></trkpt><trkpt lat="-24.657525377023" lon="113.83550628398305"><ele>21.0</ele><time>2026-04-17T07:41:06Z</time></trkpt><trkpt lat="-24.65745407692661" lon="113.83555747560094"><ele>21.0</ele><time>2026-04-17T07:41:07Z</time></trkpt><trkpt lat="-24.65735514498349" lon="113.83560119977322"><ele>21.0</ele><time>2026-04-17T07:41:08Z</time></trkpt><trkpt lat="-24.657243158545665" lon="113.8356374594048"><ele>21.0</ele><time>2026-04-17T07:41:09Z</time></trkpt><trkpt lat="-24.657115726661786" lon="113.83567951066422"><ele>21.0</ele><time>2026-04-17T07:41:10Z</time></trkpt><trkpt lat="-24.65696527969172" lon="113.83573206620606"><ele>20.666666666666668</ele><time>2026-04-17T07:41:11Z</time></trkpt><trkpt lat="-24.65679223648739" lon="113.83579940884732"><ele>20.333333333333336</ele><time>2026-04-17T07:41:12Z</time></trkpt><trkpt lat="-24.656614513754356" lon="113.83587704088822"><ele>20.0</ele><time>2026-04-17T07:41:13Z</time></trkpt><trkpt lat="-24.65641530094587" lon="113.83596476473933"><ele>20.333333333333336</ele><time>2026-04-17T07:41:14Z</time></trkpt><trkpt lat="-24.656208993467615" lon="113.83604953490196"><ele>20.666666666666668</ele><time>2026-04-17T07:41:15Z</time></trkpt><trkpt lat="-24.65599860390668" lon="113.8361343191964"><ele>21.0</ele><time>2026-04-17T07:41:16Z</time></trkpt><trkpt lat="-24.65577608029427" lon="113.8362252757582"><ele>19.5</ele><time>2026-04-17T07:41:17Z</time></trkpt><trkpt lat="-24.655541762574213" lon="113.83632164284133"><ele>18.0</ele><time>2026-04-17T07:41:18Z</time></trkpt><trkpt lat="-24.65530888412426" lon="113.83641647134507"><ele>19.0</ele><time>2026-04-17T07:41:19Z</time></trkpt><trkpt lat="-24.65507687458323" lon="113.83650545561404"><ele>20.0</ele><time>2026-04-17T07:41:20Z</time></trkpt><trkpt lat="-24.6548454021947" lon="113.83659801101518"><ele>20.0</ele><time>2026-04-17T07:41:21Z</time></trkpt><trkpt lat="-24.65461362848913" lon="113.83669036243576"><ele>20.0</ele><time>2026-04-17T07:41:22Z</time></trkpt><trkpt lat="-24.654377930973528" lon="113.83678424415068"><ele>19.5</ele><time>2026-04-17T07:41:23Z</time></trkpt><trkpt lat="-24.654138247586026" lon="113.83688281458909"><ele>19.0</ele><time>2026-04-17T07:41:24Z</time></trkpt><trkpt lat="-24.65390096355249" lon="113.83698021724652"><ele>19.0</ele><time>2026-04-17T07:41:25Z</time></trkpt><trkpt lat="-24.653667975678218" lon="113.83707391783743"><ele>19.0</ele><time>2026-04-17T07:41:26Z</time></trkpt><trkpt lat="-24.653432110880512" lon="113.83716777419373"><ele>18.0</ele><time>2026-04-17T07:41:27Z</time></trkpt><trkpt lat="-24.65319636212116" lon="113.83726203348138"><ele>17.0</ele><time>2026-04-17T07:41:28Z</time></trkpt><trkpt lat="-24.652963426664773" lon="113.83735673216344"><ele>19.0</ele><time>2026-04-17T07:41:29Z</time></trkpt><trkpt lat="-24.652731539559074" lon="113.83745205212055"><ele>21.0</ele><time>2026-04-17T07:41:30Z</time></trkpt><trkpt lat="-24.65249623367025" lon="113.83754754874715"><ele>21.0</ele><time>2026-04-17T07:41:31Z</time></trkpt><trkpt lat="-24.652263125488435" lon="113.83763890676984"><ele>21.0</ele><time>2026-04-17T07:41:32Z</time></trkpt><trkpt lat="-24.65202752463925" lon="113.8377295202263"><ele>20.0</ele><time>2026-04-17T07:41:33Z</time></trkpt><trkpt lat="-24.65179516188246" lon="113.83782125151185"><ele>19.0</ele><time>2026-04-17T07:41:34Z</time></trkpt><trkpt lat="-24.65156438180144" lon="113.83791221938655"><ele>19.0</ele><time>2026-04-17T07:41:35Z</time></trkpt><trkpt lat="-24.65133088454725" lon="113.8380073228951"><ele>19.0</ele><time>2026-04-17T07:41:36Z</time></trkpt><trkpt lat="-24.65109484825647" lon="113.83810656639456"><ele>19.0</ele><time>2026-04-17T07:41:37Z</time></trkpt><trkpt lat="-24.650854308057923" lon="113.83820676749768"><ele>19.0</ele><time>2026-04-17T07:41:38Z</time></trkpt><trkpt lat="-24.650615431068264" lon="113.83830390344772"><ele>19.0</ele><time>2026-04-17T07:41:39Z</time></trkpt><trkpt lat="-24.65036439946272" lon="113.8384027109893"><ele>19.0</ele><time>2026-04-17T07:41:40Z</time></trkpt><trkpt lat="-24.650111580306156" lon="113.83850346359229"><ele>18.5</ele><time>2026-04-17T07:41:41Z</time></trkpt><trkpt lat="-24.649851214437753" lon="113.83860691497036"><ele>18.0</ele><time>2026-04-17T07:41:42Z</time></trkpt><trkpt lat="-24.649588560672772" lon="113.83871180419825"><ele>18.5</ele><time>2026-04-17T07:41:43Z</time></trkpt><trkpt lat="-24.649326368620702" lon="113.83881584525118"><ele>19.0</ele><time>2026-04-17T07:41:44Z</time></trkpt><trkpt lat="-24.649061342391743" lon="113.83892073730621"><ele>19.0</ele><time>2026-04-17T07:41:45Z</time></trkpt><trkpt lat="-24.648795898897134" lon="113.83902470502332"><ele>19.0</ele><time>2026-04-17T07:41:46Z</time></trkpt><trkpt lat="-24.648531107684068" lon="113.83913172614739"><ele>19.5</ele><time>2026-04-17T07:41:47Z</time></trkpt><trkpt lat="-24.648267312281273" lon="113.83924229601531"><ele>20.0</ele><time>2026-04-17T07:41:48Z</time></trkpt><trkpt lat="-24.647992846415267" lon="113.8393588187718"><ele>18.5</ele><time>2026-04-17T07:41:49Z</time></trkpt><trkpt lat="-24.64771558658718" lon="113.83947191347912"><ele>17.0</ele><time>2026-04-17T07:41:50Z</time></trkpt><trkpt lat="-24.647445100010074" lon="113.83957657976997"><ele>17.0</ele><time>2026-04-17T07:41:51Z</time></trkpt><trkpt lat="-24.647169430763835" lon="113.83968172657165"><ele>17.0</ele><time>2026-04-17T07:41:52Z</time></trkpt><trkpt lat="-24.646885944310817" lon="113.83979110609565"><ele>17.5</ele><time>2026-04-17T07:41:53Z</time></trkpt><trkpt lat="-24.6466004037241" lon="113.8399066592914"><ele>18.0</ele><time>2026-04-17T07:41:54Z</time></trkpt><trkpt lat="-24.64631024313942" lon="113.84002408161231"><ele>19.5</ele><time>2026-04-17T07:41:55Z</time></trkpt><trkpt lat="-24.646020213761844" lon="113.84014040225526"><ele>21.0</ele><time>2026-04-17T07:41:56Z</time></trkpt><trkpt lat="-24.64572870353893" lon="113.84025664686837"><ele>21.0</ele><time>2026-04-17T07:41:57Z</time></trkpt><trkpt lat="-24.645433973382566" lon="113.84037666754412"><ele>21.0</ele><time>2026-04-17T07:41:58Z</time></trkpt><trkpt lat="-24.645131005703682" lon="113.84049697382254"><ele>19.5</ele><time>2026-04-17T07:41:59Z</time></trkpt><trkpt lat="-24.644824496849896" lon="113.84061656021066"><ele>18.0</ele><time>2026-04-17T07:42:00Z</time></trkpt><trkpt lat="-24.644520414343813" lon="113.84073725452681"><ele>18.5</ele><time>2026-04-17T07:42:01Z</time></trkpt><trkpt lat="-24.644213815231453" lon="113.840861687631"><ele>19.0</ele><time>2026-04-17T07:42:02Z</time></trkpt><trkpt lat="-24.643914710755773" lon="113.84098230101822"><ele>19.0</ele><time>2026-04-17T07:42:03Z</time></trkpt><trkpt lat="-24.643614975389543" lon="113.84110267308851"><ele>19.0</ele><time>2026-04-17T07:42:04Z</time></trkpt><trkpt lat="-24.643319941755912" lon="113.84122752111405"><ele>19.0</ele><time>2026-04-17T07:42:05Z</time></trkpt><trkpt lat="-24.64302134420357" lon="113.84135935300233"><ele>19.0</ele><time>2026-04-17T07:42:06Z</time></trkpt><trkpt lat="-24.642725996815663" lon="113.84151376071128"><ele>18.5</ele><time>2026-04-17T07:42:07Z</time></trkpt><trkpt lat="-24.642439562764796" lon="113.84168053553611"><ele>18.0</ele><time>2026-04-17T07:42:08Z</time></trkpt><trkpt lat="-24.642162128199445" lon="113.8418621787347"><ele>18.5</ele><time>2026-04-17T07:42:09Z</time></trkpt><trkpt lat="-24.641887724817494" lon="113.8420567195958"><ele>19.0</ele><time>2026-04-17T07:42:10Z</time></trkpt><trkpt lat="-24.641620477463576" lon="113.84226304675875"><ele>19.0</ele><time>2026-04-17T07:42:11Z</time></trkpt><trkpt lat="-24.641358636549633" lon="113.84248191218886"><ele>19.0</ele><time>2026-04-17T07:42:12Z</time></trkpt><trkpt lat="-24.641103078383964" lon="113.84270973027529"><ele>18.5</ele><time>2026-04-17T07:42:13Z</time></trkpt><trkpt lat="-24.640854419802427" lon="113.84294527047544"><ele>18.0</ele><time>2026-04-17T07:42:14Z</time></trkpt><trkpt lat="-24.64060741843827" lon="113.8431802035907"><ele>18.0</ele><time>2026-04-17T07:42:15Z</time></trkpt><trkpt lat="-24.640355911435382" lon="113.8434119146704"><ele>18.0</ele><time>2026-04-17T07:42:16Z</time></trkpt><trkpt lat="-24.640103845767218" lon="113.84363997463842"><ele>18.0</ele><time>2026-04-17T07:42:17Z</time></trkpt><trkpt lat="-24.639852237684014" lon="113.84386897480812"><ele>18.0</ele><time>2026-04-17T07:42:18Z</time></trkpt><trkpt lat="-24.639600669637247" lon="113.84409837955376"><ele>18.0</ele><time>2026-04-17T07:42:19Z</time></trkpt><trkpt lat="-24.639349010892342" lon="113.84432953898697"><ele>18.0</ele><time>2026-04-17T07:42:20Z</time></trkpt><trkpt lat="-24.639097059694176" lon="113.84456037539702"><ele>18.0</ele><time>2026-04-17T07:42:21Z</time></trkpt><trkpt lat="-24.638844419386103" lon="113.84479020168956"><ele>18.0</ele><time>2026-04-17T07:42:22Z</time></trkpt><trkpt lat="-24.638592183431996" lon="113.84502040871821"><ele>19.0</ele><time>2026-04-17T07:42:23Z</time></trkpt><trkpt lat="-24.63834015849607" lon="113.84525203234806"><ele>20.0</ele><time>2026-04-17T07:42:24Z</time></trkpt><trkpt lat="-24.63808711478768" lon="113.84548645051181"><ele>20.0</ele><time>2026-04-17T07:42:25Z</time></trkpt><trkpt lat="-24.637833110193974" lon="113.84572152966224"><ele>20.0</ele><time>2026-04-17T07:42:26Z</time></trkpt><trkpt lat="-24.637581274018217" lon="113.84595688251247"><ele>20.0</ele><time>2026-04-17T07:42:27Z</time></trkpt><trkpt lat="-24.637327735718287" lon="113.84619194005636"><ele>20.0</ele><time>2026-04-17T07:42:28Z</time></trkpt><trkpt lat="-24.637075911706347" lon="113.8464227803727"><ele>19.5</ele><time>2026-04-17T07:42:29Z</time></trkpt><trkpt lat="-24.636821840582" lon="113.84665614218854"><ele>19.0</ele><time>2026-04-17T07:42:30Z</time></trkpt><trkpt lat="-24.636571770717243" lon="113.84688922953711"><ele>19.0</ele><time>2026-04-17T07:42:31Z</time></trkpt><trkpt lat="-24.63631938690797" lon="113.84712450653252"><ele>19.0</ele><time>2026-04-17T07:42:32Z</time></trkpt><trkpt lat="-24.636080482368047" lon="113.84736636687036"><ele>19.0</ele><time>2026-04-17T07:42:33Z</time></trkpt><trkpt lat="-24.63585581712407" lon="113.84762133557251"><ele>19.0</ele><time>2026-04-17T07:42:34Z</time></trkpt><trkpt lat="-24.63564083988409" lon="113.84789209332585"><ele>19.5</ele><time>2026-04-17T07:42:35Z</time></trkpt><trkpt lat="-24.635434103674342" lon="113.84817111415884"><ele>20.0</ele><time>2026-04-17T07:42:36Z</time></trkpt><trkpt lat="-24.635231795768355" lon="113.84845868372355"><ele>21.0</ele><time>2026-04-17T07:42:37Z</time></trkpt><trkpt lat="-24.635038066974353" lon="113.84875056485686"><ele>22.0</ele><time>2026-04-17T07:42:38Z</time></trkpt><trkpt lat="-24.634857490727576" lon="113.84905035653158"><ele>21.5</ele><time>2026-04-17T07:42:39Z</time></trkpt><trkpt lat="-24.634688866702334" lon="113.84935961152804"><ele>21.0</ele><time>2026-04-17T07:42:40Z</time></trkpt><trkpt lat="-24.634530417480057" lon="113.84967377004882"><ele>21.0</ele><time>2026-04-17T07:42:41Z</time></trkpt><trkpt lat="-24.63438706516657" lon="113.84999225098642"><ele>21.0</ele><time>2026-04-17T07:42:42Z</time></trkpt><trkpt lat="-24.634250842733362" lon="113.85031923092966"><ele>20.5</ele><time>2026-04-17T07:42:43Z</time></trkpt><trkpt lat="-24.634123471341876" lon="113.85064659117432"><ele>20.0</ele><time>2026-04-17T07:42:44Z</time></trkpt><trkpt lat="-24.634002910823288" lon="113.85098246739683"><ele>20.0</ele><time>2026-04-17T07:42:45Z</time></trkpt><trkpt lat="-24.633888275686665" lon="113.85131604824113"><ele>20.0</ele><time>2026-04-17T07:42:46Z</time></trkpt><trkpt lat="-24.633770859144043" lon="113.85165297275628"><ele>20.0</ele><time>2026-04-17T07:42:47Z</time></trkpt><trkpt lat="-24.633649490998998" lon="113.85198649307374"><ele>20.0</ele><time>2026-04-17T07:42:48Z</time></trkpt><trkpt lat="-24.633523226783545" lon="113.85232055742225"><ele>20.5</ele><time>2026-04-17T07:42:49Z</time></trkpt><trkpt lat="-24.63339787241156" lon="113.85264950679222"><ele>21.0</ele><time>2026-04-17T07:42:50Z</time></trkpt><trkpt lat="-24.633278532064573" lon="113.85297595897586"><ele>21.0</ele><time>2026-04-17T07:42:51Z</time></trkpt><trkpt lat="-24.6331583947784" lon="113.85330311041527"><ele>21.0</ele><time>2026-04-17T07:42:52Z</time></trkpt><trkpt lat="-24.63303855495601" lon="113.8536317845831"><ele>21.0</ele><time>2026-04-17T07:42:53Z</time></trkpt><trkpt lat="-24.6329148409787" lon="113.85396109390683"><ele>21.0</ele><time>2026-04-17T07:42:54Z</time></trkpt><trkpt lat="-24.63278322866121" lon="113.85428495037159"><ele>20.5</ele><time>2026-04-17T07:42:55Z</time></trkpt><trkpt lat="-24.632635567284566" lon="113.85460024377154"><ele>20.0</ele><time>2026-04-17T07:42:56Z</time></trkpt><trkpt lat="-24.632475066821982" lon="113.8549085866282"><ele>20.0</ele><time>2026-04-17T07:42:57Z</time></trkpt><trkpt lat="-24.632299814255056" lon="113.85520893000661"><ele>20.0</ele><time>2026-04-17T07:42:58Z</time></trkpt><trkpt lat="-24.63211505811965" lon="113.85550270384316"><ele>20.0</ele><time>2026-04-17T07:42:59Z</time></trkpt><trkpt lat="-24.63192354422617" lon="113.8557925778498"><ele>20.0</ele><time>2026-04-17T07:43:00Z</time></trkpt><trkpt lat="-24.631730175741886" lon="113.85607346748111"><ele>21.0</ele><time>2026-04-17T07:43:01Z</time></trkpt><trkpt lat="-24.631537817316037" lon="113.85634870930902"><ele>22.0</ele><time>2026-04-17T07:43:02Z</time></trkpt><trkpt lat="-24.63134576976168" lon="113.85661476088924"><ele>22.0</ele><time>2026-04-17T07:43:03Z</time></trkpt><trkpt lat="-24.63115545917701" lon="113.85687759763563"><ele>22.0</ele><time>2026-04-17T07:43:04Z</time></trkpt><trkpt lat="-24.63097151011549" lon="113.85714062740641"><ele>20.5</ele><time>2026-04-17T07:43:05Z</time></trkpt><trkpt lat="-24.630795066365454" lon="113.8574027565089"><ele>19.0</ele><time>2026-04-17T07:43:06Z</time></trkpt><trkpt lat="-24.630621308518723" lon="113.85766298465468"><ele>19.0</ele><time>2026-04-17T07:43:07Z</time></trkpt><trkpt lat="-24.63044364405153" lon="113.85792130364322"><ele>19.0</ele><time>2026-04-17T07:43:08Z</time></trkpt><trkpt lat="-24.630264888177077" lon="113.85817265572601"><ele>19.5</ele><time>2026-04-17T07:43:09Z</time></trkpt><trkpt lat="-24.63008550142554" lon="113.85842014724619"><ele>20.0</ele><time>2026-04-17T07:43:10Z</time></trkpt><trkpt lat="-24.62990508571081" lon="113.85866862139761"><ele>20.5</ele><time>2026-04-17T07:43:11Z</time></trkpt><trkpt lat="-24.629728287969655" lon="113.85892064601329"><ele>21.0</ele><time>2026-04-17T07:43:12Z</time></trkpt><trkpt lat="-24.62955169720555" lon="113.85917744131228"><ele>20.5</ele><time>2026-04-17T07:43:13Z</time></trkpt><trkpt lat="-24.629375578521557" lon="113.85943522885815"><ele>20.0</ele><time>2026-04-17T07:43:14Z</time></trkpt><trkpt lat="-24.62919892705387" lon="113.85969265283718"><ele>20.0</ele><time>2026-04-17T07:43:15Z</time></trkpt><trkpt lat="-24.62901975248205" lon="113.85994810918713"><ele>20.0</ele><time>2026-04-17T07:43:16Z</time></trkpt><trkpt lat="-24.628837503014662" lon="113.86020475462294"><ele>20.0</ele><time>2026-04-17T07:43:17Z</time></trkpt><trkpt lat="-24.628659377783528" lon="113.86046234840273"><ele>20.0</ele><time>2026-04-17T07:43:18Z</time></trkpt><trkpt lat="-24.62848192576647" lon="113.86071923545151"><ele>20.5</ele><time>2026-04-17T07:43:19Z</time></trkpt><trkpt lat="-24.62830277418815" lon="113.86097656773111"><ele>21.0</ele><time>2026-04-17T07:43:20Z</time></trkpt><trkpt lat="-24.62812395791183" lon="113.86123321916251"><ele>21.0</ele><time>2026-04-17T07:43:21Z</time></trkpt><trkpt lat="-24.627941527929384" lon="113.86148978021386"><ele>21.0</ele><time>2026-04-17T07:43:22Z</time></trkpt><trkpt lat="-24.627761563916632" lon="113.86174331525116"><ele>20.0</ele><time>2026-04-17T07:43:23Z</time></trkpt><trkpt lat="-24.62758461696812" lon="113.8619988547982"><ele>19.0</ele><time>2026-04-17T07:43:24Z</time></trkpt><trkpt lat="-24.627406451697894" lon="113.86225621145728"><ele>19.0</ele><time>2026-04-17T07:43:25Z</time></trkpt><trkpt lat="-24.62722614275678" lon="113.86251374822845"><ele>19.0</ele><time>2026-04-17T07:43:26Z</time></trkpt><trkpt lat="-24.62704763444301" lon="113.86277110083621"><ele>19.5</ele><time>2026-04-17T07:43:27Z</time></trkpt><trkpt lat="-24.626869588504547" lon="113.86303041416431"><ele>20.0</ele><time>2026-04-17T07:43:28Z</time></trkpt><trkpt lat="-24.6266917373008" lon="113.86328983263624"><ele>20.0</ele><time>2026-04-17T07:43:29Z</time></trkpt><trkpt lat="-24.626512917271686" lon="113.8635457391079"><ele>20.0</ele><time>2026-04-17T07:43:30Z</time></trkpt><trkpt lat="-24.626329165556523" lon="113.86380365698523"><ele>20.0</ele><time>2026-04-17T07:43:31Z</time></trkpt><trkpt lat="-24.62614631133988" lon="113.86405831642257"><ele>20.0</ele><time>2026-04-17T07:43:32Z</time></trkpt><trkpt lat="-24.625961927894664" lon="113.86431685430685"><ele>20.5</ele><time>2026-04-17T07:43:33Z</time></trkpt><trkpt lat="-24.625783074541385" lon="113.86457688014917"><ele>21.0</ele><time>2026-04-17T07:43:34Z</time></trkpt><trkpt lat="-24.625602574679856" lon="113.86483905391572"><ele>21.0</ele><time>2026-04-17T07:43:35Z</time></trkpt><trkpt lat="-24.62542015028167" lon="113.86509910258687"><ele>21.0</ele><time>2026-04-17T07:43:36Z</time></trkpt><trkpt lat="-24.625239930210846" lon="113.86535799272754"><ele>21.5</ele><time>2026-04-17T07:43:37Z</time></trkpt><trkpt lat="-24.625060731173424" lon="113.86561622814624"><ele>22.0</ele><time>2026-04-17T07:43:38Z</time></trkpt><trkpt lat="-24.624881781636038" lon="113.8658729616949"><ele>21.5</ele><time>2026-04-17T07:43:39Z</time></trkpt><trkpt lat="-24.624700622244145" lon="113.86613301852677"><ele>21.0</ele><time>2026-04-17T07:43:40Z</time></trkpt><trkpt lat="-24.624518583424756" lon="113.86639357684888"><ele>21.0</ele><time>2026-04-17T07:43:41Z</time></trkpt><trkpt lat="-24.624336058182845" lon="113.86665297703702"><ele>21.0</ele><time>2026-04-17T07:43:42Z</time></trkpt><trkpt lat="-24.624149593775115" lon="113.86691787491796"><ele>21.0</ele><time>2026-04-17T07:43:43Z</time></trkpt><trkpt lat="-24.62396288069382" lon="113.86718819187568"><ele>21.0</ele><time>2026-04-17T07:43:44Z</time></trkpt><trkpt lat="-24.623776058046097" lon="113.86746089074347"><ele>22.0</ele><time>2026-04-17T07:43:45Z</time></trkpt><trkpt lat="-24.6235857563718" lon="113.86773560678303"><ele>23.0</ele><time>2026-04-17T07:43:46Z</time></trkpt><trkpt lat="-24.623394782037344" lon="113.86801392711564"><ele>23.0</ele><time>2026-04-17T07:43:47Z</time></trkpt><trkpt lat="-24.62320317214357" lon="113.86829566131532"><ele>23.0</ele><time>2026-04-17T07:43:48Z</time></trkpt><trkpt lat="-24.62301079355737" lon="113.86857745194519"><ele>22.5</ele><time>2026-04-17T07:43:49Z</time></trkpt><trkpt lat="-24.622817130240353" lon="113.86885934067917"><ele>22.0</ele><time>2026-04-17T07:43:50Z</time></trkpt><trkpt lat="-24.622622900240867" lon="113.86914156781808"><ele>20.5</ele><time>2026-04-17T07:43:51Z</time></trkpt><trkpt lat="-24.62242295077734" lon="113.86942893054862"><ele>19.0</ele><time>2026-04-17T07:43:52Z</time></trkpt><trkpt lat="-24.62222379271972" lon="113.86971841944548"><ele>19.0</ele><time>2026-04-17T07:43:53Z</time></trkpt><trkpt lat="-24.62202103913759" lon="113.87001356277906"><ele>19.0</ele><time>2026-04-17T07:43:54Z</time></trkpt><trkpt lat="-24.62182514075064" lon="113.87030680359385"><ele>19.0</ele><time>2026-04-17T07:43:55Z</time></trkpt><trkpt lat="-24.62162935147218" lon="113.87059751543538"><ele>19.0</ele><time>2026-04-17T07:43:56Z</time></trkpt><trkpt lat="-24.621432528141405" lon="113.87088171980417"><ele>19.0</ele><time>2026-04-17T07:43:57Z</time></trkpt><trkpt lat="-24.621233595209965" lon="113.87116402085515"><ele>19.0</ele><time>2026-04-17T07:43:58Z</time></trkpt><trkpt lat="-24.62103886480169" lon="113.8714402819287"><ele>19.5</ele><time>2026-04-17T07:43:59Z</time></trkpt><trkpt lat="-24.620848058154067" lon="113.87171361615385"><ele>20.0</ele><time>2026-04-17T07:44:00Z</time></trkpt><trkpt lat="-24.620661432083445" lon="113.87198686164989"><ele>20.5</ele><time>2026-04-17T07:44:01Z</time></trkpt><trkpt lat="-24.620478922642402" lon="113.87225888549324"><ele>21.0</ele><time>2026-04-17T07:44:02Z</time></trkpt><trkpt lat="-24.62029240749874" lon="113.87252954680062"><ele>20.5</ele><time>2026-04-17T07:44:03Z</time></trkpt><trkpt lat="-24.620108718806495" lon="113.87279631288584"><ele>20.0</ele><time>2026-04-17T07:44:04Z</time></trkpt><trkpt lat="-24.619924111356596" lon="113.87306440498219"><ele>20.0</ele><time>2026-04-17T07:44:05Z</time></trkpt><trkpt lat="-24.619741148251318" lon="113.87333314852751"><ele>20.0</ele><time>2026-04-17T07:44:06Z</time></trkpt><trkpt lat="-24.619558416313996" lon="113.87360305749881"><ele>20.0</ele><time>2026-04-17T07:44:07Z</time></trkpt><trkpt lat="-24.619373071245892" lon="113.87387581862075"><ele>20.0</ele><time>2026-04-17T07:44:08Z</time></trkpt><trkpt lat="-24.61918256049899" lon="113.87415115411173"><ele>19.5</ele><time>2026-04-17T07:44:09Z</time></trkpt><trkpt lat="-24.618992337405295" lon="113.87442503763408"><ele>19.0</ele><time>2026-04-17T07:44:10Z</time></trkpt><trkpt lat="-24.618805116216603" lon="113.87470048048607"><ele>19.0</ele><time>2026-04-17T07:44:11Z</time></trkpt><trkpt lat="-24.618618030195755" lon="113.8749721405052"><ele>19.0</ele><time>2026-04-17T07:44:12Z</time></trkpt><trkpt lat="-24.618427619741027" lon="113.87524315568838"><ele>20.0</ele><time>2026-04-17T07:44:13Z</time></trkpt><trkpt lat="-24.61823627299359" lon="113.8755166524588"><ele>21.0</ele><time>2026-04-17T07:44:14Z</time></trkpt><trkpt lat="-24.618044925503263" lon="113.87579235480001"><ele>21.5</ele><time>2026-04-17T07:44:15Z</time></trkpt><trkpt lat="-24.617854086871883" lon="113.87607019723724"><ele>22.0</ele><time>2026-04-17T07:44:16Z</time></trkpt><trkpt lat="-24.617662922414535" lon="113.87635242661885"><ele>22.0</ele><time>2026-04-17T07:44:17Z</time></trkpt><trkpt lat="-24.617472220908734" lon="113.87663368727108"><ele>22.0</ele><time>2026-04-17T07:44:18Z</time></trkpt><trkpt lat="-24.61728196621603" lon="113.87691715364099"><ele>22.0</ele><time>2026-04-17T07:44:19Z</time></trkpt><trkpt lat="-24.617090618620942" lon="113.8771994562785"><ele>22.0</ele><time>2026-04-17T07:44:20Z</time></trkpt><trkpt lat="-24.616900282755033" lon="113.87747841664196"><ele>21.5</ele><time>2026-04-17T07:44:21Z</time></trkpt><trkpt lat="-24.616707043342085" lon="113.87775916918821"><ele>21.0</ele><time>2026-04-17T07:44:22Z</time></trkpt><trkpt lat="-24.616515170131994" lon="113.87803801736928"><ele>21.0</ele><time>2026-04-17T07:44:23Z</time></trkpt><trkpt lat="-24.616323205570644" lon="113.87831558495178"><ele>21.0</ele><time>2026-04-17T07:44:24Z</time></trkpt><trkpt lat="-24.61612664216613" lon="113.8785939587626"><ele>21.0</ele><time>2026-04-17T07:44:25Z</time></trkpt><trkpt lat="-24.615935419061746" lon="113.87886910002506"><ele>21.0</ele><time>2026-04-17T07:44:26Z</time></trkpt><trkpt lat="-24.61574020327128" lon="113.87914903519092"><ele>20.0</ele><time>2026-04-17T07:44:27Z</time></trkpt><trkpt lat="-24.615549585847603" lon="113.87942406230859"><ele>19.0</ele><time>2026-04-17T07:44:28Z</time></trkpt><trkpt lat="-24.61536189269166" lon="113.87969812975052"><ele>20.5</ele><time>2026-04-17T07:44:29Z</time></trkpt><trkpt lat="-24.615177991995008" lon="113.87996999930431"><ele>22.0</ele><time>2026-04-17T07:44:30Z</time></trkpt><trkpt lat="-24.614997084917796" lon="113.88023875868716"><ele>23.0</ele><time>2026-04-17T07:44:31Z</time></trkpt><trkpt lat="-24.61481507847231" lon="113.88050664517104"><ele>24.0</ele><time>2026-04-17T07:44:32Z</time></trkpt><trkpt lat="-24.614632492061855" lon="113.88077040596177"><ele>23.5</ele><time>2026-04-17T07:44:33Z</time></trkpt><trkpt lat="-24.614453172844694" lon="113.88103256121401"><ele>23.0</ele><time>2026-04-17T07:44:34Z</time></trkpt><trkpt lat="-24.61427245658676" lon="113.88130128593343"><ele>23.0</ele><time>2026-04-17T07:44:35Z</time></trkpt><trkpt lat="-24.614085040017954" lon="113.88157409425297"><ele>23.0</ele><time>2026-04-17T07:44:36Z</time></trkpt><trkpt lat="-24.613891481706045" lon="113.88185837342641"><ele>22.5</ele><time>2026-04-17T07:44:37Z</time></trkpt><trkpt lat="-24.61370093746701" lon="113.88214662247591"><ele>22.0</ele><time>2026-04-17T07:44:38Z</time></trkpt><trkpt lat="-24.61350829615194" lon="113.88243565376112"><ele>23.0</ele><time>2026-04-17T07:44:39Z</time></trkpt><trkpt lat="-24.613314112531437" lon="113.88272514245315"><ele>24.0</ele><time>2026-04-17T07:44:40Z</time></trkpt><trkpt lat="-24.613116909376103" lon="113.88301437608463"><ele>24.0</ele><time>2026-04-17T07:44:41Z</time></trkpt><trkpt lat="-24.61292106478245" lon="113.88330038919837"><ele>24.0</ele><time>2026-04-17T07:44:42Z</time></trkpt><trkpt lat="-24.61272319403001" lon="113.88358678314584"><ele>22.0</ele><time>2026-04-17T07:44:43Z</time></trkpt><trkpt lat="-24.612525336287995" lon="113.88387017621646"><ele>20.0</ele><time>2026-04-17T07:44:44Z</time></trkpt><trkpt lat="-24.612329869550795" lon="113.88414867448104"><ele>20.0</ele><time>2026-04-17T07:44:45Z</time></trkpt><trkpt lat="-24.612134257727032" lon="113.8844222761842"><ele>20.0</ele><time>2026-04-17T07:44:46Z</time></trkpt><trkpt lat="-24.61193612391182" lon="113.8846985052622"><ele>20.5</ele><time>2026-04-17T07:44:47Z</time></trkpt><trkpt lat="-24.61173765515958" lon="113.88497126930088"><ele>21.0</ele><time>2026-04-17T07:44:48Z</time></trkpt><trkpt lat="-24.611540009201928" lon="113.88524327772575"><ele>21.5</ele><time>2026-04-17T07:44:49Z</time></trkpt><trkpt lat="-24.611343702218765" lon="113.88552028239343"><ele>22.0</ele><time>2026-04-17T07:44:50Z</time></trkpt><trkpt lat="-24.61114755026489" lon="113.88579528048308"><ele>22.0</ele><time>2026-04-17T07:44:51Z</time></trkpt><trkpt lat="-24.610954232369654" lon="113.88607514869868"><ele>22.0</ele><time>2026-04-17T07:44:52Z</time></trkpt><trkpt lat="-24.610761968728855" lon="113.88635464855784"><ele>22.0</ele><time>2026-04-17T07:44:53Z</time></trkpt><trkpt lat="-24.61056784873699" lon="113.88663847544933"><ele>22.0</ele><time>2026-04-17T07:44:54Z</time></trkpt><trkpt lat="-24.610374740325224" lon="113.8869193552372"><ele>21.5</ele><time>2026-04-17T07:44:55Z</time></trkpt><trkpt lat="-24.610180944995296" lon="113.8872001975916"><ele>21.0</ele><time>2026-04-17T07:44:56Z</time></trkpt><trkpt lat="-24.60998621330236" lon="113.88747995283889"><ele>21.5</ele><time>2026-04-17T07:44:57Z</time></trkpt><trkpt lat="-24.609793443168332" lon="113.88775713639095"><ele>22.0</ele><time>2026-04-17T07:44:58Z</time></trkpt><trkpt lat="-24.609602173064822" lon="113.88803747007425"><ele>22.5</ele><time>2026-04-17T07:44:59Z</time></trkpt><trkpt lat="-24.609412644471522" lon="113.88831875748512"><ele>23.0</ele><time>2026-04-17T07:45:00Z</time></trkpt><trkpt lat="-24.609218780457102" lon="113.88859861596548"><ele>22.0</ele><time>2026-04-17T07:45:01Z</time></trkpt><trkpt lat="-24.609024594877663" lon="113.88887653871136"><ele>21.0</ele><time>2026-04-17T07:45:02Z</time></trkpt><trkpt lat="-24.608834277250825" lon="113.88915321553914"><ele>22.5</ele><time>2026-04-17T07:45:03Z</time></trkpt><trkpt lat="-24.608646364240727" lon="113.88942720893874"><ele>24.0</ele><time>2026-04-17T07:45:04Z</time></trkpt><trkpt lat="-24.608456676379316" lon="113.88970136460628"><ele>24.0</ele><time>2026-04-17T07:45:05Z</time></trkpt><trkpt lat="-24.608265916323088" lon="113.88997581702625"><ele>24.0</ele><time>2026-04-17T07:45:06Z</time></trkpt><trkpt lat="-24.608075384975216" lon="113.89025030710945"><ele>24.0</ele><time>2026-04-17T07:45:07Z</time></trkpt><trkpt lat="-24.60788638868935" lon="113.89052381310975"><ele>24.0</ele><time>2026-04-17T07:45:08Z</time></trkpt><trkpt lat="-24.60769574926839" lon="113.89079874720929"><ele>24.0</ele><time>2026-04-17T07:45:09Z</time></trkpt><trkpt lat="-24.60750319942975" lon="113.89107404776057"><ele>24.0</ele><time>2026-04-17T07:45:10Z</time></trkpt><trkpt lat="-24.607307231653934" lon="113.89135775278359"><ele>24.0</ele><time>2026-04-17T07:45:11Z</time></trkpt><trkpt lat="-24.607111303561492" lon="113.89164132573642"><ele>24.0</ele><time>2026-04-17T07:45:12Z</time></trkpt><trkpt lat="-24.606918994263616" lon="113.89192040301589"><ele>23.0</ele><time>2026-04-17T07:45:13Z</time></trkpt><trkpt lat="-24.606727711929008" lon="113.89219926476758"><ele>22.0</ele><time>2026-04-17T07:45:14Z</time></trkpt><trkpt lat="-24.606535605328315" lon="113.8924779543339"><ele>22.0</ele><time>2026-04-17T07:45:15Z</time></trkpt><trkpt lat="-24.606340999393456" lon="113.89275394313526"><ele>22.0</ele><time>2026-04-17T07:45:16Z</time></trkpt><trkpt lat="-24.606146851504395" lon="113.89303063635255"><ele>22.0</ele><time>2026-04-17T07:45:17Z</time></trkpt><trkpt lat="-24.605951831639207" lon="113.89331433871692"><ele>22.0</ele><time>2026-04-17T07:45:18Z</time></trkpt><trkpt lat="-24.605756563905388" lon="113.89359898385283"><ele>23.0</ele><time>2026-04-17T07:45:19Z</time></trkpt><trkpt lat="-24.60555877762017" lon="113.89388491822932"><ele>24.0</ele><time>2026-04-17T07:45:20Z</time></trkpt><trkpt lat="-24.60536133793304" lon="113.89417011086937"><ele>22.5</ele><time>2026-04-17T07:45:21Z</time></trkpt><trkpt lat="-24.605162473216645" lon="113.89445519267464"><ele>21.0</ele><time>2026-04-17T07:45:22Z</time></trkpt><trkpt lat="-24.604961813840163" lon="113.89474377626544"><ele>21.0</ele><time>2026-04-17T07:45:23Z</time></trkpt><trkpt lat="-24.604762099883246" lon="113.89503061723107"><ele>21.0</ele><time>2026-04-17T07:45:24Z</time></trkpt><trkpt lat="-24.604567666617637" lon="113.89531281378623"><ele>22.0</ele><time>2026-04-17T07:45:25Z</time></trkpt><trkpt lat="-24.60436836133912" lon="113.89559802557359"><ele>23.0</ele><time>2026-04-17T07:45:26Z</time></trkpt><trkpt lat="-24.604172829064986" lon="113.89587835618403"><ele>23.0</ele><time>2026-04-17T07:45:27Z</time></trkpt><trkpt lat="-24.603977611164343" lon="113.8961591473295"><ele>23.0</ele><time>2026-04-17T07:45:28Z</time></trkpt><trkpt lat="-24.603782499026032" lon="113.89644205110885"><ele>22.5</ele><time>2026-04-17T07:45:29Z</time></trkpt><trkpt lat="-24.603590767354586" lon="113.89671826969668"><ele>22.0</ele><time>2026-04-17T07:45:30Z</time></trkpt><trkpt lat="-24.603396265434984" lon="113.89699642466967"><ele>23.0</ele><time>2026-04-17T07:45:31Z</time></trkpt><trkpt lat="-24.603201789374115" lon="113.89727549132007"><ele>24.0</ele><time>2026-04-17T07:45:32Z</time></trkpt><trkpt lat="-24.6030063923621" lon="113.89756014172174"><ele>24.5</ele><time>2026-04-17T07:45:33Z</time></trkpt><trkpt lat="-24.60281169937193" lon="113.89784378402564"><ele>25.0</ele><time>2026-04-17T07:45:34Z</time></trkpt><trkpt lat="-24.60261629419921" lon="113.89812450395415"><ele>25.0</ele><time>2026-04-17T07:45:35Z</time></trkpt><trkpt lat="-24.6024216709429" lon="113.89840310919018"><ele>25.0</ele><time>2026-04-17T07:45:36Z</time></trkpt><trkpt lat="-24.602229696822633" lon="113.89868086254795"><ele>25.0</ele><time>2026-04-17T07:45:37Z</time></trkpt><trkpt lat="-24.602041452872456" lon="113.89895479962505"><ele>25.0</ele><time>2026-04-17T07:45:38Z</time></trkpt><trkpt lat="-24.6018513196427" lon="113.89922833749414"><ele>25.5</ele><time>2026-04-17T07:45:39Z</time></trkpt><trkpt lat="-24.6016591451995" lon="113.89950382154353"><ele>26.0</ele><time>2026-04-17T07:45:40Z</time></trkpt><trkpt lat="-24.601465276074556" lon="113.89978222522969"><ele>26.0</ele><time>2026-04-17T07:45:41Z</time></trkpt><trkpt lat="-24.601272848535224" lon="113.9000610693912"><ele>26.0</ele><time>2026-04-17T07:45:42Z</time></trkpt><trkpt lat="-24.60108102353061" lon="113.90033834092127"><ele>26.0</ele><time>2026-04-17T07:45:43Z</time></trkpt><trkpt lat="-24.600885994115213" lon="113.90061716360158"><ele>26.0</ele><time>2026-04-17T07:45:44Z</time></trkpt><trkpt lat="-24.60069096448995" lon="113.90089497526017"><ele>25.5</ele><time>2026-04-17T07:45:45Z</time></trkpt><trkpt lat="-24.600495266600554" lon="113.90117749108897"><ele>25.0</ele><time>2026-04-17T07:45:46Z</time></trkpt><trkpt lat="-24.600301283774375" lon="113.90146107973705"><ele>24.5</ele><time>2026-04-17T07:45:47Z</time></trkpt><trkpt lat="-24.600109520258552" lon="113.90174038847546"><ele>24.0</ele><time>2026-04-17T07:45:48Z</time></trkpt><trkpt lat="-24.599919459792574" lon="113.90201628495744"><ele>24.0</ele><time>2026-04-17T07:45:49Z</time></trkpt><trkpt lat="-24.599728928930478" lon="113.90228974799142"><ele>24.0</ele><time>2026-04-17T07:45:50Z</time></trkpt><trkpt lat="-24.599540750497162" lon="113.9025632040168"><ele>23.0</ele><time>2026-04-17T07:45:51Z</time></trkpt><trkpt lat="-24.59935312130608" lon="113.90283614828816"><ele>22.0</ele><time>2026-04-17T07:45:52Z</time></trkpt><trkpt lat="-24.599167075506298" lon="113.90310777193957"><ele>22.0</ele><time>2026-04-17T07:45:53Z</time></trkpt><trkpt lat="-24.59898048005194" lon="113.90337846830447"><ele>22.0</ele><time>2026-04-17T07:45:54Z</time></trkpt><trkpt lat="-24.598794261962112" lon="113.90364150074454"><ele>24.0</ele><time>2026-04-17T07:45:55Z</time></trkpt><trkpt lat="-24.598607662198397" lon="113.90390688490545"><ele>26.0</ele><time>2026-04-17T07:45:56Z</time></trkpt><trkpt lat="-24.598424601740593" lon="113.90416905729434"><ele>25.5</ele><time>2026-04-17T07:45:57Z</time></trkpt><trkpt lat="-24.598239423002276" lon="113.9044335804281"><ele>25.0</ele><time>2026-04-17T07:45:58Z</time></trkpt><trkpt lat="-24.598054631534037" lon="113.90469658554218"><ele>25.0</ele><time>2026-04-17T07:45:59Z</time></trkpt><trkpt lat="-24.597871683376553" lon="113.90496313830991"><ele>25.0</ele><time>2026-04-17T07:46:00Z</time></trkpt><trkpt lat="-24.597693337193913" lon="113.90522758257345"><ele>24.5</ele><time>2026-04-17T07:46:01Z</time></trkpt><trkpt lat="-24.597512183353018" lon="113.90549395641284"><ele>24.0</ele><time>2026-04-17T07:46:02Z</time></trkpt><trkpt lat="-24.597328964011847" lon="113.90576037927453"><ele>24.0</ele><time>2026-04-17T07:46:03Z</time></trkpt><trkpt lat="-24.597144541598077" lon="113.90602382214524"><ele>24.0</ele><time>2026-04-17T07:46:04Z</time></trkpt><trkpt lat="-24.59696033166616" lon="113.90628861657494"><ele>24.5</ele><time>2026-04-17T07:46:05Z</time></trkpt><trkpt lat="-24.59677541639356" lon="113.90655567407123"><ele>25.0</ele><time>2026-04-17T07:46:06Z</time></trkpt><trkpt lat="-24.596590308496246" lon="113.90682175666788"><ele>25.0</ele><time>2026-04-17T07:46:07Z</time></trkpt><trkpt lat="-24.59640430719194" lon="113.90708684427977"><ele>25.0</ele><time>2026-04-17T07:46:08Z</time></trkpt><trkpt lat="-24.596218012445455" lon="113.90735484427252"><ele>25.5</ele><time>2026-04-17T07:46:09Z</time></trkpt><trkpt lat="-24.596030536123607" lon="113.90762523390987"><ele>26.0</ele><time>2026-04-17T07:46:10Z</time></trkpt><trkpt lat="-24.59584223366664" lon="113.90789760292898"><ele>26.0</ele><time>2026-04-17T07:46:11Z</time></trkpt><trkpt lat="-24.59565116545661" lon="113.90817406065875"><ele>26.0</ele><time>2026-04-17T07:46:12Z</time></trkpt><trkpt lat="-24.595456736270773" lon="113.90845133009326"><ele>25.5</ele><time>2026-04-17T07:46:13Z</time></trkpt><trkpt lat="-24.595262164534073" lon="113.90872933661944"><ele>25.0</ele><time>2026-04-17T07:46:14Z</time></trkpt><trkpt lat="-24.595072149736975" lon="113.909005393224"><ele>24.5</ele><time>2026-04-17T07:46:15Z</time></trkpt><trkpt lat="-24.594881592964537" lon="113.90928036739847"><ele>24.0</ele><time>2026-04-17T07:46:16Z</time></trkpt><trkpt lat="-24.594691893164995" lon="113.90955322646246"><ele>24.0</ele><time>2026-04-17T07:46:17Z</time></trkpt><trkpt lat="-24.59450306857121" lon="113.90982806571272"><ele>24.0</ele><time>2026-04-17T07:46:18Z</time></trkpt><trkpt lat="-24.594315240009895" lon="113.9101025815019"><ele>24.0</ele><time>2026-04-17T07:46:19Z</time></trkpt><trkpt lat="-24.594129336711017" lon="113.91037371051615"><ele>24.0</ele><time>2026-04-17T07:46:20Z</time></trkpt><trkpt lat="-24.59394294089862" lon="113.91064317689188"><ele>24.5</ele><time>2026-04-17T07:46:21Z</time></trkpt><trkpt lat="-24.593751872940903" lon="113.91091754970174"><ele>25.0</ele><time>2026-04-17T07:46:22Z</time></trkpt><trkpt lat="-24.59355911591732" lon="113.91119411006092"><ele>25.0</ele><time>2026-04-17T07:46:23Z</time></trkpt><trkpt lat="-24.593362044277796" lon="113.91147618517135"><ele>25.0</ele><time>2026-04-17T07:46:24Z</time></trkpt><trkpt lat="-24.593165626873418" lon="113.91175766973252"><ele>25.0</ele><time>2026-04-17T07:46:25Z</time></trkpt><trkpt lat="-24.5929697938613" lon="113.91204166131841"><ele>25.0</ele><time>2026-04-17T07:46:25.999Z</time></trkpt><trkpt lat="-24.592775304693177" lon="113.91232719718552"><ele>25.0</ele><time>2026-04-17T07:46:26.999Z</time></trkpt><trkpt lat="-24.592578639181284" lon="113.91260843474262"><ele>25.0</ele><time>2026-04-17T07:46:27.999Z</time></trkpt><trkpt lat="-24.592380474704957" lon="113.91288414593046"><ele>25.0</ele><time>2026-04-17T07:46:28.999Z</time></trkpt><trkpt lat="-24.592180434806483" lon="113.91315674217354"><ele>25.0</ele><time>2026-04-17T07:46:29.999Z</time></trkpt><trkpt lat="-24.591978831074766" lon="113.91342478155183"><ele>25.5</ele><time>2026-04-17T07:46:30.999Z</time></trkpt><trkpt lat="-24.591767460125762" lon="113.91369011577326"><ele>26.0</ele><time>2026-04-17T07:46:31.999Z</time></trkpt><trkpt lat="-24.591546757425398" lon="113.91394407699201"><ele>26.0</ele><time>2026-04-17T07:46:32.999Z</time></trkpt><trkpt lat="-24.59131883833937" lon="113.91418872951942"><ele>26.0</ele><time>2026-04-17T07:46:33.999Z</time></trkpt><trkpt lat="-24.591082866217956" lon="113.91442202019934"><ele>25.5</ele><time>2026-04-17T07:46:34.999Z</time></trkpt><trkpt lat="-24.590842095678518" lon="113.91465202192289"><ele>25.0</ele><time>2026-04-17T07:46:35.999Z</time></trkpt><trkpt lat="-24.590599885725087" lon="113.91487585604081"><ele>25.5</ele><time>2026-04-17T07:46:36.999Z</time></trkpt><trkpt lat="-24.590352956248047" lon="113.91509231953823"><ele>26.0</ele><time>2026-04-17T07:46:37.999Z</time></trkpt><trkpt lat="-24.59010338339386" lon="113.91530898522885"><ele>26.0</ele><time>2026-04-17T07:46:39Z</time></trkpt><trkpt lat="-24.589855861493437" lon="113.91552519742974"><ele>26.0</ele><time>2026-04-17T07:46:40Z</time></trkpt><trkpt lat="-24.58960544431028" lon="113.91574452997084"><ele>25.0</ele><time>2026-04-17T07:46:41Z</time></trkpt><trkpt lat="-24.589360846928138" lon="113.91596195774264"><ele>24.0</ele><time>2026-04-17T07:46:42Z</time></trkpt><trkpt lat="-24.589113913471884" lon="113.91618169879835"><ele>24.0</ele><time>2026-04-17T07:46:43Z</time></trkpt><trkpt lat="-24.588867757724405" lon="113.91640089925819"><ele>24.0</ele><time>2026-04-17T07:46:44Z</time></trkpt><trkpt lat="-24.588621744705968" lon="113.91661594284176"><ele>25.5</ele><time>2026-04-17T07:46:45Z</time></trkpt><trkpt lat="-24.588375715860177" lon="113.91683126856728"><ele>27.0</ele><time>2026-04-17T07:46:46Z</time></trkpt><trkpt lat="-24.588132533220563" lon="113.91704518489051"><ele>27.0</ele><time>2026-04-17T07:46:47Z</time></trkpt><trkpt lat="-24.587886684166968" lon="113.917260739532"><ele>27.0</ele><time>2026-04-17T07:46:48Z</time></trkpt><trkpt lat="-24.587641624743675" lon="113.91747323099236"><ele>26.5</ele><time>2026-04-17T07:46:49Z</time></trkpt><trkpt lat="-24.587395789614565" lon="113.9176879624715"><ele>26.0</ele><time>2026-04-17T07:46:50Z</time></trkpt><trkpt lat="-24.587148097716355" lon="113.91790664627635"><ele>26.5</ele><time>2026-04-17T07:46:51Z</time></trkpt><trkpt lat="-24.586907156392467" lon="113.91812058226992"><ele>27.0</ele><time>2026-04-17T07:46:52Z</time></trkpt><trkpt lat="-24.586658364384178" lon="113.9183399338895"><ele>26.5</ele><time>2026-04-17T07:46:53Z</time></trkpt><trkpt lat="-24.586415766514545" lon="113.9185550153628"><ele>26.0</ele><time>2026-04-17T07:46:54Z</time></trkpt><trkpt lat="-24.586173623919326" lon="113.9187711101683"><ele>25.0</ele><time>2026-04-17T07:46:55Z</time></trkpt><trkpt lat="-24.58593448369096" lon="113.91898325818863"><ele>24.0</ele><time>2026-04-17T07:46:56Z</time></trkpt><trkpt lat="-24.58569837596673" lon="113.91919275095006"><ele>24.5</ele><time>2026-04-17T07:46:57Z</time></trkpt><trkpt lat="-24.585460068633076" lon="113.91940435005539"><ele>25.0</ele><time>2026-04-17T07:46:58Z</time></trkpt><trkpt lat="-24.58521964410765" lon="113.91961477119868"><ele>25.0</ele><time>2026-04-17T07:46:59Z</time></trkpt><trkpt lat="-24.58497596824844" lon="113.91983067917235"><ele>25.0</ele><time>2026-04-17T07:47:00Z</time></trkpt><trkpt lat="-24.584731924737536" lon="113.92004762069482"><ele>25.5</ele><time>2026-04-17T07:47:01Z</time></trkpt><trkpt lat="-24.58448470632763" lon="113.92026468030005"><ele>26.0</ele><time>2026-04-17T07:47:02Z</time></trkpt><trkpt lat="-24.58423558524167" lon="113.92048045697163"><ele>26.0</ele><time>2026-04-17T07:47:03Z</time></trkpt><trkpt lat="-24.583988420182287" lon="113.92069715049156"><ele>26.0</ele><time>2026-04-17T07:47:04Z</time></trkpt><trkpt lat="-24.583745566055185" lon="113.92091573112124"><ele>26.0</ele><time>2026-04-17T07:47:05Z</time></trkpt><trkpt lat="-24.583499464258615" lon="113.92113452859593"><ele>26.0</ele><time>2026-04-17T07:47:06Z</time></trkpt><trkpt lat="-24.583252645812323" lon="113.9213534218532"><ele>26.0</ele><time>2026-04-17T07:47:07Z</time></trkpt><trkpt lat="-24.583005361989212" lon="113.92157361025139"><ele>26.0</ele><time>2026-04-17T07:47:08Z</time></trkpt><trkpt lat="-24.58275673618159" lon="113.9217916646177"><ele>25.5</ele><time>2026-04-17T07:47:09Z</time></trkpt><trkpt lat="-24.58250771155543" lon="113.92200902264729"><ele>25.0</ele><time>2026-04-17T07:47:10Z</time></trkpt><trkpt lat="-24.58225893741833" lon="113.92222883189868"><ele>25.5</ele><time>2026-04-17T07:47:11Z</time></trkpt><trkpt lat="-24.582013137559912" lon="113.92244625254607"><ele>26.0</ele><time>2026-04-17T07:47:12Z</time></trkpt><trkpt lat="-24.581768350514462" lon="113.92266263358405"><ele>26.0</ele><time>2026-04-17T07:47:13Z</time></trkpt><trkpt lat="-24.581527950582053" lon="113.92287640641764"><ele>26.0</ele><time>2026-04-17T07:47:14Z</time></trkpt><trkpt lat="-24.581287222449646" lon="113.9230909460304"><ele>26.0</ele><time>2026-04-17T07:47:15Z</time></trkpt><trkpt lat="-24.58104609353721" lon="113.92330235489214"><ele>26.0</ele><time>2026-04-17T07:47:16Z</time></trkpt><trkpt lat="-24.580808274486966" lon="113.92350888784043"><ele>25.0</ele><time>2026-04-17T07:47:17Z</time></trkpt><trkpt lat="-24.580576738402847" lon="113.92370960563684"><ele>24.0</ele><time>2026-04-17T07:47:18Z</time></trkpt><trkpt lat="-24.580360586393862" lon="113.92389944692565"><ele>25.0</ele><time>2026-04-17T07:47:19Z</time></trkpt><trkpt lat="-24.58015225294204" lon="113.92408246112929"><ele>26.0</ele><time>2026-04-17T07:47:20Z</time></trkpt><trkpt lat="-24.579942775304264" lon="113.9242699070409"><ele>26.0</ele><time>2026-04-17T07:47:21Z</time></trkpt><trkpt lat="-24.57973025396988" lon="113.92445879477313"><ele>26.0</ele><time>2026-04-17T07:47:22Z</time></trkpt><trkpt lat="-24.57951064751319" lon="113.9246506852361"><ele>26.0</ele><time>2026-04-17T07:47:23Z</time></trkpt><trkpt lat="-24.579282719461514" lon="113.92485067847987"><ele>26.0</ele><time>2026-04-17T07:47:24Z</time></trkpt><trkpt lat="-24.5790556225671" lon="113.925051505228"><ele>26.5</ele><time>2026-04-17T07:47:25Z</time></trkpt><trkpt lat="-24.578826628568354" lon="113.9252575510875"><ele>27.0</ele><time>2026-04-17T07:47:26Z</time></trkpt><trkpt lat="-24.57859775528434" lon="113.92546130344792"><ele>27.0</ele><time>2026-04-17T07:47:27Z</time></trkpt><trkpt lat="-24.5783631155746" lon="113.92566853223211"><ele>27.0</ele><time>2026-04-17T07:47:28Z</time></trkpt><trkpt lat="-24.57812534786466" lon="113.9258781187708"><ele>27.0</ele><time>2026-04-17T07:47:29Z</time></trkpt><trkpt lat="-24.577883532054123" lon="113.92609185471852"><ele>27.0</ele><time>2026-04-17T07:47:30Z</time></trkpt><trkpt lat="-24.577642095993617" lon="113.92630592770354"><ele>26.5</ele><time>2026-04-17T07:47:31Z</time></trkpt><trkpt lat="-24.577401670303175" lon="113.92651931720077"><ele>26.0</ele><time>2026-04-17T07:47:32Z</time></trkpt><trkpt lat="-24.577160483699803" lon="113.92673145407619"><ele>26.5</ele><time>2026-04-17T07:47:33Z</time></trkpt><trkpt lat="-24.576918450713627" lon="113.92694411202311"><ele>27.0</ele><time>2026-04-17T07:47:34Z</time></trkpt><trkpt lat="-24.576675417294652" lon="113.9271574605733"><ele>27.0</ele><time>2026-04-17T07:47:35Z</time></trkpt><trkpt lat="-24.576431050984024" lon="113.9273730583314"><ele>27.0</ele><time>2026-04-17T07:47:36Z</time></trkpt><trkpt lat="-24.576187607906117" lon="113.92758847257565"><ele>26.5</ele><time>2026-04-17T07:47:37Z</time></trkpt><trkpt lat="-24.575950704595243" lon="113.9278010831036"><ele>26.0</ele><time>2026-04-17T07:47:38Z</time></trkpt><trkpt lat="-24.575712292339276" lon="113.92801546350181"><ele>26.0</ele><time>2026-04-17T07:47:39Z</time></trkpt><trkpt lat="-24.575472786642163" lon="113.92822583956625"><ele>26.0</ele><time>2026-04-17T07:47:40Z</time></trkpt><trkpt lat="-24.57523227257636" lon="113.92843635429482"><ele>26.5</ele><time>2026-04-17T07:47:41Z</time></trkpt><trkpt lat="-24.574993296703386" lon="113.92864555388856"><ele>27.0</ele><time>2026-04-17T07:47:42Z</time></trkpt><trkpt lat="-24.574757129913014" lon="113.92885382206259"><ele>28.0</ele><time>2026-04-17T07:47:43Z</time></trkpt><trkpt lat="-24.574519470984736" lon="113.92906489947632"><ele>29.0</ele><time>2026-04-17T07:47:44Z</time></trkpt><trkpt lat="-24.57428063408053" lon="113.92927497701294"><ele>29.0</ele><time>2026-04-17T07:47:45Z</time></trkpt><trkpt lat="-24.574041522429727" lon="113.92948278510124"><ele>29.0</ele><time>2026-04-17T07:47:46Z</time></trkpt><trkpt lat="-24.57380276367728" lon="113.9296923227863"><ele>29.0</ele><time>2026-04-17T07:47:47Z</time></trkpt><trkpt lat="-24.573564802241734" lon="113.92990245683322"><ele>29.0</ele><time>2026-04-17T07:47:48Z</time></trkpt><trkpt lat="-24.573328819710873" lon="113.93011225513692"><ele>29.0</ele><time>2026-04-17T07:47:49Z</time></trkpt><trkpt lat="-24.573087167001123" lon="113.93032386495976"><ele>29.0</ele><time>2026-04-17T07:47:50Z</time></trkpt><trkpt lat="-24.572847163919352" lon="113.93053227738332"><ele>28.0</ele><time>2026-04-17T07:47:51Z</time></trkpt><trkpt lat="-24.572603729125838" lon="113.93074174000684"><ele>27.0</ele><time>2026-04-17T07:47:52Z</time></trkpt><trkpt lat="-24.57236323047592" lon="113.93095265201272"><ele>27.0</ele><time>2026-04-17T07:47:53Z</time></trkpt><trkpt lat="-24.57212008374799" lon="113.93116851450509"><ele>27.0</ele><time>2026-04-17T07:47:54Z</time></trkpt><trkpt lat="-24.57187919287714" lon="113.93138332938555"><ele>27.5</ele><time>2026-04-17T07:47:55Z</time></trkpt><trkpt lat="-24.571632852860272" lon="113.93159997292247"><ele>28.0</ele><time>2026-04-17T07:47:56Z</time></trkpt><trkpt lat="-24.571383848698144" lon="113.93181633039589"><ele>29.0</ele><time>2026-04-17T07:47:57Z</time></trkpt><trkpt lat="-24.571133876226007" lon="113.93203305621968"><ele>30.0</ele><time>2026-04-17T07:47:58Z</time></trkpt><trkpt lat="-24.57088272025932" lon="113.93225235913587"><ele>30.0</ele><time>2026-04-17T07:47:59Z</time></trkpt><trkpt lat="-24.570634515517884" lon="113.93247159385018"><ele>30.0</ele><time>2026-04-17T07:48:00Z</time></trkpt><trkpt lat="-24.570384339443372" lon="113.93269036083211"><ele>28.5</ele><time>2026-04-17T07:48:01Z</time></trkpt><trkpt lat="-24.570133808133033" lon="113.932908900113"><ele>27.0</ele><time>2026-04-17T07:48:02Z</time></trkpt><trkpt lat="-24.56988210039963" lon="113.9331259624603"><ele>27.0</ele><time>2026-04-17T07:48:03Z</time></trkpt><trkpt lat="-24.569631600154842" lon="113.93334366777849"><ele>27.0</ele><time>2026-04-17T07:48:04Z</time></trkpt><trkpt lat="-24.56937987417054" lon="113.93356381498133"><ele>27.0</ele><time>2026-04-17T07:48:05Z</time></trkpt><trkpt lat="-24.569127866345955" lon="113.93378578038244"><ele>27.0</ele><time>2026-04-17T07:48:06Z</time></trkpt><trkpt lat="-24.568874017144754" lon="113.93400729013536"><ele>26.5</ele><time>2026-04-17T07:48:07Z</time></trkpt><trkpt lat="-24.568621034916383" lon="113.93423058239746"><ele>26.0</ele><time>2026-04-17T07:48:08Z</time></trkpt><trkpt lat="-24.56836218915856" lon="113.93445479392894"><ele>26.0</ele><time>2026-04-17T07:48:09Z</time></trkpt><trkpt lat="-24.568102881686492" lon="113.93468000033882"><ele>26.0</ele><time>2026-04-17T07:48:10Z</time></trkpt><trkpt lat="-24.56784738148466" lon="113.9349042758729"><ele>27.0</ele><time>2026-04-17T07:48:11Z</time></trkpt><trkpt lat="-24.567592065528885" lon="113.935129469215"><ele>28.0</ele><time>2026-04-17T07:48:12Z</time></trkpt><trkpt lat="-24.567339175150877" lon="113.93535299480324"><ele>28.0</ele><time>2026-04-17T07:48:13Z</time></trkpt><trkpt lat="-24.567090904671" lon="113.93557362610898"><ele>28.0</ele><time>2026-04-17T07:48:14Z</time></trkpt><trkpt lat="-24.566840838133817" lon="113.93579428181262"><ele>27.0</ele><time>2026-04-17T07:48:15Z</time></trkpt><trkpt lat="-24.566590335467406" lon="113.9360130380835"><ele>26.0</ele><time>2026-04-17T07:48:16Z</time></trkpt><trkpt lat="-24.566335868966988" lon="113.93623526488867"><ele>26.5</ele><time>2026-04-17T07:48:17Z</time></trkpt><trkpt lat="-24.566085480157472" lon="113.93645396223988"><ele>27.0</ele><time>2026-04-17T07:48:18Z</time></trkpt><trkpt lat="-24.56583072150792" lon="113.9366743347732"><ele>27.0</ele><time>2026-04-17T07:48:19Z</time></trkpt><trkpt lat="-24.56558050112303" lon="113.93689181531042"><ele>27.0</ele><time>2026-04-17T07:48:20Z</time></trkpt><trkpt lat="-24.56533536297049" lon="113.93710694930257"><ele>26.0</ele><time>2026-04-17T07:48:21Z</time></trkpt><trkpt lat="-24.565085751965025" lon="113.93732698132814"><ele>25.0</ele><time>2026-04-17T07:48:22Z</time></trkpt><trkpt lat="-24.56483755743715" lon="113.937543993672"><ele>25.0</ele><time>2026-04-17T07:48:23Z</time></trkpt><trkpt lat="-24.564589540627363" lon="113.93776230964893"><ele>25.0</ele><time>2026-04-17T07:48:24Z</time></trkpt><trkpt lat="-24.564342184528023" lon="113.93797902430809"><ele>25.0</ele><time>2026-04-17T07:48:25Z</time></trkpt><trkpt lat="-24.56409763060608" lon="113.93819422024764"><ele>25.0</ele><time>2026-04-17T07:48:26Z</time></trkpt><trkpt lat="-24.56385264070626" lon="113.93840641215522"><ele>25.5</ele><time>2026-04-17T07:48:26.999Z</time></trkpt><trkpt lat="-24.5636067962514" lon="113.93861882937428"><ele>26.0</ele><time>2026-04-17T07:48:27.999Z</time></trkpt><trkpt lat="-24.5633644155479" lon="113.93882762646246"><ele>26.0</ele><time>2026-04-17T07:48:28.999Z</time></trkpt><trkpt lat="-24.563118329243633" lon="113.93904017402987"><ele>26.0</ele><time>2026-04-17T07:48:29.999Z</time></trkpt><trkpt lat="-24.56287102540302" lon="113.9392589250992"><ele>26.0</ele><time>2026-04-17T07:48:30.999Z</time></trkpt><trkpt lat="-24.562625583272922" lon="113.93947778148146"><ele>26.0</ele><time>2026-04-17T07:48:31.999Z</time></trkpt><trkpt lat="-24.562379082337397" lon="113.93969387998082"><ele>26.0</ele><time>2026-04-17T07:48:32.999Z</time></trkpt><trkpt lat="-24.562133965934645" lon="113.93991000749526"><ele>26.0</ele><time>2026-04-17T07:48:33.999Z</time></trkpt><trkpt lat="-24.561888966771352" lon="113.94012882366927"><ele>26.0</ele><time>2026-04-17T07:48:34.999Z</time></trkpt><trkpt lat="-24.561640696160406" lon="113.94034559273314"><ele>26.0</ele><time>2026-04-17T07:48:35.999Z</time></trkpt><trkpt lat="-24.561389115221974" lon="113.94056247243014"><ele>25.5</ele><time>2026-04-17T07:48:36.999Z</time></trkpt><trkpt lat="-24.56114334883117" lon="113.94077439783533"><ele>25.0</ele><time>2026-04-17T07:48:37.999Z</time></trkpt><trkpt lat="-24.560897720111893" lon="113.94098935173446"><ele>24.5</ele><time>2026-04-17T07:48:38.999Z</time></trkpt><trkpt lat="-24.560657126732046" lon="113.94120167945894"><ele>24.0</ele><time>2026-04-17T07:48:39.999Z</time></trkpt><trkpt lat="-24.560417037906078" lon="113.94141522961112"><ele>24.0</ele><time>2026-04-17T07:48:40.999Z</time></trkpt><trkpt lat="-24.560175800461742" lon="113.94162563730677"><ele>24.0</ele><time>2026-04-17T07:48:41.999Z</time></trkpt><trkpt lat="-24.55993122367266" lon="113.9418362714418"><ele>24.5</ele><time>2026-04-17T07:48:42.999Z</time></trkpt><trkpt lat="-24.559684116765233" lon="113.94205018323377"><ele>25.0</ele><time>2026-04-17T07:48:43.999Z</time></trkpt><trkpt lat="-24.55943809091661" lon="113.94226454024535"><ele>25.0</ele><time>2026-04-17T07:48:45Z</time></trkpt><trkpt lat="-24.559188499228675" lon="113.94248247017393"><ele>25.0</ele><time>2026-04-17T07:48:46Z</time></trkpt><trkpt lat="-24.55894070398263" lon="113.94269910926633"><ele>27.0</ele><time>2026-04-17T07:48:47Z</time></trkpt><trkpt lat="-24.558691361872107" lon="113.94291690460813"><ele>29.0</ele><time>2026-04-17T07:48:48Z</time></trkpt><trkpt lat="-24.558442695515367" lon="113.94313455453947"><ele>29.0</ele><time>2026-04-17T07:48:49Z</time></trkpt><trkpt lat="-24.55819557873856" lon="113.94335098431011"><ele>29.0</ele><time>2026-04-17T07:48:50Z</time></trkpt><trkpt lat="-24.557950080152217" lon="113.9435655795782"><ele>28.0</ele><time>2026-04-17T07:48:51Z</time></trkpt><trkpt lat="-24.557702488146493" lon="113.94378254836064"><ele>27.0</ele><time>2026-04-17T07:48:52Z</time></trkpt><trkpt lat="-24.55745366742585" lon="113.94400061228615"><ele>27.5</ele><time>2026-04-17T07:48:53Z</time></trkpt><trkpt lat="-24.557203483930536" lon="113.94421817044969"><ele>28.0</ele><time>2026-04-17T07:48:54Z</time></trkpt><trkpt lat="-24.556953863777313" lon="113.94443815764582"><ele>26.5</ele><time>2026-04-17T07:48:55Z</time></trkpt><trkpt lat="-24.556706111229865" lon="113.9446579795562"><ele>25.0</ele><time>2026-04-17T07:48:56Z</time></trkpt><trkpt lat="-24.55645310294906" lon="113.94487845672624"><ele>24.5</ele><time>2026-04-17T07:48:57Z</time></trkpt><trkpt lat="-24.556199688874873" lon="113.94509953449136"><ele>24.0</ele><time>2026-04-17T07:48:58Z</time></trkpt><trkpt lat="-24.55594241760639" lon="113.94532414197934"><ele>24.0</ele><time>2026-04-17T07:48:59Z</time></trkpt><trkpt lat="-24.5556876420317" lon="113.94554647655093"><ele>24.0</ele><time>2026-04-17T07:49:00Z</time></trkpt><trkpt lat="-24.55543037630094" lon="113.94576794321696"><ele>25.5</ele><time>2026-04-17T07:49:01Z</time></trkpt><trkpt lat="-24.555173508278028" lon="113.94598905496653"><ele>27.0</ele><time>2026-04-17T07:49:02Z</time></trkpt><trkpt lat="-24.554919041742608" lon="113.94621157974673"><ele>27.0</ele><time>2026-04-17T07:49:03Z</time></trkpt><trkpt lat="-24.55466445616994" lon="113.94643720874156"><ele>27.0</ele><time>2026-04-17T07:49:04Z</time></trkpt><trkpt lat="-24.554417124830884" lon="113.94665755073005"><ele>26.5</ele><time>2026-04-17T07:49:05Z</time></trkpt><trkpt lat="-24.554186723424653" lon="113.94685952279599"><ele>26.0</ele><time>2026-04-17T07:49:06Z</time></trkpt><trkpt lat="-24.55396191089876" lon="113.94705551529415"><ele>26.0</ele><time>2026-04-17T07:49:07Z</time></trkpt><trkpt lat="-24.553726894580272" lon="113.94725968623959"><ele>26.0</ele><time>2026-04-17T07:49:08Z</time></trkpt><trkpt lat="-24.55349194241973" lon="113.94746383434102"><ele>26.0</ele><time>2026-04-17T07:49:09Z</time></trkpt><trkpt lat="-24.55325555308193" lon="113.94767240179128"><ele>26.0</ele><time>2026-04-17T07:49:10Z</time></trkpt><trkpt lat="-24.55301739604503" lon="113.94788072801572"><ele>26.5</ele><time>2026-04-17T07:49:11Z</time></trkpt><trkpt lat="-24.552776892972027" lon="113.94809041420247"><ele>27.0</ele><time>2026-04-17T07:49:12Z</time></trkpt><trkpt lat="-24.552533111329982" lon="113.94830116589353"><ele>26.5</ele><time>2026-04-17T07:49:13Z</time></trkpt><trkpt lat="-24.552290964248616" lon="113.9485121841846"><ele>26.0</ele><time>2026-04-17T07:49:14Z</time></trkpt><trkpt lat="-24.552046991619644" lon="113.9487262603636"><ele>26.5</ele><time>2026-04-17T07:49:15Z</time></trkpt><trkpt lat="-24.551805857055292" lon="113.94893878774366"><ele>27.0</ele><time>2026-04-17T07:49:16Z</time></trkpt><trkpt lat="-24.55156023660008" lon="113.94915263845685"><ele>27.5</ele><time>2026-04-17T07:49:17Z</time></trkpt><trkpt lat="-24.551315074877312" lon="113.94936477563192"><ele>28.0</ele><time>2026-04-17T07:49:18Z</time></trkpt><trkpt lat="-24.551068855228444" lon="113.94957903363189"><ele>28.0</ele><time>2026-04-17T07:49:19Z</time></trkpt><trkpt lat="-24.550819643638768" lon="113.94979387896115"><ele>28.0</ele><time>2026-04-17T07:49:20Z</time></trkpt><trkpt lat="-24.550572787029196" lon="113.95000848184762"><ele>27.0</ele><time>2026-04-17T07:49:21Z</time></trkpt><trkpt lat="-24.55032272066476" lon="113.9502253909729"><ele>26.0</ele><time>2026-04-17T07:49:22Z</time></trkpt><trkpt lat="-24.550073269331733" lon="113.95044462442155"><ele>26.0</ele><time>2026-04-17T07:49:23Z</time></trkpt><trkpt lat="-24.54982621662891" lon="113.95066320056898"><ele>26.0</ele><time>2026-04-17T07:49:24Z</time></trkpt><trkpt lat="-24.54957461632782" lon="113.9508798487194"><ele>27.0</ele><time>2026-04-17T07:49:25Z</time></trkpt><trkpt lat="-24.54932105488664" lon="113.95109810194234"><ele>28.0</ele><time>2026-04-17T07:49:26Z</time></trkpt><trkpt lat="-24.5490710671015" lon="113.95131573723648"><ele>28.0</ele><time>2026-04-17T07:49:27Z</time></trkpt><trkpt lat="-24.5488192586929" lon="113.95153376213551"><ele>28.0</ele><time>2026-04-17T07:49:28Z</time></trkpt><trkpt lat="-24.548568970667574" lon="113.95175156096099"><ele>28.0</ele><time>2026-04-17T07:49:29Z</time></trkpt><trkpt lat="-24.548319148831347" lon="113.95196988427034"><ele>28.0</ele><time>2026-04-17T07:49:30Z</time></trkpt><trkpt lat="-24.54807000517691" lon="113.95218977792022"><ele>28.5</ele><time>2026-04-17T07:49:31Z</time></trkpt><trkpt lat="-24.54782065306106" lon="113.95240777289376"><ele>29.0</ele><time>2026-04-17T07:49:32Z</time></trkpt><trkpt lat="-24.54756808213411" lon="113.95262632631157"><ele>29.0</ele><time>2026-04-17T07:49:33Z</time></trkpt><trkpt lat="-24.54732074446914" lon="113.95284258064511"><ele>29.0</ele><time>2026-04-17T07:49:34Z</time></trkpt><trkpt lat="-24.547069935625604" lon="113.95305953098296"><ele>29.0</ele><time>2026-04-17T07:49:35Z</time></trkpt><trkpt lat="-24.546822616549115" lon="113.95327388834605"><ele>29.0</ele><time>2026-04-17T07:49:36Z</time></trkpt><trkpt lat="-24.54657646847574" lon="113.9534871647406"><ele>29.0</ele><time>2026-04-17T07:49:37Z</time></trkpt><trkpt lat="-24.54633253228125" lon="113.95369761392786"><ele>29.0</ele><time>2026-04-17T07:49:38Z</time></trkpt><trkpt lat="-24.546090139712582" lon="113.95390965444146"><ele>29.0</ele><time>2026-04-17T07:49:39Z</time></trkpt><trkpt lat="-24.54585160506508" lon="113.95412111386185"><ele>29.0</ele><time>2026-04-17T07:49:40Z</time></trkpt><trkpt lat="-24.545609146192394" lon="113.95433529276491"><ele>28.0</ele><time>2026-04-17T07:49:41Z</time></trkpt><trkpt lat="-24.54536386578631" lon="113.95454820635838"><ele>27.0</ele><time>2026-04-17T07:49:42Z</time></trkpt><trkpt lat="-24.545112505553465" lon="113.95476044354172"><ele>27.0</ele><time>2026-04-17T07:49:43Z</time></trkpt><trkpt lat="-24.544867014115336" lon="113.95497126757094"><ele>27.0</ele><time>2026-04-17T07:49:44Z</time></trkpt><trkpt lat="-24.54462738777505" lon="113.95518443993456"><ele>28.0</ele><time>2026-04-17T07:49:45Z</time></trkpt><trkpt lat="-24.54438673769954" lon="113.95539731266868"><ele>29.0</ele><time>2026-04-17T07:49:46Z</time></trkpt><trkpt lat="-24.544145146987688" lon="113.95560783302683"><ele>29.0</ele><time>2026-04-17T07:49:47Z</time></trkpt><trkpt lat="-24.543899553848373" lon="113.95581681430752"><ele>29.0</ele><time>2026-04-17T07:49:48Z</time></trkpt><trkpt lat="-24.543656469108647" lon="113.95602434239295"><ele>29.0</ele><time>2026-04-17T07:49:49Z</time></trkpt><trkpt lat="-24.543410502947868" lon="113.95623736137048"><ele>29.0</ele><time>2026-04-17T07:49:50Z</time></trkpt><trkpt lat="-24.543170831861065" lon="113.95645065484301"><ele>29.0</ele><time>2026-04-17T07:49:51Z</time></trkpt><trkpt lat="-24.542928767869366" lon="113.95666252589594"><ele>29.0</ele><time>2026-04-17T07:49:52Z</time></trkpt><trkpt lat="-24.542683012328624" lon="113.95687594600929"><ele>29.5</ele><time>2026-04-17T07:49:53Z</time></trkpt><trkpt lat="-24.542437278086815" lon="113.95708758823626"><ele>30.0</ele><time>2026-04-17T07:49:54Z</time></trkpt><trkpt lat="-24.542190955278993" lon="113.95730028358261"><ele>30.0</ele><time>2026-04-17T07:49:55Z</time></trkpt><trkpt lat="-24.541943677422573" lon="113.95751351734246"><ele>30.0</ele><time>2026-04-17T07:49:56Z</time></trkpt><trkpt lat="-24.541696314916713" lon="113.95773112564966"><ele>29.5</ele><time>2026-04-17T07:49:57Z</time></trkpt><trkpt lat="-24.54144576465327" lon="113.9579523841987"><ele>29.0</ele><time>2026-04-17T07:49:58Z</time></trkpt><trkpt lat="-24.541197838331808" lon="113.95817280285337"><ele>28.5</ele><time>2026-04-17T07:49:59Z</time></trkpt><trkpt lat="-24.540949092873028" lon="113.95838799688369"><ele>28.0</ele><time>2026-04-17T07:50:00Z</time></trkpt><trkpt lat="-24.540694218214853" lon="113.95860771727567"><ele>28.0</ele><time>2026-04-17T07:50:01Z</time></trkpt><trkpt lat="-24.540440166163997" lon="113.95882785125777"><ele>28.0</ele><time>2026-04-17T07:50:02Z</time></trkpt><trkpt lat="-24.540188412636358" lon="113.959045586216"><ele>28.0</ele><time>2026-04-17T07:50:03Z</time></trkpt><trkpt lat="-24.53994052730497" lon="113.9592635821345"><ele>28.0</ele><time>2026-04-17T07:50:04Z</time></trkpt><trkpt lat="-24.539692262002383" lon="113.95948234396518"><ele>27.5</ele><time>2026-04-17T07:50:05Z</time></trkpt><trkpt lat="-24.53944299767567" lon="113.9597009395758"><ele>27.0</ele><time>2026-04-17T07:50:06Z</time></trkpt><trkpt lat="-24.539192452749727" lon="113.95991979768137"><ele>27.0</ele><time>2026-04-17T07:50:07Z</time></trkpt><trkpt lat="-24.538944062302452" lon="113.96013291926164"><ele>27.0</ele><time>2026-04-17T07:50:08Z</time></trkpt><trkpt lat="-24.53869572230257" lon="113.9603485660896"><ele>27.0</ele><time>2026-04-17T07:50:09Z</time></trkpt><trkpt lat="-24.538448690706588" lon="113.96056324244863"><ele>27.0</ele><time>2026-04-17T07:50:10Z</time></trkpt><trkpt lat="-24.538205445484046" lon="113.96077743826983"><ele>26.5</ele><time>2026-04-17T07:50:11Z</time></trkpt><trkpt lat="-24.537960354950002" lon="113.96099363584742"><ele>26.0</ele><time>2026-04-17T07:50:12Z</time></trkpt><trkpt lat="-24.537717513083365" lon="113.9612076118037"><ele>26.0</ele><time>2026-04-17T07:50:13Z</time></trkpt><trkpt lat="-24.537475597106393" lon="113.96142366987931"><ele>26.0</ele><time>2026-04-17T07:50:14Z</time></trkpt><trkpt lat="-24.537223762726533" lon="113.96162211020096"><ele>26.5</ele><time>2026-04-17T07:50:15Z</time></trkpt><trkpt lat="-24.536993913470347" lon="113.96184617825853"><ele>27.0</ele><time>2026-04-17T07:50:16Z</time></trkpt><trkpt lat="-24.536750127037877" lon="113.96205759265007"><ele>27.0</ele><time>2026-04-17T07:50:17Z</time></trkpt><trkpt lat="-24.536505196146205" lon="113.96226638047224"><ele>27.0</ele><time>2026-04-17T07:50:18Z</time></trkpt><trkpt lat="-24.53626147790819" lon="113.96247697411194"><ele>28.0</ele><time>2026-04-17T07:50:19Z</time></trkpt><trkpt lat="-24.536016972177936" lon="113.96269154764308"><ele>29.0</ele><time>2026-04-17T07:50:20Z</time></trkpt><trkpt lat="-24.53577480589821" lon="113.96290440844203"><ele>29.0</ele><time>2026-04-17T07:50:21Z</time></trkpt><trkpt lat="-24.53553313842235" lon="113.96311745339695"><ele>29.0</ele><time>2026-04-17T07:50:22Z</time></trkpt><trkpt lat="-24.535287612385275" lon="113.96333081370521"><ele>28.5</ele><time>2026-04-17T07:50:23Z</time></trkpt><trkpt lat="-24.53504232078075" lon="113.96354070420419"><ele>28.0</ele><time>2026-04-17T07:50:24Z</time></trkpt><trkpt lat="-24.534797872286457" lon="113.96375053709892"><ele>28.5</ele><time>2026-04-17T07:50:25Z</time></trkpt><trkpt lat="-24.534552698957587" lon="113.96396279806717"><ele>29.0</ele><time>2026-04-17T07:50:26Z</time></trkpt><trkpt lat="-24.534306620173098" lon="113.9641750949512"><ele>29.0</ele><time>2026-04-17T07:50:27Z</time></trkpt><trkpt lat="-24.534058781151" lon="113.96439132743508"><ele>29.0</ele><time>2026-04-17T07:50:28Z</time></trkpt><trkpt lat="-24.533812009379126" lon="113.96460999787945"><ele>29.0</ele><time>2026-04-17T07:50:29Z</time></trkpt><trkpt lat="-24.533565615734986" lon="113.96483179843003"><ele>29.0</ele><time>2026-04-17T07:50:30Z</time></trkpt><trkpt lat="-24.53332036841381" lon="113.96504595615474"><ele>29.5</ele><time>2026-04-17T07:50:31Z</time></trkpt><trkpt lat="-24.533071260114973" lon="113.96526180320123"><ele>30.0</ele><time>2026-04-17T07:50:32Z</time></trkpt><trkpt lat="-24.53282180391599" lon="113.96547699370151"><ele>29.0</ele><time>2026-04-17T07:50:33Z</time></trkpt><trkpt lat="-24.532570107691612" lon="113.96569326249819"><ele>28.0</ele><time>2026-04-17T07:50:34Z</time></trkpt><trkpt lat="-24.532318584829078" lon="113.96590569265126"><ele>28.0</ele><time>2026-04-17T07:50:35Z</time></trkpt><trkpt lat="-24.532067659763502" lon="113.9661208295896"><ele>28.0</ele><time>2026-04-17T07:50:36Z</time></trkpt><trkpt lat="-24.531820613076054" lon="113.96633588378661"><ele>28.0</ele><time>2026-04-17T07:50:37Z</time></trkpt><trkpt lat="-24.531576244752994" lon="113.96655220763203"><ele>28.0</ele><time>2026-04-17T07:50:38Z</time></trkpt><trkpt lat="-24.53133342016317" lon="113.96676788984877"><ele>28.5</ele><time>2026-04-17T07:50:39Z</time></trkpt><trkpt lat="-24.53108841686236" lon="113.96698554660772"><ele>29.0</ele><time>2026-04-17T07:50:40Z</time></trkpt><trkpt lat="-24.530840659144953" lon="113.96720002960141"><ele>29.0</ele><time>2026-04-17T07:50:41Z</time></trkpt><trkpt lat="-24.530591154432607" lon="113.96741455880641"><ele>29.0</ele><time>2026-04-17T07:50:42Z</time></trkpt><trkpt lat="-24.530339236862325" lon="113.96763195908699"><ele>29.0</ele><time>2026-04-17T07:50:43Z</time></trkpt><trkpt lat="-24.530087867342665" lon="113.96785249291028"><ele>29.0</ele><time>2026-04-17T07:50:44Z</time></trkpt><trkpt lat="-24.529839861713782" lon="113.96807167308685"><ele>29.0</ele><time>2026-04-17T07:50:45Z</time></trkpt><trkpt lat="-24.52959419420228" lon="113.96828962368167"><ele>29.0</ele><time>2026-04-17T07:50:46Z</time></trkpt><trkpt lat="-24.529344157414364" lon="113.96850826980867"><ele>28.5</ele><time>2026-04-17T07:50:47Z</time></trkpt><trkpt lat="-24.52909114639177" lon="113.96872730328126"><ele>28.0</ele><time>2026-04-17T07:50:48Z</time></trkpt><trkpt lat="-24.528840373453427" lon="113.96894292747959"><ele>28.0</ele><time>2026-04-17T07:50:49Z</time></trkpt><trkpt lat="-24.528584198474903" lon="113.96916128231234"><ele>28.0</ele><time>2026-04-17T07:50:50Z</time></trkpt><trkpt lat="-24.528327333370076" lon="113.96937668934798"><ele>28.5</ele><time>2026-04-17T07:50:51Z</time></trkpt><trkpt lat="-24.52807390458434" lon="113.96959015974154"><ele>29.0</ele><time>2026-04-17T07:50:52Z</time></trkpt><trkpt lat="-24.527821159746463" lon="113.96980575142028"><ele>29.0</ele><time>2026-04-17T07:50:53Z</time></trkpt><trkpt lat="-24.527570581110172" lon="113.97002250611234"><ele>29.0</ele><time>2026-04-17T07:50:54Z</time></trkpt><trkpt lat="-24.527316707720797" lon="113.97024213246547"><ele>29.0</ele><time>2026-04-17T07:50:55Z</time></trkpt><trkpt lat="-24.527060253702064" lon="113.97046069179449"><ele>29.0</ele><time>2026-04-17T07:50:56Z</time></trkpt><trkpt lat="-24.526805697165337" lon="113.97067742470975"><ele>28.5</ele><time>2026-04-17T07:50:57Z</time></trkpt><trkpt lat="-24.526551185974736" lon="113.97089548981766"><ele>28.0</ele><time>2026-04-17T07:50:58Z</time></trkpt><trkpt lat="-24.526298163202807" lon="113.97111223980504"><ele>28.0</ele><time>2026-04-17T07:50:59Z</time></trkpt><trkpt lat="-24.52604527880881" lon="113.97133064161032"><ele>28.0</ele><time>2026-04-17T07:51:00Z</time></trkpt><trkpt lat="-24.52579011638812" lon="113.97154979279918"><ele>28.0</ele><time>2026-04-17T07:51:01Z</time></trkpt><trkpt lat="-24.525534564196196" lon="113.97177128732383"><ele>28.0</ele><time>2026-04-17T07:51:02Z</time></trkpt><trkpt lat="-24.525282862987012" lon="113.97198887605751"><ele>28.0</ele><time>2026-04-17T07:51:03Z</time></trkpt><trkpt lat="-24.525030557927156" lon="113.97220666102254"><ele>28.0</ele><time>2026-04-17T07:51:04Z</time></trkpt><trkpt lat="-24.524778190098186" lon="113.97242303665978"><ele>27.0</ele><time>2026-04-17T07:51:05Z</time></trkpt><trkpt lat="-24.5245245116065" lon="113.97264089438691"><ele>26.0</ele><time>2026-04-17T07:51:06Z</time></trkpt><trkpt lat="-24.524272706971935" lon="113.9728580085395"><ele>26.0</ele><time>2026-04-17T07:51:07Z</time></trkpt><trkpt lat="-24.524019531127934" lon="113.97307638311005"><ele>26.0</ele><time>2026-04-17T07:51:08Z</time></trkpt><trkpt lat="-24.523767507228158" lon="113.97329106355959"><ele>28.0</ele><time>2026-04-17T07:51:09Z</time></trkpt><trkpt lat="-24.52351477554645" lon="113.97350711954739"><ele>30.0</ele><time>2026-04-17T07:51:10Z</time></trkpt><trkpt lat="-24.523259923238466" lon="113.9737264951614"><ele>30.0</ele><time>2026-04-17T07:51:11Z</time></trkpt><trkpt lat="-24.523003522825583" lon="113.97394589598738"><ele>30.0</ele><time>2026-04-17T07:51:12Z</time></trkpt><trkpt lat="-24.522748252879303" lon="113.97416280586528"><ele>29.5</ele><time>2026-04-17T07:51:13Z</time></trkpt><trkpt lat="-24.52249371833972" lon="113.9743797271837"><ele>29.0</ele><time>2026-04-17T07:51:14Z</time></trkpt><trkpt lat="-24.52224059709241" lon="113.97459832221374"><ele>29.0</ele><time>2026-04-17T07:51:15Z</time></trkpt><trkpt lat="-24.52199125373879" lon="113.97481606726701"><ele>29.0</ele><time>2026-04-17T07:51:16Z</time></trkpt><trkpt lat="-24.52174058743813" lon="113.97503074004707"><ele>29.0</ele><time>2026-04-17T07:51:17Z</time></trkpt><trkpt lat="-24.52149102652814" lon="113.9752451767422"><ele>29.0</ele><time>2026-04-17T07:51:18Z</time></trkpt><trkpt lat="-24.521241581047786" lon="113.97545799501118"><ele>29.0</ele><time>2026-04-17T07:51:19Z</time></trkpt><trkpt lat="-24.52099291621415" lon="113.97567062294641"><ele>29.0</ele><time>2026-04-17T07:51:20Z</time></trkpt><trkpt lat="-24.520744151919967" lon="113.97588436556846"><ele>28.5</ele><time>2026-04-17T07:51:21Z</time></trkpt><trkpt lat="-24.520494453683025" lon="113.97609995929461"><ele>28.0</ele><time>2026-04-17T07:51:22Z</time></trkpt><trkpt lat="-24.52024562469162" lon="113.97631479313905"><ele>28.0</ele><time>2026-04-17T07:51:23Z</time></trkpt><trkpt lat="-24.519998009276655" lon="113.97652791769654"><ele>28.0</ele><time>2026-04-17T07:51:24Z</time></trkpt><trkpt lat="-24.519753355691442" lon="113.97674030896793"><ele>27.5</ele><time>2026-04-17T07:51:25Z</time></trkpt><trkpt lat="-24.51951001722882" lon="113.97694623078375"><ele>27.0</ele><time>2026-04-17T07:51:26Z</time></trkpt><trkpt lat="-24.51926763048379" lon="113.97714704171729"><ele>27.0</ele><time>2026-04-17T07:51:27Z</time></trkpt><trkpt lat="-24.51902508883324" lon="113.97734641526104"><ele>27.0</ele><time>2026-04-17T07:51:28Z</time></trkpt><trkpt lat="-24.518784102419065" lon="113.97754493801963"><ele>27.0</ele><time>2026-04-17T07:51:29Z</time></trkpt><trkpt lat="-24.51854228589369" lon="113.97773729099798"><ele>27.0</ele><time>2026-04-17T07:51:30Z</time></trkpt><trkpt lat="-24.518296054408506" lon="113.97791667594848"><ele>27.0</ele><time>2026-04-17T07:51:31Z</time></trkpt><trkpt lat="-24.518031914630676" lon="113.978065518608"><ele>27.0</ele><time>2026-04-17T07:51:32Z</time></trkpt><trkpt lat="-24.51776949591273" lon="113.97821885986065"><ele>27.0</ele><time>2026-04-17T07:51:33Z</time></trkpt><trkpt lat="-24.51750765782303" lon="113.97835646699771"><ele>27.0</ele><time>2026-04-17T07:51:34Z</time></trkpt><trkpt lat="-24.51724262732959" lon="113.97848730211874"><ele>27.0</ele><time>2026-04-17T07:51:35Z</time></trkpt><trkpt lat="-24.51698292558996" lon="113.97862266253733"><ele>27.0</ele><time>2026-04-17T07:51:36Z</time></trkpt><trkpt lat="-24.516714821810076" lon="113.97872928408394"><ele>27.0</ele><time>2026-04-17T07:51:37Z</time></trkpt><trkpt lat="-24.516435610689896" lon="113.97882969719072"><ele>27.0</ele><time>2026-04-17T07:51:38Z</time></trkpt><trkpt lat="-24.51615814158661" lon="113.97891979050108"><ele>27.5</ele><time>2026-04-17T07:51:39Z</time></trkpt><trkpt lat="-24.515874096789947" lon="113.97900336902629"><ele>28.0</ele><time>2026-04-17T07:51:40Z</time></trkpt><trkpt lat="-24.515584269798428" lon="113.97905672640348"><ele>28.5</ele><time>2026-04-17T07:51:41Z</time></trkpt><trkpt lat="-24.515301710530164" lon="113.97911349208032"><ele>29.0</ele><time>2026-04-17T07:51:42Z</time></trkpt><trkpt lat="-24.515016289686958" lon="113.97915979505575"><ele>29.0</ele><time>2026-04-17T07:51:43Z</time></trkpt><trkpt lat="-24.51472882425003" lon="113.97921914069676"><ele>29.0</ele><time>2026-04-17T07:51:44Z</time></trkpt><trkpt lat="-24.5144448836234" lon="113.9792565611241"><ele>29.0</ele><time>2026-04-17T07:51:45Z</time></trkpt><trkpt lat="-24.51415712394825" lon="113.9793009533076"><ele>29.0</ele><time>2026-04-17T07:51:46Z</time></trkpt><trkpt lat="-24.513871069142464" lon="113.97935162200797"><ele>29.0</ele><time>2026-04-17T07:51:47Z</time></trkpt><trkpt lat="-24.513582457425734" lon="113.9794005046707"><ele>29.0</ele><time>2026-04-17T07:51:48Z</time></trkpt><trkpt lat="-24.51329371531135" lon="113.97944571990337"><ele>29.0</ele><time>2026-04-17T07:51:49Z</time></trkpt><trkpt lat="-24.51300134113956" lon="113.97948885391386"><ele>29.0</ele><time>2026-04-17T07:51:50Z</time></trkpt><trkpt lat="-24.512715971631565" lon="113.97953354804389"><ele>28.5</ele><time>2026-04-17T07:51:51Z</time></trkpt><trkpt lat="-24.512422550988465" lon="113.97957814287659"><ele>28.0</ele><time>2026-04-17T07:51:52Z</time></trkpt><trkpt lat="-24.512132396740622" lon="113.97962227168546"><ele>27.0</ele><time>2026-04-17T07:51:53Z</time></trkpt><trkpt lat="-24.511838751007705" lon="113.97966589727483"><ele>26.0</ele><time>2026-04-17T07:51:54Z</time></trkpt><trkpt lat="-24.51154447196228" lon="113.97971013595837"><ele>26.0</ele><time>2026-04-17T07:51:55Z</time></trkpt><trkpt lat="-24.511253349169728" lon="113.97975644343278"><ele>26.0</ele><time>2026-04-17T07:51:56Z</time></trkpt><trkpt lat="-24.510961388597647" lon="113.97980323294829"><ele>26.5</ele><time>2026-04-17T07:51:57Z</time></trkpt><trkpt lat="-24.510666213748742" lon="113.97985030345967"><ele>27.0</ele><time>2026-04-17T07:51:58Z</time></trkpt><trkpt lat="-24.510371380511927" lon="113.97989726552257"><ele>28.0</ele><time>2026-04-17T07:51:59Z</time></trkpt><trkpt lat="-24.51008157480083" lon="113.97994431873758"><ele>29.0</ele><time>2026-04-17T07:52:00Z</time></trkpt><trkpt lat="-24.509788759271537" lon="113.97998863789894"><ele>27.5</ele><time>2026-04-17T07:52:01Z</time></trkpt><trkpt lat="-24.509494907055316" lon="113.98003305013692"><ele>26.0</ele><time>2026-04-17T07:52:02Z</time></trkpt><trkpt lat="-24.50920321201984" lon="113.98007819350288"><ele>26.0</ele><time>2026-04-17T07:52:03Z</time></trkpt><trkpt lat="-24.508910414926085" lon="113.98012479931563"><ele>26.0</ele><time>2026-04-17T07:52:04Z</time></trkpt><trkpt lat="-24.508614496720455" lon="113.98017128747853"><ele>26.0</ele><time>2026-04-17T07:52:05Z</time></trkpt><trkpt lat="-24.508315152688255" lon="113.98021548788722"><ele>26.0</ele><time>2026-04-17T07:52:06Z</time></trkpt><trkpt lat="-24.508014684648764" lon="113.98026264495057"><ele>26.5</ele><time>2026-04-17T07:52:07Z</time></trkpt><trkpt lat="-24.50771864119221" lon="113.98031002694346"><ele>27.0</ele><time>2026-04-17T07:52:08Z</time></trkpt><trkpt lat="-24.507424963850138" lon="113.98035512064011"><ele>27.0</ele><time>2026-04-17T07:52:09Z</time></trkpt><trkpt lat="-24.507134513391776" lon="113.98039659630709"><ele>27.0</ele><time>2026-04-17T07:52:10Z</time></trkpt><trkpt lat="-24.506848366866404" lon="113.98043290649088"><ele>26.5</ele><time>2026-04-17T07:52:11Z</time></trkpt><trkpt lat="-24.506561541104368" lon="113.98047466813904"><ele>26.0</ele><time>2026-04-17T07:52:12Z</time></trkpt><trkpt lat="-24.50627406152183" lon="113.98052191693675"><ele>26.0</ele><time>2026-04-17T07:52:13Z</time></trkpt><trkpt lat="-24.50598733707727" lon="113.98057080182627"><ele>26.0</ele><time>2026-04-17T07:52:14Z</time></trkpt><trkpt lat="-24.50569837010211" lon="113.98061729851365"><ele>25.5</ele><time>2026-04-17T07:52:15Z</time></trkpt><trkpt lat="-24.505412110372962" lon="113.98066208041652"><ele>25.0</ele><time>2026-04-17T07:52:16Z</time></trkpt><trkpt lat="-24.50511956709134" lon="113.98070659008822"><ele>25.0</ele><time>2026-04-17T07:52:17Z</time></trkpt><trkpt lat="-24.504827558399157" lon="113.98075189828444"><ele>25.0</ele><time>2026-04-17T07:52:18Z</time></trkpt><trkpt lat="-24.504533627501537" lon="113.98079942690303"><ele>25.0</ele><time>2026-04-17T07:52:19Z</time></trkpt><trkpt lat="-24.504239362247706" lon="113.98084625126822"><ele>25.0</ele><time>2026-04-17T07:52:20Z</time></trkpt><trkpt lat="-24.50394751633859" lon="113.98089233775708"><ele>25.0</ele><time>2026-04-17T07:52:21Z</time></trkpt><trkpt lat="-24.503649623999923" lon="113.98093971129202"><ele>25.0</ele><time>2026-04-17T07:52:22Z</time></trkpt><trkpt lat="-24.503351309658097" lon="113.98098468694745"><ele>25.0</ele><time>2026-04-17T07:52:23Z</time></trkpt><trkpt lat="-24.503052711915117" lon="113.98103031274108"><ele>25.0</ele><time>2026-04-17T07:52:24Z</time></trkpt><trkpt lat="-24.502752463901526" lon="113.98107954262841"><ele>25.5</ele><time>2026-04-17T07:52:25Z</time></trkpt><trkpt lat="-24.502451978293976" lon="113.98112754391867"><ele>26.0</ele><time>2026-04-17T07:52:26Z</time></trkpt><trkpt lat="-24.50215036649002" lon="113.98117458616044"><ele>26.0</ele><time>2026-04-17T07:52:27Z</time></trkpt><trkpt lat="-24.50184230922672" lon="113.98122377591716"><ele>26.0</ele><time>2026-04-17T07:52:28Z</time></trkpt><trkpt lat="-24.501532370799264" lon="113.98127202115516"><ele>26.0</ele><time>2026-04-17T07:52:29Z</time></trkpt><trkpt lat="-24.501224375060552" lon="113.9813188105365"><ele>26.0</ele><time>2026-04-17T07:52:30Z</time></trkpt><trkpt lat="-24.50091992325741" lon="113.98136912649717"><ele>26.0</ele><time>2026-04-17T07:52:31Z</time></trkpt><trkpt lat="-24.500617604076425" lon="113.98141749505649"><ele>26.0</ele><time>2026-04-17T07:52:32Z</time></trkpt><trkpt lat="-24.500315295452957" lon="113.98146374774187"><ele>25.5</ele><time>2026-04-17T07:52:33Z</time></trkpt><trkpt lat="-24.50001298902542" lon="113.9815103359273"><ele>25.0</ele><time>2026-04-17T07:52:34Z</time></trkpt><trkpt lat="-24.49971001538545" lon="113.98155834842439"><ele>24.5</ele><time>2026-04-17T07:52:35Z</time></trkpt><trkpt lat="-24.499405001768753" lon="113.98160415079839"><ele>24.0</ele><time>2026-04-17T07:52:36Z</time></trkpt><trkpt lat="-24.499101232776848" lon="113.9816485727407"><ele>24.5</ele><time>2026-04-17T07:52:37Z</time></trkpt><trkpt lat="-24.498798227925825" lon="113.98169666489744"><ele>25.0</ele><time>2026-04-17T07:52:38Z</time></trkpt><trkpt lat="-24.498495252874235" lon="113.98174724797046"><ele>25.5</ele><time>2026-04-17T07:52:39Z</time></trkpt><trkpt lat="-24.49819005203015" lon="113.98179553823103"><ele>26.0</ele><time>2026-04-17T07:52:40Z</time></trkpt><trkpt lat="-24.4978858423711" lon="113.98184176525417"><ele>26.0</ele><time>2026-04-17T07:52:41Z</time></trkpt><trkpt lat="-24.497579372712256" lon="113.98188731017102"><ele>26.0</ele><time>2026-04-17T07:52:42Z</time></trkpt><trkpt lat="-24.497275868600404" lon="113.98193249430906"><ele>27.0</ele><time>2026-04-17T07:52:43Z</time></trkpt><trkpt lat="-24.49697224569857" lon="113.98198006094536"><ele>28.0</ele><time>2026-04-17T07:52:44Z</time></trkpt><trkpt lat="-24.496669999567885" lon="113.98202806971464"><ele>28.0</ele><time>2026-04-17T07:52:45Z</time></trkpt><trkpt lat="-24.496368016218614" lon="113.98207600841472"><ele>28.0</ele><time>2026-04-17T07:52:46Z</time></trkpt><trkpt lat="-24.49606862672425" lon="113.98212411287606"><ele>27.0</ele><time>2026-04-17T07:52:47Z</time></trkpt><trkpt lat="-24.495767919249868" lon="113.98217306686139"><ele>26.0</ele><time>2026-04-17T07:52:48Z</time></trkpt><trkpt lat="-24.495466073797996" lon="113.98222052715879"><ele>25.5</ele><time>2026-04-17T07:52:49Z</time></trkpt><trkpt lat="-24.495161855860154" lon="113.98226754621425"><ele>25.0</ele><time>2026-04-17T07:52:50Z</time></trkpt><trkpt lat="-24.49485357574824" lon="113.9823139304823"><ele>26.0</ele><time>2026-04-17T07:52:51Z</time></trkpt><trkpt lat="-24.49454614439749" lon="113.98236125950936"><ele>27.0</ele><time>2026-04-17T07:52:52Z</time></trkpt><trkpt lat="-24.49423688051586" lon="113.98240886581875"><ele>27.0</ele><time>2026-04-17T07:52:53Z</time></trkpt><trkpt lat="-24.49392587391685" lon="113.98245592928619"><ele>27.0</ele><time>2026-04-17T07:52:54Z</time></trkpt><trkpt lat="-24.493619874980062" lon="113.98250425444871"><ele>26.5</ele><time>2026-04-17T07:52:55Z</time></trkpt><trkpt lat="-24.493312166130842" lon="113.98255373634753"><ele>26.0</ele><time>2026-04-17T07:52:56Z</time></trkpt><trkpt lat="-24.493005655423694" lon="113.98260322988531"><ele>26.0</ele><time>2026-04-17T07:52:57Z</time></trkpt><trkpt lat="-24.492701950141733" lon="113.9826526104351"><ele>26.0</ele><time>2026-04-17T07:52:58Z</time></trkpt><trkpt lat="-24.492398552563838" lon="113.98270315935385"><ele>26.0</ele><time>2026-04-17T07:52:59Z</time></trkpt><trkpt lat="-24.492095746337124" lon="113.98275377244876"><ele>26.0</ele><time>2026-04-17T07:53:00Z</time></trkpt><trkpt lat="-24.49179375317342" lon="113.98280186932536"><ele>26.0</ele><time>2026-04-17T07:53:01Z</time></trkpt><trkpt lat="-24.491495011183737" lon="113.98284848415115"><ele>26.0</ele><time>2026-04-17T07:53:02Z</time></trkpt><trkpt lat="-24.491194047067015" lon="113.98289440905562"><ele>26.5</ele><time>2026-04-17T07:53:03Z</time></trkpt><trkpt lat="-24.49089452957243" lon="113.9829372620543"><ele>27.0</ele><time>2026-04-17T07:53:04Z</time></trkpt><trkpt lat="-24.490596206605776" lon="113.98297909049542"><ele>27.5</ele><time>2026-04-17T07:53:05Z</time></trkpt><trkpt lat="-24.49029487393119" lon="113.9830229919627"><ele>28.0</ele><time>2026-04-17T07:53:06Z</time></trkpt><trkpt lat="-24.490001455322904" lon="113.98306942940526"><ele>28.0</ele><time>2026-04-17T07:53:07Z</time></trkpt><trkpt lat="-24.48970994411939" lon="113.98311406870103"><ele>28.0</ele><time>2026-04-17T07:53:08Z</time></trkpt><trkpt lat="-24.489419335617413" lon="113.98315694269174"><ele>27.5</ele><time>2026-04-17T07:53:09Z</time></trkpt><trkpt lat="-24.489131841768344" lon="113.98319918589551"><ele>27.0</ele><time>2026-04-17T07:53:10Z</time></trkpt><trkpt lat="-24.488841862078974" lon="113.98324769388704"><ele>27.0</ele><time>2026-04-17T07:53:11Z</time></trkpt><trkpt lat="-24.488552353190205" lon="113.9832955487805"><ele>27.0</ele><time>2026-04-17T07:53:12Z</time></trkpt><trkpt lat="-24.488265348182896" lon="113.98334469891827"><ele>26.5</ele><time>2026-04-17T07:53:13Z</time></trkpt><trkpt lat="-24.487975571704816" lon="113.9833932894477"><ele>26.0</ele><time>2026-04-17T07:53:14Z</time></trkpt><trkpt lat="-24.48768398490483" lon="113.98344119120944"><ele>25.5</ele><time>2026-04-17T07:53:15Z</time></trkpt><trkpt lat="-24.487393550085425" lon="113.9834823592351"><ele>25.0</ele><time>2026-04-17T07:53:16Z</time></trkpt><trkpt lat="-24.487098541323828" lon="113.98352675695293"><ele>25.5</ele><time>2026-04-17T07:53:17Z</time></trkpt><trkpt lat="-24.486804885846343" lon="113.98357171781605"><ele>26.0</ele><time>2026-04-17T07:53:18Z</time></trkpt><trkpt lat="-24.486513609744772" lon="113.98361837289075"><ele>25.5</ele><time>2026-04-17T07:53:19Z</time></trkpt><trkpt lat="-24.48621718684849" lon="113.98366791042861"><ele>25.0</ele><time>2026-04-17T07:53:20Z</time></trkpt><trkpt lat="-24.485926962058876" lon="113.983715738743"><ele>25.0</ele><time>2026-04-17T07:53:21Z</time></trkpt><trkpt lat="-24.485635352006987" lon="113.98376178070319"><ele>25.0</ele><time>2026-04-17T07:53:22Z</time></trkpt><trkpt lat="-24.4853457373256" lon="113.9838075277695"><ele>25.0</ele><time>2026-04-17T07:53:23Z</time></trkpt><trkpt lat="-24.485055072662437" lon="113.98385596764875"><ele>25.0</ele><time>2026-04-17T07:53:24Z</time></trkpt><trkpt lat="-24.484764002392808" lon="113.98390270798357"><ele>24.5</ele><time>2026-04-17T07:53:25Z</time></trkpt><trkpt lat="-24.48446720143799" lon="113.9839484495726"><ele>24.0</ele><time>2026-04-17T07:53:26Z</time></trkpt><trkpt lat="-24.48417166868294" lon="113.98399000317764"><ele>24.0</ele><time>2026-04-17T07:53:27Z</time></trkpt><trkpt lat="-24.483875780837522" lon="113.98403320444083"><ele>24.0</ele><time>2026-04-17T07:53:28Z</time></trkpt><trkpt lat="-24.483575463481692" lon="113.98407644811678"><ele>23.5</ele><time>2026-04-17T07:53:29Z</time></trkpt><trkpt lat="-24.483271427367207" lon="113.98412357246326"><ele>23.0</ele><time>2026-04-17T07:53:30Z</time></trkpt><trkpt lat="-24.48296598504343" lon="113.98417247443159"><ele>23.5</ele><time>2026-04-17T07:53:31Z</time></trkpt><trkpt lat="-24.48266581046551" lon="113.98422187521182"><ele>24.0</ele><time>2026-04-17T07:53:32Z</time></trkpt><trkpt lat="-24.48235972053342" lon="113.98427242626344"><ele>24.0</ele><time>2026-04-17T07:53:33Z</time></trkpt><trkpt lat="-24.482058826091162" lon="113.9843222029019"><ele>24.0</ele><time>2026-04-17T07:53:34Z</time></trkpt><trkpt lat="-24.481756449247506" lon="113.98437083872369"><ele>24.0</ele><time>2026-04-17T07:53:35Z</time></trkpt><trkpt lat="-24.481454036773307" lon="113.98442109141405"><ele>24.0</ele><time>2026-04-17T07:53:36Z</time></trkpt><trkpt lat="-24.48115067132334" lon="113.9844520188072"><ele>24.5</ele><time>2026-04-17T07:53:37Z</time></trkpt><trkpt lat="-24.480845280953076" lon="113.98451616048293"><ele>25.0</ele><time>2026-04-17T07:53:38Z</time></trkpt><trkpt lat="-24.480543341787122" lon="113.98456088620927"><ele>25.0</ele><time>2026-04-17T07:53:39Z</time></trkpt><trkpt lat="-24.48023877895218" lon="113.98460799679782"><ele>25.0</ele><time>2026-04-17T07:53:40Z</time></trkpt><trkpt lat="-24.479938680539693" lon="113.98465280750875"><ele>25.0</ele><time>2026-04-17T07:53:41Z</time></trkpt><trkpt lat="-24.47964003056908" lon="113.98469803598128"><ele>25.0</ele><time>2026-04-17T07:53:42Z</time></trkpt><trkpt lat="-24.479345504193233" lon="113.98474246693804"><ele>25.5</ele><time>2026-04-17T07:53:43Z</time></trkpt><trkpt lat="-24.479047608810667" lon="113.98478858027697"><ele>26.0</ele><time>2026-04-17T07:53:44Z</time></trkpt><trkpt lat="-24.47874854078453" lon="113.98483410314007"><ele>26.0</ele><time>2026-04-17T07:53:45Z</time></trkpt><trkpt lat="-24.478448264731668" lon="113.9848812321188"><ele>26.0</ele><time>2026-04-17T07:53:46Z</time></trkpt><trkpt lat="-24.47814904187076" lon="113.98492639756292"><ele>25.5</ele><time>2026-04-17T07:53:47Z</time></trkpt><trkpt lat="-24.477857569494006" lon="113.98497236305676"><ele>25.0</ele><time>2026-04-17T07:53:48Z</time></trkpt><trkpt lat="-24.477581974156465" lon="113.98501669574978"><ele>25.5</ele><time>2026-04-17T07:53:49Z</time></trkpt><trkpt lat="-24.477318754772497" lon="113.9850554346531"><ele>26.0</ele><time>2026-04-17T07:53:50Z</time></trkpt><trkpt lat="-24.47705056315181" lon="113.98509689051934"><ele>26.0</ele><time>2026-04-17T07:53:51Z</time></trkpt><trkpt lat="-24.476774932422913" lon="113.98514004327292"><ele>26.0</ele><time>2026-04-17T07:53:52Z</time></trkpt><trkpt lat="-24.47649170886459" lon="113.9851865917742"><ele>25.0</ele><time>2026-04-17T07:53:53Z</time></trkpt><trkpt lat="-24.476211475792766" lon="113.98523086915601"><ele>24.0</ele><time>2026-04-17T07:53:54Z</time></trkpt><trkpt lat="-24.475924004086874" lon="113.98527481221427"><ele>24.0</ele><time>2026-04-17T07:53:55Z</time></trkpt><trkpt lat="-24.475634831197624" lon="113.98531540106798"><ele>24.0</ele><time>2026-04-17T07:53:56Z</time></trkpt><trkpt lat="-24.4753411864987" lon="113.98535726710917"><ele>24.0</ele><time>2026-04-17T07:53:57Z</time></trkpt><trkpt lat="-24.475049036703364" lon="113.98540297677317"><ele>24.0</ele><time>2026-04-17T07:53:58Z</time></trkpt><trkpt lat="-24.47475565569233" lon="113.98544985429663"><ele>24.0</ele><time>2026-04-17T07:53:59Z</time></trkpt><trkpt lat="-24.47445964414353" lon="113.98549966374206"><ele>24.0</ele><time>2026-04-17T07:54:00Z</time></trkpt><trkpt lat="-24.47416510384379" lon="113.9855496754623"><ele>24.0</ele><time>2026-04-17T07:54:01Z</time></trkpt><trkpt lat="-24.473874665203713" lon="113.98559761409524"><ele>24.0</ele><time>2026-04-17T07:54:02Z</time></trkpt><trkpt lat="-24.47358139134354" lon="113.98564472191882"><ele>25.0</ele><time>2026-04-17T07:54:03Z</time></trkpt><trkpt lat="-24.47329399631918" lon="113.98569254710013"><ele>26.0</ele><time>2026-04-17T07:54:04Z</time></trkpt><trkpt lat="-24.47300523978531" lon="113.98574042163797"><ele>25.5</ele><time>2026-04-17T07:54:05Z</time></trkpt><trkpt lat="-24.472711602060176" lon="113.98576955240726"><ele>25.0</ele><time>2026-04-17T07:54:06Z</time></trkpt><trkpt lat="-24.47242612782533" lon="113.98581474249912"><ele>25.5</ele><time>2026-04-17T07:54:07Z</time></trkpt><trkpt lat="-24.47214360320868" lon="113.98585777215042"><ele>26.0</ele><time>2026-04-17T07:54:08Z</time></trkpt><trkpt lat="-24.47186337999301" lon="113.98590141720993"><ele>26.0</ele><time>2026-04-17T07:54:09Z</time></trkpt><trkpt lat="-24.471584429794188" lon="113.9859448640049"><ele>26.0</ele><time>2026-04-17T07:54:10Z</time></trkpt><trkpt lat="-24.471309196975028" lon="113.98600410466855"><ele>26.0</ele><time>2026-04-17T07:54:11Z</time></trkpt><trkpt lat="-24.471029835337724" lon="113.98604057622016"><ele>26.0</ele><time>2026-04-17T07:54:12Z</time></trkpt><trkpt lat="-24.47075442939853" lon="113.98608228470671"><ele>26.0</ele><time>2026-04-17T07:54:13Z</time></trkpt><trkpt lat="-24.47047761102648" lon="113.98612604959207"><ele>26.0</ele><time>2026-04-17T07:54:14Z</time></trkpt><trkpt lat="-24.4701992420131" lon="113.98617266385301"><ele>27.0</ele><time>2026-04-17T07:54:15Z</time></trkpt><trkpt lat="-24.469923197019423" lon="113.9862193474982"><ele>28.0</ele><time>2026-04-17T07:54:16Z</time></trkpt><trkpt lat="-24.469645860719098" lon="113.98626315874128"><ele>27.0</ele><time>2026-04-17T07:54:17Z</time></trkpt><trkpt lat="-24.469361937980104" lon="113.98630709470723"><ele>26.0</ele><time>2026-04-17T07:54:18Z</time></trkpt><trkpt lat="-24.469077266843744" lon="113.98634831189632"><ele>26.0</ele><time>2026-04-17T07:54:19Z</time></trkpt><trkpt lat="-24.46879154565179" lon="113.98639080862462"><ele>26.0</ele><time>2026-04-17T07:54:20Z</time></trkpt><trkpt lat="-24.46850554228375" lon="113.98643504377497"><ele>26.0</ele><time>2026-04-17T07:54:21Z</time></trkpt><trkpt lat="-24.46821985201382" lon="113.98648393979997"><ele>26.0</ele><time>2026-04-17T07:54:22Z</time></trkpt><trkpt lat="-24.467932998986303" lon="113.9865323457124"><ele>26.0</ele><time>2026-04-17T07:54:23Z</time></trkpt><trkpt lat="-24.46764764526559" lon="113.98657789680253"><ele>26.0</ele><time>2026-04-17T07:54:24Z</time></trkpt><trkpt lat="-24.467360789037077" lon="113.98662343713578"><ele>26.5</ele><time>2026-04-17T07:54:25Z</time></trkpt><trkpt lat="-24.46707768668574" lon="113.98666887336049"><ele>27.0</ele><time>2026-04-17T07:54:26Z</time></trkpt><trkpt lat="-24.466799347564294" lon="113.98670290198676"><ele>27.0</ele><time>2026-04-17T07:54:27Z</time></trkpt><trkpt lat="-24.466530037823883" lon="113.98675029101459"><ele>27.0</ele><time>2026-04-17T07:54:28Z</time></trkpt><trkpt lat="-24.466270898395308" lon="113.98679824498231"><ele>26.0</ele><time>2026-04-17T07:54:29Z</time></trkpt><trkpt lat="-24.466027975777955" lon="113.98692734027087"><ele>25.0</ele><time>2026-04-17T07:54:30Z</time></trkpt><trkpt lat="-24.46578601371101" lon="113.98701618720538"><ele>25.0</ele><time>2026-04-17T07:54:31Z</time></trkpt><trkpt lat="-24.465538655818534" lon="113.98711364054424"><ele>25.0</ele><time>2026-04-17T07:54:32Z</time></trkpt><trkpt lat="-24.465288325321293" lon="113.98722118393405"><ele>25.0</ele><time>2026-04-17T07:54:33Z</time></trkpt><trkpt lat="-24.4650454380482" lon="113.98733203118701"><ele>25.0</ele><time>2026-04-17T07:54:34Z</time></trkpt><trkpt lat="-24.464804946754768" lon="113.98744703182705"><ele>27.0</ele><time>2026-04-17T07:54:35Z</time></trkpt><trkpt lat="-24.464565786228956" lon="113.98756677445887"><ele>29.0</ele><time>2026-04-17T07:54:36Z</time></trkpt><trkpt lat="-24.46433298746398" lon="113.98768723655782"><ele>29.0</ele><time>2026-04-17T07:54:37Z</time></trkpt><trkpt lat="-24.464095490629898" lon="113.98780815041681"><ele>29.0</ele><time>2026-04-17T07:54:38Z</time></trkpt><trkpt lat="-24.463857269859048" lon="113.98792707640546"><ele>28.5</ele><time>2026-04-17T07:54:39Z</time></trkpt><trkpt lat="-24.463617523543345" lon="113.98804475701218"><ele>28.0</ele><time>2026-04-17T07:54:40Z</time></trkpt><trkpt lat="-24.46337798961213" lon="113.98816633805725"><ele>28.0</ele><time>2026-04-17T07:54:41Z</time></trkpt><trkpt lat="-24.463128369960376" lon="113.98830203525367"><ele>28.0</ele><time>2026-04-17T07:54:42Z</time></trkpt><trkpt lat="-24.462865924365616" lon="113.98844553947585"><ele>27.0</ele><time>2026-04-17T07:54:43Z</time></trkpt><trkpt lat="-24.462577855757054" lon="113.98859501200319"><ele>26.0</ele><time>2026-04-17T07:54:44Z</time></trkpt><trkpt lat="-24.46227049201736" lon="113.98874516160205"><ele>26.5</ele><time>2026-04-17T07:54:45Z</time></trkpt><trkpt lat="-24.461955934862978" lon="113.98889950485729"><ele>27.0</ele><time>2026-04-17T07:54:46Z</time></trkpt><trkpt lat="-24.46163947689175" lon="113.9890532957289"><ele>27.0</ele><time>2026-04-17T07:54:47Z</time></trkpt><trkpt lat="-24.461318799108593" lon="113.98920920355518"><ele>27.0</ele><time>2026-04-17T07:54:48Z</time></trkpt><trkpt lat="-24.460994514227007" lon="113.98937124065657"><ele>27.0</ele><time>2026-04-17T07:54:49Z</time></trkpt><trkpt lat="-24.460667008248738" lon="113.98953310559088"><ele>27.0</ele><time>2026-04-17T07:54:50Z</time></trkpt><trkpt lat="-24.460341826571614" lon="113.9896882645948"><ele>26.0</ele><time>2026-04-17T07:54:51Z</time></trkpt><trkpt lat="-24.46001483379457" lon="113.98984296080744"><ele>25.0</ele><time>2026-04-17T07:54:52Z</time></trkpt><trkpt lat="-24.459688173720828" lon="113.98999471416147"><ele>26.0</ele><time>2026-04-17T07:54:53Z</time></trkpt><trkpt lat="-24.459362000494245" lon="113.99014293451725"><ele>27.0</ele><time>2026-04-17T07:54:54Z</time></trkpt><trkpt lat="-24.459043285003357" lon="113.99028849977279"><ele>27.0</ele><time>2026-04-17T07:54:54.999Z</time></trkpt><trkpt lat="-24.458736891973686" lon="113.9904320991594"><ele>27.0</ele><time>2026-04-17T07:54:55.999Z</time></trkpt><trkpt lat="-24.458430978922216" lon="113.99057732318713"><ele>27.0</ele><time>2026-04-17T07:54:56.999Z</time></trkpt><trkpt lat="-24.4581293166395" lon="113.99072244833758"><ele>27.0</ele><time>2026-04-17T07:54:57.999Z</time></trkpt><trkpt lat="-24.45783177941822" lon="113.99086801497498"><ele>26.5</ele><time>2026-04-17T07:54:58.999Z</time></trkpt><trkpt lat="-24.45753843683603" lon="113.99101023728751"><ele>26.0</ele><time>2026-04-17T07:54:59.999Z</time></trkpt><trkpt lat="-24.457244789185236" lon="113.99115085374166"><ele>26.5</ele><time>2026-04-17T07:55:01Z</time></trkpt><trkpt lat="-24.456954203429007" lon="113.99129170780954"><ele>27.0</ele><time>2026-04-17T07:55:02Z</time></trkpt><trkpt lat="-24.45665893689951" lon="113.99143556017249"><ele>27.0</ele><time>2026-04-17T07:55:03Z</time></trkpt><trkpt lat="-24.456358930986916" lon="113.99157967934524"><ele>27.0</ele><time>2026-04-17T07:55:04Z</time></trkpt><trkpt lat="-24.456056424463053" lon="113.99172844359732"><ele>27.0</ele><time>2026-04-17T07:55:05Z</time></trkpt><trkpt lat="-24.455760918854025" lon="113.99187432701306"><ele>27.0</ele><time>2026-04-17T07:55:06Z</time></trkpt><trkpt lat="-24.455463494794913" lon="113.99202045724543"><ele>26.5</ele><time>2026-04-17T07:55:07Z</time></trkpt><trkpt lat="-24.455168706906754" lon="113.99216768661414"><ele>26.0</ele><time>2026-04-17T07:55:08Z</time></trkpt><trkpt lat="-24.45487656077549" lon="113.9923150230595"><ele>26.5</ele><time>2026-04-17T07:55:09Z</time></trkpt><trkpt lat="-24.454586118350424" lon="113.99245874771813"><ele>27.0</ele><time>2026-04-17T07:55:10Z</time></trkpt><trkpt lat="-24.454296814110183" lon="113.9925991697281"><ele>27.0</ele><time>2026-04-17T07:55:11Z</time></trkpt><trkpt lat="-24.45400699473651" lon="113.99273997659783"><ele>27.0</ele><time>2026-04-17T07:55:12Z</time></trkpt><trkpt lat="-24.453718296834584" lon="113.99288040069594"><ele>27.5</ele><time>2026-04-17T07:55:13Z</time></trkpt><trkpt lat="-24.453427486344378" lon="113.99302113720611"><ele>28.0</ele><time>2026-04-17T07:55:14Z</time></trkpt><trkpt lat="-24.453139213635065" lon="113.99316179141583"><ele>28.0</ele><time>2026-04-17T07:55:15Z</time></trkpt><trkpt lat="-24.45284989936257" lon="113.99330148680193"><ele>28.0</ele><time>2026-04-17T07:55:16Z</time></trkpt><trkpt lat="-24.4525596031419" lon="113.99344113315352"><ele>27.0</ele><time>2026-04-17T07:55:17Z</time></trkpt><trkpt lat="-24.45226805035664" lon="113.99358343752674"><ele>26.0</ele><time>2026-04-17T07:55:18Z</time></trkpt><trkpt lat="-24.451974620730443" lon="113.99372819427474"><ele>26.0</ele><time>2026-04-17T07:55:19Z</time></trkpt><trkpt lat="-24.4516790583841" lon="113.99387374354609"><ele>26.0</ele><time>2026-04-17T07:55:20Z</time></trkpt><trkpt lat="-24.451382967498443" lon="113.99401744006789"><ele>26.5</ele><time>2026-04-17T07:55:21Z</time></trkpt><trkpt lat="-24.451092115959398" lon="113.99415968213611"><ele>27.0</ele><time>2026-04-17T07:55:22Z</time></trkpt><trkpt lat="-24.45080138205798" lon="113.9943055995053"><ele>27.0</ele><time>2026-04-17T07:55:23Z</time></trkpt><trkpt lat="-24.450511697167634" lon="113.99444620679304"><ele>27.0</ele><time>2026-04-17T07:55:24Z</time></trkpt><trkpt lat="-24.450217427933744" lon="113.99458997365446"><ele>27.0</ele><time>2026-04-17T07:55:25Z</time></trkpt><trkpt lat="-24.449925124236728" lon="113.99473353515027"><ele>27.0</ele><time>2026-04-17T07:55:26Z</time></trkpt><trkpt lat="-24.449633453949595" lon="113.99487898632843"><ele>27.0</ele><time>2026-04-17T07:55:27Z</time></trkpt><trkpt lat="-24.44934232758853" lon="113.99502413445227"><ele>27.0</ele><time>2026-04-17T07:55:28Z</time></trkpt><trkpt lat="-24.449043983654914" lon="113.99516954181023"><ele>27.0</ele><time>2026-04-17T07:55:29Z</time></trkpt><trkpt lat="-24.448748061182528" lon="113.99531198066828"><ele>27.0</ele><time>2026-04-17T07:55:30Z</time></trkpt><trkpt lat="-24.44845116420078" lon="113.99545571368526"><ele>27.0</ele><time>2026-04-17T07:55:31Z</time></trkpt><trkpt lat="-24.448152796213726" lon="113.99559996437252"><ele>27.0</ele><time>2026-04-17T07:55:32Z</time></trkpt><trkpt lat="-24.447854692227786" lon="113.99574428408191"><ele>27.5</ele><time>2026-04-17T07:55:33Z</time></trkpt><trkpt lat="-24.447562280411383" lon="113.99588876681565"><ele>28.0</ele><time>2026-04-17T07:55:34Z</time></trkpt><trkpt lat="-24.447259606972313" lon="113.99601321399668"><ele>27.5</ele><time>2026-04-17T07:55:35Z</time></trkpt><trkpt lat="-24.446967850986326" lon="113.99615494504192"><ele>27.0</ele><time>2026-04-17T07:55:36Z</time></trkpt><trkpt lat="-24.446677863274015" lon="113.9962953246556"><ele>27.0</ele><time>2026-04-17T07:55:37Z</time></trkpt><trkpt lat="-24.446384142173716" lon="113.99643888585297"><ele>27.0</ele><time>2026-04-17T07:55:38Z</time></trkpt><trkpt lat="-24.446090122582703" lon="113.99658206550309"><ele>26.0</ele><time>2026-04-17T07:55:39Z</time></trkpt><trkpt lat="-24.445794581437717" lon="113.99672743917351"><ele>25.0</ele><time>2026-04-17T07:55:40Z</time></trkpt><trkpt lat="-24.44551021684581" lon="113.99688786853861"><ele>25.5</ele><time>2026-04-17T07:55:41Z</time></trkpt><trkpt lat="-24.445215745348367" lon="113.99703019942856"><ele>26.0</ele><time>2026-04-17T07:55:42Z</time></trkpt><trkpt lat="-24.44492282456354" lon="113.99717311336487"><ele>25.5</ele><time>2026-04-17T07:55:43Z</time></trkpt><trkpt lat="-24.444625688364976" lon="113.99731913846038"><ele>25.0</ele><time>2026-04-17T07:55:44Z</time></trkpt><trkpt lat="-24.444321286165934" lon="113.99744953230487"><ele>25.5</ele><time>2026-04-17T07:55:45Z</time></trkpt><trkpt lat="-24.4440310460046" lon="113.99761172458216"><ele>26.0</ele><time>2026-04-17T07:55:46Z</time></trkpt><trkpt lat="-24.443734014439034" lon="113.9977534086322"><ele>26.0</ele><time>2026-04-17T07:55:47Z</time></trkpt><trkpt lat="-24.443436889748778" lon="113.99789414742119"><ele>26.0</ele><time>2026-04-17T07:55:48Z</time></trkpt><trkpt lat="-24.44314528141857" lon="113.99803575846029"><ele>26.0</ele><time>2026-04-17T07:55:49Z</time></trkpt><trkpt lat="-24.44285112420895" lon="113.99818189467"><ele>26.0</ele><time>2026-04-17T07:55:50Z</time></trkpt><trkpt lat="-24.442564520617893" lon="113.998323679943"><ele>26.0</ele><time>2026-04-17T07:55:51Z</time></trkpt><trkpt lat="-24.442273855841535" lon="113.99846621288259"><ele>26.0</ele><time>2026-04-17T07:55:52Z</time></trkpt><trkpt lat="-24.44198255254162" lon="113.99860593129527"><ele>26.0</ele><time>2026-04-17T07:55:53Z</time></trkpt><trkpt lat="-24.44168727232759" lon="113.99874640553581"><ele>26.0</ele><time>2026-04-17T07:55:54Z</time></trkpt><trkpt lat="-24.44139061887015" lon="113.99888466055019"><ele>26.5</ele><time>2026-04-17T07:55:55Z</time></trkpt><trkpt lat="-24.44109780517564" lon="113.99902683199326"><ele>27.0</ele><time>2026-04-17T07:55:56Z</time></trkpt><trkpt lat="-24.440805369014658" lon="113.99916936646137"><ele>27.0</ele><time>2026-04-17T07:55:57Z</time></trkpt><trkpt lat="-24.440510247656416" lon="113.99931520666287"><ele>27.0</ele><time>2026-04-17T07:55:58Z</time></trkpt><trkpt lat="-24.44021515356672" lon="113.99946086565215"><ele>26.5</ele><time>2026-04-17T07:55:59Z</time></trkpt><trkpt lat="-24.439921588684488" lon="113.99960690619112"><ele>26.0</ele><time>2026-04-17T07:56:00Z</time></trkpt><trkpt lat="-24.43962905778817" lon="113.99975187816986"><ele>26.0</ele><time>2026-04-17T07:56:01Z</time></trkpt><trkpt lat="-24.439336230717636" lon="113.99988930581665"><ele>26.0</ele><time>2026-04-17T07:56:02Z</time></trkpt><trkpt lat="-24.439041111049697" lon="114.00002523943705"><ele>26.5</ele><time>2026-04-17T07:56:03Z</time></trkpt><trkpt lat="-24.43874700583271" lon="114.00015155404056"><ele>27.0</ele><time>2026-04-17T07:56:04Z</time></trkpt><trkpt lat="-24.43844419034748" lon="114.0002492090943"><ele>27.0</ele><time>2026-04-17T07:56:05Z</time></trkpt><trkpt lat="-24.438140839737496" lon="114.00036279419942"><ele>27.0</ele><time>2026-04-17T07:56:06Z</time></trkpt><trkpt lat="-24.43782961929174" lon="114.0004474230529"><ele>27.0</ele><time>2026-04-17T07:56:07Z</time></trkpt><trkpt lat="-24.437516671457505" lon="114.00052285054642"><ele>27.0</ele><time>2026-04-17T07:56:08Z</time></trkpt><trkpt lat="-24.437201479384406" lon="114.00058572540435"><ele>27.0</ele><time>2026-04-17T07:56:09Z</time></trkpt><trkpt lat="-24.436886866890887" lon="114.00064660464923"><ele>27.0</ele><time>2026-04-17T07:56:10Z</time></trkpt><trkpt lat="-24.436572726981446" lon="114.00070956267635"><ele>27.0</ele><time>2026-04-17T07:56:11Z</time></trkpt><trkpt lat="-24.436252994784436" lon="114.00077715892522"><ele>27.0</ele><time>2026-04-17T07:56:12Z</time></trkpt><trkpt lat="-24.435936447658555" lon="114.00084456204387"><ele>26.5</ele><time>2026-04-17T07:56:13Z</time></trkpt><trkpt lat="-24.435614315453208" lon="114.0009115708309"><ele>26.0</ele><time>2026-04-17T07:56:14Z</time></trkpt><trkpt lat="-24.435294069519248" lon="114.00097780950449"><ele>26.0</ele><time>2026-04-17T07:56:15Z</time></trkpt><trkpt lat="-24.434978501607898" lon="114.00104655448375"><ele>26.0</ele><time>2026-04-17T07:56:16Z</time></trkpt><trkpt lat="-24.434663482547855" lon="114.00111479452103"><ele>26.5</ele><time>2026-04-17T07:56:17Z</time></trkpt><trkpt lat="-24.434345338484473" lon="114.00118489492543"><ele>27.0</ele><time>2026-04-17T07:56:18Z</time></trkpt><trkpt lat="-24.434035593313727" lon="114.00125198163772"><ele>26.5</ele><time>2026-04-17T07:56:19Z</time></trkpt><trkpt lat="-24.43372465648608" lon="114.00131712398132"><ele>26.0</ele><time>2026-04-17T07:56:20Z</time></trkpt><trkpt lat="-24.433417227968228" lon="114.00138291088078"><ele>26.0</ele><time>2026-04-17T07:56:21Z</time></trkpt><trkpt lat="-24.43310790481354" lon="114.00144907381906"><ele>26.0</ele><time>2026-04-17T07:56:22Z</time></trkpt><trkpt lat="-24.432799370668008" lon="114.00151385583807"><ele>25.5</ele><time>2026-04-17T07:56:23Z</time></trkpt><trkpt lat="-24.432488010452005" lon="114.00157447432505"><ele>25.0</ele><time>2026-04-17T07:56:24Z</time></trkpt><trkpt lat="-24.43217397858579" lon="114.00163664539329"><ele>24.5</ele><time>2026-04-17T07:56:25Z</time></trkpt><trkpt lat="-24.43186158057549" lon="114.0017013504659"><ele>24.0</ele><time>2026-04-17T07:56:26Z</time></trkpt><trkpt lat="-24.43154740337071" lon="114.00176572791582"><ele>24.5</ele><time>2026-04-17T07:56:27Z</time></trkpt><trkpt lat="-24.431236659343256" lon="114.00183058545578"><ele>25.0</ele><time>2026-04-17T07:56:28Z</time></trkpt><trkpt lat="-24.430923602775064" lon="114.00189769847536"><ele>25.0</ele><time>2026-04-17T07:56:29Z</time></trkpt><trkpt lat="-24.430614150086758" lon="114.00196497086367"><ele>25.0</ele><time>2026-04-17T07:56:30Z</time></trkpt><trkpt lat="-24.430307859074013" lon="114.00202887623723"><ele>25.0</ele><time>2026-04-17T07:56:31Z</time></trkpt><trkpt lat="-24.430003544050308" lon="114.00209327287837"><ele>25.0</ele><time>2026-04-17T07:56:32Z</time></trkpt><trkpt lat="-24.429709564888988" lon="114.00215780275107"><ele>25.0</ele><time>2026-04-17T07:56:32.999Z</time></trkpt><trkpt lat="-24.42941507287152" lon="114.00222010678527"><ele>25.0</ele><time>2026-04-17T07:56:33.999Z</time></trkpt><trkpt lat="-24.4291245480892" lon="114.0022829690648"><ele>25.0</ele><time>2026-04-17T07:56:34.999Z</time></trkpt><trkpt lat="-24.42883584004953" lon="114.0023433678218"><ele>25.0</ele><time>2026-04-17T07:56:35.999Z</time></trkpt><trkpt lat="-24.42854753577913" lon="114.00240178632308"><ele>25.0</ele><time>2026-04-17T07:56:36.999Z</time></trkpt><trkpt lat="-24.42825810916925" lon="114.00246326885369"><ele>25.0</ele><time>2026-04-17T07:56:37.999Z</time></trkpt><trkpt lat="-24.427969252288104" lon="114.0025232059964"><ele>24.5</ele><time>2026-04-17T07:56:38.999Z</time></trkpt><trkpt lat="-24.427684164444464" lon="114.00258261000751"><ele>24.0</ele><time>2026-04-17T07:56:39.999Z</time></trkpt><trkpt lat="-24.427397839045838" lon="114.00264261292529"><ele>24.0</ele><time>2026-04-17T07:56:40.999Z</time></trkpt><trkpt lat="-24.427114365833635" lon="114.00270359488188"><ele>24.0</ele><time>2026-04-17T07:56:41.999Z</time></trkpt><trkpt lat="-24.426832454403293" lon="114.0027631855737"><ele>24.0</ele><time>2026-04-17T07:56:42.999Z</time></trkpt><trkpt lat="-24.426549354364415" lon="114.002824611796"><ele>24.0</ele><time>2026-04-17T07:56:43.999Z</time></trkpt><trkpt lat="-24.426269335174954" lon="114.00288716836405"><ele>24.5</ele><time>2026-04-17T07:56:44.999Z</time></trkpt><trkpt lat="-24.425993179220207" lon="114.00294865563536"><ele>25.0</ele><time>2026-04-17T07:56:45.999Z</time></trkpt><trkpt lat="-24.425711496063435" lon="114.0030076605516"><ele>25.0</ele><time>2026-04-17T07:56:46.999Z</time></trkpt><trkpt lat="-24.42543107487794" lon="114.00306373240795"><ele>25.0</ele><time>2026-04-17T07:56:47.999Z</time></trkpt><trkpt lat="-24.425148000940055" lon="114.00312071993075"><ele>25.0</ele><time>2026-04-17T07:56:48.999Z</time></trkpt><trkpt lat="-24.424866126762517" lon="114.00318065369942"><ele>25.0</ele><time>2026-04-17T07:56:49.999Z</time></trkpt><trkpt lat="-24.424581790451196" lon="114.00323867303689"><ele>25.0</ele><time>2026-04-17T07:56:50.999Z</time></trkpt><trkpt lat="-24.424292899856628" lon="114.0032982247439"><ele>25.0</ele><time>2026-04-17T07:56:51.999Z</time></trkpt><trkpt lat="-24.42400529460828" lon="114.0033552152548"><ele>24.0</ele><time>2026-04-17T07:56:52.999Z</time></trkpt><trkpt lat="-24.423722906900363" lon="114.00341303745867"><ele>23.0</ele><time>2026-04-17T07:56:53.999Z</time></trkpt><trkpt lat="-24.423439629975526" lon="114.00347612206625"><ele>23.0</ele><time>2026-04-17T07:56:54.999Z</time></trkpt><trkpt lat="-24.423156941373684" lon="114.00354068065413"><ele>23.0</ele><time>2026-04-17T07:56:55.999Z</time></trkpt><trkpt lat="-24.422872305129864" lon="114.0036037373169"><ele>23.5</ele><time>2026-04-17T07:56:56.999Z</time></trkpt><trkpt lat="-24.422584892707043" lon="114.00366420080407"><ele>24.0</ele><time>2026-04-17T07:56:57.999Z</time></trkpt><trkpt lat="-24.422295596801835" lon="114.0037249789327"><ele>25.5</ele><time>2026-04-17T07:56:58.999Z</time></trkpt><trkpt lat="-24.422004959584136" lon="114.00378753686255"><ele>27.0</ele><time>2026-04-17T07:56:59.999Z</time></trkpt><trkpt lat="-24.421708907331244" lon="114.00384884583868"><ele>27.0</ele><time>2026-04-17T07:57:00.999Z</time></trkpt><trkpt lat="-24.421416754121342" lon="114.00390961786161"><ele>27.0</ele><time>2026-04-17T07:57:01.999Z</time></trkpt><trkpt lat="-24.421122508556046" lon="114.00397226163044"><ele>26.5</ele><time>2026-04-17T07:57:02.999Z</time></trkpt><trkpt lat="-24.420829908468438" lon="114.00403455309494"><ele>26.0</ele><time>2026-04-17T07:57:03.999Z</time></trkpt><trkpt lat="-24.42053813299266" lon="114.00409862745856"><ele>26.0</ele><time>2026-04-17T07:57:04.999Z</time></trkpt><trkpt lat="-24.420244500710023" lon="114.00416090249745"><ele>26.0</ele><time>2026-04-17T07:57:05.999Z</time></trkpt><trkpt lat="-24.419947045911396" lon="114.00421991599015"><ele>25.5</ele><time>2026-04-17T07:57:07Z</time></trkpt><trkpt lat="-24.41964751899769" lon="114.00427849259147"><ele>25.0</ele><time>2026-04-17T07:57:08Z</time></trkpt><trkpt lat="-24.419347927233183" lon="114.00433869270958"><ele>25.0</ele><time>2026-04-17T07:57:09Z</time></trkpt><trkpt lat="-24.419050922866404" lon="114.00440111504889"><ele>25.0</ele><time>2026-04-17T07:57:10Z</time></trkpt><trkpt lat="-24.418756116570844" lon="114.00446685174475"><ele>25.0</ele><time>2026-04-17T07:57:11Z</time></trkpt><trkpt lat="-24.418462665051656" lon="114.00453149917612"><ele>25.0</ele><time>2026-04-17T07:57:12Z</time></trkpt><trkpt lat="-24.418168047771726" lon="114.0045945288006"><ele>24.5</ele><time>2026-04-17T07:57:13Z</time></trkpt><trkpt lat="-24.41788014086026" lon="114.00465472543938"><ele>24.0</ele><time>2026-04-17T07:57:14Z</time></trkpt><trkpt lat="-24.417590044177718" lon="114.00471450569474"><ele>24.0</ele><time>2026-04-17T07:57:15Z</time></trkpt><trkpt lat="-24.417301101629327" lon="114.00477356653698"><ele>24.0</ele><time>2026-04-17T07:57:16Z</time></trkpt><trkpt lat="-24.417012860018197" lon="114.004833510569"><ele>24.0</ele><time>2026-04-17T07:57:17Z</time></trkpt><trkpt lat="-24.41672638342326" lon="114.00489682308547"><ele>24.0</ele><time>2026-04-17T07:57:18Z</time></trkpt><trkpt lat="-24.41643788134189" lon="114.00496177917066"><ele>23.5</ele><time>2026-04-17T07:57:19Z</time></trkpt><trkpt lat="-24.41614368506422" lon="114.00502465981369"><ele>23.0</ele><time>2026-04-17T07:57:20Z</time></trkpt><trkpt lat="-24.415849198649553" lon="114.00508515328005"><ele>23.0</ele><time>2026-04-17T07:57:21Z</time></trkpt><trkpt lat="-24.41555514720679" lon="114.00514383020993"><ele>23.0</ele><time>2026-04-17T07:57:22Z</time></trkpt><trkpt lat="-24.415260408415342" lon="114.0052042184266"><ele>23.0</ele><time>2026-04-17T07:57:23Z</time></trkpt><trkpt lat="-24.414970456613794" lon="114.00526586980648"><ele>23.0</ele><time>2026-04-17T07:57:24Z</time></trkpt><trkpt lat="-24.414681369621967" lon="114.0053292099204"><ele>23.5</ele><time>2026-04-17T07:57:25Z</time></trkpt><trkpt lat="-24.4143957676125" lon="114.00539377831895"><ele>24.0</ele><time>2026-04-17T07:57:26Z</time></trkpt><trkpt lat="-24.41410952511829" lon="114.00545772456337"><ele>23.0</ele><time>2026-04-17T07:57:27Z</time></trkpt><trkpt lat="-24.41381912746483" lon="114.00552081136932"><ele>22.0</ele><time>2026-04-17T07:57:28Z</time></trkpt><trkpt lat="-24.413529753245992" lon="114.00558024780699"><ele>22.0</ele><time>2026-04-17T07:57:29Z</time></trkpt><trkpt lat="-24.413239548418456" lon="114.0056386216418"><ele>22.0</ele><time>2026-04-17T07:57:30Z</time></trkpt><trkpt lat="-24.412943109206193" lon="114.00569820190431"><ele>22.0</ele><time>2026-04-17T07:57:31Z</time></trkpt><trkpt lat="-24.412649733323068" lon="114.00576046828286"><ele>22.0</ele><time>2026-04-17T07:57:32Z</time></trkpt><trkpt lat="-24.41235483196923" lon="114.00582371591682"><ele>23.0</ele><time>2026-04-17T07:57:33Z</time></trkpt><trkpt lat="-24.412062533367816" lon="114.00588442262236"><ele>24.0</ele><time>2026-04-17T07:57:34Z</time></trkpt><trkpt lat="-24.411770047220273" lon="114.0059451808236"><ele>24.0</ele><time>2026-04-17T07:57:35Z</time></trkpt><trkpt lat="-24.411479882596996" lon="114.00600516726512"><ele>24.0</ele><time>2026-04-17T07:57:36Z</time></trkpt><trkpt lat="-24.411190934941192" lon="114.00606596372096"><ele>24.5</ele><time>2026-04-17T07:57:37Z</time></trkpt><trkpt lat="-24.410902193867162" lon="114.00612501610816"><ele>25.0</ele><time>2026-04-17T07:57:38Z</time></trkpt><trkpt lat="-24.410609977240963" lon="114.00618509099031"><ele>24.5</ele><time>2026-04-17T07:57:39Z</time></trkpt><trkpt lat="-24.41031644769292" lon="114.00624747069185"><ele>24.0</ele><time>2026-04-17T07:57:40Z</time></trkpt><trkpt lat="-24.410020112265318" lon="114.00631241665985"><ele>24.0</ele><time>2026-04-17T07:57:41Z</time></trkpt><trkpt lat="-24.40971982004846" lon="114.00637664193034"><ele>24.0</ele><time>2026-04-17T07:57:42Z</time></trkpt><trkpt lat="-24.409420831332376" lon="114.00643829233286"><ele>24.5</ele><time>2026-04-17T07:57:43Z</time></trkpt><trkpt lat="-24.409123737152214" lon="114.00650065453907"><ele>25.0</ele><time>2026-04-17T07:57:44Z</time></trkpt><trkpt lat="-24.408826405609695" lon="114.00656416302235"><ele>25.5</ele><time>2026-04-17T07:57:45Z</time></trkpt><trkpt lat="-24.40853615066834" lon="114.00662395869607"><ele>26.0</ele><time>2026-04-17T07:57:46Z</time></trkpt><trkpt lat="-24.408249785960788" lon="114.00668405110677"><ele>27.0</ele><time>2026-04-17T07:57:47Z</time></trkpt><trkpt lat="-24.407962989560172" lon="114.00674922832184"><ele>28.0</ele><time>2026-04-17T07:57:48Z</time></trkpt><trkpt lat="-24.40767713831058" lon="114.0068136916293"><ele>28.0</ele><time>2026-04-17T07:57:49Z</time></trkpt><trkpt lat="-24.407391631637818" lon="114.0068750496419"><ele>28.0</ele><time>2026-04-17T07:57:50Z</time></trkpt><trkpt lat="-24.40710400649476" lon="114.00693438231544"><ele>27.5</ele><time>2026-04-17T07:57:51Z</time></trkpt><trkpt lat="-24.406817167905267" lon="114.00699408713838"><ele>27.0</ele><time>2026-04-17T07:57:52Z</time></trkpt><trkpt lat="-24.406532622045297" lon="114.0070529528202"><ele>26.5</ele><time>2026-04-17T07:57:53Z</time></trkpt><trkpt lat="-24.406244874061436" lon="114.00711321295306"><ele>26.0</ele><time>2026-04-17T07:57:54Z</time></trkpt><trkpt lat="-24.40595652169286" lon="114.00717475613455"><ele>26.0</ele><time>2026-04-17T07:57:55Z</time></trkpt><trkpt lat="-24.405666888934892" lon="114.00723476134836"><ele>26.0</ele><time>2026-04-17T07:57:56Z</time></trkpt><trkpt lat="-24.405376247779028" lon="114.00729233496932"><ele>25.0</ele><time>2026-04-17T07:57:57Z</time></trkpt><trkpt lat="-24.405087348485992" lon="114.00735203060775"><ele>24.0</ele><time>2026-04-17T07:57:58Z</time></trkpt><trkpt lat="-24.404798647112294" lon="114.00741422015138"><ele>24.0</ele><time>2026-04-17T07:57:59Z</time></trkpt><trkpt lat="-24.40451027155533" lon="114.00747578135322"><ele>24.0</ele><time>2026-04-17T07:58:00Z</time></trkpt><trkpt lat="-24.40422265811081" lon="114.00753588974418"><ele>24.0</ele><time>2026-04-17T07:58:01Z</time></trkpt><trkpt lat="-24.403933893652454" lon="114.00759652705874"><ele>24.0</ele><time>2026-04-17T07:58:02Z</time></trkpt><trkpt lat="-24.40364528947982" lon="114.00765840423401"><ele>25.5</ele><time>2026-04-17T07:58:03Z</time></trkpt><trkpt lat="-24.403360340097564" lon="114.00772463302202"><ele>27.0</ele><time>2026-04-17T07:58:04Z</time></trkpt><trkpt lat="-24.403070324790665" lon="114.00778881718638"><ele>27.0</ele><time>2026-04-17T07:58:05Z</time></trkpt><trkpt lat="-24.402779245091903" lon="114.00785334007674"><ele>27.0</ele><time>2026-04-17T07:58:06Z</time></trkpt><trkpt lat="-24.402491014972377" lon="114.00791496609224"><ele>27.0</ele><time>2026-04-17T07:58:07Z</time></trkpt><trkpt lat="-24.4022170610951" lon="114.00796966752242"><ele>27.0</ele><time>2026-04-17T07:58:08Z</time></trkpt><trkpt lat="-24.40194325430746" lon="114.0080249589146"><ele>26.5</ele><time>2026-04-17T07:58:08.999Z</time></trkpt><trkpt lat="-24.40166370879871" lon="114.00808109589673"><ele>26.0</ele><time>2026-04-17T07:58:09.999Z</time></trkpt><trkpt lat="-24.401375374318903" lon="114.00814167448527"><ele>26.5</ele><time>2026-04-17T07:58:10.999Z</time></trkpt><trkpt lat="-24.40108537518055" lon="114.0082035627612"><ele>27.0</ele><time>2026-04-17T07:58:11.999Z</time></trkpt><trkpt lat="-24.40078864211169" lon="114.00826818379123"><ele>26.5</ele><time>2026-04-17T07:58:12.999Z</time></trkpt><trkpt lat="-24.400494472210365" lon="114.00833085806478"><ele>26.0</ele><time>2026-04-17T07:58:13.999Z</time></trkpt><trkpt lat="-24.400193400165865" lon="114.00839325627528"><ele>26.0</ele><time>2026-04-17T07:58:14.999Z</time></trkpt><trkpt lat="-24.399890344073416" lon="114.00845605945314"><ele>26.0</ele><time>2026-04-17T07:58:15.999Z</time></trkpt><trkpt lat="-24.399589370189577" lon="114.00852002018307"><ele>27.0</ele><time>2026-04-17T07:58:16.999Z</time></trkpt><trkpt lat="-24.399285620581313" lon="114.00858508758496"><ele>28.0</ele><time>2026-04-17T07:58:17.999Z</time></trkpt><trkpt lat="-24.398982023688983" lon="114.00864911830834"><ele>29.0</ele><time>2026-04-17T07:58:18.999Z</time></trkpt><trkpt lat="-24.398676711207294" lon="114.00871462488172"><ele>30.0</ele><time>2026-04-17T07:58:19.999Z</time></trkpt><trkpt lat="-24.398368135234083" lon="114.00877864859405"><ele>30.0</ele><time>2026-04-17T07:58:20.999Z</time></trkpt><trkpt lat="-24.398059137896432" lon="114.00884234701924"><ele>30.0</ele><time>2026-04-17T07:58:21.999Z</time></trkpt><trkpt lat="-24.397749397672467" lon="114.0089058152531"><ele>29.5</ele><time>2026-04-17T07:58:22.999Z</time></trkpt><trkpt lat="-24.397444141273493" lon="114.00896790502598"><ele>29.0</ele><time>2026-04-17T07:58:23.999Z</time></trkpt><trkpt lat="-24.397138232373646" lon="114.00902972140558"><ele>28.0</ele><time>2026-04-17T07:58:24.999Z</time></trkpt><trkpt lat="-24.396836150946328" lon="114.00909353570535"><ele>27.0</ele><time>2026-04-17T07:58:25.999Z</time></trkpt><trkpt lat="-24.396539291473864" lon="114.00916055955578"><ele>27.0</ele><time>2026-04-17T07:58:26.999Z</time></trkpt><trkpt lat="-24.396237991722074" lon="114.00922606943087"><ele>27.0</ele><time>2026-04-17T07:58:27.999Z</time></trkpt><trkpt lat="-24.395937782547023" lon="114.00928709691655"><ele>27.0</ele><time>2026-04-17T07:58:28.999Z</time></trkpt><trkpt lat="-24.3956371039806" lon="114.00934707894868"><ele>27.0</ele><time>2026-04-17T07:58:29.999Z</time></trkpt><trkpt lat="-24.395333706097485" lon="114.00940508838023"><ele>26.5</ele><time>2026-04-17T07:58:30.999Z</time></trkpt><trkpt lat="-24.39502996265933" lon="114.00946597609041"><ele>26.0</ele><time>2026-04-17T07:58:31.999Z</time></trkpt><trkpt lat="-24.39472626346699" lon="114.00953061602729"><ele>25.5</ele><time>2026-04-17T07:58:32.999Z</time></trkpt><trkpt lat="-24.394424054400464" lon="114.00959521243047"><ele>25.0</ele><time>2026-04-17T07:58:33.999Z</time></trkpt><trkpt lat="-24.3941238448769" lon="114.00966146032418"><ele>25.5</ele><time>2026-04-17T07:58:34.999Z</time></trkpt><trkpt lat="-24.393821590152747" lon="114.00972921138221"><ele>26.0</ele><time>2026-04-17T07:58:35.999Z</time></trkpt><trkpt lat="-24.393524235504408" lon="114.0097967277566"><ele>26.0</ele><time>2026-04-17T07:58:36.999Z</time></trkpt><trkpt lat="-24.39321979507781" lon="114.00986204168593"><ele>26.0</ele><time>2026-04-17T07:58:37.999Z</time></trkpt><trkpt lat="-24.392912260930412" lon="114.00992488389937"><ele>26.5</ele><time>2026-04-17T07:58:38.999Z</time></trkpt><trkpt lat="-24.392604396046313" lon="114.00998947383972"><ele>27.0</ele><time>2026-04-17T07:58:39.999Z</time></trkpt><trkpt lat="-24.39229715000378" lon="114.01005412129238"><ele>26.5</ele><time>2026-04-17T07:58:40.999Z</time></trkpt><trkpt lat="-24.391990112657993" lon="114.01011761316008"><ele>26.0</ele><time>2026-04-17T07:58:41.999Z</time></trkpt><trkpt lat="-24.39168363569515" lon="114.0101803570203"><ele>26.0</ele><time>2026-04-17T07:58:42.999Z</time></trkpt><trkpt lat="-24.391380832081673" lon="114.01024151897244"><ele>26.0</ele><time>2026-04-17T07:58:43.999Z</time></trkpt><trkpt lat="-24.3910770972183" lon="114.0103046456545"><ele>26.0</ele><time>2026-04-17T07:58:44.999Z</time></trkpt><trkpt lat="-24.390776366106163" lon="114.01037707669119"><ele>26.0</ele><time>2026-04-17T07:58:45.999Z</time></trkpt><trkpt lat="-24.390476087233118" lon="114.0104643745185"><ele>25.5</ele><time>2026-04-17T07:58:46.999Z</time></trkpt><trkpt lat="-24.39017707012981" lon="114.01056308897927"><ele>25.0</ele><time>2026-04-17T07:58:47.999Z</time></trkpt><trkpt lat="-24.389880350021752" lon="114.01067573913235"><ele>25.0</ele><time>2026-04-17T07:58:48.999Z</time></trkpt><trkpt lat="-24.389586196996007" lon="114.0107965012891"><ele>25.0</ele><time>2026-04-17T07:58:49.999Z</time></trkpt><trkpt lat="-24.38929767776842" lon="114.01092893029262"><ele>25.0</ele><time>2026-04-17T07:58:50.999Z</time></trkpt><trkpt lat="-24.38901572375462" lon="114.01108060416901"><ele>25.0</ele><time>2026-04-17T07:58:51.999Z</time></trkpt><trkpt lat="-24.38873691405041" lon="114.01124299523485"><ele>24.0</ele><time>2026-04-17T07:58:52.999Z</time></trkpt><trkpt lat="-24.38846152986488" lon="114.0114174583961"><ele>23.0</ele><time>2026-04-17T07:58:53.999Z</time></trkpt><trkpt lat="-24.388191081984626" lon="114.01160264995856"><ele>24.5</ele><time>2026-04-17T07:58:54.999Z</time></trkpt><trkpt lat="-24.387926574998797" lon="114.0117998764411"><ele>26.0</ele><time>2026-04-17T07:58:55.999Z</time></trkpt><trkpt lat="-24.387670025161633" lon="114.012008597842"><ele>26.0</ele><time>2026-04-17T07:58:56.999Z</time></trkpt><trkpt lat="-24.387423000395803" lon="114.01223123760934"><ele>26.0</ele><time>2026-04-17T07:58:57.999Z</time></trkpt><trkpt lat="-24.38718125565716" lon="114.01246093487826"><ele>26.0</ele><time>2026-04-17T07:58:58.999Z</time></trkpt><trkpt lat="-24.38694435208628" lon="114.01269298154706"><ele>26.0</ele><time>2026-04-17T07:58:59.999Z</time></trkpt><trkpt lat="-24.386713102895502" lon="114.01292961196965"><ele>26.0</ele><time>2026-04-17T07:59:00.999Z</time></trkpt><trkpt lat="-24.386486981860937" lon="114.01315968727722"><ele>26.0</ele><time>2026-04-17T07:59:01.999Z</time></trkpt><trkpt lat="-24.386261795576456" lon="114.01339009416692"><ele>27.0</ele><time>2026-04-17T07:59:02.999Z</time></trkpt><trkpt lat="-24.38603416748207" lon="114.01362056503837"><ele>28.0</ele><time>2026-04-17T07:59:03.999Z</time></trkpt><trkpt lat="-24.38580689434809" lon="114.01384849549329"><ele>28.0</ele><time>2026-04-17T07:59:04.999Z</time></trkpt><trkpt lat="-24.38557982660897" lon="114.01407404846202"><ele>28.0</ele><time>2026-04-17T07:59:05.999Z</time></trkpt><trkpt lat="-24.38535092746407" lon="114.01430150635625"><ele>27.5</ele><time>2026-04-17T07:59:06.999Z</time></trkpt><trkpt lat="-24.385119566487276" lon="114.0145305557533"><ele>27.0</ele><time>2026-04-17T07:59:07.999Z</time></trkpt><trkpt lat="-24.38488367155298" lon="114.01475921492779"><ele>27.5</ele><time>2026-04-17T07:59:08.999Z</time></trkpt><trkpt lat="-24.38465242050015" lon="114.01499073607363"><ele>28.0</ele><time>2026-04-17T07:59:09.999Z</time></trkpt><trkpt lat="-24.38441960278171" lon="114.01522686258834"><ele>28.0</ele><time>2026-04-17T07:59:10.999Z</time></trkpt><trkpt lat="-24.384181906738313" lon="114.01546341227737"><ele>28.0</ele><time>2026-04-17T07:59:11.999Z</time></trkpt><trkpt lat="-24.383944708018515" lon="114.01570021660727"><ele>27.5</ele><time>2026-04-17T07:59:13Z</time></trkpt><trkpt lat="-24.383707608891434" lon="114.01594052385208"><ele>27.0</ele><time>2026-04-17T07:59:14Z</time></trkpt><trkpt lat="-24.38346783159029" lon="114.01618275517036"><ele>27.0</ele><time>2026-04-17T07:59:15Z</time></trkpt><trkpt lat="-24.383226144638986" lon="114.0164249298833"><ele>27.0</ele><time>2026-04-17T07:59:16Z</time></trkpt><trkpt lat="-24.382983286552303" lon="114.01666316752991"><ele>25.0</ele><time>2026-04-17T07:59:17Z</time></trkpt><trkpt lat="-24.38273982213511" lon="114.01690391353252"><ele>23.0</ele><time>2026-04-17T07:59:18Z</time></trkpt><trkpt lat="-24.382495852134205" lon="114.01714314511163"><ele>23.0</ele><time>2026-04-17T07:59:19Z</time></trkpt><trkpt lat="-24.382253541134673" lon="114.01738056889978"><ele>23.0</ele><time>2026-04-17T07:59:20Z</time></trkpt><trkpt lat="-24.382014720057118" lon="114.01761945318003"><ele>25.0</ele><time>2026-04-17T07:59:21Z</time></trkpt><trkpt lat="-24.381778182173424" lon="114.01785560603216"><ele>27.0</ele><time>2026-04-17T07:59:22Z</time></trkpt><trkpt lat="-24.381542615974308" lon="114.01809070323154"><ele>27.0</ele><time>2026-04-17T07:59:23Z</time></trkpt><trkpt lat="-24.381305620784545" lon="114.01832836589378"><ele>27.0</ele><time>2026-04-17T07:59:24Z</time></trkpt><trkpt lat="-24.38106943643699" lon="114.01856337171976"><ele>27.0</ele><time>2026-04-17T07:59:25Z</time></trkpt><trkpt lat="-24.380833074468566" lon="114.0188003396694"><ele>27.0</ele><time>2026-04-17T07:59:26Z</time></trkpt><trkpt lat="-24.380596727447802" lon="114.019039407617"><ele>26.5</ele><time>2026-04-17T07:59:27Z</time></trkpt><trkpt lat="-24.380359460444755" lon="114.0192779946407"><ele>26.0</ele><time>2026-04-17T07:59:28Z</time></trkpt><trkpt lat="-24.380119839517995" lon="114.01951693197267"><ele>26.0</ele><time>2026-04-17T07:59:29Z</time></trkpt><trkpt lat="-24.379882972515762" lon="114.01975145690443"><ele>26.0</ele><time>2026-04-17T07:59:30Z</time></trkpt><trkpt lat="-24.379646495409986" lon="114.01998886620301"><ele>26.0</ele><time>2026-04-17T07:59:31Z</time></trkpt><trkpt lat="-24.37941032227321" lon="114.02022410990878"><ele>26.0</ele><time>2026-04-17T07:59:32Z</time></trkpt><trkpt lat="-24.37917006890984" lon="114.0204604762745"><ele>26.0</ele><time>2026-04-17T07:59:33Z</time></trkpt><trkpt lat="-24.378924740126166" lon="114.0207023670878"><ele>26.0</ele><time>2026-04-17T07:59:34Z</time></trkpt><trkpt lat="-24.37868078760707" lon="114.02094178912873"><ele>25.5</ele><time>2026-04-17T07:59:35Z</time></trkpt><trkpt lat="-24.378436238589963" lon="114.02118366639661"><ele>25.0</ele><time>2026-04-17T07:59:36Z</time></trkpt><trkpt lat="-24.37819348109186" lon="114.02142459981273"><ele>25.0</ele><time>2026-04-17T07:59:37Z</time></trkpt><trkpt lat="-24.37795482036559" lon="114.02166163346388"><ele>25.0</ele><time>2026-04-17T07:59:38Z</time></trkpt><trkpt lat="-24.37772059456613" lon="114.02190008810521"><ele>25.0</ele><time>2026-04-17T07:59:39Z</time></trkpt><trkpt lat="-24.377487939484276" lon="114.02213974590006"><ele>25.0</ele><time>2026-04-17T07:59:40Z</time></trkpt><trkpt lat="-24.377253770679772" lon="114.02237435501482"><ele>25.5</ele><time>2026-04-17T07:59:41Z</time></trkpt><trkpt lat="-24.377023375142105" lon="114.02260518645517"><ele>26.0</ele><time>2026-04-17T07:59:42Z</time></trkpt><trkpt lat="-24.376794235956215" lon="114.02283424959799"><ele>26.0</ele><time>2026-04-17T07:59:43Z</time></trkpt><trkpt lat="-24.3765653117666" lon="114.02306055424391"><ele>26.0</ele><time>2026-04-17T07:59:44Z</time></trkpt><trkpt lat="-24.376340093978904" lon="114.02328477767284"><ele>26.5</ele><time>2026-04-17T07:59:45Z</time></trkpt><trkpt lat="-24.37611349672254" lon="114.0235131194366"><ele>27.0</ele><time>2026-04-17T07:59:46Z</time></trkpt><trkpt lat="-24.375885561314277" lon="114.02373916678323"><ele>27.0</ele><time>2026-04-17T07:59:47Z</time></trkpt><trkpt lat="-24.37565444333612" lon="114.02395843145602"><ele>27.0</ele><time>2026-04-17T07:59:48Z</time></trkpt><trkpt lat="-24.37541764611284" lon="114.02417080231444"><ele>25.5</ele><time>2026-04-17T07:59:49Z</time></trkpt><trkpt lat="-24.375170658577034" lon="114.02437507004747"><ele>24.0</ele><time>2026-04-17T07:59:50Z</time></trkpt><trkpt lat="-24.37491228434281" lon="114.02456502833944"><ele>24.5</ele><time>2026-04-17T07:59:51Z</time></trkpt><trkpt lat="-24.374645779878485" lon="114.02474564087741"><ele>25.0</ele><time>2026-04-17T07:59:52Z</time></trkpt><trkpt lat="-24.37437473831526" lon="114.0249173589848"><ele>25.0</ele><time>2026-04-17T07:59:53Z</time></trkpt><trkpt lat="-24.374097226349015" lon="114.02507922220116"><ele>25.0</ele><time>2026-04-17T07:59:54Z</time></trkpt><trkpt lat="-24.373813875251575" lon="114.02522732039304"><ele>25.0</ele><time>2026-04-17T07:59:55Z</time></trkpt><trkpt lat="-24.373523917134595" lon="114.0253614327395"><ele>25.0</ele><time>2026-04-17T07:59:56Z</time></trkpt><trkpt lat="-24.37322846621641" lon="114.02548502412368"><ele>25.0</ele><time>2026-04-17T07:59:57Z</time></trkpt><trkpt lat="-24.37293197964615" lon="114.02559552666362"><ele>25.0</ele><time>2026-04-17T07:59:58Z</time></trkpt><trkpt lat="-24.372632780997378" lon="114.02569521981215"><ele>25.0</ele><time>2026-04-17T07:59:59Z</time></trkpt><trkpt lat="-24.372330772659886" lon="114.02578256795816"><ele>25.0</ele><time>2026-04-17T08:00:00Z</time></trkpt><trkpt lat="-24.372027683141095" lon="114.02585664213377"><ele>25.0</ele><time>2026-04-17T08:00:01Z</time></trkpt><trkpt lat="-24.371723051090473" lon="114.02592361386279"><ele>25.0</ele><time>2026-04-17T08:00:02Z</time></trkpt><trkpt lat="-24.371416279560933" lon="114.02597474442085"><ele>24.5</ele><time>2026-04-17T08:00:03Z</time></trkpt><trkpt lat="-24.371111087499727" lon="114.02601452837801"><ele>24.0</ele><time>2026-04-17T08:00:04Z</time></trkpt><trkpt lat="-24.370803954129972" lon="114.02604007458669"><ele>25.0</ele><time>2026-04-17T08:00:05Z</time></trkpt><trkpt lat="-24.37049552598583" lon="114.02605186207748"><ele>26.0</ele><time>2026-04-17T08:00:06Z</time></trkpt><trkpt lat="-24.370183188526703" lon="114.02605118996804"><ele>26.0</ele><time>2026-04-17T08:00:07Z</time></trkpt><trkpt lat="-24.369872457738097" lon="114.02603883799657"><ele>26.0</ele><time>2026-04-17T08:00:08Z</time></trkpt><trkpt lat="-24.369560525305356" lon="114.02602145418308"><ele>26.0</ele><time>2026-04-17T08:00:09Z</time></trkpt><trkpt lat="-24.36924860701199" lon="114.02600275787326"><ele>26.0</ele><time>2026-04-17T08:00:10Z</time></trkpt><trkpt lat="-24.36893755149747" lon="114.02598622186122"><ele>25.5</ele><time>2026-04-17T08:00:11Z</time></trkpt><trkpt lat="-24.368629958824165" lon="114.02597256260194"><ele>25.0</ele><time>2026-04-17T08:00:12Z</time></trkpt><trkpt lat="-24.36832386501051" lon="114.02595919099953"><ele>25.5</ele><time>2026-04-17T08:00:13Z</time></trkpt><trkpt lat="-24.368016428269904" lon="114.0259474037707"><ele>26.0</ele><time>2026-04-17T08:00:14Z</time></trkpt><trkpt lat="-24.36771177855482" lon="114.02593686205836"><ele>26.0</ele><time>2026-04-17T08:00:14.999Z</time></trkpt><trkpt lat="-24.367407366610063" lon="114.02592370413967"><ele>26.0</ele><time>2026-04-17T08:00:15.999Z</time></trkpt><trkpt lat="-24.367103951233865" lon="114.02591044780192"><ele>25.0</ele><time>2026-04-17T08:00:16.999Z</time></trkpt><trkpt lat="-24.366807115268013" lon="114.02589964247066"><ele>24.0</ele><time>2026-04-17T08:00:17.999Z</time></trkpt><trkpt lat="-24.36651086925328" lon="114.02588846420566"><ele>24.0</ele><time>2026-04-17T08:00:18.999Z</time></trkpt><trkpt lat="-24.36621314858475" lon="114.02587495014197"><ele>24.0</ele><time>2026-04-17T08:00:19.999Z</time></trkpt><trkpt lat="-24.365919540193637" lon="114.02586148514676"><ele>24.0</ele><time>2026-04-17T08:00:20.999Z</time></trkpt><trkpt lat="-24.365629719410162" lon="114.02584875950998"><ele>24.0</ele><time>2026-04-17T08:00:21.999Z</time></trkpt><trkpt lat="-24.365341045761436" lon="114.02584145291614"><ele>25.0</ele><time>2026-04-17T08:00:22.999Z</time></trkpt><trkpt lat="-24.36505467082586" lon="114.02583349812528"><ele>26.0</ele><time>2026-04-17T08:00:23.999Z</time></trkpt><trkpt lat="-24.364770015961955" lon="114.0258231169914"><ele>25.5</ele><time>2026-04-17T08:00:24.999Z</time></trkpt><trkpt lat="-24.36448804525448" lon="114.02581389361426"><ele>25.0</ele><time>2026-04-17T08:00:25.999Z</time></trkpt><trkpt lat="-24.364208401618335" lon="114.0258027935803"><ele>26.0</ele><time>2026-04-17T08:00:26.999Z</time></trkpt><trkpt lat="-24.363931660885275" lon="114.02579000189445"><ele>27.0</ele><time>2026-04-17T08:00:27.999Z</time></trkpt><trkpt lat="-24.363654343825807" lon="114.02577532954335"><ele>27.0</ele><time>2026-04-17T08:00:28.999Z</time></trkpt><trkpt lat="-24.363377025702242" lon="114.02576168099763"><ele>27.0</ele><time>2026-04-17T08:00:29.999Z</time></trkpt><trkpt lat="-24.3630979473725" lon="114.0257462887064"><ele>28.0</ele><time>2026-04-17T08:00:30.999Z</time></trkpt><trkpt lat="-24.36282003943659" lon="114.02573268965737"><ele>29.0</ele><time>2026-04-17T08:00:31.999Z</time></trkpt><trkpt lat="-24.36254582592145" lon="114.02571949457418"><ele>29.0</ele><time>2026-04-17T08:00:32.999Z</time></trkpt><trkpt lat="-24.362271150372685" lon="114.02570269735891"><ele>29.0</ele><time>2026-04-17T08:00:33.999Z</time></trkpt><trkpt lat="-24.361994616182287" lon="114.0256755699954"><ele>29.5</ele><time>2026-04-17T08:00:34.999Z</time></trkpt><trkpt lat="-24.361721861659355" lon="114.02564148450757"><ele>30.0</ele><time>2026-04-17T08:00:35.999Z</time></trkpt><trkpt lat="-24.361449973905497" lon="114.02559825891991"><ele>29.0</ele><time>2026-04-17T08:00:36.999Z</time></trkpt><trkpt lat="-24.361179690682246" lon="114.02554005771971"><ele>28.0</ele><time>2026-04-17T08:00:37.999Z</time></trkpt><trkpt lat="-24.360908525400813" lon="114.0254735609756"><ele>28.0</ele><time>2026-04-17T08:00:38.999Z</time></trkpt><trkpt lat="-24.36064133465772" lon="114.02540256375111"><ele>28.0</ele><time>2026-04-17T08:00:39.999Z</time></trkpt><trkpt lat="-24.360372873193196" lon="114.0253284875226"><ele>27.5</ele><time>2026-04-17T08:00:40.999Z</time></trkpt><trkpt lat="-24.360105423990888" lon="114.0252565927338"><ele>27.0</ele><time>2026-04-17T08:00:41.999Z</time></trkpt><trkpt lat="-24.359836899089263" lon="114.02518637011975"><ele>26.0</ele><time>2026-04-17T08:00:42.999Z</time></trkpt><trkpt lat="-24.359566798303167" lon="114.02511730732907"><ele>25.0</ele><time>2026-04-17T08:00:43.999Z</time></trkpt><trkpt lat="-24.35929776123265" lon="114.02504883561201"><ele>26.5</ele><time>2026-04-17T08:00:44.999Z</time></trkpt><trkpt lat="-24.359030620929726" lon="114.02497885164107"><ele>28.0</ele><time>2026-04-17T08:00:45.999Z</time></trkpt><trkpt lat="-24.358508183184338" lon="114.02484280939062"><ele>28.0</ele><time>2026-04-17T08:00:47.999Z</time></trkpt><trkpt lat="-24.358250152826734" lon="114.02477598790442"><ele>28.0</ele><time>2026-04-17T08:00:48.999Z</time></trkpt><trkpt lat="-24.357985999353847" lon="114.0247113848405"><ele>27.0</ele><time>2026-04-17T08:00:49.999Z</time></trkpt><trkpt lat="-24.357720915642794" lon="114.02464463035206"><ele>26.0</ele><time>2026-04-17T08:00:50.999Z</time></trkpt><trkpt lat="-24.357450980473857" lon="114.0245753613852"><ele>25.0</ele><time>2026-04-17T08:00:51.999Z</time></trkpt><trkpt lat="-24.357181218374283" lon="114.02450950003288"><ele>24.0</ele><time>2026-04-17T08:00:52.999Z</time></trkpt><trkpt lat="-24.35691196689183" lon="114.02443939043356"><ele>24.0</ele><time>2026-04-17T08:00:53.999Z</time></trkpt><trkpt lat="-24.356639897112345" lon="114.02437147621266"><ele>24.0</ele><time>2026-04-17T08:00:54.999Z</time></trkpt><trkpt lat="-24.356363923554916" lon="114.02430548220104"><ele>24.0</ele><time>2026-04-17T08:00:55.999Z</time></trkpt><trkpt lat="-24.356085191956147" lon="114.02424291770954"><ele>24.0</ele><time>2026-04-17T08:00:56.999Z</time></trkpt><trkpt lat="-24.35580315879613" lon="114.02419105026068"><ele>24.0</ele><time>2026-04-17T08:00:57.999Z</time></trkpt><trkpt lat="-24.355517536150767" lon="114.0241492447087"><ele>24.0</ele><time>2026-04-17T08:00:58.999Z</time></trkpt><trkpt lat="-24.35522388064303" lon="114.02411302863086"><ele>25.0</ele><time>2026-04-17T08:00:59.999Z</time></trkpt><trkpt lat="-24.35492946352436" lon="114.02407797048832"><ele>26.0</ele><time>2026-04-17T08:01:00.999Z</time></trkpt><trkpt lat="-24.354636055768115" lon="114.02404147622975"><ele>26.5</ele><time>2026-04-17T08:01:01.999Z</time></trkpt><trkpt lat="-24.35434393600686" lon="114.02400692275485"><ele>27.0</ele><time>2026-04-17T08:01:02.999Z</time></trkpt><trkpt lat="-24.354050521391812" lon="114.02397064747802"><ele>25.5</ele><time>2026-04-17T08:01:03.999Z</time></trkpt><trkpt lat="-24.353755916897533" lon="114.02393292838642"><ele>24.0</ele><time>2026-04-17T08:01:04.999Z</time></trkpt><trkpt lat="-24.3534639286619" lon="114.02389441534238"><ele>24.0</ele><time>2026-04-17T08:01:05.999Z</time></trkpt><trkpt lat="-24.353171792081824" lon="114.02385483278249"><ele>24.0</ele><time>2026-04-17T08:01:06.999Z</time></trkpt><trkpt lat="-24.352883692961566" lon="114.02381327842305"><ele>24.0</ele><time>2026-04-17T08:01:07.999Z</time></trkpt><trkpt lat="-24.352589617066368" lon="114.02377321650552"><ele>24.0</ele><time>2026-04-17T08:01:08.999Z</time></trkpt><trkpt lat="-24.352298779510797" lon="114.0237365173288"><ele>24.0</ele><time>2026-04-17T08:01:09.999Z</time></trkpt><trkpt lat="-24.3520038985173" lon="114.02369692596635"><ele>24.0</ele><time>2026-04-17T08:01:10.999Z</time></trkpt><trkpt lat="-24.351707189979997" lon="114.02365899323328"><ele>24.0</ele><time>2026-04-17T08:01:11.999Z</time></trkpt><trkpt lat="-24.35141154846036" lon="114.02361998410612"><ele>24.0</ele><time>2026-04-17T08:01:12.999Z</time></trkpt><trkpt lat="-24.351114076639387" lon="114.02358154929524"><ele>24.0</ele><time>2026-04-17T08:01:13.999Z</time></trkpt><trkpt lat="-24.350817936013453" lon="114.02354335500348"><ele>24.0</ele><time>2026-04-17T08:01:14.999Z</time></trkpt><trkpt lat="-24.350521796643807" lon="114.02350387277947"><ele>24.0</ele><time>2026-04-17T08:01:15.999Z</time></trkpt><trkpt lat="-24.35023146051591" lon="114.02345742976043"><ele>24.0</ele><time>2026-04-17T08:01:16.999Z</time></trkpt><trkpt lat="-24.34994731657981" lon="114.02341100214772"><ele>23.5</ele><time>2026-04-17T08:01:18Z</time></trkpt><trkpt lat="-24.34966649147405" lon="114.02337087786945"><ele>23.0</ele><time>2026-04-17T08:01:19Z</time></trkpt><trkpt lat="-24.349383742279493" lon="114.02333182767477"><ele>23.5</ele><time>2026-04-17T08:01:20Z</time></trkpt><trkpt lat="-24.34910237477522" lon="114.02329352239757"><ele>24.0</ele><time>2026-04-17T08:01:21Z</time></trkpt><trkpt lat="-24.348821468288286" lon="114.02325591094535"><ele>24.5</ele><time>2026-04-17T08:01:22Z</time></trkpt><trkpt lat="-24.348543212799434" lon="114.02321922745749"><ele>25.0</ele><time>2026-04-17T08:01:23Z</time></trkpt><trkpt lat="-24.34826500013721" lon="114.02318439040734"><ele>25.0</ele><time>2026-04-17T08:01:24Z</time></trkpt><trkpt lat="-24.347987939933653" lon="114.02314910379586"><ele>25.0</ele><time>2026-04-17T08:01:25Z</time></trkpt><trkpt lat="-24.347714483791076" lon="114.02311348349669"><ele>25.0</ele><time>2026-04-17T08:01:26Z</time></trkpt><trkpt lat="-24.347441250027654" lon="114.02307892555072"><ele>25.0</ele><time>2026-04-17T08:01:27Z</time></trkpt><trkpt lat="-24.34717101868327" lon="114.0230431776406"><ele>25.0</ele><time>2026-04-17T08:01:28Z</time></trkpt><trkpt lat="-24.346900196642977" lon="114.02300618882018"><ele>25.0</ele><time>2026-04-17T08:01:29Z</time></trkpt><trkpt lat="-24.346629512791772" lon="114.02296739443022"><ele>24.5</ele><time>2026-04-17T08:01:30Z</time></trkpt><trkpt lat="-24.346358383936657" lon="114.02293055979216"><ele>24.0</ele><time>2026-04-17T08:01:31Z</time></trkpt><trkpt lat="-24.346088485709142" lon="114.0228922168038"><ele>24.0</ele><time>2026-04-17T08:01:32Z</time></trkpt><trkpt lat="-24.345815861120677" lon="114.02285338160219"><ele>24.0</ele><time>2026-04-17T08:01:33Z</time></trkpt><trkpt lat="-24.34554041822012" lon="114.02281908396982"><ele>24.0</ele><time>2026-04-17T08:01:34Z</time></trkpt><trkpt lat="-24.345263230894954" lon="114.02278925455695"><ele>24.0</ele><time>2026-04-17T08:01:35Z</time></trkpt><trkpt lat="-24.3449851935485" lon="114.02276119071298"><ele>24.5</ele><time>2026-04-17T08:01:36Z</time></trkpt><trkpt lat="-24.34470698941649" lon="114.02274124296935"><ele>25.0</ele><time>2026-04-17T08:01:37Z</time></trkpt><trkpt lat="-24.344426591382778" lon="114.02273556861662"><ele>25.0</ele><time>2026-04-17T08:01:38Z</time></trkpt><trkpt lat="-24.34414449714012" lon="114.02274050773023"><ele>25.0</ele><time>2026-04-17T08:01:39Z</time></trkpt><trkpt lat="-24.34385818617406" lon="114.02275637749011"><ele>25.0</ele><time>2026-04-17T08:01:40Z</time></trkpt><trkpt lat="-24.34357384582588" lon="114.02277899645196"><ele>25.0</ele><time>2026-04-17T08:01:40.999Z</time></trkpt><trkpt lat="-24.343285088838226" lon="114.02281374366211"><ele>25.0</ele><time>2026-04-17T08:01:41.999Z</time></trkpt><trkpt lat="-24.343000218607482" lon="114.02286003214842"><ele>25.0</ele><time>2026-04-17T08:01:42.999Z</time></trkpt><trkpt lat="-24.342714406700885" lon="114.02292124633277"><ele>25.0</ele><time>2026-04-17T08:01:43.999Z</time></trkpt><trkpt lat="-24.34242997193845" lon="114.0229949341727"><ele>25.0</ele><time>2026-04-17T08:01:44.999Z</time></trkpt><trkpt lat="-24.342147751887413" lon="114.02308042645674"><ele>25.0</ele><time>2026-04-17T08:01:45.999Z</time></trkpt><trkpt lat="-24.341865394683403" lon="114.02317263311792"><ele>25.0</ele><time>2026-04-17T08:01:46.999Z</time></trkpt><trkpt lat="-24.341584966799388" lon="114.02327636921578"><ele>23.0</ele><time>2026-04-17T08:01:47.999Z</time></trkpt><trkpt lat="-24.341308998594076" lon="114.02338676249772"><ele>21.0</ele><time>2026-04-17T08:01:48.999Z</time></trkpt><trkpt lat="-24.341035871010774" lon="114.02350958377377"><ele>21.0</ele><time>2026-04-17T08:01:49.999Z</time></trkpt><trkpt lat="-24.340766289082495" lon="114.02363986302976"><ele>21.0</ele><time>2026-04-17T08:01:50.999Z</time></trkpt><trkpt lat="-24.34050185900772" lon="114.02377970234997"><ele>22.0</ele><time>2026-04-17T08:01:51.999Z</time></trkpt><trkpt lat="-24.340243589091536" lon="114.02393104038312"><ele>23.0</ele><time>2026-04-17T08:01:52.999Z</time></trkpt><trkpt lat="-24.339988106255355" lon="114.02408729731528"><ele>22.0</ele><time>2026-04-17T08:01:53.999Z</time></trkpt><trkpt lat="-24.339733135535372" lon="114.02424669382778"><ele>21.0</ele><time>2026-04-17T08:01:54.999Z</time></trkpt><trkpt lat="-24.339476922100978" lon="114.0244029638793"><ele>20.5</ele><time>2026-04-17T08:01:55.999Z</time></trkpt><trkpt lat="-24.33921751099868" lon="114.02455871408783"><ele>20.0</ele><time>2026-04-17T08:01:56.999Z</time></trkpt><trkpt lat="-24.338961718910717" lon="114.0247120314698"><ele>20.0</ele><time>2026-04-17T08:01:57.999Z</time></trkpt><trkpt lat="-24.338702937829982" lon="114.02486518581429"><ele>20.0</ele><time>2026-04-17T08:01:58.999Z</time></trkpt><trkpt lat="-24.338445601373678" lon="114.02501779338758"><ele>20.5</ele><time>2026-04-17T08:01:59.999Z</time></trkpt><trkpt lat="-24.338184393322702" lon="114.02517126667608"><ele>21.0</ele><time>2026-04-17T08:02:00.999Z</time></trkpt><trkpt lat="-24.337924885560852" lon="114.02532312061197"><ele>21.5</ele><time>2026-04-17T08:02:01.999Z</time></trkpt><trkpt lat="-24.33766201402733" lon="114.0254763015107"><ele>22.0</ele><time>2026-04-17T08:02:02.999Z</time></trkpt><trkpt lat="-24.337399200801162" lon="114.02563238173639"><ele>22.0</ele><time>2026-04-17T08:02:03.999Z</time></trkpt><trkpt lat="-24.33713860188538" lon="114.02578944136725"><ele>22.0</ele><time>2026-04-17T08:02:04.999Z</time></trkpt><trkpt lat="-24.336876963216202" lon="114.02594770607763"><ele>21.0</ele><time>2026-04-17T08:02:05.999Z</time></trkpt><trkpt lat="-24.33661726690554" lon="114.02610615131204"><ele>20.0</ele><time>2026-04-17T08:02:06.999Z</time></trkpt><trkpt lat="-24.336359524368447" lon="114.02626213279477"><ele>20.0</ele><time>2026-04-17T08:02:07.999Z</time></trkpt><trkpt lat="-24.336102866216024" lon="114.02641821790198"><ele>20.0</ele><time>2026-04-17T08:02:08.999Z</time></trkpt><trkpt lat="-24.335844281015497" lon="114.0265763796459"><ele>20.0</ele><time>2026-04-17T08:02:09.999Z</time></trkpt><trkpt lat="-24.3355818958276" lon="114.02673358201136"><ele>20.0</ele><time>2026-04-17T08:02:10.999Z</time></trkpt><trkpt lat="-24.335319206534695" lon="114.02689095053957"><ele>20.0</ele><time>2026-04-17T08:02:11.999Z</time></trkpt><trkpt lat="-24.335060002692842" lon="114.02704349156679"><ele>20.0</ele><time>2026-04-17T08:02:12.999Z</time></trkpt><trkpt lat="-24.334797913778633" lon="114.02719662919792"><ele>20.0</ele><time>2026-04-17T08:02:13.999Z</time></trkpt><trkpt lat="-24.334538066351453" lon="114.02735154968121"><ele>20.0</ele><time>2026-04-17T08:02:14.999Z</time></trkpt><trkpt lat="-24.334279122535882" lon="114.02750768966352"><ele>21.5</ele><time>2026-04-17T08:02:15.999Z</time></trkpt><trkpt lat="-24.3340177163375" lon="114.02766724038997"><ele>23.0</ele><time>2026-04-17T08:02:16.999Z</time></trkpt><trkpt lat="-24.333753270472954" lon="114.02782616949257"><ele>23.5</ele><time>2026-04-17T08:02:17.999Z</time></trkpt><trkpt lat="-24.333492129263245" lon="114.02798049089658"><ele>24.0</ele><time>2026-04-17T08:02:18.999Z</time></trkpt><trkpt lat="-24.333231574354738" lon="114.02813472955484"><ele>24.0</ele><time>2026-04-17T08:02:19.999Z</time></trkpt><trkpt lat="-24.332972138917526" lon="114.02829016875057"><ele>24.0</ele><time>2026-04-17T08:02:20.999Z</time></trkpt><trkpt lat="-24.33270820578287" lon="114.02844467098964"><ele>24.0</ele><time>2026-04-17T08:02:21.999Z</time></trkpt><trkpt lat="-24.33244166939958" lon="114.02859902759269"><ele>24.0</ele><time>2026-04-17T08:02:22.999Z</time></trkpt><trkpt lat="-24.3321762393998" lon="114.02875649204707"><ele>24.0</ele><time>2026-04-17T08:02:23.999Z</time></trkpt><trkpt lat="-24.331912944051364" lon="114.02891558747866"><ele>24.0</ele><time>2026-04-17T08:02:24.999Z</time></trkpt><trkpt lat="-24.331649597538117" lon="114.02907184853576"><ele>23.5</ele><time>2026-04-17T08:02:25.999Z</time></trkpt><trkpt lat="-24.33138743585281" lon="114.02922489637166"><ele>23.0</ele><time>2026-04-17T08:02:26.999Z</time></trkpt><trkpt lat="-24.331125776216144" lon="114.02937532053934"><ele>23.0</ele><time>2026-04-17T08:02:27.999Z</time></trkpt><trkpt lat="-24.330864199837237" lon="114.02952985472972"><ele>23.0</ele><time>2026-04-17T08:02:28.999Z</time></trkpt><trkpt lat="-24.33060349513679" lon="114.02968584240887"><ele>22.5</ele><time>2026-04-17T08:02:29.999Z</time></trkpt><trkpt lat="-24.33033772736061" lon="114.02984777536636"><ele>22.0</ele><time>2026-04-17T08:02:30.999Z</time></trkpt><trkpt lat="-24.330074177687276" lon="114.03000881805346"><ele>22.5</ele><time>2026-04-17T08:02:31.999Z</time></trkpt><trkpt lat="-24.32980804787546" lon="114.0301695627181"><ele>23.0</ele><time>2026-04-17T08:02:32.999Z</time></trkpt><trkpt lat="-24.329542636116425" lon="114.03032609230364"><ele>23.0</ele><time>2026-04-17T08:02:33.999Z</time></trkpt><trkpt lat="-24.329276577409196" lon="114.03048229166473"><ele>23.0</ele><time>2026-04-17T08:02:34.999Z</time></trkpt><trkpt lat="-24.32901048873519" lon="114.03064108777764"><ele>22.0</ele><time>2026-04-17T08:02:35.999Z</time></trkpt><trkpt lat="-24.328740165543856" lon="114.03080108258307"><ele>21.0</ele><time>2026-04-17T08:02:36.999Z</time></trkpt><trkpt lat="-24.328469128714882" lon="114.03096174168694"><ele>21.0</ele><time>2026-04-17T08:02:37.999Z</time></trkpt><trkpt lat="-24.32820042675956" lon="114.03112200826392"><ele>21.0</ele><time>2026-04-17T08:02:38.999Z</time></trkpt><trkpt lat="-24.32793262503195" lon="114.03127950515687"><ele>21.0</ele><time>2026-04-17T08:02:39.999Z</time></trkpt><trkpt lat="-24.327667719143268" lon="114.03143649874079"><ele>21.0</ele><time>2026-04-17T08:02:40.999Z</time></trkpt><trkpt lat="-24.327405939572103" lon="114.03158892950144"><ele>20.5</ele><time>2026-04-17T08:02:41.999Z</time></trkpt><trkpt lat="-24.327146386000955" lon="114.03174064713728"><ele>20.0</ele><time>2026-04-17T08:02:42.999Z</time></trkpt><trkpt lat="-24.326893258773843" lon="114.03189063670816"><ele>20.0</ele><time>2026-04-17T08:02:43.999Z</time></trkpt><trkpt lat="-24.326639839747077" lon="114.03203874963484"><ele>20.0</ele><time>2026-04-17T08:02:44.999Z</time></trkpt><trkpt lat="-24.326389960125347" lon="114.0321846979336"><ele>20.5</ele><time>2026-04-17T08:02:45.999Z</time></trkpt><trkpt lat="-24.32614187748528" lon="114.03233271766663"><ele>21.0</ele><time>2026-04-17T08:02:46.999Z</time></trkpt><trkpt lat="-24.32589336747796" lon="114.03248032325034"><ele>21.0</ele><time>2026-04-17T08:02:47.999Z</time></trkpt><trkpt lat="-24.325648822395824" lon="114.03262336311147"><ele>21.0</ele><time>2026-04-17T08:02:48.999Z</time></trkpt><trkpt lat="-24.32540617883388" lon="114.03276649264058"><ele>21.5</ele><time>2026-04-17T08:02:49.999Z</time></trkpt><trkpt lat="-24.32516174775233" lon="114.03290993715423"><ele>22.0</ele><time>2026-04-17T08:02:50.999Z</time></trkpt><trkpt lat="-24.32491337174269" lon="114.03305466239526"><ele>22.0</ele><time>2026-04-17T08:02:51.999Z</time></trkpt><trkpt lat="-24.32466120534617" lon="114.03319935762458"><ele>22.0</ele><time>2026-04-17T08:02:52.999Z</time></trkpt><trkpt lat="-24.324406922321007" lon="114.03334951545814"><ele>22.5</ele><time>2026-04-17T08:02:53.999Z</time></trkpt><trkpt lat="-24.32415161015422" lon="114.03350380212187"><ele>23.0</ele><time>2026-04-17T08:02:54.999Z</time></trkpt><trkpt lat="-24.323896123704785" lon="114.03365745800119"><ele>23.0</ele><time>2026-04-17T08:02:55.999Z</time></trkpt><trkpt lat="-24.323638026985037" lon="114.03381199311836"><ele>23.0</ele><time>2026-04-17T08:02:56.999Z</time></trkpt><trkpt lat="-24.323376880849445" lon="114.03396400253483"><ele>23.0</ele><time>2026-04-17T08:02:57.999Z</time></trkpt><trkpt lat="-24.32311355122089" lon="114.03411853744275"><ele>23.0</ele><time>2026-04-17T08:02:58.999Z</time></trkpt><trkpt lat="-24.322848347642196" lon="114.03427094798973"><ele>24.0</ele><time>2026-04-17T08:02:59.999Z</time></trkpt><trkpt lat="-24.32258718965792" lon="114.03442115185264"><ele>25.0</ele><time>2026-04-17T08:03:00.999Z</time></trkpt><trkpt lat="-24.322316477281788" lon="114.03457650803705"><ele>24.5</ele><time>2026-04-17T08:03:01.999Z</time></trkpt><trkpt lat="-24.322049560621476" lon="114.03473230500593"><ele>24.0</ele><time>2026-04-17T08:03:02.999Z</time></trkpt><trkpt lat="-24.321786115321938" lon="114.0348881538504"><ele>24.0</ele><time>2026-04-17T08:03:03.999Z</time></trkpt><trkpt lat="-24.321528107937915" lon="114.03504174458018"><ele>24.0</ele><time>2026-04-17T08:03:04.999Z</time></trkpt><trkpt lat="-24.321273359079893" lon="114.03519147851053"><ele>24.0</ele><time>2026-04-17T08:03:05.999Z</time></trkpt><trkpt lat="-24.32101717778397" lon="114.03533730378612"><ele>24.0</ele><time>2026-04-17T08:03:06.999Z</time></trkpt><trkpt lat="-24.320760915690588" lon="114.03548466682935"><ele>25.0</ele><time>2026-04-17T08:03:07.999Z</time></trkpt><trkpt lat="-24.320509311354428" lon="114.03563352093116"><ele>26.0</ele><time>2026-04-17T08:03:08.999Z</time></trkpt><trkpt lat="-24.32025775292109" lon="114.03578354837212"><ele>25.5</ele><time>2026-04-17T08:03:09.999Z</time></trkpt><trkpt lat="-24.320003190253612" lon="114.03593382544243"><ele>25.0</ele><time>2026-04-17T08:03:10.999Z</time></trkpt><trkpt lat="-24.31974819867022" lon="114.03608256239215"><ele>24.5</ele><time>2026-04-17T08:03:11.999Z</time></trkpt><trkpt lat="-24.319490661614523" lon="114.0362325560209"><ele>24.0</ele><time>2026-04-17T08:03:12.999Z</time></trkpt><trkpt lat="-24.31923186767456" lon="114.03638273215205"><ele>24.0</ele><time>2026-04-17T08:03:13.999Z</time></trkpt><trkpt lat="-24.3189698920117" lon="114.03653418389693"><ele>24.0</ele><time>2026-04-17T08:03:14.999Z</time></trkpt><trkpt lat="-24.318709352325904" lon="114.03668682470216"><ele>24.5</ele><time>2026-04-17T08:03:15.999Z</time></trkpt><trkpt lat="-24.318451184017754" lon="114.03683631326223"><ele>25.0</ele><time>2026-04-17T08:03:16.999Z</time></trkpt><trkpt lat="-24.318194960663796" lon="114.03698298603086"><ele>24.0</ele><time>2026-04-17T08:03:17.999Z</time></trkpt><trkpt lat="-24.31793799935294" lon="114.03713076845428"><ele>23.0</ele><time>2026-04-17T08:03:18.999Z</time></trkpt><trkpt lat="-24.317682440030975" lon="114.0372802516363"><ele>23.0</ele><time>2026-04-17T08:03:19.999Z</time></trkpt><trkpt lat="-24.317430643596666" lon="114.03743093038122"><ele>23.0</ele><time>2026-04-17T08:03:20.999Z</time></trkpt><trkpt lat="-24.31718118503357" lon="114.03758084130575"><ele>23.0</ele><time>2026-04-17T08:03:21.999Z</time></trkpt><trkpt lat="-24.316931134299793" lon="114.0377295062933"><ele>23.0</ele><time>2026-04-17T08:03:22.999Z</time></trkpt><trkpt lat="-24.31668138461801" lon="114.03787748534207"><ele>23.0</ele><time>2026-04-17T08:03:23.999Z</time></trkpt><trkpt lat="-24.31643089151941" lon="114.03802437086081"><ele>23.0</ele><time>2026-04-17T08:03:24.999Z</time></trkpt><trkpt lat="-24.316175975974694" lon="114.03817108606864"><ele>24.0</ele><time>2026-04-17T08:03:25.999Z</time></trkpt><trkpt lat="-24.3159215372114" lon="114.03832087486884"><ele>25.0</ele><time>2026-04-17T08:03:26.999Z</time></trkpt><trkpt lat="-24.315667173252976" lon="114.03847271790184"><ele>25.0</ele><time>2026-04-17T08:03:27.999Z</time></trkpt><trkpt lat="-24.31541252000154" lon="114.03862227630523"><ele>25.0</ele><time>2026-04-17T08:03:28.999Z</time></trkpt><trkpt lat="-24.315153300594297" lon="114.03877269585412"><ele>25.0</ele><time>2026-04-17T08:03:29.999Z</time></trkpt><trkpt lat="-24.314894391168973" lon="114.0389213386027"><ele>25.0</ele><time>2026-04-17T08:03:30.999Z</time></trkpt><trkpt lat="-24.314638911874237" lon="114.0390714416359"><ele>24.5</ele><time>2026-04-17T08:03:31.999Z</time></trkpt><trkpt lat="-24.31438152435437" lon="114.03922044208622"><ele>24.0</ele><time>2026-04-17T08:03:32.999Z</time></trkpt><trkpt lat="-24.314134195718722" lon="114.03936472437117"><ele>24.0</ele><time>2026-04-17T08:03:33.999Z</time></trkpt><trkpt lat="-24.313899625249125" lon="114.03950119866008"><ele>24.0</ele><time>2026-04-17T08:03:34.999Z</time></trkpt><trkpt lat="-24.31366941187139" lon="114.03963750375229"><ele>24.0</ele><time>2026-04-17T08:03:35.999Z</time></trkpt><trkpt lat="-24.313433430993072" lon="114.03977645843166"><ele>24.0</ele><time>2026-04-17T08:03:36.999Z</time></trkpt><trkpt lat="-24.313188714102626" lon="114.03991833024074"><ele>23.5</ele><time>2026-04-17T08:03:37.999Z</time></trkpt><trkpt lat="-24.312942254792663" lon="114.04005955504933"><ele>23.0</ele><time>2026-04-17T08:03:38.999Z</time></trkpt><trkpt lat="-24.312696187895767" lon="114.04019883512028"><ele>23.0</ele><time>2026-04-17T08:03:39.999Z</time></trkpt><trkpt lat="-24.312449604083298" lon="114.0403393035202"><ele>23.0</ele><time>2026-04-17T08:03:40.999Z</time></trkpt><trkpt lat="-24.31220286850438" lon="114.04048380494547"><ele>23.5</ele><time>2026-04-17T08:03:41.999Z</time></trkpt><trkpt lat="-24.311956837494936" lon="114.04063113743638"><ele>24.0</ele><time>2026-04-17T08:03:42.999Z</time></trkpt><trkpt lat="-24.31171075798777" lon="114.04077929753836"><ele>24.5</ele><time>2026-04-17T08:03:43.999Z</time></trkpt><trkpt lat="-24.31146337884034" lon="114.0409261599274"><ele>25.0</ele><time>2026-04-17T08:03:44.999Z</time></trkpt><trkpt lat="-24.311215126348028" lon="114.04107372746535"><ele>25.0</ele><time>2026-04-17T08:03:45.999Z</time></trkpt><trkpt lat="-24.31096769526092" lon="114.04121928248856"><ele>25.0</ele><time>2026-04-17T08:03:46.999Z</time></trkpt><trkpt lat="-24.310721118564146" lon="114.04136576975768"><ele>24.5</ele><time>2026-04-17T08:03:47.999Z</time></trkpt><trkpt lat="-24.31047378035755" lon="114.04151034110374"><ele>24.0</ele><time>2026-04-17T08:03:48.999Z</time></trkpt><trkpt lat="-24.310224884108464" lon="114.0416550513221"><ele>24.0</ele><time>2026-04-17T08:03:49.999Z</time></trkpt><trkpt lat="-24.309968907812404" lon="114.04179976571928"><ele>24.0</ele><time>2026-04-17T08:03:50.999Z</time></trkpt><trkpt lat="-24.309715057923405" lon="114.04194380077544"><ele>23.5</ele><time>2026-04-17T08:03:51.999Z</time></trkpt><trkpt lat="-24.30945867063676" lon="114.04209288834527"><ele>23.0</ele><time>2026-04-17T08:03:52.999Z</time></trkpt><trkpt lat="-24.30920194157408" lon="114.04224534609045"><ele>23.0</ele><time>2026-04-17T08:03:53.999Z</time></trkpt><trkpt lat="-24.30894457171857" lon="114.04239741876663"><ele>23.0</ele><time>2026-04-17T08:03:54.999Z</time></trkpt><trkpt lat="-24.3086888711248" lon="114.04254885100383"><ele>23.0</ele><time>2026-04-17T08:03:55.999Z</time></trkpt><trkpt lat="-24.308427552740785" lon="114.04270148180127"><ele>23.0</ele><time>2026-04-17T08:03:56.999Z</time></trkpt><trkpt lat="-24.30816774474811" lon="114.04285141607384"><ele>22.5</ele><time>2026-04-17T08:03:57.999Z</time></trkpt><trkpt lat="-24.30790487917863" lon="114.04300297917891"><ele>22.0</ele><time>2026-04-17T08:03:58.999Z</time></trkpt><trkpt lat="-24.307644551982985" lon="114.04315159018742"><ele>22.0</ele><time>2026-04-17T08:03:59.999Z</time></trkpt><trkpt lat="-24.30738787620044" lon="114.0432985868529"><ele>22.0</ele><time>2026-04-17T08:04:00.999Z</time></trkpt><trkpt lat="-24.307133869020102" lon="114.04344670436055"><ele>22.0</ele><time>2026-04-17T08:04:01.999Z</time></trkpt><trkpt lat="-24.306886194462002" lon="114.04358999982986"><ele>22.0</ele><time>2026-04-17T08:04:02.999Z</time></trkpt><trkpt lat="-24.306641836652332" lon="114.04373269925962"><ele>22.0</ele><time>2026-04-17T08:04:03.999Z</time></trkpt><trkpt lat="-24.306399296549284" lon="114.04387669968288"><ele>22.0</ele><time>2026-04-17T08:04:04.999Z</time></trkpt><trkpt lat="-24.30616126995204" lon="114.04401893141232"><ele>23.5</ele><time>2026-04-17T08:04:05.999Z</time></trkpt><trkpt lat="-24.305927820204268" lon="114.04416018812167"><ele>25.0</ele><time>2026-04-17T08:04:06.999Z</time></trkpt><trkpt lat="-24.30569434464238" lon="114.04430540969734"><ele>25.5</ele><time>2026-04-17T08:04:07.999Z</time></trkpt><trkpt lat="-24.305458071455725" lon="114.04444584723564"><ele>26.0</ele><time>2026-04-17T08:04:08.999Z</time></trkpt><trkpt lat="-24.305217556832567" lon="114.04458555300316"><ele>26.0</ele><time>2026-04-17T08:04:09.999Z</time></trkpt><trkpt lat="-24.304975607267462" lon="114.04472144343914"><ele>26.0</ele><time>2026-04-17T08:04:10.999Z</time></trkpt><trkpt lat="-24.30473446181784" lon="114.04485440733247"><ele>24.5</ele><time>2026-04-17T08:04:11.999Z</time></trkpt><trkpt lat="-24.304483237021362" lon="114.04498355799991"><ele>23.0</ele><time>2026-04-17T08:04:12.999Z</time></trkpt><trkpt lat="-24.304234767400153" lon="114.04510631226199"><ele>23.0</ele><time>2026-04-17T08:04:13.999Z</time></trkpt><trkpt lat="-24.303979119460415" lon="114.0452186770562"><ele>23.0</ele><time>2026-04-17T08:04:14.999Z</time></trkpt><trkpt lat="-24.30371909352673" lon="114.04532007649985"><ele>23.5</ele><time>2026-04-17T08:04:15.999Z</time></trkpt><trkpt lat="-24.30345261670864" lon="114.04541043338904"><ele>24.0</ele><time>2026-04-17T08:04:16.999Z</time></trkpt><trkpt lat="-24.303179369180945" lon="114.04549012759728"><ele>24.0</ele><time>2026-04-17T08:04:17.999Z</time></trkpt><trkpt lat="-24.302902434186436" lon="114.04556068014216"><ele>24.0</ele><time>2026-04-17T08:04:18.999Z</time></trkpt><trkpt lat="-24.30262000567052" lon="114.04562358690352"><ele>24.0</ele><time>2026-04-17T08:04:19.999Z</time></trkpt><trkpt lat="-24.30233601212121" lon="114.04568010101303"><ele>24.0</ele><time>2026-04-17T08:04:20.999Z</time></trkpt><trkpt lat="-24.30205107349109" lon="114.04572695286757"><ele>23.5</ele><time>2026-04-17T08:04:21.999Z</time></trkpt><trkpt lat="-24.301765955921052" lon="114.04576306883546"><ele>23.0</ele><time>2026-04-17T08:04:22.999Z</time></trkpt><trkpt lat="-24.301483049304636" lon="114.0457857175149"><ele>22.5</ele><time>2026-04-17T08:04:23.999Z</time></trkpt><trkpt lat="-24.301197225205616" lon="114.04579394290413"><ele>22.0</ele><time>2026-04-17T08:04:24.999Z</time></trkpt><trkpt lat="-24.30091353591373" lon="114.04579065186621"><ele>22.0</ele><time>2026-04-17T08:04:25.999Z</time></trkpt><trkpt lat="-24.300626666399687" lon="114.04577653530664"><ele>22.0</ele><time>2026-04-17T08:04:26.999Z</time></trkpt><trkpt lat="-24.300340736531602" lon="114.04575426466371"><ele>22.5</ele><time>2026-04-17T08:04:27.999Z</time></trkpt><trkpt lat="-24.300056857362264" lon="114.04572370645248"><ele>23.0</ele><time>2026-04-17T08:04:28.999Z</time></trkpt><trkpt lat="-24.299773811486187" lon="114.04568302124775"><ele>22.5</ele><time>2026-04-17T08:04:29.999Z</time></trkpt><trkpt lat="-24.299492510067836" lon="114.0456297282856"><ele>22.0</ele><time>2026-04-17T08:04:30.999Z</time></trkpt><trkpt lat="-24.299209458347658" lon="114.0455680516333"><ele>22.0</ele><time>2026-04-17T08:04:31.999Z</time></trkpt><trkpt lat="-24.298925140569732" lon="114.04550467602652"><ele>22.0</ele><time>2026-04-17T08:04:32.999Z</time></trkpt><trkpt lat="-24.298642723607237" lon="114.04544621360112"><ele>22.0</ele><time>2026-04-17T08:04:33.999Z</time></trkpt><trkpt lat="-24.298365279505106" lon="114.04539204265218"><ele>22.0</ele><time>2026-04-17T08:04:34.999Z</time></trkpt><trkpt lat="-24.298105134465892" lon="114.04534472808538"><ele>22.0</ele><time>2026-04-17T08:04:35.999Z</time></trkpt><trkpt lat="-24.2978665253757" lon="114.04529974151461"><ele>22.0</ele><time>2026-04-17T08:04:36.999Z</time></trkpt><trkpt lat="-24.297620168029454" lon="114.04525431303007"><ele>22.0</ele><time>2026-04-17T08:04:37.999Z</time></trkpt><trkpt lat="-24.29736193857099" lon="114.04520693212098"><ele>22.0</ele><time>2026-04-17T08:04:38.999Z</time></trkpt><trkpt lat="-24.29709957321143" lon="114.04515886222079"><ele>22.0</ele><time>2026-04-17T08:04:39.999Z</time></trkpt><trkpt lat="-24.296828210848123" lon="114.04510391217485"><ele>22.0</ele><time>2026-04-17T08:04:40.999Z</time></trkpt><trkpt lat="-24.29655438262109" lon="114.04504800621423"><ele>22.0</ele><time>2026-04-17T08:04:41.999Z</time></trkpt><trkpt lat="-24.296278645437614" lon="114.0449903975166"><ele>22.0</ele><time>2026-04-17T08:04:42.999Z</time></trkpt><trkpt lat="-24.29599989312849" lon="114.04493578292214"><ele>22.0</ele><time>2026-04-17T08:04:43.999Z</time></trkpt><trkpt lat="-24.295717376588815" lon="114.04488130408664"><ele>22.0</ele><time>2026-04-17T08:04:44.999Z</time></trkpt><trkpt lat="-24.295436437883982" lon="114.04482635564881"><ele>22.0</ele><time>2026-04-17T08:04:45.999Z</time></trkpt><trkpt lat="-24.295153074024807" lon="114.04477145099027"><ele>22.0</ele><time>2026-04-17T08:04:46.999Z</time></trkpt><trkpt lat="-24.29486833362171" lon="114.04471818523798"><ele>22.5</ele><time>2026-04-17T08:04:47.999Z</time></trkpt><trkpt lat="-24.294585149404437" lon="114.04466443555995"><ele>23.0</ele><time>2026-04-17T08:04:48.999Z</time></trkpt><trkpt lat="-24.29430389178568" lon="114.04461262721239"><ele>23.0</ele><time>2026-04-17T08:04:49.999Z</time></trkpt><trkpt lat="-24.294021482909073" lon="114.0445619910654"><ele>23.0</ele><time>2026-04-17T08:04:50.999Z</time></trkpt><trkpt lat="-24.29374098700816" lon="114.0445116105059"><ele>23.0</ele><time>2026-04-17T08:04:51.999Z</time></trkpt><trkpt lat="-24.29345895321819" lon="114.04445861637235"><ele>23.0</ele><time>2026-04-17T08:04:52.999Z</time></trkpt><trkpt lat="-24.293178148800894" lon="114.044405194682"><ele>23.0</ele><time>2026-04-17T08:04:53.999Z</time></trkpt><trkpt lat="-24.292896225021263" lon="114.04434840244068"><ele>23.0</ele><time>2026-04-17T08:04:54.999Z</time></trkpt><trkpt lat="-24.292613682228613" lon="114.04429158823604"><ele>23.0</ele><time>2026-04-17T08:04:55.999Z</time></trkpt><trkpt lat="-24.292329319621" lon="114.04423687251108"><ele>23.0</ele><time>2026-04-17T08:04:56.999Z</time></trkpt><trkpt lat="-24.29204661806176" lon="114.04419306903436"><ele>23.0</ele><time>2026-04-17T08:04:57.999Z</time></trkpt><trkpt lat="-24.29176451043912" lon="114.04415537523272"><ele>23.0</ele><time>2026-04-17T08:04:58.999Z</time></trkpt><trkpt lat="-24.29148031881523" lon="114.0441213327848"><ele>21.5</ele><time>2026-04-17T08:04:59.999Z</time></trkpt><trkpt lat="-24.291194789042155" lon="114.04409224809986"><ele>20.0</ele><time>2026-04-17T08:05:00.999Z</time></trkpt><trkpt lat="-24.290910670953796" lon="114.04406844434219"><ele>20.0</ele><time>2026-04-17T08:05:01.999Z</time></trkpt><trkpt lat="-24.290625055501867" lon="114.0440451145645"><ele>20.0</ele><time>2026-04-17T08:05:02.999Z</time></trkpt><trkpt lat="-24.29034059700813" lon="114.04402074509446"><ele>20.5</ele><time>2026-04-17T08:05:03.999Z</time></trkpt><trkpt lat="-24.29005503798443" lon="114.04399370626192"><ele>21.0</ele><time>2026-04-17T08:05:04.999Z</time></trkpt><trkpt lat="-24.289769183402527" lon="114.04396630984525"><ele>21.0</ele><time>2026-04-17T08:05:05.999Z</time></trkpt><trkpt lat="-24.28948251690912" lon="114.04393949587245"><ele>21.0</ele><time>2026-04-17T08:05:06.999Z</time></trkpt><trkpt lat="-24.289199333567197" lon="114.0439143110263"><ele>21.5</ele><time>2026-04-17T08:05:07.999Z</time></trkpt><trkpt lat="-24.2889115286839" lon="114.04388778527643"><ele>22.0</ele><time>2026-04-17T08:05:08.999Z</time></trkpt><trkpt lat="-24.288624583858308" lon="114.0438653409376"><ele>22.0</ele><time>2026-04-17T08:05:09.999Z</time></trkpt><trkpt lat="-24.288335095331536" lon="114.04384298129705"><ele>22.0</ele><time>2026-04-17T08:05:10.999Z</time></trkpt><trkpt lat="-24.2880427981496" lon="114.04381606915604"><ele>22.0</ele><time>2026-04-17T08:05:11.999Z</time></trkpt><trkpt lat="-24.28775119808952" lon="114.04378791725702"><ele>22.0</ele><time>2026-04-17T08:05:12.999Z</time></trkpt><trkpt lat="-24.287460004285116" lon="114.04375938306302"><ele>21.0</ele><time>2026-04-17T08:05:13.999Z</time></trkpt><trkpt lat="-24.287167490915646" lon="114.04373294932772"><ele>20.0</ele><time>2026-04-17T08:05:14.999Z</time></trkpt><trkpt lat="-24.286873989644217" lon="114.04370931448548"><ele>20.0</ele><time>2026-04-17T08:05:15.999Z</time></trkpt><trkpt lat="-24.286579914322665" lon="114.04369364170583"><ele>20.0</ele><time>2026-04-17T08:05:16.999Z</time></trkpt><trkpt lat="-24.28628414380322" lon="114.04368671659518"><ele>20.0</ele><time>2026-04-17T08:05:17.999Z</time></trkpt><trkpt lat="-24.28598740731623" lon="114.04368711893002"><ele>20.0</ele><time>2026-04-17T08:05:18.999Z</time></trkpt><trkpt lat="-24.2856909815853" lon="114.04369236434418"><ele>20.0</ele><time>2026-04-17T08:05:19.999Z</time></trkpt><trkpt lat="-24.285392439721917" lon="114.0437023733231"><ele>20.0</ele><time>2026-04-17T08:05:20.999Z</time></trkpt><trkpt lat="-24.28509164305371" lon="114.04371809894755"><ele>20.0</ele><time>2026-04-17T08:05:21.999Z</time></trkpt><trkpt lat="-24.284789403968986" lon="114.04373265382578"><ele>20.0</ele><time>2026-04-17T08:05:22.999Z</time></trkpt><trkpt lat="-24.284486179937986" lon="114.04374746442474"><ele>19.0</ele><time>2026-04-17T08:05:23.999Z</time></trkpt><trkpt lat="-24.284181004862614" lon="114.04376018243315"><ele>18.0</ele><time>2026-04-17T08:05:24.999Z</time></trkpt><trkpt lat="-24.28387377706999" lon="114.04377308411772"><ele>18.0</ele><time>2026-04-17T08:05:25.999Z</time></trkpt><trkpt lat="-24.283569045756327" lon="114.0437882602479"><ele>18.0</ele><time>2026-04-17T08:05:26.999Z</time></trkpt><trkpt lat="-24.28326579919388" lon="114.04380632399412"><ele>19.0</ele><time>2026-04-17T08:05:27.999Z</time></trkpt><trkpt lat="-24.282964720982463" lon="114.04382476424888"><ele>20.0</ele><time>2026-04-17T08:05:28.999Z</time></trkpt><trkpt lat="-24.282658606583606" lon="114.04384278509062"><ele>20.0</ele><time>2026-04-17T08:05:29.999Z</time></trkpt><trkpt lat="-24.28235914088589" lon="114.04385865208252"><ele>20.0</ele><time>2026-04-17T08:05:30.999Z</time></trkpt><trkpt lat="-24.282060349217407" lon="114.0438737308239"><ele>20.5</ele><time>2026-04-17T08:05:31.999Z</time></trkpt><trkpt lat="-24.28176085422607" lon="114.04388856001782"><ele>21.0</ele><time>2026-04-17T08:05:32.999Z</time></trkpt><trkpt lat="-24.28146439663542" lon="114.04390654893105"><ele>21.5</ele><time>2026-04-17T08:05:33.999Z</time></trkpt><trkpt lat="-24.281168695090603" lon="114.04392581027022"><ele>22.0</ele><time>2026-04-17T08:05:34.999Z</time></trkpt><trkpt lat="-24.28087280401434" lon="114.04394211086037"><ele>22.0</ele><time>2026-04-17T08:05:36Z</time></trkpt><trkpt lat="-24.280572480365613" lon="114.04395738432858"><ele>22.0</ele><time>2026-04-17T08:05:37Z</time></trkpt><trkpt lat="-24.280273945443664" lon="114.04397217735074"><ele>22.0</ele><time>2026-04-17T08:05:38Z</time></trkpt><trkpt lat="-24.27997009724311" lon="114.04398717667317"><ele>22.0</ele><time>2026-04-17T08:05:39Z</time></trkpt><trkpt lat="-24.279668181000567" lon="114.04400098925247"><ele>21.5</ele><time>2026-04-17T08:05:40Z</time></trkpt><trkpt lat="-24.279365381194737" lon="114.04401443793185"><ele>21.0</ele><time>2026-04-17T08:05:41Z</time></trkpt><trkpt lat="-24.27906636240346" lon="114.04403123803348"><ele>21.0</ele><time>2026-04-17T08:05:42Z</time></trkpt><trkpt lat="-24.278760543136983" lon="114.04404778179862"><ele>21.0</ele><time>2026-04-17T08:05:43Z</time></trkpt><trkpt lat="-24.278459965570068" lon="114.04405927211847"><ele>21.0</ele><time>2026-04-17T08:05:44Z</time></trkpt><trkpt lat="-24.27817634414128" lon="114.04406569183044"><ele>21.0</ele><time>2026-04-17T08:05:45Z</time></trkpt><trkpt lat="-24.277909787263958" lon="114.04406902674428"><ele>21.0</ele><time>2026-04-17T08:05:46Z</time></trkpt><trkpt lat="-24.277638588875895" lon="114.04406990807728"><ele>21.0</ele><time>2026-04-17T08:05:47Z</time></trkpt><trkpt lat="-24.27736076163633" lon="114.0440643447571"><ele>20.5</ele><time>2026-04-17T08:05:48Z</time></trkpt><trkpt lat="-24.277079257203717" lon="114.04405020501713"><ele>20.0</ele><time>2026-04-17T08:05:49Z</time></trkpt><trkpt lat="-24.276796937843372" lon="114.04402766636149"><ele>20.0</ele><time>2026-04-17T08:05:50Z</time></trkpt><trkpt lat="-24.276511781701295" lon="114.0439964104428"><ele>20.0</ele><time>2026-04-17T08:05:51Z</time></trkpt><trkpt lat="-24.276226354348612" lon="114.0439607260402"><ele>21.0</ele><time>2026-04-17T08:05:52Z</time></trkpt><trkpt lat="-24.275939676003972" lon="114.04391807681648"><ele>22.0</ele><time>2026-04-17T08:05:53Z</time></trkpt><trkpt lat="-24.27565205461106" lon="114.04386942321929"><ele>22.0</ele><time>2026-04-17T08:05:54Z</time></trkpt><trkpt lat="-24.275368023841892" lon="114.04381047101252"><ele>22.0</ele><time>2026-04-17T08:05:55Z</time></trkpt><trkpt lat="-24.27508226525051" lon="114.04374645938661"><ele>22.0</ele><time>2026-04-17T08:05:56Z</time></trkpt><trkpt lat="-24.274795511012748" lon="114.04367433839046"><ele>22.0</ele><time>2026-04-17T08:05:57Z</time></trkpt><trkpt lat="-24.274510785297437" lon="114.04359521319742"><ele>21.5</ele><time>2026-04-17T08:05:58Z</time></trkpt><trkpt lat="-24.27422950747864" lon="114.04350445949675"><ele>21.0</ele><time>2026-04-17T08:05:59Z</time></trkpt><trkpt lat="-24.273947253867103" lon="114.04340794743426"><ele>20.5</ele><time>2026-04-17T08:06:00Z</time></trkpt><trkpt lat="-24.273666202664483" lon="114.04331136836967"><ele>20.0</ele><time>2026-04-17T08:06:01Z</time></trkpt><trkpt lat="-24.27338570495466" lon="114.0432176730323"><ele>20.0</ele><time>2026-04-17T08:06:02Z</time></trkpt><trkpt lat="-24.273104651012744" lon="114.0431269572331"><ele>20.0</ele><time>2026-04-17T08:06:03Z</time></trkpt><trkpt lat="-24.27282086758205" lon="114.04303791943629"><ele>20.0</ele><time>2026-04-17T08:06:04Z</time></trkpt><trkpt lat="-24.272535286406555" lon="114.04294662345984"><ele>20.0</ele><time>2026-04-17T08:06:05Z</time></trkpt><trkpt lat="-24.27225235855621" lon="114.04285563059405"><ele>20.0</ele><time>2026-04-17T08:06:06Z</time></trkpt><trkpt lat="-24.271966627564975" lon="114.0427631632108"><ele>20.0</ele><time>2026-04-17T08:06:07Z</time></trkpt><trkpt lat="-24.2716798605397" lon="114.04267045699044"><ele>20.5</ele><time>2026-04-17T08:06:08Z</time></trkpt><trkpt lat="-24.271392306825817" lon="114.04257957002211"><ele>21.0</ele><time>2026-04-17T08:06:09Z</time></trkpt><trkpt lat="-24.27110434283509" lon="114.04248800869281"><ele>20.5</ele><time>2026-04-17T08:06:10Z</time></trkpt><trkpt lat="-24.270818191484487" lon="114.04239680682367"><ele>20.0</ele><time>2026-04-17T08:06:11Z</time></trkpt><trkpt lat="-24.270528425571793" lon="114.04230669130997"><ele>19.0</ele><time>2026-04-17T08:06:12Z</time></trkpt><trkpt lat="-24.270241137378964" lon="114.04221429342589"><ele>18.0</ele><time>2026-04-17T08:06:13Z</time></trkpt><trkpt lat="-24.269955200215417" lon="114.0421217723891"><ele>18.5</ele><time>2026-04-17T08:06:14Z</time></trkpt><trkpt lat="-24.269667622853152" lon="114.04203047906385"><ele>19.0</ele><time>2026-04-17T08:06:15Z</time></trkpt><trkpt lat="-24.269379626812178" lon="114.04194238881982"><ele>19.0</ele><time>2026-04-17T08:06:16Z</time></trkpt><trkpt lat="-24.269092571403636" lon="114.04185255813701"><ele>19.0</ele><time>2026-04-17T08:06:17Z</time></trkpt><trkpt lat="-24.268805350070004" lon="114.04176873405247"><ele>19.0</ele><time>2026-04-17T08:06:18Z</time></trkpt><trkpt lat="-24.268515217274793" lon="114.04168778747135"><ele>19.0</ele><time>2026-04-17T08:06:19Z</time></trkpt><trkpt lat="-24.268224357163916" lon="114.04160781261596"><ele>19.0</ele><time>2026-04-17T08:06:20Z</time></trkpt><trkpt lat="-24.267932405815923" lon="114.04153003161223"><ele>19.0</ele><time>2026-04-17T08:06:21Z</time></trkpt><trkpt lat="-24.267644629275896" lon="114.04145559690848"><ele>19.0</ele><time>2026-04-17T08:06:22Z</time></trkpt><trkpt lat="-24.267351506040203" lon="114.04137998681469"><ele>19.0</ele><time>2026-04-17T08:06:23Z</time></trkpt><trkpt lat="-24.267059639685012" lon="114.04130658470086"><ele>18.5</ele><time>2026-04-17T08:06:24Z</time></trkpt><trkpt lat="-24.266768700508564" lon="114.04123387689117"><ele>18.0</ele><time>2026-04-17T08:06:25Z</time></trkpt><trkpt lat="-24.2664792942318" lon="114.04116341519594"><ele>18.5</ele><time>2026-04-17T08:06:26Z</time></trkpt><trkpt lat="-24.266186958135012" lon="114.0410925248401"><ele>19.0</ele><time>2026-04-17T08:06:27Z</time></trkpt><trkpt lat="-24.2658962987361" lon="114.04102286405389"><ele>19.5</ele><time>2026-04-17T08:06:28Z</time></trkpt><trkpt lat="-24.26560901934748" lon="114.0409527053445"><ele>20.0</ele><time>2026-04-17T08:06:29Z</time></trkpt><trkpt lat="-24.265319250233446" lon="114.04088181881079"><ele>20.0</ele><time>2026-04-17T08:06:30Z</time></trkpt><trkpt lat="-24.265026847683757" lon="114.04080803615662"><ele>20.0</ele><time>2026-04-17T08:06:31Z</time></trkpt><trkpt lat="-24.264739202224682" lon="114.04073418501552"><ele>20.0</ele><time>2026-04-17T08:06:32Z</time></trkpt><trkpt lat="-24.264444843204664" lon="114.0406607360165"><ele>20.0</ele><time>2026-04-17T08:06:33Z</time></trkpt><trkpt lat="-24.2641550499884" lon="114.04058594294128"><ele>20.0</ele><time>2026-04-17T08:06:34Z</time></trkpt><trkpt lat="-24.26386340590692" lon="114.04051174634243"><ele>20.0</ele><time>2026-04-17T08:06:35Z</time></trkpt><trkpt lat="-24.263571776596066" lon="114.04043836047397"><ele>20.0</ele><time>2026-04-17T08:06:36Z</time></trkpt><trkpt lat="-24.26328222503928" lon="114.04036458069677"><ele>20.0</ele><time>2026-04-17T08:06:37Z</time></trkpt><trkpt lat="-24.262991107100113" lon="114.04028927548647"><ele>20.0</ele><time>2026-04-17T08:06:38Z</time></trkpt><trkpt lat="-24.262700070851093" lon="114.04021445847648"><ele>20.0</ele><time>2026-04-17T08:06:39Z</time></trkpt><trkpt lat="-24.26241030937195" lon="114.04014229191088"><ele>19.5</ele><time>2026-04-17T08:06:40Z</time></trkpt><trkpt lat="-24.262123856940843" lon="114.04007184255869"><ele>19.0</ele><time>2026-04-17T08:06:41Z</time></trkpt><trkpt lat="-24.261835819957952" lon="114.04000082847628"><ele>19.5</ele><time>2026-04-17T08:06:42Z</time></trkpt><trkpt lat="-24.26154740822504" lon="114.03992825734244"><ele>20.0</ele><time>2026-04-17T08:06:43Z</time></trkpt><trkpt lat="-24.261258489653198" lon="114.03985756633276"><ele>20.0</ele><time>2026-04-17T08:06:44Z</time></trkpt><trkpt lat="-24.26096710876918" lon="114.03978571416839"><ele>20.0</ele><time>2026-04-17T08:06:45Z</time></trkpt><trkpt lat="-24.260679414881203" lon="114.0397164408168"><ele>20.5</ele><time>2026-04-17T08:06:46Z</time></trkpt><trkpt lat="-24.260388596516883" lon="114.03964457942085"><ele>21.0</ele><time>2026-04-17T08:06:47Z</time></trkpt><trkpt lat="-24.26009955467586" lon="114.03957166791737"><ele>21.0</ele><time>2026-04-17T08:06:48Z</time></trkpt><trkpt lat="-24.259808973473433" lon="114.03949651890032"><ele>21.0</ele><time>2026-04-17T08:06:49Z</time></trkpt><trkpt lat="-24.259518689851124" lon="114.03941886096132"><ele>21.0</ele><time>2026-04-17T08:06:50Z</time></trkpt><trkpt lat="-24.25922835354351" lon="114.03934159541424"><ele>21.0</ele><time>2026-04-17T08:06:51Z</time></trkpt><trkpt lat="-24.25893745719534" lon="114.03926671094415"><ele>21.0</ele><time>2026-04-17T08:06:52Z</time></trkpt><trkpt lat="-24.25864702336907" lon="114.03919557075459"><ele>21.0</ele><time>2026-04-17T08:06:53Z</time></trkpt><trkpt lat="-24.25835780112688" lon="114.03912723816516"><ele>20.5</ele><time>2026-04-17T08:06:54Z</time></trkpt><trkpt lat="-24.258067499987842" lon="114.03905769706738"><ele>20.0</ele><time>2026-04-17T08:06:55Z</time></trkpt><trkpt lat="-24.257781923480238" lon="114.03898594086718"><ele>20.0</ele><time>2026-04-17T08:06:56Z</time></trkpt><trkpt lat="-24.25749844926917" lon="114.03891155341293"><ele>20.0</ele><time>2026-04-17T08:06:57Z</time></trkpt><trkpt lat="-24.257217693274917" lon="114.03883833771198"><ele>20.0</ele><time>2026-04-17T08:06:58Z</time></trkpt><trkpt lat="-24.256936691978865" lon="114.03876139704998"><ele>20.0</ele><time>2026-04-17T08:06:59Z</time></trkpt><trkpt lat="-24.256665143304957" lon="114.03868584619113"><ele>20.5</ele><time>2026-04-17T08:07:00Z</time></trkpt><trkpt lat="-24.256411618500575" lon="114.03861714977464"><ele>21.0</ele><time>2026-04-17T08:07:01Z</time></trkpt><trkpt lat="-24.25617492124393" lon="114.03855377053843"><ele>21.0</ele><time>2026-04-17T08:07:02Z</time></trkpt><trkpt lat="-24.25594038005514" lon="114.03849060567534"><ele>21.0</ele><time>2026-04-17T08:07:03Z</time></trkpt><trkpt lat="-24.255688313305022" lon="114.0384234335939"><ele>21.0</ele><time>2026-04-17T08:07:04Z</time></trkpt><trkpt lat="-24.25541998549518" lon="114.03835468359861"><ele>21.0</ele><time>2026-04-17T08:07:05Z</time></trkpt><trkpt lat="-24.25514574632087" lon="114.03828475824821"><ele>22.0</ele><time>2026-04-17T08:07:06Z</time></trkpt><trkpt lat="-24.254867591875456" lon="114.03821365682772"><ele>23.0</ele><time>2026-04-17T08:07:07Z</time></trkpt><trkpt lat="-24.254586112227855" lon="114.03814104961498"><ele>23.0</ele><time>2026-04-17T08:07:08Z</time></trkpt><trkpt lat="-24.254302649624545" lon="114.03806680428163"><ele>23.0</ele><time>2026-04-17T08:07:09Z</time></trkpt><trkpt lat="-24.254020208911257" lon="114.03799391866995"><ele>22.0</ele><time>2026-04-17T08:07:10Z</time></trkpt><trkpt lat="-24.253736014237337" lon="114.03791984775573"><ele>21.0</ele><time>2026-04-17T08:07:11Z</time></trkpt><trkpt lat="-24.253450427807515" lon="114.03784564927365"><ele>21.0</ele><time>2026-04-17T08:07:12Z</time></trkpt><trkpt lat="-24.253165259914233" lon="114.03776970765792"><ele>21.0</ele><time>2026-04-17T08:07:13Z</time></trkpt><trkpt lat="-24.252880778033255" lon="114.03769339909455"><ele>21.0</ele><time>2026-04-17T08:07:14Z</time></trkpt><trkpt lat="-24.252594879053976" lon="114.03761424130165"><ele>21.0</ele><time>2026-04-17T08:07:15Z</time></trkpt><trkpt lat="-24.252305752866327" lon="114.03753471953637"><ele>22.0</ele><time>2026-04-17T08:07:16Z</time></trkpt><trkpt lat="-24.252017181913185" lon="114.03745751367501"><ele>23.0</ele><time>2026-04-17T08:07:17Z</time></trkpt><trkpt lat="-24.251731109606826" lon="114.03738338382564"><ele>21.5</ele><time>2026-04-17T08:07:18Z</time></trkpt><trkpt lat="-24.25144466445505" lon="114.03730929021326"><ele>20.0</ele><time>2026-04-17T08:07:19Z</time></trkpt><trkpt lat="-24.25115670459975" lon="114.0372345214189"><ele>20.0</ele><time>2026-04-17T08:07:20Z</time></trkpt><trkpt lat="-24.250870261237132" lon="114.03716093511746"><ele>20.0</ele><time>2026-04-17T08:07:21Z</time></trkpt><trkpt lat="-24.250584911319443" lon="114.0370876828565"><ele>20.0</ele><time>2026-04-17T08:07:22Z</time></trkpt><trkpt lat="-24.25029964319699" lon="114.03701410379881"><ele>20.0</ele><time>2026-04-17T08:07:23Z</time></trkpt><trkpt lat="-24.25001735543492" lon="114.0369409575485"><ele>19.5</ele><time>2026-04-17T08:07:24Z</time></trkpt><trkpt lat="-24.24973526635358" lon="114.03686609811874"><ele>19.0</ele><time>2026-04-17T08:07:25Z</time></trkpt><trkpt lat="-24.24945097312402" lon="114.03678885005968"><ele>19.0</ele><time>2026-04-17T08:07:26Z</time></trkpt><trkpt lat="-24.24916824837814" lon="114.03670837228266"><ele>19.0</ele><time>2026-04-17T08:07:27Z</time></trkpt><trkpt lat="-24.24888304756105" lon="114.03662643076997"><ele>20.5</ele><time>2026-04-17T08:07:28Z</time></trkpt><trkpt lat="-24.24859654137038" lon="114.03654616378826"><ele>22.0</ele><time>2026-04-17T08:07:29Z</time></trkpt><trkpt lat="-24.248310331750915" lon="114.03647185862631"><ele>22.0</ele><time>2026-04-17T08:07:30Z</time></trkpt><trkpt lat="-24.248024572980675" lon="114.03640072878427"><ele>22.0</ele><time>2026-04-17T08:07:31Z</time></trkpt><trkpt lat="-24.247738574869967" lon="114.0363305773775"><ele>22.0</ele><time>2026-04-17T08:07:32Z</time></trkpt><trkpt lat="-24.24745240785891" lon="114.03626064280384"><ele>22.0</ele><time>2026-04-17T08:07:33Z</time></trkpt><trkpt lat="-24.247170269381282" lon="114.03618874019975"><ele>21.0</ele><time>2026-04-17T08:07:34Z</time></trkpt><trkpt lat="-24.24688691402275" lon="114.0361141114023"><ele>20.0</ele><time>2026-04-17T08:07:35Z</time></trkpt><trkpt lat="-24.246606507503504" lon="114.03603710564101"><ele>19.5</ele><time>2026-04-17T08:07:36.001Z</time></trkpt><trkpt lat="-24.246322881870807" lon="114.03595877437174"><ele>19.0</ele><time>2026-04-17T08:07:37.001Z</time></trkpt><trkpt lat="-24.246038904880855" lon="114.03588412554797"><ele>19.0</ele><time>2026-04-17T08:07:38.001Z</time></trkpt><trkpt lat="-24.24575385442748" lon="114.03581028365392"><ele>19.0</ele><time>2026-04-17T08:07:39.001Z</time></trkpt><trkpt lat="-24.24546896861824" lon="114.03573326931222"><ele>21.0</ele><time>2026-04-17T08:07:40.001Z</time></trkpt><trkpt lat="-24.24518368919253" lon="114.03565493919486"><ele>23.0</ele><time>2026-04-17T08:07:41.001Z</time></trkpt><trkpt lat="-24.244898207388484" lon="114.035578794451"><ele>21.5</ele><time>2026-04-17T08:07:42.001Z</time></trkpt><trkpt lat="-24.244613090615147" lon="114.0355055874494"><ele>20.0</ele><time>2026-04-17T08:07:43.001Z</time></trkpt><trkpt lat="-24.24433028277536" lon="114.03543488606886"><ele>20.0</ele><time>2026-04-17T08:07:44.001Z</time></trkpt><trkpt lat="-24.244046188705486" lon="114.03536143498008"><ele>20.0</ele><time>2026-04-17T08:07:45.001Z</time></trkpt><trkpt lat="-24.243760744662836" lon="114.03528635961582"><ele>20.0</ele><time>2026-04-17T08:07:46.001Z</time></trkpt><trkpt lat="-24.24347503431684" lon="114.03521014261705"><ele>20.0</ele><time>2026-04-17T08:07:47.001Z</time></trkpt><trkpt lat="-24.243188522760576" lon="114.03513232357818"><ele>20.0</ele><time>2026-04-17T08:07:48.001Z</time></trkpt><trkpt lat="-24.24290364232923" lon="114.03505471114106"><ele>20.0</ele><time>2026-04-17T08:07:49.001Z</time></trkpt><trkpt lat="-24.24261814728186" lon="114.03497840838781"><ele>20.5</ele><time>2026-04-17T08:07:50.001Z</time></trkpt><trkpt lat="-24.242331053711435" lon="114.03490143736406"><ele>21.0</ele><time>2026-04-17T08:07:51.001Z</time></trkpt><trkpt lat="-24.242045393694468" lon="114.03482674379431"><ele>21.0</ele><time>2026-04-17T08:07:52Z</time></trkpt><trkpt lat="-24.241763074443302" lon="114.03475505063777"><ele>21.0</ele><time>2026-04-17T08:07:53Z</time></trkpt><trkpt lat="-24.241479330677024" lon="114.0346837111575"><ele>21.5</ele><time>2026-04-17T08:07:54Z</time></trkpt><trkpt lat="-24.241196644912947" lon="114.03461109078584"><ele>22.0</ele><time>2026-04-17T08:07:55Z</time></trkpt><trkpt lat="-24.240913881193816" lon="114.03453396470682"><ele>21.5</ele><time>2026-04-17T08:07:56Z</time></trkpt><trkpt lat="-24.24063120241413" lon="114.0344536948922"><ele>21.0</ele><time>2026-04-17T08:07:57Z</time></trkpt><trkpt lat="-24.24034769792901" lon="114.03437562063608"><ele>21.0</ele><time>2026-04-17T08:07:58Z</time></trkpt><trkpt lat="-24.240065356984147" lon="114.03430088863438"><ele>21.0</ele><time>2026-04-17T08:07:59Z</time></trkpt><trkpt lat="-24.239783827378737" lon="114.03422726406865"><ele>21.0</ele><time>2026-04-17T08:08:00Z</time></trkpt><trkpt lat="-24.239498585582407" lon="114.03415188480409"><ele>21.0</ele><time>2026-04-17T08:08:01Z</time></trkpt><trkpt lat="-24.2392162104696" lon="114.0340775486989"><ele>22.0</ele><time>2026-04-17T08:08:02Z</time></trkpt><trkpt lat="-24.23893100972325" lon="114.03400051067169"><ele>23.0</ele><time>2026-04-17T08:08:03Z</time></trkpt><trkpt lat="-24.238642307286064" lon="114.0339258835583"><ele>23.0</ele><time>2026-04-17T08:08:04Z</time></trkpt><trkpt lat="-24.238352928526453" lon="114.0338523628581"><ele>23.0</ele><time>2026-04-17T08:08:05Z</time></trkpt><trkpt lat="-24.238060293432277" lon="114.03377630498808"><ele>22.0</ele><time>2026-04-17T08:08:06Z</time></trkpt><trkpt lat="-24.237768056806665" lon="114.03369745168906"><ele>21.0</ele><time>2026-04-17T08:08:07Z</time></trkpt><trkpt lat="-24.23747943468492" lon="114.0336201355964"><ele>20.0</ele><time>2026-04-17T08:08:08Z</time></trkpt><trkpt lat="-24.237187609067814" lon="114.03354734970334"><ele>19.0</ele><time>2026-04-17T08:08:09Z</time></trkpt><trkpt lat="-24.236896661331965" lon="114.03348511805468"><ele>19.0</ele><time>2026-04-17T08:08:10Z</time></trkpt><trkpt lat="-24.23660668630185" lon="114.03342818142804"><ele>19.0</ele><time>2026-04-17T08:08:11Z</time></trkpt><trkpt lat="-24.236312677900926" lon="114.03337470374933"><ele>19.0</ele><time>2026-04-17T08:08:12Z</time></trkpt><trkpt lat="-24.23602192033441" lon="114.03333069953801"><ele>19.0</ele><time>2026-04-17T08:08:13Z</time></trkpt><trkpt lat="-24.235727260879596" lon="114.03329156125422"><ele>19.0</ele><time>2026-04-17T08:08:14Z</time></trkpt><trkpt lat="-24.23543538751023" lon="114.03325512327795"><ele>19.0</ele><time>2026-04-17T08:08:15Z</time></trkpt><trkpt lat="-24.23514815758272" lon="114.03321962384663"><ele>19.0</ele><time>2026-04-17T08:08:16Z</time></trkpt><trkpt lat="-24.23485970595342" lon="114.03317772876593"><ele>19.0</ele><time>2026-04-17T08:08:17Z</time></trkpt><trkpt lat="-24.23457032536666" lon="114.03313593738389"><ele>19.0</ele><time>2026-04-17T08:08:18Z</time></trkpt><trkpt lat="-24.234283270418118" lon="114.03309537558383"><ele>19.0</ele><time>2026-04-17T08:08:19Z</time></trkpt><trkpt lat="-24.233993233786354" lon="114.03305425617131"><ele>20.0</ele><time>2026-04-17T08:08:20Z</time></trkpt><trkpt lat="-24.233702450282806" lon="114.03301209208081"><ele>21.0</ele><time>2026-04-17T08:08:21Z</time></trkpt><trkpt lat="-24.23341413102987" lon="114.03296781527327"><ele>21.0</ele><time>2026-04-17T08:08:22Z</time></trkpt><trkpt lat="-24.23312187170113" lon="114.03292446396932"><ele>21.0</ele><time>2026-04-17T08:08:23Z</time></trkpt><trkpt lat="-24.23283333777733" lon="114.03288280522474"><ele>21.0</ele><time>2026-04-17T08:08:24Z</time></trkpt><trkpt lat="-24.232545650973336" lon="114.03284443664856"><ele>21.0</ele><time>2026-04-17T08:08:25Z</time></trkpt><trkpt lat="-24.232259043165122" lon="114.03280932520204"><ele>21.5</ele><time>2026-04-17T08:08:26Z</time></trkpt><trkpt lat="-24.231974691209217" lon="114.03277412105616"><ele>22.0</ele><time>2026-04-17T08:08:27Z</time></trkpt><trkpt lat="-24.23169175084665" lon="114.03273825442925"><ele>21.5</ele><time>2026-04-17T08:08:28Z</time></trkpt><trkpt lat="-24.23141061864427" lon="114.03269927288912"><ele>21.0</ele><time>2026-04-17T08:08:29Z</time></trkpt><trkpt lat="-24.231128971463175" lon="114.0326600580451"><ele>21.0</ele><time>2026-04-17T08:08:30Z</time></trkpt><trkpt lat="-24.23084757743134" lon="114.03261964860522"><ele>21.0</ele><time>2026-04-17T08:08:31Z</time></trkpt><trkpt lat="-24.23056631073157" lon="114.03257882182454"><ele>20.0</ele><time>2026-04-17T08:08:32Z</time></trkpt><trkpt lat="-24.230282913347637" lon="114.03253911123217"><ele>19.0</ele><time>2026-04-17T08:08:33Z</time></trkpt><trkpt lat="-24.229994750699294" lon="114.03249936696578"><ele>19.5</ele><time>2026-04-17T08:08:34Z</time></trkpt><trkpt lat="-24.2297088028023" lon="114.03246121860089"><ele>20.0</ele><time>2026-04-17T08:08:35Z</time></trkpt><trkpt lat="-24.22942204081313" lon="114.03242027763335"><ele>20.0</ele><time>2026-04-17T08:08:36Z</time></trkpt><trkpt lat="-24.22913500967535" lon="114.0323749847111"><ele>20.0</ele><time>2026-04-17T08:08:37Z</time></trkpt><trkpt lat="-24.228849081224848" lon="114.03233107406943"><ele>20.0</ele><time>2026-04-17T08:08:38Z</time></trkpt><trkpt lat="-24.228558044545064" lon="114.03228682050333"><ele>20.0</ele><time>2026-04-17T08:08:39Z</time></trkpt><trkpt lat="-24.228272629896356" lon="114.03223294856333"><ele>19.5</ele><time>2026-04-17T08:08:40Z</time></trkpt><trkpt lat="-24.22798860557127" lon="114.0321677092704"><ele>19.0</ele><time>2026-04-17T08:08:41Z</time></trkpt><trkpt lat="-24.22770385272013" lon="114.03209200627938"><ele>19.0</ele><time>2026-04-17T08:08:42Z</time></trkpt><trkpt lat="-24.227422182350757" lon="114.03200557694299"><ele>19.0</ele><time>2026-04-17T08:08:43Z</time></trkpt><trkpt lat="-24.22714250778979" lon="114.03191717048087"><ele>17.5</ele><time>2026-04-17T08:08:44Z</time></trkpt><trkpt lat="-24.22686206151265" lon="114.03182606136707"><ele>16.0</ele><time>2026-04-17T08:08:45Z</time></trkpt><trkpt lat="-24.226587284739146" lon="114.03173365926699"><ele>18.5</ele><time>2026-04-17T08:08:46Z</time></trkpt><trkpt lat="-24.226309930660655" lon="114.03163840186666"><ele>21.0</ele><time>2026-04-17T08:08:47Z</time></trkpt><trkpt lat="-24.226031390565268" lon="114.03154348341877"><ele>21.0</ele><time>2026-04-17T08:08:48Z</time></trkpt><trkpt lat="-24.225752908168324" lon="114.03145186515975"><ele>21.0</ele><time>2026-04-17T08:08:49Z</time></trkpt><trkpt lat="-24.22547157308905" lon="114.03136158959825"><ele>20.0</ele><time>2026-04-17T08:08:50Z</time></trkpt><trkpt lat="-24.225190646329285" lon="114.03127039565203"><ele>19.0</ele><time>2026-04-17T08:08:51Z</time></trkpt><trkpt lat="-24.2249134594409" lon="114.0311774890162"><ele>18.0</ele><time>2026-04-17T08:08:52Z</time></trkpt><trkpt lat="-24.224639847494718" lon="114.0310869756015"><ele>17.0</ele><time>2026-04-17T08:08:53Z</time></trkpt><trkpt lat="-24.224365631730386" lon="114.03099389368242"><ele>17.0</ele><time>2026-04-17T08:08:54Z</time></trkpt><trkpt lat="-24.224094647000506" lon="114.03089984967177"><ele>17.0</ele><time>2026-04-17T08:08:55Z</time></trkpt><trkpt lat="-24.22382051576963" lon="114.0308064735721"><ele>17.5</ele><time>2026-04-17T08:08:56Z</time></trkpt><trkpt lat="-24.223548116353996" lon="114.03071791918423"><ele>18.0</ele><time>2026-04-17T08:08:57Z</time></trkpt><trkpt lat="-24.22327351271838" lon="114.03062935665322"><ele>17.5</ele><time>2026-04-17T08:08:58Z</time></trkpt><trkpt lat="-24.223001511190887" lon="114.03053812008696"><ele>17.0</ele><time>2026-04-17T08:08:59Z</time></trkpt><trkpt lat="-24.222734695103767" lon="114.03044451799802"><ele>17.0</ele><time>2026-04-17T08:09:00Z</time></trkpt><trkpt lat="-24.222468915265125" lon="114.03035560348248"><ele>17.0</ele><time>2026-04-17T08:09:01Z</time></trkpt><trkpt lat="-24.22220076115593" lon="114.03028764211791"><ele>17.0</ele><time>2026-04-17T08:09:02Z</time></trkpt><trkpt lat="-24.221927556167326" lon="114.03023035260763"><ele>17.0</ele><time>2026-04-17T08:09:03Z</time></trkpt><trkpt lat="-24.221652229913644" lon="114.03018900941241"><ele>17.0</ele><time>2026-04-17T08:09:04Z</time></trkpt><trkpt lat="-24.221375383163533" lon="114.03015379963492"><ele>17.0</ele><time>2026-04-17T08:09:05Z</time></trkpt><trkpt lat="-24.22109875554137" lon="114.03012436899944"><ele>17.0</ele><time>2026-04-17T08:09:06Z</time></trkpt><trkpt lat="-24.220816947529432" lon="114.03010341765496"><ele>17.0</ele><time>2026-04-17T08:09:07Z</time></trkpt><trkpt lat="-24.220538591007543" lon="114.03008907503073"><ele>17.0</ele><time>2026-04-17T08:09:08Z</time></trkpt><trkpt lat="-24.22026420186304" lon="114.03008845972265"><ele>17.0</ele><time>2026-04-17T08:09:09Z</time></trkpt><trkpt lat="-24.21998789328445" lon="114.03009471939642"><ele>16.5</ele><time>2026-04-17T08:09:10Z</time></trkpt><trkpt lat="-24.219716504026234" lon="114.03011488868559"><ele>16.0</ele><time>2026-04-17T08:09:11Z</time></trkpt><trkpt lat="-24.21944477793104" lon="114.03014563267037"><ele>16.0</ele><time>2026-04-17T08:09:12Z</time></trkpt><trkpt lat="-24.219174962635662" lon="114.03019108988948"><ele>16.0</ele><time>2026-04-17T08:09:13Z</time></trkpt><trkpt lat="-24.2189071727068" lon="114.03024711426119"><ele>16.5</ele><time>2026-04-17T08:09:14Z</time></trkpt><trkpt lat="-24.21864030423914" lon="114.03030300420141"><ele>17.0</ele><time>2026-04-17T08:09:15Z</time></trkpt><trkpt lat="-24.218372160656166" lon="114.03036147201519"><ele>17.0</ele><time>2026-04-17T08:09:16Z</time></trkpt><trkpt lat="-24.21810670355898" lon="114.03043252336562"><ele>17.0</ele><time>2026-04-17T08:09:17Z</time></trkpt><trkpt lat="-24.21784099337267" lon="114.03050547433787"><ele>17.0</ele><time>2026-04-17T08:09:18Z</time></trkpt><trkpt lat="-24.217579540379436" lon="114.03057492369183"><ele>17.0</ele><time>2026-04-17T08:09:19Z</time></trkpt><trkpt lat="-24.217310540404345" lon="114.03063907976362"><ele>16.5</ele><time>2026-04-17T08:09:20Z</time></trkpt><trkpt lat="-24.217042767841328" lon="114.0307023097205"><ele>16.0</ele><time>2026-04-17T08:09:21Z</time></trkpt><trkpt lat="-24.21677156583149" lon="114.03076777537876"><ele>16.5</ele><time>2026-04-17T08:09:22Z</time></trkpt><trkpt lat="-24.216502870892853" lon="114.03083492295062"><ele>17.0</ele><time>2026-04-17T08:09:23Z</time></trkpt><trkpt lat="-24.216236752916213" lon="114.0309018323588"><ele>17.0</ele><time>2026-04-17T08:09:24Z</time></trkpt><trkpt lat="-24.215972699382462" lon="114.03097196015256"><ele>17.0</ele><time>2026-04-17T08:09:25Z</time></trkpt><trkpt lat="-24.21570854816815" lon="114.03104218259419"><ele>17.0</ele><time>2026-04-17T08:09:26Z</time></trkpt><trkpt lat="-24.215443365633885" lon="114.03110657547582"><ele>17.0</ele><time>2026-04-17T08:09:27Z</time></trkpt><trkpt lat="-24.215175825681737" lon="114.03117052788609"><ele>17.0</ele><time>2026-04-17T08:09:28Z</time></trkpt><trkpt lat="-24.214908856112892" lon="114.03123550663256"><ele>17.0</ele><time>2026-04-17T08:09:29Z</time></trkpt><trkpt lat="-24.214639407793335" lon="114.03130165032987"><ele>17.5</ele><time>2026-04-17T08:09:30Z</time></trkpt><trkpt lat="-24.21437067596136" lon="114.03137003498671"><ele>18.0</ele><time>2026-04-17T08:09:31Z</time></trkpt><trkpt lat="-24.2141008014751" lon="114.03143817360107"><ele>18.5</ele><time>2026-04-17T08:09:32Z</time></trkpt><trkpt lat="-24.213829446226075" lon="114.03150467184331"><ele>19.0</ele><time>2026-04-17T08:09:33Z</time></trkpt><trkpt lat="-24.213555657246" lon="114.0315719385324"><ele>19.0</ele><time>2026-04-17T08:09:34Z</time></trkpt><trkpt lat="-24.213280684597404" lon="114.03164008449828"><ele>19.0</ele><time>2026-04-17T08:09:35Z</time></trkpt><trkpt lat="-24.213007884908542" lon="114.03170854151789"><ele>19.5</ele><time>2026-04-17T08:09:36Z</time></trkpt><trkpt lat="-24.21273163218384" lon="114.03177706837612"><ele>20.0</ele><time>2026-04-17T08:09:37Z</time></trkpt><trkpt lat="-24.21245415556743" lon="114.03184548995422"><ele>19.5</ele><time>2026-04-17T08:09:38Z</time></trkpt><trkpt lat="-24.212176606811642" lon="114.03191234203412"><ele>19.0</ele><time>2026-04-17T08:09:39Z</time></trkpt><trkpt lat="-24.21189880234244" lon="114.0319788175531"><ele>19.0</ele><time>2026-04-17T08:09:40Z</time></trkpt><trkpt lat="-24.211618414961993" lon="114.03204453556418"><ele>19.0</ele><time>2026-04-17T08:09:41Z</time></trkpt><trkpt lat="-24.211332978023822" lon="114.0321122268794"><ele>20.0</ele><time>2026-04-17T08:09:42.001Z</time></trkpt><trkpt lat="-24.211050849374008" lon="114.0321845636043"><ele>21.0</ele><time>2026-04-17T08:09:43.001Z</time></trkpt><trkpt lat="-24.21076739750413" lon="114.03225623222325"><ele>20.5</ele><time>2026-04-17T08:09:44.001Z</time></trkpt><trkpt lat="-24.2104879717644" lon="114.03232544820665"><ele>20.0</ele><time>2026-04-17T08:09:45.001Z</time></trkpt><trkpt lat="-24.210211803083173" lon="114.03239495506759"><ele>20.0</ele><time>2026-04-17T08:09:46.001Z</time></trkpt><trkpt lat="-24.20993390976696" lon="114.03246271915694"><ele>20.0</ele><time>2026-04-17T08:09:47.001Z</time></trkpt><trkpt lat="-24.209656864016225" lon="114.03252961071603"><ele>19.5</ele><time>2026-04-17T08:09:48.001Z</time></trkpt><trkpt lat="-24.209381900174346" lon="114.03259409565418"><ele>19.0</ele><time>2026-04-17T08:09:49.001Z</time></trkpt><trkpt lat="-24.20910661474258" lon="114.03266260231118"><ele>19.0</ele><time>2026-04-17T08:09:50.001Z</time></trkpt><trkpt lat="-24.20883358994705" lon="114.03273279895447"><ele>19.0</ele><time>2026-04-17T08:09:51.001Z</time></trkpt><trkpt lat="-24.208563464572805" lon="114.03279852881204"><ele>19.0</ele><time>2026-04-17T08:09:52.001Z</time></trkpt><trkpt lat="-24.20829237134245" lon="114.03286525178694"><ele>19.0</ele><time>2026-04-17T08:09:53.001Z</time></trkpt><trkpt lat="-24.208022566549197" lon="114.03292957457171"><ele>18.5</ele><time>2026-04-17T08:09:54.001Z</time></trkpt><trkpt lat="-24.207754321905465" lon="114.03299959629231"><ele>18.0</ele><time>2026-04-17T08:09:55.001Z</time></trkpt><trkpt lat="-24.20748857344635" lon="114.0330631906103"><ele>17.5</ele><time>2026-04-17T08:09:56.001Z</time></trkpt><trkpt lat="-24.20721950174819" lon="114.03312674892817"><ele>17.0</ele><time>2026-04-17T08:09:57.001Z</time></trkpt><trkpt lat="-24.20695170148737" lon="114.03319436197408"><ele>17.0</ele><time>2026-04-17T08:09:58Z</time></trkpt><trkpt lat="-24.206687482614345" lon="114.03326821118073"><ele>17.0</ele><time>2026-04-17T08:09:59Z</time></trkpt><trkpt lat="-24.206423994259637" lon="114.0333384295811"><ele>17.5</ele><time>2026-04-17T08:10:00Z</time></trkpt><trkpt lat="-24.206154673638242" lon="114.03340190496466"><ele>18.0</ele><time>2026-04-17T08:10:01Z</time></trkpt><trkpt lat="-24.20588279431288" lon="114.03346399652635"><ele>18.5</ele><time>2026-04-17T08:10:02Z</time></trkpt><trkpt lat="-24.205608461883287" lon="114.03353087501341"><ele>19.0</ele><time>2026-04-17T08:10:03Z</time></trkpt><trkpt lat="-24.20533135846409" lon="114.03359881231648"><ele>19.0</ele><time>2026-04-17T08:10:04Z</time></trkpt><trkpt lat="-24.20505551895369" lon="114.03366573150905"><ele>19.0</ele><time>2026-04-17T08:10:05Z</time></trkpt><trkpt lat="-24.20477482646778" lon="114.03373402117833"><ele>18.5</ele><time>2026-04-17T08:10:06Z</time></trkpt><trkpt lat="-24.204495149213585" lon="114.03380263165403"><ele>18.0</ele><time>2026-04-17T08:10:07Z</time></trkpt><trkpt lat="-24.204214871696838" lon="114.033874519819"><ele>18.0</ele><time>2026-04-17T08:10:08Z</time></trkpt><trkpt lat="-24.203932940979314" lon="114.03394582729959"><ele>18.0</ele><time>2026-04-17T08:10:09Z</time></trkpt><trkpt lat="-24.20364756486973" lon="114.034014737781"><ele>18.0</ele><time>2026-04-17T08:10:10Z</time></trkpt><trkpt lat="-24.203363813940804" lon="114.03408206500917"><ele>18.0</ele><time>2026-04-17T08:10:11Z</time></trkpt><trkpt lat="-24.20308029221609" lon="114.03415097300321"><ele>18.0</ele><time>2026-04-17T08:10:12Z</time></trkpt><trkpt lat="-24.202797421291745" lon="114.03422676223093"><ele>18.0</ele><time>2026-04-17T08:10:13Z</time></trkpt><trkpt lat="-24.202509711888737" lon="114.03430265870136"><ele>18.0</ele><time>2026-04-17T08:10:14Z</time></trkpt><trkpt lat="-24.202223971271724" lon="114.03437408939277"><ele>18.0</ele><time>2026-04-17T08:10:15Z</time></trkpt><trkpt lat="-24.201935909238983" lon="114.0344450433453"><ele>18.0</ele><time>2026-04-17T08:10:16Z</time></trkpt><trkpt lat="-24.20164799771275" lon="114.0345143577546"><ele>18.0</ele><time>2026-04-17T08:10:17Z</time></trkpt><trkpt lat="-24.201359398838935" lon="114.03458550978775"><ele>18.0</ele><time>2026-04-17T08:10:18Z</time></trkpt><trkpt lat="-24.201069262567476" lon="114.03465488659127"><ele>18.0</ele><time>2026-04-17T08:10:19Z</time></trkpt><trkpt lat="-24.20077476387083" lon="114.0347260643572"><ele>19.0</ele><time>2026-04-17T08:10:20Z</time></trkpt><trkpt lat="-24.20048600721011" lon="114.03479887399091"><ele>20.0</ele><time>2026-04-17T08:10:21Z</time></trkpt><trkpt lat="-24.200197278167177" lon="114.03487052851531"><ele>20.0</ele><time>2026-04-17T08:10:22Z</time></trkpt><trkpt lat="-24.199908931047382" lon="114.03494110745694"><ele>20.0</ele><time>2026-04-17T08:10:23Z</time></trkpt><trkpt lat="-24.199627097389218" lon="114.03500959111649"><ele>21.0</ele><time>2026-04-17T08:10:24Z</time></trkpt><trkpt lat="-24.199350494389588" lon="114.03507939823314"><ele>22.0</ele><time>2026-04-17T08:10:25Z</time></trkpt><trkpt lat="-24.199073625346227" lon="114.03514891196706"><ele>23.0</ele><time>2026-04-17T08:10:26Z</time></trkpt><trkpt lat="-24.19879862635635" lon="114.03521307850353"><ele>24.0</ele><time>2026-04-17T08:10:27Z</time></trkpt><trkpt lat="-24.198521786683532" lon="114.03527887053825"><ele>24.0</ele><time>2026-04-17T08:10:28Z</time></trkpt><trkpt lat="-24.198247625035908" lon="114.03534671205574"><ele>24.0</ele><time>2026-04-17T08:10:29Z</time></trkpt><trkpt lat="-24.197973924999662" lon="114.03541655937705"><ele>23.5</ele><time>2026-04-17T08:10:30Z</time></trkpt><trkpt lat="-24.197700052505986" lon="114.03548400101992"><ele>23.0</ele><time>2026-04-17T08:10:31Z</time></trkpt><trkpt lat="-24.19742174671502" lon="114.03555335918355"><ele>23.5</ele><time>2026-04-17T08:10:32Z</time></trkpt><trkpt lat="-24.197145807741936" lon="114.03562359546595"><ele>24.0</ele><time>2026-04-17T08:10:33Z</time></trkpt><trkpt lat="-24.19687009909771" lon="114.03569377932861"><ele>24.0</ele><time>2026-04-17T08:10:34Z</time></trkpt><trkpt lat="-24.196593408026313" lon="114.03576132318553"><ele>24.0</ele><time>2026-04-17T08:10:35Z</time></trkpt><trkpt lat="-24.196313502697645" lon="114.03582920555266"><ele>22.0</ele><time>2026-04-17T08:10:36Z</time></trkpt><trkpt lat="-24.196037052222593" lon="114.03589897863765"><ele>20.0</ele><time>2026-04-17T08:10:37Z</time></trkpt><trkpt lat="-24.195758083941453" lon="114.03597027610215"><ele>19.5</ele><time>2026-04-17T08:10:38Z</time></trkpt><trkpt lat="-24.195478715691753" lon="114.036042586824"><ele>19.0</ele><time>2026-04-17T08:10:39Z</time></trkpt><trkpt lat="-24.195198500789555" lon="114.0361125793329"><ele>19.0</ele><time>2026-04-17T08:10:40Z</time></trkpt><trkpt lat="-24.194913706134425" lon="114.03618018693997"><ele>19.0</ele><time>2026-04-17T08:10:41Z</time></trkpt><trkpt lat="-24.194629400416897" lon="114.03624721843316"><ele>19.0</ele><time>2026-04-17T08:10:42Z</time></trkpt><trkpt lat="-24.194347487153767" lon="114.03631534934905"><ele>19.0</ele><time>2026-04-17T08:10:43Z</time></trkpt><trkpt lat="-24.194065996066275" lon="114.0363845993233"><ele>17.5</ele><time>2026-04-17T08:10:44Z</time></trkpt><trkpt lat="-24.193785399140562" lon="114.0364552208297"><ele>16.0</ele><time>2026-04-17T08:10:45Z</time></trkpt><trkpt lat="-24.19350498024937" lon="114.03652688190283"><ele>16.0</ele><time>2026-04-17T08:10:46Z</time></trkpt><trkpt lat="-24.193225271187735" lon="114.03659682909395"><ele>16.0</ele><time>2026-04-17T08:10:47Z</time></trkpt><trkpt lat="-24.192940689055586" lon="114.03666829122727"><ele>16.0</ele><time>2026-04-17T08:10:48Z</time></trkpt><trkpt lat="-24.192657995191592" lon="114.03673728377144"><ele>16.0</ele><time>2026-04-17T08:10:49Z</time></trkpt><trkpt lat="-24.192372620978432" lon="114.03680803681797"><ele>16.5</ele><time>2026-04-17T08:10:50Z</time></trkpt><trkpt lat="-24.192089205695147" lon="114.03688084695618"><ele>17.0</ele><time>2026-04-17T08:10:51Z</time></trkpt><trkpt lat="-24.191803007773917" lon="114.03695380214212"><ele>17.0</ele><time>2026-04-17T08:10:52Z</time></trkpt><trkpt lat="-24.19151361114324" lon="114.03702723607095"><ele>17.0</ele><time>2026-04-17T08:10:53Z</time></trkpt><trkpt lat="-24.19122403854762" lon="114.03709978865476"><ele>17.0</ele><time>2026-04-17T08:10:54Z</time></trkpt><trkpt lat="-24.190934597087505" lon="114.03717202416901"><ele>17.0</ele><time>2026-04-17T08:10:55Z</time></trkpt><trkpt lat="-24.190639922579404" lon="114.03724527352325"><ele>17.0</ele><time>2026-04-17T08:10:56Z</time></trkpt><trkpt lat="-24.190347081382654" lon="114.03731204993703"><ele>17.0</ele><time>2026-04-17T08:10:57Z</time></trkpt><trkpt lat="-24.190055738445654" lon="114.03738075201889"><ele>17.0</ele><time>2026-04-17T08:10:58Z</time></trkpt><trkpt lat="-24.189766143867804" lon="114.03745275819415"><ele>17.0</ele><time>2026-04-17T08:10:59Z</time></trkpt><trkpt lat="-24.189478021484938" lon="114.03752821039896"><ele>16.5</ele><time>2026-04-17T08:11:00Z</time></trkpt><trkpt lat="-24.18918511916081" lon="114.03760009683293"><ele>16.0</ele><time>2026-04-17T08:11:01Z</time></trkpt><trkpt lat="-24.18889194262002" lon="114.03766973332526"><ele>16.0</ele><time>2026-04-17T08:11:02Z</time></trkpt><trkpt lat="-24.188599572309478" lon="114.0377423108596"><ele>16.0</ele><time>2026-04-17T08:11:03Z</time></trkpt><trkpt lat="-24.188310461528445" lon="114.03781195660412"><ele>15.5</ele><time>2026-04-17T08:11:04Z</time></trkpt><trkpt lat="-24.188021552616895" lon="114.03788423763332"><ele>15.0</ele><time>2026-04-17T08:11:05Z</time></trkpt><trkpt lat="-24.18773346212136" lon="114.03795967758042"><ele>15.0</ele><time>2026-04-17T08:11:06Z</time></trkpt><trkpt lat="-24.18744420870441" lon="114.03802971142183"><ele>15.0</ele><time>2026-04-17T08:11:07Z</time></trkpt><trkpt lat="-24.187155800729222" lon="114.03810014445193"><ele>15.5</ele><time>2026-04-17T08:11:08Z</time></trkpt><trkpt lat="-24.186871382965354" lon="114.03817055686575"><ele>16.0</ele><time>2026-04-17T08:11:09Z</time></trkpt><trkpt lat="-24.18658333301898" lon="114.03824287680868"><ele>16.5</ele><time>2026-04-17T08:11:10Z</time></trkpt><trkpt lat="-24.186300592638197" lon="114.03831154644247"><ele>17.0</ele><time>2026-04-17T08:11:11Z</time></trkpt><trkpt lat="-24.186011862543808" lon="114.03838003142346"><ele>17.0</ele><time>2026-04-17T08:11:12Z</time></trkpt><trkpt lat="-24.18572644151283" lon="114.03844879772684"><ele>17.0</ele><time>2026-04-17T08:11:13Z</time></trkpt><trkpt lat="-24.18544009012172" lon="114.03851987074272"><ele>17.0</ele><time>2026-04-17T08:11:14Z</time></trkpt><trkpt lat="-24.185154433223232" lon="114.03859373344662"><ele>17.0</ele><time>2026-04-17T08:11:15Z</time></trkpt><trkpt lat="-24.184868820408727" lon="114.03866789807428"><ele>18.5</ele><time>2026-04-17T08:11:16Z</time></trkpt><trkpt lat="-24.18457933246822" lon="114.03874217683119"><ele>20.0</ele><time>2026-04-17T08:11:17Z</time></trkpt><trkpt lat="-24.184286139818727" lon="114.03881481683482"><ele>20.0</ele><time>2026-04-17T08:11:18Z</time></trkpt><trkpt lat="-24.183997921750702" lon="114.03888481159065"><ele>20.0</ele><time>2026-04-17T08:11:19Z</time></trkpt><trkpt lat="-24.18370999629083" lon="114.03895677694143"><ele>20.0</ele><time>2026-04-17T08:11:20Z</time></trkpt><trkpt lat="-24.183423043749166" lon="114.0390297733497"><ele>20.0</ele><time>2026-04-17T08:11:21Z</time></trkpt><trkpt lat="-24.183131053021253" lon="114.03909955080285"><ele>21.5</ele><time>2026-04-17T08:11:22Z</time></trkpt><trkpt lat="-24.1828375289856" lon="114.03916799679064"><ele>23.0</ele><time>2026-04-17T08:11:23Z</time></trkpt><trkpt lat="-24.18254645822955" lon="114.03923780671332"><ele>23.0</ele><time>2026-04-17T08:11:24Z</time></trkpt><trkpt lat="-24.182255075334997" lon="114.03930960998765"><ele>23.0</ele><time>2026-04-17T08:11:25Z</time></trkpt><trkpt lat="-24.181964636734087" lon="114.03938478113828"><ele>23.0</ele><time>2026-04-17T08:11:26Z</time></trkpt><trkpt lat="-24.181674783889758" lon="114.0394598085213"><ele>23.0</ele><time>2026-04-17T08:11:27Z</time></trkpt><trkpt lat="-24.181386422625803" lon="114.03953386118211"><ele>22.0</ele><time>2026-04-17T08:11:28Z</time></trkpt><trkpt lat="-24.181092750729903" lon="114.0396074238822"><ele>21.0</ele><time>2026-04-17T08:11:29Z</time></trkpt><trkpt lat="-24.180798241985144" lon="114.0396800217997"><ele>21.0</ele><time>2026-04-17T08:11:30Z</time></trkpt><trkpt lat="-24.180503119785325" lon="114.03975280987743"><ele>21.0</ele><time>2026-04-17T08:11:31Z</time></trkpt><trkpt lat="-24.18021172245483" lon="114.03982503250751"><ele>21.0</ele><time>2026-04-17T08:11:32Z</time></trkpt><trkpt lat="-24.179919096595043" lon="114.0398971922011"><ele>21.0</ele><time>2026-04-17T08:11:33Z</time></trkpt><trkpt lat="-24.179627948853298" lon="114.0399686849629"><ele>20.5</ele><time>2026-04-17T08:11:34Z</time></trkpt><trkpt lat="-24.179336886598822" lon="114.04004010945222"><ele>20.0</ele><time>2026-04-17T08:11:35Z</time></trkpt><trkpt lat="-24.179046321990217" lon="114.04011117301519"><ele>20.5</ele><time>2026-04-17T08:11:36Z</time></trkpt><trkpt lat="-24.178751548243774" lon="114.04018224903203"><ele>21.0</ele><time>2026-04-17T08:11:37Z</time></trkpt><trkpt lat="-24.17845369323703" lon="114.04025619555817"><ele>20.5</ele><time>2026-04-17T08:11:38Z</time></trkpt><trkpt lat="-24.178158421633192" lon="114.04033261947325"><ele>20.0</ele><time>2026-04-17T08:11:39Z</time></trkpt><trkpt lat="-24.17786274399748" lon="114.04041314239261"><ele>20.0</ele><time>2026-04-17T08:11:40Z</time></trkpt><trkpt lat="-24.177569092291233" lon="114.04051021787373"><ele>20.0</ele><time>2026-04-17T08:11:41Z</time></trkpt><trkpt lat="-24.177278228944495" lon="114.04062197073128"><ele>20.5</ele><time>2026-04-17T08:11:42Z</time></trkpt><trkpt lat="-24.17699054530984" lon="114.04074979111567"><ele>21.0</ele><time>2026-04-17T08:11:43Z</time></trkpt><trkpt lat="-24.17670888160161" lon="114.04088565351616"><ele>22.0</ele><time>2026-04-17T08:11:44Z</time></trkpt><trkpt lat="-24.176432710060507" lon="114.04103057933392"><ele>23.0</ele><time>2026-04-17T08:11:45Z</time></trkpt><trkpt lat="-24.1761655962083" lon="114.04118884582235"><ele>23.0</ele><time>2026-04-17T08:11:46Z</time></trkpt><trkpt lat="-24.175901122655286" lon="114.04135405670559"><ele>23.0</ele><time>2026-04-17T08:11:47Z</time></trkpt><trkpt lat="-24.17563748636383" lon="114.04152521719017"><ele>22.5</ele><time>2026-04-17T08:11:48Z</time></trkpt><trkpt lat="-24.175378095929766" lon="114.04170123804187"><ele>22.0</ele><time>2026-04-17T08:11:49Z</time></trkpt><trkpt lat="-24.17512017765394" lon="114.04187804404249"><ele>22.0</ele><time>2026-04-17T08:11:50Z</time></trkpt><trkpt lat="-24.17486246079981" lon="114.04205348363493"><ele>22.0</ele><time>2026-04-17T08:11:51Z</time></trkpt><trkpt lat="-24.174607141775155" lon="114.04222606588431"><ele>22.0</ele><time>2026-04-17T08:11:52Z</time></trkpt><trkpt lat="-24.174351596145428" lon="114.04239900007194"><ele>22.0</ele><time>2026-04-17T08:11:53Z</time></trkpt><trkpt lat="-24.174099700282532" lon="114.04257090520535"><ele>22.0</ele><time>2026-04-17T08:11:54Z</time></trkpt><trkpt lat="-24.17384692051375" lon="114.04274255409501"><ele>22.0</ele><time>2026-04-17T08:11:55Z</time></trkpt><trkpt lat="-24.173597698784434" lon="114.04291318083727"><ele>22.0</ele><time>2026-04-17T08:11:56Z</time></trkpt><trkpt lat="-24.173345559047487" lon="114.04308355830129"><ele>22.0</ele><time>2026-04-17T08:11:57Z</time></trkpt><trkpt lat="-24.173093734085654" lon="114.0432518495323"><ele>21.0</ele><time>2026-04-17T08:11:58Z</time></trkpt><trkpt lat="-24.17284022833291" lon="114.0434218097246"><ele>20.0</ele><time>2026-04-17T08:11:59Z</time></trkpt><trkpt lat="-24.172588640569547" lon="114.04359459413284"><ele>21.0</ele><time>2026-04-17T08:12:00Z</time></trkpt><trkpt lat="-24.172335257430348" lon="114.04376961937123"><ele>22.0</ele><time>2026-04-17T08:12:01Z</time></trkpt><trkpt lat="-24.17208190965363" lon="114.04394288365293"><ele>22.0</ele><time>2026-04-17T08:12:02Z</time></trkpt><trkpt lat="-24.171826893712648" lon="114.0441173822622"><ele>22.0</ele><time>2026-04-17T08:12:03Z</time></trkpt><trkpt lat="-24.171572586710912" lon="114.04428905568602"><ele>22.5</ele><time>2026-04-17T08:12:04Z</time></trkpt><trkpt lat="-24.171317682382874" lon="114.0444616196738"><ele>23.0</ele><time>2026-04-17T08:12:05Z</time></trkpt><trkpt lat="-24.17106148326753" lon="114.04463466490395"><ele>23.0</ele><time>2026-04-17T08:12:06Z</time></trkpt><trkpt lat="-24.170805822417552" lon="114.04480722888123"><ele>23.0</ele><time>2026-04-17T08:12:07Z</time></trkpt><trkpt lat="-24.170550063057696" lon="114.04497728619042"><ele>21.5</ele><time>2026-04-17T08:12:08Z</time></trkpt><trkpt lat="-24.170295788192067" lon="114.04514439083856"><ele>20.0</ele><time>2026-04-17T08:12:09Z</time></trkpt><trkpt lat="-24.1700449270812" lon="114.04530978807172"><ele>21.5</ele><time>2026-04-17T08:12:10Z</time></trkpt><trkpt lat="-24.1697975743522" lon="114.04547602854984"><ele>23.0</ele><time>2026-04-17T08:12:11Z</time></trkpt><trkpt lat="-24.16955276091368" lon="114.04564256513666"><ele>23.0</ele><time>2026-04-17T08:12:12Z</time></trkpt><trkpt lat="-24.16931085504151" lon="114.04581133163843"><ele>23.0</ele><time>2026-04-17T08:12:13Z</time></trkpt><trkpt lat="-24.1690650687651" lon="114.04597834262151"><ele>22.5</ele><time>2026-04-17T08:12:14Z</time></trkpt><trkpt lat="-24.16881735929802" lon="114.04614604785301"><ele>22.0</ele><time>2026-04-17T08:12:15Z</time></trkpt><trkpt lat="-24.16856923840421" lon="114.04631727896"><ele>22.0</ele><time>2026-04-17T08:12:16Z</time></trkpt><trkpt lat="-24.16831725508176" lon="114.0464882100349"><ele>22.0</ele><time>2026-04-17T08:12:17Z</time></trkpt><trkpt lat="-24.168063577028637" lon="114.04666072698376"><ele>22.0</ele><time>2026-04-17T08:12:18Z</time></trkpt><trkpt lat="-24.167807611906888" lon="114.04683456984554"><ele>22.0</ele><time>2026-04-17T08:12:19Z</time></trkpt><trkpt lat="-24.16754903821457" lon="114.04700697688132"><ele>22.0</ele><time>2026-04-17T08:12:20Z</time></trkpt><trkpt lat="-24.167290634389133" lon="114.04717939206503"><ele>22.0</ele><time>2026-04-17T08:12:21Z</time></trkpt><trkpt lat="-24.167036733732953" lon="114.04735253216495"><ele>22.5</ele><time>2026-04-17T08:12:22Z</time></trkpt><trkpt lat="-24.166784589436062" lon="114.0475248343866"><ele>23.0</ele><time>2026-04-17T08:12:23Z</time></trkpt><trkpt lat="-24.166533375647365" lon="114.04769466002915"><ele>23.0</ele><time>2026-04-17T08:12:24Z</time></trkpt><trkpt lat="-24.1662851144299" lon="114.04786054876087"><ele>23.0</ele><time>2026-04-17T08:12:25Z</time></trkpt><trkpt lat="-24.16603584387094" lon="114.04802934975156"><ele>23.0</ele><time>2026-04-17T08:12:26Z</time></trkpt><trkpt lat="-24.165788746536478" lon="114.04819837507542"><ele>23.0</ele><time>2026-04-17T08:12:27Z</time></trkpt><trkpt lat="-24.165539947566415" lon="114.04836920681188"><ele>22.5</ele><time>2026-04-17T08:12:28Z</time></trkpt><trkpt lat="-24.165290068250258" lon="114.04853800000072"><ele>22.0</ele><time>2026-04-17T08:12:29Z</time></trkpt><trkpt lat="-24.165039164287034" lon="114.04870853378918"><ele>22.5</ele><time>2026-04-17T08:12:30Z</time></trkpt><trkpt lat="-24.164787722367517" lon="114.04887965250296"><ele>23.0</ele><time>2026-04-17T08:12:31Z</time></trkpt><trkpt lat="-24.164533487168363" lon="114.04905317240204"><ele>22.5</ele><time>2026-04-17T08:12:32Z</time></trkpt><trkpt lat="-24.164279300497846" lon="114.04922477264492"><ele>22.0</ele><time>2026-04-17T08:12:33Z</time></trkpt><trkpt lat="-24.16402640195728" lon="114.04939253248018"><ele>22.0</ele><time>2026-04-17T08:12:34Z</time></trkpt><trkpt lat="-24.163772384870345" lon="114.0495556653934"><ele>22.0</ele><time>2026-04-17T08:12:35Z</time></trkpt><trkpt lat="-24.16351371993721" lon="114.04970873814975"><ele>22.0</ele><time>2026-04-17T08:12:36Z</time></trkpt><trkpt lat="-24.16325059402892" lon="114.04985792563305"><ele>22.0</ele><time>2026-04-17T08:12:37Z</time></trkpt><trkpt lat="-24.162985318750014" lon="114.04999757931019"><ele>22.0</ele><time>2026-04-17T08:12:38Z</time></trkpt><trkpt lat="-24.162711416557244" lon="114.05012521685185"><ele>22.0</ele><time>2026-04-17T08:12:39Z</time></trkpt><trkpt lat="-24.162433789902185" lon="114.05023795789866"><ele>22.0</ele><time>2026-04-17T08:12:40Z</time></trkpt><trkpt lat="-24.162155044986747" lon="114.05034385665863"><ele>22.0</ele><time>2026-04-17T08:12:41Z</time></trkpt><trkpt lat="-24.161872913056577" lon="114.05044021292325"><ele>22.0</ele><time>2026-04-17T08:12:42Z</time></trkpt><trkpt lat="-24.16159111738286" lon="114.05051998088454"><ele>22.0</ele><time>2026-04-17T08:12:43Z</time></trkpt><trkpt lat="-24.161302712340245" lon="114.05059090725065"><ele>22.5</ele><time>2026-04-17T08:12:44Z</time></trkpt><trkpt lat="-24.16101384444038" lon="114.05065068443203"><ele>23.0</ele><time>2026-04-17T08:12:45Z</time></trkpt><trkpt lat="-24.160722813640263" lon="114.05069980258914"><ele>24.0</ele><time>2026-04-17T08:12:46Z</time></trkpt><trkpt lat="-24.160431909001982" lon="114.05073498291354"><ele>25.0</ele><time>2026-04-17T08:12:47Z</time></trkpt><trkpt lat="-24.160140475335457" lon="114.05076062893514"><ele>25.0</ele><time>2026-04-17T08:12:48Z</time></trkpt><trkpt lat="-24.159852390366634" lon="114.05077668316942"><ele>25.0</ele><time>2026-04-17T08:12:49Z</time></trkpt><trkpt lat="-24.159561862240352" lon="114.050783374242"><ele>25.0</ele><time>2026-04-17T08:12:50Z</time></trkpt><trkpt lat="-24.159271763520223" lon="114.05077755525808"><ele>25.0</ele><time>2026-04-17T08:12:51Z</time></trkpt><trkpt lat="-24.158984387348656" lon="114.05075805914919"><ele>25.0</ele><time>2026-04-17T08:12:52Z</time></trkpt><trkpt lat="-24.1586949042595" lon="114.05072798391701"><ele>25.0</ele><time>2026-04-17T08:12:53Z</time></trkpt><trkpt lat="-24.158407036914795" lon="114.05069422257398"><ele>24.5</ele><time>2026-04-17T08:12:54Z</time></trkpt><trkpt lat="-24.1581158128242" lon="114.05066032810504"><ele>24.0</ele><time>2026-04-17T08:12:55Z</time></trkpt><trkpt lat="-24.15782785474122" lon="114.05063340110893"><ele>24.0</ele><time>2026-04-17T08:12:56Z</time></trkpt><trkpt lat="-24.15753601676634" lon="114.05060963046347"><ele>24.0</ele><time>2026-04-17T08:12:57Z</time></trkpt><trkpt lat="-24.1572484807647" lon="114.05058671098132"><ele>24.0</ele><time>2026-04-17T08:12:58Z</time></trkpt><trkpt lat="-24.156958833462458" lon="114.05056347384203"><ele>24.0</ele><time>2026-04-17T08:12:59Z</time></trkpt><trkpt lat="-24.156670271609272" lon="114.05053730954798"><ele>23.5</ele><time>2026-04-17T08:13:00Z</time></trkpt><trkpt lat="-24.156382976501558" lon="114.0505116484105"><ele>23.0</ele><time>2026-04-17T08:13:01Z</time></trkpt><trkpt lat="-24.156097159694074" lon="114.05048722515791"><ele>23.0</ele><time>2026-04-17T08:13:02Z</time></trkpt><trkpt lat="-24.15581287360062" lon="114.05046212493927"><ele>23.0</ele><time>2026-04-17T08:13:03Z</time></trkpt><trkpt lat="-24.15552954180646" lon="114.05043880571078"><ele>22.0</ele><time>2026-04-17T08:13:04Z</time></trkpt><trkpt lat="-24.15524142395023" lon="114.05041695591963"><ele>21.0</ele><time>2026-04-17T08:13:05Z</time></trkpt><trkpt lat="-24.15495345486705" lon="114.05039365150144"><ele>21.0</ele><time>2026-04-17T08:13:06Z</time></trkpt><trkpt lat="-24.15466706605217" lon="114.05037215417563"><ele>21.0</ele><time>2026-04-17T08:13:07Z</time></trkpt><trkpt lat="-24.154382244444772" lon="114.05035196032242"><ele>21.0</ele><time>2026-04-17T08:13:08Z</time></trkpt><trkpt lat="-24.154099819438752" lon="114.05033849685287"><ele>21.0</ele><time>2026-04-17T08:13:09Z</time></trkpt><trkpt lat="-24.15381437047314" lon="114.05033042011287"><ele>21.5</ele><time>2026-04-17T08:13:10Z</time></trkpt><trkpt lat="-24.15352823962622" lon="114.05032581444114"><ele>22.0</ele><time>2026-04-17T08:13:11Z</time></trkpt><trkpt lat="-24.15324363971251" lon="114.05032283143578"><ele>21.5</ele><time>2026-04-17T08:13:12Z</time></trkpt><trkpt lat="-24.15295948810702" lon="114.05031823716529"><ele>21.0</ele><time>2026-04-17T08:13:13Z</time></trkpt><trkpt lat="-24.15267578646718" lon="114.05031413878072"><ele>21.0</ele><time>2026-04-17T08:13:14Z</time></trkpt><trkpt lat="-24.152397422505338" lon="114.05031284702817"><ele>21.0</ele><time>2026-04-17T08:13:15Z</time></trkpt><trkpt lat="-24.15211689258019" lon="114.05030917503157"><ele>20.0</ele><time>2026-04-17T08:13:16Z</time></trkpt><trkpt lat="-24.151836642405588" lon="114.05030403198592"><ele>19.0</ele><time>2026-04-17T08:13:17Z</time></trkpt><trkpt lat="-24.15155351512378" lon="114.05029945219879"><ele>19.5</ele><time>2026-04-17T08:13:18Z</time></trkpt><trkpt lat="-24.15127596497239" lon="114.0502971256439"><ele>20.0</ele><time>2026-04-17T08:13:19Z</time></trkpt><trkpt lat="-24.15099285573821" lon="114.05029756036434"><ele>20.0</ele><time>2026-04-17T08:13:20Z</time></trkpt><trkpt lat="-24.150709358475353" lon="114.05029718779372"><ele>20.0</ele><time>2026-04-17T08:13:21Z</time></trkpt><trkpt lat="-24.150426111156616" lon="114.05029345114389"><ele>20.0</ele><time>2026-04-17T08:13:22Z</time></trkpt><trkpt lat="-24.150142747616545" lon="114.05029085499378"><ele>20.0</ele><time>2026-04-17T08:13:23Z</time></trkpt><trkpt lat="-24.14985699693927" lon="114.05028710838239"><ele>19.0</ele><time>2026-04-17T08:13:24Z</time></trkpt><trkpt lat="-24.14956982634996" lon="114.05028254441713"><ele>18.0</ele><time>2026-04-17T08:13:25Z</time></trkpt><trkpt lat="-24.149283357943723" lon="114.05027840247985"><ele>18.0</ele><time>2026-04-17T08:13:26Z</time></trkpt><trkpt lat="-24.148996036976182" lon="114.05027583179604"><ele>18.0</ele><time>2026-04-17T08:13:27Z</time></trkpt><trkpt lat="-24.148710190224826" lon="114.05027543031356"><ele>18.0</ele><time>2026-04-17T08:13:28Z</time></trkpt><trkpt lat="-24.148439452712612" lon="114.05027538477921"><ele>18.0</ele><time>2026-04-17T08:13:29Z</time></trkpt><trkpt lat="-24.148179465812365" lon="114.05027114434385"><ele>19.0</ele><time>2026-04-17T08:13:30Z</time></trkpt><trkpt lat="-24.147922057737066" lon="114.05026606278402"><ele>20.0</ele><time>2026-04-17T08:13:31Z</time></trkpt><trkpt lat="-24.147659004636346" lon="114.05026224301506"><ele>20.0</ele><time>2026-04-17T08:13:32Z</time></trkpt><trkpt lat="-24.147399152256746" lon="114.05025863698016"><ele>20.0</ele><time>2026-04-17T08:13:33Z</time></trkpt><trkpt lat="-24.14713882435906" lon="114.05025472990262"><ele>19.0</ele><time>2026-04-17T08:13:34Z</time></trkpt><trkpt lat="-24.146881199595224" lon="114.05025210223398"><ele>18.0</ele><time>2026-04-17T08:13:35Z</time></trkpt><trkpt lat="-24.14662085929864" lon="114.05024901385589"><ele>19.0</ele><time>2026-04-17T08:13:36Z</time></trkpt><trkpt lat="-24.14635577285385" lon="114.05024796263653"><ele>20.0</ele><time>2026-04-17T08:13:37Z</time></trkpt><trkpt lat="-24.146086814820393" lon="114.05024717953019"><ele>20.0</ele><time>2026-04-17T08:13:38Z</time></trkpt><trkpt lat="-24.145819336059294" lon="114.05024353103082"><ele>20.0</ele><time>2026-04-17T08:13:39Z</time></trkpt><trkpt lat="-24.145550110609253" lon="114.0502388780698"><ele>20.0</ele><time>2026-04-17T08:13:40Z</time></trkpt><trkpt lat="-24.145280276634587" lon="114.0502319330129"><ele>20.0</ele><time>2026-04-17T08:13:41Z</time></trkpt><trkpt lat="-24.145010111489988" lon="114.05022854026197"><ele>20.0</ele><time>2026-04-17T08:13:42Z</time></trkpt><trkpt lat="-24.14473746871561" lon="114.05022542237957"><ele>20.0</ele><time>2026-04-17T08:13:43Z</time></trkpt><trkpt lat="-24.144463636274573" lon="114.0502236810833"><ele>20.0</ele><time>2026-04-17T08:13:44Z</time></trkpt><trkpt lat="-24.14419222229513" lon="114.05022419932133"><ele>20.0</ele><time>2026-04-17T08:13:45Z</time></trkpt><trkpt lat="-24.143919016871333" lon="114.05022447138447"><ele>20.5</ele><time>2026-04-17T08:13:46Z</time></trkpt><trkpt lat="-24.14364684788274" lon="114.05022444189746"><ele>21.0</ele><time>2026-04-17T08:13:47Z</time></trkpt><trkpt lat="-24.143367779369406" lon="114.0502210971959"><ele>19.5</ele><time>2026-04-17T08:13:48Z</time></trkpt><trkpt lat="-24.143086360000513" lon="114.05021997032543"><ele>18.0</ele><time>2026-04-17T08:13:49Z</time></trkpt><trkpt lat="-24.142804760539395" lon="114.05021554677575"><ele>18.0</ele><time>2026-04-17T08:13:50Z</time></trkpt><trkpt lat="-24.142521102513175" lon="114.05020921956275"><ele>18.0</ele><time>2026-04-17T08:13:51Z</time></trkpt><trkpt lat="-24.142236119532136" lon="114.05020328964517"><ele>19.5</ele><time>2026-04-17T08:13:52Z</time></trkpt><trkpt lat="-24.141949777356782" lon="114.05020238374502"><ele>21.0</ele><time>2026-04-17T08:13:53Z</time></trkpt><trkpt lat="-24.14166351950256" lon="114.05020034814784"><ele>21.0</ele><time>2026-04-17T08:13:54Z</time></trkpt><trkpt lat="-24.141377970214503" lon="114.05019713464962"><ele>21.0</ele><time>2026-04-17T08:13:55Z</time></trkpt><trkpt lat="-24.141093852995894" lon="114.0501940285069"><ele>21.0</ele><time>2026-04-17T08:13:56Z</time></trkpt><trkpt lat="-24.140807701120835" lon="114.05018853902274"><ele>21.0</ele><time>2026-04-17T08:13:57Z</time></trkpt><trkpt lat="-24.1405220549878" lon="114.05018681133679"><ele>20.5</ele><time>2026-04-17T08:13:58Z</time></trkpt><trkpt lat="-24.14023911119565" lon="114.05018622144499"><ele>20.0</ele><time>2026-04-17T08:13:59Z</time></trkpt><trkpt lat="-24.139959347626434" lon="114.05018760361605"><ele>20.0</ele><time>2026-04-17T08:14:00Z</time></trkpt><trkpt lat="-24.139678703615118" lon="114.05018577355784"><ele>20.0</ele><time>2026-04-17T08:14:01Z</time></trkpt><trkpt lat="-24.139397508974465" lon="114.0501828578212"><ele>20.0</ele><time>2026-04-17T08:14:02Z</time></trkpt><trkpt lat="-24.139118441660404" lon="114.05017882166811"><ele>20.0</ele><time>2026-04-17T08:14:03Z</time></trkpt><trkpt lat="-24.13883870363635" lon="114.05017369924025"><ele>20.5</ele><time>2026-04-17T08:14:04Z</time></trkpt><trkpt lat="-24.138558488393844" lon="114.05016746174272"><ele>21.0</ele><time>2026-04-17T08:14:05Z</time></trkpt><trkpt lat="-24.138277364157002" lon="114.05016428271013"><ele>21.0</ele><time>2026-04-17T08:14:06Z</time></trkpt><trkpt lat="-24.13799755946006" lon="114.05016399992662"><ele>21.0</ele><time>2026-04-17T08:14:07Z</time></trkpt><trkpt lat="-24.13771375790926" lon="114.05016164853238"><ele>21.0</ele><time>2026-04-17T08:14:08Z</time></trkpt><trkpt lat="-24.137434477128654" lon="114.05015936216067"><ele>21.0</ele><time>2026-04-17T08:14:09Z</time></trkpt><trkpt lat="-24.137156761828457" lon="114.05015768704162"><ele>20.5</ele><time>2026-04-17T08:14:10Z</time></trkpt><trkpt lat="-24.136878922575285" lon="114.0501559859434"><ele>20.0</ele><time>2026-04-17T08:14:11Z</time></trkpt><trkpt lat="-24.136601925335373" lon="114.0501522399636"><ele>20.5</ele><time>2026-04-17T08:14:12Z</time></trkpt><trkpt lat="-24.136321886281426" lon="114.0501472186591"><ele>21.0</ele><time>2026-04-17T08:14:13Z</time></trkpt><trkpt lat="-24.136044292338344" lon="114.05014151092041"><ele>21.0</ele><time>2026-04-17T08:14:14Z</time></trkpt><trkpt lat="-24.13576818854357" lon="114.05014013612426"><ele>21.0</ele><time>2026-04-17T08:14:15Z</time></trkpt><trkpt lat="-24.13548998130903" lon="114.05013406142771"><ele>21.0</ele><time>2026-04-17T08:14:16Z</time></trkpt><trkpt lat="-24.13521380874486" lon="114.05013022389244"><ele>21.0</ele><time>2026-04-17T08:14:17Z</time></trkpt><trkpt lat="-24.13493473007226" lon="114.05012792463167"><ele>20.5</ele><time>2026-04-17T08:14:18Z</time></trkpt><trkpt lat="-24.13465959162336" lon="114.05012788428961"><ele>20.0</ele><time>2026-04-17T08:14:19Z</time></trkpt><trkpt lat="-24.134379215382843" lon="114.05012820466048"><ele>20.0</ele><time>2026-04-17T08:14:20Z</time></trkpt><trkpt lat="-24.134092684688703" lon="114.05012763434704"><ele>20.0</ele><time>2026-04-17T08:14:21Z</time></trkpt><trkpt lat="-24.133802146564406" lon="114.05012720840944"><ele>19.5</ele><time>2026-04-17T08:14:22Z</time></trkpt><trkpt lat="-24.13351743572034" lon="114.05012607321231"><ele>19.0</ele><time>2026-04-17T08:14:23Z</time></trkpt><trkpt lat="-24.133225300174832" lon="114.05012382840535"><ele>19.0</ele><time>2026-04-17T08:14:24Z</time></trkpt><trkpt lat="-24.132923397647527" lon="114.05011783451876"><ele>19.0</ele><time>2026-04-17T08:14:25Z</time></trkpt><trkpt lat="-24.1326117930922" lon="114.05011133967815"><ele>19.0</ele><time>2026-04-17T08:14:26Z</time></trkpt><trkpt lat="-24.13229320389598" lon="114.05010749957644"><ele>19.0</ele><time>2026-04-17T08:14:27Z</time></trkpt><trkpt lat="-24.13197460782455" lon="114.05010440527558"><ele>19.0</ele><time>2026-04-17T08:14:28Z</time></trkpt><trkpt lat="-24.131656235180717" lon="114.05009974652239"><ele>19.0</ele><time>2026-04-17T08:14:29Z</time></trkpt><trkpt lat="-24.131338286538274" lon="114.05009349344387"><ele>19.0</ele><time>2026-04-17T08:14:30Z</time></trkpt><trkpt lat="-24.131020842373893" lon="114.05008982042527"><ele>19.0</ele><time>2026-04-17T08:14:31Z</time></trkpt><trkpt lat="-24.130704272395477" lon="114.05008788568853"><ele>19.5</ele><time>2026-04-17T08:14:32Z</time></trkpt><trkpt lat="-24.13038740807494" lon="114.05008485615423"><ele>20.0</ele><time>2026-04-17T08:14:33Z</time></trkpt><trkpt lat="-24.130071974530335" lon="114.0500827434021"><ele>20.0</ele><time>2026-04-17T08:14:34Z</time></trkpt><trkpt lat="-24.129758639518517" lon="114.05008034774845"><ele>20.0</ele><time>2026-04-17T08:14:35Z</time></trkpt><trkpt lat="-24.12944508762345" lon="114.05007762637361"><ele>20.0</ele><time>2026-04-17T08:14:36Z</time></trkpt><trkpt lat="-24.12912741130346" lon="114.05007637377672"><ele>20.0</ele><time>2026-04-17T08:14:37Z</time></trkpt><trkpt lat="-24.128810184236762" lon="114.05007319748182"><ele>20.5</ele><time>2026-04-17T08:14:38Z</time></trkpt><trkpt lat="-24.128490257161136" lon="114.05006961205926"><ele>21.0</ele><time>2026-04-17T08:14:39Z</time></trkpt><trkpt lat="-24.128171108042494" lon="114.05006586272799"><ele>21.0</ele><time>2026-04-17T08:14:40Z</time></trkpt><trkpt lat="-24.12784644813906" lon="114.05006428839853"><ele>21.0</ele><time>2026-04-17T08:14:41Z</time></trkpt><trkpt lat="-24.127524615819006" lon="114.05005880756302"><ele>20.5</ele><time>2026-04-17T08:14:42Z</time></trkpt><trkpt lat="-24.12720476074502" lon="114.05005407981656"><ele>20.0</ele><time>2026-04-17T08:14:43Z</time></trkpt><trkpt lat="-24.12688358661309" lon="114.05005045493088"><ele>20.0</ele><time>2026-04-17T08:14:44Z</time></trkpt><trkpt lat="-24.126564748184144" lon="114.05004770828876"><ele>20.0</ele><time>2026-04-17T08:14:45Z</time></trkpt><trkpt lat="-24.126248566770844" lon="114.05004561437168"><ele>19.5</ele><time>2026-04-17T08:14:46Z</time></trkpt><trkpt lat="-24.125929151637965" lon="114.05004573726443"><ele>19.0</ele><time>2026-04-17T08:14:47Z</time></trkpt><trkpt lat="-24.125613446709213" lon="114.05004320552428"><ele>18.5</ele><time>2026-04-17T08:14:48Z</time></trkpt><trkpt lat="-24.125299153787484" lon="114.05004104629657"><ele>18.0</ele><time>2026-04-17T08:14:49Z</time></trkpt><trkpt lat="-24.12498543022621" lon="114.05003897430343"><ele>18.5</ele><time>2026-04-17T08:14:50Z</time></trkpt><trkpt lat="-24.1246771032206" lon="114.05003700267984"><ele>19.0</ele><time>2026-04-17T08:14:51Z</time></trkpt><trkpt lat="-24.124371190206414" lon="114.05003709443272"><ele>19.0</ele><time>2026-04-17T08:14:52Z</time></trkpt><trkpt lat="-24.124063117488095" lon="114.05003681581763"><ele>19.0</ele><time>2026-04-17T08:14:53Z</time></trkpt><trkpt lat="-24.12375522164139" lon="114.05003289339193"><ele>19.0</ele><time>2026-04-17T08:14:54Z</time></trkpt><trkpt lat="-24.123444102938162" lon="114.05002602385507"><ele>19.0</ele><time>2026-04-17T08:14:55Z</time></trkpt><trkpt lat="-24.123133869197115" lon="114.05002088697697"><ele>19.0</ele><time>2026-04-17T08:14:56Z</time></trkpt><trkpt lat="-24.12282335124606" lon="114.05001742118353"><ele>19.0</ele><time>2026-04-17T08:14:57Z</time></trkpt><trkpt lat="-24.122510293278896" lon="114.05001291217684"><ele>18.0</ele><time>2026-04-17T08:14:58Z</time></trkpt><trkpt lat="-24.12220074196378" lon="114.05001005633778"><ele>17.0</ele><time>2026-04-17T08:14:59Z</time></trkpt><trkpt lat="-24.121896229876253" lon="114.05000892497897"><ele>17.0</ele><time>2026-04-17T08:15:00Z</time></trkpt><trkpt lat="-24.12158635698193" lon="114.05000619011109"><ele>17.0</ele><time>2026-04-17T08:15:01Z</time></trkpt><trkpt lat="-24.12127742220619" lon="114.05000160646098"><ele>17.5</ele><time>2026-04-17T08:15:02Z</time></trkpt><trkpt lat="-24.12096811633615" lon="114.04999710317043"><ele>18.0</ele><time>2026-04-17T08:15:03Z</time></trkpt><trkpt lat="-24.120658338573833" lon="114.04999239863383"><ele>18.0</ele><time>2026-04-17T08:15:04Z</time></trkpt><trkpt lat="-24.120350556483288" lon="114.04999020739724"><ele>18.0</ele><time>2026-04-17T08:15:05Z</time></trkpt><trkpt lat="-24.12004418079051" lon="114.04999217647233"><ele>18.0</ele><time>2026-04-17T08:15:06Z</time></trkpt><trkpt lat="-24.1197399624984" lon="114.04999112352708"><ele>18.0</ele><time>2026-04-17T08:15:07Z</time></trkpt><trkpt lat="-24.119432125792287" lon="114.04998693435711"><ele>18.0</ele><time>2026-04-17T08:15:08Z</time></trkpt><trkpt lat="-24.119123235067295" lon="114.04997991247062"><ele>18.0</ele><time>2026-04-17T08:15:09Z</time></trkpt><trkpt lat="-24.11881387319154" lon="114.04997648781227"><ele>18.0</ele><time>2026-04-17T08:15:10Z</time></trkpt><trkpt lat="-24.11850284940194" lon="114.04997130268865"><ele>18.0</ele><time>2026-04-17T08:15:11Z</time></trkpt><trkpt lat="-24.11819127906563" lon="114.04996599773627"><ele>18.0</ele><time>2026-04-17T08:15:12Z</time></trkpt><trkpt lat="-24.117875368199254" lon="114.04996342317463"><ele>18.0</ele><time>2026-04-17T08:15:13Z</time></trkpt><trkpt lat="-24.117557693027713" lon="114.04996012770088"><ele>17.5</ele><time>2026-04-17T08:15:14Z</time></trkpt><trkpt lat="-24.117239898877926" lon="114.04995689378158"><ele>17.0</ele><time>2026-04-17T08:15:15Z</time></trkpt><trkpt lat="-24.116925971177196" lon="114.04995504201543"><ele>17.0</ele><time>2026-04-17T08:15:16Z</time></trkpt><trkpt lat="-24.116608726617354" lon="114.04995079418511"><ele>17.0</ele><time>2026-04-17T08:15:17Z</time></trkpt><trkpt lat="-24.116292377299168" lon="114.04995025459438"><ele>17.0</ele><time>2026-04-17T08:15:18Z</time></trkpt><trkpt lat="-24.115976939429334" lon="114.04994872844365"><ele>17.0</ele><time>2026-04-17T08:15:19Z</time></trkpt><trkpt lat="-24.115660019132584" lon="114.04994475892133"><ele>17.0</ele><time>2026-04-17T08:15:20Z</time></trkpt><trkpt lat="-24.115342959610135" lon="114.0499371821146"><ele>17.0</ele><time>2026-04-17T08:15:21Z</time></trkpt><trkpt lat="-24.115023352768823" lon="114.04993204051068"><ele>18.0</ele><time>2026-04-17T08:15:22Z</time></trkpt><trkpt lat="-24.114704456278687" lon="114.04993093828598"><ele>19.0</ele><time>2026-04-17T08:15:23Z</time></trkpt><trkpt lat="-24.114388327437656" lon="114.04993069844545"><ele>19.0</ele><time>2026-04-17T08:15:24Z</time></trkpt><trkpt lat="-24.114073371321354" lon="114.04992854632061"><ele>19.0</ele><time>2026-04-17T08:15:25Z</time></trkpt><trkpt lat="-24.113758409420832" lon="114.04992684539465"><ele>19.0</ele><time>2026-04-17T08:15:26Z</time></trkpt><trkpt lat="-24.11344434251738" lon="114.04992464620636"><ele>19.0</ele><time>2026-04-17T08:15:27Z</time></trkpt><trkpt lat="-24.113132307012734" lon="114.0499244626372"><ele>18.0</ele><time>2026-04-17T08:15:28Z</time></trkpt><trkpt lat="-24.1128209982821" lon="114.04992280501489"><ele>17.0</ele><time>2026-04-17T08:15:29Z</time></trkpt><trkpt lat="-24.112511886261515" lon="114.04991256906268"><ele>17.5</ele><time>2026-04-17T08:15:30Z</time></trkpt><trkpt lat="-24.11220387359836" lon="114.04989698121862"><ele>18.0</ele><time>2026-04-17T08:15:31Z</time></trkpt><trkpt lat="-24.111897780914784" lon="114.04986953062158"><ele>18.0</ele><time>2026-04-17T08:15:32Z</time></trkpt><trkpt lat="-24.111592226838575" lon="114.04982425631174"><ele>18.0</ele><time>2026-04-17T08:15:33Z</time></trkpt><trkpt lat="-24.111288162356836" lon="114.04976435595377"><ele>18.5</ele><time>2026-04-17T08:15:34Z</time></trkpt><trkpt lat="-24.110989113014956" lon="114.04969470461381"><ele>19.0</ele><time>2026-04-17T08:15:35Z</time></trkpt><trkpt lat="-24.110689369010036" lon="114.04961715929032"><ele>17.5</ele><time>2026-04-17T08:15:36Z</time></trkpt><trkpt lat="-24.110393071440516" lon="114.04953501329292"><ele>16.0</ele><time>2026-04-17T08:15:37Z</time></trkpt><trkpt lat="-24.110093257053688" lon="114.04944725998891"><ele>17.0</ele><time>2026-04-17T08:15:38Z</time></trkpt><trkpt lat="-24.109791012532952" lon="114.04935963945437"><ele>18.0</ele><time>2026-04-17T08:15:39Z</time></trkpt><trkpt lat="-24.109485630315593" lon="114.04927690266534"><ele>18.0</ele><time>2026-04-17T08:15:40Z</time></trkpt><trkpt lat="-24.109181309837727" lon="114.04919860557996"><ele>18.0</ele><time>2026-04-17T08:15:41Z</time></trkpt><trkpt lat="-24.108879368957883" lon="114.04912339197774"><ele>17.5</ele><time>2026-04-17T08:15:42Z</time></trkpt><trkpt lat="-24.10857771065105" lon="114.04904717023294"><ele>17.0</ele><time>2026-04-17T08:15:43Z</time></trkpt><trkpt lat="-24.10827940151203" lon="114.04897031814896"><ele>17.0</ele><time>2026-04-17T08:15:44Z</time></trkpt><trkpt lat="-24.10798224360075" lon="114.04889078661711"><ele>17.0</ele><time>2026-04-17T08:15:45Z</time></trkpt><trkpt lat="-24.10768164089017" lon="114.04881158562168"><ele>17.5</ele><time>2026-04-17T08:15:46Z</time></trkpt><trkpt lat="-24.107380820749444" lon="114.04873471009816"><ele>18.0</ele><time>2026-04-17T08:15:47Z</time></trkpt><trkpt lat="-24.10707943052237" lon="114.04865846403708"><ele>18.0</ele><time>2026-04-17T08:15:48Z</time></trkpt><trkpt lat="-24.10678086073189" lon="114.04858167993532"><ele>18.0</ele><time>2026-04-17T08:15:49Z</time></trkpt><trkpt lat="-24.106482617317923" lon="114.04850163863797"><ele>18.5</ele><time>2026-04-17T08:15:50Z</time></trkpt><trkpt lat="-24.10618279806776" lon="114.04842268520775"><ele>19.0</ele><time>2026-04-17T08:15:51Z</time></trkpt><trkpt lat="-24.105882857481532" lon="114.04834370796243"><ele>17.5</ele><time>2026-04-17T08:15:52Z</time></trkpt><trkpt lat="-24.105581932651976" lon="114.04826477526406"><ele>16.0</ele><time>2026-04-17T08:15:53Z</time></trkpt><trkpt lat="-24.105281131831163" lon="114.04818483508035"><ele>16.0</ele><time>2026-04-17T08:15:54Z</time></trkpt><trkpt lat="-24.10497830366184" lon="114.04810594776819"><ele>16.0</ele><time>2026-04-17T08:15:55Z</time></trkpt><trkpt lat="-24.104674739240554" lon="114.04802694043526"><ele>26.0</ele><time>2026-04-17T08:15:56Z</time></trkpt><trkpt lat="-24.305458071455725" lon="114.04444584723564"><ele>26.0</ele><time>2026-04-17T08:04:08.999Z</time></trkpt><trkpt lat="-24.305217556832567" lon="114.04458555300316"><ele>26.0</ele><time>2026-04-17T08:04:09.999Z</time></trkpt><trkpt lat="-24.304975607267462" lon="114.04472144343914"><ele>26.0</ele><time>2026-04-17T08:04:10.999Z</time></trkpt><trkpt lat="-24.30473446181784" lon="114.04485440733247"><ele>26.0</ele><time>2026-04-17T08:04:11.999Z</time></trkpt><trkpt lat="-24.304483237021362" lon="114.04498355799991"><ele>24.5</ele><time>2026-04-17T08:04:12.999Z</time></trkpt><trkpt lat="-24.304234767400153" lon="114.04510631226199"><ele>23.0</ele><time>2026-04-17T08:04:13.999Z</time></trkpt><trkpt lat="-24.303979119460415" lon="114.0452186770562"><ele>23.5</ele><time>2026-04-17T08:04:14.999Z</time></trkpt><trkpt lat="-24.30371909352673" lon="114.04532007649985"><ele>24.0</ele><time>2026-04-17T08:04:15.999Z</time></trkpt><trkpt lat="-24.30345261670864" lon="114.04541043338904"><ele>24.0</ele><time>2026-04-17T08:04:16.999Z</time></trkpt><trkpt lat="-24.303179369180945" lon="114.04549012759728"><ele>24.0</ele><time>2026-04-17T08:04:17.999Z</time></trkpt><trkpt lat="-24.302902434186436" lon="114.04556068014216"><ele>24.0</ele><time>2026-04-17T08:04:18.999Z</time></trkpt><trkpt lat="-24.30262000567052" lon="114.04562358690352"><ele>24.0</ele><time>2026-04-17T08:04:19.999Z</time></trkpt><trkpt lat="-24.30233601212121" lon="114.04568010101303"><ele>23.5</ele><time>2026-04-17T08:04:20.999Z</time></trkpt><trkpt lat="-24.30205107349109" lon="114.04572695286757"><ele>23.0</ele><time>2026-04-17T08:04:21.999Z</time></trkpt><trkpt lat="-24.301765955921052" lon="114.04576306883546"><ele>23.0</ele><time>2026-04-17T08:04:22.999Z</time></trkpt><trkpt lat="-24.301483049304636" lon="114.0457857175149"><ele>23.0</ele><time>2026-04-17T08:04:23.999Z</time></trkpt><trkpt lat="-24.301197225205616" lon="114.04579394290413"><ele>22.5</ele><time>2026-04-17T08:04:24.999Z</time></trkpt><trkpt lat="-24.30091353591373" lon="114.04579065186621"><ele>22.0</ele><time>2026-04-17T08:04:25.999Z</time></trkpt><trkpt lat="-24.300626666399687" lon="114.04577653530664"><ele>22.5</ele><time>2026-04-17T08:04:26.999Z</time></trkpt><trkpt lat="-24.300340736531602" lon="114.04575426466371"><ele>23.0</ele><time>2026-04-17T08:04:27.999Z</time></trkpt><trkpt lat="-24.300056857362264" lon="114.04572370645248"><ele>23.0</ele><time>2026-04-17T08:04:28.999Z</time></trkpt><trkpt lat="-24.299773811486187" lon="114.04568302124775"><ele>23.0</ele><time>2026-04-17T08:04:29.999Z</time></trkpt><trkpt lat="-24.299492510067836" lon="114.0456297282856"><ele>22.5</ele><time>2026-04-17T08:04:30.999Z</time></trkpt><trkpt lat="-24.299209458347658" lon="114.0455680516333"><ele>22.0</ele><time>2026-04-17T08:04:31.999Z</time></trkpt><trkpt lat="-24.298925140569732" lon="114.04550467602652"><ele>22.0</ele><time>2026-04-17T08:04:32.999Z</time></trkpt><trkpt lat="-24.298642723607237" lon="114.04544621360112"><ele>22.0</ele><time>2026-04-17T08:04:33.999Z</time></trkpt><trkpt lat="-24.298365279505106" lon="114.04539204265218"><ele>22.0</ele><time>2026-04-17T08:04:34.999Z</time></trkpt><trkpt lat="-24.298105134465892" lon="114.04534472808538"><ele>22.0</ele><time>2026-04-17T08:04:35.999Z</time></trkpt><trkpt lat="-24.2978665253757" lon="114.04529974151461"><ele>22.0</ele><time>2026-04-17T08:04:36.999Z</time></trkpt><trkpt lat="-24.297620168029454" lon="114.04525431303007"><ele>22.0</ele><time>2026-04-17T08:04:37.999Z</time></trkpt><trkpt lat="-24.29736193857099" lon="114.04520693212098"><ele>22.0</ele><time>2026-04-17T08:04:38.999Z</time></trkpt><trkpt lat="-24.29709957321143" lon="114.04515886222079"><ele>22.0</ele><time>2026-04-17T08:04:39.999Z</time></trkpt><trkpt lat="-24.296828210848123" lon="114.04510391217485"><ele>22.0</ele><time>2026-04-17T08:04:40.999Z</time></trkpt><trkpt lat="-24.29655438262109" lon="114.04504800621423"><ele>22.0</ele><time>2026-04-17T08:04:41.999Z</time></trkpt><trkpt lat="-24.296278645437614" lon="114.0449903975166"><ele>22.0</ele><time>2026-04-17T08:04:42.999Z</time></trkpt><trkpt lat="-24.29599989312849" lon="114.04493578292214"><ele>22.0</ele><time>2026-04-17T08:04:43.999Z</time></trkpt><trkpt lat="-24.295717376588815" lon="114.04488130408664"><ele>22.0</ele><time>2026-04-17T08:04:44.999Z</time></trkpt><trkpt lat="-24.295436437883982" lon="114.04482635564881"><ele>22.0</ele><time>2026-04-17T08:04:45.999Z</time></trkpt><trkpt lat="-24.295153074024807" lon="114.04477145099027"><ele>22.0</ele><time>2026-04-17T08:04:46.999Z</time></trkpt><trkpt lat="-24.29486833362171" lon="114.04471818523798"><ele>22.0</ele><time>2026-04-17T08:04:47.999Z</time></trkpt><trkpt lat="-24.294585149404437" lon="114.04466443555995"><ele>22.5</ele><time>2026-04-17T08:04:48.999Z</time></trkpt><trkpt lat="-24.29430389178568" lon="114.04461262721239"><ele>23.0</ele><time>2026-04-17T08:04:49.999Z</time></trkpt><trkpt lat="-24.294021482909073" lon="114.0445619910654"><ele>23.0</ele><time>2026-04-17T08:04:50.999Z</time></trkpt><trkpt lat="-24.29374098700816" lon="114.0445116105059"><ele>23.0</ele><time>2026-04-17T08:04:51.999Z</time></trkpt><trkpt lat="-24.29345895321819" lon="114.04445861637235"><ele>23.0</ele><time>2026-04-17T08:04:52.999Z</time></trkpt><trkpt lat="-24.293178148800894" lon="114.044405194682"><ele>23.0</ele><time>2026-04-17T08:04:53.999Z</time></trkpt><trkpt lat="-24.292896225021263" lon="114.04434840244068"><ele>23.0</ele><time>2026-04-17T08:04:54.999Z</time></trkpt><trkpt lat="-24.292613682228613" lon="114.04429158823604"><ele>23.0</ele><time>2026-04-17T08:04:55.999Z</time></trkpt><trkpt lat="-24.292329319621" lon="114.04423687251108"><ele>23.0</ele><time>2026-04-17T08:04:56.999Z</time></trkpt><trkpt lat="-24.29204661806176" lon="114.04419306903436"><ele>23.0</ele><time>2026-04-17T08:04:57.999Z</time></trkpt><trkpt lat="-24.29176451043912" lon="114.04415537523272"><ele>22.5</ele><time>2026-04-17T08:04:58.999Z</time></trkpt><trkpt lat="-24.29148031881523" lon="114.0441213327848"><ele>22.0</ele><time>2026-04-17T08:04:59.999Z</time></trkpt><trkpt lat="-24.291194789042155" lon="114.04409224809986"><ele>21.0</ele><time>2026-04-17T08:05:00.999Z</time></trkpt><trkpt lat="-24.290910670953796" lon="114.04406844434219"><ele>20.0</ele><time>2026-04-17T08:05:01.999Z</time></trkpt><trkpt lat="-24.290625055501867" lon="114.0440451145645"><ele>20.5</ele><time>2026-04-17T08:05:02.999Z</time></trkpt><trkpt lat="-24.29034059700813" lon="114.04402074509446"><ele>21.0</ele><time>2026-04-17T08:05:03.999Z</time></trkpt><trkpt lat="-24.29005503798443" lon="114.04399370626192"><ele>21.0</ele><time>2026-04-17T08:05:04.999Z</time></trkpt><trkpt lat="-24.289769183402527" lon="114.04396630984525"><ele>21.0</ele><time>2026-04-17T08:05:05.999Z</time></trkpt><trkpt lat="-24.28948251690912" lon="114.04393949587245"><ele>21.0</ele><time>2026-04-17T08:05:06.999Z</time></trkpt><trkpt lat="-24.289199333567197" lon="114.0439143110263"><ele>21.0</ele><time>2026-04-17T08:05:07.999Z</time></trkpt><trkpt lat="-24.2889115286839" lon="114.04388778527643"><ele>21.5</ele><time>2026-04-17T08:05:08.999Z</time></trkpt><trkpt lat="-24.288624583858308" lon="114.0438653409376"><ele>22.0</ele><time>2026-04-17T08:05:09.999Z</time></trkpt><trkpt lat="-24.288335095331536" lon="114.04384298129705"><ele>22.0</ele><time>2026-04-17T08:05:10.999Z</time></trkpt><trkpt lat="-24.2880427981496" lon="114.04381606915604"><ele>22.0</ele><time>2026-04-17T08:05:11.999Z</time></trkpt><trkpt lat="-24.28775119808952" lon="114.04378791725702"><ele>22.0</ele><time>2026-04-17T08:05:12.999Z</time></trkpt><trkpt lat="-24.287460004285116" lon="114.04375938306302"><ele>22.0</ele><time>2026-04-17T08:05:13.999Z</time></trkpt><trkpt lat="-24.287167490915646" lon="114.04373294932772"><ele>21.0</ele><time>2026-04-17T08:05:14.999Z</time></trkpt><trkpt lat="-24.286873989644217" lon="114.04370931448548"><ele>20.0</ele><time>2026-04-17T08:05:15.999Z</time></trkpt><trkpt lat="-24.286579914322665" lon="114.04369364170583"><ele>20.0</ele><time>2026-04-17T08:05:16.999Z</time></trkpt><trkpt lat="-24.28628414380322" lon="114.04368671659518"><ele>20.0</ele><time>2026-04-17T08:05:17.999Z</time></trkpt><trkpt lat="-24.28598740731623" lon="114.04368711893002"><ele>20.0</ele><time>2026-04-17T08:05:18.999Z</time></trkpt><trkpt lat="-24.2856909815853" lon="114.04369236434418"><ele>20.0</ele><time>2026-04-17T08:05:19.999Z</time></trkpt><trkpt lat="-24.285392439721917" lon="114.0437023733231"><ele>20.0</ele><time>2026-04-17T08:05:20.999Z</time></trkpt><trkpt lat="-24.28509164305371" lon="114.04371809894755"><ele>20.0</ele><time>2026-04-17T08:05:21.999Z</time></trkpt><trkpt lat="-24.284789403968986" lon="114.04373265382578"><ele>19.0</ele><time>2026-04-17T08:05:22.999Z</time></trkpt><trkpt lat="-24.284486179937986" lon="114.04374746442474"><ele>18.0</ele><time>2026-04-17T08:05:23.999Z</time></trkpt><trkpt lat="-24.284181004862614" lon="114.04376018243315"><ele>18.0</ele><time>2026-04-17T08:05:24.999Z</time></trkpt><trkpt lat="-24.28387377706999" lon="114.04377308411772"><ele>18.0</ele><time>2026-04-17T08:05:25.999Z</time></trkpt><trkpt lat="-24.283569045756327" lon="114.0437882602479"><ele>18.0</ele><time>2026-04-17T08:05:26.999Z</time></trkpt><trkpt lat="-24.28326579919388" lon="114.04380632399412"><ele>18.0</ele><time>2026-04-17T08:05:27.999Z</time></trkpt><trkpt lat="-24.282964720982463" lon="114.04382476424888"><ele>19.0</ele><time>2026-04-17T08:05:28.999Z</time></trkpt><trkpt lat="-24.282658606583606" lon="114.04384278509062"><ele>20.0</ele><time>2026-04-17T08:05:29.999Z</time></trkpt><trkpt lat="-24.28235914088589" lon="114.04385865208252"><ele>20.5</ele><time>2026-04-17T08:05:30.999Z</time></trkpt><trkpt lat="-24.282060349217407" lon="114.0438737308239"><ele>21.0</ele><time>2026-04-17T08:05:31.999Z</time></trkpt><trkpt lat="-24.28176085422607" lon="114.04388856001782"><ele>21.0</ele><time>2026-04-17T08:05:32.999Z</time></trkpt><trkpt lat="-24.28146439663542" lon="114.04390654893105"><ele>21.0</ele><time>2026-04-17T08:05:33.999Z</time></trkpt><trkpt lat="-24.281168695090603" lon="114.04392581027022"><ele>21.5</ele><time>2026-04-17T08:05:34.999Z</time></trkpt><trkpt lat="-24.28087280401434" lon="114.04394211086037"><ele>22.0</ele><time>2026-04-17T08:05:36Z</time></trkpt><trkpt lat="-24.280572480365613" lon="114.04395738432858"><ele>22.0</ele><time>2026-04-17T08:05:37Z</time></trkpt><trkpt lat="-24.280273945443664" lon="114.04397217735074"><ele>22.0</ele><time>2026-04-17T08:05:38Z</time></trkpt><trkpt lat="-24.27997009724311" lon="114.04398717667317"><ele>21.5</ele><time>2026-04-17T08:05:39Z</time></trkpt><trkpt lat="-24.279668181000567" lon="114.04400098925247"><ele>21.0</ele><time>2026-04-17T08:05:40Z</time></trkpt><trkpt lat="-24.279365381194737" lon="114.04401443793185"><ele>21.0</ele><time>2026-04-17T08:05:41Z</time></trkpt><trkpt lat="-24.27906636240346" lon="114.04403123803348"><ele>21.0</ele><time>2026-04-17T08:05:42Z</time></trkpt><trkpt lat="-24.278760543136983" lon="114.04404778179862"><ele>21.0</ele><time>2026-04-17T08:05:43Z</time></trkpt><trkpt lat="-24.278459965570068" lon="114.04405927211847"><ele>21.0</ele><time>2026-04-17T08:05:44Z</time></trkpt><trkpt lat="-24.27817634414128" lon="114.04406569183044"><ele>21.0</ele><time>2026-04-17T08:05:45Z</time></trkpt><trkpt lat="-24.277909787263958" lon="114.04406902674428"><ele>21.0</ele><time>2026-04-17T08:05:46Z</time></trkpt><trkpt lat="-24.277638588875895" lon="114.04406990807728"><ele>21.0</ele><time>2026-04-17T08:05:47Z</time></trkpt><trkpt lat="-24.27736076163633" lon="114.0440643447571"><ele>21.0</ele><time>2026-04-17T08:05:48Z</time></trkpt><trkpt lat="-24.277079257203717" lon="114.04405020501713"><ele>20.5</ele><time>2026-04-17T08:05:49Z</time></trkpt><trkpt lat="-24.276796937843372" lon="114.04402766636149"><ele>20.0</ele><time>2026-04-17T08:05:50Z</time></trkpt><trkpt lat="-24.276511781701295" lon="114.0439964104428"><ele>21.0</ele><time>2026-04-17T08:05:51Z</time></trkpt><trkpt lat="-24.276226354348612" lon="114.0439607260402"><ele>22.0</ele><time>2026-04-17T08:05:52Z</time></trkpt><trkpt lat="-24.275939676003972" lon="114.04391807681648"><ele>22.0</ele><time>2026-04-17T08:05:53Z</time></trkpt><trkpt lat="-24.27565205461106" lon="114.04386942321929"><ele>22.0</ele><time>2026-04-17T08:05:54Z</time></trkpt><trkpt lat="-24.275368023841892" lon="114.04381047101252"><ele>22.0</ele><time>2026-04-17T08:05:55Z</time></trkpt><trkpt lat="-24.27508226525051" lon="114.04374645938661"><ele>22.0</ele><time>2026-04-17T08:05:56Z</time></trkpt><trkpt lat="-24.274795511012748" lon="114.04367433839046"><ele>21.5</ele><time>2026-04-17T08:05:57Z</time></trkpt><trkpt lat="-24.274510785297437" lon="114.04359521319742"><ele>21.0</ele><time>2026-04-17T08:05:58Z</time></trkpt><trkpt lat="-24.27422950747864" lon="114.04350445949675"><ele>21.0</ele><time>2026-04-17T08:05:59Z</time></trkpt><trkpt lat="-24.273947253867103" lon="114.04340794743426"><ele>21.0</ele><time>2026-04-17T08:06:00Z</time></trkpt><trkpt lat="-24.273666202664483" lon="114.04331136836967"><ele>20.5</ele><time>2026-04-17T08:06:01Z</time></trkpt><trkpt lat="-24.27338570495466" lon="114.0432176730323"><ele>20.0</ele><time>2026-04-17T08:06:02Z</time></trkpt><trkpt lat="-24.273104651012744" lon="114.0431269572331"><ele>20.0</ele><time>2026-04-17T08:06:03Z</time></trkpt><trkpt lat="-24.27282086758205" lon="114.04303791943629"><ele>20.0</ele><time>2026-04-17T08:06:04Z</time></trkpt><trkpt lat="-24.272535286406555" lon="114.04294662345984"><ele>20.0</ele><time>2026-04-17T08:06:05Z</time></trkpt><trkpt lat="-24.27225235855621" lon="114.04285563059405"><ele>20.0</ele><time>2026-04-17T08:06:06Z</time></trkpt><trkpt lat="-24.271966627564975" lon="114.0427631632108"><ele>20.0</ele><time>2026-04-17T08:06:07Z</time></trkpt><trkpt lat="-24.2716798605397" lon="114.04267045699044"><ele>20.0</ele><time>2026-04-17T08:06:08Z</time></trkpt><trkpt lat="-24.271392306825817" lon="114.04257957002211"><ele>20.0</ele><time>2026-04-17T08:06:09Z</time></trkpt><trkpt lat="-24.27110434283509" lon="114.04248800869281"><ele>20.0</ele><time>2026-04-17T08:06:10Z</time></trkpt><trkpt lat="-24.270818191484487" lon="114.04239680682367"><ele>19.0</ele><time>2026-04-17T08:06:11Z</time></trkpt><trkpt lat="-24.270528425571793" lon="114.04230669130997"><ele>18.0</ele><time>2026-04-17T08:06:12Z</time></trkpt><trkpt lat="-24.270241137378964" lon="114.04221429342589"><ele>18.0</ele><time>2026-04-17T08:06:13Z</time></trkpt><trkpt lat="-24.269955200215417" lon="114.0421217723891"><ele>18.0</ele><time>2026-04-17T08:06:14Z</time></trkpt><trkpt lat="-24.269667622853152" lon="114.04203047906385"><ele>18.5</ele><time>2026-04-17T08:06:15Z</time></trkpt><trkpt lat="-24.269379626812178" lon="114.04194238881982"><ele>19.0</ele><time>2026-04-17T08:06:16Z</time></trkpt><trkpt lat="-24.269092571403636" lon="114.04185255813701"><ele>19.0</ele><time>2026-04-17T08:06:17Z</time></trkpt><trkpt lat="-24.268805350070004" lon="114.04176873405247"><ele>19.0</ele><time>2026-04-17T08:06:18Z</time></trkpt><trkpt lat="-24.268515217274793" lon="114.04168778747135"><ele>19.0</ele><time>2026-04-17T08:06:19Z</time></trkpt><trkpt lat="-24.268224357163916" lon="114.04160781261596"><ele>19.0</ele><time>2026-04-17T08:06:20Z</time></trkpt><trkpt lat="-24.267932405815923" lon="114.04153003161223"><ele>19.0</ele><time>2026-04-17T08:06:21Z</time></trkpt><trkpt lat="-24.267644629275896" lon="114.04145559690848"><ele>19.0</ele><time>2026-04-17T08:06:22Z</time></trkpt><trkpt lat="-24.267351506040203" lon="114.04137998681469"><ele>18.5</ele><time>2026-04-17T08:06:23Z</time></trkpt><trkpt lat="-24.267059639685012" lon="114.04130658470086"><ele>18.0</ele><time>2026-04-17T08:06:24Z</time></trkpt><trkpt lat="-24.266768700508564" lon="114.04123387689117"><ele>18.0</ele><time>2026-04-17T08:06:25Z</time></trkpt><trkpt lat="-24.2664792942318" lon="114.04116341519594"><ele>18.0</ele><time>2026-04-17T08:06:26Z</time></trkpt><trkpt lat="-24.266186958135012" lon="114.0410925248401"><ele>18.5</ele><time>2026-04-17T08:06:27Z</time></trkpt><trkpt lat="-24.2658962987361" lon="114.04102286405389"><ele>19.0</ele><time>2026-04-17T08:06:28Z</time></trkpt><trkpt lat="-24.26560901934748" lon="114.0409527053445"><ele>19.5</ele><time>2026-04-17T08:06:29Z</time></trkpt><trkpt lat="-24.265319250233446" lon="114.04088181881079"><ele>20.0</ele><time>2026-04-17T08:06:30Z</time></trkpt><trkpt lat="-24.265026847683757" lon="114.04080803615662"><ele>20.0</ele><time>2026-04-17T08:06:31Z</time></trkpt><trkpt lat="-24.264739202224682" lon="114.04073418501552"><ele>20.0</ele><time>2026-04-17T08:06:32Z</time></trkpt><trkpt lat="-24.264444843204664" lon="114.0406607360165"><ele>20.0</ele><time>2026-04-17T08:06:33Z</time></trkpt><trkpt lat="-24.2641550499884" lon="114.04058594294128"><ele>20.0</ele><time>2026-04-17T08:06:34Z</time></trkpt><trkpt lat="-24.26386340590692" lon="114.04051174634243"><ele>20.0</ele><time>2026-04-17T08:06:35Z</time></trkpt><trkpt lat="-24.263571776596066" lon="114.04043836047397"><ele>20.0</ele><time>2026-04-17T08:06:36Z</time></trkpt><trkpt lat="-24.26328222503928" lon="114.04036458069677"><ele>20.0</ele><time>2026-04-17T08:06:37Z</time></trkpt><trkpt lat="-24.262991107100113" lon="114.04028927548647"><ele>20.0</ele><time>2026-04-17T08:06:38Z</time></trkpt><trkpt lat="-24.262700070851093" lon="114.04021445847648"><ele>20.0</ele><time>2026-04-17T08:06:39Z</time></trkpt><trkpt lat="-24.26241030937195" lon="114.04014229191088"><ele>20.0</ele><time>2026-04-17T08:06:40Z</time></trkpt><trkpt lat="-24.262123856940843" lon="114.04007184255869"><ele>20.0</ele><time>2026-04-17T08:06:41Z</time></trkpt><trkpt lat="-24.261835819957952" lon="114.04000082847628"><ele>20.0</ele><time>2026-04-17T08:06:42Z</time></trkpt><trkpt lat="-24.26154740822504" lon="114.03992825734244"><ele>20.0</ele><time>2026-04-17T08:06:43Z</time></trkpt><trkpt lat="-24.261258489653198" lon="114.03985756633276"><ele>20.0</ele><time>2026-04-17T08:06:44Z</time></trkpt><trkpt lat="-24.26096710876918" lon="114.03978571416839"><ele>20.0</ele><time>2026-04-17T08:06:45Z</time></trkpt><trkpt lat="-24.260679414881203" lon="114.0397164408168"><ele>20.0</ele><time>2026-04-17T08:06:46Z</time></trkpt><trkpt lat="-24.260388596516883" lon="114.03964457942085"><ele>20.5</ele><time>2026-04-17T08:06:47Z</time></trkpt><trkpt lat="-24.26009955467586" lon="114.03957166791737"><ele>21.0</ele><time>2026-04-17T08:06:48Z</time></trkpt><trkpt lat="-24.259808973473433" lon="114.03949651890032"><ele>21.0</ele><time>2026-04-17T08:06:49Z</time></trkpt><trkpt lat="-24.259518689851124" lon="114.03941886096132"><ele>21.0</ele><time>2026-04-17T08:06:50Z</time></trkpt><trkpt lat="-24.25922835354351" lon="114.03934159541424"><ele>20.5</ele><time>2026-04-17T08:06:51Z</time></trkpt><trkpt lat="-24.25893745719534" lon="114.03926671094415"><ele>20.0</ele><time>2026-04-17T08:06:52Z</time></trkpt><trkpt lat="-24.25864702336907" lon="114.03919557075459"><ele>20.0</ele><time>2026-04-17T08:06:53Z</time></trkpt><trkpt lat="-24.25835780112688" lon="114.03912723816516"><ele>20.0</ele><time>2026-04-17T08:06:54Z</time></trkpt><trkpt lat="-24.258067499987842" lon="114.03905769706738"><ele>20.0</ele><time>2026-04-17T08:06:55Z</time></trkpt><trkpt lat="-24.257781923480238" lon="114.03898594086718"><ele>20.0</ele><time>2026-04-17T08:06:56Z</time></trkpt><trkpt lat="-24.25749844926917" lon="114.03891155341293"><ele>20.0</ele><time>2026-04-17T08:06:57Z</time></trkpt><trkpt lat="-24.257217693274917" lon="114.03883833771198"><ele>20.0</ele><time>2026-04-17T08:06:58Z</time></trkpt><trkpt lat="-24.256936691978865" lon="114.03876139704998"><ele>20.0</ele><time>2026-04-17T08:06:59Z</time></trkpt><trkpt lat="-24.256665143304957" lon="114.03868584619113"><ele>20.0</ele><time>2026-04-17T08:07:00Z</time></trkpt><trkpt lat="-24.256411618500575" lon="114.03861714977464"><ele>20.5</ele><time>2026-04-17T08:07:01Z</time></trkpt><trkpt lat="-24.25617492124393" lon="114.03855377053843"><ele>21.0</ele><time>2026-04-17T08:07:02Z</time></trkpt><trkpt lat="-24.25594038005514" lon="114.03849060567534"><ele>21.0</ele><time>2026-04-17T08:07:03Z</time></trkpt><trkpt lat="-24.255688313305022" lon="114.0384234335939"><ele>21.0</ele><time>2026-04-17T08:07:04Z</time></trkpt><trkpt lat="-24.25541998549518" lon="114.03835468359861"><ele>22.0</ele><time>2026-04-17T08:07:05Z</time></trkpt><trkpt lat="-24.25514574632087" lon="114.03828475824821"><ele>23.0</ele><time>2026-04-17T08:07:06Z</time></trkpt><trkpt lat="-24.254867591875456" lon="114.03821365682772"><ele>23.0</ele><time>2026-04-17T08:07:07Z</time></trkpt><trkpt lat="-24.254586112227855" lon="114.03814104961498"><ele>23.0</ele><time>2026-04-17T08:07:08Z</time></trkpt><trkpt lat="-24.254302649624545" lon="114.03806680428163"><ele>23.0</ele><time>2026-04-17T08:07:09Z</time></trkpt><trkpt lat="-24.254020208911257" lon="114.03799391866995"><ele>23.0</ele><time>2026-04-17T08:07:10Z</time></trkpt><trkpt lat="-24.253736014237337" lon="114.03791984775573"><ele>22.0</ele><time>2026-04-17T08:07:11Z</time></trkpt><trkpt lat="-24.253450427807515" lon="114.03784564927365"><ele>21.0</ele><time>2026-04-17T08:07:12Z</time></trkpt><trkpt lat="-24.253165259914233" lon="114.03776970765792"><ele>21.0</ele><time>2026-04-17T08:07:13Z</time></trkpt><trkpt lat="-24.252880778033255" lon="114.03769339909455"><ele>21.0</ele><time>2026-04-17T08:07:14Z</time></trkpt><trkpt lat="-24.252594879053976" lon="114.03761424130165"><ele>21.0</ele><time>2026-04-17T08:07:15Z</time></trkpt><trkpt lat="-24.252305752866327" lon="114.03753471953637"><ele>21.0</ele><time>2026-04-17T08:07:16Z</time></trkpt><trkpt lat="-24.252017181913185" lon="114.03745751367501"><ele>20.5</ele><time>2026-04-17T08:07:17Z</time></trkpt><trkpt lat="-24.251731109606826" lon="114.03738338382564"><ele>20.0</ele><time>2026-04-17T08:07:18Z</time></trkpt><trkpt lat="-24.25144466445505" lon="114.03730929021326"><ele>20.0</ele><time>2026-04-17T08:07:19Z</time></trkpt><trkpt lat="-24.25115670459975" lon="114.0372345214189"><ele>20.0</ele><time>2026-04-17T08:07:20Z</time></trkpt><trkpt lat="-24.250870261237132" lon="114.03716093511746"><ele>20.0</ele><time>2026-04-17T08:07:21Z</time></trkpt><trkpt lat="-24.250584911319443" lon="114.0370876828565"><ele>20.0</ele><time>2026-04-17T08:07:22Z</time></trkpt><trkpt lat="-24.25029964319699" lon="114.03701410379881"><ele>20.0</ele><time>2026-04-17T08:07:23Z</time></trkpt><trkpt lat="-24.25001735543492" lon="114.0369409575485"><ele>20.0</ele><time>2026-04-17T08:07:24Z</time></trkpt><trkpt lat="-24.24973526635358" lon="114.03686609811874"><ele>19.5</ele><time>2026-04-17T08:07:25Z</time></trkpt><trkpt lat="-24.24945097312402" lon="114.03678885005968"><ele>19.0</ele><time>2026-04-17T08:07:26Z</time></trkpt><trkpt lat="-24.24916824837814" lon="114.03670837228266"><ele>20.5</ele><time>2026-04-17T08:07:27Z</time></trkpt><trkpt lat="-24.24888304756105" lon="114.03662643076997"><ele>22.0</ele><time>2026-04-17T08:07:28Z</time></trkpt><trkpt lat="-24.24859654137038" lon="114.03654616378826"><ele>22.0</ele><time>2026-04-17T08:07:29Z</time></trkpt><trkpt lat="-24.248310331750915" lon="114.03647185862631"><ele>22.0</ele><time>2026-04-17T08:07:30Z</time></trkpt><trkpt lat="-24.248024572980675" lon="114.03640072878427"><ele>22.0</ele><time>2026-04-17T08:07:31Z</time></trkpt><trkpt lat="-24.247738574869967" lon="114.0363305773775"><ele>22.0</ele><time>2026-04-17T08:07:32Z</time></trkpt><trkpt lat="-24.24745240785891" lon="114.03626064280384"><ele>21.0</ele><time>2026-04-17T08:07:33Z</time></trkpt><trkpt lat="-24.247170269381282" lon="114.03618874019975"><ele>20.0</ele><time>2026-04-17T08:07:34Z</time></trkpt><trkpt lat="-24.24688691402275" lon="114.0361141114023"><ele>20.0</ele><time>2026-04-17T08:07:35Z</time></trkpt><trkpt lat="-24.246606507503504" lon="114.03603710564101"><ele>20.0</ele><time>2026-04-17T08:07:36.001Z</time></trkpt><trkpt lat="-24.246322881870807" lon="114.03595877437174"><ele>19.5</ele><time>2026-04-17T08:07:37.001Z</time></trkpt><trkpt lat="-24.246038904880855" lon="114.03588412554797"><ele>19.0</ele><time>2026-04-17T08:07:38.001Z</time></trkpt><trkpt lat="-24.24575385442748" lon="114.03581028365392"><ele>21.0</ele><time>2026-04-17T08:07:39.001Z</time></trkpt><trkpt lat="-24.24546896861824" lon="114.03573326931222"><ele>23.0</ele><time>2026-04-17T08:07:40.001Z</time></trkpt><trkpt lat="-24.24518368919253" lon="114.03565493919486"><ele>23.0</ele><time>2026-04-17T08:07:41.001Z</time></trkpt><trkpt lat="-24.244898207388484" lon="114.035578794451"><ele>23.0</ele><time>2026-04-17T08:07:42.001Z</time></trkpt><trkpt lat="-24.244613090615147" lon="114.0355055874494"><ele>21.5</ele><time>2026-04-17T08:07:43.001Z</time></trkpt><trkpt lat="-24.24433028277536" lon="114.03543488606886"><ele>20.0</ele><time>2026-04-17T08:07:44.001Z</time></trkpt><trkpt lat="-24.244046188705486" lon="114.03536143498008"><ele>20.0</ele><time>2026-04-17T08:07:45.001Z</time></trkpt><trkpt lat="-24.243760744662836" lon="114.03528635961582"><ele>20.0</ele><time>2026-04-17T08:07:46.001Z</time></trkpt><trkpt lat="-24.24347503431684" lon="114.03521014261705"><ele>20.0</ele><time>2026-04-17T08:07:47.001Z</time></trkpt><trkpt lat="-24.243188522760576" lon="114.03513232357818"><ele>20.0</ele><time>2026-04-17T08:07:48.001Z</time></trkpt><trkpt lat="-24.24290364232923" lon="114.03505471114106"><ele>20.0</ele><time>2026-04-17T08:07:49.001Z</time></trkpt><trkpt lat="-24.24261814728186" lon="114.03497840838781"><ele>20.0</ele><time>2026-04-17T08:07:50.001Z</time></trkpt><trkpt lat="-24.242331053711435" lon="114.03490143736406"><ele>20.5</ele><time>2026-04-17T08:07:51.001Z</time></trkpt><trkpt lat="-24.242045393694468" lon="114.03482674379431"><ele>21.0</ele><time>2026-04-17T08:07:52Z</time></trkpt><trkpt lat="-24.241763074443302" lon="114.03475505063777"><ele>21.0</ele><time>2026-04-17T08:07:53Z</time></trkpt><trkpt lat="-24.241479330677024" lon="114.0346837111575"><ele>21.0</ele><time>2026-04-17T08:07:54Z</time></trkpt><trkpt lat="-24.241196644912947" lon="114.03461109078584"><ele>21.0</ele><time>2026-04-17T08:07:55Z</time></trkpt><trkpt lat="-24.240913881193816" lon="114.03453396470682"><ele>21.0</ele><time>2026-04-17T08:07:56Z</time></trkpt><trkpt lat="-24.24063120241413" lon="114.0344536948922"><ele>21.0</ele><time>2026-04-17T08:07:57Z</time></trkpt><trkpt lat="-24.24034769792901" lon="114.03437562063608"><ele>21.0</ele><time>2026-04-17T08:07:58Z</time></trkpt><trkpt lat="-24.240065356984147" lon="114.03430088863438"><ele>21.0</ele><time>2026-04-17T08:07:59Z</time></trkpt><trkpt lat="-24.239783827378737" lon="114.03422726406865"><ele>21.0</ele><time>2026-04-17T08:08:00Z</time></trkpt><trkpt lat="-24.239498585582407" lon="114.03415188480409"><ele>22.0</ele><time>2026-04-17T08:08:01Z</time></trkpt><trkpt lat="-24.2392162104696" lon="114.0340775486989"><ele>23.0</ele><time>2026-04-17T08:08:02Z</time></trkpt><trkpt lat="-24.23893100972325" lon="114.03400051067169"><ele>23.0</ele><time>2026-04-17T08:08:03Z</time></trkpt><trkpt lat="-24.238642307286064" lon="114.0339258835583"><ele>23.0</ele><time>2026-04-17T08:08:04Z</time></trkpt><trkpt lat="-24.238352928526453" lon="114.0338523628581"><ele>22.0</ele><time>2026-04-17T08:08:05Z</time></trkpt><trkpt lat="-24.238060293432277" lon="114.03377630498808"><ele>21.0</ele><time>2026-04-17T08:08:06Z</time></trkpt><trkpt lat="-24.237768056806665" lon="114.03369745168906"><ele>21.0</ele><time>2026-04-17T08:08:07Z</time></trkpt><trkpt lat="-24.23747943468492" lon="114.0336201355964"><ele>21.0</ele><time>2026-04-17T08:08:08Z</time></trkpt><trkpt lat="-24.237187609067814" lon="114.03354734970334"><ele>20.0</ele><time>2026-04-17T08:08:09Z</time></trkpt><trkpt lat="-24.236896661331965" lon="114.03348511805468"><ele>19.0</ele><time>2026-04-17T08:08:10Z</time></trkpt><trkpt lat="-24.23660668630185" lon="114.03342818142804"><ele>19.0</ele><time>2026-04-17T08:08:11Z</time></trkpt><trkpt lat="-24.236312677900926" lon="114.03337470374933"><ele>19.0</ele><time>2026-04-17T08:08:12Z</time></trkpt><trkpt lat="-24.23602192033441" lon="114.03333069953801"><ele>19.0</ele><time>2026-04-17T08:08:13Z</time></trkpt><trkpt lat="-24.235727260879596" lon="114.03329156125422"><ele>19.0</ele><time>2026-04-17T08:08:14Z</time></trkpt><trkpt lat="-24.23543538751023" lon="114.03325512327795"><ele>19.0</ele><time>2026-04-17T08:08:15Z</time></trkpt><trkpt lat="-24.23514815758272" lon="114.03321962384663"><ele>19.0</ele><time>2026-04-17T08:08:16Z</time></trkpt><trkpt lat="-24.23485970595342" lon="114.03317772876593"><ele>19.0</ele><time>2026-04-17T08:08:17Z</time></trkpt><trkpt lat="-24.23457032536666" lon="114.03313593738389"><ele>19.0</ele><time>2026-04-17T08:08:18Z</time></trkpt><trkpt lat="-24.234283270418118" lon="114.03309537558383"><ele>19.0</ele><time>2026-04-17T08:08:19Z</time></trkpt><trkpt lat="-24.233993233786354" lon="114.03305425617131"><ele>19.0</ele><time>2026-04-17T08:08:20Z</time></trkpt><trkpt lat="-24.233702450282806" lon="114.03301209208081"><ele>20.0</ele><time>2026-04-17T08:08:21Z</time></trkpt><trkpt lat="-24.23341413102987" lon="114.03296781527327"><ele>21.0</ele><time>2026-04-17T08:08:22Z</time></trkpt><trkpt lat="-24.23312187170113" lon="114.03292446396932"><ele>21.0</ele><time>2026-04-17T08:08:23Z</time></trkpt><trkpt lat="-24.23283333777733" lon="114.03288280522474"><ele>21.0</ele><time>2026-04-17T08:08:24Z</time></trkpt><trkpt lat="-24.232545650973336" lon="114.03284443664856"><ele>21.5</ele><time>2026-04-17T08:08:25Z</time></trkpt><trkpt lat="-24.232259043165122" lon="114.03280932520204"><ele>22.0</ele><time>2026-04-17T08:08:26Z</time></trkpt><trkpt lat="-24.231974691209217" lon="114.03277412105616"><ele>22.0</ele><time>2026-04-17T08:08:27Z</time></trkpt><trkpt lat="-24.23169175084665" lon="114.03273825442925"><ele>22.0</ele><time>2026-04-17T08:08:28Z</time></trkpt><trkpt lat="-24.23141061864427" lon="114.03269927288912"><ele>21.5</ele><time>2026-04-17T08:08:29Z</time></trkpt><trkpt lat="-24.231128971463175" lon="114.0326600580451"><ele>21.0</ele><time>2026-04-17T08:08:30Z</time></trkpt><trkpt lat="-24.23084757743134" lon="114.03261964860522"><ele>20.0</ele><time>2026-04-17T08:08:31Z</time></trkpt><trkpt lat="-24.23056631073157" lon="114.03257882182454"><ele>19.0</ele><time>2026-04-17T08:08:32Z</time></trkpt><trkpt lat="-24.230282913347637" lon="114.03253911123217"><ele>19.0</ele><time>2026-04-17T08:08:33Z</time></trkpt><trkpt lat="-24.229994750699294" lon="114.03249936696578"><ele>19.0</ele><time>2026-04-17T08:08:34Z</time></trkpt><trkpt lat="-24.2297088028023" lon="114.03246121860089"><ele>19.5</ele><time>2026-04-17T08:08:35Z</time></trkpt><trkpt lat="-24.22942204081313" lon="114.03242027763335"><ele>20.0</ele><time>2026-04-17T08:08:36Z</time></trkpt><trkpt lat="-24.22913500967535" lon="114.0323749847111"><ele>20.0</ele><time>2026-04-17T08:08:37Z</time></trkpt><trkpt lat="-24.228849081224848" lon="114.03233107406943"><ele>20.0</ele><time>2026-04-17T08:08:38Z</time></trkpt><trkpt lat="-24.228558044545064" lon="114.03228682050333"><ele>20.0</ele><time>2026-04-17T08:08:39Z</time></trkpt><trkpt lat="-24.228272629896356" lon="114.03223294856333"><ele>20.0</ele><time>2026-04-17T08:08:40Z</time></trkpt><trkpt lat="-24.22798860557127" lon="114.0321677092704"><ele>19.5</ele><time>2026-04-17T08:08:41Z</time></trkpt><trkpt lat="-24.22770385272013" lon="114.03209200627938"><ele>19.0</ele><time>2026-04-17T08:08:42Z</time></trkpt><trkpt lat="-24.227422182350757" lon="114.03200557694299"><ele>17.5</ele><time>2026-04-17T08:08:43Z</time></trkpt><trkpt lat="-24.22714250778979" lon="114.03191717048087"><ele>16.0</ele><time>2026-04-17T08:08:44Z</time></trkpt><trkpt lat="-24.22686206151265" lon="114.03182606136707"><ele>16.0</ele><time>2026-04-17T08:08:45Z</time></trkpt><trkpt lat="-24.226587284739146" lon="114.03173365926699"><ele>16.0</ele><time>2026-04-17T08:08:46Z</time></trkpt><trkpt lat="-24.226309930660655" lon="114.03163840186666"><ele>18.5</ele><time>2026-04-17T08:08:47Z</time></trkpt><trkpt lat="-24.226031390565268" lon="114.03154348341877"><ele>21.0</ele><time>2026-04-17T08:08:48Z</time></trkpt><trkpt lat="-24.225752908168324" lon="114.03145186515975"><ele>20.0</ele><time>2026-04-17T08:08:49Z</time></trkpt><trkpt lat="-24.22547157308905" lon="114.03136158959825"><ele>19.0</ele><time>2026-04-17T08:08:50Z</time></trkpt><trkpt lat="-24.225190646329285" lon="114.03127039565203"><ele>19.0</ele><time>2026-04-17T08:08:51Z</time></trkpt><trkpt lat="-24.2249134594409" lon="114.0311774890162"><ele>19.0</ele><time>2026-04-17T08:08:52Z</time></trkpt><trkpt lat="-24.224639847494718" lon="114.0310869756015"><ele>18.0</ele><time>2026-04-17T08:08:53Z</time></trkpt><trkpt lat="-24.224365631730386" lon="114.03099389368242"><ele>17.0</ele><time>2026-04-17T08:08:54Z</time></trkpt><trkpt lat="-24.224094647000506" lon="114.03089984967177"><ele>17.5</ele><time>2026-04-17T08:08:55Z</time></trkpt><trkpt lat="-24.22382051576963" lon="114.0308064735721"><ele>18.0</ele><time>2026-04-17T08:08:56Z</time></trkpt><trkpt lat="-24.223548116353996" lon="114.03071791918423"><ele>18.0</ele><time>2026-04-17T08:08:57Z</time></trkpt><trkpt lat="-24.22327351271838" lon="114.03062935665322"><ele>18.0</ele><time>2026-04-17T08:08:58Z</time></trkpt><trkpt lat="-24.223001511190887" lon="114.03053812008696"><ele>17.5</ele><time>2026-04-17T08:08:59Z</time></trkpt><trkpt lat="-24.222734695103767" lon="114.03044451799802"><ele>17.0</ele><time>2026-04-17T08:09:00Z</time></trkpt><trkpt lat="-24.222468915265125" lon="114.03035560348248"><ele>17.0</ele><time>2026-04-17T08:09:01Z</time></trkpt><trkpt lat="-24.22220076115593" lon="114.03028764211791"><ele>17.0</ele><time>2026-04-17T08:09:02Z</time></trkpt><trkpt lat="-24.221927556167326" lon="114.03023035260763"><ele>17.0</ele><time>2026-04-17T08:09:03Z</time></trkpt><trkpt lat="-24.221652229913644" lon="114.03018900941241"><ele>17.0</ele><time>2026-04-17T08:09:04Z</time></trkpt><trkpt lat="-24.221375383163533" lon="114.03015379963492"><ele>17.0</ele><time>2026-04-17T08:09:05Z</time></trkpt><trkpt lat="-24.22109875554137" lon="114.03012436899944"><ele>17.0</ele><time>2026-04-17T08:09:06Z</time></trkpt><trkpt lat="-24.220816947529432" lon="114.03010341765496"><ele>17.0</ele><time>2026-04-17T08:09:07Z</time></trkpt><trkpt lat="-24.220538591007543" lon="114.03008907503073"><ele>17.0</ele><time>2026-04-17T08:09:08Z</time></trkpt><trkpt lat="-24.22026420186304" lon="114.03008845972265"><ele>17.0</ele><time>2026-04-17T08:09:09Z</time></trkpt><trkpt lat="-24.21998789328445" lon="114.03009471939642"><ele>17.0</ele><time>2026-04-17T08:09:10Z</time></trkpt><trkpt lat="-24.219716504026234" lon="114.03011488868559"><ele>16.5</ele><time>2026-04-17T08:09:11Z</time></trkpt><trkpt lat="-24.21944477793104" lon="114.03014563267037"><ele>16.0</ele><time>2026-04-17T08:09:12Z</time></trkpt><trkpt lat="-24.219174962635662" lon="114.03019108988948"><ele>16.5</ele><time>2026-04-17T08:09:13Z</time></trkpt><trkpt lat="-24.2189071727068" lon="114.03024711426119"><ele>17.0</ele><time>2026-04-17T08:09:14Z</time></trkpt><trkpt lat="-24.21864030423914" lon="114.03030300420141"><ele>17.0</ele><time>2026-04-17T08:09:15Z</time></trkpt><trkpt lat="-24.218372160656166" lon="114.03036147201519"><ele>17.0</ele><time>2026-04-17T08:09:16Z</time></trkpt><trkpt lat="-24.21810670355898" lon="114.03043252336562"><ele>17.0</ele><time>2026-04-17T08:09:17Z</time></trkpt><trkpt lat="-24.21784099337267" lon="114.03050547433787"><ele>17.0</ele><time>2026-04-17T08:09:18Z</time></trkpt><trkpt lat="-24.217579540379436" lon="114.03057492369183"><ele>16.5</ele><time>2026-04-17T08:09:19Z</time></trkpt><trkpt lat="-24.217310540404345" lon="114.03063907976362"><ele>16.0</ele><time>2026-04-17T08:09:20Z</time></trkpt><trkpt lat="-24.217042767841328" lon="114.0307023097205"><ele>16.0</ele><time>2026-04-17T08:09:21Z</time></trkpt><trkpt lat="-24.21677156583149" lon="114.03076777537876"><ele>16.0</ele><time>2026-04-17T08:09:22Z</time></trkpt><trkpt lat="-24.216502870892853" lon="114.03083492295062"><ele>16.5</ele><time>2026-04-17T08:09:23Z</time></trkpt><trkpt lat="-24.216236752916213" lon="114.0309018323588"><ele>17.0</ele><time>2026-04-17T08:09:24Z</time></trkpt><trkpt lat="-24.215972699382462" lon="114.03097196015256"><ele>17.0</ele><time>2026-04-17T08:09:25Z</time></trkpt><trkpt lat="-24.21570854816815" lon="114.03104218259419"><ele>17.0</ele><time>2026-04-17T08:09:26Z</time></trkpt><trkpt lat="-24.215443365633885" lon="114.03110657547582"><ele>17.0</ele><time>2026-04-17T08:09:27Z</time></trkpt><trkpt lat="-24.215175825681737" lon="114.03117052788609"><ele>17.0</ele><time>2026-04-17T08:09:28Z</time></trkpt><trkpt lat="-24.214908856112892" lon="114.03123550663256"><ele>17.5</ele><time>2026-04-17T08:09:29Z</time></trkpt><trkpt lat="-24.214639407793335" lon="114.03130165032987"><ele>18.0</ele><time>2026-04-17T08:09:30Z</time></trkpt><trkpt lat="-24.21437067596136" lon="114.03137003498671"><ele>18.0</ele><time>2026-04-17T08:09:31Z</time></trkpt><trkpt lat="-24.2141008014751" lon="114.03143817360107"><ele>18.0</ele><time>2026-04-17T08:09:32Z</time></trkpt><trkpt lat="-24.213829446226075" lon="114.03150467184331"><ele>18.5</ele><time>2026-04-17T08:09:33Z</time></trkpt><trkpt lat="-24.213555657246" lon="114.0315719385324"><ele>19.0</ele><time>2026-04-17T08:09:34Z</time></trkpt><trkpt lat="-24.213280684597404" lon="114.03164008449828"><ele>19.5</ele><time>2026-04-17T08:09:35Z</time></trkpt><trkpt lat="-24.213007884908542" lon="114.03170854151789"><ele>20.0</ele><time>2026-04-17T08:09:36Z</time></trkpt><trkpt lat="-24.21273163218384" lon="114.03177706837612"><ele>20.0</ele><time>2026-04-17T08:09:37Z</time></trkpt><trkpt lat="-24.21245415556743" lon="114.03184548995422"><ele>20.0</ele><time>2026-04-17T08:09:38Z</time></trkpt><trkpt lat="-24.212176606811642" lon="114.03191234203412"><ele>19.5</ele><time>2026-04-17T08:09:39Z</time></trkpt><trkpt lat="-24.21189880234244" lon="114.0319788175531"><ele>19.0</ele><time>2026-04-17T08:09:40Z</time></trkpt><trkpt lat="-24.211618414961993" lon="114.03204453556418"><ele>20.0</ele><time>2026-04-17T08:09:41Z</time></trkpt><trkpt lat="-24.211332978023822" lon="114.0321122268794"><ele>21.0</ele><time>2026-04-17T08:09:42.001Z</time></trkpt><trkpt lat="-24.211050849374008" lon="114.0321845636043"><ele>21.0</ele><time>2026-04-17T08:09:43.001Z</time></trkpt><trkpt lat="-24.21076739750413" lon="114.03225623222325"><ele>21.0</ele><time>2026-04-17T08:09:44.001Z</time></trkpt><trkpt lat="-24.2104879717644" lon="114.03232544820665"><ele>20.5</ele><time>2026-04-17T08:09:45.001Z</time></trkpt><trkpt lat="-24.210211803083173" lon="114.03239495506759"><ele>20.0</ele><time>2026-04-17T08:09:46.001Z</time></trkpt><trkpt lat="-24.20993390976696" lon="114.03246271915694"><ele>19.5</ele><time>2026-04-17T08:09:47.001Z</time></trkpt><trkpt lat="-24.209656864016225" lon="114.03252961071603"><ele>19.0</ele><time>2026-04-17T08:09:48.001Z</time></trkpt><trkpt lat="-24.209381900174346" lon="114.03259409565418"><ele>19.0</ele><time>2026-04-17T08:09:49.001Z</time></trkpt><trkpt lat="-24.20910661474258" lon="114.03266260231118"><ele>19.0</ele><time>2026-04-17T08:09:50.001Z</time></trkpt><trkpt lat="-24.20883358994705" lon="114.03273279895447"><ele>19.0</ele><time>2026-04-17T08:09:51.001Z</time></trkpt><trkpt lat="-24.208563464572805" lon="114.03279852881204"><ele>19.0</ele><time>2026-04-17T08:09:52.001Z</time></trkpt><trkpt lat="-24.20829237134245" lon="114.03286525178694"><ele>18.5</ele><time>2026-04-17T08:09:53.001Z</time></trkpt><trkpt lat="-24.208022566549197" lon="114.03292957457171"><ele>18.0</ele><time>2026-04-17T08:09:54.001Z</time></trkpt><trkpt lat="-24.207754321905465" lon="114.03299959629231"><ele>18.0</ele><time>2026-04-17T08:09:55.001Z</time></trkpt><trkpt lat="-24.20748857344635" lon="114.0330631906103"><ele>18.0</ele><time>2026-04-17T08:09:56.001Z</time></trkpt><trkpt lat="-24.20721950174819" lon="114.03312674892817"><ele>17.5</ele><time>2026-04-17T08:09:57.001Z</time></trkpt><trkpt lat="-24.20695170148737" lon="114.03319436197408"><ele>17.0</ele><time>2026-04-17T08:09:58Z</time></trkpt><trkpt lat="-24.206687482614345" lon="114.03326821118073"><ele>17.5</ele><time>2026-04-17T08:09:59Z</time></trkpt><trkpt lat="-24.206423994259637" lon="114.0333384295811"><ele>18.0</ele><time>2026-04-17T08:10:00Z</time></trkpt><trkpt lat="-24.206154673638242" lon="114.03340190496466"><ele>18.0</ele><time>2026-04-17T08:10:01Z</time></trkpt><trkpt lat="-24.20588279431288" lon="114.03346399652635"><ele>18.0</ele><time>2026-04-17T08:10:02Z</time></trkpt><trkpt lat="-24.205608461883287" lon="114.03353087501341"><ele>18.5</ele><time>2026-04-17T08:10:03Z</time></trkpt><trkpt lat="-24.20533135846409" lon="114.03359881231648"><ele>19.0</ele><time>2026-04-17T08:10:04Z</time></trkpt><trkpt lat="-24.20505551895369" lon="114.03366573150905"><ele>18.5</ele><time>2026-04-17T08:10:05Z</time></trkpt><trkpt lat="-24.20477482646778" lon="114.03373402117833"><ele>18.0</ele><time>2026-04-17T08:10:06Z</time></trkpt><trkpt lat="-24.204495149213585" lon="114.03380263165403"><ele>18.0</ele><time>2026-04-17T08:10:07Z</time></trkpt><trkpt lat="-24.204214871696838" lon="114.033874519819"><ele>18.0</ele><time>2026-04-17T08:10:08Z</time></trkpt><trkpt lat="-24.203932940979314" lon="114.03394582729959"><ele>18.0</ele><time>2026-04-17T08:10:09Z</time></trkpt><trkpt lat="-24.20364756486973" lon="114.034014737781"><ele>18.0</ele><time>2026-04-17T08:10:10Z</time></trkpt><trkpt lat="-24.203363813940804" lon="114.03408206500917"><ele>18.0</ele><time>2026-04-17T08:10:11Z</time></trkpt><trkpt lat="-24.20308029221609" lon="114.03415097300321"><ele>18.0</ele><time>2026-04-17T08:10:12Z</time></trkpt><trkpt lat="-24.202797421291745" lon="114.03422676223093"><ele>18.0</ele><time>2026-04-17T08:10:13Z</time></trkpt><trkpt lat="-24.202509711888737" lon="114.03430265870136"><ele>18.0</ele><time>2026-04-17T08:10:14Z</time></trkpt><trkpt lat="-24.202223971271724" lon="114.03437408939277"><ele>18.0</ele><time>2026-04-17T08:10:15Z</time></trkpt><trkpt lat="-24.201935909238983" lon="114.0344450433453"><ele>18.0</ele><time>2026-04-17T08:10:16Z</time></trkpt><trkpt lat="-24.20164799771275" lon="114.0345143577546"><ele>18.0</ele><time>2026-04-17T08:10:17Z</time></trkpt><trkpt lat="-24.201359398838935" lon="114.03458550978775"><ele>18.0</ele><time>2026-04-17T08:10:18Z</time></trkpt><trkpt lat="-24.201069262567476" lon="114.03465488659127"><ele>18.0</ele><time>2026-04-17T08:10:19Z</time></trkpt><trkpt lat="-24.20077476387083" lon="114.0347260643572"><ele>18.0</ele><time>2026-04-17T08:10:20Z</time></trkpt><trkpt lat="-24.20048600721011" lon="114.03479887399091"><ele>19.0</ele><time>2026-04-17T08:10:21Z</time></trkpt><trkpt lat="-24.200197278167177" lon="114.03487052851531"><ele>20.0</ele><time>2026-04-17T08:10:22Z</time></trkpt><trkpt lat="-24.199908931047382" lon="114.03494110745694"><ele>21.0</ele><time>2026-04-17T08:10:23Z</time></trkpt><trkpt lat="-24.199627097389218" lon="114.03500959111649"><ele>22.0</ele><time>2026-04-17T08:10:24Z</time></trkpt><trkpt lat="-24.199350494389588" lon="114.03507939823314"><ele>22.0</ele><time>2026-04-17T08:10:25Z</time></trkpt><trkpt lat="-24.199073625346227" lon="114.03514891196706"><ele>22.0</ele><time>2026-04-17T08:10:26Z</time></trkpt><trkpt lat="-24.19879862635635" lon="114.03521307850353"><ele>23.0</ele><time>2026-04-17T08:10:27Z</time></trkpt><trkpt lat="-24.198521786683532" lon="114.03527887053825"><ele>24.0</ele><time>2026-04-17T08:10:28Z</time></trkpt><trkpt lat="-24.198247625035908" lon="114.03534671205574"><ele>23.5</ele><time>2026-04-17T08:10:29Z</time></trkpt><trkpt lat="-24.197973924999662" lon="114.03541655937705"><ele>23.0</ele><time>2026-04-17T08:10:30Z</time></trkpt><trkpt lat="-24.197700052505986" lon="114.03548400101992"><ele>23.0</ele><time>2026-04-17T08:10:31Z</time></trkpt><trkpt lat="-24.19742174671502" lon="114.03555335918355"><ele>23.0</ele><time>2026-04-17T08:10:32Z</time></trkpt><trkpt lat="-24.197145807741936" lon="114.03562359546595"><ele>23.5</ele><time>2026-04-17T08:10:33Z</time></trkpt><trkpt lat="-24.19687009909771" lon="114.03569377932861"><ele>24.0</ele><time>2026-04-17T08:10:34Z</time></trkpt><trkpt lat="-24.196593408026313" lon="114.03576132318553"><ele>22.0</ele><time>2026-04-17T08:10:35Z</time></trkpt><trkpt lat="-24.196313502697645" lon="114.03582920555266"><ele>20.0</ele><time>2026-04-17T08:10:36Z</time></trkpt><trkpt lat="-24.196037052222593" lon="114.03589897863765"><ele>20.0</ele><time>2026-04-17T08:10:37Z</time></trkpt><trkpt lat="-24.195758083941453" lon="114.03597027610215"><ele>20.0</ele><time>2026-04-17T08:10:38Z</time></trkpt><trkpt lat="-24.195478715691753" lon="114.036042586824"><ele>19.5</ele><time>2026-04-17T08:10:39Z</time></trkpt><trkpt lat="-24.195198500789555" lon="114.0361125793329"><ele>19.0</ele><time>2026-04-17T08:10:40Z</time></trkpt><trkpt lat="-24.194913706134425" lon="114.03618018693997"><ele>19.0</ele><time>2026-04-17T08:10:41Z</time></trkpt><trkpt lat="-24.194629400416897" lon="114.03624721843316"><ele>19.0</ele><time>2026-04-17T08:10:42Z</time></trkpt><trkpt lat="-24.194347487153767" lon="114.03631534934905"><ele>19.0</ele><time>2026-04-17T08:10:43Z</time></trkpt><trkpt lat="-24.194065996066275" lon="114.0363845993233"><ele>19.0</ele><time>2026-04-17T08:10:44Z</time></trkpt><trkpt lat="-24.193785399140562" lon="114.0364552208297"><ele>17.5</ele><time>2026-04-17T08:10:45Z</time></trkpt><trkpt lat="-24.19350498024937" lon="114.03652688190283"><ele>16.0</ele><time>2026-04-17T08:10:46Z</time></trkpt><trkpt lat="-24.193225271187735" lon="114.03659682909395"><ele>16.0</ele><time>2026-04-17T08:10:47Z</time></trkpt><trkpt lat="-24.192940689055586" lon="114.03666829122727"><ele>16.0</ele><time>2026-04-17T08:10:48Z</time></trkpt><trkpt lat="-24.192657995191592" lon="114.03673728377144"><ele>16.0</ele><time>2026-04-17T08:10:49Z</time></trkpt><trkpt lat="-24.192372620978432" lon="114.03680803681797"><ele>16.0</ele><time>2026-04-17T08:10:50Z</time></trkpt><trkpt lat="-24.192089205695147" lon="114.03688084695618"><ele>16.5</ele><time>2026-04-17T08:10:51Z</time></trkpt><trkpt lat="-24.191803007773917" lon="114.03695380214212"><ele>17.0</ele><time>2026-04-17T08:10:52Z</time></trkpt><trkpt lat="-24.19151361114324" lon="114.03702723607095"><ele>16.5</ele><time>2026-04-17T08:10:53Z</time></trkpt><trkpt lat="-24.19122403854762" lon="114.03709978865476"><ele>16.0</ele><time>2026-04-17T08:10:54Z</time></trkpt><trkpt lat="-24.190934597087505" lon="114.03717202416901"><ele>16.5</ele><time>2026-04-17T08:10:55Z</time></trkpt><trkpt lat="-24.190639922579404" lon="114.03724527352325"><ele>17.0</ele><time>2026-04-17T08:10:56Z</time></trkpt><trkpt lat="-24.190347081382654" lon="114.03731204993703"><ele>17.0</ele><time>2026-04-17T08:10:57Z</time></trkpt><trkpt lat="-24.190055738445654" lon="114.03738075201889"><ele>17.0</ele><time>2026-04-17T08:10:58Z</time></trkpt><trkpt lat="-24.189766143867804" lon="114.03745275819415"><ele>16.5</ele><time>2026-04-17T08:10:59Z</time></trkpt><trkpt lat="-24.189478021484938" lon="114.03752821039896"><ele>16.0</ele><time>2026-04-17T08:11:00Z</time></trkpt><trkpt lat="-24.18918511916081" lon="114.03760009683293"><ele>16.0</ele><time>2026-04-17T08:11:01Z</time></trkpt><trkpt lat="-24.18889194262002" lon="114.03766973332526"><ele>16.0</ele><time>2026-04-17T08:11:02Z</time></trkpt><trkpt lat="-24.188599572309478" lon="114.0377423108596"><ele>16.0</ele><time>2026-04-17T08:11:03Z</time></trkpt><trkpt lat="-24.188310461528445" lon="114.03781195660412"><ele>16.0</ele><time>2026-04-17T08:11:04Z</time></trkpt><trkpt lat="-24.188021552616895" lon="114.03788423763332"><ele>15.5</ele><time>2026-04-17T08:11:05Z</time></trkpt><trkpt lat="-24.18773346212136" lon="114.03795967758042"><ele>15.0</ele><time>2026-04-17T08:11:06Z</time></trkpt><trkpt lat="-24.18744420870441" lon="114.03802971142183"><ele>15.5</ele><time>2026-04-17T08:11:07Z</time></trkpt><trkpt lat="-24.187155800729222" lon="114.03810014445193"><ele>16.0</ele><time>2026-04-17T08:11:08Z</time></trkpt><trkpt lat="-24.186871382965354" lon="114.03817055686575"><ele>16.0</ele><time>2026-04-17T08:11:09Z</time></trkpt><trkpt lat="-24.18658333301898" lon="114.03824287680868"><ele>16.0</ele><time>2026-04-17T08:11:10Z</time></trkpt><trkpt lat="-24.186300592638197" lon="114.03831154644247"><ele>16.5</ele><time>2026-04-17T08:11:11Z</time></trkpt><trkpt lat="-24.186011862543808" lon="114.03838003142346"><ele>17.0</ele><time>2026-04-17T08:11:12Z</time></trkpt><trkpt lat="-24.18572644151283" lon="114.03844879772684"><ele>17.0</ele><time>2026-04-17T08:11:13Z</time></trkpt><trkpt lat="-24.18544009012172" lon="114.03851987074272"><ele>17.0</ele><time>2026-04-17T08:11:14Z</time></trkpt><trkpt lat="-24.185154433223232" lon="114.03859373344662"><ele>17.0</ele><time>2026-04-17T08:11:15Z</time></trkpt><trkpt lat="-24.184868820408727" lon="114.03866789807428"><ele>17.0</ele><time>2026-04-17T08:11:16Z</time></trkpt><trkpt lat="-24.18457933246822" lon="114.03874217683119"><ele>18.5</ele><time>2026-04-17T08:11:17Z</time></trkpt><trkpt lat="-24.184286139818727" lon="114.03881481683482"><ele>20.0</ele><time>2026-04-17T08:11:18Z</time></trkpt><trkpt lat="-24.183997921750702" lon="114.03888481159065"><ele>20.0</ele><time>2026-04-17T08:11:19Z</time></trkpt><trkpt lat="-24.18370999629083" lon="114.03895677694143"><ele>20.0</ele><time>2026-04-17T08:11:20Z</time></trkpt><trkpt lat="-24.183423043749166" lon="114.0390297733497"><ele>19.5</ele><time>2026-04-17T08:11:21Z</time></trkpt><trkpt lat="-24.183131053021253" lon="114.03909955080285"><ele>19.0</ele><time>2026-04-17T08:11:22Z</time></trkpt><trkpt lat="-24.1828375289856" lon="114.03916799679064"><ele>21.0</ele><time>2026-04-17T08:11:23Z</time></trkpt><trkpt lat="-24.18254645822955" lon="114.03923780671332"><ele>23.0</ele><time>2026-04-17T08:11:24Z</time></trkpt><trkpt lat="-24.182255075334997" lon="114.03930960998765"><ele>23.0</ele><time>2026-04-17T08:11:25Z</time></trkpt><trkpt lat="-24.181964636734087" lon="114.03938478113828"><ele>23.0</ele><time>2026-04-17T08:11:26Z</time></trkpt><trkpt lat="-24.181674783889758" lon="114.0394598085213"><ele>22.0</ele><time>2026-04-17T08:11:27Z</time></trkpt><trkpt lat="-24.181386422625803" lon="114.03953386118211"><ele>21.0</ele><time>2026-04-17T08:11:28Z</time></trkpt><trkpt lat="-24.181092750729903" lon="114.0396074238822"><ele>21.0</ele><time>2026-04-17T08:11:29Z</time></trkpt><trkpt lat="-24.180798241985144" lon="114.0396800217997"><ele>21.0</ele><time>2026-04-17T08:11:30Z</time></trkpt><trkpt lat="-24.180503119785325" lon="114.03975280987743"><ele>21.0</ele><time>2026-04-17T08:11:31Z</time></trkpt><trkpt lat="-24.18021172245483" lon="114.03982503250751"><ele>21.0</ele><time>2026-04-17T08:11:32Z</time></trkpt><trkpt lat="-24.179919096595043" lon="114.0398971922011"><ele>20.5</ele><time>2026-04-17T08:11:33Z</time></trkpt><trkpt lat="-24.179627948853298" lon="114.0399686849629"><ele>20.0</ele><time>2026-04-17T08:11:34Z</time></trkpt><trkpt lat="-24.179336886598822" lon="114.04004010945222"><ele>20.0</ele><time>2026-04-17T08:11:35Z</time></trkpt><trkpt lat="-24.179046321990217" lon="114.04011117301519"><ele>20.0</ele><time>2026-04-17T08:11:36Z</time></trkpt><trkpt lat="-24.178751548243774" lon="114.04018224903203"><ele>20.0</ele><time>2026-04-17T08:11:37Z</time></trkpt><trkpt lat="-24.17845369323703" lon="114.04025619555817"><ele>20.0</ele><time>2026-04-17T08:11:38Z</time></trkpt><trkpt lat="-24.178158421633192" lon="114.04033261947325"><ele>20.0</ele><time>2026-04-17T08:11:39Z</time></trkpt><trkpt lat="-24.17786274399748" lon="114.04041314239261"><ele>20.0</ele><time>2026-04-17T08:11:40Z</time></trkpt><trkpt lat="-24.177569092291233" lon="114.04051021787373"><ele>20.5</ele><time>2026-04-17T08:11:41Z</time></trkpt><trkpt lat="-24.177278228944495" lon="114.04062197073128"><ele>21.0</ele><time>2026-04-17T08:11:42Z</time></trkpt><trkpt lat="-24.17699054530984" lon="114.04074979111567"><ele>21.5</ele><time>2026-04-17T08:11:43Z</time></trkpt><trkpt lat="-24.17670888160161" lon="114.04088565351616"><ele>22.0</ele><time>2026-04-17T08:11:44Z</time></trkpt><trkpt lat="-24.176432710060507" lon="114.04103057933392"><ele>22.5</ele><time>2026-04-17T08:11:45Z</time></trkpt><trkpt lat="-24.1761655962083" lon="114.04118884582235"><ele>23.0</ele><time>2026-04-17T08:11:46Z</time></trkpt><trkpt lat="-24.175901122655286" lon="114.04135405670559"><ele>23.5</ele><time>2026-04-17T08:11:47Z</time></trkpt><trkpt lat="-24.17563748636383" lon="114.04152521719017"><ele>24.0</ele><time>2026-04-17T08:11:48Z</time></trkpt><trkpt lat="-24.175378095929766" lon="114.04170123804187"><ele>23.0</ele><time>2026-04-17T08:11:49Z</time></trkpt><trkpt lat="-24.17512017765394" lon="114.04187804404249"><ele>22.0</ele><time>2026-04-17T08:11:50Z</time></trkpt><trkpt lat="-24.17486246079981" lon="114.04205348363493"><ele>22.0</ele><time>2026-04-17T08:11:51Z</time></trkpt><trkpt lat="-24.174607141775155" lon="114.04222606588431"><ele>22.0</ele><time>2026-04-17T08:11:52Z</time></trkpt><trkpt lat="-24.174351596145428" lon="114.04239900007194"><ele>22.0</ele><time>2026-04-17T08:11:53Z</time></trkpt><trkpt lat="-24.174099700282532" lon="114.04257090520535"><ele>22.0</ele><time>2026-04-17T08:11:54Z</time></trkpt><trkpt lat="-24.17384692051375" lon="114.04274255409501"><ele>22.0</ele><time>2026-04-17T08:11:55Z</time></trkpt><trkpt lat="-24.173597698784434" lon="114.04291318083727"><ele>22.0</ele><time>2026-04-17T08:11:56Z</time></trkpt><trkpt lat="-24.173345559047487" lon="114.04308355830129"><ele>22.5</ele><time>2026-04-17T08:11:57Z</time></trkpt><trkpt lat="-24.173093734085654" lon="114.0432518495323"><ele>23.0</ele><time>2026-04-17T08:11:58Z</time></trkpt><trkpt lat="-24.17284022833291" lon="114.0434218097246"><ele>22.5</ele><time>2026-04-17T08:11:59Z</time></trkpt><trkpt lat="-24.172588640569547" lon="114.04359459413284"><ele>22.0</ele><time>2026-04-17T08:12:00Z</time></trkpt><trkpt lat="-24.172335257430348" lon="114.04376961937123"><ele>22.0</ele><time>2026-04-17T08:12:01Z</time></trkpt><trkpt lat="-24.17208190965363" lon="114.04394288365293"><ele>22.0</ele><time>2026-04-17T08:12:02Z</time></trkpt><trkpt lat="-24.171826893712648" lon="114.0441173822622"><ele>22.0</ele><time>2026-04-17T08:12:03Z</time></trkpt><trkpt lat="-24.171572586710912" lon="114.04428905568602"><ele>22.0</ele><time>2026-04-17T08:12:04Z</time></trkpt><trkpt lat="-24.171317682382874" lon="114.0444616196738"><ele>22.5</ele><time>2026-04-17T08:12:05Z</time></trkpt><trkpt lat="-24.17106148326753" lon="114.04463466490395"><ele>23.0</ele><time>2026-04-17T08:12:06Z</time></trkpt><trkpt lat="-24.170805822417552" lon="114.04480722888123"><ele>21.5</ele><time>2026-04-17T08:12:07Z</time></trkpt><trkpt lat="-24.170550063057696" lon="114.04497728619042"><ele>20.0</ele><time>2026-04-17T08:12:08Z</time></trkpt><trkpt lat="-24.170295788192067" lon="114.04514439083856"><ele>20.0</ele><time>2026-04-17T08:12:09Z</time></trkpt><trkpt lat="-24.1700449270812" lon="114.04530978807172"><ele>20.0</ele><time>2026-04-17T08:12:10Z</time></trkpt><trkpt lat="-24.1697975743522" lon="114.04547602854984"><ele>21.5</ele><time>2026-04-17T08:12:11Z</time></trkpt><trkpt lat="-24.16955276091368" lon="114.04564256513666"><ele>23.0</ele><time>2026-04-17T08:12:12Z</time></trkpt><trkpt lat="-24.16931085504151" lon="114.04581133163843"><ele>23.0</ele><time>2026-04-17T08:12:13Z</time></trkpt><trkpt lat="-24.1690650687651" lon="114.04597834262151"><ele>23.0</ele><time>2026-04-17T08:12:14Z</time></trkpt><trkpt lat="-24.16881735929802" lon="114.04614604785301"><ele>22.5</ele><time>2026-04-17T08:12:15Z</time></trkpt><trkpt lat="-24.16856923840421" lon="114.04631727896"><ele>22.0</ele><time>2026-04-17T08:12:16Z</time></trkpt><trkpt lat="-24.16831725508176" lon="114.0464882100349"><ele>22.0</ele><time>2026-04-17T08:12:17Z</time></trkpt><trkpt lat="-24.168063577028637" lon="114.04666072698376"><ele>22.0</ele><time>2026-04-17T08:12:18Z</time></trkpt><trkpt lat="-24.167807611906888" lon="114.04683456984554"><ele>22.0</ele><time>2026-04-17T08:12:19Z</time></trkpt><trkpt lat="-24.16754903821457" lon="114.04700697688132"><ele>22.0</ele><time>2026-04-17T08:12:20Z</time></trkpt><trkpt lat="-24.167290634389133" lon="114.04717939206503"><ele>22.0</ele><time>2026-04-17T08:12:21Z</time></trkpt><trkpt lat="-24.167036733732953" lon="114.04735253216495"><ele>22.0</ele><time>2026-04-17T08:12:22Z</time></trkpt><trkpt lat="-24.166784589436062" lon="114.0475248343866"><ele>22.5</ele><time>2026-04-17T08:12:23Z</time></trkpt><trkpt lat="-24.166533375647365" lon="114.04769466002915"><ele>23.0</ele><time>2026-04-17T08:12:24Z</time></trkpt><trkpt lat="-24.1662851144299" lon="114.04786054876087"><ele>23.0</ele><time>2026-04-17T08:12:25Z</time></trkpt><trkpt lat="-24.16603584387094" lon="114.04802934975156"><ele>23.0</ele><time>2026-04-17T08:12:26Z</time></trkpt><trkpt lat="-24.165788746536478" lon="114.04819837507542"><ele>22.5</ele><time>2026-04-17T08:12:27Z</time></trkpt><trkpt lat="-24.165539947566415" lon="114.04836920681188"><ele>22.0</ele><time>2026-04-17T08:12:28Z</time></trkpt><trkpt lat="-24.165290068250258" lon="114.04853800000072"><ele>22.0</ele><time>2026-04-17T08:12:29Z</time></trkpt><trkpt lat="-24.165039164287034" lon="114.04870853378918"><ele>22.0</ele><time>2026-04-17T08:12:30Z</time></trkpt><trkpt lat="-24.164787722367517" lon="114.04887965250296"><ele>22.5</ele><time>2026-04-17T08:12:31Z</time></trkpt><trkpt lat="-24.164533487168363" lon="114.04905317240204"><ele>23.0</ele><time>2026-04-17T08:12:32Z</time></trkpt><trkpt lat="-24.164279300497846" lon="114.04922477264492"><ele>22.5</ele><time>2026-04-17T08:12:33Z</time></trkpt><trkpt lat="-24.16402640195728" lon="114.04939253248018"><ele>22.0</ele><time>2026-04-17T08:12:34Z</time></trkpt><trkpt lat="-24.163772384870345" lon="114.0495556653934"><ele>22.0</ele><time>2026-04-17T08:12:35Z</time></trkpt><trkpt lat="-24.16351371993721" lon="114.04970873814975"><ele>22.0</ele><time>2026-04-17T08:12:36Z</time></trkpt><trkpt lat="-24.16325059402892" lon="114.04985792563305"><ele>22.0</ele><time>2026-04-17T08:12:37Z</time></trkpt><trkpt lat="-24.162985318750014" lon="114.04999757931019"><ele>22.0</ele><time>2026-04-17T08:12:38Z</time></trkpt><trkpt lat="-24.162711416557244" lon="114.05012521685185"><ele>22.0</ele><time>2026-04-17T08:12:39Z</time></trkpt><trkpt lat="-24.162433789902185" lon="114.05023795789866"><ele>22.0</ele><time>2026-04-17T08:12:40Z</time></trkpt><trkpt lat="-24.162155044986747" lon="114.05034385665863"><ele>22.0</ele><time>2026-04-17T08:12:41Z</time></trkpt><trkpt lat="-24.161872913056577" lon="114.05044021292325"><ele>22.0</ele><time>2026-04-17T08:12:42Z</time></trkpt><trkpt lat="-24.16159111738286" lon="114.05051998088454"><ele>22.5</ele><time>2026-04-17T08:12:43Z</time></trkpt><trkpt lat="-24.161302712340245" lon="114.05059090725065"><ele>23.0</ele><time>2026-04-17T08:12:44Z</time></trkpt><trkpt lat="-24.16101384444038" lon="114.05065068443203"><ele>23.0</ele><time>2026-04-17T08:12:45Z</time></trkpt><trkpt lat="-24.160722813640263" lon="114.05069980258914"><ele>23.0</ele><time>2026-04-17T08:12:46Z</time></trkpt><trkpt lat="-24.160431909001982" lon="114.05073498291354"><ele>24.0</ele><time>2026-04-17T08:12:47Z</time></trkpt><trkpt lat="-24.160140475335457" lon="114.05076062893514"><ele>25.0</ele><time>2026-04-17T08:12:48Z</time></trkpt><trkpt lat="-24.159852390366634" lon="114.05077668316942"><ele>25.0</ele><time>2026-04-17T08:12:49Z</time></trkpt><trkpt lat="-24.159561862240352" lon="114.050783374242"><ele>25.0</ele><time>2026-04-17T08:12:50Z</time></trkpt><trkpt lat="-24.159271763520223" lon="114.05077755525808"><ele>25.0</ele><time>2026-04-17T08:12:51Z</time></trkpt><trkpt lat="-24.158984387348656" lon="114.05075805914919"><ele>25.0</ele><time>2026-04-17T08:12:52Z</time></trkpt><trkpt lat="-24.1586949042595" lon="114.05072798391701"><ele>25.0</ele><time>2026-04-17T08:12:53Z</time></trkpt><trkpt lat="-24.158407036914795" lon="114.05069422257398"><ele>25.0</ele><time>2026-04-17T08:12:54Z</time></trkpt><trkpt lat="-24.1581158128242" lon="114.05066032810504"><ele>24.5</ele><time>2026-04-17T08:12:55Z</time></trkpt><trkpt lat="-24.15782785474122" lon="114.05063340110893"><ele>24.0</ele><time>2026-04-17T08:12:56Z</time></trkpt><trkpt lat="-24.15753601676634" lon="114.05060963046347"><ele>24.0</ele><time>2026-04-17T08:12:57Z</time></trkpt><trkpt lat="-24.1572484807647" lon="114.05058671098132"><ele>24.0</ele><time>2026-04-17T08:12:58Z</time></trkpt><trkpt lat="-24.156958833462458" lon="114.05056347384203"><ele>24.0</ele><time>2026-04-17T08:12:59Z</time></trkpt><trkpt lat="-24.156670271609272" lon="114.05053730954798"><ele>24.0</ele><time>2026-04-17T08:13:00Z</time></trkpt><trkpt lat="-24.156382976501558" lon="114.0505116484105"><ele>23.5</ele><time>2026-04-17T08:13:01Z</time></trkpt><trkpt lat="-24.156097159694074" lon="114.05048722515791"><ele>23.0</ele><time>2026-04-17T08:13:02Z</time></trkpt><trkpt lat="-24.15581287360062" lon="114.05046212493927"><ele>22.0</ele><time>2026-04-17T08:13:03Z</time></trkpt><trkpt lat="-24.15552954180646" lon="114.05043880571078"><ele>21.0</ele><time>2026-04-17T08:13:04Z</time></trkpt><trkpt lat="-24.15524142395023" lon="114.05041695591963"><ele>21.0</ele><time>2026-04-17T08:13:05Z</time></trkpt><trkpt lat="-24.15495345486705" lon="114.05039365150144"><ele>21.0</ele><time>2026-04-17T08:13:06Z</time></trkpt><trkpt lat="-24.15466706605217" lon="114.05037215417563"><ele>21.0</ele><time>2026-04-17T08:13:07Z</time></trkpt><trkpt lat="-24.154382244444772" lon="114.05035196032242"><ele>21.0</ele><time>2026-04-17T08:13:08Z</time></trkpt><trkpt lat="-24.154099819438752" lon="114.05033849685287"><ele>21.5</ele><time>2026-04-17T08:13:09Z</time></trkpt><trkpt lat="-24.15381437047314" lon="114.05033042011287"><ele>22.0</ele><time>2026-04-17T08:13:10Z</time></trkpt><trkpt lat="-24.15352823962622" lon="114.05032581444114"><ele>22.0</ele><time>2026-04-17T08:13:11Z</time></trkpt><trkpt lat="-24.15324363971251" lon="114.05032283143578"><ele>22.0</ele><time>2026-04-17T08:13:12Z</time></trkpt><trkpt lat="-24.15295948810702" lon="114.05031823716529"><ele>21.5</ele><time>2026-04-17T08:13:13Z</time></trkpt><trkpt lat="-24.15267578646718" lon="114.05031413878072"><ele>21.0</ele><time>2026-04-17T08:13:14Z</time></trkpt><trkpt lat="-24.152397422505338" lon="114.05031284702817"><ele>20.0</ele><time>2026-04-17T08:13:15Z</time></trkpt><trkpt lat="-24.15211689258019" lon="114.05030917503157"><ele>19.0</ele><time>2026-04-17T08:13:16Z</time></trkpt><trkpt lat="-24.151836642405588" lon="114.05030403198592"><ele>19.0</ele><time>2026-04-17T08:13:17Z</time></trkpt><trkpt lat="-24.15155351512378" lon="114.05029945219879"><ele>19.0</ele><time>2026-04-17T08:13:18Z</time></trkpt><trkpt lat="-24.15127596497239" lon="114.0502971256439"><ele>19.5</ele><time>2026-04-17T08:13:19Z</time></trkpt><trkpt lat="-24.15099285573821" lon="114.05029756036434"><ele>20.0</ele><time>2026-04-17T08:13:20Z</time></trkpt><trkpt lat="-24.150709358475353" lon="114.05029718779372"><ele>20.0</ele><time>2026-04-17T08:13:21Z</time></trkpt><trkpt lat="-24.150426111156616" lon="114.05029345114389"><ele>20.0</ele><time>2026-04-17T08:13:22Z</time></trkpt><trkpt lat="-24.150142747616545" lon="114.05029085499378"><ele>19.0</ele><time>2026-04-17T08:13:23Z</time></trkpt><trkpt lat="-24.14985699693927" lon="114.05028710838239"><ele>18.0</ele><time>2026-04-17T08:13:24Z</time></trkpt><trkpt lat="-24.14956982634996" lon="114.05028254441713"><ele>18.0</ele><time>2026-04-17T08:13:25Z</time></trkpt><trkpt lat="-24.149283357943723" lon="114.05027840247985"><ele>18.0</ele><time>2026-04-17T08:13:26Z</time></trkpt><trkpt lat="-24.148996036976182" lon="114.05027583179604"><ele>18.0</ele><time>2026-04-17T08:13:27Z</time></trkpt><trkpt lat="-24.148710190224826" lon="114.05027543031356"><ele>18.0</ele><time>2026-04-17T08:13:28Z</time></trkpt><trkpt lat="-24.148439452712612" lon="114.05027538477921"><ele>19.0</ele><time>2026-04-17T08:13:29Z</time></trkpt><trkpt lat="-24.148179465812365" lon="114.05027114434385"><ele>20.0</ele><time>2026-04-17T08:13:30Z</time></trkpt><trkpt lat="-24.147922057737066" lon="114.05026606278402"><ele>20.0</ele><time>2026-04-17T08:13:31Z</time></trkpt><trkpt lat="-24.147659004636346" lon="114.05026224301506"><ele>20.0</ele><time>2026-04-17T08:13:32Z</time></trkpt><trkpt lat="-24.147399152256746" lon="114.05025863698016"><ele>19.0</ele><time>2026-04-17T08:13:33Z</time></trkpt><trkpt lat="-24.14713882435906" lon="114.05025472990262"><ele>18.0</ele><time>2026-04-17T08:13:34Z</time></trkpt><trkpt lat="-24.146881199595224" lon="114.05025210223398"><ele>18.0</ele><time>2026-04-17T08:13:35Z</time></trkpt><trkpt lat="-24.14662085929864" lon="114.05024901385589"><ele>18.0</ele><time>2026-04-17T08:13:36Z</time></trkpt><trkpt lat="-24.14635577285385" lon="114.05024796263653"><ele>19.0</ele><time>2026-04-17T08:13:37Z</time></trkpt><trkpt lat="-24.146086814820393" lon="114.05024717953019"><ele>20.0</ele><time>2026-04-17T08:13:38Z</time></trkpt><trkpt lat="-24.145819336059294" lon="114.05024353103082"><ele>20.0</ele><time>2026-04-17T08:13:39Z</time></trkpt><trkpt lat="-24.145550110609253" lon="114.0502388780698"><ele>20.0</ele><time>2026-04-17T08:13:40Z</time></trkpt><trkpt lat="-24.145280276634587" lon="114.0502319330129"><ele>20.0</ele><time>2026-04-17T08:13:41Z</time></trkpt><trkpt lat="-24.145010111489988" lon="114.05022854026197"><ele>20.0</ele><time>2026-04-17T08:13:42Z</time></trkpt><trkpt lat="-24.14473746871561" lon="114.05022542237957"><ele>20.0</ele><time>2026-04-17T08:13:43Z</time></trkpt><trkpt lat="-24.144463636274573" lon="114.0502236810833"><ele>20.0</ele><time>2026-04-17T08:13:44Z</time></trkpt><trkpt lat="-24.14419222229513" lon="114.05022419932133"><ele>20.5</ele><time>2026-04-17T08:13:45Z</time></trkpt><trkpt lat="-24.143919016871333" lon="114.05022447138447"><ele>21.0</ele><time>2026-04-17T08:13:46Z</time></trkpt><trkpt lat="-24.14364684788274" lon="114.05022444189746"><ele>21.0</ele><time>2026-04-17T08:13:47Z</time></trkpt><trkpt lat="-24.143367779369406" lon="114.0502210971959"><ele>21.0</ele><time>2026-04-17T08:13:48Z</time></trkpt><trkpt lat="-24.143086360000513" lon="114.05021997032543"><ele>19.5</ele><time>2026-04-17T08:13:49Z</time></trkpt><trkpt lat="-24.142804760539395" lon="114.05021554677575"><ele>18.0</ele><time>2026-04-17T08:13:50Z</time></trkpt><trkpt lat="-24.142521102513175" lon="114.05020921956275"><ele>19.5</ele><time>2026-04-17T08:13:51Z</time></trkpt><trkpt lat="-24.142236119532136" lon="114.05020328964517"><ele>21.0</ele><time>2026-04-17T08:13:52Z</time></trkpt><trkpt lat="-24.141949777356782" lon="114.05020238374502"><ele>21.0</ele><time>2026-04-17T08:13:53Z</time></trkpt><trkpt lat="-24.14166351950256" lon="114.05020034814784"><ele>21.0</ele><time>2026-04-17T08:13:54Z</time></trkpt><trkpt lat="-24.141377970214503" lon="114.05019713464962"><ele>21.0</ele><time>2026-04-17T08:13:55Z</time></trkpt><trkpt lat="-24.141093852995894" lon="114.0501940285069"><ele>21.0</ele><time>2026-04-17T08:13:56Z</time></trkpt><trkpt lat="-24.140807701120835" lon="114.05018853902274"><ele>20.5</ele><time>2026-04-17T08:13:57Z</time></trkpt><trkpt lat="-24.1405220549878" lon="114.05018681133679"><ele>20.0</ele><time>2026-04-17T08:13:58Z</time></trkpt><trkpt lat="-24.14023911119565" lon="114.05018622144499"><ele>20.0</ele><time>2026-04-17T08:13:59Z</time></trkpt><trkpt lat="-24.139959347626434" lon="114.05018760361605"><ele>20.0</ele><time>2026-04-17T08:14:00Z</time></trkpt><trkpt lat="-24.139678703615118" lon="114.05018577355784"><ele>20.0</ele><time>2026-04-17T08:14:01Z</time></trkpt><trkpt lat="-24.139397508974465" lon="114.0501828578212"><ele>20.0</ele><time>2026-04-17T08:14:02Z</time></trkpt><trkpt lat="-24.139118441660404" lon="114.05017882166811"><ele>20.5</ele><time>2026-04-17T08:14:03Z</time></trkpt><trkpt lat="-24.13883870363635" lon="114.05017369924025"><ele>21.0</ele><time>2026-04-17T08:14:04Z</time></trkpt><trkpt lat="-24.138558488393844" lon="114.05016746174272"><ele>21.0</ele><time>2026-04-17T08:14:05Z</time></trkpt><trkpt lat="-24.138277364157002" lon="114.05016428271013"><ele>21.0</ele><time>2026-04-17T08:14:06Z</time></trkpt><trkpt lat="-24.13799755946006" lon="114.05016399992662"><ele>21.0</ele><time>2026-04-17T08:14:07Z</time></trkpt><trkpt lat="-24.13771375790926" lon="114.05016164853238"><ele>21.0</ele><time>2026-04-17T08:14:08Z</time></trkpt><trkpt lat="-24.137434477128654" lon="114.05015936216067"><ele>20.5</ele><time>2026-04-17T08:14:09Z</time></trkpt><trkpt lat="-24.137156761828457" lon="114.05015768704162"><ele>20.0</ele><time>2026-04-17T08:14:10Z</time></trkpt><trkpt lat="-24.136878922575285" lon="114.0501559859434"><ele>20.0</ele><time>2026-04-17T08:14:11Z</time></trkpt><trkpt lat="-24.136601925335373" lon="114.0501522399636"><ele>20.0</ele><time>2026-04-17T08:14:12Z</time></trkpt><trkpt lat="-24.136321886281426" lon="114.0501472186591"><ele>20.5</ele><time>2026-04-17T08:14:13Z</time></trkpt><trkpt lat="-24.136044292338344" lon="114.05014151092041"><ele>21.0</ele><time>2026-04-17T08:14:14Z</time></trkpt><trkpt lat="-24.13576818854357" lon="114.05014013612426"><ele>21.0</ele><time>2026-04-17T08:14:15Z</time></trkpt><trkpt lat="-24.13548998130903" lon="114.05013406142771"><ele>21.0</ele><time>2026-04-17T08:14:16Z</time></trkpt><trkpt lat="-24.13521380874486" lon="114.05013022389244"><ele>21.0</ele><time>2026-04-17T08:14:17Z</time></trkpt><trkpt lat="-24.13493473007226" lon="114.05012792463167"><ele>21.0</ele><time>2026-04-17T08:14:18Z</time></trkpt><trkpt lat="-24.13465959162336" lon="114.05012788428961"><ele>20.5</ele><time>2026-04-17T08:14:19Z</time></trkpt><trkpt lat="-24.134379215382843" lon="114.05012820466048"><ele>20.0</ele><time>2026-04-17T08:14:20Z</time></trkpt><trkpt lat="-24.134092684688703" lon="114.05012763434704"><ele>19.5</ele><time>2026-04-17T08:14:21Z</time></trkpt><trkpt lat="-24.133802146564406" lon="114.05012720840944"><ele>19.0</ele><time>2026-04-17T08:14:22Z</time></trkpt><trkpt lat="-24.13351743572034" lon="114.05012607321231"><ele>19.0</ele><time>2026-04-17T08:14:23Z</time></trkpt><trkpt lat="-24.133225300174832" lon="114.05012382840535"><ele>19.0</ele><time>2026-04-17T08:14:24Z</time></trkpt><trkpt lat="-24.132923397647527" lon="114.05011783451876"><ele>19.0</ele><time>2026-04-17T08:14:25Z</time></trkpt><trkpt lat="-24.1326117930922" lon="114.05011133967815"><ele>19.0</ele><time>2026-04-17T08:14:26Z</time></trkpt><trkpt lat="-24.13229320389598" lon="114.05010749957644"><ele>19.0</ele><time>2026-04-17T08:14:27Z</time></trkpt><trkpt lat="-24.13197460782455" lon="114.05010440527558"><ele>19.0</ele><time>2026-04-17T08:14:28Z</time></trkpt><trkpt lat="-24.131656235180717" lon="114.05009974652239"><ele>19.0</ele><time>2026-04-17T08:14:29Z</time></trkpt><trkpt lat="-24.131338286538274" lon="114.05009349344387"><ele>19.0</ele><time>2026-04-17T08:14:30Z</time></trkpt><trkpt lat="-24.131020842373893" lon="114.05008982042527"><ele>19.5</ele><time>2026-04-17T08:14:31Z</time></trkpt><trkpt lat="-24.130704272395477" lon="114.05008788568853"><ele>20.0</ele><time>2026-04-17T08:14:32Z</time></trkpt><trkpt lat="-24.13038740807494" lon="114.05008485615423"><ele>20.0</ele><time>2026-04-17T08:14:33Z</time></trkpt><trkpt lat="-24.130071974530335" lon="114.0500827434021"><ele>20.0</ele><time>2026-04-17T08:14:34Z</time></trkpt><trkpt lat="-24.129758639518517" lon="114.05008034774845"><ele>20.0</ele><time>2026-04-17T08:14:35Z</time></trkpt><trkpt lat="-24.12944508762345" lon="114.05007762637361"><ele>20.0</ele><time>2026-04-17T08:14:36Z</time></trkpt><trkpt lat="-24.12912741130346" lon="114.05007637377672"><ele>19.0</ele><time>2026-04-17T08:14:37Z</time></trkpt><trkpt lat="-24.128810184236762" lon="114.05007319748182"><ele>18.0</ele><time>2026-04-17T08:14:38Z</time></trkpt><trkpt lat="-24.128490257161136" lon="114.05006961205926"><ele>19.5</ele><time>2026-04-17T08:14:39Z</time></trkpt><trkpt lat="-24.128171108042494" lon="114.05006586272799"><ele>21.0</ele><time>2026-04-17T08:14:40Z</time></trkpt><trkpt lat="-24.12784644813906" lon="114.05006428839853"><ele>21.0</ele><time>2026-04-17T08:14:41Z</time></trkpt><trkpt lat="-24.127524615819006" lon="114.05005880756302"><ele>21.0</ele><time>2026-04-17T08:14:42Z</time></trkpt><trkpt lat="-24.12720476074502" lon="114.05005407981656"><ele>20.5</ele><time>2026-04-17T08:14:43Z</time></trkpt><trkpt lat="-24.12688358661309" lon="114.05005045493088"><ele>20.0</ele><time>2026-04-17T08:14:44Z</time></trkpt><trkpt lat="-24.126564748184144" lon="114.05004770828876"><ele>19.5</ele><time>2026-04-17T08:14:45Z</time></trkpt><trkpt lat="-24.126248566770844" lon="114.05004561437168"><ele>19.0</ele><time>2026-04-17T08:14:46Z</time></trkpt><trkpt lat="-24.125929151637965" lon="114.05004573726443"><ele>18.5</ele><time>2026-04-17T08:14:47Z</time></trkpt><trkpt lat="-24.125613446709213" lon="114.05004320552428"><ele>18.0</ele><time>2026-04-17T08:14:48Z</time></trkpt><trkpt lat="-24.125299153787484" lon="114.05004104629657"><ele>18.0</ele><time>2026-04-17T08:14:49Z</time></trkpt><trkpt lat="-24.12498543022621" lon="114.05003897430343"><ele>18.0</ele><time>2026-04-17T08:14:50Z</time></trkpt><trkpt lat="-24.1246771032206" lon="114.05003700267984"><ele>18.5</ele><time>2026-04-17T08:14:51Z</time></trkpt><trkpt lat="-24.124371190206414" lon="114.05003709443272"><ele>19.0</ele><time>2026-04-17T08:14:52Z</time></trkpt><trkpt lat="-24.124063117488095" lon="114.05003681581763"><ele>19.0</ele><time>2026-04-17T08:14:53Z</time></trkpt><trkpt lat="-24.12375522164139" lon="114.05003289339193"><ele>19.0</ele><time>2026-04-17T08:14:54Z</time></trkpt><trkpt lat="-24.123444102938162" lon="114.05002602385507"><ele>19.0</ele><time>2026-04-17T08:14:55Z</time></trkpt><trkpt lat="-24.123133869197115" lon="114.05002088697697"><ele>19.0</ele><time>2026-04-17T08:14:56Z</time></trkpt><trkpt lat="-24.12282335124606" lon="114.05001742118353"><ele>19.0</ele><time>2026-04-17T08:14:57Z</time></trkpt><trkpt lat="-24.122510293278896" lon="114.05001291217684"><ele>19.0</ele><time>2026-04-17T08:14:58Z</time></trkpt><trkpt lat="-24.12220074196378" lon="114.05001005633778"><ele>18.0</ele><time>2026-04-17T08:14:59Z</time></trkpt><trkpt lat="-24.121896229876253" lon="114.05000892497897"><ele>17.0</ele><time>2026-04-17T08:15:00Z</time></trkpt><trkpt lat="-24.12158635698193" lon="114.05000619011109"><ele>18.0</ele><time>2026-04-17T08:15:01Z</time></trkpt><trkpt lat="-24.12127742220619" lon="114.05000160646098"><ele>19.0</ele><time>2026-04-17T08:15:02Z</time></trkpt><trkpt lat="-24.12096811633615" lon="114.04999710317043"><ele>18.5</ele><time>2026-04-17T08:15:03Z</time></trkpt><trkpt lat="-24.120658338573833" lon="114.04999239863383"><ele>18.0</ele><time>2026-04-17T08:15:04Z</time></trkpt><trkpt lat="-24.120350556483288" lon="114.04999020739724"><ele>18.0</ele><time>2026-04-17T08:15:05Z</time></trkpt><trkpt lat="-24.12004418079051" lon="114.04999217647233"><ele>18.0</ele><time>2026-04-17T08:15:06Z</time></trkpt><trkpt lat="-24.1197399624984" lon="114.04999112352708"><ele>18.0</ele><time>2026-04-17T08:15:07Z</time></trkpt><trkpt lat="-24.119432125792287" lon="114.04998693435711"><ele>18.0</ele><time>2026-04-17T08:15:08Z</time></trkpt><trkpt lat="-24.119123235067295" lon="114.04997991247062"><ele>18.0</ele><time>2026-04-17T08:15:09Z</time></trkpt><trkpt lat="-24.11881387319154" lon="114.04997648781227"><ele>18.0</ele><time>2026-04-17T08:15:10Z</time></trkpt><trkpt lat="-24.11850284940194" lon="114.04997130268865"><ele>18.0</ele><time>2026-04-17T08:15:11Z</time></trkpt><trkpt lat="-24.11819127906563" lon="114.04996599773627"><ele>18.0</ele><time>2026-04-17T08:15:12Z</time></trkpt><trkpt lat="-24.117875368199254" lon="114.04996342317463"><ele>18.0</ele><time>2026-04-17T08:15:13Z</time></trkpt><trkpt lat="-24.117557693027713" lon="114.04996012770088"><ele>18.0</ele><time>2026-04-17T08:15:14Z</time></trkpt><trkpt lat="-24.117239898877926" lon="114.04995689378158"><ele>17.5</ele><time>2026-04-17T08:15:15Z</time></trkpt><trkpt lat="-24.116925971177196" lon="114.04995504201543"><ele>17.0</ele><time>2026-04-17T08:15:16Z</time></trkpt><trkpt lat="-24.116608726617354" lon="114.04995079418511"><ele>17.0</ele><time>2026-04-17T08:15:17Z</time></trkpt><trkpt lat="-24.116292377299168" lon="114.04995025459438"><ele>17.0</ele><time>2026-04-17T08:15:18Z</time></trkpt><trkpt lat="-24.115976939429334" lon="114.04994872844365"><ele>17.0</ele><time>2026-04-17T08:15:19Z</time></trkpt><trkpt lat="-24.115660019132584" lon="114.04994475892133"><ele>17.0</ele><time>2026-04-17T08:15:20Z</time></trkpt><trkpt lat="-24.115342959610135" lon="114.0499371821146"><ele>17.0</ele><time>2026-04-17T08:15:21Z</time></trkpt><trkpt lat="-24.115023352768823" lon="114.04993204051068"><ele>17.0</ele><time>2026-04-17T08:15:22Z</time></trkpt><trkpt lat="-24.114704456278687" lon="114.04993093828598"><ele>18.0</ele><time>2026-04-17T08:15:23Z</time></trkpt><trkpt lat="-24.114388327437656" lon="114.04993069844545"><ele>19.0</ele><time>2026-04-17T08:15:24Z</time></trkpt><trkpt lat="-24.114073371321354" lon="114.04992854632061"><ele>19.0</ele><time>2026-04-17T08:15:25Z</time></trkpt><trkpt lat="-24.113758409420832" lon="114.04992684539465"><ele>19.0</ele><time>2026-04-17T08:15:26Z</time></trkpt><trkpt lat="-24.11344434251738" lon="114.04992464620636"><ele>18.0</ele><time>2026-04-17T08:15:27Z</time></trkpt><trkpt lat="-24.113132307012734" lon="114.0499244626372"><ele>17.0</ele><time>2026-04-17T08:15:28Z</time></trkpt><trkpt lat="-24.1128209982821" lon="114.04992280501489"><ele>17.0</ele><time>2026-04-17T08:15:29Z</time></trkpt><trkpt lat="-24.112511886261515" lon="114.04991256906268"><ele>17.0</ele><time>2026-04-17T08:15:30Z</time></trkpt><trkpt lat="-24.11220387359836" lon="114.04989698121862"><ele>17.5</ele><time>2026-04-17T08:15:31Z</time></trkpt><trkpt lat="-24.111897780914784" lon="114.04986953062158"><ele>18.0</ele><time>2026-04-17T08:15:32Z</time></trkpt><trkpt lat="-24.111592226838575" lon="114.04982425631174"><ele>18.5</ele><time>2026-04-17T08:15:33Z</time></trkpt><trkpt lat="-24.111288162356836" lon="114.04976435595377"><ele>19.0</ele><time>2026-04-17T08:15:34Z</time></trkpt><trkpt lat="-24.110989113014956" lon="114.04969470461381"><ele>17.5</ele><time>2026-04-17T08:15:35Z</time></trkpt><trkpt lat="-24.110689369010036" lon="114.04961715929032"><ele>16.0</ele><time>2026-04-17T08:15:36Z</time></trkpt><trkpt lat="-24.110393071440516" lon="114.04953501329292"><ele>16.0</ele><time>2026-04-17T08:15:37Z</time></trkpt><trkpt lat="-24.110093257053688" lon="114.04944725998891"><ele>16.0</ele><time>2026-04-17T08:15:38Z</time></trkpt><trkpt lat="-24.109791012532952" lon="114.04935963945437"><ele>17.0</ele><time>2026-04-17T08:15:39Z</time></trkpt><trkpt lat="-24.109485630315593" lon="114.04927690266534"><ele>18.0</ele><time>2026-04-17T08:15:40Z</time></trkpt><trkpt lat="-24.109181309837727" lon="114.04919860557996"><ele>17.5</ele><time>2026-04-17T08:15:41Z</time></trkpt><trkpt lat="-24.108879368957883" lon="114.04912339197774"><ele>17.0</ele><time>2026-04-17T08:15:42Z</time></trkpt><trkpt lat="-24.10857771065105" lon="114.04904717023294"><ele>17.0</ele><time>2026-04-17T08:15:43Z</time></trkpt><trkpt lat="-24.10827940151203" lon="114.04897031814896"><ele>17.0</ele><time>2026-04-17T08:15:44Z</time></trkpt><trkpt lat="-24.10798224360075" lon="114.04889078661711"><ele>17.0</ele><time>2026-04-17T08:15:45Z</time></trkpt><trkpt lat="-24.10768164089017" lon="114.04881158562168"><ele>17.0</ele><time>2026-04-17T08:15:46Z</time></trkpt><trkpt lat="-24.107380820749444" lon="114.04873471009816"><ele>17.5</ele><time>2026-04-17T08:15:47Z</time></trkpt><trkpt lat="-24.10707943052237" lon="114.04865846403708"><ele>18.0</ele><time>2026-04-17T08:15:48Z</time></trkpt><trkpt lat="-24.10678086073189" lon="114.04858167993532"><ele>18.5</ele><time>2026-04-17T08:15:49Z</time></trkpt><trkpt lat="-24.106482617317923" lon="114.04850163863797"><ele>19.0</ele><time>2026-04-17T08:15:50Z</time></trkpt><trkpt lat="-24.10618279806776" lon="114.04842268520775"><ele>19.0</ele><time>2026-04-17T08:15:51Z</time></trkpt><trkpt lat="-24.105882857481532" lon="114.04834370796243"><ele>19.0</ele><time>2026-04-17T08:15:52Z</time></trkpt><trkpt lat="-24.105581932651976" lon="114.04826477526406"><ele>17.5</ele><time>2026-04-17T08:15:53Z</time></trkpt><trkpt lat="-24.105281131831163" lon="114.04818483508035"><ele>16.0</ele><time>2026-04-17T08:15:54Z</time></trkpt><trkpt lat="-24.10497830366184" lon="114.04810594776819"><ele>16.5</ele><time>2026-04-17T08:15:55Z</time></trkpt><trkpt lat="-24.104674739240554" lon="114.04802694043526"><ele>17.0</ele><time>2026-04-17T08:15:56Z</time></trkpt><trkpt lat="-24.104372352525303" lon="114.04794829921562"><ele>17.0</ele><time>2026-04-17T08:15:57Z</time></trkpt><trkpt lat="-24.104072255234964" lon="114.04787111106631"><ele>17.0</ele><time>2026-04-17T08:15:58Z</time></trkpt><trkpt lat="-24.103771117801717" lon="114.04779261138896"><ele>17.0</ele><time>2026-04-17T08:15:59Z</time></trkpt><trkpt lat="-24.103471634160762" lon="114.04771523920196"><ele>17.0</ele><time>2026-04-17T08:16:00Z</time></trkpt><trkpt lat="-24.103173906579524" lon="114.04763676854765"><ele>17.0</ele><time>2026-04-17T08:16:01Z</time></trkpt><trkpt lat="-24.10287543598859" lon="114.04755497361731"><ele>17.0</ele><time>2026-04-17T08:16:02Z</time></trkpt><trkpt lat="-24.102573634548577" lon="114.04747262713377"><ele>18.0</ele><time>2026-04-17T08:16:03Z</time></trkpt><trkpt lat="-24.102270213844914" lon="114.04739261202864"><ele>19.0</ele><time>2026-04-17T08:16:04Z</time></trkpt><trkpt lat="-24.101968609864933" lon="114.04731510588978"><ele>19.0</ele><time>2026-04-17T08:16:05Z</time></trkpt><trkpt lat="-24.101666342805522" lon="114.04723553941507"><ele>19.0</ele><time>2026-04-17T08:16:06Z</time></trkpt><trkpt lat="-24.10136668766087" lon="114.04715630740755"><ele>18.5</ele><time>2026-04-17T08:16:07Z</time></trkpt><trkpt lat="-24.101068094057712" lon="114.04707788126886"><ele>18.0</ele><time>2026-04-17T08:16:08Z</time></trkpt><trkpt lat="-24.100772471340864" lon="114.0470015355212"><ele>17.5</ele><time>2026-04-17T08:16:09Z</time></trkpt><trkpt lat="-24.10047564555527" lon="114.04692560188387"><ele>17.0</ele><time>2026-04-17T08:16:10Z</time></trkpt><trkpt lat="-24.100177593044318" lon="114.04684820522722"><ele>16.5</ele><time>2026-04-17T08:16:11Z</time></trkpt><trkpt lat="-24.099880096462506" lon="114.0467716090374"><ele>16.0</ele><time>2026-04-17T08:16:12Z</time></trkpt><trkpt lat="-24.09958387708996" lon="114.0466955555198"><ele>17.0</ele><time>2026-04-17T08:16:13Z</time></trkpt><trkpt lat="-24.099001846155115" lon="114.04654973542405"><ele>17.0</ele><time>2026-04-17T08:16:15Z</time></trkpt><trkpt lat="-24.098716370935904" lon="114.04647958876262"><ele>17.0</ele><time>2026-04-17T08:16:16Z</time></trkpt><trkpt lat="-24.098432594772365" lon="114.04640517044919"><ele>16.5</ele><time>2026-04-17T08:16:17Z</time></trkpt><trkpt lat="-24.098150526969093" lon="114.04632330324444"><ele>16.0</ele><time>2026-04-17T08:16:18Z</time></trkpt><trkpt lat="-24.097867119433648" lon="114.04623992989167"><ele>16.0</ele><time>2026-04-17T08:16:19Z</time></trkpt><trkpt lat="-24.09757867786755" lon="114.04615873725906"><ele>16.0</ele><time>2026-04-17T08:16:20Z</time></trkpt><trkpt lat="-24.097288020986007" lon="114.0460792634729"><ele>16.5</ele><time>2026-04-17T08:16:21Z</time></trkpt><trkpt lat="-24.096995258846086" lon="114.04600112369113"><ele>17.0</ele><time>2026-04-17T08:16:22Z</time></trkpt><trkpt lat="-24.096699084054578" lon="114.04592336955785"><ele>17.5</ele><time>2026-04-17T08:16:23Z</time></trkpt><trkpt lat="-24.096400012632422" lon="114.0458470953438"><ele>18.0</ele><time>2026-04-17T08:16:24Z</time></trkpt><trkpt lat="-24.096096904672514" lon="114.04577114921445"><ele>18.0</ele><time>2026-04-17T08:16:25Z</time></trkpt><trkpt lat="-24.095791504544863" lon="114.0456963401098"><ele>18.0</ele><time>2026-04-17T08:16:26Z</time></trkpt><trkpt lat="-24.095493731688727" lon="114.0456216857605"><ele>18.0</ele><time>2026-04-17T08:16:27Z</time></trkpt><trkpt lat="-24.095221075693832" lon="114.04555315266636"><ele>18.0</ele><time>2026-04-17T08:16:28Z</time></trkpt><trkpt lat="-24.094952819406995" lon="114.0454859467465"><ele>18.0</ele><time>2026-04-17T08:16:29Z</time></trkpt><trkpt lat="-24.094674511964648" lon="114.04541447733921"><ele>18.0</ele><time>2026-04-17T08:16:30Z</time></trkpt><trkpt lat="-24.094390395644645" lon="114.04533827312132"><ele>18.0</ele><time>2026-04-17T08:16:31Z</time></trkpt><trkpt lat="-24.094103069253674" lon="114.04526223243023"><ele>18.0</ele><time>2026-04-17T08:16:32Z</time></trkpt><trkpt lat="-24.09381512499496" lon="114.0451880146067"><ele>17.0</ele><time>2026-04-17T08:16:33Z</time></trkpt><trkpt lat="-24.09352502285737" lon="114.0451103723454"><ele>16.0</ele><time>2026-04-17T08:16:34Z</time></trkpt><trkpt lat="-24.093232057308317" lon="114.04503062113955"><ele>16.5</ele><time>2026-04-17T08:16:35Z</time></trkpt><trkpt lat="-24.092939209638644" lon="114.04495380067024"><ele>17.0</ele><time>2026-04-17T08:16:36Z</time></trkpt><trkpt lat="-24.092645382180034" lon="114.04487575078228"><ele>16.5</ele><time>2026-04-17T08:16:37Z</time></trkpt><trkpt lat="-24.092352171916886" lon="114.04479943446835"><ele>16.0</ele><time>2026-04-17T08:16:38Z</time></trkpt><trkpt lat="-24.092056760395582" lon="114.04472084603191"><ele>16.0</ele><time>2026-04-17T08:16:39Z</time></trkpt><trkpt lat="-24.091758691531222" lon="114.04464007253786"><ele>16.0</ele><time>2026-04-17T08:16:40Z</time></trkpt><trkpt lat="-24.09146084084661" lon="114.0445628585509"><ele>16.0</ele><time>2026-04-17T08:16:41Z</time></trkpt><trkpt lat="-24.091162243556642" lon="114.04448626778128"><ele>16.0</ele><time>2026-04-17T08:16:42Z</time></trkpt><trkpt lat="-24.09085954633115" lon="114.04440573903345"><ele>15.5</ele><time>2026-04-17T08:16:43Z</time></trkpt><trkpt lat="-24.090556986444454" lon="114.04432326649818"><ele>15.0</ele><time>2026-04-17T08:16:44Z</time></trkpt><trkpt lat="-24.09025419272084" lon="114.04424283482196"><ele>15.0</ele><time>2026-04-17T08:16:45Z</time></trkpt><trkpt lat="-24.089954430183763" lon="114.04416361268265"><ele>15.0</ele><time>2026-04-17T08:16:46Z</time></trkpt><trkpt lat="-24.08965305092923" lon="114.04408393502173"><ele>15.0</ele><time>2026-04-17T08:16:47Z</time></trkpt><trkpt lat="-24.089352913872975" lon="114.04400476070518"><ele>15.0</ele><time>2026-04-17T08:16:48Z</time></trkpt><trkpt lat="-24.089053042878295" lon="114.04392773297013"><ele>15.0</ele><time>2026-04-17T08:16:49Z</time></trkpt><trkpt lat="-24.088756001984628" lon="114.0438526756227"><ele>15.0</ele><time>2026-04-17T08:16:50Z</time></trkpt><trkpt lat="-24.088458450158424" lon="114.04377911181992"><ele>15.5</ele><time>2026-04-17T08:16:51Z</time></trkpt><trkpt lat="-24.088162055696127" lon="114.0437017603809"><ele>16.0</ele><time>2026-04-17T08:16:52Z</time></trkpt><trkpt lat="-24.087870193129817" lon="114.04362309613265"><ele>16.0</ele><time>2026-04-17T08:16:53Z</time></trkpt><trkpt lat="-24.087576992738004" lon="114.0435464212041"><ele>16.0</ele><time>2026-04-17T08:16:54Z</time></trkpt><trkpt lat="-24.087286343119942" lon="114.04347069338007"><ele>16.5</ele><time>2026-04-17T08:16:55Z</time></trkpt><trkpt lat="-24.086996750213338" lon="114.04339645509228"><ele>17.0</ele><time>2026-04-17T08:16:56Z</time></trkpt><trkpt lat="-24.305458071455725" lon="114.04444584723564"><ele>21.5</ele><time>2026-04-17T08:04:08.999Z</time></trkpt><trkpt lat="-24.305217556832567" lon="114.04458555300316"><ele>26.0</ele><time>2026-04-17T08:04:09.999Z</time></trkpt><trkpt lat="-24.304975607267462" lon="114.04472144343914"><ele>26.0</ele><time>2026-04-17T08:04:10.999Z</time></trkpt><trkpt lat="-24.30473446181784" lon="114.04485440733247"><ele>26.0</ele><time>2026-04-17T08:04:11.999Z</time></trkpt><trkpt lat="-24.304483237021362" lon="114.04498355799991"><ele>24.5</ele><time>2026-04-17T08:04:12.999Z</time></trkpt><trkpt lat="-24.304234767400153" lon="114.04510631226199"><ele>23.0</ele><time>2026-04-17T08:04:13.999Z</time></trkpt><trkpt lat="-24.303979119460415" lon="114.0452186770562"><ele>23.5</ele><time>2026-04-17T08:04:14.999Z</time></trkpt><trkpt lat="-24.30371909352673" lon="114.04532007649985"><ele>24.0</ele><time>2026-04-17T08:04:15.999Z</time></trkpt><trkpt lat="-24.30345261670864" lon="114.04541043338904"><ele>24.0</ele><time>2026-04-17T08:04:16.999Z</time></trkpt><trkpt lat="-24.303179369180945" lon="114.04549012759728"><ele>24.0</ele><time>2026-04-17T08:04:17.999Z</time></trkpt><trkpt lat="-24.302902434186436" lon="114.04556068014216"><ele>24.0</ele><time>2026-04-17T08:04:18.999Z</time></trkpt><trkpt lat="-24.30262000567052" lon="114.04562358690352"><ele>24.0</ele><time>2026-04-17T08:04:19.999Z</time></trkpt><trkpt lat="-24.30233601212121" lon="114.04568010101303"><ele>23.5</ele><time>2026-04-17T08:04:20.999Z</time></trkpt><trkpt lat="-24.30205107349109" lon="114.04572695286757"><ele>23.0</ele><time>2026-04-17T08:04:21.999Z</time></trkpt><trkpt lat="-24.301765955921052" lon="114.04576306883546"><ele>23.0</ele><time>2026-04-17T08:04:22.999Z</time></trkpt><trkpt lat="-24.301483049304636" lon="114.0457857175149"><ele>23.0</ele><time>2026-04-17T08:04:23.999Z</time></trkpt><trkpt lat="-24.301197225205616" lon="114.04579394290413"><ele>22.5</ele><time>2026-04-17T08:04:24.999Z</time></trkpt><trkpt lat="-24.30091353591373" lon="114.04579065186621"><ele>22.0</ele><time>2026-04-17T08:04:25.999Z</time></trkpt><trkpt lat="-24.300626666399687" lon="114.04577653530664"><ele>22.5</ele><time>2026-04-17T08:04:26.999Z</time></trkpt><trkpt lat="-24.300340736531602" lon="114.04575426466371"><ele>23.0</ele><time>2026-04-17T08:04:27.999Z</time></trkpt><trkpt lat="-24.300056857362264" lon="114.04572370645248"><ele>23.0</ele><time>2026-04-17T08:04:28.999Z</time></trkpt><trkpt lat="-24.299773811486187" lon="114.04568302124775"><ele>23.0</ele><time>2026-04-17T08:04:29.999Z</time></trkpt><trkpt lat="-24.299492510067836" lon="114.0456297282856"><ele>22.5</ele><time>2026-04-17T08:04:30.999Z</time></trkpt><trkpt lat="-24.299209458347658" lon="114.0455680516333"><ele>22.0</ele><time>2026-04-17T08:04:31.999Z</time></trkpt><trkpt lat="-24.298925140569732" lon="114.04550467602652"><ele>22.0</ele><time>2026-04-17T08:04:32.999Z</time></trkpt><trkpt lat="-24.298642723607237" lon="114.04544621360112"><ele>22.0</ele><time>2026-04-17T08:04:33.999Z</time></trkpt><trkpt lat="-24.298365279505106" lon="114.04539204265218"><ele>22.0</ele><time>2026-04-17T08:04:34.999Z</time></trkpt><trkpt lat="-24.298105134465892" lon="114.04534472808538"><ele>22.0</ele><time>2026-04-17T08:04:35.999Z</time></trkpt><trkpt lat="-24.2978665253757" lon="114.04529974151461"><ele>22.0</ele><time>2026-04-17T08:04:36.999Z</time></trkpt><trkpt lat="-24.297620168029454" lon="114.04525431303007"><ele>22.0</ele><time>2026-04-17T08:04:37.999Z</time></trkpt><trkpt lat="-24.29736193857099" lon="114.04520693212098"><ele>22.0</ele><time>2026-04-17T08:04:38.999Z</time></trkpt><trkpt lat="-24.29709957321143" lon="114.04515886222079"><ele>22.0</ele><time>2026-04-17T08:04:39.999Z</time></trkpt><trkpt lat="-24.296828210848123" lon="114.04510391217485"><ele>22.0</ele><time>2026-04-17T08:04:40.999Z</time></trkpt><trkpt lat="-24.29655438262109" lon="114.04504800621423"><ele>22.0</ele><time>2026-04-17T08:04:41.999Z</time></trkpt><trkpt lat="-24.296278645437614" lon="114.0449903975166"><ele>22.0</ele><time>2026-04-17T08:04:42.999Z</time></trkpt><trkpt lat="-24.29599989312849" lon="114.04493578292214"><ele>22.0</ele><time>2026-04-17T08:04:43.999Z</time></trkpt><trkpt lat="-24.295717376588815" lon="114.04488130408664"><ele>22.0</ele><time>2026-04-17T08:04:44.999Z</time></trkpt><trkpt lat="-24.295436437883982" lon="114.04482635564881"><ele>22.0</ele><time>2026-04-17T08:04:45.999Z</time></trkpt><trkpt lat="-24.295153074024807" lon="114.04477145099027"><ele>22.0</ele><time>2026-04-17T08:04:46.999Z</time></trkpt><trkpt lat="-24.29486833362171" lon="114.04471818523798"><ele>22.0</ele><time>2026-04-17T08:04:47.999Z</time></trkpt><trkpt lat="-24.294585149404437" lon="114.04466443555995"><ele>22.5</ele><time>2026-04-17T08:04:48.999Z</time></trkpt><trkpt lat="-24.29430389178568" lon="114.04461262721239"><ele>23.0</ele><time>2026-04-17T08:04:49.999Z</time></trkpt><trkpt lat="-24.294021482909073" lon="114.0445619910654"><ele>23.0</ele><time>2026-04-17T08:04:50.999Z</time></trkpt><trkpt lat="-24.29374098700816" lon="114.0445116105059"><ele>23.0</ele><time>2026-04-17T08:04:51.999Z</time></trkpt><trkpt lat="-24.29345895321819" lon="114.04445861637235"><ele>23.0</ele><time>2026-04-17T08:04:52.999Z</time></trkpt><trkpt lat="-24.293178148800894" lon="114.044405194682"><ele>23.0</ele><time>2026-04-17T08:04:53.999Z</time></trkpt><trkpt lat="-24.292896225021263" lon="114.04434840244068"><ele>23.0</ele><time>2026-04-17T08:04:54.999Z</time></trkpt><trkpt lat="-24.292613682228613" lon="114.04429158823604"><ele>23.0</ele><time>2026-04-17T08:04:55.999Z</time></trkpt><trkpt lat="-24.292329319621" lon="114.04423687251108"><ele>23.0</ele><time>2026-04-17T08:04:56.999Z</time></trkpt><trkpt lat="-24.29204661806176" lon="114.04419306903436"><ele>23.0</ele><time>2026-04-17T08:04:57.999Z</time></trkpt><trkpt lat="-24.29176451043912" lon="114.04415537523272"><ele>22.5</ele><time>2026-04-17T08:04:58.999Z</time></trkpt><trkpt lat="-24.29148031881523" lon="114.0441213327848"><ele>22.0</ele><time>2026-04-17T08:04:59.999Z</time></trkpt><trkpt lat="-24.291194789042155" lon="114.04409224809986"><ele>21.0</ele><time>2026-04-17T08:05:00.999Z</time></trkpt><trkpt lat="-24.290910670953796" lon="114.04406844434219"><ele>20.0</ele><time>2026-04-17T08:05:01.999Z</time></trkpt><trkpt lat="-24.290625055501867" lon="114.0440451145645"><ele>20.5</ele><time>2026-04-17T08:05:02.999Z</time></trkpt><trkpt lat="-24.29034059700813" lon="114.04402074509446"><ele>21.0</ele><time>2026-04-17T08:05:03.999Z</time></trkpt><trkpt lat="-24.29005503798443" lon="114.04399370626192"><ele>21.0</ele><time>2026-04-17T08:05:04.999Z</time></trkpt><trkpt lat="-24.289769183402527" lon="114.04396630984525"><ele>21.0</ele><time>2026-04-17T08:05:05.999Z</time></trkpt><trkpt lat="-24.28948251690912" lon="114.04393949587245"><ele>21.0</ele><time>2026-04-17T08:05:06.999Z</time></trkpt><trkpt lat="-24.289199333567197" lon="114.0439143110263"><ele>21.0</ele><time>2026-04-17T08:05:07.999Z</time></trkpt><trkpt lat="-24.2889115286839" lon="114.04388778527643"><ele>21.5</ele><time>2026-04-17T08:05:08.999Z</time></trkpt><trkpt lat="-24.288624583858308" lon="114.0438653409376"><ele>22.0</ele><time>2026-04-17T08:05:09.999Z</time></trkpt><trkpt lat="-24.288335095331536" lon="114.04384298129705"><ele>22.0</ele><time>2026-04-17T08:05:10.999Z</time></trkpt><trkpt lat="-24.2880427981496" lon="114.04381606915604"><ele>22.0</ele><time>2026-04-17T08:05:11.999Z</time></trkpt><trkpt lat="-24.28775119808952" lon="114.04378791725702"><ele>22.0</ele><time>2026-04-17T08:05:12.999Z</time></trkpt><trkpt lat="-24.287460004285116" lon="114.04375938306302"><ele>22.0</ele><time>2026-04-17T08:05:13.999Z</time></trkpt><trkpt lat="-24.287167490915646" lon="114.04373294932772"><ele>21.0</ele><time>2026-04-17T08:05:14.999Z</time></trkpt><trkpt lat="-24.286873989644217" lon="114.04370931448548"><ele>20.0</ele><time>2026-04-17T08:05:15.999Z</time></trkpt><trkpt lat="-24.286579914322665" lon="114.04369364170583"><ele>20.0</ele><time>2026-04-17T08:05:16.999Z</time></trkpt><trkpt lat="-24.28628414380322" lon="114.04368671659518"><ele>20.0</ele><time>2026-04-17T08:05:17.999Z</time></trkpt><trkpt lat="-24.28598740731623" lon="114.04368711893002"><ele>20.0</ele><time>2026-04-17T08:05:18.999Z</time></trkpt><trkpt lat="-24.2856909815853" lon="114.04369236434418"><ele>20.0</ele><time>2026-04-17T08:05:19.999Z</time></trkpt><trkpt lat="-24.285392439721917" lon="114.0437023733231"><ele>20.0</ele><time>2026-04-17T08:05:20.999Z</time></trkpt><trkpt lat="-24.28509164305371" lon="114.04371809894755"><ele>20.0</ele><time>2026-04-17T08:05:21.999Z</time></trkpt><trkpt lat="-24.284789403968986" lon="114.04373265382578"><ele>19.0</ele><time>2026-04-17T08:05:22.999Z</time></trkpt><trkpt lat="-24.284486179937986" lon="114.04374746442474"><ele>18.0</ele><time>2026-04-17T08:05:23.999Z</time></trkpt><trkpt lat="-24.284181004862614" lon="114.04376018243315"><ele>18.0</ele><time>2026-04-17T08:05:24.999Z</time></trkpt><trkpt lat="-24.28387377706999" lon="114.04377308411772"><ele>18.0</ele><time>2026-04-17T08:05:25.999Z</time></trkpt><trkpt lat="-24.283569045756327" lon="114.0437882602479"><ele>18.0</ele><time>2026-04-17T08:05:26.999Z</time></trkpt><trkpt lat="-24.28326579919388" lon="114.04380632399412"><ele>18.0</ele><time>2026-04-17T08:05:27.999Z</time></trkpt><trkpt lat="-24.282964720982463" lon="114.04382476424888"><ele>19.0</ele><time>2026-04-17T08:05:28.999Z</time></trkpt><trkpt lat="-24.282658606583606" lon="114.04384278509062"><ele>20.0</ele><time>2026-04-17T08:05:29.999Z</time></trkpt><trkpt lat="-24.28235914088589" lon="114.04385865208252"><ele>20.5</ele><time>2026-04-17T08:05:30.999Z</time></trkpt><trkpt lat="-24.282060349217407" lon="114.0438737308239"><ele>21.0</ele><time>2026-04-17T08:05:31.999Z</time></trkpt><trkpt lat="-24.28176085422607" lon="114.04388856001782"><ele>21.0</ele><time>2026-04-17T08:05:32.999Z</time></trkpt><trkpt lat="-24.28146439663542" lon="114.04390654893105"><ele>21.0</ele><time>2026-04-17T08:05:33.999Z</time></trkpt><trkpt lat="-24.281168695090603" lon="114.04392581027022"><ele>21.5</ele><time>2026-04-17T08:05:34.999Z</time></trkpt><trkpt lat="-24.28087280401434" lon="114.04394211086037"><ele>22.0</ele><time>2026-04-17T08:05:36Z</time></trkpt><trkpt lat="-24.280572480365613" lon="114.04395738432858"><ele>22.0</ele><time>2026-04-17T08:05:37Z</time></trkpt><trkpt lat="-24.280273945443664" lon="114.04397217735074"><ele>22.0</ele><time>2026-04-17T08:05:38Z</time></trkpt><trkpt lat="-24.27997009724311" lon="114.04398717667317"><ele>21.5</ele><time>2026-04-17T08:05:39Z</time></trkpt><trkpt lat="-24.279668181000567" lon="114.04400098925247"><ele>21.0</ele><time>2026-04-17T08:05:40Z</time></trkpt><trkpt lat="-24.279365381194737" lon="114.04401443793185"><ele>21.0</ele><time>2026-04-17T08:05:41Z</time></trkpt><trkpt lat="-24.27906636240346" lon="114.04403123803348"><ele>21.0</ele><time>2026-04-17T08:05:42Z</time></trkpt><trkpt lat="-24.278760543136983" lon="114.04404778179862"><ele>21.0</ele><time>2026-04-17T08:05:43Z</time></trkpt><trkpt lat="-24.278459965570068" lon="114.04405927211847"><ele>21.0</ele><time>2026-04-17T08:05:44Z</time></trkpt><trkpt lat="-24.27817634414128" lon="114.04406569183044"><ele>21.0</ele><time>2026-04-17T08:05:45Z</time></trkpt><trkpt lat="-24.277909787263958" lon="114.04406902674428"><ele>21.0</ele><time>2026-04-17T08:05:46Z</time></trkpt><trkpt lat="-24.277638588875895" lon="114.04406990807728"><ele>21.0</ele><time>2026-04-17T08:05:47Z</time></trkpt><trkpt lat="-24.27736076163633" lon="114.0440643447571"><ele>21.0</ele><time>2026-04-17T08:05:48Z</time></trkpt><trkpt lat="-24.277079257203717" lon="114.04405020501713"><ele>20.5</ele><time>2026-04-17T08:05:49Z</time></trkpt><trkpt lat="-24.276796937843372" lon="114.04402766636149"><ele>20.0</ele><time>2026-04-17T08:05:50Z</time></trkpt><trkpt lat="-24.276511781701295" lon="114.0439964104428"><ele>21.0</ele><time>2026-04-17T08:05:51Z</time></trkpt><trkpt lat="-24.276226354348612" lon="114.0439607260402"><ele>22.0</ele><time>2026-04-17T08:05:52Z</time></trkpt><trkpt lat="-24.275939676003972" lon="114.04391807681648"><ele>22.0</ele><time>2026-04-17T08:05:53Z</time></trkpt><trkpt lat="-24.27565205461106" lon="114.04386942321929"><ele>22.0</ele><time>2026-04-17T08:05:54Z</time></trkpt><trkpt lat="-24.275368023841892" lon="114.04381047101252"><ele>22.0</ele><time>2026-04-17T08:05:55Z</time></trkpt><trkpt lat="-24.27508226525051" lon="114.04374645938661"><ele>22.0</ele><time>2026-04-17T08:05:56Z</time></trkpt><trkpt lat="-24.274795511012748" lon="114.04367433839046"><ele>21.5</ele><time>2026-04-17T08:05:57Z</time></trkpt><trkpt lat="-24.274510785297437" lon="114.04359521319742"><ele>21.0</ele><time>2026-04-17T08:05:58Z</time></trkpt><trkpt lat="-24.27422950747864" lon="114.04350445949675"><ele>21.0</ele><time>2026-04-17T08:05:59Z</time></trkpt><trkpt lat="-24.273947253867103" lon="114.04340794743426"><ele>21.0</ele><time>2026-04-17T08:06:00Z</time></trkpt><trkpt lat="-24.273666202664483" lon="114.04331136836967"><ele>20.5</ele><time>2026-04-17T08:06:01Z</time></trkpt><trkpt lat="-24.27338570495466" lon="114.0432176730323"><ele>20.0</ele><time>2026-04-17T08:06:02Z</time></trkpt><trkpt lat="-24.273104651012744" lon="114.0431269572331"><ele>20.0</ele><time>2026-04-17T08:06:03Z</time></trkpt><trkpt lat="-24.27282086758205" lon="114.04303791943629"><ele>20.0</ele><time>2026-04-17T08:06:04Z</time></trkpt><trkpt lat="-24.272535286406555" lon="114.04294662345984"><ele>20.0</ele><time>2026-04-17T08:06:05Z</time></trkpt><trkpt lat="-24.27225235855621" lon="114.04285563059405"><ele>20.0</ele><time>2026-04-17T08:06:06Z</time></trkpt><trkpt lat="-24.271966627564975" lon="114.0427631632108"><ele>20.0</ele><time>2026-04-17T08:06:07Z</time></trkpt><trkpt lat="-24.2716798605397" lon="114.04267045699044"><ele>20.0</ele><time>2026-04-17T08:06:08Z</time></trkpt><trkpt lat="-24.271392306825817" lon="114.04257957002211"><ele>20.0</ele><time>2026-04-17T08:06:09Z</time></trkpt><trkpt lat="-24.27110434283509" lon="114.04248800869281"><ele>20.0</ele><time>2026-04-17T08:06:10Z</time></trkpt><trkpt lat="-24.270818191484487" lon="114.04239680682367"><ele>19.0</ele><time>2026-04-17T08:06:11Z</time></trkpt><trkpt lat="-24.270528425571793" lon="114.04230669130997"><ele>18.0</ele><time>2026-04-17T08:06:12Z</time></trkpt><trkpt lat="-24.270241137378964" lon="114.04221429342589"><ele>18.0</ele><time>2026-04-17T08:06:13Z</time></trkpt><trkpt lat="-24.269955200215417" lon="114.0421217723891"><ele>18.0</ele><time>2026-04-17T08:06:14Z</time></trkpt><trkpt lat="-24.269667622853152" lon="114.04203047906385"><ele>18.5</ele><time>2026-04-17T08:06:15Z</time></trkpt><trkpt lat="-24.269379626812178" lon="114.04194238881982"><ele>19.0</ele><time>2026-04-17T08:06:16Z</time></trkpt><trkpt lat="-24.269092571403636" lon="114.04185255813701"><ele>19.0</ele><time>2026-04-17T08:06:17Z</time></trkpt><trkpt lat="-24.268805350070004" lon="114.04176873405247"><ele>19.0</ele><time>2026-04-17T08:06:18Z</time></trkpt><trkpt lat="-24.268515217274793" lon="114.04168778747135"><ele>19.0</ele><time>2026-04-17T08:06:19Z</time></trkpt><trkpt lat="-24.268224357163916" lon="114.04160781261596"><ele>19.0</ele><time>2026-04-17T08:06:20Z</time></trkpt><trkpt lat="-24.267932405815923" lon="114.04153003161223"><ele>19.0</ele><time>2026-04-17T08:06:21Z</time></trkpt><trkpt lat="-24.267644629275896" lon="114.04145559690848"><ele>19.0</ele><time>2026-04-17T08:06:22Z</time></trkpt><trkpt lat="-24.267351506040203" lon="114.04137998681469"><ele>18.5</ele><time>2026-04-17T08:06:23Z</time></trkpt><trkpt lat="-24.267059639685012" lon="114.04130658470086"><ele>18.0</ele><time>2026-04-17T08:06:24Z</time></trkpt><trkpt lat="-24.266768700508564" lon="114.04123387689117"><ele>18.0</ele><time>2026-04-17T08:06:25Z</time></trkpt><trkpt lat="-24.2664792942318" lon="114.04116341519594"><ele>18.0</ele><time>2026-04-17T08:06:26Z</time></trkpt><trkpt lat="-24.266186958135012" lon="114.0410925248401"><ele>18.5</ele><time>2026-04-17T08:06:27Z</time></trkpt><trkpt lat="-24.2658962987361" lon="114.04102286405389"><ele>19.0</ele><time>2026-04-17T08:06:28Z</time></trkpt><trkpt lat="-24.26560901934748" lon="114.0409527053445"><ele>19.5</ele><time>2026-04-17T08:06:29Z</time></trkpt><trkpt lat="-24.265319250233446" lon="114.04088181881079"><ele>20.0</ele><time>2026-04-17T08:06:30Z</time></trkpt><trkpt lat="-24.265026847683757" lon="114.04080803615662"><ele>20.0</ele><time>2026-04-17T08:06:31Z</time></trkpt><trkpt lat="-24.264739202224682" lon="114.04073418501552"><ele>20.0</ele><time>2026-04-17T08:06:32Z</time></trkpt><trkpt lat="-24.264444843204664" lon="114.0406607360165"><ele>20.0</ele><time>2026-04-17T08:06:33Z</time></trkpt><trkpt lat="-24.2641550499884" lon="114.04058594294128"><ele>20.0</ele><time>2026-04-17T08:06:34Z</time></trkpt><trkpt lat="-24.26386340590692" lon="114.04051174634243"><ele>20.0</ele><time>2026-04-17T08:06:35Z</time></trkpt><trkpt lat="-24.263571776596066" lon="114.04043836047397"><ele>20.0</ele><time>2026-04-17T08:06:36Z</time></trkpt><trkpt lat="-24.26328222503928" lon="114.04036458069677"><ele>20.0</ele><time>2026-04-17T08:06:37Z</time></trkpt><trkpt lat="-24.262991107100113" lon="114.04028927548647"><ele>20.0</ele><time>2026-04-17T08:06:38Z</time></trkpt><trkpt lat="-24.262700070851093" lon="114.04021445847648"><ele>20.0</ele><time>2026-04-17T08:06:39Z</time></trkpt><trkpt lat="-24.26241030937195" lon="114.04014229191088"><ele>20.0</ele><time>2026-04-17T08:06:40Z</time></trkpt><trkpt lat="-24.262123856940843" lon="114.04007184255869"><ele>20.0</ele><time>2026-04-17T08:06:41Z</time></trkpt><trkpt lat="-24.261835819957952" lon="114.04000082847628"><ele>20.0</ele><time>2026-04-17T08:06:42Z</time></trkpt><trkpt lat="-24.26154740822504" lon="114.03992825734244"><ele>20.0</ele><time>2026-04-17T08:06:43Z</time></trkpt><trkpt lat="-24.261258489653198" lon="114.03985756633276"><ele>20.0</ele><time>2026-04-17T08:06:44Z</time></trkpt><trkpt lat="-24.26096710876918" lon="114.03978571416839"><ele>20.0</ele><time>2026-04-17T08:06:45Z</time></trkpt><trkpt lat="-24.260679414881203" lon="114.0397164408168"><ele>20.0</ele><time>2026-04-17T08:06:46Z</time></trkpt><trkpt lat="-24.260388596516883" lon="114.03964457942085"><ele>20.5</ele><time>2026-04-17T08:06:47Z</time></trkpt><trkpt lat="-24.26009955467586" lon="114.03957166791737"><ele>21.0</ele><time>2026-04-17T08:06:48Z</time></trkpt><trkpt lat="-24.259808973473433" lon="114.03949651890032"><ele>21.0</ele><time>2026-04-17T08:06:49Z</time></trkpt><trkpt lat="-24.259518689851124" lon="114.03941886096132"><ele>21.0</ele><time>2026-04-17T08:06:50Z</time></trkpt><trkpt lat="-24.25922835354351" lon="114.03934159541424"><ele>20.5</ele><time>2026-04-17T08:06:51Z</time></trkpt><trkpt lat="-24.25893745719534" lon="114.03926671094415"><ele>20.0</ele><time>2026-04-17T08:06:52Z</time></trkpt><trkpt lat="-24.25864702336907" lon="114.03919557075459"><ele>20.0</ele><time>2026-04-17T08:06:53Z</time></trkpt><trkpt lat="-24.25835780112688" lon="114.03912723816516"><ele>20.0</ele><time>2026-04-17T08:06:54Z</time></trkpt><trkpt lat="-24.258067499987842" lon="114.03905769706738"><ele>20.0</ele><time>2026-04-17T08:06:55Z</time></trkpt><trkpt lat="-24.257781923480238" lon="114.03898594086718"><ele>20.0</ele><time>2026-04-17T08:06:56Z</time></trkpt><trkpt lat="-24.25749844926917" lon="114.03891155341293"><ele>20.0</ele><time>2026-04-17T08:06:57Z</time></trkpt><trkpt lat="-24.257217693274917" lon="114.03883833771198"><ele>20.0</ele><time>2026-04-17T08:06:58Z</time></trkpt><trkpt lat="-24.256936691978865" lon="114.03876139704998"><ele>20.0</ele><time>2026-04-17T08:06:59Z</time></trkpt><trkpt lat="-24.256665143304957" lon="114.03868584619113"><ele>20.0</ele><time>2026-04-17T08:07:00Z</time></trkpt><trkpt lat="-24.256411618500575" lon="114.03861714977464"><ele>20.5</ele><time>2026-04-17T08:07:01Z</time></trkpt><trkpt lat="-24.25617492124393" lon="114.03855377053843"><ele>21.0</ele><time>2026-04-17T08:07:02Z</time></trkpt><trkpt lat="-24.25594038005514" lon="114.03849060567534"><ele>21.0</ele><time>2026-04-17T08:07:03Z</time></trkpt><trkpt lat="-24.255688313305022" lon="114.0384234335939"><ele>21.0</ele><time>2026-04-17T08:07:04Z</time></trkpt><trkpt lat="-24.25541998549518" lon="114.03835468359861"><ele>22.0</ele><time>2026-04-17T08:07:05Z</time></trkpt><trkpt lat="-24.25514574632087" lon="114.03828475824821"><ele>23.0</ele><time>2026-04-17T08:07:06Z</time></trkpt><trkpt lat="-24.254867591875456" lon="114.03821365682772"><ele>23.0</ele><time>2026-04-17T08:07:07Z</time></trkpt><trkpt lat="-24.254586112227855" lon="114.03814104961498"><ele>23.0</ele><time>2026-04-17T08:07:08Z</time></trkpt><trkpt lat="-24.254302649624545" lon="114.03806680428163"><ele>23.0</ele><time>2026-04-17T08:07:09Z</time></trkpt><trkpt lat="-24.254020208911257" lon="114.03799391866995"><ele>23.0</ele><time>2026-04-17T08:07:10Z</time></trkpt><trkpt lat="-24.253736014237337" lon="114.03791984775573"><ele>22.0</ele><time>2026-04-17T08:07:11Z</time></trkpt><trkpt lat="-24.253450427807515" lon="114.03784564927365"><ele>21.0</ele><time>2026-04-17T08:07:12Z</time></trkpt><trkpt lat="-24.253165259914233" lon="114.03776970765792"><ele>21.0</ele><time>2026-04-17T08:07:13Z</time></trkpt><trkpt lat="-24.252880778033255" lon="114.03769339909455"><ele>21.0</ele><time>2026-04-17T08:07:14Z</time></trkpt><trkpt lat="-24.252594879053976" lon="114.03761424130165"><ele>21.0</ele><time>2026-04-17T08:07:15Z</time></trkpt><trkpt lat="-24.252305752866327" lon="114.03753471953637"><ele>21.0</ele><time>2026-04-17T08:07:16Z</time></trkpt><trkpt lat="-24.252017181913185" lon="114.03745751367501"><ele>20.5</ele><time>2026-04-17T08:07:17Z</time></trkpt><trkpt lat="-24.251731109606826" lon="114.03738338382564"><ele>20.0</ele><time>2026-04-17T08:07:18Z</time></trkpt><trkpt lat="-24.25144466445505" lon="114.03730929021326"><ele>20.0</ele><time>2026-04-17T08:07:19Z</time></trkpt><trkpt lat="-24.25115670459975" lon="114.0372345214189"><ele>20.0</ele><time>2026-04-17T08:07:20Z</time></trkpt><trkpt lat="-24.250870261237132" lon="114.03716093511746"><ele>20.0</ele><time>2026-04-17T08:07:21Z</time></trkpt><trkpt lat="-24.250584911319443" lon="114.0370876828565"><ele>20.0</ele><time>2026-04-17T08:07:22Z</time></trkpt><trkpt lat="-24.25029964319699" lon="114.03701410379881"><ele>20.0</ele><time>2026-04-17T08:07:23Z</time></trkpt><trkpt lat="-24.25001735543492" lon="114.0369409575485"><ele>20.0</ele><time>2026-04-17T08:07:24Z</time></trkpt><trkpt lat="-24.24973526635358" lon="114.03686609811874"><ele>19.5</ele><time>2026-04-17T08:07:25Z</time></trkpt><trkpt lat="-24.24945097312402" lon="114.03678885005968"><ele>19.0</ele><time>2026-04-17T08:07:26Z</time></trkpt><trkpt lat="-24.24916824837814" lon="114.03670837228266"><ele>20.5</ele><time>2026-04-17T08:07:27Z</time></trkpt><trkpt lat="-24.24888304756105" lon="114.03662643076997"><ele>22.0</ele><time>2026-04-17T08:07:28Z</time></trkpt><trkpt lat="-24.24859654137038" lon="114.03654616378826"><ele>22.0</ele><time>2026-04-17T08:07:29Z</time></trkpt><trkpt lat="-24.248310331750915" lon="114.03647185862631"><ele>22.0</ele><time>2026-04-17T08:07:30Z</time></trkpt><trkpt lat="-24.248024572980675" lon="114.03640072878427"><ele>22.0</ele><time>2026-04-17T08:07:31Z</time></trkpt><trkpt lat="-24.247738574869967" lon="114.0363305773775"><ele>22.0</ele><time>2026-04-17T08:07:32Z</time></trkpt><trkpt lat="-24.24745240785891" lon="114.03626064280384"><ele>21.0</ele><time>2026-04-17T08:07:33Z</time></trkpt><trkpt lat="-24.247170269381282" lon="114.03618874019975"><ele>20.0</ele><time>2026-04-17T08:07:34Z</time></trkpt><trkpt lat="-24.24688691402275" lon="114.0361141114023"><ele>20.0</ele><time>2026-04-17T08:07:35Z</time></trkpt><trkpt lat="-24.246606507503504" lon="114.03603710564101"><ele>20.0</ele><time>2026-04-17T08:07:36.001Z</time></trkpt><trkpt lat="-24.246322881870807" lon="114.03595877437174"><ele>19.5</ele><time>2026-04-17T08:07:37.001Z</time></trkpt><trkpt lat="-24.246038904880855" lon="114.03588412554797"><ele>19.0</ele><time>2026-04-17T08:07:38.001Z</time></trkpt><trkpt lat="-24.24575385442748" lon="114.03581028365392"><ele>21.0</ele><time>2026-04-17T08:07:39.001Z</time></trkpt><trkpt lat="-24.24546896861824" lon="114.03573326931222"><ele>23.0</ele><time>2026-04-17T08:07:40.001Z</time></trkpt><trkpt lat="-24.24518368919253" lon="114.03565493919486"><ele>23.0</ele><time>2026-04-17T08:07:41.001Z</time></trkpt><trkpt lat="-24.244898207388484" lon="114.035578794451"><ele>23.0</ele><time>2026-04-17T08:07:42.001Z</time></trkpt><trkpt lat="-24.244613090615147" lon="114.0355055874494"><ele>21.5</ele><time>2026-04-17T08:07:43.001Z</time></trkpt><trkpt lat="-24.24433028277536" lon="114.03543488606886"><ele>20.0</ele><time>2026-04-17T08:07:44.001Z</time></trkpt><trkpt lat="-24.244046188705486" lon="114.03536143498008"><ele>20.0</ele><time>2026-04-17T08:07:45.001Z</time></trkpt><trkpt lat="-24.243760744662836" lon="114.03528635961582"><ele>20.0</ele><time>2026-04-17T08:07:46.001Z</time></trkpt><trkpt lat="-24.24347503431684" lon="114.03521014261705"><ele>20.0</ele><time>2026-04-17T08:07:47.001Z</time></trkpt><trkpt lat="-24.243188522760576" lon="114.03513232357818"><ele>20.0</ele><time>2026-04-17T08:07:48.001Z</time></trkpt><trkpt lat="-24.24290364232923" lon="114.03505471114106"><ele>20.0</ele><time>2026-04-17T08:07:49.001Z</time></trkpt><trkpt lat="-24.24261814728186" lon="114.03497840838781"><ele>20.0</ele><time>2026-04-17T08:07:50.001Z</time></trkpt><trkpt lat="-24.242331053711435" lon="114.03490143736406"><ele>20.5</ele><time>2026-04-17T08:07:51.001Z</time></trkpt><trkpt lat="-24.242045393694468" lon="114.03482674379431"><ele>21.0</ele><time>2026-04-17T08:07:52Z</time></trkpt><trkpt lat="-24.241763074443302" lon="114.03475505063777"><ele>21.0</ele><time>2026-04-17T08:07:53Z</time></trkpt><trkpt lat="-24.241479330677024" lon="114.0346837111575"><ele>21.0</ele><time>2026-04-17T08:07:54Z</time></trkpt><trkpt lat="-24.241196644912947" lon="114.03461109078584"><ele>21.0</ele><time>2026-04-17T08:07:55Z</time></trkpt><trkpt lat="-24.240913881193816" lon="114.03453396470682"><ele>21.0</ele><time>2026-04-17T08:07:56Z</time></trkpt><trkpt lat="-24.24063120241413" lon="114.0344536948922"><ele>21.0</ele><time>2026-04-17T08:07:57Z</time></trkpt><trkpt lat="-24.24034769792901" lon="114.03437562063608"><ele>21.0</ele><time>2026-04-17T08:07:58Z</time></trkpt><trkpt lat="-24.240065356984147" lon="114.03430088863438"><ele>21.0</ele><time>2026-04-17T08:07:59Z</time></trkpt><trkpt lat="-24.239783827378737" lon="114.03422726406865"><ele>21.0</ele><time>2026-04-17T08:08:00Z</time></trkpt><trkpt lat="-24.239498585582407" lon="114.03415188480409"><ele>22.0</ele><time>2026-04-17T08:08:01Z</time></trkpt><trkpt lat="-24.2392162104696" lon="114.0340775486989"><ele>23.0</ele><time>2026-04-17T08:08:02Z</time></trkpt><trkpt lat="-24.23893100972325" lon="114.03400051067169"><ele>23.0</ele><time>2026-04-17T08:08:03Z</time></trkpt><trkpt lat="-24.238642307286064" lon="114.0339258835583"><ele>23.0</ele><time>2026-04-17T08:08:04Z</time></trkpt><trkpt lat="-24.238352928526453" lon="114.0338523628581"><ele>22.0</ele><time>2026-04-17T08:08:05Z</time></trkpt><trkpt lat="-24.238060293432277" lon="114.03377630498808"><ele>21.0</ele><time>2026-04-17T08:08:06Z</time></trkpt><trkpt lat="-24.237768056806665" lon="114.03369745168906"><ele>21.0</ele><time>2026-04-17T08:08:07Z</time></trkpt><trkpt lat="-24.23747943468492" lon="114.0336201355964"><ele>21.0</ele><time>2026-04-17T08:08:08Z</time></trkpt><trkpt lat="-24.237187609067814" lon="114.03354734970334"><ele>20.0</ele><time>2026-04-17T08:08:09Z</time></trkpt><trkpt lat="-24.236896661331965" lon="114.03348511805468"><ele>19.0</ele><time>2026-04-17T08:08:10Z</time></trkpt><trkpt lat="-24.23660668630185" lon="114.03342818142804"><ele>19.0</ele><time>2026-04-17T08:08:11Z</time></trkpt><trkpt lat="-24.236312677900926" lon="114.03337470374933"><ele>19.0</ele><time>2026-04-17T08:08:12Z</time></trkpt><trkpt lat="-24.23602192033441" lon="114.03333069953801"><ele>19.0</ele><time>2026-04-17T08:08:13Z</time></trkpt><trkpt lat="-24.235727260879596" lon="114.03329156125422"><ele>19.0</ele><time>2026-04-17T08:08:14Z</time></trkpt><trkpt lat="-24.23543538751023" lon="114.03325512327795"><ele>19.0</ele><time>2026-04-17T08:08:15Z</time></trkpt><trkpt lat="-24.23514815758272" lon="114.03321962384663"><ele>19.0</ele><time>2026-04-17T08:08:16Z</time></trkpt><trkpt lat="-24.23485970595342" lon="114.03317772876593"><ele>19.0</ele><time>2026-04-17T08:08:17Z</time></trkpt><trkpt lat="-24.23457032536666" lon="114.03313593738389"><ele>19.0</ele><time>2026-04-17T08:08:18Z</time></trkpt><trkpt lat="-24.234283270418118" lon="114.03309537558383"><ele>19.0</ele><time>2026-04-17T08:08:19Z</time></trkpt><trkpt lat="-24.233993233786354" lon="114.03305425617131"><ele>19.0</ele><time>2026-04-17T08:08:20Z</time></trkpt><trkpt lat="-24.233702450282806" lon="114.03301209208081"><ele>20.0</ele><time>2026-04-17T08:08:21Z</time></trkpt><trkpt lat="-24.23341413102987" lon="114.03296781527327"><ele>21.0</ele><time>2026-04-17T08:08:22Z</time></trkpt><trkpt lat="-24.23312187170113" lon="114.03292446396932"><ele>21.0</ele><time>2026-04-17T08:08:23Z</time></trkpt><trkpt lat="-24.23283333777733" lon="114.03288280522474"><ele>21.0</ele><time>2026-04-17T08:08:24Z</time></trkpt><trkpt lat="-24.232545650973336" lon="114.03284443664856"><ele>21.5</ele><time>2026-04-17T08:08:25Z</time></trkpt><trkpt lat="-24.232259043165122" lon="114.03280932520204"><ele>22.0</ele><time>2026-04-17T08:08:26Z</time></trkpt><trkpt lat="-24.231974691209217" lon="114.03277412105616"><ele>22.0</ele><time>2026-04-17T08:08:27Z</time></trkpt><trkpt lat="-24.23169175084665" lon="114.03273825442925"><ele>22.0</ele><time>2026-04-17T08:08:28Z</time></trkpt><trkpt lat="-24.23141061864427" lon="114.03269927288912"><ele>21.5</ele><time>2026-04-17T08:08:29Z</time></trkpt><trkpt lat="-24.231128971463175" lon="114.0326600580451"><ele>21.0</ele><time>2026-04-17T08:08:30Z</time></trkpt><trkpt lat="-24.23084757743134" lon="114.03261964860522"><ele>20.0</ele><time>2026-04-17T08:08:31Z</time></trkpt><trkpt lat="-24.23056631073157" lon="114.03257882182454"><ele>19.0</ele><time>2026-04-17T08:08:32Z</time></trkpt><trkpt lat="-24.230282913347637" lon="114.03253911123217"><ele>19.0</ele><time>2026-04-17T08:08:33Z</time></trkpt><trkpt lat="-24.229994750699294" lon="114.03249936696578"><ele>19.0</ele><time>2026-04-17T08:08:34Z</time></trkpt><trkpt lat="-24.2297088028023" lon="114.03246121860089"><ele>19.5</ele><time>2026-04-17T08:08:35Z</time></trkpt><trkpt lat="-24.22942204081313" lon="114.03242027763335"><ele>20.0</ele><time>2026-04-17T08:08:36Z</time></trkpt><trkpt lat="-24.22913500967535" lon="114.0323749847111"><ele>20.0</ele><time>2026-04-17T08:08:37Z</time></trkpt><trkpt lat="-24.228849081224848" lon="114.03233107406943"><ele>20.0</ele><time>2026-04-17T08:08:38Z</time></trkpt><trkpt lat="-24.228558044545064" lon="114.03228682050333"><ele>20.0</ele><time>2026-04-17T08:08:39Z</time></trkpt><trkpt lat="-24.228272629896356" lon="114.03223294856333"><ele>20.0</ele><time>2026-04-17T08:08:40Z</time></trkpt><trkpt lat="-24.22798860557127" lon="114.0321677092704"><ele>19.5</ele><time>2026-04-17T08:08:41Z</time></trkpt><trkpt lat="-24.22770385272013" lon="114.03209200627938"><ele>19.0</ele><time>2026-04-17T08:08:42Z</time></trkpt><trkpt lat="-24.227422182350757" lon="114.03200557694299"><ele>17.5</ele><time>2026-04-17T08:08:43Z</time></trkpt><trkpt lat="-24.22714250778979" lon="114.03191717048087"><ele>16.0</ele><time>2026-04-17T08:08:44Z</time></trkpt><trkpt lat="-24.22686206151265" lon="114.03182606136707"><ele>16.0</ele><time>2026-04-17T08:08:45Z</time></trkpt><trkpt lat="-24.226587284739146" lon="114.03173365926699"><ele>16.0</ele><time>2026-04-17T08:08:46Z</time></trkpt><trkpt lat="-24.226309930660655" lon="114.03163840186666"><ele>18.5</ele><time>2026-04-17T08:08:47Z</time></trkpt><trkpt lat="-24.226031390565268" lon="114.03154348341877"><ele>21.0</ele><time>2026-04-17T08:08:48Z</time></trkpt><trkpt lat="-24.225752908168324" lon="114.03145186515975"><ele>20.0</ele><time>2026-04-17T08:08:49Z</time></trkpt><trkpt lat="-24.22547157308905" lon="114.03136158959825"><ele>19.0</ele><time>2026-04-17T08:08:50Z</time></trkpt><trkpt lat="-24.225190646329285" lon="114.03127039565203"><ele>19.0</ele><time>2026-04-17T08:08:51Z</time></trkpt><trkpt lat="-24.2249134594409" lon="114.0311774890162"><ele>19.0</ele><time>2026-04-17T08:08:52Z</time></trkpt><trkpt lat="-24.224639847494718" lon="114.0310869756015"><ele>18.0</ele><time>2026-04-17T08:08:53Z</time></trkpt><trkpt lat="-24.224365631730386" lon="114.03099389368242"><ele>17.0</ele><time>2026-04-17T08:08:54Z</time></trkpt><trkpt lat="-24.224094647000506" lon="114.03089984967177"><ele>17.5</ele><time>2026-04-17T08:08:55Z</time></trkpt><trkpt lat="-24.22382051576963" lon="114.0308064735721"><ele>18.0</ele><time>2026-04-17T08:08:56Z</time></trkpt><trkpt lat="-24.223548116353996" lon="114.03071791918423"><ele>18.0</ele><time>2026-04-17T08:08:57Z</time></trkpt><trkpt lat="-24.22327351271838" lon="114.03062935665322"><ele>18.0</ele><time>2026-04-17T08:08:58Z</time></trkpt><trkpt lat="-24.223001511190887" lon="114.03053812008696"><ele>17.5</ele><time>2026-04-17T08:08:59Z</time></trkpt><trkpt lat="-24.222734695103767" lon="114.03044451799802"><ele>17.0</ele><time>2026-04-17T08:09:00Z</time></trkpt><trkpt lat="-24.222468915265125" lon="114.03035560348248"><ele>17.0</ele><time>2026-04-17T08:09:01Z</time></trkpt><trkpt lat="-24.22220076115593" lon="114.03028764211791"><ele>17.0</ele><time>2026-04-17T08:09:02Z</time></trkpt><trkpt lat="-24.221927556167326" lon="114.03023035260763"><ele>17.0</ele><time>2026-04-17T08:09:03Z</time></trkpt><trkpt lat="-24.221652229913644" lon="114.03018900941241"><ele>17.0</ele><time>2026-04-17T08:09:04Z</time></trkpt><trkpt lat="-24.221375383163533" lon="114.03015379963492"><ele>17.0</ele><time>2026-04-17T08:09:05Z</time></trkpt><trkpt lat="-24.22109875554137" lon="114.03012436899944"><ele>17.0</ele><time>2026-04-17T08:09:06Z</time></trkpt><trkpt lat="-24.220816947529432" lon="114.03010341765496"><ele>17.0</ele><time>2026-04-17T08:09:07Z</time></trkpt><trkpt lat="-24.220538591007543" lon="114.03008907503073"><ele>17.0</ele><time>2026-04-17T08:09:08Z</time></trkpt><trkpt lat="-24.22026420186304" lon="114.03008845972265"><ele>17.0</ele><time>2026-04-17T08:09:09Z</time></trkpt><trkpt lat="-24.21998789328445" lon="114.03009471939642"><ele>17.0</ele><time>2026-04-17T08:09:10Z</time></trkpt><trkpt lat="-24.219716504026234" lon="114.03011488868559"><ele>16.5</ele><time>2026-04-17T08:09:11Z</time></trkpt><trkpt lat="-24.21944477793104" lon="114.03014563267037"><ele>16.0</ele><time>2026-04-17T08:09:12Z</time></trkpt><trkpt lat="-24.219174962635662" lon="114.03019108988948"><ele>16.5</ele><time>2026-04-17T08:09:13Z</time></trkpt><trkpt lat="-24.2189071727068" lon="114.03024711426119"><ele>17.0</ele><time>2026-04-17T08:09:14Z</time></trkpt><trkpt lat="-24.21864030423914" lon="114.03030300420141"><ele>17.0</ele><time>2026-04-17T08:09:15Z</time></trkpt><trkpt lat="-24.218372160656166" lon="114.03036147201519"><ele>17.0</ele><time>2026-04-17T08:09:16Z</time></trkpt><trkpt lat="-24.21810670355898" lon="114.03043252336562"><ele>17.0</ele><time>2026-04-17T08:09:17Z</time></trkpt><trkpt lat="-24.21784099337267" lon="114.03050547433787"><ele>17.0</ele><time>2026-04-17T08:09:18Z</time></trkpt><trkpt lat="-24.217579540379436" lon="114.03057492369183"><ele>16.5</ele><time>2026-04-17T08:09:19Z</time></trkpt><trkpt lat="-24.217310540404345" lon="114.03063907976362"><ele>16.0</ele><time>2026-04-17T08:09:20Z</time></trkpt><trkpt lat="-24.217042767841328" lon="114.0307023097205"><ele>16.0</ele><time>2026-04-17T08:09:21Z</time></trkpt><trkpt lat="-24.21677156583149" lon="114.03076777537876"><ele>16.0</ele><time>2026-04-17T08:09:22Z</time></trkpt><trkpt lat="-24.216502870892853" lon="114.03083492295062"><ele>16.5</ele><time>2026-04-17T08:09:23Z</time></trkpt><trkpt lat="-24.216236752916213" lon="114.0309018323588"><ele>17.0</ele><time>2026-04-17T08:09:24Z</time></trkpt><trkpt lat="-24.215972699382462" lon="114.03097196015256"><ele>17.0</ele><time>2026-04-17T08:09:25Z</time></trkpt><trkpt lat="-24.21570854816815" lon="114.03104218259419"><ele>17.0</ele><time>2026-04-17T08:09:26Z</time></trkpt><trkpt lat="-24.215443365633885" lon="114.03110657547582"><ele>17.0</ele><time>2026-04-17T08:09:27Z</time></trkpt><trkpt lat="-24.215175825681737" lon="114.03117052788609"><ele>17.0</ele><time>2026-04-17T08:09:28Z</time></trkpt><trkpt lat="-24.214908856112892" lon="114.03123550663256"><ele>17.5</ele><time>2026-04-17T08:09:29Z</time></trkpt><trkpt lat="-24.214639407793335" lon="114.03130165032987"><ele>18.0</ele><time>2026-04-17T08:09:30Z</time></trkpt><trkpt lat="-24.21437067596136" lon="114.03137003498671"><ele>18.0</ele><time>2026-04-17T08:09:31Z</time></trkpt><trkpt lat="-24.2141008014751" lon="114.03143817360107"><ele>18.0</ele><time>2026-04-17T08:09:32Z</time></trkpt><trkpt lat="-24.213829446226075" lon="114.03150467184331"><ele>18.5</ele><time>2026-04-17T08:09:33Z</time></trkpt><trkpt lat="-24.213555657246" lon="114.0315719385324"><ele>19.0</ele><time>2026-04-17T08:09:34Z</time></trkpt><trkpt lat="-24.213280684597404" lon="114.03164008449828"><ele>19.5</ele><time>2026-04-17T08:09:35Z</time></trkpt><trkpt lat="-24.213007884908542" lon="114.03170854151789"><ele>20.0</ele><time>2026-04-17T08:09:36Z</time></trkpt><trkpt lat="-24.21273163218384" lon="114.03177706837612"><ele>20.0</ele><time>2026-04-17T08:09:37Z</time></trkpt><trkpt lat="-24.21245415556743" lon="114.03184548995422"><ele>20.0</ele><time>2026-04-17T08:09:38Z</time></trkpt><trkpt lat="-24.212176606811642" lon="114.03191234203412"><ele>19.5</ele><time>2026-04-17T08:09:39Z</time></trkpt><trkpt lat="-24.21189880234244" lon="114.0319788175531"><ele>19.0</ele><time>2026-04-17T08:09:40Z</time></trkpt><trkpt lat="-24.211618414961993" lon="114.03204453556418"><ele>20.0</ele><time>2026-04-17T08:09:41Z</time></trkpt><trkpt lat="-24.211332978023822" lon="114.0321122268794"><ele>21.0</ele><time>2026-04-17T08:09:42.001Z</time></trkpt><trkpt lat="-24.211050849374008" lon="114.0321845636043"><ele>21.0</ele><time>2026-04-17T08:09:43.001Z</time></trkpt><trkpt lat="-24.21076739750413" lon="114.03225623222325"><ele>21.0</ele><time>2026-04-17T08:09:44.001Z</time></trkpt><trkpt lat="-24.2104879717644" lon="114.03232544820665"><ele>20.5</ele><time>2026-04-17T08:09:45.001Z</time></trkpt><trkpt lat="-24.210211803083173" lon="114.03239495506759"><ele>20.0</ele><time>2026-04-17T08:09:46.001Z</time></trkpt><trkpt lat="-24.20993390976696" lon="114.03246271915694"><ele>19.5</ele><time>2026-04-17T08:09:47.001Z</time></trkpt><trkpt lat="-24.209656864016225" lon="114.03252961071603"><ele>19.0</ele><time>2026-04-17T08:09:48.001Z</time></trkpt><trkpt lat="-24.209381900174346" lon="114.03259409565418"><ele>19.0</ele><time>2026-04-17T08:09:49.001Z</time></trkpt><trkpt lat="-24.20910661474258" lon="114.03266260231118"><ele>19.0</ele><time>2026-04-17T08:09:50.001Z</time></trkpt><trkpt lat="-24.20883358994705" lon="114.03273279895447"><ele>19.0</ele><time>2026-04-17T08:09:51.001Z</time></trkpt><trkpt lat="-24.208563464572805" lon="114.03279852881204"><ele>19.0</ele><time>2026-04-17T08:09:52.001Z</time></trkpt><trkpt lat="-24.20829237134245" lon="114.03286525178694"><ele>18.5</ele><time>2026-04-17T08:09:53.001Z</time></trkpt><trkpt lat="-24.208022566549197" lon="114.03292957457171"><ele>18.0</ele><time>2026-04-17T08:09:54.001Z</time></trkpt><trkpt lat="-24.207754321905465" lon="114.03299959629231"><ele>18.0</ele><time>2026-04-17T08:09:55.001Z</time></trkpt><trkpt lat="-24.20748857344635" lon="114.0330631906103"><ele>18.0</ele><time>2026-04-17T08:09:56.001Z</time></trkpt><trkpt lat="-24.20721950174819" lon="114.03312674892817"><ele>17.5</ele><time>2026-04-17T08:09:57.001Z</time></trkpt><trkpt lat="-24.20695170148737" lon="114.03319436197408"><ele>17.0</ele><time>2026-04-17T08:09:58Z</time></trkpt><trkpt lat="-24.206687482614345" lon="114.03326821118073"><ele>17.5</ele><time>2026-04-17T08:09:59Z</time></trkpt><trkpt lat="-24.206423994259637" lon="114.0333384295811"><ele>18.0</ele><time>2026-04-17T08:10:00Z</time></trkpt><trkpt lat="-24.206154673638242" lon="114.03340190496466"><ele>18.0</ele><time>2026-04-17T08:10:01Z</time></trkpt><trkpt lat="-24.20588279431288" lon="114.03346399652635"><ele>18.0</ele><time>2026-04-17T08:10:02Z</time></trkpt><trkpt lat="-24.205608461883287" lon="114.03353087501341"><ele>18.5</ele><time>2026-04-17T08:10:03Z</time></trkpt><trkpt lat="-24.20533135846409" lon="114.03359881231648"><ele>19.0</ele><time>2026-04-17T08:10:04Z</time></trkpt><trkpt lat="-24.20505551895369" lon="114.03366573150905"><ele>18.5</ele><time>2026-04-17T08:10:05Z</time></trkpt><trkpt lat="-24.20477482646778" lon="114.03373402117833"><ele>18.0</ele><time>2026-04-17T08:10:06Z</time></trkpt><trkpt lat="-24.204495149213585" lon="114.03380263165403"><ele>18.0</ele><time>2026-04-17T08:10:07Z</time></trkpt><trkpt lat="-24.204214871696838" lon="114.033874519819"><ele>18.0</ele><time>2026-04-17T08:10:08Z</time></trkpt><trkpt lat="-24.203932940979314" lon="114.03394582729959"><ele>18.0</ele><time>2026-04-17T08:10:09Z</time></trkpt><trkpt lat="-24.20364756486973" lon="114.034014737781"><ele>18.0</ele><time>2026-04-17T08:10:10Z</time></trkpt><trkpt lat="-24.203363813940804" lon="114.03408206500917"><ele>18.0</ele><time>2026-04-17T08:10:11Z</time></trkpt><trkpt lat="-24.20308029221609" lon="114.03415097300321"><ele>18.0</ele><time>2026-04-17T08:10:12Z</time></trkpt><trkpt lat="-24.202797421291745" lon="114.03422676223093"><ele>18.0</ele><time>2026-04-17T08:10:13Z</time></trkpt><trkpt lat="-24.202509711888737" lon="114.03430265870136"><ele>18.0</ele><time>2026-04-17T08:10:14Z</time></trkpt><trkpt lat="-24.202223971271724" lon="114.03437408939277"><ele>18.0</ele><time>2026-04-17T08:10:15Z</time></trkpt><trkpt lat="-24.201935909238983" lon="114.0344450433453"><ele>18.0</ele><time>2026-04-17T08:10:16Z</time></trkpt><trkpt lat="-24.20164799771275" lon="114.0345143577546"><ele>18.0</ele><time>2026-04-17T08:10:17Z</time></trkpt><trkpt lat="-24.201359398838935" lon="114.03458550978775"><ele>18.0</ele><time>2026-04-17T08:10:18Z</time></trkpt><trkpt lat="-24.201069262567476" lon="114.03465488659127"><ele>18.0</ele><time>2026-04-17T08:10:19Z</time></trkpt><trkpt lat="-24.20077476387083" lon="114.0347260643572"><ele>18.0</ele><time>2026-04-17T08:10:20Z</time></trkpt><trkpt lat="-24.20048600721011" lon="114.03479887399091"><ele>19.0</ele><time>2026-04-17T08:10:21Z</time></trkpt><trkpt lat="-24.200197278167177" lon="114.03487052851531"><ele>20.0</ele><time>2026-04-17T08:10:22Z</time></trkpt><trkpt lat="-24.199908931047382" lon="114.03494110745694"><ele>21.0</ele><time>2026-04-17T08:10:23Z</time></trkpt><trkpt lat="-24.199627097389218" lon="114.03500959111649"><ele>22.0</ele><time>2026-04-17T08:10:24Z</time></trkpt><trkpt lat="-24.199350494389588" lon="114.03507939823314"><ele>22.0</ele><time>2026-04-17T08:10:25Z</time></trkpt><trkpt lat="-24.199073625346227" lon="114.03514891196706"><ele>22.0</ele><time>2026-04-17T08:10:26Z</time></trkpt><trkpt lat="-24.19879862635635" lon="114.03521307850353"><ele>23.0</ele><time>2026-04-17T08:10:27Z</time></trkpt><trkpt lat="-24.198521786683532" lon="114.03527887053825"><ele>24.0</ele><time>2026-04-17T08:10:28Z</time></trkpt><trkpt lat="-24.198247625035908" lon="114.03534671205574"><ele>23.5</ele><time>2026-04-17T08:10:29Z</time></trkpt><trkpt lat="-24.197973924999662" lon="114.03541655937705"><ele>23.0</ele><time>2026-04-17T08:10:30Z</time></trkpt><trkpt lat="-24.197700052505986" lon="114.03548400101992"><ele>23.0</ele><time>2026-04-17T08:10:31Z</time></trkpt><trkpt lat="-24.19742174671502" lon="114.03555335918355"><ele>23.0</ele><time>2026-04-17T08:10:32Z</time></trkpt><trkpt lat="-24.197145807741936" lon="114.03562359546595"><ele>23.5</ele><time>2026-04-17T08:10:33Z</time></trkpt><trkpt lat="-24.19687009909771" lon="114.03569377932861"><ele>24.0</ele><time>2026-04-17T08:10:34Z</time></trkpt><trkpt lat="-24.196593408026313" lon="114.03576132318553"><ele>22.0</ele><time>2026-04-17T08:10:35Z</time></trkpt><trkpt lat="-24.196313502697645" lon="114.03582920555266"><ele>20.0</ele><time>2026-04-17T08:10:36Z</time></trkpt><trkpt lat="-24.196037052222593" lon="114.03589897863765"><ele>20.0</ele><time>2026-04-17T08:10:37Z</time></trkpt><trkpt lat="-24.195758083941453" lon="114.03597027610215"><ele>20.0</ele><time>2026-04-17T08:10:38Z</time></trkpt><trkpt lat="-24.195478715691753" lon="114.036042586824"><ele>19.5</ele><time>2026-04-17T08:10:39Z</time></trkpt><trkpt lat="-24.195198500789555" lon="114.0361125793329"><ele>19.0</ele><time>2026-04-17T08:10:40Z</time></trkpt><trkpt lat="-24.194913706134425" lon="114.03618018693997"><ele>19.0</ele><time>2026-04-17T08:10:41Z</time></trkpt><trkpt lat="-24.194629400416897" lon="114.03624721843316"><ele>19.0</ele><time>2026-04-17T08:10:42Z</time></trkpt><trkpt lat="-24.194347487153767" lon="114.03631534934905"><ele>19.0</ele><time>2026-04-17T08:10:43Z</time></trkpt><trkpt lat="-24.194065996066275" lon="114.0363845993233"><ele>19.0</ele><time>2026-04-17T08:10:44Z</time></trkpt><trkpt lat="-24.193785399140562" lon="114.0364552208297"><ele>17.5</ele><time>2026-04-17T08:10:45Z</time></trkpt><trkpt lat="-24.19350498024937" lon="114.03652688190283"><ele>16.0</ele><time>2026-04-17T08:10:46Z</time></trkpt><trkpt lat="-24.193225271187735" lon="114.03659682909395"><ele>16.0</ele><time>2026-04-17T08:10:47Z</time></trkpt><trkpt lat="-24.192940689055586" lon="114.03666829122727"><ele>16.0</ele><time>2026-04-17T08:10:48Z</time></trkpt><trkpt lat="-24.192657995191592" lon="114.03673728377144"><ele>16.0</ele><time>2026-04-17T08:10:49Z</time></trkpt><trkpt lat="-24.192372620978432" lon="114.03680803681797"><ele>16.0</ele><time>2026-04-17T08:10:50Z</time></trkpt><trkpt lat="-24.192089205695147" lon="114.03688084695618"><ele>16.5</ele><time>2026-04-17T08:10:51Z</time></trkpt><trkpt lat="-24.191803007773917" lon="114.03695380214212"><ele>17.0</ele><time>2026-04-17T08:10:52Z</time></trkpt><trkpt lat="-24.19151361114324" lon="114.03702723607095"><ele>16.5</ele><time>2026-04-17T08:10:53Z</time></trkpt><trkpt lat="-24.19122403854762" lon="114.03709978865476"><ele>16.0</ele><time>2026-04-17T08:10:54Z</time></trkpt><trkpt lat="-24.190934597087505" lon="114.03717202416901"><ele>16.5</ele><time>2026-04-17T08:10:55Z</time></trkpt><trkpt lat="-24.190639922579404" lon="114.03724527352325"><ele>17.0</ele><time>2026-04-17T08:10:56Z</time></trkpt><trkpt lat="-24.190347081382654" lon="114.03731204993703"><ele>17.0</ele><time>2026-04-17T08:10:57Z</time></trkpt><trkpt lat="-24.190055738445654" lon="114.03738075201889"><ele>17.0</ele><time>2026-04-17T08:10:58Z</time></trkpt><trkpt lat="-24.189766143867804" lon="114.03745275819415"><ele>16.5</ele><time>2026-04-17T08:10:59Z</time></trkpt><trkpt lat="-24.189478021484938" lon="114.03752821039896"><ele>16.0</ele><time>2026-04-17T08:11:00Z</time></trkpt><trkpt lat="-24.18918511916081" lon="114.03760009683293"><ele>16.0</ele><time>2026-04-17T08:11:01Z</time></trkpt><trkpt lat="-24.18889194262002" lon="114.03766973332526"><ele>16.0</ele><time>2026-04-17T08:11:02Z</time></trkpt><trkpt lat="-24.188599572309478" lon="114.0377423108596"><ele>16.0</ele><time>2026-04-17T08:11:03Z</time></trkpt><trkpt lat="-24.188310461528445" lon="114.03781195660412"><ele>16.0</ele><time>2026-04-17T08:11:04Z</time></trkpt><trkpt lat="-24.188021552616895" lon="114.03788423763332"><ele>15.5</ele><time>2026-04-17T08:11:05Z</time></trkpt><trkpt lat="-24.18773346212136" lon="114.03795967758042"><ele>15.0</ele><time>2026-04-17T08:11:06Z</time></trkpt><trkpt lat="-24.18744420870441" lon="114.03802971142183"><ele>15.5</ele><time>2026-04-17T08:11:07Z</time></trkpt><trkpt lat="-24.187155800729222" lon="114.03810014445193"><ele>16.0</ele><time>2026-04-17T08:11:08Z</time></trkpt><trkpt lat="-24.186871382965354" lon="114.03817055686575"><ele>16.0</ele><time>2026-04-17T08:11:09Z</time></trkpt><trkpt lat="-24.18658333301898" lon="114.03824287680868"><ele>16.0</ele><time>2026-04-17T08:11:10Z</time></trkpt><trkpt lat="-24.186300592638197" lon="114.03831154644247"><ele>16.5</ele><time>2026-04-17T08:11:11Z</time></trkpt><trkpt lat="-24.186011862543808" lon="114.03838003142346"><ele>17.0</ele><time>2026-04-17T08:11:12Z</time></trkpt><trkpt lat="-24.18572644151283" lon="114.03844879772684"><ele>17.0</ele><time>2026-04-17T08:11:13Z</time></trkpt><trkpt lat="-24.18544009012172" lon="114.03851987074272"><ele>17.0</ele><time>2026-04-17T08:11:14Z</time></trkpt><trkpt lat="-24.185154433223232" lon="114.03859373344662"><ele>17.0</ele><time>2026-04-17T08:11:15Z</time></trkpt><trkpt lat="-24.184868820408727" lon="114.03866789807428"><ele>17.0</ele><time>2026-04-17T08:11:16Z</time></trkpt><trkpt lat="-24.18457933246822" lon="114.03874217683119"><ele>18.5</ele><time>2026-04-17T08:11:17Z</time></trkpt><trkpt lat="-24.184286139818727" lon="114.03881481683482"><ele>20.0</ele><time>2026-04-17T08:11:18Z</time></trkpt><trkpt lat="-24.183997921750702" lon="114.03888481159065"><ele>20.0</ele><time>2026-04-17T08:11:19Z</time></trkpt><trkpt lat="-24.18370999629083" lon="114.03895677694143"><ele>20.0</ele><time>2026-04-17T08:11:20Z</time></trkpt><trkpt lat="-24.183423043749166" lon="114.0390297733497"><ele>19.5</ele><time>2026-04-17T08:11:21Z</time></trkpt><trkpt lat="-24.183131053021253" lon="114.03909955080285"><ele>19.0</ele><time>2026-04-17T08:11:22Z</time></trkpt><trkpt lat="-24.1828375289856" lon="114.03916799679064"><ele>21.0</ele><time>2026-04-17T08:11:23Z</time></trkpt><trkpt lat="-24.18254645822955" lon="114.03923780671332"><ele>23.0</ele><time>2026-04-17T08:11:24Z</time></trkpt><trkpt lat="-24.182255075334997" lon="114.03930960998765"><ele>23.0</ele><time>2026-04-17T08:11:25Z</time></trkpt><trkpt lat="-24.181964636734087" lon="114.03938478113828"><ele>23.0</ele><time>2026-04-17T08:11:26Z</time></trkpt><trkpt lat="-24.181674783889758" lon="114.0394598085213"><ele>22.0</ele><time>2026-04-17T08:11:27Z</time></trkpt><trkpt lat="-24.181386422625803" lon="114.03953386118211"><ele>21.0</ele><time>2026-04-17T08:11:28Z</time></trkpt><trkpt lat="-24.181092750729903" lon="114.0396074238822"><ele>21.0</ele><time>2026-04-17T08:11:29Z</time></trkpt><trkpt lat="-24.180798241985144" lon="114.0396800217997"><ele>21.0</ele><time>2026-04-17T08:11:30Z</time></trkpt><trkpt lat="-24.180503119785325" lon="114.03975280987743"><ele>21.0</ele><time>2026-04-17T08:11:31Z</time></trkpt><trkpt lat="-24.18021172245483" lon="114.03982503250751"><ele>21.0</ele><time>2026-04-17T08:11:32Z</time></trkpt><trkpt lat="-24.179919096595043" lon="114.0398971922011"><ele>20.5</ele><time>2026-04-17T08:11:33Z</time></trkpt><trkpt lat="-24.179627948853298" lon="114.0399686849629"><ele>20.0</ele><time>2026-04-17T08:11:34Z</time></trkpt><trkpt lat="-24.179336886598822" lon="114.04004010945222"><ele>20.0</ele><time>2026-04-17T08:11:35Z</time></trkpt><trkpt lat="-24.179046321990217" lon="114.04011117301519"><ele>20.0</ele><time>2026-04-17T08:11:36Z</time></trkpt><trkpt lat="-24.178751548243774" lon="114.04018224903203"><ele>20.0</ele><time>2026-04-17T08:11:37Z</time></trkpt><trkpt lat="-24.17845369323703" lon="114.04025619555817"><ele>20.0</ele><time>2026-04-17T08:11:38Z</time></trkpt><trkpt lat="-24.178158421633192" lon="114.04033261947325"><ele>20.0</ele><time>2026-04-17T08:11:39Z</time></trkpt><trkpt lat="-24.17786274399748" lon="114.04041314239261"><ele>20.0</ele><time>2026-04-17T08:11:40Z</time></trkpt><trkpt lat="-24.177569092291233" lon="114.04051021787373"><ele>20.5</ele><time>2026-04-17T08:11:41Z</time></trkpt><trkpt lat="-24.177278228944495" lon="114.04062197073128"><ele>21.0</ele><time>2026-04-17T08:11:42Z</time></trkpt><trkpt lat="-24.17699054530984" lon="114.04074979111567"><ele>21.5</ele><time>2026-04-17T08:11:43Z</time></trkpt><trkpt lat="-24.17670888160161" lon="114.04088565351616"><ele>22.0</ele><time>2026-04-17T08:11:44Z</time></trkpt><trkpt lat="-24.176432710060507" lon="114.04103057933392"><ele>22.5</ele><time>2026-04-17T08:11:45Z</time></trkpt><trkpt lat="-24.1761655962083" lon="114.04118884582235"><ele>23.0</ele><time>2026-04-17T08:11:46Z</time></trkpt><trkpt lat="-24.175901122655286" lon="114.04135405670559"><ele>23.5</ele><time>2026-04-17T08:11:47Z</time></trkpt><trkpt lat="-24.17563748636383" lon="114.04152521719017"><ele>24.0</ele><time>2026-04-17T08:11:48Z</time></trkpt><trkpt lat="-24.175378095929766" lon="114.04170123804187"><ele>23.0</ele><time>2026-04-17T08:11:49Z</time></trkpt><trkpt lat="-24.17512017765394" lon="114.04187804404249"><ele>22.0</ele><time>2026-04-17T08:11:50Z</time></trkpt><trkpt lat="-24.17486246079981" lon="114.04205348363493"><ele>22.0</ele><time>2026-04-17T08:11:51Z</time></trkpt><trkpt lat="-24.174607141775155" lon="114.04222606588431"><ele>22.0</ele><time>2026-04-17T08:11:52Z</time></trkpt><trkpt lat="-24.174351596145428" lon="114.04239900007194"><ele>22.0</ele><time>2026-04-17T08:11:53Z</time></trkpt><trkpt lat="-24.174099700282532" lon="114.04257090520535"><ele>22.0</ele><time>2026-04-17T08:11:54Z</time></trkpt><trkpt lat="-24.17384692051375" lon="114.04274255409501"><ele>22.0</ele><time>2026-04-17T08:11:55Z</time></trkpt><trkpt lat="-24.173597698784434" lon="114.04291318083727"><ele>22.0</ele><time>2026-04-17T08:11:56Z</time></trkpt><trkpt lat="-24.173345559047487" lon="114.04308355830129"><ele>22.5</ele><time>2026-04-17T08:11:57Z</time></trkpt><trkpt lat="-24.173093734085654" lon="114.0432518495323"><ele>23.0</ele><time>2026-04-17T08:11:58Z</time></trkpt><trkpt lat="-24.17284022833291" lon="114.0434218097246"><ele>22.5</ele><time>2026-04-17T08:11:59Z</time></trkpt><trkpt lat="-24.172588640569547" lon="114.04359459413284"><ele>22.0</ele><time>2026-04-17T08:12:00Z</time></trkpt><trkpt lat="-24.172335257430348" lon="114.04376961937123"><ele>22.0</ele><time>2026-04-17T08:12:01Z</time></trkpt><trkpt lat="-24.17208190965363" lon="114.04394288365293"><ele>22.0</ele><time>2026-04-17T08:12:02Z</time></trkpt><trkpt lat="-24.171826893712648" lon="114.0441173822622"><ele>22.0</ele><time>2026-04-17T08:12:03Z</time></trkpt><trkpt lat="-24.171572586710912" lon="114.04428905568602"><ele>22.0</ele><time>2026-04-17T08:12:04Z</time></trkpt><trkpt lat="-24.171317682382874" lon="114.0444616196738"><ele>22.5</ele><time>2026-04-17T08:12:05Z</time></trkpt><trkpt lat="-24.17106148326753" lon="114.04463466490395"><ele>23.0</ele><time>2026-04-17T08:12:06Z</time></trkpt><trkpt lat="-24.170805822417552" lon="114.04480722888123"><ele>21.5</ele><time>2026-04-17T08:12:07Z</time></trkpt><trkpt lat="-24.170550063057696" lon="114.04497728619042"><ele>20.0</ele><time>2026-04-17T08:12:08Z</time></trkpt><trkpt lat="-24.170295788192067" lon="114.04514439083856"><ele>20.0</ele><time>2026-04-17T08:12:09Z</time></trkpt><trkpt lat="-24.1700449270812" lon="114.04530978807172"><ele>20.0</ele><time>2026-04-17T08:12:10Z</time></trkpt><trkpt lat="-24.1697975743522" lon="114.04547602854984"><ele>21.5</ele><time>2026-04-17T08:12:11Z</time></trkpt><trkpt lat="-24.16955276091368" lon="114.04564256513666"><ele>23.0</ele><time>2026-04-17T08:12:12Z</time></trkpt><trkpt lat="-24.16931085504151" lon="114.04581133163843"><ele>23.0</ele><time>2026-04-17T08:12:13Z</time></trkpt><trkpt lat="-24.1690650687651" lon="114.04597834262151"><ele>23.0</ele><time>2026-04-17T08:12:14Z</time></trkpt><trkpt lat="-24.16881735929802" lon="114.04614604785301"><ele>22.5</ele><time>2026-04-17T08:12:15Z</time></trkpt><trkpt lat="-24.16856923840421" lon="114.04631727896"><ele>22.0</ele><time>2026-04-17T08:12:16Z</time></trkpt><trkpt lat="-24.16831725508176" lon="114.0464882100349"><ele>22.0</ele><time>2026-04-17T08:12:17Z</time></trkpt><trkpt lat="-24.168063577028637" lon="114.04666072698376"><ele>22.0</ele><time>2026-04-17T08:12:18Z</time></trkpt><trkpt lat="-24.167807611906888" lon="114.04683456984554"><ele>22.0</ele><time>2026-04-17T08:12:19Z</time></trkpt><trkpt lat="-24.16754903821457" lon="114.04700697688132"><ele>22.0</ele><time>2026-04-17T08:12:20Z</time></trkpt><trkpt lat="-24.167290634389133" lon="114.04717939206503"><ele>22.0</ele><time>2026-04-17T08:12:21Z</time></trkpt><trkpt lat="-24.167036733732953" lon="114.04735253216495"><ele>22.0</ele><time>2026-04-17T08:12:22Z</time></trkpt><trkpt lat="-24.166784589436062" lon="114.0475248343866"><ele>22.5</ele><time>2026-04-17T08:12:23Z</time></trkpt><trkpt lat="-24.166533375647365" lon="114.04769466002915"><ele>23.0</ele><time>2026-04-17T08:12:24Z</time></trkpt><trkpt lat="-24.1662851144299" lon="114.04786054876087"><ele>23.0</ele><time>2026-04-17T08:12:25Z</time></trkpt><trkpt lat="-24.16603584387094" lon="114.04802934975156"><ele>23.0</ele><time>2026-04-17T08:12:26Z</time></trkpt><trkpt lat="-24.165788746536478" lon="114.04819837507542"><ele>22.5</ele><time>2026-04-17T08:12:27Z</time></trkpt><trkpt lat="-24.165539947566415" lon="114.04836920681188"><ele>22.0</ele><time>2026-04-17T08:12:28Z</time></trkpt><trkpt lat="-24.165290068250258" lon="114.04853800000072"><ele>22.0</ele><time>2026-04-17T08:12:29Z</time></trkpt><trkpt lat="-24.165039164287034" lon="114.04870853378918"><ele>22.0</ele><time>2026-04-17T08:12:30Z</time></trkpt><trkpt lat="-24.164787722367517" lon="114.04887965250296"><ele>22.5</ele><time>2026-04-17T08:12:31Z</time></trkpt><trkpt lat="-24.164533487168363" lon="114.04905317240204"><ele>23.0</ele><time>2026-04-17T08:12:32Z</time></trkpt><trkpt lat="-24.164279300497846" lon="114.04922477264492"><ele>22.5</ele><time>2026-04-17T08:12:33Z</time></trkpt><trkpt lat="-24.16402640195728" lon="114.04939253248018"><ele>22.0</ele><time>2026-04-17T08:12:34Z</time></trkpt><trkpt lat="-24.163772384870345" lon="114.0495556653934"><ele>22.0</ele><time>2026-04-17T08:12:35Z</time></trkpt><trkpt lat="-24.16351371993721" lon="114.04970873814975"><ele>22.0</ele><time>2026-04-17T08:12:36Z</time></trkpt><trkpt lat="-24.16325059402892" lon="114.04985792563305"><ele>22.0</ele><time>2026-04-17T08:12:37Z</time></trkpt><trkpt lat="-24.162985318750014" lon="114.04999757931019"><ele>22.0</ele><time>2026-04-17T08:12:38Z</time></trkpt><trkpt lat="-24.162711416557244" lon="114.05012521685185"><ele>22.0</ele><time>2026-04-17T08:12:39Z</time></trkpt><trkpt lat="-24.162433789902185" lon="114.05023795789866"><ele>22.0</ele><time>2026-04-17T08:12:40Z</time></trkpt><trkpt lat="-24.162155044986747" lon="114.05034385665863"><ele>22.0</ele><time>2026-04-17T08:12:41Z</time></trkpt><trkpt lat="-24.161872913056577" lon="114.05044021292325"><ele>22.0</ele><time>2026-04-17T08:12:42Z</time></trkpt><trkpt lat="-24.16159111738286" lon="114.05051998088454"><ele>22.5</ele><time>2026-04-17T08:12:43Z</time></trkpt><trkpt lat="-24.161302712340245" lon="114.05059090725065"><ele>23.0</ele><time>2026-04-17T08:12:44Z</time></trkpt><trkpt lat="-24.16101384444038" lon="114.05065068443203"><ele>23.0</ele><time>2026-04-17T08:12:45Z</time></trkpt><trkpt lat="-24.160722813640263" lon="114.05069980258914"><ele>23.0</ele><time>2026-04-17T08:12:46Z</time></trkpt><trkpt lat="-24.160431909001982" lon="114.05073498291354"><ele>24.0</ele><time>2026-04-17T08:12:47Z</time></trkpt><trkpt lat="-24.160140475335457" lon="114.05076062893514"><ele>25.0</ele><time>2026-04-17T08:12:48Z</time></trkpt><trkpt lat="-24.159852390366634" lon="114.05077668316942"><ele>25.0</ele><time>2026-04-17T08:12:49Z</time></trkpt><trkpt lat="-24.159561862240352" lon="114.050783374242"><ele>25.0</ele><time>2026-04-17T08:12:50Z</time></trkpt><trkpt lat="-24.159271763520223" lon="114.05077755525808"><ele>25.0</ele><time>2026-04-17T08:12:51Z</time></trkpt><trkpt lat="-24.158984387348656" lon="114.05075805914919"><ele>25.0</ele><time>2026-04-17T08:12:52Z</time></trkpt><trkpt lat="-24.1586949042595" lon="114.05072798391701"><ele>25.0</ele><time>2026-04-17T08:12:53Z</time></trkpt><trkpt lat="-24.158407036914795" lon="114.05069422257398"><ele>25.0</ele><time>2026-04-17T08:12:54Z</time></trkpt><trkpt lat="-24.1581158128242" lon="114.05066032810504"><ele>24.5</ele><time>2026-04-17T08:12:55Z</time></trkpt><trkpt lat="-24.15782785474122" lon="114.05063340110893"><ele>24.0</ele><time>2026-04-17T08:12:56Z</time></trkpt><trkpt lat="-24.15753601676634" lon="114.05060963046347"><ele>24.0</ele><time>2026-04-17T08:12:57Z</time></trkpt><trkpt lat="-24.1572484807647" lon="114.05058671098132"><ele>24.0</ele><time>2026-04-17T08:12:58Z</time></trkpt><trkpt lat="-24.156958833462458" lon="114.05056347384203"><ele>24.0</ele><time>2026-04-17T08:12:59Z</time></trkpt><trkpt lat="-24.156670271609272" lon="114.05053730954798"><ele>24.0</ele><time>2026-04-17T08:13:00Z</time></trkpt><trkpt lat="-24.156382976501558" lon="114.0505116484105"><ele>23.5</ele><time>2026-04-17T08:13:01Z</time></trkpt><trkpt lat="-24.156097159694074" lon="114.05048722515791"><ele>23.0</ele><time>2026-04-17T08:13:02Z</time></trkpt><trkpt lat="-24.15581287360062" lon="114.05046212493927"><ele>22.0</ele><time>2026-04-17T08:13:03Z</time></trkpt><trkpt lat="-24.15552954180646" lon="114.05043880571078"><ele>21.0</ele><time>2026-04-17T08:13:04Z</time></trkpt><trkpt lat="-24.15524142395023" lon="114.05041695591963"><ele>21.0</ele><time>2026-04-17T08:13:05Z</time></trkpt><trkpt lat="-24.15495345486705" lon="114.05039365150144"><ele>21.0</ele><time>2026-04-17T08:13:06Z</time></trkpt><trkpt lat="-24.15466706605217" lon="114.05037215417563"><ele>21.0</ele><time>2026-04-17T08:13:07Z</time></trkpt><trkpt lat="-24.154382244444772" lon="114.05035196032242"><ele>21.0</ele><time>2026-04-17T08:13:08Z</time></trkpt><trkpt lat="-24.154099819438752" lon="114.05033849685287"><ele>21.5</ele><time>2026-04-17T08:13:09Z</time></trkpt><trkpt lat="-24.15381437047314" lon="114.05033042011287"><ele>22.0</ele><time>2026-04-17T08:13:10Z</time></trkpt><trkpt lat="-24.15352823962622" lon="114.05032581444114"><ele>22.0</ele><time>2026-04-17T08:13:11Z</time></trkpt><trkpt lat="-24.15324363971251" lon="114.05032283143578"><ele>22.0</ele><time>2026-04-17T08:13:12Z</time></trkpt><trkpt lat="-24.15295948810702" lon="114.05031823716529"><ele>21.5</ele><time>2026-04-17T08:13:13Z</time></trkpt><trkpt lat="-24.15267578646718" lon="114.05031413878072"><ele>21.0</ele><time>2026-04-17T08:13:14Z</time></trkpt><trkpt lat="-24.152397422505338" lon="114.05031284702817"><ele>20.0</ele><time>2026-04-17T08:13:15Z</time></trkpt><trkpt lat="-24.15211689258019" lon="114.05030917503157"><ele>19.0</ele><time>2026-04-17T08:13:16Z</time></trkpt><trkpt lat="-24.151836642405588" lon="114.05030403198592"><ele>19.0</ele><time>2026-04-17T08:13:17Z</time></trkpt><trkpt lat="-24.15155351512378" lon="114.05029945219879"><ele>19.0</ele><time>2026-04-17T08:13:18Z</time></trkpt><trkpt lat="-24.15127596497239" lon="114.0502971256439"><ele>19.5</ele><time>2026-04-17T08:13:19Z</time></trkpt><trkpt lat="-24.15099285573821" lon="114.05029756036434"><ele>20.0</ele><time>2026-04-17T08:13:20Z</time></trkpt><trkpt lat="-24.150709358475353" lon="114.05029718779372"><ele>20.0</ele><time>2026-04-17T08:13:21Z</time></trkpt><trkpt lat="-24.150426111156616" lon="114.05029345114389"><ele>20.0</ele><time>2026-04-17T08:13:22Z</time></trkpt><trkpt lat="-24.150142747616545" lon="114.05029085499378"><ele>19.0</ele><time>2026-04-17T08:13:23Z</time></trkpt><trkpt lat="-24.14985699693927" lon="114.05028710838239"><ele>18.0</ele><time>2026-04-17T08:13:24Z</time></trkpt><trkpt lat="-24.14956982634996" lon="114.05028254441713"><ele>18.0</ele><time>2026-04-17T08:13:25Z</time></trkpt><trkpt lat="-24.149283357943723" lon="114.05027840247985"><ele>18.0</ele><time>2026-04-17T08:13:26Z</time></trkpt><trkpt lat="-24.148996036976182" lon="114.05027583179604"><ele>18.0</ele><time>2026-04-17T08:13:27Z</time></trkpt><trkpt lat="-24.148710190224826" lon="114.05027543031356"><ele>18.0</ele><time>2026-04-17T08:13:28Z</time></trkpt><trkpt lat="-24.148439452712612" lon="114.05027538477921"><ele>19.0</ele><time>2026-04-17T08:13:29Z</time></trkpt><trkpt lat="-24.148179465812365" lon="114.05027114434385"><ele>20.0</ele><time>2026-04-17T08:13:30Z</time></trkpt><trkpt lat="-24.147922057737066" lon="114.05026606278402"><ele>20.0</ele><time>2026-04-17T08:13:31Z</time></trkpt><trkpt lat="-24.147659004636346" lon="114.05026224301506"><ele>20.0</ele><time>2026-04-17T08:13:32Z</time></trkpt><trkpt lat="-24.147399152256746" lon="114.05025863698016"><ele>19.0</ele><time>2026-04-17T08:13:33Z</time></trkpt><trkpt lat="-24.14713882435906" lon="114.05025472990262"><ele>18.0</ele><time>2026-04-17T08:13:34Z</time></trkpt><trkpt lat="-24.146881199595224" lon="114.05025210223398"><ele>18.0</ele><time>2026-04-17T08:13:35Z</time></trkpt><trkpt lat="-24.14662085929864" lon="114.05024901385589"><ele>18.0</ele><time>2026-04-17T08:13:36Z</time></trkpt><trkpt lat="-24.14635577285385" lon="114.05024796263653"><ele>19.0</ele><time>2026-04-17T08:13:37Z</time></trkpt><trkpt lat="-24.146086814820393" lon="114.05024717953019"><ele>20.0</ele><time>2026-04-17T08:13:38Z</time></trkpt><trkpt lat="-24.145819336059294" lon="114.05024353103082"><ele>20.0</ele><time>2026-04-17T08:13:39Z</time></trkpt><trkpt lat="-24.145550110609253" lon="114.0502388780698"><ele>20.0</ele><time>2026-04-17T08:13:40Z</time></trkpt><trkpt lat="-24.145280276634587" lon="114.0502319330129"><ele>20.0</ele><time>2026-04-17T08:13:41Z</time></trkpt><trkpt lat="-24.145010111489988" lon="114.05022854026197"><ele>20.0</ele><time>2026-04-17T08:13:42Z</time></trkpt><trkpt lat="-24.14473746871561" lon="114.05022542237957"><ele>20.0</ele><time>2026-04-17T08:13:43Z</time></trkpt><trkpt lat="-24.144463636274573" lon="114.0502236810833"><ele>20.0</ele><time>2026-04-17T08:13:44Z</time></trkpt><trkpt lat="-24.14419222229513" lon="114.05022419932133"><ele>20.5</ele><time>2026-04-17T08:13:45Z</time></trkpt><trkpt lat="-24.143919016871333" lon="114.05022447138447"><ele>21.0</ele><time>2026-04-17T08:13:46Z</time></trkpt><trkpt lat="-24.14364684788274" lon="114.05022444189746"><ele>21.0</ele><time>2026-04-17T08:13:47Z</time></trkpt><trkpt lat="-24.143367779369406" lon="114.0502210971959"><ele>21.0</ele><time>2026-04-17T08:13:48Z</time></trkpt><trkpt lat="-24.143086360000513" lon="114.05021997032543"><ele>19.5</ele><time>2026-04-17T08:13:49Z</time></trkpt><trkpt lat="-24.142804760539395" lon="114.05021554677575"><ele>18.0</ele><time>2026-04-17T08:13:50Z</time></trkpt><trkpt lat="-24.142521102513175" lon="114.05020921956275"><ele>19.5</ele><time>2026-04-17T08:13:51Z</time></trkpt><trkpt lat="-24.142236119532136" lon="114.05020328964517"><ele>21.0</ele><time>2026-04-17T08:13:52Z</time></trkpt><trkpt lat="-24.141949777356782" lon="114.05020238374502"><ele>21.0</ele><time>2026-04-17T08:13:53Z</time></trkpt><trkpt lat="-24.14166351950256" lon="114.05020034814784"><ele>21.0</ele><time>2026-04-17T08:13:54Z</time></trkpt><trkpt lat="-24.141377970214503" lon="114.05019713464962"><ele>21.0</ele><time>2026-04-17T08:13:55Z</time></trkpt><trkpt lat="-24.141093852995894" lon="114.0501940285069"><ele>21.0</ele><time>2026-04-17T08:13:56Z</time></trkpt><trkpt lat="-24.140807701120835" lon="114.05018853902274"><ele>20.5</ele><time>2026-04-17T08:13:57Z</time></trkpt><trkpt lat="-24.1405220549878" lon="114.05018681133679"><ele>20.0</ele><time>2026-04-17T08:13:58Z</time></trkpt><trkpt lat="-24.14023911119565" lon="114.05018622144499"><ele>20.0</ele><time>2026-04-17T08:13:59Z</time></trkpt><trkpt lat="-24.139959347626434" lon="114.05018760361605"><ele>20.0</ele><time>2026-04-17T08:14:00Z</time></trkpt><trkpt lat="-24.139678703615118" lon="114.05018577355784"><ele>20.0</ele><time>2026-04-17T08:14:01Z</time></trkpt><trkpt lat="-24.139397508974465" lon="114.0501828578212"><ele>20.0</ele><time>2026-04-17T08:14:02Z</time></trkpt><trkpt lat="-24.139118441660404" lon="114.05017882166811"><ele>20.5</ele><time>2026-04-17T08:14:03Z</time></trkpt><trkpt lat="-24.13883870363635" lon="114.05017369924025"><ele>21.0</ele><time>2026-04-17T08:14:04Z</time></trkpt><trkpt lat="-24.138558488393844" lon="114.05016746174272"><ele>21.0</ele><time>2026-04-17T08:14:05Z</time></trkpt><trkpt lat="-24.138277364157002" lon="114.05016428271013"><ele>21.0</ele><time>2026-04-17T08:14:06Z</time></trkpt><trkpt lat="-24.13799755946006" lon="114.05016399992662"><ele>21.0</ele><time>2026-04-17T08:14:07Z</time></trkpt><trkpt lat="-24.13771375790926" lon="114.05016164853238"><ele>21.0</ele><time>2026-04-17T08:14:08Z</time></trkpt><trkpt lat="-24.137434477128654" lon="114.05015936216067"><ele>20.5</ele><time>2026-04-17T08:14:09Z</time></trkpt><trkpt lat="-24.137156761828457" lon="114.05015768704162"><ele>20.0</ele><time>2026-04-17T08:14:10Z</time></trkpt><trkpt lat="-24.136878922575285" lon="114.0501559859434"><ele>20.0</ele><time>2026-04-17T08:14:11Z</time></trkpt><trkpt lat="-24.136601925335373" lon="114.0501522399636"><ele>20.0</ele><time>2026-04-17T08:14:12Z</time></trkpt><trkpt lat="-24.136321886281426" lon="114.0501472186591"><ele>20.5</ele><time>2026-04-17T08:14:13Z</time></trkpt><trkpt lat="-24.136044292338344" lon="114.05014151092041"><ele>21.0</ele><time>2026-04-17T08:14:14Z</time></trkpt><trkpt lat="-24.13576818854357" lon="114.05014013612426"><ele>21.0</ele><time>2026-04-17T08:14:15Z</time></trkpt><trkpt lat="-24.13548998130903" lon="114.05013406142771"><ele>21.0</ele><time>2026-04-17T08:14:16Z</time></trkpt><trkpt lat="-24.13521380874486" lon="114.05013022389244"><ele>21.0</ele><time>2026-04-17T08:14:17Z</time></trkpt><trkpt lat="-24.13493473007226" lon="114.05012792463167"><ele>21.0</ele><time>2026-04-17T08:14:18Z</time></trkpt><trkpt lat="-24.13465959162336" lon="114.05012788428961"><ele>20.5</ele><time>2026-04-17T08:14:19Z</time></trkpt><trkpt lat="-24.134379215382843" lon="114.05012820466048"><ele>20.0</ele><time>2026-04-17T08:14:20Z</time></trkpt><trkpt lat="-24.134092684688703" lon="114.05012763434704"><ele>19.5</ele><time>2026-04-17T08:14:21Z</time></trkpt><trkpt lat="-24.133802146564406" lon="114.05012720840944"><ele>19.0</ele><time>2026-04-17T08:14:22Z</time></trkpt><trkpt lat="-24.13351743572034" lon="114.05012607321231"><ele>19.0</ele><time>2026-04-17T08:14:23Z</time></trkpt><trkpt lat="-24.133225300174832" lon="114.05012382840535"><ele>19.0</ele><time>2026-04-17T08:14:24Z</time></trkpt><trkpt lat="-24.132923397647527" lon="114.05011783451876"><ele>19.0</ele><time>2026-04-17T08:14:25Z</time></trkpt><trkpt lat="-24.1326117930922" lon="114.05011133967815"><ele>19.0</ele><time>2026-04-17T08:14:26Z</time></trkpt><trkpt lat="-24.13229320389598" lon="114.05010749957644"><ele>19.0</ele><time>2026-04-17T08:14:27Z</time></trkpt><trkpt lat="-24.13197460782455" lon="114.05010440527558"><ele>19.0</ele><time>2026-04-17T08:14:28Z</time></trkpt><trkpt lat="-24.131656235180717" lon="114.05009974652239"><ele>19.0</ele><time>2026-04-17T08:14:29Z</time></trkpt><trkpt lat="-24.131338286538274" lon="114.05009349344387"><ele>19.0</ele><time>2026-04-17T08:14:30Z</time></trkpt><trkpt lat="-24.131020842373893" lon="114.05008982042527"><ele>19.5</ele><time>2026-04-17T08:14:31Z</time></trkpt><trkpt lat="-24.130704272395477" lon="114.05008788568853"><ele>20.0</ele><time>2026-04-17T08:14:32Z</time></trkpt><trkpt lat="-24.13038740807494" lon="114.05008485615423"><ele>20.0</ele><time>2026-04-17T08:14:33Z</time></trkpt><trkpt lat="-24.130071974530335" lon="114.0500827434021"><ele>20.0</ele><time>2026-04-17T08:14:34Z</time></trkpt><trkpt lat="-24.129758639518517" lon="114.05008034774845"><ele>20.0</ele><time>2026-04-17T08:14:35Z</time></trkpt><trkpt lat="-24.12944508762345" lon="114.05007762637361"><ele>20.0</ele><time>2026-04-17T08:14:36Z</time></trkpt><trkpt lat="-24.12912741130346" lon="114.05007637377672"><ele>19.0</ele><time>2026-04-17T08:14:37Z</time></trkpt><trkpt lat="-24.128810184236762" lon="114.05007319748182"><ele>18.0</ele><time>2026-04-17T08:14:38Z</time></trkpt><trkpt lat="-24.128490257161136" lon="114.05006961205926"><ele>19.5</ele><time>2026-04-17T08:14:39Z</time></trkpt><trkpt lat="-24.128171108042494" lon="114.05006586272799"><ele>21.0</ele><time>2026-04-17T08:14:40Z</time></trkpt><trkpt lat="-24.12784644813906" lon="114.05006428839853"><ele>21.0</ele><time>2026-04-17T08:14:41Z</time></trkpt><trkpt lat="-24.127524615819006" lon="114.05005880756302"><ele>21.0</ele><time>2026-04-17T08:14:42Z</time></trkpt><trkpt lat="-24.12720476074502" lon="114.05005407981656"><ele>20.5</ele><time>2026-04-17T08:14:43Z</time></trkpt><trkpt lat="-24.12688358661309" lon="114.05005045493088"><ele>20.0</ele><time>2026-04-17T08:14:44Z</time></trkpt><trkpt lat="-24.126564748184144" lon="114.05004770828876"><ele>19.5</ele><time>2026-04-17T08:14:45Z</time></trkpt><trkpt lat="-24.126248566770844" lon="114.05004561437168"><ele>19.0</ele><time>2026-04-17T08:14:46Z</time></trkpt><trkpt lat="-24.125929151637965" lon="114.05004573726443"><ele>18.5</ele><time>2026-04-17T08:14:47Z</time></trkpt><trkpt lat="-24.125613446709213" lon="114.05004320552428"><ele>18.0</ele><time>2026-04-17T08:14:48Z</time></trkpt><trkpt lat="-24.125299153787484" lon="114.05004104629657"><ele>18.0</ele><time>2026-04-17T08:14:49Z</time></trkpt><trkpt lat="-24.12498543022621" lon="114.05003897430343"><ele>18.0</ele><time>2026-04-17T08:14:50Z</time></trkpt><trkpt lat="-24.1246771032206" lon="114.05003700267984"><ele>18.5</ele><time>2026-04-17T08:14:51Z</time></trkpt><trkpt lat="-24.124371190206414" lon="114.05003709443272"><ele>19.0</ele><time>2026-04-17T08:14:52Z</time></trkpt><trkpt lat="-24.124063117488095" lon="114.05003681581763"><ele>19.0</ele><time>2026-04-17T08:14:53Z</time></trkpt><trkpt lat="-24.12375522164139" lon="114.05003289339193"><ele>19.0</ele><time>2026-04-17T08:14:54Z</time></trkpt><trkpt lat="-24.123444102938162" lon="114.05002602385507"><ele>19.0</ele><time>2026-04-17T08:14:55Z</time></trkpt><trkpt lat="-24.123133869197115" lon="114.05002088697697"><ele>19.0</ele><time>2026-04-17T08:14:56Z</time></trkpt><trkpt lat="-24.12282335124606" lon="114.05001742118353"><ele>19.0</ele><time>2026-04-17T08:14:57Z</time></trkpt><trkpt lat="-24.122510293278896" lon="114.05001291217684"><ele>19.0</ele><time>2026-04-17T08:14:58Z</time></trkpt><trkpt lat="-24.12220074196378" lon="114.05001005633778"><ele>18.0</ele><time>2026-04-17T08:14:59Z</time></trkpt><trkpt lat="-24.121896229876253" lon="114.05000892497897"><ele>17.0</ele><time>2026-04-17T08:15:00Z</time></trkpt><trkpt lat="-24.12158635698193" lon="114.05000619011109"><ele>18.0</ele><time>2026-04-17T08:15:01Z</time></trkpt><trkpt lat="-24.12127742220619" lon="114.05000160646098"><ele>19.0</ele><time>2026-04-17T08:15:02Z</time></trkpt><trkpt lat="-24.12096811633615" lon="114.04999710317043"><ele>18.5</ele><time>2026-04-17T08:15:03Z</time></trkpt><trkpt lat="-24.120658338573833" lon="114.04999239863383"><ele>18.0</ele><time>2026-04-17T08:15:04Z</time></trkpt><trkpt lat="-24.120350556483288" lon="114.04999020739724"><ele>18.0</ele><time>2026-04-17T08:15:05Z</time></trkpt><trkpt lat="-24.12004418079051" lon="114.04999217647233"><ele>18.0</ele><time>2026-04-17T08:15:06Z</time></trkpt><trkpt lat="-24.1197399624984" lon="114.04999112352708"><ele>18.0</ele><time>2026-04-17T08:15:07Z</time></trkpt><trkpt lat="-24.119432125792287" lon="114.04998693435711"><ele>18.0</ele><time>2026-04-17T08:15:08Z</time></trkpt><trkpt lat="-24.119123235067295" lon="114.04997991247062"><ele>18.0</ele><time>2026-04-17T08:15:09Z</time></trkpt><trkpt lat="-24.11881387319154" lon="114.04997648781227"><ele>18.0</ele><time>2026-04-17T08:15:10Z</time></trkpt><trkpt lat="-24.11850284940194" lon="114.04997130268865"><ele>18.0</ele><time>2026-04-17T08:15:11Z</time></trkpt><trkpt lat="-24.11819127906563" lon="114.04996599773627"><ele>18.0</ele><time>2026-04-17T08:15:12Z</time></trkpt><trkpt lat="-24.117875368199254" lon="114.04996342317463"><ele>18.0</ele><time>2026-04-17T08:15:13Z</time></trkpt><trkpt lat="-24.117557693027713" lon="114.04996012770088"><ele>18.0</ele><time>2026-04-17T08:15:14Z</time></trkpt><trkpt lat="-24.117239898877926" lon="114.04995689378158"><ele>17.5</ele><time>2026-04-17T08:15:15Z</time></trkpt><trkpt lat="-24.116925971177196" lon="114.04995504201543"><ele>17.0</ele><time>2026-04-17T08:15:16Z</time></trkpt><trkpt lat="-24.116608726617354" lon="114.04995079418511"><ele>17.0</ele><time>2026-04-17T08:15:17Z</time></trkpt><trkpt lat="-24.116292377299168" lon="114.04995025459438"><ele>17.0</ele><time>2026-04-17T08:15:18Z</time></trkpt><trkpt lat="-24.115976939429334" lon="114.04994872844365"><ele>17.0</ele><time>2026-04-17T08:15:19Z</time></trkpt><trkpt lat="-24.115660019132584" lon="114.04994475892133"><ele>17.0</ele><time>2026-04-17T08:15:20Z</time></trkpt><trkpt lat="-24.115342959610135" lon="114.0499371821146"><ele>17.0</ele><time>2026-04-17T08:15:21Z</time></trkpt><trkpt lat="-24.115023352768823" lon="114.04993204051068"><ele>17.0</ele><time>2026-04-17T08:15:22Z</time></trkpt><trkpt lat="-24.114704456278687" lon="114.04993093828598"><ele>18.0</ele><time>2026-04-17T08:15:23Z</time></trkpt><trkpt lat="-24.114388327437656" lon="114.04993069844545"><ele>19.0</ele><time>2026-04-17T08:15:24Z</time></trkpt><trkpt lat="-24.114073371321354" lon="114.04992854632061"><ele>19.0</ele><time>2026-04-17T08:15:25Z</time></trkpt><trkpt lat="-24.113758409420832" lon="114.04992684539465"><ele>19.0</ele><time>2026-04-17T08:15:26Z</time></trkpt><trkpt lat="-24.11344434251738" lon="114.04992464620636"><ele>18.0</ele><time>2026-04-17T08:15:27Z</time></trkpt><trkpt lat="-24.113132307012734" lon="114.0499244626372"><ele>17.0</ele><time>2026-04-17T08:15:28Z</time></trkpt><trkpt lat="-24.1128209982821" lon="114.04992280501489"><ele>17.0</ele><time>2026-04-17T08:15:29Z</time></trkpt><trkpt lat="-24.112511886261515" lon="114.04991256906268"><ele>17.0</ele><time>2026-04-17T08:15:30Z</time></trkpt><trkpt lat="-24.11220387359836" lon="114.04989698121862"><ele>17.5</ele><time>2026-04-17T08:15:31Z</time></trkpt><trkpt lat="-24.111897780914784" lon="114.04986953062158"><ele>18.0</ele><time>2026-04-17T08:15:32Z</time></trkpt><trkpt lat="-24.111592226838575" lon="114.04982425631174"><ele>18.5</ele><time>2026-04-17T08:15:33Z</time></trkpt><trkpt lat="-24.111288162356836" lon="114.04976435595377"><ele>19.0</ele><time>2026-04-17T08:15:34Z</time></trkpt><trkpt lat="-24.110989113014956" lon="114.04969470461381"><ele>17.5</ele><time>2026-04-17T08:15:35Z</time></trkpt><trkpt lat="-24.110689369010036" lon="114.04961715929032"><ele>16.0</ele><time>2026-04-17T08:15:36Z</time></trkpt><trkpt lat="-24.110393071440516" lon="114.04953501329292"><ele>16.0</ele><time>2026-04-17T08:15:37Z</time></trkpt><trkpt lat="-24.110093257053688" lon="114.04944725998891"><ele>16.0</ele><time>2026-04-17T08:15:38Z</time></trkpt><trkpt lat="-24.109791012532952" lon="114.04935963945437"><ele>17.0</ele><time>2026-04-17T08:15:39Z</time></trkpt><trkpt lat="-24.109485630315593" lon="114.04927690266534"><ele>18.0</ele><time>2026-04-17T08:15:40Z</time></trkpt><trkpt lat="-24.109181309837727" lon="114.04919860557996"><ele>17.5</ele><time>2026-04-17T08:15:41Z</time></trkpt><trkpt lat="-24.108879368957883" lon="114.04912339197774"><ele>17.0</ele><time>2026-04-17T08:15:42Z</time></trkpt><trkpt lat="-24.10857771065105" lon="114.04904717023294"><ele>17.0</ele><time>2026-04-17T08:15:43Z</time></trkpt><trkpt lat="-24.10827940151203" lon="114.04897031814896"><ele>17.0</ele><time>2026-04-17T08:15:44Z</time></trkpt><trkpt lat="-24.10798224360075" lon="114.04889078661711"><ele>17.0</ele><time>2026-04-17T08:15:45Z</time></trkpt><trkpt lat="-24.10768164089017" lon="114.04881158562168"><ele>17.0</ele><time>2026-04-17T08:15:46Z</time></trkpt><trkpt lat="-24.107380820749444" lon="114.04873471009816"><ele>17.5</ele><time>2026-04-17T08:15:47Z</time></trkpt><trkpt lat="-24.10707943052237" lon="114.04865846403708"><ele>18.0</ele><time>2026-04-17T08:15:48Z</time></trkpt><trkpt lat="-24.10678086073189" lon="114.04858167993532"><ele>18.5</ele><time>2026-04-17T08:15:49Z</time></trkpt><trkpt lat="-24.106482617317923" lon="114.04850163863797"><ele>19.0</ele><time>2026-04-17T08:15:50Z</time></trkpt><trkpt lat="-24.10618279806776" lon="114.04842268520775"><ele>19.0</ele><time>2026-04-17T08:15:51Z</time></trkpt><trkpt lat="-24.105882857481532" lon="114.04834370796243"><ele>19.0</ele><time>2026-04-17T08:15:52Z</time></trkpt><trkpt lat="-24.105581932651976" lon="114.04826477526406"><ele>17.5</ele><time>2026-04-17T08:15:53Z</time></trkpt><trkpt lat="-24.105281131831163" lon="114.04818483508035"><ele>16.0</ele><time>2026-04-17T08:15:54Z</time></trkpt><trkpt lat="-24.10497830366184" lon="114.04810594776819"><ele>16.5</ele><time>2026-04-17T08:15:55Z</time></trkpt><trkpt lat="-24.104674739240554" lon="114.04802694043526"><ele>17.0</ele><time>2026-04-17T08:15:56Z</time></trkpt><trkpt lat="-24.104372352525303" lon="114.04794829921562"><ele>17.0</ele><time>2026-04-17T08:15:57Z</time></trkpt><trkpt lat="-24.104072255234964" lon="114.04787111106631"><ele>17.0</ele><time>2026-04-17T08:15:58Z</time></trkpt><trkpt lat="-24.103771117801717" lon="114.04779261138896"><ele>17.0</ele><time>2026-04-17T08:15:59Z</time></trkpt><trkpt lat="-24.103471634160762" lon="114.04771523920196"><ele>17.0</ele><time>2026-04-17T08:16:00Z</time></trkpt><trkpt lat="-24.103173906579524" lon="114.04763676854765"><ele>17.0</ele><time>2026-04-17T08:16:01Z</time></trkpt><trkpt lat="-24.10287543598859" lon="114.04755497361731"><ele>17.0</ele><time>2026-04-17T08:16:02Z</time></trkpt><trkpt lat="-24.102573634548577" lon="114.04747262713377"><ele>18.0</ele><time>2026-04-17T08:16:03Z</time></trkpt><trkpt lat="-24.102270213844914" lon="114.04739261202864"><ele>19.0</ele><time>2026-04-17T08:16:04Z</time></trkpt><trkpt lat="-24.101968609864933" lon="114.04731510588978"><ele>19.0</ele><time>2026-04-17T08:16:05Z</time></trkpt><trkpt lat="-24.101666342805522" lon="114.04723553941507"><ele>19.0</ele><time>2026-04-17T08:16:06Z</time></trkpt><trkpt lat="-24.10136668766087" lon="114.04715630740755"><ele>18.5</ele><time>2026-04-17T08:16:07Z</time></trkpt><trkpt lat="-24.101068094057712" lon="114.04707788126886"><ele>18.0</ele><time>2026-04-17T08:16:08Z</time></trkpt><trkpt lat="-24.100772471340864" lon="114.0470015355212"><ele>17.5</ele><time>2026-04-17T08:16:09Z</time></trkpt><trkpt lat="-24.10047564555527" lon="114.04692560188387"><ele>17.0</ele><time>2026-04-17T08:16:10Z</time></trkpt><trkpt lat="-24.100177593044318" lon="114.04684820522722"><ele>16.5</ele><time>2026-04-17T08:16:11Z</time></trkpt><trkpt lat="-24.099880096462506" lon="114.0467716090374"><ele>16.0</ele><time>2026-04-17T08:16:12Z</time></trkpt><trkpt lat="-24.09958387708996" lon="114.0466955555198"><ele>17.0</ele><time>2026-04-17T08:16:13Z</time></trkpt><trkpt lat="-24.099001846155115" lon="114.04654973542405"><ele>17.0</ele><time>2026-04-17T08:16:15Z</time></trkpt><trkpt lat="-24.098716370935904" lon="114.04647958876262"><ele>17.0</ele><time>2026-04-17T08:16:16Z</time></trkpt><trkpt lat="-24.098432594772365" lon="114.04640517044919"><ele>16.5</ele><time>2026-04-17T08:16:17Z</time></trkpt><trkpt lat="-24.098150526969093" lon="114.04632330324444"><ele>16.0</ele><time>2026-04-17T08:16:18Z</time></trkpt><trkpt lat="-24.097867119433648" lon="114.04623992989167"><ele>16.0</ele><time>2026-04-17T08:16:19Z</time></trkpt><trkpt lat="-24.09757867786755" lon="114.04615873725906"><ele>16.0</ele><time>2026-04-17T08:16:20Z</time></trkpt><trkpt lat="-24.097288020986007" lon="114.0460792634729"><ele>16.5</ele><time>2026-04-17T08:16:21Z</time></trkpt><trkpt lat="-24.096995258846086" lon="114.04600112369113"><ele>17.0</ele><time>2026-04-17T08:16:22Z</time></trkpt><trkpt lat="-24.096699084054578" lon="114.04592336955785"><ele>17.5</ele><time>2026-04-17T08:16:23Z</time></trkpt><trkpt lat="-24.096400012632422" lon="114.0458470953438"><ele>18.0</ele><time>2026-04-17T08:16:24Z</time></trkpt><trkpt lat="-24.096096904672514" lon="114.04577114921445"><ele>18.0</ele><time>2026-04-17T08:16:25Z</time></trkpt><trkpt lat="-24.095791504544863" lon="114.0456963401098"><ele>18.0</ele><time>2026-04-17T08:16:26Z</time></trkpt><trkpt lat="-24.095493731688727" lon="114.0456216857605"><ele>18.0</ele><time>2026-04-17T08:16:27Z</time></trkpt><trkpt lat="-24.095221075693832" lon="114.04555315266636"><ele>18.0</ele><time>2026-04-17T08:16:28Z</time></trkpt><trkpt lat="-24.094952819406995" lon="114.0454859467465"><ele>18.0</ele><time>2026-04-17T08:16:29Z</time></trkpt><trkpt lat="-24.094674511964648" lon="114.04541447733921"><ele>18.0</ele><time>2026-04-17T08:16:30Z</time></trkpt><trkpt lat="-24.094390395644645" lon="114.04533827312132"><ele>18.0</ele><time>2026-04-17T08:16:31Z</time></trkpt><trkpt lat="-24.094103069253674" lon="114.04526223243023"><ele>18.0</ele><time>2026-04-17T08:16:32Z</time></trkpt><trkpt lat="-24.09381512499496" lon="114.0451880146067"><ele>17.0</ele><time>2026-04-17T08:16:33Z</time></trkpt><trkpt lat="-24.09352502285737" lon="114.0451103723454"><ele>16.0</ele><time>2026-04-17T08:16:34Z</time></trkpt><trkpt lat="-24.093232057308317" lon="114.04503062113955"><ele>16.5</ele><time>2026-04-17T08:16:35Z</time></trkpt><trkpt lat="-24.092939209638644" lon="114.04495380067024"><ele>17.0</ele><time>2026-04-17T08:16:36Z</time></trkpt><trkpt lat="-24.092645382180034" lon="114.04487575078228"><ele>16.5</ele><time>2026-04-17T08:16:37Z</time></trkpt><trkpt lat="-24.092352171916886" lon="114.04479943446835"><ele>16.0</ele><time>2026-04-17T08:16:38Z</time></trkpt><trkpt lat="-24.092056760395582" lon="114.04472084603191"><ele>16.0</ele><time>2026-04-17T08:16:39Z</time></trkpt><trkpt lat="-24.091758691531222" lon="114.04464007253786"><ele>16.0</ele><time>2026-04-17T08:16:40Z</time></trkpt><trkpt lat="-24.09146084084661" lon="114.0445628585509"><ele>16.0</ele><time>2026-04-17T08:16:41Z</time></trkpt><trkpt lat="-24.091162243556642" lon="114.04448626778128"><ele>16.0</ele><time>2026-04-17T08:16:42Z</time></trkpt><trkpt lat="-24.09085954633115" lon="114.04440573903345"><ele>15.5</ele><time>2026-04-17T08:16:43Z</time></trkpt><trkpt lat="-24.090556986444454" lon="114.04432326649818"><ele>15.0</ele><time>2026-04-17T08:16:44Z</time></trkpt><trkpt lat="-24.09025419272084" lon="114.04424283482196"><ele>15.0</ele><time>2026-04-17T08:16:45Z</time></trkpt><trkpt lat="-24.089954430183763" lon="114.04416361268265"><ele>15.0</ele><time>2026-04-17T08:16:46Z</time></trkpt><trkpt lat="-24.08965305092923" lon="114.04408393502173"><ele>15.0</ele><time>2026-04-17T08:16:47Z</time></trkpt><trkpt lat="-24.089352913872975" lon="114.04400476070518"><ele>15.0</ele><time>2026-04-17T08:16:48Z</time></trkpt><trkpt lat="-24.089053042878295" lon="114.04392773297013"><ele>15.0</ele><time>2026-04-17T08:16:49Z</time></trkpt><trkpt lat="-24.088756001984628" lon="114.0438526756227"><ele>15.0</ele><time>2026-04-17T08:16:50Z</time></trkpt><trkpt lat="-24.088458450158424" lon="114.04377911181992"><ele>15.5</ele><time>2026-04-17T08:16:51Z</time></trkpt><trkpt lat="-24.088162055696127" lon="114.0437017603809"><ele>16.0</ele><time>2026-04-17T08:16:52Z</time></trkpt><trkpt lat="-24.087870193129817" lon="114.04362309613265"><ele>16.0</ele><time>2026-04-17T08:16:53Z</time></trkpt><trkpt lat="-24.087576992738004" lon="114.0435464212041"><ele>16.0</ele><time>2026-04-17T08:16:54Z</time></trkpt><trkpt lat="-24.087286343119942" lon="114.04347069338007"><ele>16.5</ele><time>2026-04-17T08:16:55Z</time></trkpt><trkpt lat="-24.086996750213338" lon="114.04339645509228"><ele>17.0</ele><time>2026-04-17T08:16:56Z</time></trkpt><trkpt lat="-24.08670645832508" lon="114.04332367401538"><ele>17.5</ele><time>2026-04-17T08:16:57Z</time></trkpt><trkpt lat="-24.086415199386956" lon="114.04325404110236"><ele>18.0</ele><time>2026-04-17T08:16:58Z</time></trkpt><trkpt lat="-24.086118842611114" lon="114.0431917857312"><ele>18.0</ele><time>2026-04-17T08:16:59Z</time></trkpt><trkpt lat="-24.085823115095483" lon="114.0431117362316"><ele>18.0</ele><time>2026-04-17T08:17:00Z</time></trkpt><trkpt lat="-24.08551746629929" lon="114.04308311740557"><ele>17.5</ele><time>2026-04-17T08:17:01Z</time></trkpt><trkpt lat="-24.08521968727184" lon="114.04303179596921"><ele>17.0</ele><time>2026-04-17T08:17:02Z</time></trkpt><trkpt lat="-24.0849217477508" lon="114.04298307023568"><ele>16.0</ele><time>2026-04-17T08:17:03Z</time></trkpt><trkpt lat="-24.084623673616765" lon="114.04293792583036"><ele>15.0</ele><time>2026-04-17T08:17:04Z</time></trkpt><trkpt lat="-24.084328574664166" lon="114.04289328386177"><ele>15.0</ele><time>2026-04-17T08:17:05Z</time></trkpt><trkpt lat="-24.084034790261736" lon="114.04284483657491"><ele>15.0</ele><time>2026-04-17T08:17:06Z</time></trkpt><trkpt lat="-24.08374024870575" lon="114.04279527140746"><ele>15.0</ele><time>2026-04-17T08:17:07Z</time></trkpt><trkpt lat="-24.083445384738006" lon="114.04274838533165"><ele>15.0</ele><time>2026-04-17T08:17:08Z</time></trkpt><trkpt lat="-24.083146556538757" lon="114.04269894088091"><ele>15.0</ele><time>2026-04-17T08:17:09Z</time></trkpt><trkpt lat="-24.082848754803333" lon="114.04264853023416"><ele>15.0</ele><time>2026-04-17T08:17:10Z</time></trkpt><trkpt lat="-24.082551955194113" lon="114.04259888582136"><ele>15.0</ele><time>2026-04-17T08:17:11Z</time></trkpt><trkpt lat="-24.082255743966382" lon="114.04255097773931"><ele>15.0</ele><time>2026-04-17T08:17:12Z</time></trkpt><trkpt lat="-24.081961657621108" lon="114.04250185194994"><ele>15.5</ele><time>2026-04-17T08:17:13Z</time></trkpt><trkpt lat="-24.08166911310821" lon="114.04245310848812"><ele>16.0</ele><time>2026-04-17T08:17:14Z</time></trkpt><trkpt lat="-24.08137940962062" lon="114.042404465643"><ele>16.0</ele><time>2026-04-17T08:17:15Z</time></trkpt><trkpt lat="-24.081091608786473" lon="114.04235934654689"><ele>16.0</ele><time>2026-04-17T08:17:16Z</time></trkpt><trkpt lat="-24.08080759440263" lon="114.0423155967651"><ele>15.5</ele><time>2026-04-17T08:17:17Z</time></trkpt><trkpt lat="-24.080525479019773" lon="114.04227063382706"><ele>15.0</ele><time>2026-04-17T08:17:18Z</time></trkpt><trkpt lat="-24.080246285374137" lon="114.04222507254077"><ele>15.0</ele><time>2026-04-17T08:17:19Z</time></trkpt><trkpt lat="-24.07996856867955" lon="114.04217971979094"><ele>15.0</ele><time>2026-04-17T08:17:20Z</time></trkpt><trkpt lat="-24.07969259653341" lon="114.04213590236299"><ele>14.0</ele><time>2026-04-17T08:17:21Z</time></trkpt><trkpt lat="-24.07941854767983" lon="114.04209205461655"><ele>13.0</ele><time>2026-04-17T08:17:22Z</time></trkpt><trkpt lat="-24.07914359020335" lon="114.04204868520387"><ele>13.0</ele><time>2026-04-17T08:17:23Z</time></trkpt><trkpt lat="-24.078877367530406" lon="114.04200761308658"><ele>13.0</ele><time>2026-04-17T08:17:24Z</time></trkpt><trkpt lat="-24.078609096906312" lon="114.0419637823417"><ele>13.0</ele><time>2026-04-17T08:17:25Z</time></trkpt><trkpt lat="-24.078345779955313" lon="114.04191777351156"><ele>13.0</ele><time>2026-04-17T08:17:26Z</time></trkpt><trkpt lat="-24.078081114572512" lon="114.04187166472018"><ele>13.0</ele><time>2026-04-17T08:17:27Z</time></trkpt><trkpt lat="-24.077817015323447" lon="114.04182735256467"><ele>13.0</ele><time>2026-04-17T08:17:28Z</time></trkpt><trkpt lat="-24.077552210573458" lon="114.04178637928582"><ele>12.5</ele><time>2026-04-17T08:17:29Z</time></trkpt><trkpt lat="-24.07728880700542" lon="114.04174547350506"><ele>12.0</ele><time>2026-04-17T08:17:30Z</time></trkpt><trkpt lat="-24.077024397023596" lon="114.04170359619843"><ele>12.0</ele><time>2026-04-17T08:17:31Z</time></trkpt><trkpt lat="-24.076756596220445" lon="114.04166180322142"><ele>12.0</ele><time>2026-04-17T08:17:32Z</time></trkpt><trkpt lat="-24.07648773419508" lon="114.04161682106891"><ele>12.5</ele><time>2026-04-17T08:17:33Z</time></trkpt><trkpt lat="-24.076216594381915" lon="114.04157389156542"><ele>13.0</ele><time>2026-04-17T08:17:34Z</time></trkpt><trkpt lat="-24.07594372193202" lon="114.04152919216506"><ele>13.0</ele><time>2026-04-17T08:17:35Z</time></trkpt><trkpt lat="-24.075668999200534" lon="114.04148224312203"><ele>13.0</ele><time>2026-04-17T08:17:36Z</time></trkpt><trkpt lat="-24.075390567372725" lon="114.04143620027752"><ele>13.0</ele><time>2026-04-17T08:17:37Z</time></trkpt><trkpt lat="-24.075109712493653" lon="114.04139051426436"><ele>13.0</ele><time>2026-04-17T08:17:38Z</time></trkpt><trkpt lat="-24.074827002680188" lon="114.04134485536909"><ele>13.5</ele><time>2026-04-17T08:17:39Z</time></trkpt><trkpt lat="-24.074545979704794" lon="114.04130108361478"><ele>14.0</ele><time>2026-04-17T08:17:40Z</time></trkpt><trkpt lat="-24.07426564753553" lon="114.04125806592613"><ele>13.5</ele><time>2026-04-17T08:17:41Z</time></trkpt><trkpt lat="-24.07398668968319" lon="114.04121395712079"><ele>13.0</ele><time>2026-04-17T08:17:42Z</time></trkpt><trkpt lat="-24.07370553746334" lon="114.04116680060199"><ele>13.0</ele><time>2026-04-17T08:17:43Z</time></trkpt><trkpt lat="-24.073429271444958" lon="114.04111956849302"><ele>13.0</ele><time>2026-04-17T08:17:44Z</time></trkpt><trkpt lat="-24.073150328086616" lon="114.04107088832453"><ele>13.0</ele><time>2026-04-17T08:17:45Z</time></trkpt><trkpt lat="-24.072872256392948" lon="114.04102080092349"><ele>13.0</ele><time>2026-04-17T08:17:46Z</time></trkpt><trkpt lat="-24.07259399204507" lon="114.04097433365989"><ele>13.0</ele><time>2026-04-17T08:17:47Z</time></trkpt><trkpt lat="-24.07231409615665" lon="114.04093155199382"><ele>13.0</ele><time>2026-04-17T08:17:48Z</time></trkpt><trkpt lat="-24.07203158458995" lon="114.0408905280072"><ele>13.0</ele><time>2026-04-17T08:17:49Z</time></trkpt><trkpt lat="-24.071749251011962" lon="114.04084610403109"><ele>13.0</ele><time>2026-04-17T08:17:50Z</time></trkpt><trkpt lat="-24.071466994691818" lon="114.0407998696062"><ele>13.0</ele><time>2026-04-17T08:17:51Z</time></trkpt><trkpt lat="-24.071183682184003" lon="114.04075476126395"><ele>13.0</ele><time>2026-04-17T08:17:52Z</time></trkpt><trkpt lat="-24.070897488758067" lon="114.04070841691706"><ele>13.0</ele><time>2026-04-17T08:17:53Z</time></trkpt><trkpt lat="-24.070609385641838" lon="114.0406603297714"><ele>13.0</ele><time>2026-04-17T08:17:54Z</time></trkpt><trkpt lat="-24.07032013366814" lon="114.04061088742986"><ele>13.0</ele><time>2026-04-17T08:17:55Z</time></trkpt><trkpt lat="-24.07003016102777" lon="114.04056246106879"><ele>13.0</ele><time>2026-04-17T08:17:56Z</time></trkpt><trkpt lat="-24.06974173937421" lon="114.04051831814988"><ele>26.0</ele><time>2026-04-17T08:17:57Z</time></trkpt><trkpt lat="-24.305458071455725" lon="114.04444584723564"><ele>26.0</ele><time>2026-04-17T08:04:08.999Z</time></trkpt><trkpt lat="-24.305217556832567" lon="114.04458555300316"><ele>26.0</ele><time>2026-04-17T08:04:09.999Z</time></trkpt><trkpt lat="-24.304975607267462" lon="114.04472144343914"><ele>26.0</ele><time>2026-04-17T08:04:10.999Z</time></trkpt><trkpt lat="-24.30473446181784" lon="114.04485440733247"><ele>26.0</ele><time>2026-04-17T08:04:11.999Z</time></trkpt><trkpt lat="-24.304483237021362" lon="114.04498355799991"><ele>24.5</ele><time>2026-04-17T08:04:12.999Z</time></trkpt><trkpt lat="-24.304234767400153" lon="114.04510631226199"><ele>23.0</ele><time>2026-04-17T08:04:13.999Z</time></trkpt><trkpt lat="-24.303979119460415" lon="114.0452186770562"><ele>23.5</ele><time>2026-04-17T08:04:14.999Z</time></trkpt><trkpt lat="-24.30371909352673" lon="114.04532007649985"><ele>24.0</ele><time>2026-04-17T08:04:15.999Z</time></trkpt><trkpt lat="-24.30345261670864" lon="114.04541043338904"><ele>24.0</ele><time>2026-04-17T08:04:16.999Z</time></trkpt><trkpt lat="-24.303179369180945" lon="114.04549012759728"><ele>24.0</ele><time>2026-04-17T08:04:17.999Z</time></trkpt><trkpt lat="-24.302902434186436" lon="114.04556068014216"><ele>24.0</ele><time>2026-04-17T08:04:18.999Z</time></trkpt><trkpt lat="-24.30262000567052" lon="114.04562358690352"><ele>24.0</ele><time>2026-04-17T08:04:19.999Z</time></trkpt><trkpt lat="-24.30233601212121" lon="114.04568010101303"><ele>23.5</ele><time>2026-04-17T08:04:20.999Z</time></trkpt><trkpt lat="-24.30205107349109" lon="114.04572695286757"><ele>23.0</ele><time>2026-04-17T08:04:21.999Z</time></trkpt><trkpt lat="-24.301765955921052" lon="114.04576306883546"><ele>23.0</ele><time>2026-04-17T08:04:22.999Z</time></trkpt><trkpt lat="-24.301483049304636" lon="114.0457857175149"><ele>23.0</ele><time>2026-04-17T08:04:23.999Z</time></trkpt><trkpt lat="-24.301197225205616" lon="114.04579394290413"><ele>22.5</ele><time>2026-04-17T08:04:24.999Z</time></trkpt><trkpt lat="-24.30091353591373" lon="114.04579065186621"><ele>22.0</ele><time>2026-04-17T08:04:25.999Z</time></trkpt><trkpt lat="-24.300626666399687" lon="114.04577653530664"><ele>22.5</ele><time>2026-04-17T08:04:26.999Z</time></trkpt><trkpt lat="-24.300340736531602" lon="114.04575426466371"><ele>23.0</ele><time>2026-04-17T08:04:27.999Z</time></trkpt><trkpt lat="-24.300056857362264" lon="114.04572370645248"><ele>23.0</ele><time>2026-04-17T08:04:28.999Z</time></trkpt><trkpt lat="-24.299773811486187" lon="114.04568302124775"><ele>23.0</ele><time>2026-04-17T08:04:29.999Z</time></trkpt><trkpt lat="-24.299492510067836" lon="114.0456297282856"><ele>22.5</ele><time>2026-04-17T08:04:30.999Z</time></trkpt><trkpt lat="-24.299209458347658" lon="114.0455680516333"><ele>22.0</ele><time>2026-04-17T08:04:31.999Z</time></trkpt><trkpt lat="-24.298925140569732" lon="114.04550467602652"><ele>22.0</ele><time>2026-04-17T08:04:32.999Z</time></trkpt><trkpt lat="-24.298642723607237" lon="114.04544621360112"><ele>22.0</ele><time>2026-04-17T08:04:33.999Z</time></trkpt><trkpt lat="-24.298365279505106" lon="114.04539204265218"><ele>22.0</ele><time>2026-04-17T08:04:34.999Z</time></trkpt><trkpt lat="-24.298105134465892" lon="114.04534472808538"><ele>22.0</ele><time>2026-04-17T08:04:35.999Z</time></trkpt><trkpt lat="-24.2978665253757" lon="114.04529974151461"><ele>22.0</ele><time>2026-04-17T08:04:36.999Z</time></trkpt><trkpt lat="-24.297620168029454" lon="114.04525431303007"><ele>22.0</ele><time>2026-04-17T08:04:37.999Z</time></trkpt><trkpt lat="-24.29736193857099" lon="114.04520693212098"><ele>22.0</ele><time>2026-04-17T08:04:38.999Z</time></trkpt><trkpt lat="-24.29709957321143" lon="114.04515886222079"><ele>22.0</ele><time>2026-04-17T08:04:39.999Z</time></trkpt><trkpt lat="-24.296828210848123" lon="114.04510391217485"><ele>22.0</ele><time>2026-04-17T08:04:40.999Z</time></trkpt><trkpt lat="-24.29655438262109" lon="114.04504800621423"><ele>22.0</ele><time>2026-04-17T08:04:41.999Z</time></trkpt><trkpt lat="-24.296278645437614" lon="114.0449903975166"><ele>22.0</ele><time>2026-04-17T08:04:42.999Z</time></trkpt><trkpt lat="-24.29599989312849" lon="114.04493578292214"><ele>22.0</ele><time>2026-04-17T08:04:43.999Z</time></trkpt><trkpt lat="-24.295717376588815" lon="114.04488130408664"><ele>22.0</ele><time>2026-04-17T08:04:44.999Z</time></trkpt><trkpt lat="-24.295436437883982" lon="114.04482635564881"><ele>22.0</ele><time>2026-04-17T08:04:45.999Z</time></trkpt><trkpt lat="-24.295153074024807" lon="114.04477145099027"><ele>22.0</ele><time>2026-04-17T08:04:46.999Z</time></trkpt><trkpt lat="-24.29486833362171" lon="114.04471818523798"><ele>22.0</ele><time>2026-04-17T08:04:47.999Z</time></trkpt><trkpt lat="-24.294585149404437" lon="114.04466443555995"><ele>22.5</ele><time>2026-04-17T08:04:48.999Z</time></trkpt><trkpt lat="-24.29430389178568" lon="114.04461262721239"><ele>23.0</ele><time>2026-04-17T08:04:49.999Z</time></trkpt><trkpt lat="-24.294021482909073" lon="114.0445619910654"><ele>23.0</ele><time>2026-04-17T08:04:50.999Z</time></trkpt><trkpt lat="-24.29374098700816" lon="114.0445116105059"><ele>23.0</ele><time>2026-04-17T08:04:51.999Z</time></trkpt><trkpt lat="-24.29345895321819" lon="114.04445861637235"><ele>23.0</ele><time>2026-04-17T08:04:52.999Z</time></trkpt><trkpt lat="-24.293178148800894" lon="114.044405194682"><ele>23.0</ele><time>2026-04-17T08:04:53.999Z</time></trkpt><trkpt lat="-24.292896225021263" lon="114.04434840244068"><ele>23.0</ele><time>2026-04-17T08:04:54.999Z</time></trkpt><trkpt lat="-24.292613682228613" lon="114.04429158823604"><ele>23.0</ele><time>2026-04-17T08:04:55.999Z</time></trkpt><trkpt lat="-24.292329319621" lon="114.04423687251108"><ele>23.0</ele><time>2026-04-17T08:04:56.999Z</time></trkpt><trkpt lat="-24.29204661806176" lon="114.04419306903436"><ele>23.0</ele><time>2026-04-17T08:04:57.999Z</time></trkpt><trkpt lat="-24.29176451043912" lon="114.04415537523272"><ele>22.5</ele><time>2026-04-17T08:04:58.999Z</time></trkpt><trkpt lat="-24.29148031881523" lon="114.0441213327848"><ele>22.0</ele><time>2026-04-17T08:04:59.999Z</time></trkpt><trkpt lat="-24.291194789042155" lon="114.04409224809986"><ele>21.0</ele><time>2026-04-17T08:05:00.999Z</time></trkpt><trkpt lat="-24.290910670953796" lon="114.04406844434219"><ele>20.0</ele><time>2026-04-17T08:05:01.999Z</time></trkpt><trkpt lat="-24.290625055501867" lon="114.0440451145645"><ele>20.5</ele><time>2026-04-17T08:05:02.999Z</time></trkpt><trkpt lat="-24.29034059700813" lon="114.04402074509446"><ele>21.0</ele><time>2026-04-17T08:05:03.999Z</time></trkpt><trkpt lat="-24.29005503798443" lon="114.04399370626192"><ele>21.0</ele><time>2026-04-17T08:05:04.999Z</time></trkpt><trkpt lat="-24.289769183402527" lon="114.04396630984525"><ele>21.0</ele><time>2026-04-17T08:05:05.999Z</time></trkpt><trkpt lat="-24.28948251690912" lon="114.04393949587245"><ele>21.0</ele><time>2026-04-17T08:05:06.999Z</time></trkpt><trkpt lat="-24.289199333567197" lon="114.0439143110263"><ele>21.0</ele><time>2026-04-17T08:05:07.999Z</time></trkpt><trkpt lat="-24.2889115286839" lon="114.04388778527643"><ele>21.5</ele><time>2026-04-17T08:05:08.999Z</time></trkpt><trkpt lat="-24.288624583858308" lon="114.0438653409376"><ele>22.0</ele><time>2026-04-17T08:05:09.999Z</time></trkpt><trkpt lat="-24.288335095331536" lon="114.04384298129705"><ele>22.0</ele><time>2026-04-17T08:05:10.999Z</time></trkpt><trkpt lat="-24.2880427981496" lon="114.04381606915604"><ele>22.0</ele><time>2026-04-17T08:05:11.999Z</time></trkpt><trkpt lat="-24.28775119808952" lon="114.04378791725702"><ele>22.0</ele><time>2026-04-17T08:05:12.999Z</time></trkpt><trkpt lat="-24.287460004285116" lon="114.04375938306302"><ele>22.0</ele><time>2026-04-17T08:05:13.999Z</time></trkpt><trkpt lat="-24.287167490915646" lon="114.04373294932772"><ele>21.0</ele><time>2026-04-17T08:05:14.999Z</time></trkpt><trkpt lat="-24.286873989644217" lon="114.04370931448548"><ele>20.0</ele><time>2026-04-17T08:05:15.999Z</time></trkpt><trkpt lat="-24.286579914322665" lon="114.04369364170583"><ele>20.0</ele><time>2026-04-17T08:05:16.999Z</time></trkpt><trkpt lat="-24.28628414380322" lon="114.04368671659518"><ele>20.0</ele><time>2026-04-17T08:05:17.999Z</time></trkpt><trkpt lat="-24.28598740731623" lon="114.04368711893002"><ele>20.0</ele><time>2026-04-17T08:05:18.999Z</time></trkpt><trkpt lat="-24.2856909815853" lon="114.04369236434418"><ele>20.0</ele><time>2026-04-17T08:05:19.999Z</time></trkpt><trkpt lat="-24.285392439721917" lon="114.0437023733231"><ele>20.0</ele><time>2026-04-17T08:05:20.999Z</time></trkpt><trkpt lat="-24.28509164305371" lon="114.04371809894755"><ele>20.0</ele><time>2026-04-17T08:05:21.999Z</time></trkpt><trkpt lat="-24.284789403968986" lon="114.04373265382578"><ele>19.0</ele><time>2026-04-17T08:05:22.999Z</time></trkpt><trkpt lat="-24.284486179937986" lon="114.04374746442474"><ele>18.0</ele><time>2026-04-17T08:05:23.999Z</time></trkpt><trkpt lat="-24.284181004862614" lon="114.04376018243315"><ele>18.0</ele><time>2026-04-17T08:05:24.999Z</time></trkpt><trkpt lat="-24.28387377706999" lon="114.04377308411772"><ele>18.0</ele><time>2026-04-17T08:05:25.999Z</time></trkpt><trkpt lat="-24.283569045756327" lon="114.0437882602479"><ele>18.0</ele><time>2026-04-17T08:05:26.999Z</time></trkpt><trkpt lat="-24.28326579919388" lon="114.04380632399412"><ele>18.0</ele><time>2026-04-17T08:05:27.999Z</time></trkpt><trkpt lat="-24.282964720982463" lon="114.04382476424888"><ele>19.0</ele><time>2026-04-17T08:05:28.999Z</time></trkpt><trkpt lat="-24.282658606583606" lon="114.04384278509062"><ele>20.0</ele><time>2026-04-17T08:05:29.999Z</time></trkpt><trkpt lat="-24.28235914088589" lon="114.04385865208252"><ele>20.5</ele><time>2026-04-17T08:05:30.999Z</time></trkpt><trkpt lat="-24.282060349217407" lon="114.0438737308239"><ele>21.0</ele><time>2026-04-17T08:05:31.999Z</time></trkpt><trkpt lat="-24.28176085422607" lon="114.04388856001782"><ele>21.0</ele><time>2026-04-17T08:05:32.999Z</time></trkpt><trkpt lat="-24.28146439663542" lon="114.04390654893105"><ele>21.0</ele><time>2026-04-17T08:05:33.999Z</time></trkpt><trkpt lat="-24.281168695090603" lon="114.04392581027022"><ele>21.5</ele><time>2026-04-17T08:05:34.999Z</time></trkpt><trkpt lat="-24.28087280401434" lon="114.04394211086037"><ele>22.0</ele><time>2026-04-17T08:05:36Z</time></trkpt><trkpt lat="-24.280572480365613" lon="114.04395738432858"><ele>22.0</ele><time>2026-04-17T08:05:37Z</time></trkpt><trkpt lat="-24.280273945443664" lon="114.04397217735074"><ele>22.0</ele><time>2026-04-17T08:05:38Z</time></trkpt><trkpt lat="-24.27997009724311" lon="114.04398717667317"><ele>21.5</ele><time>2026-04-17T08:05:39Z</time></trkpt><trkpt lat="-24.279668181000567" lon="114.04400098925247"><ele>21.0</ele><time>2026-04-17T08:05:40Z</time></trkpt><trkpt lat="-24.279365381194737" lon="114.04401443793185"><ele>21.0</ele><time>2026-04-17T08:05:41Z</time></trkpt><trkpt lat="-24.27906636240346" lon="114.04403123803348"><ele>21.0</ele><time>2026-04-17T08:05:42Z</time></trkpt><trkpt lat="-24.278760543136983" lon="114.04404778179862"><ele>21.0</ele><time>2026-04-17T08:05:43Z</time></trkpt><trkpt lat="-24.278459965570068" lon="114.04405927211847"><ele>21.0</ele><time>2026-04-17T08:05:44Z</time></trkpt><trkpt lat="-24.27817634414128" lon="114.04406569183044"><ele>21.0</ele><time>2026-04-17T08:05:45Z</time></trkpt><trkpt lat="-24.277909787263958" lon="114.04406902674428"><ele>21.0</ele><time>2026-04-17T08:05:46Z</time></trkpt><trkpt lat="-24.277638588875895" lon="114.04406990807728"><ele>21.0</ele><time>2026-04-17T08:05:47Z</time></trkpt><trkpt lat="-24.27736076163633" lon="114.0440643447571"><ele>21.0</ele><time>2026-04-17T08:05:48Z</time></trkpt><trkpt lat="-24.277079257203717" lon="114.04405020501713"><ele>20.5</ele><time>2026-04-17T08:05:49Z</time></trkpt><trkpt lat="-24.276796937843372" lon="114.04402766636149"><ele>20.0</ele><time>2026-04-17T08:05:50Z</time></trkpt><trkpt lat="-24.276511781701295" lon="114.0439964104428"><ele>21.0</ele><time>2026-04-17T08:05:51Z</time></trkpt><trkpt lat="-24.276226354348612" lon="114.0439607260402"><ele>22.0</ele><time>2026-04-17T08:05:52Z</time></trkpt><trkpt lat="-24.275939676003972" lon="114.04391807681648"><ele>22.0</ele><time>2026-04-17T08:05:53Z</time></trkpt><trkpt lat="-24.27565205461106" lon="114.04386942321929"><ele>22.0</ele><time>2026-04-17T08:05:54Z</time></trkpt><trkpt lat="-24.275368023841892" lon="114.04381047101252"><ele>22.0</ele><time>2026-04-17T08:05:55Z</time></trkpt><trkpt lat="-24.27508226525051" lon="114.04374645938661"><ele>22.0</ele><time>2026-04-17T08:05:56Z</time></trkpt><trkpt lat="-24.274795511012748" lon="114.04367433839046"><ele>21.5</ele><time>2026-04-17T08:05:57Z</time></trkpt><trkpt lat="-24.274510785297437" lon="114.04359521319742"><ele>21.0</ele><time>2026-04-17T08:05:58Z</time></trkpt><trkpt lat="-24.27422950747864" lon="114.04350445949675"><ele>21.0</ele><time>2026-04-17T08:05:59Z</time></trkpt><trkpt lat="-24.273947253867103" lon="114.04340794743426"><ele>21.0</ele><time>2026-04-17T08:06:00Z</time></trkpt><trkpt lat="-24.273666202664483" lon="114.04331136836967"><ele>20.5</ele><time>2026-04-17T08:06:01Z</time></trkpt><trkpt lat="-24.27338570495466" lon="114.0432176730323"><ele>20.0</ele><time>2026-04-17T08:06:02Z</time></trkpt><trkpt lat="-24.273104651012744" lon="114.0431269572331"><ele>20.0</ele><time>2026-04-17T08:06:03Z</time></trkpt><trkpt lat="-24.27282086758205" lon="114.04303791943629"><ele>20.0</ele><time>2026-04-17T08:06:04Z</time></trkpt><trkpt lat="-24.272535286406555" lon="114.04294662345984"><ele>20.0</ele><time>2026-04-17T08:06:05Z</time></trkpt><trkpt lat="-24.27225235855621" lon="114.04285563059405"><ele>20.0</ele><time>2026-04-17T08:06:06Z</time></trkpt><trkpt lat="-24.271966627564975" lon="114.0427631632108"><ele>20.0</ele><time>2026-04-17T08:06:07Z</time></trkpt><trkpt lat="-24.2716798605397" lon="114.04267045699044"><ele>20.0</ele><time>2026-04-17T08:06:08Z</time></trkpt><trkpt lat="-24.271392306825817" lon="114.04257957002211"><ele>20.0</ele><time>2026-04-17T08:06:09Z</time></trkpt><trkpt lat="-24.27110434283509" lon="114.04248800869281"><ele>20.0</ele><time>2026-04-17T08:06:10Z</time></trkpt><trkpt lat="-24.270818191484487" lon="114.04239680682367"><ele>19.0</ele><time>2026-04-17T08:06:11Z</time></trkpt><trkpt lat="-24.270528425571793" lon="114.04230669130997"><ele>18.0</ele><time>2026-04-17T08:06:12Z</time></trkpt><trkpt lat="-24.270241137378964" lon="114.04221429342589"><ele>18.0</ele><time>2026-04-17T08:06:13Z</time></trkpt><trkpt lat="-24.269955200215417" lon="114.0421217723891"><ele>18.0</ele><time>2026-04-17T08:06:14Z</time></trkpt><trkpt lat="-24.269667622853152" lon="114.04203047906385"><ele>18.5</ele><time>2026-04-17T08:06:15Z</time></trkpt><trkpt lat="-24.269379626812178" lon="114.04194238881982"><ele>19.0</ele><time>2026-04-17T08:06:16Z</time></trkpt><trkpt lat="-24.269092571403636" lon="114.04185255813701"><ele>19.0</ele><time>2026-04-17T08:06:17Z</time></trkpt><trkpt lat="-24.268805350070004" lon="114.04176873405247"><ele>19.0</ele><time>2026-04-17T08:06:18Z</time></trkpt><trkpt lat="-24.268515217274793" lon="114.04168778747135"><ele>19.0</ele><time>2026-04-17T08:06:19Z</time></trkpt><trkpt lat="-24.268224357163916" lon="114.04160781261596"><ele>19.0</ele><time>2026-04-17T08:06:20Z</time></trkpt><trkpt lat="-24.267932405815923" lon="114.04153003161223"><ele>19.0</ele><time>2026-04-17T08:06:21Z</time></trkpt><trkpt lat="-24.267644629275896" lon="114.04145559690848"><ele>19.0</ele><time>2026-04-17T08:06:22Z</time></trkpt><trkpt lat="-24.267351506040203" lon="114.04137998681469"><ele>18.5</ele><time>2026-04-17T08:06:23Z</time></trkpt><trkpt lat="-24.267059639685012" lon="114.04130658470086"><ele>18.0</ele><time>2026-04-17T08:06:24Z</time></trkpt><trkpt lat="-24.266768700508564" lon="114.04123387689117"><ele>18.0</ele><time>2026-04-17T08:06:25Z</time></trkpt><trkpt lat="-24.2664792942318" lon="114.04116341519594"><ele>18.0</ele><time>2026-04-17T08:06:26Z</time></trkpt><trkpt lat="-24.266186958135012" lon="114.0410925248401"><ele>18.5</ele><time>2026-04-17T08:06:27Z</time></trkpt><trkpt lat="-24.2658962987361" lon="114.04102286405389"><ele>19.0</ele><time>2026-04-17T08:06:28Z</time></trkpt><trkpt lat="-24.26560901934748" lon="114.0409527053445"><ele>19.5</ele><time>2026-04-17T08:06:29Z</time></trkpt><trkpt lat="-24.265319250233446" lon="114.04088181881079"><ele>20.0</ele><time>2026-04-17T08:06:30Z</time></trkpt><trkpt lat="-24.265026847683757" lon="114.04080803615662"><ele>20.0</ele><time>2026-04-17T08:06:31Z</time></trkpt><trkpt lat="-24.264739202224682" lon="114.04073418501552"><ele>20.0</ele><time>2026-04-17T08:06:32Z</time></trkpt><trkpt lat="-24.264444843204664" lon="114.0406607360165"><ele>20.0</ele><time>2026-04-17T08:06:33Z</time></trkpt><trkpt lat="-24.2641550499884" lon="114.04058594294128"><ele>20.0</ele><time>2026-04-17T08:06:34Z</time></trkpt><trkpt lat="-24.26386340590692" lon="114.04051174634243"><ele>20.0</ele><time>2026-04-17T08:06:35Z</time></trkpt><trkpt lat="-24.263571776596066" lon="114.04043836047397"><ele>20.0</ele><time>2026-04-17T08:06:36Z</time></trkpt><trkpt lat="-24.26328222503928" lon="114.04036458069677"><ele>20.0</ele><time>2026-04-17T08:06:37Z</time></trkpt><trkpt lat="-24.262991107100113" lon="114.04028927548647"><ele>20.0</ele><time>2026-04-17T08:06:38Z</time></trkpt><trkpt lat="-24.262700070851093" lon="114.04021445847648"><ele>20.0</ele><time>2026-04-17T08:06:39Z</time></trkpt><trkpt lat="-24.26241030937195" lon="114.04014229191088"><ele>20.0</ele><time>2026-04-17T08:06:40Z</time></trkpt><trkpt lat="-24.262123856940843" lon="114.04007184255869"><ele>20.0</ele><time>2026-04-17T08:06:41Z</time></trkpt><trkpt lat="-24.261835819957952" lon="114.04000082847628"><ele>20.0</ele><time>2026-04-17T08:06:42Z</time></trkpt><trkpt lat="-24.26154740822504" lon="114.03992825734244"><ele>20.0</ele><time>2026-04-17T08:06:43Z</time></trkpt><trkpt lat="-24.261258489653198" lon="114.03985756633276"><ele>20.0</ele><time>2026-04-17T08:06:44Z</time></trkpt><trkpt lat="-24.26096710876918" lon="114.03978571416839"><ele>20.0</ele><time>2026-04-17T08:06:45Z</time></trkpt><trkpt lat="-24.260679414881203" lon="114.0397164408168"><ele>20.0</ele><time>2026-04-17T08:06:46Z</time></trkpt><trkpt lat="-24.260388596516883" lon="114.03964457942085"><ele>20.5</ele><time>2026-04-17T08:06:47Z</time></trkpt><trkpt lat="-24.26009955467586" lon="114.03957166791737"><ele>21.0</ele><time>2026-04-17T08:06:48Z</time></trkpt><trkpt lat="-24.259808973473433" lon="114.03949651890032"><ele>21.0</ele><time>2026-04-17T08:06:49Z</time></trkpt><trkpt lat="-24.259518689851124" lon="114.03941886096132"><ele>21.0</ele><time>2026-04-17T08:06:50Z</time></trkpt><trkpt lat="-24.25922835354351" lon="114.03934159541424"><ele>20.5</ele><time>2026-04-17T08:06:51Z</time></trkpt><trkpt lat="-24.25893745719534" lon="114.03926671094415"><ele>20.0</ele><time>2026-04-17T08:06:52Z</time></trkpt><trkpt lat="-24.25864702336907" lon="114.03919557075459"><ele>20.0</ele><time>2026-04-17T08:06:53Z</time></trkpt><trkpt lat="-24.25835780112688" lon="114.03912723816516"><ele>20.0</ele><time>2026-04-17T08:06:54Z</time></trkpt><trkpt lat="-24.258067499987842" lon="114.03905769706738"><ele>20.0</ele><time>2026-04-17T08:06:55Z</time></trkpt><trkpt lat="-24.257781923480238" lon="114.03898594086718"><ele>20.0</ele><time>2026-04-17T08:06:56Z</time></trkpt><trkpt lat="-24.25749844926917" lon="114.03891155341293"><ele>20.0</ele><time>2026-04-17T08:06:57Z</time></trkpt><trkpt lat="-24.257217693274917" lon="114.03883833771198"><ele>20.0</ele><time>2026-04-17T08:06:58Z</time></trkpt><trkpt lat="-24.256936691978865" lon="114.03876139704998"><ele>20.0</ele><time>2026-04-17T08:06:59Z</time></trkpt><trkpt lat="-24.256665143304957" lon="114.03868584619113"><ele>20.0</ele><time>2026-04-17T08:07:00Z</time></trkpt><trkpt lat="-24.256411618500575" lon="114.03861714977464"><ele>20.5</ele><time>2026-04-17T08:07:01Z</time></trkpt><trkpt lat="-24.25617492124393" lon="114.03855377053843"><ele>21.0</ele><time>2026-04-17T08:07:02Z</time></trkpt><trkpt lat="-24.25594038005514" lon="114.03849060567534"><ele>21.0</ele><time>2026-04-17T08:07:03Z</time></trkpt><trkpt lat="-24.255688313305022" lon="114.0384234335939"><ele>21.0</ele><time>2026-04-17T08:07:04Z</time></trkpt><trkpt lat="-24.25541998549518" lon="114.03835468359861"><ele>22.0</ele><time>2026-04-17T08:07:05Z</time></trkpt><trkpt lat="-24.25514574632087" lon="114.03828475824821"><ele>23.0</ele><time>2026-04-17T08:07:06Z</time></trkpt><trkpt lat="-24.254867591875456" lon="114.03821365682772"><ele>23.0</ele><time>2026-04-17T08:07:07Z</time></trkpt><trkpt lat="-24.254586112227855" lon="114.03814104961498"><ele>23.0</ele><time>2026-04-17T08:07:08Z</time></trkpt><trkpt lat="-24.254302649624545" lon="114.03806680428163"><ele>23.0</ele><time>2026-04-17T08:07:09Z</time></trkpt><trkpt lat="-24.254020208911257" lon="114.03799391866995"><ele>23.0</ele><time>2026-04-17T08:07:10Z</time></trkpt><trkpt lat="-24.253736014237337" lon="114.03791984775573"><ele>22.0</ele><time>2026-04-17T08:07:11Z</time></trkpt><trkpt lat="-24.253450427807515" lon="114.03784564927365"><ele>21.0</ele><time>2026-04-17T08:07:12Z</time></trkpt><trkpt lat="-24.253165259914233" lon="114.03776970765792"><ele>21.0</ele><time>2026-04-17T08:07:13Z</time></trkpt><trkpt lat="-24.252880778033255" lon="114.03769339909455"><ele>21.0</ele><time>2026-04-17T08:07:14Z</time></trkpt><trkpt lat="-24.252594879053976" lon="114.03761424130165"><ele>21.0</ele><time>2026-04-17T08:07:15Z</time></trkpt><trkpt lat="-24.252305752866327" lon="114.03753471953637"><ele>21.0</ele><time>2026-04-17T08:07:16Z</time></trkpt><trkpt lat="-24.252017181913185" lon="114.03745751367501"><ele>20.5</ele><time>2026-04-17T08:07:17Z</time></trkpt><trkpt lat="-24.251731109606826" lon="114.03738338382564"><ele>20.0</ele><time>2026-04-17T08:07:18Z</time></trkpt><trkpt lat="-24.25144466445505" lon="114.03730929021326"><ele>20.0</ele><time>2026-04-17T08:07:19Z</time></trkpt><trkpt lat="-24.25115670459975" lon="114.0372345214189"><ele>20.0</ele><time>2026-04-17T08:07:20Z</time></trkpt><trkpt lat="-24.250870261237132" lon="114.03716093511746"><ele>20.0</ele><time>2026-04-17T08:07:21Z</time></trkpt><trkpt lat="-24.250584911319443" lon="114.0370876828565"><ele>20.0</ele><time>2026-04-17T08:07:22Z</time></trkpt><trkpt lat="-24.25029964319699" lon="114.03701410379881"><ele>20.0</ele><time>2026-04-17T08:07:23Z</time></trkpt><trkpt lat="-24.25001735543492" lon="114.0369409575485"><ele>20.0</ele><time>2026-04-17T08:07:24Z</time></trkpt><trkpt lat="-24.24973526635358" lon="114.03686609811874"><ele>19.5</ele><time>2026-04-17T08:07:25Z</time></trkpt><trkpt lat="-24.24945097312402" lon="114.03678885005968"><ele>19.0</ele><time>2026-04-17T08:07:26Z</time></trkpt><trkpt lat="-24.24916824837814" lon="114.03670837228266"><ele>20.5</ele><time>2026-04-17T08:07:27Z</time></trkpt><trkpt lat="-24.24888304756105" lon="114.03662643076997"><ele>22.0</ele><time>2026-04-17T08:07:28Z</time></trkpt><trkpt lat="-24.24859654137038" lon="114.03654616378826"><ele>22.0</ele><time>2026-04-17T08:07:29Z</time></trkpt><trkpt lat="-24.248310331750915" lon="114.03647185862631"><ele>22.0</ele><time>2026-04-17T08:07:30Z</time></trkpt><trkpt lat="-24.248024572980675" lon="114.03640072878427"><ele>22.0</ele><time>2026-04-17T08:07:31Z</time></trkpt><trkpt lat="-24.247738574869967" lon="114.0363305773775"><ele>22.0</ele><time>2026-04-17T08:07:32Z</time></trkpt><trkpt lat="-24.24745240785891" lon="114.03626064280384"><ele>21.0</ele><time>2026-04-17T08:07:33Z</time></trkpt><trkpt lat="-24.247170269381282" lon="114.03618874019975"><ele>20.0</ele><time>2026-04-17T08:07:34Z</time></trkpt><trkpt lat="-24.24688691402275" lon="114.0361141114023"><ele>20.0</ele><time>2026-04-17T08:07:35Z</time></trkpt><trkpt lat="-24.246606507503504" lon="114.03603710564101"><ele>20.0</ele><time>2026-04-17T08:07:36.001Z</time></trkpt><trkpt lat="-24.246322881870807" lon="114.03595877437174"><ele>19.5</ele><time>2026-04-17T08:07:37.001Z</time></trkpt><trkpt lat="-24.246038904880855" lon="114.03588412554797"><ele>19.0</ele><time>2026-04-17T08:07:38.001Z</time></trkpt><trkpt lat="-24.24575385442748" lon="114.03581028365392"><ele>21.0</ele><time>2026-04-17T08:07:39.001Z</time></trkpt><trkpt lat="-24.24546896861824" lon="114.03573326931222"><ele>23.0</ele><time>2026-04-17T08:07:40.001Z</time></trkpt><trkpt lat="-24.24518368919253" lon="114.03565493919486"><ele>23.0</ele><time>2026-04-17T08:07:41.001Z</time></trkpt><trkpt lat="-24.244898207388484" lon="114.035578794451"><ele>23.0</ele><time>2026-04-17T08:07:42.001Z</time></trkpt><trkpt lat="-24.244613090615147" lon="114.0355055874494"><ele>21.5</ele><time>2026-04-17T08:07:43.001Z</time></trkpt><trkpt lat="-24.24433028277536" lon="114.03543488606886"><ele>20.0</ele><time>2026-04-17T08:07:44.001Z</time></trkpt><trkpt lat="-24.244046188705486" lon="114.03536143498008"><ele>20.0</ele><time>2026-04-17T08:07:45.001Z</time></trkpt><trkpt lat="-24.243760744662836" lon="114.03528635961582"><ele>20.0</ele><time>2026-04-17T08:07:46.001Z</time></trkpt><trkpt lat="-24.24347503431684" lon="114.03521014261705"><ele>20.0</ele><time>2026-04-17T08:07:47.001Z</time></trkpt><trkpt lat="-24.243188522760576" lon="114.03513232357818"><ele>20.0</ele><time>2026-04-17T08:07:48.001Z</time></trkpt><trkpt lat="-24.24290364232923" lon="114.03505471114106"><ele>20.0</ele><time>2026-04-17T08:07:49.001Z</time></trkpt><trkpt lat="-24.24261814728186" lon="114.03497840838781"><ele>20.0</ele><time>2026-04-17T08:07:50.001Z</time></trkpt><trkpt lat="-24.242331053711435" lon="114.03490143736406"><ele>20.5</ele><time>2026-04-17T08:07:51.001Z</time></trkpt><trkpt lat="-24.242045393694468" lon="114.03482674379431"><ele>21.0</ele><time>2026-04-17T08:07:52Z</time></trkpt><trkpt lat="-24.241763074443302" lon="114.03475505063777"><ele>21.0</ele><time>2026-04-17T08:07:53Z</time></trkpt><trkpt lat="-24.241479330677024" lon="114.0346837111575"><ele>21.0</ele><time>2026-04-17T08:07:54Z</time></trkpt><trkpt lat="-24.241196644912947" lon="114.03461109078584"><ele>21.0</ele><time>2026-04-17T08:07:55Z</time></trkpt><trkpt lat="-24.240913881193816" lon="114.03453396470682"><ele>21.0</ele><time>2026-04-17T08:07:56Z</time></trkpt><trkpt lat="-24.24063120241413" lon="114.0344536948922"><ele>21.0</ele><time>2026-04-17T08:07:57Z</time></trkpt><trkpt lat="-24.24034769792901" lon="114.03437562063608"><ele>21.0</ele><time>2026-04-17T08:07:58Z</time></trkpt><trkpt lat="-24.240065356984147" lon="114.03430088863438"><ele>21.0</ele><time>2026-04-17T08:07:59Z</time></trkpt><trkpt lat="-24.239783827378737" lon="114.03422726406865"><ele>21.0</ele><time>2026-04-17T08:08:00Z</time></trkpt><trkpt lat="-24.239498585582407" lon="114.03415188480409"><ele>22.0</ele><time>2026-04-17T08:08:01Z</time></trkpt><trkpt lat="-24.2392162104696" lon="114.0340775486989"><ele>23.0</ele><time>2026-04-17T08:08:02Z</time></trkpt><trkpt lat="-24.23893100972325" lon="114.03400051067169"><ele>23.0</ele><time>2026-04-17T08:08:03Z</time></trkpt><trkpt lat="-24.238642307286064" lon="114.0339258835583"><ele>23.0</ele><time>2026-04-17T08:08:04Z</time></trkpt><trkpt lat="-24.238352928526453" lon="114.0338523628581"><ele>22.0</ele><time>2026-04-17T08:08:05Z</time></trkpt><trkpt lat="-24.238060293432277" lon="114.03377630498808"><ele>21.0</ele><time>2026-04-17T08:08:06Z</time></trkpt><trkpt lat="-24.237768056806665" lon="114.03369745168906"><ele>21.0</ele><time>2026-04-17T08:08:07Z</time></trkpt><trkpt lat="-24.23747943468492" lon="114.0336201355964"><ele>21.0</ele><time>2026-04-17T08:08:08Z</time></trkpt><trkpt lat="-24.237187609067814" lon="114.03354734970334"><ele>20.0</ele><time>2026-04-17T08:08:09Z</time></trkpt><trkpt lat="-24.236896661331965" lon="114.03348511805468"><ele>19.0</ele><time>2026-04-17T08:08:10Z</time></trkpt><trkpt lat="-24.23660668630185" lon="114.03342818142804"><ele>19.0</ele><time>2026-04-17T08:08:11Z</time></trkpt><trkpt lat="-24.236312677900926" lon="114.03337470374933"><ele>19.0</ele><time>2026-04-17T08:08:12Z</time></trkpt><trkpt lat="-24.23602192033441" lon="114.03333069953801"><ele>19.0</ele><time>2026-04-17T08:08:13Z</time></trkpt><trkpt lat="-24.235727260879596" lon="114.03329156125422"><ele>19.0</ele><time>2026-04-17T08:08:14Z</time></trkpt><trkpt lat="-24.23543538751023" lon="114.03325512327795"><ele>19.0</ele><time>2026-04-17T08:08:15Z</time></trkpt><trkpt lat="-24.23514815758272" lon="114.03321962384663"><ele>19.0</ele><time>2026-04-17T08:08:16Z</time></trkpt><trkpt lat="-24.23485970595342" lon="114.03317772876593"><ele>19.0</ele><time>2026-04-17T08:08:17Z</time></trkpt><trkpt lat="-24.23457032536666" lon="114.03313593738389"><ele>19.0</ele><time>2026-04-17T08:08:18Z</time></trkpt><trkpt lat="-24.234283270418118" lon="114.03309537558383"><ele>19.0</ele><time>2026-04-17T08:08:19Z</time></trkpt><trkpt lat="-24.233993233786354" lon="114.03305425617131"><ele>19.0</ele><time>2026-04-17T08:08:20Z</time></trkpt><trkpt lat="-24.233702450282806" lon="114.03301209208081"><ele>20.0</ele><time>2026-04-17T08:08:21Z</time></trkpt><trkpt lat="-24.23341413102987" lon="114.03296781527327"><ele>21.0</ele><time>2026-04-17T08:08:22Z</time></trkpt><trkpt lat="-24.23312187170113" lon="114.03292446396932"><ele>21.0</ele><time>2026-04-17T08:08:23Z</time></trkpt><trkpt lat="-24.23283333777733" lon="114.03288280522474"><ele>21.0</ele><time>2026-04-17T08:08:24Z</time></trkpt><trkpt lat="-24.232545650973336" lon="114.03284443664856"><ele>21.5</ele><time>2026-04-17T08:08:25Z</time></trkpt><trkpt lat="-24.232259043165122" lon="114.03280932520204"><ele>22.0</ele><time>2026-04-17T08:08:26Z</time></trkpt><trkpt lat="-24.231974691209217" lon="114.03277412105616"><ele>22.0</ele><time>2026-04-17T08:08:27Z</time></trkpt><trkpt lat="-24.23169175084665" lon="114.03273825442925"><ele>22.0</ele><time>2026-04-17T08:08:28Z</time></trkpt><trkpt lat="-24.23141061864427" lon="114.03269927288912"><ele>21.5</ele><time>2026-04-17T08:08:29Z</time></trkpt><trkpt lat="-24.231128971463175" lon="114.0326600580451"><ele>21.0</ele><time>2026-04-17T08:08:30Z</time></trkpt><trkpt lat="-24.23084757743134" lon="114.03261964860522"><ele>20.0</ele><time>2026-04-17T08:08:31Z</time></trkpt><trkpt lat="-24.23056631073157" lon="114.03257882182454"><ele>19.0</ele><time>2026-04-17T08:08:32Z</time></trkpt><trkpt lat="-24.230282913347637" lon="114.03253911123217"><ele>19.0</ele><time>2026-04-17T08:08:33Z</time></trkpt><trkpt lat="-24.229994750699294" lon="114.03249936696578"><ele>19.0</ele><time>2026-04-17T08:08:34Z</time></trkpt><trkpt lat="-24.2297088028023" lon="114.03246121860089"><ele>19.5</ele><time>2026-04-17T08:08:35Z</time></trkpt><trkpt lat="-24.22942204081313" lon="114.03242027763335"><ele>20.0</ele><time>2026-04-17T08:08:36Z</time></trkpt><trkpt lat="-24.22913500967535" lon="114.0323749847111"><ele>20.0</ele><time>2026-04-17T08:08:37Z</time></trkpt><trkpt lat="-24.228849081224848" lon="114.03233107406943"><ele>20.0</ele><time>2026-04-17T08:08:38Z</time></trkpt><trkpt lat="-24.228558044545064" lon="114.03228682050333"><ele>20.0</ele><time>2026-04-17T08:08:39Z</time></trkpt><trkpt lat="-24.228272629896356" lon="114.03223294856333"><ele>20.0</ele><time>2026-04-17T08:08:40Z</time></trkpt><trkpt lat="-24.22798860557127" lon="114.0321677092704"><ele>19.5</ele><time>2026-04-17T08:08:41Z</time></trkpt><trkpt lat="-24.22770385272013" lon="114.03209200627938"><ele>19.0</ele><time>2026-04-17T08:08:42Z</time></trkpt><trkpt lat="-24.227422182350757" lon="114.03200557694299"><ele>17.5</ele><time>2026-04-17T08:08:43Z</time></trkpt><trkpt lat="-24.22714250778979" lon="114.03191717048087"><ele>16.0</ele><time>2026-04-17T08:08:44Z</time></trkpt><trkpt lat="-24.22686206151265" lon="114.03182606136707"><ele>16.0</ele><time>2026-04-17T08:08:45Z</time></trkpt><trkpt lat="-24.226587284739146" lon="114.03173365926699"><ele>16.0</ele><time>2026-04-17T08:08:46Z</time></trkpt><trkpt lat="-24.226309930660655" lon="114.03163840186666"><ele>18.5</ele><time>2026-04-17T08:08:47Z</time></trkpt><trkpt lat="-24.226031390565268" lon="114.03154348341877"><ele>21.0</ele><time>2026-04-17T08:08:48Z</time></trkpt><trkpt lat="-24.225752908168324" lon="114.03145186515975"><ele>20.0</ele><time>2026-04-17T08:08:49Z</time></trkpt><trkpt lat="-24.22547157308905" lon="114.03136158959825"><ele>19.0</ele><time>2026-04-17T08:08:50Z</time></trkpt><trkpt lat="-24.225190646329285" lon="114.03127039565203"><ele>19.0</ele><time>2026-04-17T08:08:51Z</time></trkpt><trkpt lat="-24.2249134594409" lon="114.0311774890162"><ele>19.0</ele><time>2026-04-17T08:08:52Z</time></trkpt><trkpt lat="-24.224639847494718" lon="114.0310869756015"><ele>18.0</ele><time>2026-04-17T08:08:53Z</time></trkpt><trkpt lat="-24.224365631730386" lon="114.03099389368242"><ele>17.0</ele><time>2026-04-17T08:08:54Z</time></trkpt><trkpt lat="-24.224094647000506" lon="114.03089984967177"><ele>17.5</ele><time>2026-04-17T08:08:55Z</time></trkpt><trkpt lat="-24.22382051576963" lon="114.0308064735721"><ele>18.0</ele><time>2026-04-17T08:08:56Z</time></trkpt><trkpt lat="-24.223548116353996" lon="114.03071791918423"><ele>18.0</ele><time>2026-04-17T08:08:57Z</time></trkpt><trkpt lat="-24.22327351271838" lon="114.03062935665322"><ele>18.0</ele><time>2026-04-17T08:08:58Z</time></trkpt><trkpt lat="-24.223001511190887" lon="114.03053812008696"><ele>17.5</ele><time>2026-04-17T08:08:59Z</time></trkpt><trkpt lat="-24.222734695103767" lon="114.03044451799802"><ele>17.0</ele><time>2026-04-17T08:09:00Z</time></trkpt><trkpt lat="-24.222468915265125" lon="114.03035560348248"><ele>17.0</ele><time>2026-04-17T08:09:01Z</time></trkpt><trkpt lat="-24.22220076115593" lon="114.03028764211791"><ele>17.0</ele><time>2026-04-17T08:09:02Z</time></trkpt><trkpt lat="-24.221927556167326" lon="114.03023035260763"><ele>17.0</ele><time>2026-04-17T08:09:03Z</time></trkpt><trkpt lat="-24.221652229913644" lon="114.03018900941241"><ele>17.0</ele><time>2026-04-17T08:09:04Z</time></trkpt><trkpt lat="-24.221375383163533" lon="114.03015379963492"><ele>17.0</ele><time>2026-04-17T08:09:05Z</time></trkpt><trkpt lat="-24.22109875554137" lon="114.03012436899944"><ele>17.0</ele><time>2026-04-17T08:09:06Z</time></trkpt><trkpt lat="-24.220816947529432" lon="114.03010341765496"><ele>17.0</ele><time>2026-04-17T08:09:07Z</time></trkpt><trkpt lat="-24.220538591007543" lon="114.03008907503073"><ele>17.0</ele><time>2026-04-17T08:09:08Z</time></trkpt><trkpt lat="-24.22026420186304" lon="114.03008845972265"><ele>17.0</ele><time>2026-04-17T08:09:09Z</time></trkpt><trkpt lat="-24.21998789328445" lon="114.03009471939642"><ele>17.0</ele><time>2026-04-17T08:09:10Z</time></trkpt><trkpt lat="-24.219716504026234" lon="114.03011488868559"><ele>16.5</ele><time>2026-04-17T08:09:11Z</time></trkpt><trkpt lat="-24.21944477793104" lon="114.03014563267037"><ele>16.0</ele><time>2026-04-17T08:09:12Z</time></trkpt><trkpt lat="-24.219174962635662" lon="114.03019108988948"><ele>16.5</ele><time>2026-04-17T08:09:13Z</time></trkpt><trkpt lat="-24.2189071727068" lon="114.03024711426119"><ele>17.0</ele><time>2026-04-17T08:09:14Z</time></trkpt><trkpt lat="-24.21864030423914" lon="114.03030300420141"><ele>17.0</ele><time>2026-04-17T08:09:15Z</time></trkpt><trkpt lat="-24.218372160656166" lon="114.03036147201519"><ele>17.0</ele><time>2026-04-17T08:09:16Z</time></trkpt><trkpt lat="-24.21810670355898" lon="114.03043252336562"><ele>17.0</ele><time>2026-04-17T08:09:17Z</time></trkpt><trkpt lat="-24.21784099337267" lon="114.03050547433787"><ele>17.0</ele><time>2026-04-17T08:09:18Z</time></trkpt><trkpt lat="-24.217579540379436" lon="114.03057492369183"><ele>16.5</ele><time>2026-04-17T08:09:19Z</time></trkpt><trkpt lat="-24.217310540404345" lon="114.03063907976362"><ele>16.0</ele><time>2026-04-17T08:09:20Z</time></trkpt><trkpt lat="-24.217042767841328" lon="114.0307023097205"><ele>16.0</ele><time>2026-04-17T08:09:21Z</time></trkpt><trkpt lat="-24.21677156583149" lon="114.03076777537876"><ele>16.0</ele><time>2026-04-17T08:09:22Z</time></trkpt><trkpt lat="-24.216502870892853" lon="114.03083492295062"><ele>16.5</ele><time>2026-04-17T08:09:23Z</time></trkpt><trkpt lat="-24.216236752916213" lon="114.0309018323588"><ele>17.0</ele><time>2026-04-17T08:09:24Z</time></trkpt><trkpt lat="-24.215972699382462" lon="114.03097196015256"><ele>17.0</ele><time>2026-04-17T08:09:25Z</time></trkpt><trkpt lat="-24.21570854816815" lon="114.03104218259419"><ele>17.0</ele><time>2026-04-17T08:09:26Z</time></trkpt><trkpt lat="-24.215443365633885" lon="114.03110657547582"><ele>17.0</ele><time>2026-04-17T08:09:27Z</time></trkpt><trkpt lat="-24.215175825681737" lon="114.03117052788609"><ele>17.0</ele><time>2026-04-17T08:09:28Z</time></trkpt><trkpt lat="-24.214908856112892" lon="114.03123550663256"><ele>17.5</ele><time>2026-04-17T08:09:29Z</time></trkpt><trkpt lat="-24.214639407793335" lon="114.03130165032987"><ele>18.0</ele><time>2026-04-17T08:09:30Z</time></trkpt><trkpt lat="-24.21437067596136" lon="114.03137003498671"><ele>18.0</ele><time>2026-04-17T08:09:31Z</time></trkpt><trkpt lat="-24.2141008014751" lon="114.03143817360107"><ele>18.0</ele><time>2026-04-17T08:09:32Z</time></trkpt><trkpt lat="-24.213829446226075" lon="114.03150467184331"><ele>18.5</ele><time>2026-04-17T08:09:33Z</time></trkpt><trkpt lat="-24.213555657246" lon="114.0315719385324"><ele>19.0</ele><time>2026-04-17T08:09:34Z</time></trkpt><trkpt lat="-24.213280684597404" lon="114.03164008449828"><ele>19.5</ele><time>2026-04-17T08:09:35Z</time></trkpt><trkpt lat="-24.213007884908542" lon="114.03170854151789"><ele>20.0</ele><time>2026-04-17T08:09:36Z</time></trkpt><trkpt lat="-24.21273163218384" lon="114.03177706837612"><ele>20.0</ele><time>2026-04-17T08:09:37Z</time></trkpt><trkpt lat="-24.21245415556743" lon="114.03184548995422"><ele>20.0</ele><time>2026-04-17T08:09:38Z</time></trkpt><trkpt lat="-24.212176606811642" lon="114.03191234203412"><ele>19.5</ele><time>2026-04-17T08:09:39Z</time></trkpt><trkpt lat="-24.21189880234244" lon="114.0319788175531"><ele>19.0</ele><time>2026-04-17T08:09:40Z</time></trkpt><trkpt lat="-24.211618414961993" lon="114.03204453556418"><ele>20.0</ele><time>2026-04-17T08:09:41Z</time></trkpt><trkpt lat="-24.211332978023822" lon="114.0321122268794"><ele>21.0</ele><time>2026-04-17T08:09:42.001Z</time></trkpt><trkpt lat="-24.211050849374008" lon="114.0321845636043"><ele>21.0</ele><time>2026-04-17T08:09:43.001Z</time></trkpt><trkpt lat="-24.21076739750413" lon="114.03225623222325"><ele>21.0</ele><time>2026-04-17T08:09:44.001Z</time></trkpt><trkpt lat="-24.2104879717644" lon="114.03232544820665"><ele>20.5</ele><time>2026-04-17T08:09:45.001Z</time></trkpt><trkpt lat="-24.210211803083173" lon="114.03239495506759"><ele>20.0</ele><time>2026-04-17T08:09:46.001Z</time></trkpt><trkpt lat="-24.20993390976696" lon="114.03246271915694"><ele>19.5</ele><time>2026-04-17T08:09:47.001Z</time></trkpt><trkpt lat="-24.209656864016225" lon="114.03252961071603"><ele>19.0</ele><time>2026-04-17T08:09:48.001Z</time></trkpt><trkpt lat="-24.209381900174346" lon="114.03259409565418"><ele>19.0</ele><time>2026-04-17T08:09:49.001Z</time></trkpt><trkpt lat="-24.20910661474258" lon="114.03266260231118"><ele>19.0</ele><time>2026-04-17T08:09:50.001Z</time></trkpt><trkpt lat="-24.20883358994705" lon="114.03273279895447"><ele>19.0</ele><time>2026-04-17T08:09:51.001Z</time></trkpt><trkpt lat="-24.208563464572805" lon="114.03279852881204"><ele>19.0</ele><time>2026-04-17T08:09:52.001Z</time></trkpt><trkpt lat="-24.20829237134245" lon="114.03286525178694"><ele>18.5</ele><time>2026-04-17T08:09:53.001Z</time></trkpt><trkpt lat="-24.208022566549197" lon="114.03292957457171"><ele>18.0</ele><time>2026-04-17T08:09:54.001Z</time></trkpt><trkpt lat="-24.207754321905465" lon="114.03299959629231"><ele>18.0</ele><time>2026-04-17T08:09:55.001Z</time></trkpt><trkpt lat="-24.20748857344635" lon="114.0330631906103"><ele>18.0</ele><time>2026-04-17T08:09:56.001Z</time></trkpt><trkpt lat="-24.20721950174819" lon="114.03312674892817"><ele>17.5</ele><time>2026-04-17T08:09:57.001Z</time></trkpt><trkpt lat="-24.20695170148737" lon="114.03319436197408"><ele>17.0</ele><time>2026-04-17T08:09:58Z</time></trkpt><trkpt lat="-24.206687482614345" lon="114.03326821118073"><ele>17.5</ele><time>2026-04-17T08:09:59Z</time></trkpt><trkpt lat="-24.206423994259637" lon="114.0333384295811"><ele>18.0</ele><time>2026-04-17T08:10:00Z</time></trkpt><trkpt lat="-24.206154673638242" lon="114.03340190496466"><ele>18.0</ele><time>2026-04-17T08:10:01Z</time></trkpt><trkpt lat="-24.20588279431288" lon="114.03346399652635"><ele>18.0</ele><time>2026-04-17T08:10:02Z</time></trkpt><trkpt lat="-24.205608461883287" lon="114.03353087501341"><ele>18.5</ele><time>2026-04-17T08:10:03Z</time></trkpt><trkpt lat="-24.20533135846409" lon="114.03359881231648"><ele>19.0</ele><time>2026-04-17T08:10:04Z</time></trkpt><trkpt lat="-24.20505551895369" lon="114.03366573150905"><ele>18.5</ele><time>2026-04-17T08:10:05Z</time></trkpt><trkpt lat="-24.20477482646778" lon="114.03373402117833"><ele>18.0</ele><time>2026-04-17T08:10:06Z</time></trkpt><trkpt lat="-24.204495149213585" lon="114.03380263165403"><ele>18.0</ele><time>2026-04-17T08:10:07Z</time></trkpt><trkpt lat="-24.204214871696838" lon="114.033874519819"><ele>18.0</ele><time>2026-04-17T08:10:08Z</time></trkpt><trkpt lat="-24.203932940979314" lon="114.03394582729959"><ele>18.0</ele><time>2026-04-17T08:10:09Z</time></trkpt><trkpt lat="-24.20364756486973" lon="114.034014737781"><ele>18.0</ele><time>2026-04-17T08:10:10Z</time></trkpt><trkpt lat="-24.203363813940804" lon="114.03408206500917"><ele>18.0</ele><time>2026-04-17T08:10:11Z</time></trkpt><trkpt lat="-24.20308029221609" lon="114.03415097300321"><ele>18.0</ele><time>2026-04-17T08:10:12Z</time></trkpt><trkpt lat="-24.202797421291745" lon="114.03422676223093"><ele>18.0</ele><time>2026-04-17T08:10:13Z</time></trkpt><trkpt lat="-24.202509711888737" lon="114.03430265870136"><ele>18.0</ele><time>2026-04-17T08:10:14Z</time></trkpt><trkpt lat="-24.202223971271724" lon="114.03437408939277"><ele>18.0</ele><time>2026-04-17T08:10:15Z</time></trkpt><trkpt lat="-24.201935909238983" lon="114.0344450433453"><ele>18.0</ele><time>2026-04-17T08:10:16Z</time></trkpt><trkpt lat="-24.20164799771275" lon="114.0345143577546"><ele>18.0</ele><time>2026-04-17T08:10:17Z</time></trkpt><trkpt lat="-24.201359398838935" lon="114.03458550978775"><ele>18.0</ele><time>2026-04-17T08:10:18Z</time></trkpt><trkpt lat="-24.201069262567476" lon="114.03465488659127"><ele>18.0</ele><time>2026-04-17T08:10:19Z</time></trkpt><trkpt lat="-24.20077476387083" lon="114.0347260643572"><ele>18.0</ele><time>2026-04-17T08:10:20Z</time></trkpt><trkpt lat="-24.20048600721011" lon="114.03479887399091"><ele>19.0</ele><time>2026-04-17T08:10:21Z</time></trkpt><trkpt lat="-24.200197278167177" lon="114.03487052851531"><ele>20.0</ele><time>2026-04-17T08:10:22Z</time></trkpt><trkpt lat="-24.199908931047382" lon="114.03494110745694"><ele>21.0</ele><time>2026-04-17T08:10:23Z</time></trkpt><trkpt lat="-24.199627097389218" lon="114.03500959111649"><ele>22.0</ele><time>2026-04-17T08:10:24Z</time></trkpt><trkpt lat="-24.199350494389588" lon="114.03507939823314"><ele>22.0</ele><time>2026-04-17T08:10:25Z</time></trkpt><trkpt lat="-24.199073625346227" lon="114.03514891196706"><ele>22.0</ele><time>2026-04-17T08:10:26Z</time></trkpt><trkpt lat="-24.19879862635635" lon="114.03521307850353"><ele>23.0</ele><time>2026-04-17T08:10:27Z</time></trkpt><trkpt lat="-24.198521786683532" lon="114.03527887053825"><ele>24.0</ele><time>2026-04-17T08:10:28Z</time></trkpt><trkpt lat="-24.198247625035908" lon="114.03534671205574"><ele>23.5</ele><time>2026-04-17T08:10:29Z</time></trkpt><trkpt lat="-24.197973924999662" lon="114.03541655937705"><ele>23.0</ele><time>2026-04-17T08:10:30Z</time></trkpt><trkpt lat="-24.197700052505986" lon="114.03548400101992"><ele>23.0</ele><time>2026-04-17T08:10:31Z</time></trkpt><trkpt lat="-24.19742174671502" lon="114.03555335918355"><ele>23.0</ele><time>2026-04-17T08:10:32Z</time></trkpt><trkpt lat="-24.197145807741936" lon="114.03562359546595"><ele>23.5</ele><time>2026-04-17T08:10:33Z</time></trkpt><trkpt lat="-24.19687009909771" lon="114.03569377932861"><ele>24.0</ele><time>2026-04-17T08:10:34Z</time></trkpt><trkpt lat="-24.196593408026313" lon="114.03576132318553"><ele>22.0</ele><time>2026-04-17T08:10:35Z</time></trkpt><trkpt lat="-24.196313502697645" lon="114.03582920555266"><ele>20.0</ele><time>2026-04-17T08:10:36Z</time></trkpt><trkpt lat="-24.196037052222593" lon="114.03589897863765"><ele>20.0</ele><time>2026-04-17T08:10:37Z</time></trkpt><trkpt lat="-24.195758083941453" lon="114.03597027610215"><ele>20.0</ele><time>2026-04-17T08:10:38Z</time></trkpt><trkpt lat="-24.195478715691753" lon="114.036042586824"><ele>19.5</ele><time>2026-04-17T08:10:39Z</time></trkpt><trkpt lat="-24.195198500789555" lon="114.0361125793329"><ele>19.0</ele><time>2026-04-17T08:10:40Z</time></trkpt><trkpt lat="-24.194913706134425" lon="114.03618018693997"><ele>19.0</ele><time>2026-04-17T08:10:41Z</time></trkpt><trkpt lat="-24.194629400416897" lon="114.03624721843316"><ele>19.0</ele><time>2026-04-17T08:10:42Z</time></trkpt><trkpt lat="-24.194347487153767" lon="114.03631534934905"><ele>19.0</ele><time>2026-04-17T08:10:43Z</time></trkpt><trkpt lat="-24.194065996066275" lon="114.0363845993233"><ele>19.0</ele><time>2026-04-17T08:10:44Z</time></trkpt><trkpt lat="-24.193785399140562" lon="114.0364552208297"><ele>17.5</ele><time>2026-04-17T08:10:45Z</time></trkpt><trkpt lat="-24.19350498024937" lon="114.03652688190283"><ele>16.0</ele><time>2026-04-17T08:10:46Z</time></trkpt><trkpt lat="-24.193225271187735" lon="114.03659682909395"><ele>16.0</ele><time>2026-04-17T08:10:47Z</time></trkpt><trkpt lat="-24.192940689055586" lon="114.03666829122727"><ele>16.0</ele><time>2026-04-17T08:10:48Z</time></trkpt><trkpt lat="-24.192657995191592" lon="114.03673728377144"><ele>16.0</ele><time>2026-04-17T08:10:49Z</time></trkpt><trkpt lat="-24.192372620978432" lon="114.03680803681797"><ele>16.0</ele><time>2026-04-17T08:10:50Z</time></trkpt><trkpt lat="-24.192089205695147" lon="114.03688084695618"><ele>16.5</ele><time>2026-04-17T08:10:51Z</time></trkpt><trkpt lat="-24.191803007773917" lon="114.03695380214212"><ele>17.0</ele><time>2026-04-17T08:10:52Z</time></trkpt><trkpt lat="-24.19151361114324" lon="114.03702723607095"><ele>16.5</ele><time>2026-04-17T08:10:53Z</time></trkpt><trkpt lat="-24.19122403854762" lon="114.03709978865476"><ele>16.0</ele><time>2026-04-17T08:10:54Z</time></trkpt><trkpt lat="-24.190934597087505" lon="114.03717202416901"><ele>16.5</ele><time>2026-04-17T08:10:55Z</time></trkpt><trkpt lat="-24.190639922579404" lon="114.03724527352325"><ele>17.0</ele><time>2026-04-17T08:10:56Z</time></trkpt><trkpt lat="-24.190347081382654" lon="114.03731204993703"><ele>17.0</ele><time>2026-04-17T08:10:57Z</time></trkpt><trkpt lat="-24.190055738445654" lon="114.03738075201889"><ele>17.0</ele><time>2026-04-17T08:10:58Z</time></trkpt><trkpt lat="-24.189766143867804" lon="114.03745275819415"><ele>16.5</ele><time>2026-04-17T08:10:59Z</time></trkpt><trkpt lat="-24.189478021484938" lon="114.03752821039896"><ele>16.0</ele><time>2026-04-17T08:11:00Z</time></trkpt><trkpt lat="-24.18918511916081" lon="114.03760009683293"><ele>16.0</ele><time>2026-04-17T08:11:01Z</time></trkpt><trkpt lat="-24.18889194262002" lon="114.03766973332526"><ele>16.0</ele><time>2026-04-17T08:11:02Z</time></trkpt><trkpt lat="-24.188599572309478" lon="114.0377423108596"><ele>16.0</ele><time>2026-04-17T08:11:03Z</time></trkpt><trkpt lat="-24.188310461528445" lon="114.03781195660412"><ele>16.0</ele><time>2026-04-17T08:11:04Z</time></trkpt><trkpt lat="-24.188021552616895" lon="114.03788423763332"><ele>15.5</ele><time>2026-04-17T08:11:05Z</time></trkpt><trkpt lat="-24.18773346212136" lon="114.03795967758042"><ele>15.0</ele><time>2026-04-17T08:11:06Z</time></trkpt><trkpt lat="-24.18744420870441" lon="114.03802971142183"><ele>15.5</ele><time>2026-04-17T08:11:07Z</time></trkpt><trkpt lat="-24.187155800729222" lon="114.03810014445193"><ele>16.0</ele><time>2026-04-17T08:11:08Z</time></trkpt><trkpt lat="-24.186871382965354" lon="114.03817055686575"><ele>16.0</ele><time>2026-04-17T08:11:09Z</time></trkpt><trkpt lat="-24.18658333301898" lon="114.03824287680868"><ele>16.0</ele><time>2026-04-17T08:11:10Z</time></trkpt><trkpt lat="-24.186300592638197" lon="114.03831154644247"><ele>16.5</ele><time>2026-04-17T08:11:11Z</time></trkpt><trkpt lat="-24.186011862543808" lon="114.03838003142346"><ele>17.0</ele><time>2026-04-17T08:11:12Z</time></trkpt><trkpt lat="-24.18572644151283" lon="114.03844879772684"><ele>17.0</ele><time>2026-04-17T08:11:13Z</time></trkpt><trkpt lat="-24.18544009012172" lon="114.03851987074272"><ele>17.0</ele><time>2026-04-17T08:11:14Z</time></trkpt><trkpt lat="-24.185154433223232" lon="114.03859373344662"><ele>17.0</ele><time>2026-04-17T08:11:15Z</time></trkpt><trkpt lat="-24.184868820408727" lon="114.03866789807428"><ele>17.0</ele><time>2026-04-17T08:11:16Z</time></trkpt><trkpt lat="-24.18457933246822" lon="114.03874217683119"><ele>18.5</ele><time>2026-04-17T08:11:17Z</time></trkpt><trkpt lat="-24.184286139818727" lon="114.03881481683482"><ele>20.0</ele><time>2026-04-17T08:11:18Z</time></trkpt><trkpt lat="-24.183997921750702" lon="114.03888481159065"><ele>20.0</ele><time>2026-04-17T08:11:19Z</time></trkpt><trkpt lat="-24.18370999629083" lon="114.03895677694143"><ele>20.0</ele><time>2026-04-17T08:11:20Z</time></trkpt><trkpt lat="-24.183423043749166" lon="114.0390297733497"><ele>19.5</ele><time>2026-04-17T08:11:21Z</time></trkpt><trkpt lat="-24.183131053021253" lon="114.03909955080285"><ele>19.0</ele><time>2026-04-17T08:11:22Z</time></trkpt><trkpt lat="-24.1828375289856" lon="114.03916799679064"><ele>21.0</ele><time>2026-04-17T08:11:23Z</time></trkpt><trkpt lat="-24.18254645822955" lon="114.03923780671332"><ele>23.0</ele><time>2026-04-17T08:11:24Z</time></trkpt><trkpt lat="-24.182255075334997" lon="114.03930960998765"><ele>23.0</ele><time>2026-04-17T08:11:25Z</time></trkpt><trkpt lat="-24.181964636734087" lon="114.03938478113828"><ele>23.0</ele><time>2026-04-17T08:11:26Z</time></trkpt><trkpt lat="-24.181674783889758" lon="114.0394598085213"><ele>22.0</ele><time>2026-04-17T08:11:27Z</time></trkpt><trkpt lat="-24.181386422625803" lon="114.03953386118211"><ele>21.0</ele><time>2026-04-17T08:11:28Z</time></trkpt><trkpt lat="-24.181092750729903" lon="114.0396074238822"><ele>21.0</ele><time>2026-04-17T08:11:29Z</time></trkpt><trkpt lat="-24.180798241985144" lon="114.0396800217997"><ele>21.0</ele><time>2026-04-17T08:11:30Z</time></trkpt><trkpt lat="-24.180503119785325" lon="114.03975280987743"><ele>21.0</ele><time>2026-04-17T08:11:31Z</time></trkpt><trkpt lat="-24.18021172245483" lon="114.03982503250751"><ele>21.0</ele><time>2026-04-17T08:11:32Z</time></trkpt><trkpt lat="-24.179919096595043" lon="114.0398971922011"><ele>20.5</ele><time>2026-04-17T08:11:33Z</time></trkpt><trkpt lat="-24.179627948853298" lon="114.0399686849629"><ele>20.0</ele><time>2026-04-17T08:11:34Z</time></trkpt><trkpt lat="-24.179336886598822" lon="114.04004010945222"><ele>20.0</ele><time>2026-04-17T08:11:35Z</time></trkpt><trkpt lat="-24.179046321990217" lon="114.04011117301519"><ele>20.0</ele><time>2026-04-17T08:11:36Z</time></trkpt><trkpt lat="-24.178751548243774" lon="114.04018224903203"><ele>20.0</ele><time>2026-04-17T08:11:37Z</time></trkpt><trkpt lat="-24.17845369323703" lon="114.04025619555817"><ele>20.0</ele><time>2026-04-17T08:11:38Z</time></trkpt><trkpt lat="-24.178158421633192" lon="114.04033261947325"><ele>20.0</ele><time>2026-04-17T08:11:39Z</time></trkpt><trkpt lat="-24.17786274399748" lon="114.04041314239261"><ele>20.0</ele><time>2026-04-17T08:11:40Z</time></trkpt><trkpt lat="-24.177569092291233" lon="114.04051021787373"><ele>20.5</ele><time>2026-04-17T08:11:41Z</time></trkpt><trkpt lat="-24.177278228944495" lon="114.04062197073128"><ele>21.0</ele><time>2026-04-17T08:11:42Z</time></trkpt><trkpt lat="-24.17699054530984" lon="114.04074979111567"><ele>21.5</ele><time>2026-04-17T08:11:43Z</time></trkpt><trkpt lat="-24.17670888160161" lon="114.04088565351616"><ele>22.0</ele><time>2026-04-17T08:11:44Z</time></trkpt><trkpt lat="-24.176432710060507" lon="114.04103057933392"><ele>22.5</ele><time>2026-04-17T08:11:45Z</time></trkpt><trkpt lat="-24.1761655962083" lon="114.04118884582235"><ele>23.0</ele><time>2026-04-17T08:11:46Z</time></trkpt><trkpt lat="-24.175901122655286" lon="114.04135405670559"><ele>23.5</ele><time>2026-04-17T08:11:47Z</time></trkpt><trkpt lat="-24.17563748636383" lon="114.04152521719017"><ele>24.0</ele><time>2026-04-17T08:11:48Z</time></trkpt><trkpt lat="-24.175378095929766" lon="114.04170123804187"><ele>23.0</ele><time>2026-04-17T08:11:49Z</time></trkpt><trkpt lat="-24.17512017765394" lon="114.04187804404249"><ele>22.0</ele><time>2026-04-17T08:11:50Z</time></trkpt><trkpt lat="-24.17486246079981" lon="114.04205348363493"><ele>22.0</ele><time>2026-04-17T08:11:51Z</time></trkpt><trkpt lat="-24.174607141775155" lon="114.04222606588431"><ele>22.0</ele><time>2026-04-17T08:11:52Z</time></trkpt><trkpt lat="-24.174351596145428" lon="114.04239900007194"><ele>22.0</ele><time>2026-04-17T08:11:53Z</time></trkpt><trkpt lat="-24.174099700282532" lon="114.04257090520535"><ele>22.0</ele><time>2026-04-17T08:11:54Z</time></trkpt><trkpt lat="-24.17384692051375" lon="114.04274255409501"><ele>22.0</ele><time>2026-04-17T08:11:55Z</time></trkpt><trkpt lat="-24.173597698784434" lon="114.04291318083727"><ele>22.0</ele><time>2026-04-17T08:11:56Z</time></trkpt><trkpt lat="-24.173345559047487" lon="114.04308355830129"><ele>22.5</ele><time>2026-04-17T08:11:57Z</time></trkpt><trkpt lat="-24.173093734085654" lon="114.0432518495323"><ele>23.0</ele><time>2026-04-17T08:11:58Z</time></trkpt><trkpt lat="-24.17284022833291" lon="114.0434218097246"><ele>22.5</ele><time>2026-04-17T08:11:59Z</time></trkpt><trkpt lat="-24.172588640569547" lon="114.04359459413284"><ele>22.0</ele><time>2026-04-17T08:12:00Z</time></trkpt><trkpt lat="-24.172335257430348" lon="114.04376961937123"><ele>22.0</ele><time>2026-04-17T08:12:01Z</time></trkpt><trkpt lat="-24.17208190965363" lon="114.04394288365293"><ele>22.0</ele><time>2026-04-17T08:12:02Z</time></trkpt><trkpt lat="-24.171826893712648" lon="114.0441173822622"><ele>22.0</ele><time>2026-04-17T08:12:03Z</time></trkpt><trkpt lat="-24.171572586710912" lon="114.04428905568602"><ele>22.0</ele><time>2026-04-17T08:12:04Z</time></trkpt><trkpt lat="-24.171317682382874" lon="114.0444616196738"><ele>22.5</ele><time>2026-04-17T08:12:05Z</time></trkpt><trkpt lat="-24.17106148326753" lon="114.04463466490395"><ele>23.0</ele><time>2026-04-17T08:12:06Z</time></trkpt><trkpt lat="-24.170805822417552" lon="114.04480722888123"><ele>21.5</ele><time>2026-04-17T08:12:07Z</time></trkpt><trkpt lat="-24.170550063057696" lon="114.04497728619042"><ele>20.0</ele><time>2026-04-17T08:12:08Z</time></trkpt><trkpt lat="-24.170295788192067" lon="114.04514439083856"><ele>20.0</ele><time>2026-04-17T08:12:09Z</time></trkpt><trkpt lat="-24.1700449270812" lon="114.04530978807172"><ele>20.0</ele><time>2026-04-17T08:12:10Z</time></trkpt><trkpt lat="-24.1697975743522" lon="114.04547602854984"><ele>21.5</ele><time>2026-04-17T08:12:11Z</time></trkpt><trkpt lat="-24.16955276091368" lon="114.04564256513666"><ele>23.0</ele><time>2026-04-17T08:12:12Z</time></trkpt><trkpt lat="-24.16931085504151" lon="114.04581133163843"><ele>23.0</ele><time>2026-04-17T08:12:13Z</time></trkpt><trkpt lat="-24.1690650687651" lon="114.04597834262151"><ele>23.0</ele><time>2026-04-17T08:12:14Z</time></trkpt><trkpt lat="-24.16881735929802" lon="114.04614604785301"><ele>22.5</ele><time>2026-04-17T08:12:15Z</time></trkpt><trkpt lat="-24.16856923840421" lon="114.04631727896"><ele>22.0</ele><time>2026-04-17T08:12:16Z</time></trkpt><trkpt lat="-24.16831725508176" lon="114.0464882100349"><ele>22.0</ele><time>2026-04-17T08:12:17Z</time></trkpt><trkpt lat="-24.168063577028637" lon="114.04666072698376"><ele>22.0</ele><time>2026-04-17T08:12:18Z</time></trkpt><trkpt lat="-24.167807611906888" lon="114.04683456984554"><ele>22.0</ele><time>2026-04-17T08:12:19Z</time></trkpt><trkpt lat="-24.16754903821457" lon="114.04700697688132"><ele>22.0</ele><time>2026-04-17T08:12:20Z</time></trkpt><trkpt lat="-24.167290634389133" lon="114.04717939206503"><ele>22.0</ele><time>2026-04-17T08:12:21Z</time></trkpt><trkpt lat="-24.167036733732953" lon="114.04735253216495"><ele>22.0</ele><time>2026-04-17T08:12:22Z</time></trkpt><trkpt lat="-24.166784589436062" lon="114.0475248343866"><ele>22.5</ele><time>2026-04-17T08:12:23Z</time></trkpt><trkpt lat="-24.166533375647365" lon="114.04769466002915"><ele>23.0</ele><time>2026-04-17T08:12:24Z</time></trkpt><trkpt lat="-24.1662851144299" lon="114.04786054876087"><ele>23.0</ele><time>2026-04-17T08:12:25Z</time></trkpt><trkpt lat="-24.16603584387094" lon="114.04802934975156"><ele>23.0</ele><time>2026-04-17T08:12:26Z</time></trkpt><trkpt lat="-24.165788746536478" lon="114.04819837507542"><ele>22.5</ele><time>2026-04-17T08:12:27Z</time></trkpt><trkpt lat="-24.165539947566415" lon="114.04836920681188"><ele>22.0</ele><time>2026-04-17T08:12:28Z</time></trkpt><trkpt lat="-24.165290068250258" lon="114.04853800000072"><ele>22.0</ele><time>2026-04-17T08:12:29Z</time></trkpt><trkpt lat="-24.165039164287034" lon="114.04870853378918"><ele>22.0</ele><time>2026-04-17T08:12:30Z</time></trkpt><trkpt lat="-24.164787722367517" lon="114.04887965250296"><ele>22.5</ele><time>2026-04-17T08:12:31Z</time></trkpt><trkpt lat="-24.164533487168363" lon="114.04905317240204"><ele>23.0</ele><time>2026-04-17T08:12:32Z</time></trkpt><trkpt lat="-24.164279300497846" lon="114.04922477264492"><ele>22.5</ele><time>2026-04-17T08:12:33Z</time></trkpt><trkpt lat="-24.16402640195728" lon="114.04939253248018"><ele>22.0</ele><time>2026-04-17T08:12:34Z</time></trkpt><trkpt lat="-24.163772384870345" lon="114.0495556653934"><ele>22.0</ele><time>2026-04-17T08:12:35Z</time></trkpt><trkpt lat="-24.16351371993721" lon="114.04970873814975"><ele>22.0</ele><time>2026-04-17T08:12:36Z</time></trkpt><trkpt lat="-24.16325059402892" lon="114.04985792563305"><ele>22.0</ele><time>2026-04-17T08:12:37Z</time></trkpt><trkpt lat="-24.162985318750014" lon="114.04999757931019"><ele>22.0</ele><time>2026-04-17T08:12:38Z</time></trkpt><trkpt lat="-24.162711416557244" lon="114.05012521685185"><ele>22.0</ele><time>2026-04-17T08:12:39Z</time></trkpt><trkpt lat="-24.162433789902185" lon="114.05023795789866"><ele>22.0</ele><time>2026-04-17T08:12:40Z</time></trkpt><trkpt lat="-24.162155044986747" lon="114.05034385665863"><ele>22.0</ele><time>2026-04-17T08:12:41Z</time></trkpt><trkpt lat="-24.161872913056577" lon="114.05044021292325"><ele>22.0</ele><time>2026-04-17T08:12:42Z</time></trkpt><trkpt lat="-24.16159111738286" lon="114.05051998088454"><ele>22.5</ele><time>2026-04-17T08:12:43Z</time></trkpt><trkpt lat="-24.161302712340245" lon="114.05059090725065"><ele>23.0</ele><time>2026-04-17T08:12:44Z</time></trkpt><trkpt lat="-24.16101384444038" lon="114.05065068443203"><ele>23.0</ele><time>2026-04-17T08:12:45Z</time></trkpt><trkpt lat="-24.160722813640263" lon="114.05069980258914"><ele>23.0</ele><time>2026-04-17T08:12:46Z</time></trkpt><trkpt lat="-24.160431909001982" lon="114.05073498291354"><ele>24.0</ele><time>2026-04-17T08:12:47Z</time></trkpt><trkpt lat="-24.160140475335457" lon="114.05076062893514"><ele>25.0</ele><time>2026-04-17T08:12:48Z</time></trkpt><trkpt lat="-24.159852390366634" lon="114.05077668316942"><ele>25.0</ele><time>2026-04-17T08:12:49Z</time></trkpt><trkpt lat="-24.159561862240352" lon="114.050783374242"><ele>25.0</ele><time>2026-04-17T08:12:50Z</time></trkpt><trkpt lat="-24.159271763520223" lon="114.05077755525808"><ele>25.0</ele><time>2026-04-17T08:12:51Z</time></trkpt><trkpt lat="-24.158984387348656" lon="114.05075805914919"><ele>25.0</ele><time>2026-04-17T08:12:52Z</time></trkpt><trkpt lat="-24.1586949042595" lon="114.05072798391701"><ele>25.0</ele><time>2026-04-17T08:12:53Z</time></trkpt><trkpt lat="-24.158407036914795" lon="114.05069422257398"><ele>25.0</ele><time>2026-04-17T08:12:54Z</time></trkpt><trkpt lat="-24.1581158128242" lon="114.05066032810504"><ele>24.5</ele><time>2026-04-17T08:12:55Z</time></trkpt><trkpt lat="-24.15782785474122" lon="114.05063340110893"><ele>24.0</ele><time>2026-04-17T08:12:56Z</time></trkpt><trkpt lat="-24.15753601676634" lon="114.05060963046347"><ele>24.0</ele><time>2026-04-17T08:12:57Z</time></trkpt><trkpt lat="-24.1572484807647" lon="114.05058671098132"><ele>24.0</ele><time>2026-04-17T08:12:58Z</time></trkpt><trkpt lat="-24.156958833462458" lon="114.05056347384203"><ele>24.0</ele><time>2026-04-17T08:12:59Z</time></trkpt><trkpt lat="-24.156670271609272" lon="114.05053730954798"><ele>24.0</ele><time>2026-04-17T08:13:00Z</time></trkpt><trkpt lat="-24.156382976501558" lon="114.0505116484105"><ele>23.5</ele><time>2026-04-17T08:13:01Z</time></trkpt><trkpt lat="-24.156097159694074" lon="114.05048722515791"><ele>23.0</ele><time>2026-04-17T08:13:02Z</time></trkpt><trkpt lat="-24.15581287360062" lon="114.05046212493927"><ele>22.0</ele><time>2026-04-17T08:13:03Z</time></trkpt><trkpt lat="-24.15552954180646" lon="114.05043880571078"><ele>21.0</ele><time>2026-04-17T08:13:04Z</time></trkpt><trkpt lat="-24.15524142395023" lon="114.05041695591963"><ele>21.0</ele><time>2026-04-17T08:13:05Z</time></trkpt><trkpt lat="-24.15495345486705" lon="114.05039365150144"><ele>21.0</ele><time>2026-04-17T08:13:06Z</time></trkpt><trkpt lat="-24.15466706605217" lon="114.05037215417563"><ele>21.0</ele><time>2026-04-17T08:13:07Z</time></trkpt><trkpt lat="-24.154382244444772" lon="114.05035196032242"><ele>21.0</ele><time>2026-04-17T08:13:08Z</time></trkpt><trkpt lat="-24.154099819438752" lon="114.05033849685287"><ele>21.5</ele><time>2026-04-17T08:13:09Z</time></trkpt><trkpt lat="-24.15381437047314" lon="114.05033042011287"><ele>22.0</ele><time>2026-04-17T08:13:10Z</time></trkpt><trkpt lat="-24.15352823962622" lon="114.05032581444114"><ele>22.0</ele><time>2026-04-17T08:13:11Z</time></trkpt><trkpt lat="-24.15324363971251" lon="114.05032283143578"><ele>22.0</ele><time>2026-04-17T08:13:12Z</time></trkpt><trkpt lat="-24.15295948810702" lon="114.05031823716529"><ele>21.5</ele><time>2026-04-17T08:13:13Z</time></trkpt><trkpt lat="-24.15267578646718" lon="114.05031413878072"><ele>21.0</ele><time>2026-04-17T08:13:14Z</time></trkpt><trkpt lat="-24.152397422505338" lon="114.05031284702817"><ele>20.0</ele><time>2026-04-17T08:13:15Z</time></trkpt><trkpt lat="-24.15211689258019" lon="114.05030917503157"><ele>19.0</ele><time>2026-04-17T08:13:16Z</time></trkpt><trkpt lat="-24.151836642405588" lon="114.05030403198592"><ele>19.0</ele><time>2026-04-17T08:13:17Z</time></trkpt><trkpt lat="-24.15155351512378" lon="114.05029945219879"><ele>19.0</ele><time>2026-04-17T08:13:18Z</time></trkpt><trkpt lat="-24.15127596497239" lon="114.0502971256439"><ele>19.5</ele><time>2026-04-17T08:13:19Z</time></trkpt><trkpt lat="-24.15099285573821" lon="114.05029756036434"><ele>20.0</ele><time>2026-04-17T08:13:20Z</time></trkpt><trkpt lat="-24.150709358475353" lon="114.05029718779372"><ele>20.0</ele><time>2026-04-17T08:13:21Z</time></trkpt><trkpt lat="-24.150426111156616" lon="114.05029345114389"><ele>20.0</ele><time>2026-04-17T08:13:22Z</time></trkpt><trkpt lat="-24.150142747616545" lon="114.05029085499378"><ele>19.0</ele><time>2026-04-17T08:13:23Z</time></trkpt><trkpt lat="-24.14985699693927" lon="114.05028710838239"><ele>18.0</ele><time>2026-04-17T08:13:24Z</time></trkpt><trkpt lat="-24.14956982634996" lon="114.05028254441713"><ele>18.0</ele><time>2026-04-17T08:13:25Z</time></trkpt><trkpt lat="-24.149283357943723" lon="114.05027840247985"><ele>18.0</ele><time>2026-04-17T08:13:26Z</time></trkpt><trkpt lat="-24.148996036976182" lon="114.05027583179604"><ele>18.0</ele><time>2026-04-17T08:13:27Z</time></trkpt><trkpt lat="-24.148710190224826" lon="114.05027543031356"><ele>18.0</ele><time>2026-04-17T08:13:28Z</time></trkpt><trkpt lat="-24.148439452712612" lon="114.05027538477921"><ele>19.0</ele><time>2026-04-17T08:13:29Z</time></trkpt><trkpt lat="-24.148179465812365" lon="114.05027114434385"><ele>20.0</ele><time>2026-04-17T08:13:30Z</time></trkpt><trkpt lat="-24.147922057737066" lon="114.05026606278402"><ele>20.0</ele><time>2026-04-17T08:13:31Z</time></trkpt><trkpt lat="-24.147659004636346" lon="114.05026224301506"><ele>20.0</ele><time>2026-04-17T08:13:32Z</time></trkpt><trkpt lat="-24.147399152256746" lon="114.05025863698016"><ele>19.0</ele><time>2026-04-17T08:13:33Z</time></trkpt><trkpt lat="-24.14713882435906" lon="114.05025472990262"><ele>18.0</ele><time>2026-04-17T08:13:34Z</time></trkpt><trkpt lat="-24.146881199595224" lon="114.05025210223398"><ele>18.0</ele><time>2026-04-17T08:13:35Z</time></trkpt><trkpt lat="-24.14662085929864" lon="114.05024901385589"><ele>18.0</ele><time>2026-04-17T08:13:36Z</time></trkpt><trkpt lat="-24.14635577285385" lon="114.05024796263653"><ele>19.0</ele><time>2026-04-17T08:13:37Z</time></trkpt><trkpt lat="-24.146086814820393" lon="114.05024717953019"><ele>20.0</ele><time>2026-04-17T08:13:38Z</time></trkpt><trkpt lat="-24.145819336059294" lon="114.05024353103082"><ele>20.0</ele><time>2026-04-17T08:13:39Z</time></trkpt><trkpt lat="-24.145550110609253" lon="114.0502388780698"><ele>20.0</ele><time>2026-04-17T08:13:40Z</time></trkpt><trkpt lat="-24.145280276634587" lon="114.0502319330129"><ele>20.0</ele><time>2026-04-17T08:13:41Z</time></trkpt><trkpt lat="-24.145010111489988" lon="114.05022854026197"><ele>20.0</ele><time>2026-04-17T08:13:42Z</time></trkpt><trkpt lat="-24.14473746871561" lon="114.05022542237957"><ele>20.0</ele><time>2026-04-17T08:13:43Z</time></trkpt><trkpt lat="-24.144463636274573" lon="114.0502236810833"><ele>20.0</ele><time>2026-04-17T08:13:44Z</time></trkpt><trkpt lat="-24.14419222229513" lon="114.05022419932133"><ele>20.5</ele><time>2026-04-17T08:13:45Z</time></trkpt><trkpt lat="-24.143919016871333" lon="114.05022447138447"><ele>21.0</ele><time>2026-04-17T08:13:46Z</time></trkpt><trkpt lat="-24.14364684788274" lon="114.05022444189746"><ele>21.0</ele><time>2026-04-17T08:13:47Z</time></trkpt><trkpt lat="-24.143367779369406" lon="114.0502210971959"><ele>21.0</ele><time>2026-04-17T08:13:48Z</time></trkpt><trkpt lat="-24.143086360000513" lon="114.05021997032543"><ele>19.5</ele><time>2026-04-17T08:13:49Z</time></trkpt><trkpt lat="-24.142804760539395" lon="114.05021554677575"><ele>18.0</ele><time>2026-04-17T08:13:50Z</time></trkpt><trkpt lat="-24.142521102513175" lon="114.05020921956275"><ele>19.5</ele><time>2026-04-17T08:13:51Z</time></trkpt><trkpt lat="-24.142236119532136" lon="114.05020328964517"><ele>21.0</ele><time>2026-04-17T08:13:52Z</time></trkpt><trkpt lat="-24.141949777356782" lon="114.05020238374502"><ele>21.0</ele><time>2026-04-17T08:13:53Z</time></trkpt><trkpt lat="-24.14166351950256" lon="114.05020034814784"><ele>21.0</ele><time>2026-04-17T08:13:54Z</time></trkpt><trkpt lat="-24.141377970214503" lon="114.05019713464962"><ele>21.0</ele><time>2026-04-17T08:13:55Z</time></trkpt><trkpt lat="-24.141093852995894" lon="114.0501940285069"><ele>21.0</ele><time>2026-04-17T08:13:56Z</time></trkpt><trkpt lat="-24.140807701120835" lon="114.05018853902274"><ele>20.5</ele><time>2026-04-17T08:13:57Z</time></trkpt><trkpt lat="-24.1405220549878" lon="114.05018681133679"><ele>20.0</ele><time>2026-04-17T08:13:58Z</time></trkpt><trkpt lat="-24.14023911119565" lon="114.05018622144499"><ele>20.0</ele><time>2026-04-17T08:13:59Z</time></trkpt><trkpt lat="-24.139959347626434" lon="114.05018760361605"><ele>20.0</ele><time>2026-04-17T08:14:00Z</time></trkpt><trkpt lat="-24.139678703615118" lon="114.05018577355784"><ele>20.0</ele><time>2026-04-17T08:14:01Z</time></trkpt><trkpt lat="-24.139397508974465" lon="114.0501828578212"><ele>20.0</ele><time>2026-04-17T08:14:02Z</time></trkpt><trkpt lat="-24.139118441660404" lon="114.05017882166811"><ele>20.5</ele><time>2026-04-17T08:14:03Z</time></trkpt><trkpt lat="-24.13883870363635" lon="114.05017369924025"><ele>21.0</ele><time>2026-04-17T08:14:04Z</time></trkpt><trkpt lat="-24.138558488393844" lon="114.05016746174272"><ele>21.0</ele><time>2026-04-17T08:14:05Z</time></trkpt><trkpt lat="-24.138277364157002" lon="114.05016428271013"><ele>21.0</ele><time>2026-04-17T08:14:06Z</time></trkpt><trkpt lat="-24.13799755946006" lon="114.05016399992662"><ele>21.0</ele><time>2026-04-17T08:14:07Z</time></trkpt><trkpt lat="-24.13771375790926" lon="114.05016164853238"><ele>21.0</ele><time>2026-04-17T08:14:08Z</time></trkpt><trkpt lat="-24.137434477128654" lon="114.05015936216067"><ele>20.5</ele><time>2026-04-17T08:14:09Z</time></trkpt><trkpt lat="-24.137156761828457" lon="114.05015768704162"><ele>20.0</ele><time>2026-04-17T08:14:10Z</time></trkpt><trkpt lat="-24.136878922575285" lon="114.0501559859434"><ele>20.0</ele><time>2026-04-17T08:14:11Z</time></trkpt><trkpt lat="-24.136601925335373" lon="114.0501522399636"><ele>20.0</ele><time>2026-04-17T08:14:12Z</time></trkpt><trkpt lat="-24.136321886281426" lon="114.0501472186591"><ele>20.5</ele><time>2026-04-17T08:14:13Z</time></trkpt><trkpt lat="-24.136044292338344" lon="114.05014151092041"><ele>21.0</ele><time>2026-04-17T08:14:14Z</time></trkpt><trkpt lat="-24.13576818854357" lon="114.05014013612426"><ele>21.0</ele><time>2026-04-17T08:14:15Z</time></trkpt><trkpt lat="-24.13548998130903" lon="114.05013406142771"><ele>21.0</ele><time>2026-04-17T08:14:16Z</time></trkpt><trkpt lat="-24.13521380874486" lon="114.05013022389244"><ele>21.0</ele><time>2026-04-17T08:14:17Z</time></trkpt><trkpt lat="-24.13493473007226" lon="114.05012792463167"><ele>21.0</ele><time>2026-04-17T08:14:18Z</time></trkpt><trkpt lat="-24.13465959162336" lon="114.05012788428961"><ele>20.5</ele><time>2026-04-17T08:14:19Z</time></trkpt><trkpt lat="-24.134379215382843" lon="114.05012820466048"><ele>20.0</ele><time>2026-04-17T08:14:20Z</time></trkpt><trkpt lat="-24.134092684688703" lon="114.05012763434704"><ele>19.5</ele><time>2026-04-17T08:14:21Z</time></trkpt><trkpt lat="-24.133802146564406" lon="114.05012720840944"><ele>19.0</ele><time>2026-04-17T08:14:22Z</time></trkpt><trkpt lat="-24.13351743572034" lon="114.05012607321231"><ele>19.0</ele><time>2026-04-17T08:14:23Z</time></trkpt><trkpt lat="-24.133225300174832" lon="114.05012382840535"><ele>19.0</ele><time>2026-04-17T08:14:24Z</time></trkpt><trkpt lat="-24.132923397647527" lon="114.05011783451876"><ele>19.0</ele><time>2026-04-17T08:14:25Z</time></trkpt><trkpt lat="-24.1326117930922" lon="114.05011133967815"><ele>19.0</ele><time>2026-04-17T08:14:26Z</time></trkpt><trkpt lat="-24.13229320389598" lon="114.05010749957644"><ele>19.0</ele><time>2026-04-17T08:14:27Z</time></trkpt><trkpt lat="-24.13197460782455" lon="114.05010440527558"><ele>19.0</ele><time>2026-04-17T08:14:28Z</time></trkpt><trkpt lat="-24.131656235180717" lon="114.05009974652239"><ele>19.0</ele><time>2026-04-17T08:14:29Z</time></trkpt><trkpt lat="-24.131338286538274" lon="114.05009349344387"><ele>19.0</ele><time>2026-04-17T08:14:30Z</time></trkpt><trkpt lat="-24.131020842373893" lon="114.05008982042527"><ele>19.5</ele><time>2026-04-17T08:14:31Z</time></trkpt><trkpt lat="-24.130704272395477" lon="114.05008788568853"><ele>20.0</ele><time>2026-04-17T08:14:32Z</time></trkpt><trkpt lat="-24.13038740807494" lon="114.05008485615423"><ele>20.0</ele><time>2026-04-17T08:14:33Z</time></trkpt><trkpt lat="-24.130071974530335" lon="114.0500827434021"><ele>20.0</ele><time>2026-04-17T08:14:34Z</time></trkpt><trkpt lat="-24.129758639518517" lon="114.05008034774845"><ele>20.0</ele><time>2026-04-17T08:14:35Z</time></trkpt><trkpt lat="-24.12944508762345" lon="114.05007762637361"><ele>20.0</ele><time>2026-04-17T08:14:36Z</time></trkpt><trkpt lat="-24.12912741130346" lon="114.05007637377672"><ele>19.0</ele><time>2026-04-17T08:14:37Z</time></trkpt><trkpt lat="-24.128810184236762" lon="114.05007319748182"><ele>18.0</ele><time>2026-04-17T08:14:38Z</time></trkpt><trkpt lat="-24.128490257161136" lon="114.05006961205926"><ele>19.5</ele><time>2026-04-17T08:14:39Z</time></trkpt><trkpt lat="-24.128171108042494" lon="114.05006586272799"><ele>21.0</ele><time>2026-04-17T08:14:40Z</time></trkpt><trkpt lat="-24.12784644813906" lon="114.05006428839853"><ele>21.0</ele><time>2026-04-17T08:14:41Z</time></trkpt><trkpt lat="-24.127524615819006" lon="114.05005880756302"><ele>21.0</ele><time>2026-04-17T08:14:42Z</time></trkpt><trkpt lat="-24.12720476074502" lon="114.05005407981656"><ele>20.5</ele><time>2026-04-17T08:14:43Z</time></trkpt><trkpt lat="-24.12688358661309" lon="114.05005045493088"><ele>20.0</ele><time>2026-04-17T08:14:44Z</time></trkpt><trkpt lat="-24.126564748184144" lon="114.05004770828876"><ele>19.5</ele><time>2026-04-17T08:14:45Z</time></trkpt><trkpt lat="-24.126248566770844" lon="114.05004561437168"><ele>19.0</ele><time>2026-04-17T08:14:46Z</time></trkpt><trkpt lat="-24.125929151637965" lon="114.05004573726443"><ele>18.5</ele><time>2026-04-17T08:14:47Z</time></trkpt><trkpt lat="-24.125613446709213" lon="114.05004320552428"><ele>18.0</ele><time>2026-04-17T08:14:48Z</time></trkpt><trkpt lat="-24.125299153787484" lon="114.05004104629657"><ele>18.0</ele><time>2026-04-17T08:14:49Z</time></trkpt><trkpt lat="-24.12498543022621" lon="114.05003897430343"><ele>18.0</ele><time>2026-04-17T08:14:50Z</time></trkpt><trkpt lat="-24.1246771032206" lon="114.05003700267984"><ele>18.5</ele><time>2026-04-17T08:14:51Z</time></trkpt><trkpt lat="-24.124371190206414" lon="114.05003709443272"><ele>19.0</ele><time>2026-04-17T08:14:52Z</time></trkpt><trkpt lat="-24.124063117488095" lon="114.05003681581763"><ele>19.0</ele><time>2026-04-17T08:14:53Z</time></trkpt><trkpt lat="-24.12375522164139" lon="114.05003289339193"><ele>19.0</ele><time>2026-04-17T08:14:54Z</time></trkpt><trkpt lat="-24.123444102938162" lon="114.05002602385507"><ele>19.0</ele><time>2026-04-17T08:14:55Z</time></trkpt><trkpt lat="-24.123133869197115" lon="114.05002088697697"><ele>19.0</ele><time>2026-04-17T08:14:56Z</time></trkpt><trkpt lat="-24.12282335124606" lon="114.05001742118353"><ele>19.0</ele><time>2026-04-17T08:14:57Z</time></trkpt><trkpt lat="-24.122510293278896" lon="114.05001291217684"><ele>19.0</ele><time>2026-04-17T08:14:58Z</time></trkpt><trkpt lat="-24.12220074196378" lon="114.05001005633778"><ele>18.0</ele><time>2026-04-17T08:14:59Z</time></trkpt><trkpt lat="-24.121896229876253" lon="114.05000892497897"><ele>17.0</ele><time>2026-04-17T08:15:00Z</time></trkpt><trkpt lat="-24.12158635698193" lon="114.05000619011109"><ele>18.0</ele><time>2026-04-17T08:15:01Z</time></trkpt><trkpt lat="-24.12127742220619" lon="114.05000160646098"><ele>19.0</ele><time>2026-04-17T08:15:02Z</time></trkpt><trkpt lat="-24.12096811633615" lon="114.04999710317043"><ele>18.5</ele><time>2026-04-17T08:15:03Z</time></trkpt><trkpt lat="-24.120658338573833" lon="114.04999239863383"><ele>18.0</ele><time>2026-04-17T08:15:04Z</time></trkpt><trkpt lat="-24.120350556483288" lon="114.04999020739724"><ele>18.0</ele><time>2026-04-17T08:15:05Z</time></trkpt><trkpt lat="-24.12004418079051" lon="114.04999217647233"><ele>18.0</ele><time>2026-04-17T08:15:06Z</time></trkpt><trkpt lat="-24.1197399624984" lon="114.04999112352708"><ele>18.0</ele><time>2026-04-17T08:15:07Z</time></trkpt><trkpt lat="-24.119432125792287" lon="114.04998693435711"><ele>18.0</ele><time>2026-04-17T08:15:08Z</time></trkpt><trkpt lat="-24.119123235067295" lon="114.04997991247062"><ele>18.0</ele><time>2026-04-17T08:15:09Z</time></trkpt><trkpt lat="-24.11881387319154" lon="114.04997648781227"><ele>18.0</ele><time>2026-04-17T08:15:10Z</time></trkpt><trkpt lat="-24.11850284940194" lon="114.04997130268865"><ele>18.0</ele><time>2026-04-17T08:15:11Z</time></trkpt><trkpt lat="-24.11819127906563" lon="114.04996599773627"><ele>18.0</ele><time>2026-04-17T08:15:12Z</time></trkpt><trkpt lat="-24.117875368199254" lon="114.04996342317463"><ele>18.0</ele><time>2026-04-17T08:15:13Z</time></trkpt><trkpt lat="-24.117557693027713" lon="114.04996012770088"><ele>18.0</ele><time>2026-04-17T08:15:14Z</time></trkpt><trkpt lat="-24.117239898877926" lon="114.04995689378158"><ele>17.5</ele><time>2026-04-17T08:15:15Z</time></trkpt><trkpt lat="-24.116925971177196" lon="114.04995504201543"><ele>17.0</ele><time>2026-04-17T08:15:16Z</time></trkpt><trkpt lat="-24.116608726617354" lon="114.04995079418511"><ele>17.0</ele><time>2026-04-17T08:15:17Z</time></trkpt><trkpt lat="-24.116292377299168" lon="114.04995025459438"><ele>17.0</ele><time>2026-04-17T08:15:18Z</time></trkpt><trkpt lat="-24.115976939429334" lon="114.04994872844365"><ele>17.0</ele><time>2026-04-17T08:15:19Z</time></trkpt><trkpt lat="-24.115660019132584" lon="114.04994475892133"><ele>17.0</ele><time>2026-04-17T08:15:20Z</time></trkpt><trkpt lat="-24.115342959610135" lon="114.0499371821146"><ele>17.0</ele><time>2026-04-17T08:15:21Z</time></trkpt><trkpt lat="-24.115023352768823" lon="114.04993204051068"><ele>17.0</ele><time>2026-04-17T08:15:22Z</time></trkpt><trkpt lat="-24.114704456278687" lon="114.04993093828598"><ele>18.0</ele><time>2026-04-17T08:15:23Z</time></trkpt><trkpt lat="-24.114388327437656" lon="114.04993069844545"><ele>19.0</ele><time>2026-04-17T08:15:24Z</time></trkpt><trkpt lat="-24.114073371321354" lon="114.04992854632061"><ele>19.0</ele><time>2026-04-17T08:15:25Z</time></trkpt><trkpt lat="-24.113758409420832" lon="114.04992684539465"><ele>19.0</ele><time>2026-04-17T08:15:26Z</time></trkpt><trkpt lat="-24.11344434251738" lon="114.04992464620636"><ele>18.0</ele><time>2026-04-17T08:15:27Z</time></trkpt><trkpt lat="-24.113132307012734" lon="114.0499244626372"><ele>17.0</ele><time>2026-04-17T08:15:28Z</time></trkpt><trkpt lat="-24.1128209982821" lon="114.04992280501489"><ele>17.0</ele><time>2026-04-17T08:15:29Z</time></trkpt><trkpt lat="-24.112511886261515" lon="114.04991256906268"><ele>17.0</ele><time>2026-04-17T08:15:30Z</time></trkpt><trkpt lat="-24.11220387359836" lon="114.04989698121862"><ele>17.5</ele><time>2026-04-17T08:15:31Z</time></trkpt><trkpt lat="-24.111897780914784" lon="114.04986953062158"><ele>18.0</ele><time>2026-04-17T08:15:32Z</time></trkpt><trkpt lat="-24.111592226838575" lon="114.04982425631174"><ele>18.5</ele><time>2026-04-17T08:15:33Z</time></trkpt><trkpt lat="-24.111288162356836" lon="114.04976435595377"><ele>19.0</ele><time>2026-04-17T08:15:34Z</time></trkpt><trkpt lat="-24.110989113014956" lon="114.04969470461381"><ele>17.5</ele><time>2026-04-17T08:15:35Z</time></trkpt><trkpt lat="-24.110689369010036" lon="114.04961715929032"><ele>16.0</ele><time>2026-04-17T08:15:36Z</time></trkpt><trkpt lat="-24.110393071440516" lon="114.04953501329292"><ele>16.0</ele><time>2026-04-17T08:15:37Z</time></trkpt><trkpt lat="-24.110093257053688" lon="114.04944725998891"><ele>16.0</ele><time>2026-04-17T08:15:38Z</time></trkpt><trkpt lat="-24.109791012532952" lon="114.04935963945437"><ele>17.0</ele><time>2026-04-17T08:15:39Z</time></trkpt><trkpt lat="-24.109485630315593" lon="114.04927690266534"><ele>18.0</ele><time>2026-04-17T08:15:40Z</time></trkpt><trkpt lat="-24.109181309837727" lon="114.04919860557996"><ele>17.5</ele><time>2026-04-17T08:15:41Z</time></trkpt><trkpt lat="-24.108879368957883" lon="114.04912339197774"><ele>17.0</ele><time>2026-04-17T08:15:42Z</time></trkpt><trkpt lat="-24.10857771065105" lon="114.04904717023294"><ele>17.0</ele><time>2026-04-17T08:15:43Z</time></trkpt><trkpt lat="-24.10827940151203" lon="114.04897031814896"><ele>17.0</ele><time>2026-04-17T08:15:44Z</time></trkpt><trkpt lat="-24.10798224360075" lon="114.04889078661711"><ele>17.0</ele><time>2026-04-17T08:15:45Z</time></trkpt><trkpt lat="-24.10768164089017" lon="114.04881158562168"><ele>17.0</ele><time>2026-04-17T08:15:46Z</time></trkpt><trkpt lat="-24.107380820749444" lon="114.04873471009816"><ele>17.5</ele><time>2026-04-17T08:15:47Z</time></trkpt><trkpt lat="-24.10707943052237" lon="114.04865846403708"><ele>18.0</ele><time>2026-04-17T08:15:48Z</time></trkpt><trkpt lat="-24.10678086073189" lon="114.04858167993532"><ele>18.5</ele><time>2026-04-17T08:15:49Z</time></trkpt><trkpt lat="-24.106482617317923" lon="114.04850163863797"><ele>19.0</ele><time>2026-04-17T08:15:50Z</time></trkpt><trkpt lat="-24.10618279806776" lon="114.04842268520775"><ele>19.0</ele><time>2026-04-17T08:15:51Z</time></trkpt><trkpt lat="-24.105882857481532" lon="114.04834370796243"><ele>19.0</ele><time>2026-04-17T08:15:52Z</time></trkpt><trkpt lat="-24.105581932651976" lon="114.04826477526406"><ele>17.5</ele><time>2026-04-17T08:15:53Z</time></trkpt><trkpt lat="-24.105281131831163" lon="114.04818483508035"><ele>16.0</ele><time>2026-04-17T08:15:54Z</time></trkpt><trkpt lat="-24.10497830366184" lon="114.04810594776819"><ele>16.5</ele><time>2026-04-17T08:15:55Z</time></trkpt><trkpt lat="-24.104674739240554" lon="114.04802694043526"><ele>17.0</ele><time>2026-04-17T08:15:56Z</time></trkpt><trkpt lat="-24.104372352525303" lon="114.04794829921562"><ele>17.0</ele><time>2026-04-17T08:15:57Z</time></trkpt><trkpt lat="-24.104072255234964" lon="114.04787111106631"><ele>17.0</ele><time>2026-04-17T08:15:58Z</time></trkpt><trkpt lat="-24.103771117801717" lon="114.04779261138896"><ele>17.0</ele><time>2026-04-17T08:15:59Z</time></trkpt><trkpt lat="-24.103471634160762" lon="114.04771523920196"><ele>17.0</ele><time>2026-04-17T08:16:00Z</time></trkpt><trkpt lat="-24.103173906579524" lon="114.04763676854765"><ele>17.0</ele><time>2026-04-17T08:16:01Z</time></trkpt><trkpt lat="-24.10287543598859" lon="114.04755497361731"><ele>17.0</ele><time>2026-04-17T08:16:02Z</time></trkpt><trkpt lat="-24.102573634548577" lon="114.04747262713377"><ele>18.0</ele><time>2026-04-17T08:16:03Z</time></trkpt><trkpt lat="-24.102270213844914" lon="114.04739261202864"><ele>19.0</ele><time>2026-04-17T08:16:04Z</time></trkpt><trkpt lat="-24.101968609864933" lon="114.04731510588978"><ele>19.0</ele><time>2026-04-17T08:16:05Z</time></trkpt><trkpt lat="-24.101666342805522" lon="114.04723553941507"><ele>19.0</ele><time>2026-04-17T08:16:06Z</time></trkpt><trkpt lat="-24.10136668766087" lon="114.04715630740755"><ele>18.5</ele><time>2026-04-17T08:16:07Z</time></trkpt><trkpt lat="-24.101068094057712" lon="114.04707788126886"><ele>18.0</ele><time>2026-04-17T08:16:08Z</time></trkpt><trkpt lat="-24.100772471340864" lon="114.0470015355212"><ele>17.5</ele><time>2026-04-17T08:16:09Z</time></trkpt><trkpt lat="-24.10047564555527" lon="114.04692560188387"><ele>17.0</ele><time>2026-04-17T08:16:10Z</time></trkpt><trkpt lat="-24.100177593044318" lon="114.04684820522722"><ele>16.5</ele><time>2026-04-17T08:16:11Z</time></trkpt><trkpt lat="-24.099880096462506" lon="114.0467716090374"><ele>16.0</ele><time>2026-04-17T08:16:12Z</time></trkpt><trkpt lat="-24.09958387708996" lon="114.0466955555198"><ele>17.0</ele><time>2026-04-17T08:16:13Z</time></trkpt><trkpt lat="-24.099001846155115" lon="114.04654973542405"><ele>17.0</ele><time>2026-04-17T08:16:15Z</time></trkpt><trkpt lat="-24.098716370935904" lon="114.04647958876262"><ele>17.0</ele><time>2026-04-17T08:16:16Z</time></trkpt><trkpt lat="-24.098432594772365" lon="114.04640517044919"><ele>16.5</ele><time>2026-04-17T08:16:17Z</time></trkpt><trkpt lat="-24.098150526969093" lon="114.04632330324444"><ele>16.0</ele><time>2026-04-17T08:16:18Z</time></trkpt><trkpt lat="-24.097867119433648" lon="114.04623992989167"><ele>16.0</ele><time>2026-04-17T08:16:19Z</time></trkpt><trkpt lat="-24.09757867786755" lon="114.04615873725906"><ele>16.0</ele><time>2026-04-17T08:16:20Z</time></trkpt><trkpt lat="-24.097288020986007" lon="114.0460792634729"><ele>16.5</ele><time>2026-04-17T08:16:21Z</time></trkpt><trkpt lat="-24.096995258846086" lon="114.04600112369113"><ele>17.0</ele><time>2026-04-17T08:16:22Z</time></trkpt><trkpt lat="-24.096699084054578" lon="114.04592336955785"><ele>17.5</ele><time>2026-04-17T08:16:23Z</time></trkpt><trkpt lat="-24.096400012632422" lon="114.0458470953438"><ele>18.0</ele><time>2026-04-17T08:16:24Z</time></trkpt><trkpt lat="-24.096096904672514" lon="114.04577114921445"><ele>18.0</ele><time>2026-04-17T08:16:25Z</time></trkpt><trkpt lat="-24.095791504544863" lon="114.0456963401098"><ele>18.0</ele><time>2026-04-17T08:16:26Z</time></trkpt><trkpt lat="-24.095493731688727" lon="114.0456216857605"><ele>18.0</ele><time>2026-04-17T08:16:27Z</time></trkpt><trkpt lat="-24.095221075693832" lon="114.04555315266636"><ele>18.0</ele><time>2026-04-17T08:16:28Z</time></trkpt><trkpt lat="-24.094952819406995" lon="114.0454859467465"><ele>18.0</ele><time>2026-04-17T08:16:29Z</time></trkpt><trkpt lat="-24.094674511964648" lon="114.04541447733921"><ele>18.0</ele><time>2026-04-17T08:16:30Z</time></trkpt><trkpt lat="-24.094390395644645" lon="114.04533827312132"><ele>18.0</ele><time>2026-04-17T08:16:31Z</time></trkpt><trkpt lat="-24.094103069253674" lon="114.04526223243023"><ele>18.0</ele><time>2026-04-17T08:16:32Z</time></trkpt><trkpt lat="-24.09381512499496" lon="114.0451880146067"><ele>17.0</ele><time>2026-04-17T08:16:33Z</time></trkpt><trkpt lat="-24.09352502285737" lon="114.0451103723454"><ele>16.0</ele><time>2026-04-17T08:16:34Z</time></trkpt><trkpt lat="-24.093232057308317" lon="114.04503062113955"><ele>16.5</ele><time>2026-04-17T08:16:35Z</time></trkpt><trkpt lat="-24.092939209638644" lon="114.04495380067024"><ele>17.0</ele><time>2026-04-17T08:16:36Z</time></trkpt><trkpt lat="-24.092645382180034" lon="114.04487575078228"><ele>16.5</ele><time>2026-04-17T08:16:37Z</time></trkpt><trkpt lat="-24.092352171916886" lon="114.04479943446835"><ele>16.0</ele><time>2026-04-17T08:16:38Z</time></trkpt><trkpt lat="-24.092056760395582" lon="114.04472084603191"><ele>16.0</ele><time>2026-04-17T08:16:39Z</time></trkpt><trkpt lat="-24.091758691531222" lon="114.04464007253786"><ele>16.0</ele><time>2026-04-17T08:16:40Z</time></trkpt><trkpt lat="-24.09146084084661" lon="114.0445628585509"><ele>16.0</ele><time>2026-04-17T08:16:41Z</time></trkpt><trkpt lat="-24.091162243556642" lon="114.04448626778128"><ele>16.0</ele><time>2026-04-17T08:16:42Z</time></trkpt><trkpt lat="-24.09085954633115" lon="114.04440573903345"><ele>15.5</ele><time>2026-04-17T08:16:43Z</time></trkpt><trkpt lat="-24.090556986444454" lon="114.04432326649818"><ele>15.0</ele><time>2026-04-17T08:16:44Z</time></trkpt><trkpt lat="-24.09025419272084" lon="114.04424283482196"><ele>15.0</ele><time>2026-04-17T08:16:45Z</time></trkpt><trkpt lat="-24.089954430183763" lon="114.04416361268265"><ele>15.0</ele><time>2026-04-17T08:16:46Z</time></trkpt><trkpt lat="-24.08965305092923" lon="114.04408393502173"><ele>15.0</ele><time>2026-04-17T08:16:47Z</time></trkpt><trkpt lat="-24.089352913872975" lon="114.04400476070518"><ele>15.0</ele><time>2026-04-17T08:16:48Z</time></trkpt><trkpt lat="-24.089053042878295" lon="114.04392773297013"><ele>15.0</ele><time>2026-04-17T08:16:49Z</time></trkpt><trkpt lat="-24.088756001984628" lon="114.0438526756227"><ele>15.0</ele><time>2026-04-17T08:16:50Z</time></trkpt><trkpt lat="-24.088458450158424" lon="114.04377911181992"><ele>15.5</ele><time>2026-04-17T08:16:51Z</time></trkpt><trkpt lat="-24.088162055696127" lon="114.0437017603809"><ele>16.0</ele><time>2026-04-17T08:16:52Z</time></trkpt><trkpt lat="-24.087870193129817" lon="114.04362309613265"><ele>16.0</ele><time>2026-04-17T08:16:53Z</time></trkpt><trkpt lat="-24.087576992738004" lon="114.0435464212041"><ele>16.0</ele><time>2026-04-17T08:16:54Z</time></trkpt><trkpt lat="-24.087286343119942" lon="114.04347069338007"><ele>16.5</ele><time>2026-04-17T08:16:55Z</time></trkpt><trkpt lat="-24.086996750213338" lon="114.04339645509228"><ele>17.0</ele><time>2026-04-17T08:16:56Z</time></trkpt><trkpt lat="-24.08670645832508" lon="114.04332367401538"><ele>17.5</ele><time>2026-04-17T08:16:57Z</time></trkpt><trkpt lat="-24.086415199386956" lon="114.04325404110236"><ele>18.0</ele><time>2026-04-17T08:16:58Z</time></trkpt><trkpt lat="-24.086118842611114" lon="114.0431917857312"><ele>18.0</ele><time>2026-04-17T08:16:59Z</time></trkpt><trkpt lat="-24.085823115095483" lon="114.0431117362316"><ele>18.0</ele><time>2026-04-17T08:17:00Z</time></trkpt><trkpt lat="-24.08551746629929" lon="114.04308311740557"><ele>17.5</ele><time>2026-04-17T08:17:01Z</time></trkpt><trkpt lat="-24.08521968727184" lon="114.04303179596921"><ele>17.0</ele><time>2026-04-17T08:17:02Z</time></trkpt><trkpt lat="-24.0849217477508" lon="114.04298307023568"><ele>16.0</ele><time>2026-04-17T08:17:03Z</time></trkpt><trkpt lat="-24.084623673616765" lon="114.04293792583036"><ele>15.0</ele><time>2026-04-17T08:17:04Z</time></trkpt><trkpt lat="-24.084328574664166" lon="114.04289328386177"><ele>15.0</ele><time>2026-04-17T08:17:05Z</time></trkpt><trkpt lat="-24.084034790261736" lon="114.04284483657491"><ele>15.0</ele><time>2026-04-17T08:17:06Z</time></trkpt><trkpt lat="-24.08374024870575" lon="114.04279527140746"><ele>15.0</ele><time>2026-04-17T08:17:07Z</time></trkpt><trkpt lat="-24.083445384738006" lon="114.04274838533165"><ele>15.0</ele><time>2026-04-17T08:17:08Z</time></trkpt><trkpt lat="-24.083146556538757" lon="114.04269894088091"><ele>15.0</ele><time>2026-04-17T08:17:09Z</time></trkpt><trkpt lat="-24.082848754803333" lon="114.04264853023416"><ele>15.0</ele><time>2026-04-17T08:17:10Z</time></trkpt><trkpt lat="-24.082551955194113" lon="114.04259888582136"><ele>15.0</ele><time>2026-04-17T08:17:11Z</time></trkpt><trkpt lat="-24.082255743966382" lon="114.04255097773931"><ele>15.0</ele><time>2026-04-17T08:17:12Z</time></trkpt><trkpt lat="-24.081961657621108" lon="114.04250185194994"><ele>15.5</ele><time>2026-04-17T08:17:13Z</time></trkpt><trkpt lat="-24.08166911310821" lon="114.04245310848812"><ele>16.0</ele><time>2026-04-17T08:17:14Z</time></trkpt><trkpt lat="-24.08137940962062" lon="114.042404465643"><ele>16.0</ele><time>2026-04-17T08:17:15Z</time></trkpt><trkpt lat="-24.081091608786473" lon="114.04235934654689"><ele>16.0</ele><time>2026-04-17T08:17:16Z</time></trkpt><trkpt lat="-24.08080759440263" lon="114.0423155967651"><ele>15.5</ele><time>2026-04-17T08:17:17Z</time></trkpt><trkpt lat="-24.080525479019773" lon="114.04227063382706"><ele>15.0</ele><time>2026-04-17T08:17:18Z</time></trkpt><trkpt lat="-24.080246285374137" lon="114.04222507254077"><ele>15.0</ele><time>2026-04-17T08:17:19Z</time></trkpt><trkpt lat="-24.07996856867955" lon="114.04217971979094"><ele>15.0</ele><time>2026-04-17T08:17:20Z</time></trkpt><trkpt lat="-24.07969259653341" lon="114.04213590236299"><ele>14.0</ele><time>2026-04-17T08:17:21Z</time></trkpt><trkpt lat="-24.07941854767983" lon="114.04209205461655"><ele>13.0</ele><time>2026-04-17T08:17:22Z</time></trkpt><trkpt lat="-24.07914359020335" lon="114.04204868520387"><ele>13.0</ele><time>2026-04-17T08:17:23Z</time></trkpt><trkpt lat="-24.078877367530406" lon="114.04200761308658"><ele>13.0</ele><time>2026-04-17T08:17:24Z</time></trkpt><trkpt lat="-24.078609096906312" lon="114.0419637823417"><ele>13.0</ele><time>2026-04-17T08:17:25Z</time></trkpt><trkpt lat="-24.078345779955313" lon="114.04191777351156"><ele>13.0</ele><time>2026-04-17T08:17:26Z</time></trkpt><trkpt lat="-24.078081114572512" lon="114.04187166472018"><ele>13.0</ele><time>2026-04-17T08:17:27Z</time></trkpt><trkpt lat="-24.077817015323447" lon="114.04182735256467"><ele>13.0</ele><time>2026-04-17T08:17:28Z</time></trkpt><trkpt lat="-24.077552210573458" lon="114.04178637928582"><ele>12.5</ele><time>2026-04-17T08:17:29Z</time></trkpt><trkpt lat="-24.07728880700542" lon="114.04174547350506"><ele>12.0</ele><time>2026-04-17T08:17:30Z</time></trkpt><trkpt lat="-24.077024397023596" lon="114.04170359619843"><ele>12.0</ele><time>2026-04-17T08:17:31Z</time></trkpt><trkpt lat="-24.076756596220445" lon="114.04166180322142"><ele>12.0</ele><time>2026-04-17T08:17:32Z</time></trkpt><trkpt lat="-24.07648773419508" lon="114.04161682106891"><ele>12.5</ele><time>2026-04-17T08:17:33Z</time></trkpt><trkpt lat="-24.076216594381915" lon="114.04157389156542"><ele>13.0</ele><time>2026-04-17T08:17:34Z</time></trkpt><trkpt lat="-24.07594372193202" lon="114.04152919216506"><ele>13.0</ele><time>2026-04-17T08:17:35Z</time></trkpt><trkpt lat="-24.075668999200534" lon="114.04148224312203"><ele>13.0</ele><time>2026-04-17T08:17:36Z</time></trkpt><trkpt lat="-24.075390567372725" lon="114.04143620027752"><ele>13.0</ele><time>2026-04-17T08:17:37Z</time></trkpt><trkpt lat="-24.075109712493653" lon="114.04139051426436"><ele>13.0</ele><time>2026-04-17T08:17:38Z</time></trkpt><trkpt lat="-24.074827002680188" lon="114.04134485536909"><ele>13.5</ele><time>2026-04-17T08:17:39Z</time></trkpt><trkpt lat="-24.074545979704794" lon="114.04130108361478"><ele>14.0</ele><time>2026-04-17T08:17:40Z</time></trkpt><trkpt lat="-24.07426564753553" lon="114.04125806592613"><ele>13.5</ele><time>2026-04-17T08:17:41Z</time></trkpt><trkpt lat="-24.07398668968319" lon="114.04121395712079"><ele>13.0</ele><time>2026-04-17T08:17:42Z</time></trkpt><trkpt lat="-24.07370553746334" lon="114.04116680060199"><ele>13.0</ele><time>2026-04-17T08:17:43Z</time></trkpt><trkpt lat="-24.073429271444958" lon="114.04111956849302"><ele>13.0</ele><time>2026-04-17T08:17:44Z</time></trkpt><trkpt lat="-24.073150328086616" lon="114.04107088832453"><ele>13.0</ele><time>2026-04-17T08:17:45Z</time></trkpt><trkpt lat="-24.072872256392948" lon="114.04102080092349"><ele>13.0</ele><time>2026-04-17T08:17:46Z</time></trkpt><trkpt lat="-24.07259399204507" lon="114.04097433365989"><ele>13.0</ele><time>2026-04-17T08:17:47Z</time></trkpt><trkpt lat="-24.07231409615665" lon="114.04093155199382"><ele>13.0</ele><time>2026-04-17T08:17:48Z</time></trkpt><trkpt lat="-24.07203158458995" lon="114.0408905280072"><ele>13.0</ele><time>2026-04-17T08:17:49Z</time></trkpt><trkpt lat="-24.071749251011962" lon="114.04084610403109"><ele>13.0</ele><time>2026-04-17T08:17:50Z</time></trkpt><trkpt lat="-24.071466994691818" lon="114.0407998696062"><ele>13.0</ele><time>2026-04-17T08:17:51Z</time></trkpt><trkpt lat="-24.071183682184003" lon="114.04075476126395"><ele>13.0</ele><time>2026-04-17T08:17:52Z</time></trkpt><trkpt lat="-24.070897488758067" lon="114.04070841691706"><ele>13.0</ele><time>2026-04-17T08:17:53Z</time></trkpt><trkpt lat="-24.070609385641838" lon="114.0406603297714"><ele>13.0</ele><time>2026-04-17T08:17:54Z</time></trkpt><trkpt lat="-24.07032013366814" lon="114.04061088742986"><ele>13.0</ele><time>2026-04-17T08:17:55Z</time></trkpt><trkpt lat="-24.07003016102777" lon="114.04056246106879"><ele>13.0</ele><time>2026-04-17T08:17:56Z</time></trkpt><trkpt lat="-24.06974173937421" lon="114.04051831814988"><ele>13.0</ele><time>2026-04-17T08:17:57Z</time></trkpt><trkpt lat="-24.069454608350846" lon="114.04047185855704"><ele>13.0</ele><time>2026-04-17T08:17:58Z</time></trkpt><trkpt lat="-24.069166878521127" lon="114.04042429907288"><ele>13.0</ele><time>2026-04-17T08:17:59Z</time></trkpt><trkpt lat="-24.06887308035552" lon="114.04037738169552"><ele>13.0</ele><time>2026-04-17T08:18:00Z</time></trkpt><trkpt lat="-24.068580184638236" lon="114.04033303988122"><ele>13.0</ele><time>2026-04-17T08:18:01Z</time></trkpt><trkpt lat="-24.068288347315814" lon="114.04028835964421"><ele>13.0</ele><time>2026-04-17T08:18:02Z</time></trkpt><trkpt lat="-24.067997534590134" lon="114.04024262970204"><ele>13.0</ele><time>2026-04-17T08:18:03Z</time></trkpt><trkpt lat="-24.06770824905768" lon="114.04019776714131"><ele>13.0</ele><time>2026-04-17T08:18:04Z</time></trkpt><trkpt lat="-24.06741961089376" lon="114.04015186180591"><ele>13.0</ele><time>2026-04-17T08:18:05Z</time></trkpt><trkpt lat="-24.06713387496077" lon="114.04010602979956"><ele>13.0</ele><time>2026-04-17T08:18:06Z</time></trkpt><trkpt lat="-24.066846867155476" lon="114.04005833570949"><ele>13.0</ele><time>2026-04-17T08:18:07Z</time></trkpt><trkpt lat="-24.06656712798301" lon="114.04001351502122"><ele>13.0</ele><time>2026-04-17T08:18:08Z</time></trkpt><trkpt lat="-24.066287682719327" lon="114.03996668582309"><ele>13.0</ele><time>2026-04-17T08:18:09Z</time></trkpt><trkpt lat="-24.06601035825276" lon="114.03991552462884"><ele>13.0</ele><time>2026-04-17T08:18:10Z</time></trkpt><trkpt lat="-24.06574026150556" lon="114.03986788735314"><ele>12.5</ele><time>2026-04-17T08:18:11Z</time></trkpt><trkpt lat="-24.065468574777068" lon="114.03982410887832"><ele>12.0</ele><time>2026-04-17T08:18:12Z</time></trkpt><trkpt lat="-24.065200038772375" lon="114.0397790441934"><ele>12.0</ele><time>2026-04-17T08:18:13Z</time></trkpt><trkpt lat="-24.064933941106915" lon="114.03973734999273"><ele>12.0</ele><time>2026-04-17T08:18:14Z</time></trkpt><trkpt lat="-24.06466899804531" lon="114.03969616885713"><ele>12.0</ele><time>2026-04-17T08:18:15Z</time></trkpt><trkpt lat="-24.064403773321363" lon="114.03965582276885"><ele>12.0</ele><time>2026-04-17T08:18:16Z</time></trkpt><trkpt lat="-24.0641391081295" lon="114.0396147220119"><ele>12.0</ele><time>2026-04-17T08:18:17Z</time></trkpt><trkpt lat="-24.063878256263123" lon="114.03956943556925"><ele>12.0</ele><time>2026-04-17T08:18:18Z</time></trkpt><trkpt lat="-24.063615812598524" lon="114.03952350481912"><ele>12.0</ele><time>2026-04-17T08:18:19Z</time></trkpt><trkpt lat="-24.063351780405085" lon="114.03947907755436"><ele>12.0</ele><time>2026-04-17T08:18:20Z</time></trkpt><trkpt lat="-24.06308762134484" lon="114.03943607848399"><ele>12.0</ele><time>2026-04-17T08:18:21Z</time></trkpt><trkpt lat="-24.062822480763497" lon="114.03939300046979"><ele>12.0</ele><time>2026-04-17T08:18:22Z</time></trkpt><trkpt lat="-24.062558971454827" lon="114.03935061830653"><ele>12.5</ele><time>2026-04-17T08:18:23Z</time></trkpt><trkpt lat="-24.062292034105567" lon="114.03930897219709"><ele>13.0</ele><time>2026-04-17T08:18:24Z</time></trkpt><trkpt lat="-24.062024424557546" lon="114.039268532715"><ele>13.0</ele><time>2026-04-17T08:18:25Z</time></trkpt><trkpt lat="-24.061755640300333" lon="114.03922548298985"><ele>13.0</ele><time>2026-04-17T08:18:26Z</time></trkpt><trkpt lat="-24.061488407784864" lon="114.03918468729037"><ele>13.0</ele><time>2026-04-17T08:18:27Z</time></trkpt><trkpt lat="-24.061221337563875" lon="114.03914322188832"><ele>13.0</ele><time>2026-04-17T08:18:28Z</time></trkpt><trkpt lat="-24.060954311197786" lon="114.03910072513374"><ele>13.0</ele><time>2026-04-17T08:18:29Z</time></trkpt><trkpt lat="-24.060689039009446" lon="114.0390560401237"><ele>13.0</ele><time>2026-04-17T08:18:30Z</time></trkpt><trkpt lat="-24.060421996779496" lon="114.03900922240727"><ele>13.0</ele><time>2026-04-17T08:18:31Z</time></trkpt><trkpt lat="-24.060158785238364" lon="114.03896416388834"><ele>13.0</ele><time>2026-04-17T08:18:32Z</time></trkpt><trkpt lat="-24.059894327310882" lon="114.03892429255865"><ele>12.0</ele><time>2026-04-17T08:18:33Z</time></trkpt><trkpt lat="-24.059629298040512" lon="114.03888382801965"><ele>11.0</ele><time>2026-04-17T08:18:34Z</time></trkpt><trkpt lat="-24.05936724991708" lon="114.03884014728084"><ele>11.0</ele><time>2026-04-17T08:18:35Z</time></trkpt><trkpt lat="-24.059107781457932" lon="114.03879861093871"><ele>11.0</ele><time>2026-04-17T08:18:36Z</time></trkpt><trkpt lat="-24.05884778098933" lon="114.03875750526728"><ele>11.0</ele><time>2026-04-17T08:18:37Z</time></trkpt><trkpt lat="-24.058588660709297" lon="114.03871460994613"><ele>11.0</ele><time>2026-04-17T08:18:38Z</time></trkpt><trkpt lat="-24.058334182796973" lon="114.03866901271736"><ele>10.5</ele><time>2026-04-17T08:18:39Z</time></trkpt><trkpt lat="-24.058080246109164" lon="114.03862492466233"><ele>10.0</ele><time>2026-04-17T08:18:40Z</time></trkpt><trkpt lat="-24.05782796472748" lon="114.03858782785575"><ele>10.0</ele><time>2026-04-17T08:18:41Z</time></trkpt><trkpt lat="-24.057576490805587" lon="114.03854902024095"><ele>10.0</ele><time>2026-04-17T08:18:42Z</time></trkpt><trkpt lat="-24.05732681140339" lon="114.03850880741881"><ele>10.5</ele><time>2026-04-17T08:18:43Z</time></trkpt><trkpt lat="-24.057077905179103" lon="114.03846797891468"><ele>11.0</ele><time>2026-04-17T08:18:44Z</time></trkpt><trkpt lat="-24.05682556740832" lon="114.03842530110522"><ele>12.0</ele><time>2026-04-17T08:18:45Z</time></trkpt><trkpt lat="-24.05657705901876" lon="114.03838229425652"><ele>13.0</ele><time>2026-04-17T08:18:46Z</time></trkpt><trkpt lat="-24.05632908355413" lon="114.03834166637188"><ele>13.0</ele><time>2026-04-17T08:18:47Z</time></trkpt><trkpt lat="-24.056080495803606" lon="114.0383036374625"><ele>13.0</ele><time>2026-04-17T08:18:48Z</time></trkpt><trkpt lat="-24.05583500763828" lon="114.0382673394316"><ele>12.5</ele><time>2026-04-17T08:18:49Z</time></trkpt><trkpt lat="-24.055585194105742" lon="114.03822807809837"><ele>12.0</ele><time>2026-04-17T08:18:50Z</time></trkpt><trkpt lat="-24.05533878386123" lon="114.03818660518854"><ele>12.0</ele><time>2026-04-17T08:18:51Z</time></trkpt><trkpt lat="-24.055091222734966" lon="114.03814577122569"><ele>12.0</ele><time>2026-04-17T08:18:52Z</time></trkpt><trkpt lat="-24.054846064436934" lon="114.03810673658383"><ele>12.5</ele><time>2026-04-17T08:18:53Z</time></trkpt><trkpt lat="-24.054598703837616" lon="114.0380652521176"><ele>13.0</ele><time>2026-04-17T08:18:54Z</time></trkpt><trkpt lat="-24.054351560967046" lon="114.03802533523262"><ele>12.0</ele><time>2026-04-17T08:18:55Z</time></trkpt><trkpt lat="-24.054107622550777" lon="114.0379850527939"><ele>11.0</ele><time>2026-04-17T08:18:56Z</time></trkpt><trkpt lat="-24.053863915477546" lon="114.03794688248145"><ele>11.0</ele><time>2026-04-17T08:18:57Z</time></trkpt><trkpt lat="-24.053620861375844" lon="114.0379110150022"><ele>11.0</ele><time>2026-04-17T08:18:58Z</time></trkpt><trkpt lat="-24.05337799815325" lon="114.03787458590755"><ele>11.0</ele><time>2026-04-17T08:18:59Z</time></trkpt><trkpt lat="-24.053134944369305" lon="114.03783712852493"><ele>11.0</ele><time>2026-04-17T08:19:00Z</time></trkpt><trkpt lat="-24.052893248866184" lon="114.03779770167615"><ele>11.0</ele><time>2026-04-17T08:19:01Z</time></trkpt><trkpt lat="-24.05265029371451" lon="114.03775521926057"><ele>11.0</ele><time>2026-04-17T08:19:02Z</time></trkpt><trkpt lat="-24.052407075679227" lon="114.03771012422531"><ele>11.5</ele><time>2026-04-17T08:19:03Z</time></trkpt><trkpt lat="-24.052167651105936" lon="114.03766646067594"><ele>12.0</ele><time>2026-04-17T08:19:04Z</time></trkpt><trkpt lat="-24.05192479341047" lon="114.03762756070216"><ele>12.0</ele><time>2026-04-17T08:19:05Z</time></trkpt><trkpt lat="-24.05168198039497" lon="114.03759263492455"><ele>12.0</ele><time>2026-04-17T08:19:06Z</time></trkpt><trkpt lat="-24.05143742595833" lon="114.03755606506574"><ele>12.5</ele><time>2026-04-17T08:19:07Z</time></trkpt><trkpt lat="-24.051191010124374" lon="114.0375189072621"><ele>13.0</ele><time>2026-04-17T08:19:08Z</time></trkpt><trkpt lat="-24.050946295816168" lon="114.03748288621938"><ele>12.5</ele><time>2026-04-17T08:19:09Z</time></trkpt><trkpt lat="-24.050700538018" lon="114.03744612735966"><ele>12.0</ele><time>2026-04-17T08:19:10Z</time></trkpt><trkpt lat="-24.050456671938445" lon="114.03740768664537"><ele>12.0</ele><time>2026-04-17T08:19:11Z</time></trkpt><trkpt lat="-24.050211518553873" lon="114.03736703511034"><ele>12.0</ele><time>2026-04-17T08:19:12Z</time></trkpt><trkpt lat="-24.049965434648687" lon="114.03732949831775"><ele>12.0</ele><time>2026-04-17T08:19:13Z</time></trkpt><trkpt lat="-24.049719997741885" lon="114.03729087126145"><ele>12.0</ele><time>2026-04-17T08:19:14Z</time></trkpt><trkpt lat="-24.04947446380679" lon="114.03725045369939"><ele>12.0</ele><time>2026-04-17T08:19:15Z</time></trkpt><trkpt lat="-24.049232535616223" lon="114.03721419122982"><ele>12.0</ele><time>2026-04-17T08:19:16Z</time></trkpt><trkpt lat="-24.048986214790595" lon="114.03717781966397"><ele>11.5</ele><time>2026-04-17T08:19:17Z</time></trkpt><trkpt lat="-24.04874293033523" lon="114.03713808200443"><ele>11.0</ele><time>2026-04-17T08:19:18Z</time></trkpt><trkpt lat="-24.048497924990155" lon="114.03709659919267"><ele>11.0</ele><time>2026-04-17T08:19:19Z</time></trkpt><trkpt lat="-24.04825377871263" lon="114.03705616616855"><ele>11.0</ele><time>2026-04-17T08:19:20Z</time></trkpt><trkpt lat="-24.048009505341607" lon="114.03701428824527"><ele>11.0</ele><time>2026-04-17T08:19:21Z</time></trkpt><trkpt lat="-24.047766010330143" lon="114.03697330930675"><ele>11.0</ele><time>2026-04-17T08:19:22Z</time></trkpt><trkpt lat="-24.047522616499087" lon="114.03693326933022"><ele>10.5</ele><time>2026-04-17T08:19:23Z</time></trkpt><trkpt lat="-24.047281670516902" lon="114.03689298077786"><ele>10.0</ele><time>2026-04-17T08:19:24Z</time></trkpt><trkpt lat="-24.04703991731803" lon="114.0368515281773"><ele>10.0</ele><time>2026-04-17T08:19:25Z</time></trkpt><trkpt lat="-24.04679751087677" lon="114.03681150879098"><ele>10.0</ele><time>2026-04-17T08:19:26Z</time></trkpt><trkpt lat="-24.046556300657283" lon="114.03677445765221"><ele>11.0</ele><time>2026-04-17T08:19:27Z</time></trkpt><trkpt lat="-24.046313695098497" lon="114.03673838053186"><ele>12.0</ele><time>2026-04-17T08:19:28Z</time></trkpt><trkpt lat="-24.046073665337893" lon="114.03670092851982"><ele>12.0</ele><time>2026-04-17T08:19:29Z</time></trkpt><trkpt lat="-24.0458340145944" lon="114.03666484930996"><ele>12.0</ele><time>2026-04-17T08:19:30Z</time></trkpt><trkpt lat="-24.04559601933142" lon="114.03662803661358"><ele>11.5</ele><time>2026-04-17T08:19:31Z</time></trkpt><trkpt lat="-24.045356075083376" lon="114.03658787196387"><ele>11.0</ele><time>2026-04-17T08:19:32Z</time></trkpt><trkpt lat="-24.04511841712394" lon="114.0365489148924"><ele>12.0</ele><time>2026-04-17T08:19:33Z</time></trkpt><trkpt lat="-24.044879504045895" lon="114.03651098602587"><ele>13.0</ele><time>2026-04-17T08:19:34Z</time></trkpt><trkpt lat="-24.04464045181335" lon="114.03647368323934"><ele>13.0</ele><time>2026-04-17T08:19:35Z</time></trkpt><trkpt lat="-24.044402999808163" lon="114.03643608430465"><ele>13.0</ele><time>2026-04-17T08:19:36Z</time></trkpt><trkpt lat="-24.04416402880654" lon="114.03639574722634"><ele>12.5</ele><time>2026-04-17T08:19:37Z</time></trkpt><trkpt lat="-24.043926475725794" lon="114.03636007460013"><ele>12.0</ele><time>2026-04-17T08:19:38Z</time></trkpt><trkpt lat="-24.043687837843084" lon="114.03632306336598"><ele>12.0</ele><time>2026-04-17T08:19:39Z</time></trkpt><trkpt lat="-24.043449509322926" lon="114.03628443280165"><ele>12.0</ele><time>2026-04-17T08:19:40Z</time></trkpt><trkpt lat="-24.043213319835722" lon="114.03624782241931"><ele>11.0</ele><time>2026-04-17T08:19:41Z</time></trkpt><trkpt lat="-24.042972950215407" lon="114.0362078517902"><ele>10.0</ele><time>2026-04-17T08:19:42Z</time></trkpt><trkpt lat="-24.042725461700922" lon="114.03616548729374"><ele>10.0</ele><time>2026-04-17T08:19:43Z</time></trkpt><trkpt lat="-24.042473412322792" lon="114.03612426628094"><ele>10.0</ele><time>2026-04-17T08:19:44Z</time></trkpt><trkpt lat="-24.04222061318306" lon="114.03608361892881"><ele>11.0</ele><time>2026-04-17T08:19:45Z</time></trkpt><trkpt lat="-24.04196579211419" lon="114.03604506034993"><ele>12.0</ele><time>2026-04-17T08:19:46Z</time></trkpt><trkpt lat="-24.041711535709187" lon="114.03600945404723"><ele>12.0</ele><time>2026-04-17T08:19:47Z</time></trkpt><trkpt lat="-24.04145705767233" lon="114.03597373514046"><ele>12.0</ele><time>2026-04-17T08:19:48Z</time></trkpt><trkpt lat="-24.04120275834593" lon="114.03593667854699"><ele>12.0</ele><time>2026-04-17T08:19:49Z</time></trkpt><trkpt lat="-24.04094506894704" lon="114.03589352903997"><ele>12.0</ele><time>2026-04-17T08:19:50Z</time></trkpt><trkpt lat="-24.040690649229287" lon="114.03585188113527"><ele>11.5</ele><time>2026-04-17T08:19:51Z</time></trkpt><trkpt lat="-24.040430998980256" lon="114.03582271423329"><ele>11.0</ele><time>2026-04-17T08:19:52Z</time></trkpt><trkpt lat="-24.040165972869183" lon="114.03581198453097"><ele>10.5</ele><time>2026-04-17T08:19:53Z</time></trkpt><trkpt lat="-24.03990003313306" lon="114.03581716919912"><ele>10.0</ele><time>2026-04-17T08:19:54Z</time></trkpt><trkpt lat="-24.03963180344542" lon="114.03583412686365"><ele>10.0</ele><time>2026-04-17T08:19:55Z</time></trkpt><trkpt lat="-24.039361572878683" lon="114.03585757606365"><ele>10.0</ele><time>2026-04-17T08:19:56Z</time></trkpt><trkpt lat="-24.03908532569169" lon="114.03588888058088"><ele>11.0</ele><time>2026-04-17T08:19:57Z</time></trkpt><trkpt lat="-24.038805082774537" lon="114.03592779675712"><ele>12.0</ele><time>2026-04-17T08:19:58Z</time></trkpt><trkpt lat="-24.03852680925501" lon="114.0359761145664"><ele>12.0</ele><time>2026-04-17T08:19:59Z</time></trkpt><trkpt lat="-24.038253969985437" lon="114.0360315236134"><ele>12.0</ele><time>2026-04-17T08:20:00Z</time></trkpt><trkpt lat="-24.037979303204104" lon="114.03608924523657"><ele>12.0</ele><time>2026-04-17T08:20:01Z</time></trkpt><trkpt lat="-24.037705503715614" lon="114.0361471803384"><ele>12.0</ele><time>2026-04-17T08:20:02Z</time></trkpt><trkpt lat="-24.03743195086299" lon="114.03620464375406"><ele>12.0</ele><time>2026-04-17T08:20:03Z</time></trkpt><trkpt lat="-24.037157648456215" lon="114.03625877931579"><ele>12.0</ele><time>2026-04-17T08:20:04Z</time></trkpt><trkpt lat="-24.036887888013034" lon="114.03631259127454"><ele>12.5</ele><time>2026-04-17T08:20:05Z</time></trkpt><trkpt lat="-24.03661764196347" lon="114.03636810482814"><ele>13.0</ele><time>2026-04-17T08:20:06Z</time></trkpt><trkpt lat="-24.036349761289" lon="114.03642484701008"><ele>13.0</ele><time>2026-04-17T08:20:07Z</time></trkpt><trkpt lat="-24.036078861644384" lon="114.03648111418876"><ele>13.0</ele><time>2026-04-17T08:20:08Z</time></trkpt><trkpt lat="-24.035805398266312" lon="114.03654040482004"><ele>13.0</ele><time>2026-04-17T08:20:09Z</time></trkpt><trkpt lat="-24.035531153516306" lon="114.03659896361793"><ele>13.0</ele><time>2026-04-17T08:20:09.999Z</time></trkpt><trkpt lat="-24.035251915648065" lon="114.03665731029163"><ele>13.0</ele><time>2026-04-17T08:20:10.999Z</time></trkpt><trkpt lat="-24.034973106618864" lon="114.0367162764435"><ele>13.0</ele><time>2026-04-17T08:20:11.999Z</time></trkpt><trkpt lat="-24.034694213471237" lon="114.03677385864572"><ele>13.0</ele><time>2026-04-17T08:20:12.999Z</time></trkpt><trkpt lat="-24.034411389195718" lon="114.0368299906712"><ele>13.0</ele><time>2026-04-17T08:20:13.999Z</time></trkpt><trkpt lat="-24.034130859091654" lon="114.03688738617994"><ele>13.5</ele><time>2026-04-17T08:20:14.999Z</time></trkpt><trkpt lat="-24.033848200755614" lon="114.03694843425433"><ele>14.0</ele><time>2026-04-17T08:20:15.999Z</time></trkpt><trkpt lat="-24.033564648448117" lon="114.03700755112806"><ele>13.0</ele><time>2026-04-17T08:20:16.999Z</time></trkpt><trkpt lat="-24.03328154693519" lon="114.0370619005266"><ele>12.0</ele><time>2026-04-17T08:20:18Z</time></trkpt><trkpt lat="-24.032994906948186" lon="114.03711808774645"><ele>12.0</ele><time>2026-04-17T08:20:19Z</time></trkpt><trkpt lat="-24.032709584690096" lon="114.03717584985088"><ele>12.0</ele><time>2026-04-17T08:20:20Z</time></trkpt><trkpt lat="-24.032426470158004" lon="114.03723839651515"><ele>12.0</ele><time>2026-04-17T08:20:21Z</time></trkpt><trkpt lat="-24.032143800852303" lon="114.03729994431755"><ele>12.0</ele><time>2026-04-17T08:20:22Z</time></trkpt><trkpt lat="-24.03186141060108" lon="114.0373592323849"><ele>13.0</ele><time>2026-04-17T08:20:23Z</time></trkpt><trkpt lat="-24.031581170053776" lon="114.03741618353504"><ele>14.0</ele><time>2026-04-17T08:20:24Z</time></trkpt><trkpt lat="-24.03129797523181" lon="114.03747407142643"><ele>14.0</ele><time>2026-04-17T08:20:25Z</time></trkpt><trkpt lat="-24.031016945787357" lon="114.03753179776943"><ele>14.0</ele><time>2026-04-17T08:20:26Z</time></trkpt><trkpt lat="-24.030734451650464" lon="114.03759109832939"><ele>13.0</ele><time>2026-04-17T08:20:27Z</time></trkpt><trkpt lat="-24.030451354536584" lon="114.0376516664942"><ele>12.0</ele><time>2026-04-17T08:20:28Z</time></trkpt><trkpt lat="-24.03016921075657" lon="114.03771050092458"><ele>13.0</ele><time>2026-04-17T08:20:29Z</time></trkpt><trkpt lat="-24.029884187775867" lon="114.0377692518838"><ele>14.0</ele><time>2026-04-17T08:20:30Z</time></trkpt><trkpt lat="-24.02960283054654" lon="114.03783026709864"><ele>14.0</ele><time>2026-04-17T08:20:31Z</time></trkpt><trkpt lat="-24.029313220908403" lon="114.03789055431997"><ele>14.0</ele><time>2026-04-17T08:20:32Z</time></trkpt><trkpt lat="-24.029029277184137" lon="114.0379472239254"><ele>14.0</ele><time>2026-04-17T08:20:33Z</time></trkpt><trkpt lat="-24.028746009880134" lon="114.03800764551686"><ele>14.0</ele><time>2026-04-17T08:20:34Z</time></trkpt><trkpt lat="-24.02846310104136" lon="114.03806646992066"><ele>13.5</ele><time>2026-04-17T08:20:35Z</time></trkpt><trkpt lat="-24.0281820376017" lon="114.03812148587721"><ele>13.0</ele><time>2026-04-17T08:20:36Z</time></trkpt><trkpt lat="-24.02789823467556" lon="114.03817363831092"><ele>13.0</ele><time>2026-04-17T08:20:37Z</time></trkpt><trkpt lat="-24.027612860068015" lon="114.03823031000357"><ele>13.0</ele><time>2026-04-17T08:20:38Z</time></trkpt><trkpt lat="-24.02732439342317" lon="114.0382884510686"><ele>12.0</ele><time>2026-04-17T08:20:39Z</time></trkpt><trkpt lat="-24.02704310023538" lon="114.03834686773895"><ele>11.0</ele><time>2026-04-17T08:20:40Z</time></trkpt><trkpt lat="-24.026761035764512" lon="114.03840937833795"><ele>12.0</ele><time>2026-04-17T08:20:41Z</time></trkpt><trkpt lat="-24.02647872675482" lon="114.0384693070967"><ele>13.0</ele><time>2026-04-17T08:20:42Z</time></trkpt><trkpt lat="-24.026193773988318" lon="114.03852636971851"><ele>13.0</ele><time>2026-04-17T08:20:43Z</time></trkpt><trkpt lat="-24.025907831232356" lon="114.0385818981173"><ele>13.0</ele><time>2026-04-17T08:20:44Z</time></trkpt><trkpt lat="-24.025622398829885" lon="114.03864441038029"><ele>12.5</ele><time>2026-04-17T08:20:45Z</time></trkpt><trkpt lat="-24.025335146522153" lon="114.03870416908619"><ele>12.0</ele><time>2026-04-17T08:20:46Z</time></trkpt><trkpt lat="-24.025048335080648" lon="114.03876275487005"><ele>12.5</ele><time>2026-04-17T08:20:47Z</time></trkpt><trkpt lat="-24.024762989030922" lon="114.03882508480739"><ele>13.0</ele><time>2026-04-17T08:20:48Z</time></trkpt><trkpt lat="-24.024481426483277" lon="114.03888489064886"><ele>13.0</ele><time>2026-04-17T08:20:49Z</time></trkpt><trkpt lat="-24.024195769369314" lon="114.03893953525576"><ele>13.0</ele><time>2026-04-17T08:20:50Z</time></trkpt><trkpt lat="-24.0239107906607" lon="114.03899731961111"><ele>13.5</ele><time>2026-04-17T08:20:51Z</time></trkpt><trkpt lat="-24.023627619413393" lon="114.03905629709902"><ele>14.0</ele><time>2026-04-17T08:20:52Z</time></trkpt><trkpt lat="-24.02334361616314" lon="114.03911402724698"><ele>13.5</ele><time>2026-04-17T08:20:53Z</time></trkpt><trkpt lat="-24.023059138090392" lon="114.03917129323226"><ele>13.0</ele><time>2026-04-17T08:20:54Z</time></trkpt><trkpt lat="-24.022772159641246" lon="114.03922962128168"><ele>13.0</ele><time>2026-04-17T08:20:55Z</time></trkpt><trkpt lat="-24.022485646792326" lon="114.03928903009356"><ele>13.0</ele><time>2026-04-17T08:20:56Z</time></trkpt><trkpt lat="-24.02219963975769" lon="114.0393498992707"><ele>13.0</ele><time>2026-04-17T08:20:57Z</time></trkpt><trkpt lat="-24.021913557881142" lon="114.03940974455544"><ele>13.0</ele><time>2026-04-17T08:20:58Z</time></trkpt><trkpt lat="-24.02162545121236" lon="114.03946903257169"><ele>13.5</ele><time>2026-04-17T08:20:59Z</time></trkpt><trkpt lat="-24.0213334507176" lon="114.03952872093018"><ele>14.0</ele><time>2026-04-17T08:21:00Z</time></trkpt><trkpt lat="-24.02104262682638" lon="114.03958850587674"><ele>13.0</ele><time>2026-04-17T08:21:01Z</time></trkpt><trkpt lat="-24.02075100012582" lon="114.03964657951323"><ele>12.0</ele><time>2026-04-17T08:21:02Z</time></trkpt><trkpt lat="-24.020464364035806" lon="114.03970549411154"><ele>12.0</ele><time>2026-04-17T08:21:03Z</time></trkpt><trkpt lat="-24.02017551643577" lon="114.03976480181812"><ele>12.0</ele><time>2026-04-17T08:21:04Z</time></trkpt><trkpt lat="-24.01988762285061" lon="114.03982284289167"><ele>12.5</ele><time>2026-04-17T08:21:05Z</time></trkpt><trkpt lat="-24.01959612422709" lon="114.03988259797987"><ele>13.0</ele><time>2026-04-17T08:21:06Z</time></trkpt><trkpt lat="-24.01930548869715" lon="114.03994144301748"><ele>13.5</ele><time>2026-04-17T08:21:07Z</time></trkpt><trkpt lat="-24.019016596261178" lon="114.04000131442582"><ele>14.0</ele><time>2026-04-17T08:21:08Z</time></trkpt><trkpt lat="-24.01872995128782" lon="114.0400581454343"><ele>14.0</ele><time>2026-04-17T08:21:09Z</time></trkpt><trkpt lat="-24.018444463586615" lon="114.04010873589736"><ele>14.0</ele><time>2026-04-17T08:21:10Z</time></trkpt><trkpt lat="-24.018153483425863" lon="114.04014504261134"><ele>14.0</ele><time>2026-04-17T08:21:11Z</time></trkpt><trkpt lat="-24.017862821508864" lon="114.04016624270172"><ele>14.0</ele><time>2026-04-17T08:21:12Z</time></trkpt><trkpt lat="-24.017570497156193" lon="114.04017488781777"><ele>13.5</ele><time>2026-04-17T08:21:13Z</time></trkpt><trkpt lat="-24.01727593571093" lon="114.04017274339691"><ele>13.0</ele><time>2026-04-17T08:21:14Z</time></trkpt><trkpt lat="-24.016984841199985" lon="114.0401627733363"><ele>13.0</ele><time>2026-04-17T08:21:15Z</time></trkpt><trkpt lat="-24.016687531905426" lon="114.04014097491337"><ele>13.0</ele><time>2026-04-17T08:21:16Z</time></trkpt><trkpt lat="-24.0163911976368" lon="114.04011317464634"><ele>13.0</ele><time>2026-04-17T08:21:17Z</time></trkpt><trkpt lat="-24.016093344890546" lon="114.04008537527793"><ele>13.0</ele><time>2026-04-17T08:21:18Z</time></trkpt><trkpt lat="-24.015794421078624" lon="114.04006236151908"><ele>12.0</ele><time>2026-04-17T08:21:19Z</time></trkpt><trkpt lat="-24.015496590557156" lon="114.0400420897367"><ele>11.0</ele><time>2026-04-17T08:21:20Z</time></trkpt><trkpt lat="-24.015198746888323" lon="114.04002579071725"><ele>11.0</ele><time>2026-04-17T08:21:21Z</time></trkpt><trkpt lat="-24.01490194459811" lon="114.04000603235558"><ele>11.0</ele><time>2026-04-17T08:21:22Z</time></trkpt><trkpt lat="-24.01460208190906" lon="114.03998463502315"><ele>12.0</ele><time>2026-04-17T08:21:23Z</time></trkpt><trkpt lat="-24.014303202428174" lon="114.03996212540979"><ele>13.0</ele><time>2026-04-17T08:21:24Z</time></trkpt><trkpt lat="-24.014003091494622" lon="114.03994167760767"><ele>13.0</ele><time>2026-04-17T08:21:25Z</time></trkpt><trkpt lat="-24.013700113986815" lon="114.03992287256237"><ele>13.0</ele><time>2026-04-17T08:21:26Z</time></trkpt><trkpt lat="-24.013396832917714" lon="114.03990317506974"><ele>12.5</ele><time>2026-04-17T08:21:27Z</time></trkpt><trkpt lat="-24.013108079628598" lon="114.03988118730213"><ele>12.0</ele><time>2026-04-17T08:21:28Z</time></trkpt><trkpt lat="-24.012838159112327" lon="114.03985880819612"><ele>12.0</ele><time>2026-04-17T08:21:29Z</time></trkpt><trkpt lat="-24.012571335545605" lon="114.03983548723377"><ele>12.0</ele><time>2026-04-17T08:21:30Z</time></trkpt><trkpt lat="-24.012296794551443" lon="114.03981300976753"><ele>13.0</ele><time>2026-04-17T08:21:31Z</time></trkpt><trkpt lat="-24.01202020208759" lon="114.03979317608179"><ele>14.0</ele><time>2026-04-17T08:21:32Z</time></trkpt><trkpt lat="-24.011742125499584" lon="114.0397671067531"><ele>13.5</ele><time>2026-04-17T08:21:33Z</time></trkpt><trkpt lat="-24.01146315805015" lon="114.03973096883523"><ele>13.0</ele><time>2026-04-17T08:21:34Z</time></trkpt><trkpt lat="-24.011179824299056" lon="114.03968159465494"><ele>13.0</ele><time>2026-04-17T08:21:35Z</time></trkpt><trkpt lat="-24.010897265048527" lon="114.03963308741817"><ele>13.0</ele><time>2026-04-17T08:21:36Z</time></trkpt><trkpt lat="-24.010612768402982" lon="114.03958838511865"><ele>13.0</ele><time>2026-04-17T08:21:37Z</time></trkpt><trkpt lat="-24.0103259756444" lon="114.0395391281469"><ele>13.0</ele><time>2026-04-17T08:21:38Z</time></trkpt><trkpt lat="-24.01003644696656" lon="114.03948894168458"><ele>12.0</ele><time>2026-04-17T08:21:39Z</time></trkpt><trkpt lat="-24.009745846095242" lon="114.03944461589796"><ele>11.0</ele><time>2026-04-17T08:21:40Z</time></trkpt><trkpt lat="-24.009455136372694" lon="114.0393994220487"><ele>11.0</ele><time>2026-04-17T08:21:41Z</time></trkpt><trkpt lat="-24.009164489138893" lon="114.0393557752235"><ele>11.0</ele><time>2026-04-17T08:21:42Z</time></trkpt><trkpt lat="-24.008875161966582" lon="114.03931072347494"><ele>11.0</ele><time>2026-04-17T08:21:43Z</time></trkpt><trkpt lat="-24.008584417021037" lon="114.03926265579891"><ele>11.0</ele><time>2026-04-17T08:21:44Z</time></trkpt><trkpt lat="-24.008293814888393" lon="114.03921108284932"><ele>11.5</ele><time>2026-04-17T08:21:45Z</time></trkpt><trkpt lat="-24.007999205300273" lon="114.03916124935445"><ele>12.0</ele><time>2026-04-17T08:21:46Z</time></trkpt><trkpt lat="-24.007707050424123" lon="114.03911216543548"><ele>12.5</ele><time>2026-04-17T08:21:47Z</time></trkpt><trkpt lat="-24.007415656305966" lon="114.03906161004679"><ele>13.0</ele><time>2026-04-17T08:21:48Z</time></trkpt><trkpt lat="-24.00712609421538" lon="114.03901438230207"><ele>13.0</ele><time>2026-04-17T08:21:49Z</time></trkpt><trkpt lat="-24.00683363263939" lon="114.03896942751018"><ele>13.0</ele><time>2026-04-17T08:21:50Z</time></trkpt><trkpt lat="-24.0065436539505" lon="114.03892681868871"><ele>12.0</ele><time>2026-04-17T08:21:51Z</time></trkpt><trkpt lat="-24.00625307922587" lon="114.03888311896819"><ele>11.0</ele><time>2026-04-17T08:21:52Z</time></trkpt><trkpt lat="-24.005962433669623" lon="114.03883789114174"><ele>11.5</ele><time>2026-04-17T08:21:53Z</time></trkpt><trkpt lat="-24.00567530129967" lon="114.03879255342716"><ele>12.0</ele><time>2026-04-17T08:21:54Z</time></trkpt><trkpt lat="-24.00538869736486" lon="114.03874485110241"><ele>12.0</ele><time>2026-04-17T08:21:55Z</time></trkpt><trkpt lat="-24.00510563806024" lon="114.0386973187507"><ele>12.0</ele><time>2026-04-17T08:21:56Z</time></trkpt><trkpt lat="-24.00482210807353" lon="114.03865001588046"><ele>12.0</ele><time>2026-04-17T08:21:57Z</time></trkpt><trkpt lat="-24.004542992104586" lon="114.0386029926406"><ele>12.0</ele><time>2026-04-17T08:21:58Z</time></trkpt><trkpt lat="-24.0042629052058" lon="114.03855757949054"><ele>11.5</ele><time>2026-04-17T08:21:59Z</time></trkpt><trkpt lat="-24.003985872918236" lon="114.03851218552312"><ele>11.0</ele><time>2026-04-17T08:22:00Z</time></trkpt><trkpt lat="-24.00371012547804" lon="114.03846579227529"><ele>11.0</ele><time>2026-04-17T08:22:01Z</time></trkpt><trkpt lat="-24.003433694198595" lon="114.03842125690649"><ele>11.0</ele><time>2026-04-17T08:22:02Z</time></trkpt><trkpt lat="-24.003157452015373" lon="114.03837878113191"><ele>10.5</ele><time>2026-04-17T08:22:03Z</time></trkpt><trkpt lat="-24.00288767404364" lon="114.03833989756427"><ele>10.0</ele><time>2026-04-17T08:22:04Z</time></trkpt><trkpt lat="-24.00261528508612" lon="114.03829574514133"><ele>12.0</ele><time>2026-04-17T08:22:05Z</time></trkpt><trkpt lat="-24.002340821199628" lon="114.03824905236583"><ele>14.0</ele><time>2026-04-17T08:22:06Z</time></trkpt><trkpt lat="-24.00206860000873" lon="114.03820433788822"><ele>14.0</ele><time>2026-04-17T08:22:07Z</time></trkpt><trkpt lat="-24.00179751852136" lon="114.0381550170498"><ele>14.0</ele><time>2026-04-17T08:22:08Z</time></trkpt><trkpt lat="-24.001527070522" lon="114.03810457749344"><ele>14.5</ele><time>2026-04-17T08:22:09Z</time></trkpt><trkpt lat="-24.001252205887493" lon="114.03806087539823"><ele>15.0</ele><time>2026-04-17T08:22:10Z</time></trkpt><trkpt lat="-24.000972096802066" lon="114.03801958484277"><ele>14.5</ele><time>2026-04-17T08:22:11Z</time></trkpt><trkpt lat="-24.000690740601076" lon="114.03797662575616"><ele>14.0</ele><time>2026-04-17T08:22:12Z</time></trkpt><trkpt lat="-24.000410011990407" lon="114.03793083220543"><ele>14.0</ele><time>2026-04-17T08:22:13Z</time></trkpt><trkpt lat="-24.0001262830258" lon="114.03788319010282"><ele>14.0</ele><time>2026-04-17T08:22:14Z</time></trkpt><trkpt lat="-23.999837372305855" lon="114.03783631370624"><ele>14.0</ele><time>2026-04-17T08:22:15Z</time></trkpt><trkpt lat="-23.999548617287825" lon="114.03778660033787"><ele>14.0</ele><time>2026-04-17T08:22:16Z</time></trkpt><trkpt lat="-23.99925708945185" lon="114.03773834500807"><ele>13.5</ele><time>2026-04-17T08:22:17Z</time></trkpt><trkpt lat="-23.998961295329412" lon="114.03768893888342"><ele>13.0</ele><time>2026-04-17T08:22:18Z</time></trkpt><trkpt lat="-23.998659600080273" lon="114.03764140508282"><ele>13.0</ele><time>2026-04-17T08:22:19Z</time></trkpt><trkpt lat="-23.998358745405003" lon="114.03759308362761"><ele>13.0</ele><time>2026-04-17T08:22:20Z</time></trkpt><trkpt lat="-23.99805613209536" lon="114.03754224368862"><ele>13.5</ele><time>2026-04-17T08:22:21Z</time></trkpt><trkpt lat="-23.997754549916827" lon="114.03749397525091"><ele>14.0</ele><time>2026-04-17T08:22:22Z</time></trkpt><trkpt lat="-23.997454081093476" lon="114.03744891853499"><ele>15.5</ele><time>2026-04-17T08:22:23Z</time></trkpt><trkpt lat="-23.997156842040607" lon="114.03740235134296"><ele>17.0</ele><time>2026-04-17T08:22:24Z</time></trkpt><trkpt lat="-23.996858566758043" lon="114.03735091208006"><ele>16.0</ele><time>2026-04-17T08:22:25Z</time></trkpt><trkpt lat="-23.99655908498556" lon="114.03730031036149"><ele>15.0</ele><time>2026-04-17T08:22:26Z</time></trkpt><trkpt lat="-23.996261197957967" lon="114.03724976034613"><ele>15.0</ele><time>2026-04-17T08:22:27Z</time></trkpt><trkpt lat="-23.995966377196787" lon="114.0372003493439"><ele>15.0</ele><time>2026-04-17T08:22:28Z</time></trkpt><trkpt lat="-23.995669715038993" lon="114.03715023341648"><ele>15.5</ele><time>2026-04-17T08:22:29Z</time></trkpt><trkpt lat="-23.995374931222056" lon="114.03710222818438"><ele>16.0</ele><time>2026-04-17T08:22:30Z</time></trkpt><trkpt lat="-23.99507733053045" lon="114.03705400655559"><ele>15.5</ele><time>2026-04-17T08:22:31Z</time></trkpt><trkpt lat="-23.99477990788248" lon="114.03700706768987"><ele>15.0</ele><time>2026-04-17T08:22:32Z</time></trkpt><trkpt lat="-23.994483855321395" lon="114.03695743337691"><ele>15.0</ele><time>2026-04-17T08:22:33Z</time></trkpt><trkpt lat="-23.994187323101066" lon="114.03691136332749"><ele>15.0</ele><time>2026-04-17T08:22:34Z</time></trkpt><trkpt lat="-23.993889230916935" lon="114.03686121566982"><ele>14.0</ele><time>2026-04-17T08:22:35Z</time></trkpt><trkpt lat="-23.99359070955373" lon="114.03680919020731"><ele>13.0</ele><time>2026-04-17T08:22:36Z</time></trkpt><trkpt lat="-23.993293050811168" lon="114.0367617713883"><ele>13.0</ele><time>2026-04-17T08:22:37Z</time></trkpt><trkpt lat="-23.992992157882263" lon="114.03671815017577"><ele>13.0</ele><time>2026-04-17T08:22:38Z</time></trkpt><trkpt lat="-23.992694772885347" lon="114.03667605087736"><ele>14.0</ele><time>2026-04-17T08:22:39Z</time></trkpt><trkpt lat="-23.992395342251083" lon="114.03663209216899"><ele>15.0</ele><time>2026-04-17T08:22:40Z</time></trkpt><trkpt lat="-23.99209759691458" lon="114.0365847360533"><ele>15.0</ele><time>2026-04-17T08:22:41Z</time></trkpt><trkpt lat="-23.991796537530906" lon="114.0365328107733"><ele>15.0</ele><time>2026-04-17T08:22:42Z</time></trkpt><trkpt lat="-23.991497945954215" lon="114.03648299442068"><ele>15.0</ele><time>2026-04-17T08:22:43Z</time></trkpt><trkpt lat="-23.99119870220624" lon="114.03643144865705"><ele>15.0</ele><time>2026-04-17T08:22:44Z</time></trkpt><trkpt lat="-23.990897625552922" lon="114.03637477202848"><ele>14.5</ele><time>2026-04-17T08:22:45Z</time></trkpt><trkpt lat="-23.9905959839851" lon="114.03630933029486"><ele>14.0</ele><time>2026-04-17T08:22:46Z</time></trkpt><trkpt lat="-23.99029394685868" lon="114.03623392025304"><ele>14.0</ele><time>2026-04-17T08:22:47Z</time></trkpt><trkpt lat="-23.98999445174514" lon="114.03614926052"><ele>14.0</ele><time>2026-04-17T08:22:48Z</time></trkpt><trkpt lat="-23.989696787245556" lon="114.03605453503751"><ele>14.0</ele><time>2026-04-17T08:22:49Z</time></trkpt><trkpt lat="-23.989404887607737" lon="114.03594503575422"><ele>14.0</ele><time>2026-04-17T08:22:50Z</time></trkpt><trkpt lat="-23.98911637997625" lon="114.03582141824616"><ele>14.0</ele><time>2026-04-17T08:22:51Z</time></trkpt><trkpt lat="-23.988835752878355" lon="114.03568464441406"><ele>14.0</ele><time>2026-04-17T08:22:52Z</time></trkpt><trkpt lat="-23.988558517587492" lon="114.03553643979949"><ele>13.5</ele><time>2026-04-17T08:22:53Z</time></trkpt><trkpt lat="-23.98828742607285" lon="114.03537386045853"><ele>13.0</ele><time>2026-04-17T08:22:54Z</time></trkpt><trkpt lat="-23.988022042522694" lon="114.03520696846549"><ele>13.0</ele><time>2026-04-17T08:22:55Z</time></trkpt><trkpt lat="-23.98776106312995" lon="114.03503445631931"><ele>13.0</ele><time>2026-04-17T08:22:56Z</time></trkpt><trkpt lat="-23.987506689762387" lon="114.03485965069993"><ele>12.5</ele><time>2026-04-17T08:22:57Z</time></trkpt><trkpt lat="-23.987254617026938" lon="114.03468297045036"><ele>12.0</ele><time>2026-04-17T08:22:58Z</time></trkpt><trkpt lat="-23.987000013578886" lon="114.03450634318038"><ele>12.0</ele><time>2026-04-17T08:22:59Z</time></trkpt><trkpt lat="-23.986743728953215" lon="114.03433061437765"><ele>12.0</ele><time>2026-04-17T08:23:00Z</time></trkpt><trkpt lat="-23.9864855738046" lon="114.03415703453729"><ele>12.5</ele><time>2026-04-17T08:23:01Z</time></trkpt><trkpt lat="-23.986225670878365" lon="114.03398322662939"><ele>13.0</ele><time>2026-04-17T08:23:02Z</time></trkpt><trkpt lat="-23.98596535692649" lon="114.03381054954968"><ele>13.5</ele><time>2026-04-17T08:23:03Z</time></trkpt><trkpt lat="-23.98570959052729" lon="114.03363780911343"><ele>14.0</ele><time>2026-04-17T08:23:04Z</time></trkpt><trkpt lat="-23.985456778808345" lon="114.03346456762982"><ele>13.0</ele><time>2026-04-17T08:23:05Z</time></trkpt><trkpt lat="-23.98520314101105" lon="114.0332903296891"><ele>12.0</ele><time>2026-04-17T08:23:06Z</time></trkpt><trkpt lat="-23.984951830807272" lon="114.03311924812483"><ele>11.5</ele><time>2026-04-17T08:23:07Z</time></trkpt><trkpt lat="-23.984698734983752" lon="114.03295031731048"><ele>11.0</ele><time>2026-04-17T08:23:08Z</time></trkpt><trkpt lat="-23.98444688864504" lon="114.03278293260843"><ele>11.0</ele><time>2026-04-17T08:23:09Z</time></trkpt><trkpt lat="-23.98419648908757" lon="114.03261446480043"><ele>11.0</ele><time>2026-04-17T08:23:10Z</time></trkpt><trkpt lat="-23.983946120362415" lon="114.03244818772203"><ele>11.0</ele><time>2026-04-17T08:23:11Z</time></trkpt><trkpt lat="-23.98369434621343" lon="114.0322815298637"><ele>11.0</ele><time>2026-04-17T08:23:12Z</time></trkpt><trkpt lat="-23.983443532397807" lon="114.0321136477208"><ele>11.0</ele><time>2026-04-17T08:23:13Z</time></trkpt><trkpt lat="-23.98319462278735" lon="114.03194609777569"><ele>11.0</ele><time>2026-04-17T08:23:14Z</time></trkpt><trkpt lat="-23.982943657992006" lon="114.03177708956702"><ele>11.0</ele><time>2026-04-17T08:23:15Z</time></trkpt><trkpt lat="-23.982696401429482" lon="114.03160857156506"><ele>11.0</ele><time>2026-04-17T08:23:16Z</time></trkpt><trkpt lat="-23.982448470340056" lon="114.03144054115971"><ele>11.0</ele><time>2026-04-17T08:23:17Z</time></trkpt><trkpt lat="-23.9821967940156" lon="114.03127130253493"><ele>11.0</ele><time>2026-04-17T08:23:18Z</time></trkpt><trkpt lat="-23.981949203384975" lon="114.03110360093358"><ele>11.0</ele><time>2026-04-17T08:23:19Z</time></trkpt><trkpt lat="-23.981702539054872" lon="114.03093646565996"><ele>11.0</ele><time>2026-04-17T08:23:20Z</time></trkpt><trkpt lat="-23.981460041909614" lon="114.0307722603253"><ele>10.5</ele><time>2026-04-17T08:23:21Z</time></trkpt><trkpt lat="-23.981217418323055" lon="114.03060693778092"><ele>10.0</ele><time>2026-04-17T08:23:22Z</time></trkpt><trkpt lat="-23.98096920121282" lon="114.03043936650388"><ele>10.5</ele><time>2026-04-17T08:23:23Z</time></trkpt><trkpt lat="-23.980719766821206" lon="114.03027417363715"><ele>11.0</ele><time>2026-04-17T08:23:24Z</time></trkpt><trkpt lat="-23.980467455539685" lon="114.03010890355071"><ele>10.0</ele><time>2026-04-17T08:23:25Z</time></trkpt><trkpt lat="-23.980219663410196" lon="114.02994318557637"><ele>9.0</ele><time>2026-04-17T08:23:26Z</time></trkpt><trkpt lat="-23.979973328397172" lon="114.02977698393012"><ele>9.0</ele><time>2026-04-17T08:23:27Z</time></trkpt><trkpt lat="-23.97972777844362" lon="114.02961240121725"><ele>9.0</ele><time>2026-04-17T08:23:28Z</time></trkpt><trkpt lat="-23.979481409606976" lon="114.02944380743914"><ele>9.0</ele><time>2026-04-17T08:23:29Z</time></trkpt><trkpt lat="-23.979232659736926" lon="114.0292733986848"><ele>9.0</ele><time>2026-04-17T08:23:30Z</time></trkpt><trkpt lat="-23.9789830593778" lon="114.02910608321713"><ele>9.0</ele><time>2026-04-17T08:23:31Z</time></trkpt><trkpt lat="-23.978734499783197" lon="114.02893809467086"><ele>9.0</ele><time>2026-04-17T08:23:32Z</time></trkpt><trkpt lat="-23.978484657775773" lon="114.02876788243493"><ele>9.5</ele><time>2026-04-17T08:23:33Z</time></trkpt><trkpt lat="-23.978238460218158" lon="114.02860006315312"><ele>10.0</ele><time>2026-04-17T08:23:34Z</time></trkpt><trkpt lat="-23.97799285214072" lon="114.02843628305665"><ele>10.0</ele><time>2026-04-17T08:23:35Z</time></trkpt><trkpt lat="-23.977750645943186" lon="114.02827325258723"><ele>10.0</ele><time>2026-04-17T08:23:36Z</time></trkpt><trkpt lat="-23.977511114674137" lon="114.02810633268932"><ele>10.0</ele><time>2026-04-17T08:23:37Z</time></trkpt><trkpt lat="-23.97727279338822" lon="114.02794364823012"><ele>10.0</ele><time>2026-04-17T08:23:38Z</time></trkpt><trkpt lat="-23.977031178958555" lon="114.02778796316343"><ele>10.0</ele><time>2026-04-17T08:23:39Z</time></trkpt><trkpt lat="-23.976791918084068" lon="114.02763966641099"><ele>10.0</ele><time>2026-04-17T08:23:40Z</time></trkpt><trkpt lat="-23.976551810005656" lon="114.02749966936153"><ele>10.0</ele><time>2026-04-17T08:23:41Z</time></trkpt><trkpt lat="-23.976307978064835" lon="114.02737046072424"><ele>10.0</ele><time>2026-04-17T08:23:42Z</time></trkpt><trkpt lat="-23.976061216152686" lon="114.02725406525782"><ele>10.5</ele><time>2026-04-17T08:23:43Z</time></trkpt><trkpt lat="-23.97580871178968" lon="114.0271464934291"><ele>11.0</ele><time>2026-04-17T08:23:44Z</time></trkpt><trkpt lat="-23.975551183560523" lon="114.02704204588059"><ele>11.0</ele><time>2026-04-17T08:23:45Z</time></trkpt><trkpt lat="-23.97529251066529" lon="114.02694184961851"><ele>11.0</ele><time>2026-04-17T08:23:46Z</time></trkpt><trkpt lat="-23.975029288536795" lon="114.02685188341002"><ele>10.5</ele><time>2026-04-17T08:23:47Z</time></trkpt><trkpt lat="-23.974759380749468" lon="114.02677688076861"><ele>10.0</ele><time>2026-04-17T08:23:48Z</time></trkpt><trkpt lat="-23.974485431573257" lon="114.02671370624365"><ele>10.0</ele><time>2026-04-17T08:23:49Z</time></trkpt><trkpt lat="-23.974210231949552" lon="114.02665294582131"><ele>10.0</ele><time>2026-04-17T08:23:50Z</time></trkpt><trkpt lat="-23.973936929700997" lon="114.02659118872171"><ele>11.0</ele><time>2026-04-17T08:23:51Z</time></trkpt><trkpt lat="-23.973662374983" lon="114.02652768696464"><ele>12.0</ele><time>2026-04-17T08:23:52Z</time></trkpt><trkpt lat="-23.97339032823713" lon="114.02646404686828"><ele>11.0</ele><time>2026-04-17T08:23:53Z</time></trkpt><trkpt lat="-23.973116873478574" lon="114.02639957907444"><ele>10.0</ele><time>2026-04-17T08:23:54Z</time></trkpt><trkpt lat="-23.972843859711645" lon="114.02633504079142"><ele>10.0</ele><time>2026-04-17T08:23:55Z</time></trkpt><trkpt lat="-23.972571116487202" lon="114.02627274402674"><ele>10.0</ele><time>2026-04-17T08:23:56Z</time></trkpt><trkpt lat="-23.972297510155983" lon="114.02621105935036"><ele>11.0</ele><time>2026-04-17T08:23:57Z</time></trkpt><trkpt lat="-23.972025546844115" lon="114.02614976463822"><ele>12.0</ele><time>2026-04-17T08:23:58Z</time></trkpt><trkpt lat="-23.971745117079163" lon="114.02608668691559"><ele>12.0</ele><time>2026-04-17T08:23:59Z</time></trkpt><trkpt lat="-23.97147188156879" lon="114.0260245842322"><ele>12.0</ele><time>2026-04-17T08:24:00Z</time></trkpt><trkpt lat="-23.97121938603664" lon="114.0259660306259"><ele>12.0</ele><time>2026-04-17T08:24:01Z</time></trkpt><trkpt lat="-23.97097602105063" lon="114.0259073111895"><ele>12.0</ele><time>2026-04-17T08:24:02Z</time></trkpt><trkpt lat="-23.970725337491448" lon="114.02584576753839"><ele>11.5</ele><time>2026-04-17T08:24:03Z</time></trkpt><trkpt lat="-23.970469730884762" lon="114.02578244337722"><ele>11.0</ele><time>2026-04-17T08:24:04Z</time></trkpt><trkpt lat="-23.97021238692231" lon="114.02572192094205"><ele>11.5</ele><time>2026-04-17T08:24:05Z</time></trkpt><trkpt lat="-23.969949581340426" lon="114.02565884186478"><ele>12.0</ele><time>2026-04-17T08:24:06Z</time></trkpt><trkpt lat="-23.969701264515667" lon="114.02559953130194"><ele>12.0</ele><time>2026-04-17T08:24:07Z</time></trkpt><trkpt lat="-23.969453915684966" lon="114.02554345075346"><ele>12.0</ele><time>2026-04-17T08:24:08Z</time></trkpt><trkpt lat="-23.969199722757953" lon="114.02548898698895"><ele>12.0</ele><time>2026-04-17T08:24:09Z</time></trkpt><trkpt lat="-23.96894142657438" lon="114.025428730919"><ele>12.0</ele><time>2026-04-17T08:24:10Z</time></trkpt><trkpt lat="-23.96868113070214" lon="114.02536612446943"><ele>12.0</ele><time>2026-04-17T08:24:11Z</time></trkpt><trkpt lat="-23.96842191188124" lon="114.02530527713084"><ele>12.0</ele><time>2026-04-17T08:24:12Z</time></trkpt><trkpt lat="-23.96815751288476" lon="114.02524527333824"><ele>12.0</ele><time>2026-04-17T08:24:13Z</time></trkpt><trkpt lat="-23.96789354272469" lon="114.02518565233594"><ele>12.0</ele><time>2026-04-17T08:24:14Z</time></trkpt><trkpt lat="-23.96763023212175" lon="114.02512675322498"><ele>12.0</ele><time>2026-04-17T08:24:15Z</time></trkpt><trkpt lat="-23.96737368000778" lon="114.02507001518185"><ele>12.0</ele><time>2026-04-17T08:24:16Z</time></trkpt><trkpt lat="-23.96711232331223" lon="114.0250105270699"><ele>12.0</ele><time>2026-04-17T08:24:17Z</time></trkpt><trkpt lat="-23.966851123894234" lon="114.02495173342325"><ele>12.0</ele><time>2026-04-17T08:24:18Z</time></trkpt><trkpt lat="-23.966591297705687" lon="114.02489237735529"><ele>12.0</ele><time>2026-04-17T08:24:19Z</time></trkpt><trkpt lat="-23.966328282118994" lon="114.02483690780235"><ele>12.0</ele><time>2026-04-17T08:24:20Z</time></trkpt><trkpt lat="-23.966063960698108" lon="114.02478005481046"><ele>12.0</ele><time>2026-04-17T08:24:21Z</time></trkpt><trkpt lat="-23.965799303474327" lon="114.02472072700999"><ele>12.0</ele><time>2026-04-17T08:24:22.001Z</time></trkpt><trkpt lat="-23.96552547366425" lon="114.02465900683468"><ele>12.0</ele><time>2026-04-17T08:24:23.001Z</time></trkpt><trkpt lat="-23.965248852228196" lon="114.0245948370925"><ele>12.0</ele><time>2026-04-17T08:24:24.001Z</time></trkpt><trkpt lat="-23.964964852314218" lon="114.0245283353031"><ele>12.5</ele><time>2026-04-17T08:24:25.001Z</time></trkpt><trkpt lat="-23.964677669070323" lon="114.02445897501808"><ele>13.0</ele><time>2026-04-17T08:24:26.001Z</time></trkpt><trkpt lat="-23.964385492696454" lon="114.0243892882806"><ele>12.5</ele><time>2026-04-17T08:24:27.001Z</time></trkpt><trkpt lat="-23.964094705214592" lon="114.0243208370187"><ele>12.0</ele><time>2026-04-17T08:24:28.001Z</time></trkpt><trkpt lat="-23.9637998548409" lon="114.02425017048596"><ele>12.0</ele><time>2026-04-17T08:24:29.001Z</time></trkpt><trkpt lat="-23.963499134799953" lon="114.02418035024131"><ele>12.0</ele><time>2026-04-17T08:24:30.001Z</time></trkpt><trkpt lat="-23.963197640276707" lon="114.02410998504105"><ele>10.0</ele><time>2026-04-17T08:24:31.001Z</time></trkpt><trkpt lat="-23.962897434491023" lon="114.02404183672144"><ele>8.0</ele><time>2026-04-17T08:24:32.001Z</time></trkpt><trkpt lat="-23.962598925876" lon="114.02397418619466"><ele>8.5</ele><time>2026-04-17T08:24:33.001Z</time></trkpt><trkpt lat="-23.96230326307389" lon="114.02390644227725"><ele>9.0</ele><time>2026-04-17T08:24:34.001Z</time></trkpt><trkpt lat="-23.962004954763493" lon="114.02383587463856"><ele>9.0</ele><time>2026-04-17T08:24:35.001Z</time></trkpt><trkpt lat="-23.961704502080938" lon="114.02376366189344"><ele>9.0</ele><time>2026-04-17T08:24:36.001Z</time></trkpt><trkpt lat="-23.961404631688964" lon="114.02369235425903"><ele>9.0</ele><time>2026-04-17T08:24:37.001Z</time></trkpt><trkpt lat="-23.961105037958244" lon="114.02362421715247"><ele>9.0</ele><time>2026-04-17T08:24:38.001Z</time></trkpt><trkpt lat="-23.960808159625742" lon="114.0235570401143"><ele>9.0</ele><time>2026-04-17T08:24:39.001Z</time></trkpt><trkpt lat="-23.96050996979862" lon="114.02348926405939"><ele>9.0</ele><time>2026-04-17T08:24:40.001Z</time></trkpt><trkpt lat="-23.960210939340403" lon="114.02341954274783"><ele>9.5</ele><time>2026-04-17T08:24:41.001Z</time></trkpt><trkpt lat="-23.95990947794554" lon="114.02335077029491"><ele>10.0</ele><time>2026-04-17T08:24:42.001Z</time></trkpt><trkpt lat="-23.959604966009458" lon="114.02328184180622"><ele>10.0</ele><time>2026-04-17T08:24:43.001Z</time></trkpt><trkpt lat="-23.95930574998079" lon="114.02321363864151"><ele>10.0</ele><time>2026-04-17T08:24:44.001Z</time></trkpt><trkpt lat="-23.95900307470962" lon="114.02314468856314"><ele>10.0</ele><time>2026-04-17T08:24:45.001Z</time></trkpt><trkpt lat="-23.95870120759379" lon="114.02307065241753"><ele>10.0</ele><time>2026-04-17T08:24:46.001Z</time></trkpt><trkpt lat="-23.958398874636977" lon="114.02299752696118"><ele>11.0</ele><time>2026-04-17T08:24:47.001Z</time></trkpt><trkpt lat="-23.95809470898724" lon="114.02292834103741"><ele>12.0</ele><time>2026-04-17T08:24:48.001Z</time></trkpt><trkpt lat="-23.95779108960746" lon="114.02285760297215"><ele>12.5</ele><time>2026-04-17T08:24:49.001Z</time></trkpt><trkpt lat="-23.95748479539997" lon="114.02278707683743"><ele>13.0</ele><time>2026-04-17T08:24:50.001Z</time></trkpt><trkpt lat="-23.95717678394962" lon="114.02271794254676"><ele>13.0</ele><time>2026-04-17T08:24:51Z</time></trkpt><trkpt lat="-23.956869987098067" lon="114.02264783110554"><ele>13.0</ele><time>2026-04-17T08:24:52Z</time></trkpt><trkpt lat="-23.956559642183475" lon="114.02257856962964"><ele>12.5</ele><time>2026-04-17T08:24:53Z</time></trkpt><trkpt lat="-23.95624987542712" lon="114.02250996750517"><ele>12.0</ele><time>2026-04-17T08:24:54Z</time></trkpt><trkpt lat="-23.955942777058276" lon="114.02244692254312"><ele>11.0</ele><time>2026-04-17T08:24:55Z</time></trkpt><trkpt lat="-23.95563455984645" lon="114.02239603296053"><ele>10.0</ele><time>2026-04-17T08:24:56Z</time></trkpt><trkpt lat="-23.95532291068654" lon="114.02235698021939"><ele>11.0</ele><time>2026-04-17T08:24:57Z</time></trkpt><trkpt lat="-23.955011181753704" lon="114.0223337531534"><ele>12.0</ele><time>2026-04-17T08:24:58Z</time></trkpt><trkpt lat="-23.95469729468233" lon="114.02232179943364"><ele>12.0</ele><time>2026-04-17T08:24:59Z</time></trkpt><trkpt lat="-23.954380013958357" lon="114.0223248986059"><ele>12.0</ele><time>2026-04-17T08:25:00Z</time></trkpt><trkpt lat="-23.954061146747957" lon="114.02234048292591"><ele>12.0</ele><time>2026-04-17T08:25:01Z</time></trkpt><trkpt lat="-23.953743426342047" lon="114.02236819496788"><ele>12.0</ele><time>2026-04-17T08:25:02Z</time></trkpt><trkpt lat="-23.953426015632306" lon="114.0224097140698"><ele>11.5</ele><time>2026-04-17T08:25:03Z</time></trkpt><trkpt lat="-23.953112652641646" lon="114.02246101348163"><ele>11.0</ele><time>2026-04-17T08:25:04Z</time></trkpt><trkpt lat="-23.95280274135321" lon="114.02251175152213"><ele>10.5</ele><time>2026-04-17T08:25:05Z</time></trkpt><trkpt lat="-23.952492247272154" lon="114.02255648921644"><ele>10.0</ele><time>2026-04-17T08:25:06Z</time></trkpt><trkpt lat="-23.952179694061158" lon="114.02259591565056"><ele>10.0</ele><time>2026-04-17T08:25:07Z</time></trkpt><trkpt lat="-23.951863909118597" lon="114.02263467559236"><ele>10.0</ele><time>2026-04-17T08:25:08Z</time></trkpt><trkpt lat="-23.951552827346397" lon="114.02267440661375"><ele>10.5</ele><time>2026-04-17T08:25:09Z</time></trkpt><trkpt lat="-23.951238795750648" lon="114.02270984372156"><ele>11.0</ele><time>2026-04-17T08:25:10Z</time></trkpt><trkpt lat="-23.950925873546353" lon="114.02274570513634"><ele>12.0</ele><time>2026-04-17T08:25:11Z</time></trkpt><trkpt lat="-23.95061355265951" lon="114.02278447119959"><ele>13.0</ele><time>2026-04-17T08:25:12Z</time></trkpt><trkpt lat="-23.950298725879154" lon="114.02282488067304"><ele>12.5</ele><time>2026-04-17T08:25:13Z</time></trkpt><trkpt lat="-23.949983919834725" lon="114.02286380094833"><ele>12.0</ele><time>2026-04-17T08:25:14Z</time></trkpt><trkpt lat="-23.949668288939495" lon="114.02290470266618"><ele>12.0</ele><time>2026-04-17T08:25:15Z</time></trkpt><trkpt lat="-23.949349284472095" lon="114.02294717629881"><ele>12.0</ele><time>2026-04-17T08:25:16Z</time></trkpt><trkpt lat="-23.949028580749626" lon="114.02298871016967"><ele>12.0</ele><time>2026-04-17T08:25:17Z</time></trkpt><trkpt lat="-23.948706074661" lon="114.02302797297396"><ele>12.0</ele><time>2026-04-17T08:25:18Z</time></trkpt><trkpt lat="-23.94838543134749" lon="114.02306944999891"><ele>11.5</ele><time>2026-04-17T08:25:19Z</time></trkpt><trkpt lat="-23.948066549487304" lon="114.02310922745473"><ele>11.0</ele><time>2026-04-17T08:25:20Z</time></trkpt><trkpt lat="-23.947744726760707" lon="114.02315133485261"><ele>11.0</ele><time>2026-04-17T08:25:21Z</time></trkpt><trkpt lat="-23.94742213560928" lon="114.02319258006885"><ele>11.0</ele><time>2026-04-17T08:25:22Z</time></trkpt><trkpt lat="-23.947099090824526" lon="114.02323327644284"><ele>11.0</ele><time>2026-04-17T08:25:23Z</time></trkpt><trkpt lat="-23.94677753010569" lon="114.0232737701435"><ele>11.0</ele><time>2026-04-17T08:25:24Z</time></trkpt><trkpt lat="-23.94645377698095" lon="114.02331420985787"><ele>11.0</ele><time>2026-04-17T08:25:25Z</time></trkpt><trkpt lat="-23.946129321552593" lon="114.02335631012781"><ele>11.0</ele><time>2026-04-17T08:25:26Z</time></trkpt><trkpt lat="-23.94580407085448" lon="114.0233986296845"><ele>11.0</ele><time>2026-04-17T08:25:27Z</time></trkpt><trkpt lat="-23.94548039780095" lon="114.02344255912058"><ele>11.0</ele><time>2026-04-17T08:25:28Z</time></trkpt><trkpt lat="-23.945155522687777" lon="114.02348688270799"><ele>11.0</ele><time>2026-04-17T08:25:29Z</time></trkpt><trkpt lat="-23.94482827933145" lon="114.0235291660284"><ele>11.0</ele><time>2026-04-17T08:25:30Z</time></trkpt><trkpt lat="-23.944504990422757" lon="114.02356653913729"><ele>12.0</ele><time>2026-04-17T08:25:31Z</time></trkpt><trkpt lat="-23.944178652948985" lon="114.02360884811037"><ele>13.0</ele><time>2026-04-17T08:25:32Z</time></trkpt><trkpt lat="-23.943854971691373" lon="114.02365233903195"><ele>13.0</ele><time>2026-04-17T08:25:33Z</time></trkpt><trkpt lat="-23.943530024103957" lon="114.0236911661638"><ele>13.0</ele><time>2026-04-17T08:25:34Z</time></trkpt><trkpt lat="-23.94320356748536" lon="114.0237331077189"><ele>12.0</ele><time>2026-04-17T08:25:35Z</time></trkpt><trkpt lat="-23.94287967474199" lon="114.02377467998694"><ele>11.0</ele><time>2026-04-17T08:25:36Z</time></trkpt><trkpt lat="-23.94255937633197" lon="114.02381686473977"><ele>10.5</ele><time>2026-04-17T08:25:37Z</time></trkpt><trkpt lat="-23.942241590654657" lon="114.02385716006457"><ele>10.0</ele><time>2026-04-17T08:25:38Z</time></trkpt><trkpt lat="-23.941924210413408" lon="114.02389706480426"><ele>10.0</ele><time>2026-04-17T08:25:39Z</time></trkpt><trkpt lat="-23.941610117281886" lon="114.02393663807727"><ele>10.0</ele><time>2026-04-17T08:25:40Z</time></trkpt><trkpt lat="-23.94129444423225" lon="114.02397739258181"><ele>10.0</ele><time>2026-04-17T08:25:41Z</time></trkpt><trkpt lat="-23.940981368970178" lon="114.02402152991361"><ele>10.0</ele><time>2026-04-17T08:25:42Z</time></trkpt><trkpt lat="-23.940668479041612" lon="114.02406487738018"><ele>10.0</ele><time>2026-04-17T08:25:43Z</time></trkpt><trkpt lat="-23.94035598891585" lon="114.02410583605995"><ele>10.0</ele><time>2026-04-17T08:25:44Z</time></trkpt><trkpt lat="-23.94004076634694" lon="114.02414767980363"><ele>10.0</ele><time>2026-04-17T08:25:45Z</time></trkpt><trkpt lat="-23.939722604391832" lon="114.02418829337317"><ele>10.0</ele><time>2026-04-17T08:25:46Z</time></trkpt><trkpt lat="-23.939402712450892" lon="114.02422621233829"><ele>10.5</ele><time>2026-04-17T08:25:47Z</time></trkpt><trkpt lat="-23.939082508425845" lon="114.02426511917996"><ele>11.0</ele><time>2026-04-17T08:25:48Z</time></trkpt><trkpt lat="-23.938767767073365" lon="114.02430504667961"><ele>11.0</ele><time>2026-04-17T08:25:49Z</time></trkpt><trkpt lat="-23.938452657994908" lon="114.02434518161095"><ele>11.0</ele><time>2026-04-17T08:25:50Z</time></trkpt><trkpt lat="-23.93814111088479" lon="114.02438583929579"><ele>11.0</ele><time>2026-04-17T08:25:51Z</time></trkpt><trkpt lat="-23.93783412848476" lon="114.02442935124564"><ele>11.0</ele><time>2026-04-17T08:25:52Z</time></trkpt><trkpt lat="-23.937526679310036" lon="114.02447072902599"><ele>11.5</ele><time>2026-04-17T08:25:53Z</time></trkpt><trkpt lat="-23.937224449582875" lon="114.02451308150562"><ele>12.0</ele><time>2026-04-17T08:25:54Z</time></trkpt><trkpt lat="-23.9369245171546" lon="114.02455498988574"><ele>12.0</ele><time>2026-04-17T08:25:55Z</time></trkpt><trkpt lat="-23.93662180705446" lon="114.02459051523931"><ele>12.0</ele><time>2026-04-17T08:25:56Z</time></trkpt><trkpt lat="-23.93632396221969" lon="114.02462593425992"><ele>12.0</ele><time>2026-04-17T08:25:57Z</time></trkpt><trkpt lat="-23.936029439391255" lon="114.02466315515119"><ele>12.0</ele><time>2026-04-17T08:25:58Z</time></trkpt><trkpt lat="-23.935738044471943" lon="114.02470110130784"><ele>11.5</ele><time>2026-04-17T08:25:59Z</time></trkpt><trkpt lat="-23.935447227481543" lon="114.02473553841688"><ele>11.0</ele><time>2026-04-17T08:26:00Z</time></trkpt><trkpt lat="-23.935157073190812" lon="114.02476990363067"><ele>11.0</ele><time>2026-04-17T08:26:01Z</time></trkpt><trkpt lat="-23.934867041702343" lon="114.02480448219974"><ele>11.0</ele><time>2026-04-17T08:26:02Z</time></trkpt><trkpt lat="-23.93457837887984" lon="114.02484388135089"><ele>11.0</ele><time>2026-04-17T08:26:03Z</time></trkpt><trkpt lat="-23.93429018011721" lon="114.02488109087173"><ele>11.0</ele><time>2026-04-17T08:26:04Z</time></trkpt><trkpt lat="-23.934002624834847" lon="114.02491951544935"><ele>11.5</ele><time>2026-04-17T08:26:05Z</time></trkpt><trkpt lat="-23.933713209984262" lon="114.02495848023275"><ele>12.0</ele><time>2026-04-17T08:26:06Z</time></trkpt><trkpt lat="-23.93342625454138" lon="114.02500428710418"><ele>12.0</ele><time>2026-04-17T08:26:07Z</time></trkpt><trkpt lat="-23.933140735338814" lon="114.02505360328036"><ele>12.0</ele><time>2026-04-17T08:26:08Z</time></trkpt><trkpt lat="-23.932851820261796" lon="114.02509841923619"><ele>12.0</ele><time>2026-04-17T08:26:09Z</time></trkpt><trkpt lat="-23.932563420667666" lon="114.02514906596977"><ele>12.0</ele><time>2026-04-17T08:26:10Z</time></trkpt><trkpt lat="-23.93227883619124" lon="114.02520827395352"><ele>11.5</ele><time>2026-04-17T08:26:11Z</time></trkpt><trkpt lat="-23.931993061719453" lon="114.02527446411409"><ele>11.0</ele><time>2026-04-17T08:26:12Z</time></trkpt><trkpt lat="-23.93170670335017" lon="114.0253426349586"><ele>11.0</ele><time>2026-04-17T08:26:13Z</time></trkpt><trkpt lat="-23.93141703982421" lon="114.02540430801852"><ele>11.0</ele><time>2026-04-17T08:26:14Z</time></trkpt><trkpt lat="-23.931115968861118" lon="114.02546356767579"><ele>11.0</ele><time>2026-04-17T08:26:15Z</time></trkpt><trkpt lat="-23.930810303527785" lon="114.02552678492899"><ele>11.0</ele><time>2026-04-17T08:26:16Z</time></trkpt><trkpt lat="-23.93050782521741" lon="114.0255986647002"><ele>11.0</ele><time>2026-04-17T08:26:17Z</time></trkpt><trkpt lat="-23.93020516811393" lon="114.02567741757011"><ele>11.0</ele><time>2026-04-17T08:26:18Z</time></trkpt><trkpt lat="-23.92990287059312" lon="114.02576010009025"><ele>10.5</ele><time>2026-04-17T08:26:19Z</time></trkpt><trkpt lat="-23.929603729892257" lon="114.02584438890082"><ele>10.0</ele><time>2026-04-17T08:26:20Z</time></trkpt><trkpt lat="-23.929305480059284" lon="114.02593010497594"><ele>11.5</ele><time>2026-04-17T08:26:21Z</time></trkpt><trkpt lat="-23.92900814643616" lon="114.02601552414187"><ele>13.0</ele><time>2026-04-17T08:26:22Z</time></trkpt><trkpt lat="-23.928710774850064" lon="114.0261022979488"><ele>13.0</ele><time>2026-04-17T08:26:23Z</time></trkpt><trkpt lat="-23.928412117328484" lon="114.02618848111814"><ele>13.0</ele><time>2026-04-17T08:26:24Z</time></trkpt><trkpt lat="-23.928115161891714" lon="114.02627000753681"><ele>12.5</ele><time>2026-04-17T08:26:25Z</time></trkpt><trkpt lat="-23.927821191604117" lon="114.02635182154648"><ele>12.0</ele><time>2026-04-17T08:26:26Z</time></trkpt><trkpt lat="-23.927529132626308" lon="114.026438331601"><ele>11.5</ele><time>2026-04-17T08:26:27Z</time></trkpt><trkpt lat="-23.927239173496417" lon="114.02652663574219"><ele>11.0</ele><time>2026-04-17T08:26:28.001Z</time></trkpt><trkpt lat="-23.926954371896517" lon="114.02661097192458"><ele>11.5</ele><time>2026-04-17T08:26:29.001Z</time></trkpt><trkpt lat="-23.926667625254492" lon="114.02669360334104"><ele>12.0</ele><time>2026-04-17T08:26:30.001Z</time></trkpt><trkpt lat="-23.92638018700712" lon="114.02677076026731"><ele>12.0</ele><time>2026-04-17T08:26:31.001Z</time></trkpt><trkpt lat="-23.926091119652945" lon="114.02685081968659"><ele>12.0</ele><time>2026-04-17T08:26:32.001Z</time></trkpt><trkpt lat="-23.925803167119167" lon="114.02693492324622"><ele>11.5</ele><time>2026-04-17T08:26:33.001Z</time></trkpt><trkpt lat="-23.925511820493043" lon="114.02702059051082"><ele>11.0</ele><time>2026-04-17T08:26:34.001Z</time></trkpt><trkpt lat="-23.9252220331467" lon="114.02710341048738"><ele>10.0</ele><time>2026-04-17T08:26:35.001Z</time></trkpt><trkpt lat="-23.924933183361375" lon="114.02718776386685"><ele>9.0</ele><time>2026-04-17T08:26:36.001Z</time></trkpt><trkpt lat="-23.92464188147747" lon="114.0272743109547"><ele>9.0</ele><time>2026-04-17T08:26:37.001Z</time></trkpt><trkpt lat="-23.924355258712534" lon="114.02735846321008"><ele>9.0</ele><time>2026-04-17T08:26:38.001Z</time></trkpt><trkpt lat="-23.924068894329864" lon="114.02744245316592"><ele>10.5</ele><time>2026-04-17T08:26:39.001Z</time></trkpt><trkpt lat="-23.92378254799455" lon="114.0275233720544"><ele>12.0</ele><time>2026-04-17T08:26:40.001Z</time></trkpt><trkpt lat="-23.92349456708718" lon="114.02760618635283"><ele>12.0</ele><time>2026-04-17T08:26:41.001Z</time></trkpt><trkpt lat="-23.92320159853866" lon="114.02768877703537"><ele>12.0</ele><time>2026-04-17T08:26:42.001Z</time></trkpt><trkpt lat="-23.922910832487673" lon="114.0277762498663"><ele>12.0</ele><time>2026-04-17T08:26:43.001Z</time></trkpt><trkpt lat="-23.9226159087472" lon="114.02786501686391"><ele>12.0</ele><time>2026-04-17T08:26:44.001Z</time></trkpt><trkpt lat="-23.92231953246725" lon="114.02795302497573"><ele>11.5</ele><time>2026-04-17T08:26:45.001Z</time></trkpt><trkpt lat="-23.922018290502464" lon="114.02803803794987"><ele>11.0</ele><time>2026-04-17T08:26:46.001Z</time></trkpt><trkpt lat="-23.92171595118272" lon="114.02812001282952"><ele>11.0</ele><time>2026-04-17T08:26:47.001Z</time></trkpt><trkpt lat="-23.921412679243183" lon="114.02820517136158"><ele>11.0</ele><time>2026-04-17T08:26:48.001Z</time></trkpt><trkpt lat="-23.921114135277154" lon="114.02829318865143"><ele>11.5</ele><time>2026-04-17T08:26:49.001Z</time></trkpt><trkpt lat="-23.920815600092574" lon="114.02837938009583"><ele>12.0</ele><time>2026-04-17T08:26:50.001Z</time></trkpt><trkpt lat="-23.920517436202523" lon="114.02846726529856"><ele>12.0</ele><time>2026-04-17T08:26:51.001Z</time></trkpt><trkpt lat="-23.92021910267444" lon="114.02855366120929"><ele>12.0</ele><time>2026-04-17T08:26:52.001Z</time></trkpt><trkpt lat="-23.91992486830777" lon="114.02863802878865"><ele>13.0</ele><time>2026-04-17T08:26:53.001Z</time></trkpt><trkpt lat="-23.919635171314315" lon="114.02871970383148"><ele>14.0</ele><time>2026-04-17T08:26:54.001Z</time></trkpt><trkpt lat="-23.91934823239583" lon="114.02880041953927"><ele>13.0</ele><time>2026-04-17T08:26:55.001Z</time></trkpt><trkpt lat="-23.91906272814436" lon="114.0288785999681"><ele>12.0</ele><time>2026-04-17T08:26:56Z</time></trkpt><trkpt lat="-23.918775728761226" lon="114.02895340402141"><ele>12.0</ele><time>2026-04-17T08:26:57Z</time></trkpt><trkpt lat="-23.9184847789766" lon="114.02902469384314"><ele>12.0</ele><time>2026-04-17T08:26:58Z</time></trkpt><trkpt lat="-23.91819227753369" lon="114.02909304694322"><ele>12.0</ele><time>2026-04-17T08:26:59Z</time></trkpt><trkpt lat="-23.91789618195428" lon="114.02915502704421"><ele>12.0</ele><time>2026-04-17T08:27:00Z</time></trkpt><trkpt lat="-23.917593117831814" lon="114.02921207063447"><ele>13.0</ele><time>2026-04-17T08:27:01Z</time></trkpt><trkpt lat="-23.917289928394798" lon="114.02926863135264"><ele>14.0</ele><time>2026-04-17T08:27:02Z</time></trkpt><trkpt lat="-23.916986562315333" lon="114.02932146747911"><ele>13.5</ele><time>2026-04-17T08:27:03Z</time></trkpt><trkpt lat="-23.91668701531746" lon="114.02937084435895"><ele>13.0</ele><time>2026-04-17T08:27:04Z</time></trkpt><trkpt lat="-23.91638534481018" lon="114.02941534127724"><ele>13.0</ele><time>2026-04-17T08:27:05Z</time></trkpt><trkpt lat="-23.91608065399897" lon="114.029451179199"><ele>13.0</ele><time>2026-04-17T08:27:06Z</time></trkpt><trkpt lat="-23.9157747231583" lon="114.0294778759576"><ele>12.0</ele><time>2026-04-17T08:27:07Z</time></trkpt><trkpt lat="-23.915469522847648" lon="114.02950007196665"><ele>11.0</ele><time>2026-04-17T08:27:08Z</time></trkpt><trkpt lat="-23.915161683317894" lon="114.02952181205222"><ele>12.0</ele><time>2026-04-17T08:27:09Z</time></trkpt><trkpt lat="-23.914854022414662" lon="114.02954188196648"><ele>13.0</ele><time>2026-04-17T08:27:10Z</time></trkpt><trkpt lat="-23.91454651523119" lon="114.029559788485"><ele>13.0</ele><time>2026-04-17T08:27:11Z</time></trkpt><trkpt lat="-23.914238485247616" lon="114.02957119042"><ele>13.0</ele><time>2026-04-17T08:27:12Z</time></trkpt><trkpt lat="-23.913930186776174" lon="114.0295758424972"><ele>12.5</ele><time>2026-04-17T08:27:13Z</time></trkpt><trkpt lat="-23.913621918255345" lon="114.0295707560401"><ele>12.0</ele><time>2026-04-17T08:27:14Z</time></trkpt><trkpt lat="-23.913312398569605" lon="114.02956211954545"><ele>12.0</ele><time>2026-04-17T08:27:15Z</time></trkpt><trkpt lat="-23.913004525811633" lon="114.02955144176947"><ele>12.0</ele><time>2026-04-17T08:27:16Z</time></trkpt><trkpt lat="-23.91269689525489" lon="114.0295403999787"><ele>11.5</ele><time>2026-04-17T08:27:17Z</time></trkpt><trkpt lat="-23.912387010669182" lon="114.02953036647426"><ele>11.0</ele><time>2026-04-17T08:27:18Z</time></trkpt><trkpt lat="-23.912079563863415" lon="114.02951780607485"><ele>11.0</ele><time>2026-04-17T08:27:19Z</time></trkpt><trkpt lat="-23.911773306003084" lon="114.0295069946319"><ele>11.0</ele><time>2026-04-17T08:27:20Z</time></trkpt><trkpt lat="-23.91146511732788" lon="114.02950107750371"><ele>11.0</ele><time>2026-04-17T08:27:21Z</time></trkpt><trkpt lat="-23.911160392856686" lon="114.02949390088445"><ele>11.0</ele><time>2026-04-17T08:27:22Z</time></trkpt><trkpt lat="-23.910856056374012" lon="114.02948461627594"><ele>11.0</ele><time>2026-04-17T08:27:23Z</time></trkpt><trkpt lat="-23.910547388460433" lon="114.02947019129901"><ele>11.0</ele><time>2026-04-17T08:27:24Z</time></trkpt><trkpt lat="-23.910240540284263" lon="114.02945385280168"><ele>12.0</ele><time>2026-04-17T08:27:25Z</time></trkpt><trkpt lat="-23.909933756514857" lon="114.0294409399539"><ele>13.0</ele><time>2026-04-17T08:27:26Z</time></trkpt><trkpt lat="-23.909626487333806" lon="114.02943096473041"><ele>13.0</ele><time>2026-04-17T08:27:27Z</time></trkpt><trkpt lat="-23.90931822744579" lon="114.02942507683774"><ele>13.0</ele><time>2026-04-17T08:27:28Z</time></trkpt><trkpt lat="-23.909009778724247" lon="114.02941909339908"><ele>12.5</ele><time>2026-04-17T08:27:29Z</time></trkpt><trkpt lat="-23.908699169863663" lon="114.02941045097413"><ele>12.0</ele><time>2026-04-17T08:27:30Z</time></trkpt><trkpt lat="-23.908389320346874" lon="114.02940069794445"><ele>12.0</ele><time>2026-04-17T08:27:31Z</time></trkpt><trkpt lat="-23.908080319304865" lon="114.02938801004656"><ele>12.0</ele><time>2026-04-17T08:27:32Z</time></trkpt><trkpt lat="-23.90777063697198" lon="114.02937555996428"><ele>12.0</ele><time>2026-04-17T08:27:33Z</time></trkpt><trkpt lat="-23.907462068645124" lon="114.02936414816534"><ele>12.0</ele><time>2026-04-17T08:27:34Z</time></trkpt><trkpt lat="-23.9071522818889" lon="114.02934792200617"><ele>12.0</ele><time>2026-04-17T08:27:35Z</time></trkpt><trkpt lat="-23.906840898661553" lon="114.02933245598966"><ele>12.0</ele><time>2026-04-17T08:27:36Z</time></trkpt><trkpt lat="-23.906533677362727" lon="114.02932208747455"><ele>11.5</ele><time>2026-04-17T08:27:37Z</time></trkpt><trkpt lat="-23.906226988720128" lon="114.02931577324891"><ele>11.0</ele><time>2026-04-17T08:27:38Z</time></trkpt><trkpt lat="-23.905921717442382" lon="114.02930950778261"><ele>10.5</ele><time>2026-04-17T08:27:39Z</time></trkpt><trkpt lat="-23.905615465332936" lon="114.02930126876328"><ele>10.0</ele><time>2026-04-17T08:27:40Z</time></trkpt><trkpt lat="-23.90530575786482" lon="114.02929006653372"><ele>11.0</ele><time>2026-04-17T08:27:41Z</time></trkpt><trkpt lat="-23.904992140446193" lon="114.02927654600325"><ele>12.0</ele><time>2026-04-17T08:27:42Z</time></trkpt><trkpt lat="-23.904677330641352" lon="114.02926072982135"><ele>12.0</ele><time>2026-04-17T08:27:43Z</time></trkpt><trkpt lat="-23.904363226980657" lon="114.02924348059251"><ele>12.0</ele><time>2026-04-17T08:27:44Z</time></trkpt><trkpt lat="-23.904050363509885" lon="114.02922795018246"><ele>11.5</ele><time>2026-04-17T08:27:45Z</time></trkpt><trkpt lat="-23.903741762749807" lon="114.02921550702564"><ele>11.0</ele><time>2026-04-17T08:27:46Z</time></trkpt><trkpt lat="-23.903435403842686" lon="114.02920900488233"><ele>12.0</ele><time>2026-04-17T08:27:47Z</time></trkpt><trkpt lat="-23.90313202504119" lon="114.02920568219479"><ele>13.0</ele><time>2026-04-17T08:27:48Z</time></trkpt><trkpt lat="-23.902829195406877" lon="114.02919584454129"><ele>12.0</ele><time>2026-04-17T08:27:49Z</time></trkpt><trkpt lat="-23.90253415047446" lon="114.02918444421168"><ele>11.0</ele><time>2026-04-17T08:27:50Z</time></trkpt><trkpt lat="-23.902237586164073" lon="114.0291738224287"><ele>11.0</ele><time>2026-04-17T08:27:51Z</time></trkpt><trkpt lat="-23.901949082754513" lon="114.0291662473781"><ele>11.0</ele><time>2026-04-17T08:27:52Z</time></trkpt><trkpt lat="-23.901661242246004" lon="114.02915453928856"><ele>11.5</ele><time>2026-04-17T08:27:53Z</time></trkpt><trkpt lat="-23.90137672260989" lon="114.02914320669105"><ele>12.0</ele><time>2026-04-17T08:27:54Z</time></trkpt><trkpt lat="-23.9010929229977" lon="114.02913455837636"><ele>12.0</ele><time>2026-04-17T08:27:55Z</time></trkpt><trkpt lat="-23.900805029274203" lon="114.02912495660546"><ele>12.0</ele><time>2026-04-17T08:27:56Z</time></trkpt><trkpt lat="-23.900514123973295" lon="114.02911798315931"><ele>12.0</ele><time>2026-04-17T08:27:57Z</time></trkpt><trkpt lat="-23.900227244588482" lon="114.02911085371012"><ele>12.0</ele><time>2026-04-17T08:27:58Z</time></trkpt><trkpt lat="-23.899938374395845" lon="114.0291036858347"><ele>11.5</ele><time>2026-04-17T08:27:59Z</time></trkpt><trkpt lat="-23.899651325790863" lon="114.02909194972652"><ele>11.0</ele><time>2026-04-17T08:28:00Z</time></trkpt><trkpt lat="-23.899363188973975" lon="114.0290779334672"><ele>11.0</ele><time>2026-04-17T08:28:01Z</time></trkpt><trkpt lat="-23.899079091430902" lon="114.0290653677682"><ele>11.0</ele><time>2026-04-17T08:28:02Z</time></trkpt><trkpt lat="-23.898791909312166" lon="114.02905474246207"><ele>11.0</ele><time>2026-04-17T08:28:03Z</time></trkpt><trkpt lat="-23.898499745839523" lon="114.02904507635284"><ele>11.0</ele><time>2026-04-17T08:28:04Z</time></trkpt><trkpt lat="-23.89820150085464" lon="114.0290361152787"><ele>11.5</ele><time>2026-04-17T08:28:05Z</time></trkpt><trkpt lat="-23.89789870139246" lon="114.02902549176244"><ele>12.0</ele><time>2026-04-17T08:28:06Z</time></trkpt><trkpt lat="-23.89759405242435" lon="114.02901186127069"><ele>12.5</ele><time>2026-04-17T08:28:07Z</time></trkpt><trkpt lat="-23.89728907190969" lon="114.028997445418"><ele>13.0</ele><time>2026-04-17T08:28:08Z</time></trkpt><trkpt lat="-23.8969812458892" lon="114.02898607408734"><ele>12.5</ele><time>2026-04-17T08:28:09Z</time></trkpt><trkpt lat="-23.896670874809438" lon="114.02897592788489"><ele>12.0</ele><time>2026-04-17T08:28:10Z</time></trkpt><trkpt lat="-23.896359948769202" lon="114.02896699540453"><ele>12.0</ele><time>2026-04-17T08:28:11Z</time></trkpt><trkpt lat="-23.896049365024634" lon="114.02895746640611"><ele>12.0</ele><time>2026-04-17T08:28:12Z</time></trkpt><trkpt lat="-23.895737054253676" lon="114.02894857744964"><ele>12.5</ele><time>2026-04-17T08:28:13Z</time></trkpt><trkpt lat="-23.895422954737253" lon="114.02893872749961"><ele>13.0</ele><time>2026-04-17T08:28:14Z</time></trkpt><trkpt lat="-23.895109989419154" lon="114.0289307602172"><ele>12.0</ele><time>2026-04-17T08:28:15Z</time></trkpt><trkpt lat="-23.894797148186917" lon="114.02892233696465"><ele>11.0</ele><time>2026-04-17T08:28:16Z</time></trkpt><trkpt lat="-23.894486179776738" lon="114.02891164585154"><ele>12.0</ele><time>2026-04-17T08:28:17Z</time></trkpt><trkpt lat="-23.89417336304235" lon="114.0288998138952"><ele>13.0</ele><time>2026-04-17T08:28:18Z</time></trkpt><trkpt lat="-23.893860636900584" lon="114.02888817232295"><ele>13.0</ele><time>2026-04-17T08:28:19Z</time></trkpt><trkpt lat="-23.893550115371117" lon="114.02887492000218"><ele>13.0</ele><time>2026-04-17T08:28:20Z</time></trkpt><trkpt lat="-23.893236778845733" lon="114.02886188796639"><ele>13.0</ele><time>2026-04-17T08:28:21Z</time></trkpt><trkpt lat="-23.892924807005276" lon="114.02884816498704"><ele>13.0</ele><time>2026-04-17T08:28:22Z</time></trkpt><trkpt lat="-23.892615853807662" lon="114.02883453457764"><ele>12.5</ele><time>2026-04-17T08:28:23Z</time></trkpt><trkpt lat="-23.892308832980863" lon="114.02882029926964"><ele>12.0</ele><time>2026-04-17T08:28:24Z</time></trkpt><trkpt lat="-23.892004512422606" lon="114.02881059861622"><ele>12.5</ele><time>2026-04-17T08:28:25Z</time></trkpt><trkpt lat="-23.891699086569382" lon="114.0288020511176"><ele>13.0</ele><time>2026-04-17T08:28:26Z</time></trkpt><trkpt lat="-23.89139284320786" lon="114.02879122753993"><ele>13.0</ele><time>2026-04-17T08:28:27Z</time></trkpt><trkpt lat="-23.89108786498103" lon="114.02877992798268"><ele>13.0</ele><time>2026-04-17T08:28:28Z</time></trkpt><trkpt lat="-23.890782754955165" lon="114.02876705352563"><ele>13.0</ele><time>2026-04-17T08:28:29Z</time></trkpt><trkpt lat="-23.890478714198668" lon="114.02875285791961"><ele>13.0</ele><time>2026-04-17T08:28:30Z</time></trkpt><trkpt lat="-23.89017365712831" lon="114.02874308331938"><ele>13.0</ele><time>2026-04-17T08:28:31Z</time></trkpt><trkpt lat="-23.889871668681803" lon="114.02873420204354"><ele>13.0</ele><time>2026-04-17T08:28:32Z</time></trkpt><trkpt lat="-23.889587775078557" lon="114.02872310849264"><ele>13.0</ele><time>2026-04-17T08:28:33.001Z</time></trkpt><trkpt lat="-23.88931049429497" lon="114.0287149419828"><ele>13.0</ele><time>2026-04-17T08:28:34.001Z</time></trkpt><trkpt lat="-23.889019732699445" lon="114.0287039844085"><ele>13.0</ele><time>2026-04-17T08:28:35.001Z</time></trkpt><trkpt lat="-23.888720978081956" lon="114.02869361610948"><ele>13.0</ele><time>2026-04-17T08:28:36.001Z</time></trkpt><trkpt lat="-23.888412724863457" lon="114.02868327321482"><ele>13.5</ele><time>2026-04-17T08:28:37.001Z</time></trkpt><trkpt lat="-23.888109275909308" lon="114.02867220827271"><ele>14.0</ele><time>2026-04-17T08:28:38.001Z</time></trkpt><trkpt lat="-23.88779731322174" lon="114.02866263552527"><ele>14.0</ele><time>2026-04-17T08:28:39.001Z</time></trkpt><trkpt lat="-23.887484039008115" lon="114.02865248518943"><ele>14.0</ele><time>2026-04-17T08:28:40.001Z</time></trkpt><trkpt lat="-23.887171514327264" lon="114.02864017949322"><ele>14.0</ele><time>2026-04-17T08:28:41.001Z</time></trkpt><trkpt lat="-23.88685433174417" lon="114.02862759732373"><ele>14.0</ele><time>2026-04-17T08:28:42.001Z</time></trkpt><trkpt lat="-23.88653680581564" lon="114.02861808398508"><ele>13.0</ele><time>2026-04-17T08:28:43.001Z</time></trkpt><trkpt lat="-23.886222284800805" lon="114.02860727433071"><ele>12.0</ele><time>2026-04-17T08:28:44.001Z</time></trkpt><trkpt lat="-23.885907373612266" lon="114.02859483727481"><ele>12.0</ele><time>2026-04-17T08:28:45.001Z</time></trkpt><trkpt lat="-23.885593260606736" lon="114.02858508233946"><ele>12.0</ele><time>2026-04-17T08:28:46.001Z</time></trkpt><trkpt lat="-23.885282618778824" lon="114.02857769365897"><ele>12.0</ele><time>2026-04-17T08:28:47Z</time></trkpt><trkpt lat="-23.884966249388636" lon="114.02856671842638"><ele>12.0</ele><time>2026-04-17T08:28:48Z</time></trkpt><trkpt lat="-23.88465090097559" lon="114.02855633461645"><ele>12.0</ele><time>2026-04-17T08:28:49Z</time></trkpt><trkpt lat="-23.88433490284628" lon="114.02854528096277"><ele>12.0</ele><time>2026-04-17T08:28:50Z</time></trkpt><trkpt lat="-23.884013288618284" lon="114.02853573737113"><ele>12.5</ele><time>2026-04-17T08:28:51Z</time></trkpt><trkpt lat="-23.88369640153073" lon="114.0285267521031"><ele>13.0</ele><time>2026-04-17T08:28:52Z</time></trkpt><trkpt lat="-23.883380037554456" lon="114.0285165492954"><ele>13.0</ele><time>2026-04-17T08:28:53Z</time></trkpt><trkpt lat="-23.883063025448546" lon="114.02850478827136"><ele>13.0</ele><time>2026-04-17T08:28:54Z</time></trkpt><trkpt lat="-23.882740216913014" lon="114.02849065141507"><ele>13.0</ele><time>2026-04-17T08:28:55Z</time></trkpt><trkpt lat="-23.882420799454124" lon="114.0284781582158"><ele>13.0</ele><time>2026-04-17T08:28:56Z</time></trkpt><trkpt lat="-23.88210442429292" lon="114.02846661059631"><ele>13.0</ele><time>2026-04-17T08:28:57Z</time></trkpt><trkpt lat="-23.88178553487499" lon="114.02845317141815"><ele>13.0</ele><time>2026-04-17T08:28:58Z</time></trkpt><trkpt lat="-23.881468867856963" lon="114.02844267362578"><ele>13.0</ele><time>2026-04-17T08:28:59Z</time></trkpt><trkpt lat="-23.8811525592335" lon="114.02843508772165"><ele>13.0</ele><time>2026-04-17T08:29:00Z</time></trkpt><trkpt lat="-23.880836778913864" lon="114.02842957686768"><ele>13.0</ele><time>2026-04-17T08:29:01Z</time></trkpt><trkpt lat="-23.880521941147787" lon="114.02841934917156"><ele>13.0</ele><time>2026-04-17T08:29:02Z</time></trkpt><trkpt lat="-23.88020711226961" lon="114.02840884543232"><ele>13.0</ele><time>2026-04-17T08:29:03Z</time></trkpt><trkpt lat="-23.879894322724212" lon="114.02839352641956"><ele>13.0</ele><time>2026-04-17T08:29:04Z</time></trkpt><trkpt lat="-23.879582370536433" lon="114.02837953135624"><ele>13.0</ele><time>2026-04-17T08:29:05Z</time></trkpt><trkpt lat="-23.879268661882264" lon="114.02836984930266"><ele>13.0</ele><time>2026-04-17T08:29:06Z</time></trkpt><trkpt lat="-23.878956840804918" lon="114.0283642075751"><ele>13.0</ele><time>2026-04-17T08:29:07Z</time></trkpt><trkpt lat="-23.87864322204936" lon="114.02835669599308"><ele>13.0</ele><time>2026-04-17T08:29:08Z</time></trkpt><trkpt lat="-23.878329950052233" lon="114.02834442456543"><ele>13.0</ele><time>2026-04-17T08:29:09Z</time></trkpt><trkpt lat="-23.878012644658376" lon="114.0283293130392"><ele>13.0</ele><time>2026-04-17T08:29:10Z</time></trkpt><trkpt lat="-23.877693337324676" lon="114.02831546699582"><ele>14.0</ele><time>2026-04-17T08:29:11Z</time></trkpt><trkpt lat="-23.877376081982014" lon="114.02830548679356"><ele>15.0</ele><time>2026-04-17T08:29:12Z</time></trkpt><trkpt lat="-23.87705779904995" lon="114.0282945789031"><ele>15.0</ele><time>2026-04-17T08:29:13Z</time></trkpt><trkpt lat="-23.87674003403041" lon="114.02828394234814"><ele>15.0</ele><time>2026-04-17T08:29:14Z</time></trkpt><trkpt lat="-23.8764222540532" lon="114.02827147458478"><ele>15.0</ele><time>2026-04-17T08:29:15Z</time></trkpt><trkpt lat="-23.87610213690012" lon="114.02825808148003"><ele>15.0</ele><time>2026-04-17T08:29:16Z</time></trkpt><trkpt lat="-23.875784880668046" lon="114.02824691001534"><ele>14.0</ele><time>2026-04-17T08:29:17Z</time></trkpt><trkpt lat="-23.87546942656546" lon="114.02823891478326"><ele>13.0</ele><time>2026-04-17T08:29:18Z</time></trkpt><trkpt lat="-23.87515474111275" lon="114.02822931911128"><ele>13.5</ele><time>2026-04-17T08:29:19Z</time></trkpt><trkpt lat="-23.874839804745946" lon="114.0282157723759"><ele>14.0</ele><time>2026-04-17T08:29:20Z</time></trkpt><trkpt lat="-23.87452394291458" lon="114.02820187821733"><ele>13.5</ele><time>2026-04-17T08:29:21Z</time></trkpt><trkpt lat="-23.87420721205835" lon="114.02819050430848"><ele>13.0</ele><time>2026-04-17T08:29:22Z</time></trkpt><trkpt lat="-23.873891174036167" lon="114.02817980837104"><ele>13.0</ele><time>2026-04-17T08:29:23Z</time></trkpt><trkpt lat="-23.87357543274327" lon="114.02817004116395"><ele>13.0</ele><time>2026-04-17T08:29:24Z</time></trkpt><trkpt lat="-23.873259424076775" lon="114.02816133363"><ele>13.5</ele><time>2026-04-17T08:29:25Z</time></trkpt><trkpt lat="-23.872940555168668" lon="114.02815313539482"><ele>14.0</ele><time>2026-04-17T08:29:26Z</time></trkpt><trkpt lat="-23.87262319692017" lon="114.02814301855862"><ele>14.5</ele><time>2026-04-17T08:29:27Z</time></trkpt><trkpt lat="-23.872307669245544" lon="114.02813090226311"><ele>15.0</ele><time>2026-04-17T08:29:28Z</time></trkpt><trkpt lat="-23.871989852434275" lon="114.02811789884673"><ele>14.5</ele><time>2026-04-17T08:29:29Z</time></trkpt><trkpt lat="-23.871669971727723" lon="114.02810374233559"><ele>14.0</ele><time>2026-04-17T08:29:30Z</time></trkpt><trkpt lat="-23.87134720790044" lon="114.02809127747427"><ele>14.0</ele><time>2026-04-17T08:29:31Z</time></trkpt><trkpt lat="-23.87102580990465" lon="114.02808151155784"><ele>14.0</ele><time>2026-04-17T08:29:32Z</time></trkpt><trkpt lat="-23.87070676896348" lon="114.02807131427873"><ele>13.5</ele><time>2026-04-17T08:29:33Z</time></trkpt><trkpt lat="-23.870393597723517" lon="114.02806215801002"><ele>13.0</ele><time>2026-04-17T08:29:34Z</time></trkpt><trkpt lat="-23.870081947632734" lon="114.0280516653812"><ele>13.0</ele><time>2026-04-17T08:29:35Z</time></trkpt><trkpt lat="-23.869769942221513" lon="114.02803928666943"><ele>13.0</ele><time>2026-04-17T08:29:36Z</time></trkpt><trkpt lat="-23.869457359512346" lon="114.0280279854886"><ele>12.5</ele><time>2026-04-17T08:29:37Z</time></trkpt><trkpt lat="-23.869145683693006" lon="114.02801871159974"><ele>12.0</ele><time>2026-04-17T08:29:38Z</time></trkpt><trkpt lat="-23.86883228625448" lon="114.02800822449551"><ele>12.0</ele><time>2026-04-17T08:29:39Z</time></trkpt><trkpt lat="-23.868515500703218" lon="114.02799615258495"><ele>12.0</ele><time>2026-04-17T08:29:40Z</time></trkpt><trkpt lat="-23.868196762169436" lon="114.0279863820073"><ele>12.5</ele><time>2026-04-17T08:29:41Z</time></trkpt><trkpt lat="-23.867877554186386" lon="114.02797612297212"><ele>13.0</ele><time>2026-04-17T08:29:42Z</time></trkpt><trkpt lat="-23.86755929356542" lon="114.02796323260326"><ele>13.5</ele><time>2026-04-17T08:29:43Z</time></trkpt><trkpt lat="-23.8672415130266" lon="114.02795056359464"><ele>14.0</ele><time>2026-04-17T08:29:44Z</time></trkpt><trkpt lat="-23.866923247678887" lon="114.02793832906848"><ele>13.5</ele><time>2026-04-17T08:29:45Z</time></trkpt><trkpt lat="-23.866604602955412" lon="114.02792660196116"><ele>13.0</ele><time>2026-04-17T08:29:46Z</time></trkpt><trkpt lat="-23.866289931742703" lon="114.02791340545404"><ele>13.0</ele><time>2026-04-17T08:29:47Z</time></trkpt><trkpt lat="-23.865972054901757" lon="114.02789787059818"><ele>13.0</ele><time>2026-04-17T08:29:48Z</time></trkpt><trkpt lat="-23.865339434283328" lon="114.02787735251658"><ele>14.0</ele><time>2026-04-17T08:29:50Z</time></trkpt><trkpt lat="-23.865024613968046" lon="114.02787253344044"><ele>15.0</ele><time>2026-04-17T08:29:51Z</time></trkpt><trkpt lat="-23.864712961750495" lon="114.02786920421977"><ele>15.0</ele><time>2026-04-17T08:29:52Z</time></trkpt><trkpt lat="-23.864402205056788" lon="114.02786083351074"><ele>15.0</ele><time>2026-04-17T08:29:53Z</time></trkpt><trkpt lat="-23.864091557228097" lon="114.02784619451147"><ele>15.0</ele><time>2026-04-17T08:29:54Z</time></trkpt><trkpt lat="-23.86377891170317" lon="114.0278295815595"><ele>15.0</ele><time>2026-04-17T08:29:55Z</time></trkpt><trkpt lat="-23.8634626169568" lon="114.02781117238256"><ele>15.0</ele><time>2026-04-17T08:29:56Z</time></trkpt><trkpt lat="-23.863146410378796" lon="114.02778818263909"><ele>15.0</ele><time>2026-04-17T08:29:57Z</time></trkpt><trkpt lat="-23.862829397604866" lon="114.02775953170227"><ele>15.5</ele><time>2026-04-17T08:29:58Z</time></trkpt><trkpt lat="-23.862512820880806" lon="114.0277218977796"><ele>16.0</ele><time>2026-04-17T08:29:59Z</time></trkpt><trkpt lat="-23.862196317033646" lon="114.02767890482069"><ele>16.0</ele><time>2026-04-17T08:30:00Z</time></trkpt><trkpt lat="-23.861881770745445" lon="114.0276286231077"><ele>16.0</ele><time>2026-04-17T08:30:01Z</time></trkpt><trkpt lat="-23.861565920333454" lon="114.02756902417555"><ele>16.0</ele><time>2026-04-17T08:30:02Z</time></trkpt><trkpt lat="-23.86124882028185" lon="114.02750500373932"><ele>16.0</ele><time>2026-04-17T08:30:03Z</time></trkpt><trkpt lat="-23.860930216798554" lon="114.02743694584801"><ele>16.0</ele><time>2026-04-17T08:30:04Z</time></trkpt><trkpt lat="-23.860613138795987" lon="114.02736894529185"><ele>16.0</ele><time>2026-04-17T08:30:05Z</time></trkpt><trkpt lat="-23.860299686011277" lon="114.027298067456"><ele>15.5</ele><time>2026-04-17T08:30:06Z</time></trkpt><trkpt lat="-23.8599850781515" lon="114.02722249679128"><ele>15.0</ele><time>2026-04-17T08:30:07Z</time></trkpt><trkpt lat="-23.85967704923477" lon="114.02714077356295"><ele>15.0</ele><time>2026-04-17T08:30:08Z</time></trkpt><trkpt lat="-23.85936731142097" lon="114.0270570721823"><ele>15.0</ele><time>2026-04-17T08:30:09Z</time></trkpt><trkpt lat="-23.859061373901515" lon="114.02697368074735"><ele>15.0</ele><time>2026-04-17T08:30:10Z</time></trkpt><trkpt lat="-23.858756199847406" lon="114.02689279433976"><ele>15.0</ele><time>2026-04-17T08:30:11Z</time></trkpt><trkpt lat="-23.858452997817977" lon="114.02681282120962"><ele>15.5</ele><time>2026-04-17T08:30:12Z</time></trkpt><trkpt lat="-23.85815116189435" lon="114.02673344017505"><ele>16.0</ele><time>2026-04-17T08:30:13Z</time></trkpt><trkpt lat="-23.857849542286754" lon="114.02665524728071"><ele>14.5</ele><time>2026-04-17T08:30:14Z</time></trkpt><trkpt lat="-23.857547893156145" lon="114.02657553167455"><ele>13.0</ele><time>2026-04-17T08:30:15Z</time></trkpt><trkpt lat="-23.857243751216533" lon="114.02649517716591"><ele>13.0</ele><time>2026-04-17T08:30:16Z</time></trkpt><trkpt lat="-23.856940842631555" lon="114.02641690571345"><ele>13.0</ele><time>2026-04-17T08:30:17Z</time></trkpt><trkpt lat="-23.856637574018958" lon="114.02633899892996"><ele>12.5</ele><time>2026-04-17T08:30:18Z</time></trkpt><trkpt lat="-23.856333270160814" lon="114.02625890647363"><ele>12.0</ele><time>2026-04-17T08:30:19Z</time></trkpt><trkpt lat="-23.856027783763174" lon="114.02617774972684"><ele>11.0</ele><time>2026-04-17T08:30:20Z</time></trkpt><trkpt lat="-23.855722159245506" lon="114.02609638202907"><ele>10.0</ele><time>2026-04-17T08:30:21Z</time></trkpt><trkpt lat="-23.855416830670936" lon="114.02601372537227"><ele>10.5</ele><time>2026-04-17T08:30:22Z</time></trkpt><trkpt lat="-23.855109248828448" lon="114.02592765701444"><ele>11.0</ele><time>2026-04-17T08:30:23Z</time></trkpt><trkpt lat="-23.85480299792051" lon="114.02584203999794"><ele>11.5</ele><time>2026-04-17T08:30:24Z</time></trkpt><trkpt lat="-23.854496359516258" lon="114.02575964339539"><ele>12.0</ele><time>2026-04-17T08:30:25Z</time></trkpt><trkpt lat="-23.854190301143344" lon="114.02567877095447"><ele>12.5</ele><time>2026-04-17T08:30:26Z</time></trkpt><trkpt lat="-23.853888986374923" lon="114.02560081737066"><ele>13.0</ele><time>2026-04-17T08:30:27Z</time></trkpt><trkpt lat="-23.853589500029774" lon="114.02552308487986"><ele>13.5</ele><time>2026-04-17T08:30:28Z</time></trkpt><trkpt lat="-23.853292283908697" lon="114.02544950161057"><ele>14.0</ele><time>2026-04-17T08:30:29Z</time></trkpt><trkpt lat="-23.852998300768096" lon="114.02538029865437"><ele>14.0</ele><time>2026-04-17T08:30:30Z</time></trkpt><trkpt lat="-23.852706888819732" lon="114.02530656613744"><ele>14.0</ele><time>2026-04-17T08:30:31Z</time></trkpt><trkpt lat="-23.85241969179209" lon="114.02522870755803"><ele>14.0</ele><time>2026-04-17T08:30:32Z</time></trkpt><trkpt lat="-23.85213419739502" lon="114.02515218171243"><ele>14.0</ele><time>2026-04-17T08:30:33Z</time></trkpt><trkpt lat="-23.851849738346207" lon="114.02507868694244"><ele>13.5</ele><time>2026-04-17T08:30:34Z</time></trkpt><trkpt lat="-23.851568790439153" lon="114.02500598727165"><ele>13.0</ele><time>2026-04-17T08:30:35Z</time></trkpt><trkpt lat="-23.851289290268586" lon="114.02493327233628"><ele>13.0</ele><time>2026-04-17T08:30:36Z</time></trkpt><trkpt lat="-23.851012697345244" lon="114.02486389397353"><ele>13.0</ele><time>2026-04-17T08:30:37Z</time></trkpt><trkpt lat="-23.850742264550476" lon="114.02479247066019"><ele>13.0</ele><time>2026-04-17T08:30:38Z</time></trkpt><trkpt lat="-23.85047547600127" lon="114.02471795280347"><ele>13.0</ele><time>2026-04-17T08:30:39.001Z</time></trkpt><trkpt lat="-23.850219067858486" lon="114.0246467169608"><ele>12.5</ele><time>2026-04-17T08:30:40.001Z</time></trkpt><trkpt lat="-23.849964803407318" lon="114.02457910889821"><ele>12.0</ele><time>2026-04-17T08:30:41.001Z</time></trkpt><trkpt lat="-23.84971540432171" lon="114.02451406704125"><ele>12.0</ele><time>2026-04-17T08:30:42.001Z</time></trkpt><trkpt lat="-23.84946460511924" lon="114.02444963689075"><ele>12.0</ele><time>2026-04-17T08:30:43.001Z</time></trkpt><trkpt lat="-23.849217260940282" lon="114.02438654735504"><ele>13.0</ele><time>2026-04-17T08:30:44.001Z</time></trkpt><trkpt lat="-23.848969825433276" lon="114.02432214709278"><ele>14.0</ele><time>2026-04-17T08:30:45.001Z</time></trkpt><trkpt lat="-23.848722656401744" lon="114.0242587208028"><ele>14.0</ele><time>2026-04-17T08:30:46.001Z</time></trkpt><trkpt lat="-23.84847501399325" lon="114.02419620391571"><ele>14.0</ele><time>2026-04-17T08:30:47.001Z</time></trkpt><trkpt lat="-23.848225160207683" lon="114.02413037795472"><ele>14.5</ele><time>2026-04-17T08:30:48.001Z</time></trkpt><trkpt lat="-23.847975659750325" lon="114.02406331437493"><ele>15.0</ele><time>2026-04-17T08:30:49.001Z</time></trkpt><trkpt lat="-23.84772288752409" lon="114.02399555171786"><ele>14.0</ele><time>2026-04-17T08:30:50.001Z</time></trkpt><trkpt lat="-23.847470987165483" lon="114.02392816093513"><ele>13.0</ele><time>2026-04-17T08:30:51.001Z</time></trkpt><trkpt lat="-23.84721748210039" lon="114.02385898833623"><ele>13.0</ele><time>2026-04-17T08:30:52.001Z</time></trkpt><trkpt lat="-23.846971641174683" lon="114.02379404928871"><ele>13.0</ele><time>2026-04-17T08:30:53.001Z</time></trkpt><trkpt lat="-23.846735396910617" lon="114.02373155208845"><ele>13.0</ele><time>2026-04-17T08:30:54Z</time></trkpt><trkpt lat="-23.846490505558823" lon="114.02366502547046"><ele>13.0</ele><time>2026-04-17T08:30:55Z</time></trkpt><trkpt lat="-23.84623400074356" lon="114.02359624048995"><ele>13.0</ele><time>2026-04-17T08:30:56Z</time></trkpt><trkpt lat="-23.84597733325141" lon="114.02352734502571"><ele>13.0</ele><time>2026-04-17T08:30:57Z</time></trkpt><trkpt lat="-23.84571214691618" lon="114.0234541417043"><ele>12.5</ele><time>2026-04-17T08:30:58Z</time></trkpt><trkpt lat="-23.845442724718218" lon="114.02338239125041"><ele>12.0</ele><time>2026-04-17T08:30:59Z</time></trkpt><trkpt lat="-23.845173600039654" lon="114.0233123307724"><ele>11.0</ele><time>2026-04-17T08:31:00Z</time></trkpt><trkpt lat="-23.844902567387372" lon="114.02324328300594"><ele>10.0</ele><time>2026-04-17T08:31:01Z</time></trkpt><trkpt lat="-23.84463044912228" lon="114.02317350921375"><ele>10.0</ele><time>2026-04-17T08:31:02Z</time></trkpt><trkpt lat="-23.844353453370545" lon="114.02310176270267"><ele>10.0</ele><time>2026-04-17T08:31:03Z</time></trkpt><trkpt lat="-23.844079824899577" lon="114.02302912318515"><ele>12.0</ele><time>2026-04-17T08:31:04Z</time></trkpt><trkpt lat="-23.84381393364696" lon="114.02295870862888"><ele>14.0</ele><time>2026-04-17T08:31:05Z</time></trkpt><trkpt lat="-23.843546545310033" lon="114.02289099422948"><ele>14.0</ele><time>2026-04-17T08:31:06Z</time></trkpt><trkpt lat="-23.843276629985716" lon="114.02281884067483"><ele>14.0</ele><time>2026-04-17T08:31:07Z</time></trkpt><trkpt lat="-23.84300188811585" lon="114.02274248866878"><ele>14.0</ele><time>2026-04-17T08:31:08Z</time></trkpt><trkpt lat="-23.842726183328335" lon="114.02265729937582"><ele>14.0</ele><time>2026-04-17T08:31:09Z</time></trkpt><trkpt lat="-23.842446261441115" lon="114.02256132492634"><ele>14.0</ele><time>2026-04-17T08:31:10Z</time></trkpt><trkpt lat="-23.842164247816882" lon="114.02245767148217"><ele>14.0</ele><time>2026-04-17T08:31:11Z</time></trkpt><trkpt lat="-23.84188507985328" lon="114.02234584807121"><ele>13.5</ele><time>2026-04-17T08:31:12Z</time></trkpt><trkpt lat="-23.841602230562163" lon="114.02222627071575"><ele>13.0</ele><time>2026-04-17T08:31:13Z</time></trkpt><trkpt lat="-23.841321765515012" lon="114.02210494254787"><ele>13.0</ele><time>2026-04-17T08:31:14Z</time></trkpt><trkpt lat="-23.841041567989294" lon="114.02198398864046"><ele>13.0</ele><time>2026-04-17T08:31:15Z</time></trkpt><trkpt lat="-23.84076226624197" lon="114.0218634993688"><ele>13.0</ele><time>2026-04-17T08:31:16Z</time></trkpt><trkpt lat="-23.84048701203017" lon="114.02174320620067"><ele>13.0</ele><time>2026-04-17T08:31:17Z</time></trkpt><trkpt lat="-23.840212867175737" lon="114.02162692137797"><ele>12.5</ele><time>2026-04-17T08:31:18Z</time></trkpt><trkpt lat="-23.8399398128655" lon="114.02151010532475"><ele>12.0</ele><time>2026-04-17T08:31:19Z</time></trkpt><trkpt lat="-23.839666820029173" lon="114.02139709853014"><ele>12.0</ele><time>2026-04-17T08:31:20Z</time></trkpt><trkpt lat="-23.839394533895018" lon="114.02128513341052"><ele>12.0</ele><time>2026-04-17T08:31:21Z</time></trkpt><trkpt lat="-23.839123850676337" lon="114.02117300740386"><ele>12.0</ele><time>2026-04-17T08:31:22Z</time></trkpt><trkpt lat="-23.83885515309593" lon="114.02105764588602"><ele>12.0</ele><time>2026-04-17T08:31:23Z</time></trkpt><trkpt lat="-23.838593783747413" lon="114.02094356403637"><ele>12.5</ele><time>2026-04-17T08:31:24Z</time></trkpt><trkpt lat="-23.838326531409596" lon="114.02082370958817"><ele>13.0</ele><time>2026-04-17T08:31:25Z</time></trkpt><trkpt lat="-23.838066338986884" lon="114.02071109229986"><ele>13.0</ele><time>2026-04-17T08:31:26Z</time></trkpt><trkpt lat="-23.83780515249954" lon="114.02060107842898"><ele>13.0</ele><time>2026-04-17T08:31:27Z</time></trkpt><trkpt lat="-23.83754472992202" lon="114.02049385515924"><ele>13.0</ele><time>2026-04-17T08:31:28Z</time></trkpt><trkpt lat="-23.837283424658334" lon="114.02038580152067"><ele>13.0</ele><time>2026-04-17T08:31:29Z</time></trkpt><trkpt lat="-23.83702504853696" lon="114.02027619755648"><ele>14.0</ele><time>2026-04-17T08:31:30Z</time></trkpt><trkpt lat="-23.836763094963434" lon="114.02016625575918"><ele>15.0</ele><time>2026-04-17T08:31:31Z</time></trkpt><trkpt lat="-23.836501521321118" lon="114.02005382698309"><ele>14.0</ele><time>2026-04-17T08:31:32Z</time></trkpt><trkpt lat="-23.836236032516037" lon="114.0199383392324"><ele>13.0</ele><time>2026-04-17T08:31:33Z</time></trkpt><trkpt lat="-23.835970585239796" lon="114.01982242653536"><ele>12.5</ele><time>2026-04-17T08:31:34Z</time></trkpt><trkpt lat="-23.835702460970992" lon="114.01970399647381"><ele>12.0</ele><time>2026-04-17T08:31:35Z</time></trkpt><trkpt lat="-23.835436204189207" lon="114.01958797808378"><ele>12.0</ele><time>2026-04-17T08:31:36Z</time></trkpt><trkpt lat="-23.835167075465307" lon="114.01947260635987"><ele>12.0</ele><time>2026-04-17T08:31:37Z</time></trkpt><trkpt lat="-23.834899453344278" lon="114.0193586890983"><ele>12.0</ele><time>2026-04-17T08:31:38Z</time></trkpt><trkpt lat="-23.83463292589386" lon="114.0192450608118"><ele>12.0</ele><time>2026-04-17T08:31:39Z</time></trkpt><trkpt lat="-23.834369309807972" lon="114.01913143532339"><ele>12.5</ele><time>2026-04-17T08:31:40Z</time></trkpt><trkpt lat="-23.83410262616076" lon="114.01901614452586"><ele>13.0</ele><time>2026-04-17T08:31:41Z</time></trkpt><trkpt lat="-23.83383723069594" lon="114.01890176756304"><ele>13.0</ele><time>2026-04-17T08:31:42Z</time></trkpt><trkpt lat="-23.833572253280845" lon="114.01878894473695"><ele>13.0</ele><time>2026-04-17T08:31:43Z</time></trkpt><trkpt lat="-23.833305045090444" lon="114.01867524065621"><ele>13.0</ele><time>2026-04-17T08:31:44Z</time></trkpt><trkpt lat="-23.833039359231478" lon="114.0185633582528"><ele>13.0</ele><time>2026-04-17T08:31:45Z</time></trkpt><trkpt lat="-23.832774433624888" lon="114.01845105832649"><ele>13.5</ele><time>2026-04-17T08:31:46Z</time></trkpt><trkpt lat="-23.832513855169726" lon="114.01834181301159"><ele>14.0</ele><time>2026-04-17T08:31:47Z</time></trkpt><trkpt lat="-23.832255788869187" lon="114.01823235021675"><ele>13.0</ele><time>2026-04-17T08:31:48Z</time></trkpt><trkpt lat="-23.83199883436115" lon="114.01811984288165"><ele>12.0</ele><time>2026-04-17T08:31:49Z</time></trkpt><trkpt lat="-23.83174016494988" lon="114.01800588671226"><ele>12.0</ele><time>2026-04-17T08:31:50Z</time></trkpt><trkpt lat="-23.83147907030855" lon="114.01789140821846"><ele>12.0</ele><time>2026-04-17T08:31:51Z</time></trkpt><trkpt lat="-23.831214204266992" lon="114.01777531401252"><ele>13.5</ele><time>2026-04-17T08:31:52Z</time></trkpt><trkpt lat="-23.83094540315299" lon="114.01766055118021"><ele>15.0</ele><time>2026-04-17T08:31:53Z</time></trkpt><trkpt lat="-23.8306734157844" lon="114.01755014415046"><ele>14.5</ele><time>2026-04-17T08:31:54Z</time></trkpt><trkpt lat="-23.830400987724325" lon="114.01743860931714"><ele>14.0</ele><time>2026-04-17T08:31:55Z</time></trkpt><trkpt lat="-23.83012833014839" lon="114.01732512144922"><ele>13.5</ele><time>2026-04-17T08:31:56Z</time></trkpt><trkpt lat="-23.82985588196661" lon="114.0172090995202"><ele>13.0</ele><time>2026-04-17T08:31:57Z</time></trkpt><trkpt lat="-23.829585070781974" lon="114.01709122143288"><ele>13.0</ele><time>2026-04-17T08:31:58Z</time></trkpt><trkpt lat="-23.829313429334462" lon="114.01697552515877"><ele>13.0</ele><time>2026-04-17T08:31:59Z</time></trkpt><trkpt lat="-23.8290450018551" lon="114.01686180522668"><ele>13.5</ele><time>2026-04-17T08:32:00Z</time></trkpt><trkpt lat="-23.828775378831484" lon="114.01674417621312"><ele>14.0</ele><time>2026-04-17T08:32:01Z</time></trkpt><trkpt lat="-23.828510473803647" lon="114.01662634085586"><ele>14.5</ele><time>2026-04-17T08:32:02Z</time></trkpt><trkpt lat="-23.8282443333517" lon="114.01651351491397"><ele>15.0</ele><time>2026-04-17T08:32:03Z</time></trkpt><trkpt lat="-23.827973099398044" lon="114.01639871118384"><ele>15.0</ele><time>2026-04-17T08:32:04Z</time></trkpt><trkpt lat="-23.827702005359438" lon="114.01628187810982"><ele>15.0</ele><time>2026-04-17T08:32:05Z</time></trkpt><trkpt lat="-23.827432465793247" lon="114.0161647330374"><ele>15.0</ele><time>2026-04-17T08:32:06Z</time></trkpt><trkpt lat="-23.827162785304594" lon="114.01604717664472"><ele>15.0</ele><time>2026-04-17T08:32:07Z</time></trkpt><trkpt lat="-23.826901042778953" lon="114.01593109967453"><ele>14.5</ele><time>2026-04-17T08:32:08Z</time></trkpt><trkpt lat="-23.826638234606055" lon="114.01582115654911"><ele>14.0</ele><time>2026-04-17T08:32:09Z</time></trkpt><trkpt lat="-23.826374552542767" lon="114.01571288005535"><ele>13.5</ele><time>2026-04-17T08:32:10Z</time></trkpt><trkpt lat="-23.826111144791305" lon="114.01560404885672"><ele>13.0</ele><time>2026-04-17T08:32:11Z</time></trkpt><trkpt lat="-23.825853386841874" lon="114.01549461526602"><ele>13.0</ele><time>2026-04-17T08:32:12Z</time></trkpt><trkpt lat="-23.82559913955343" lon="114.01538716109273"><ele>13.0</ele><time>2026-04-17T08:32:13Z</time></trkpt><trkpt lat="-23.825346160909977" lon="114.01527984991344"><ele>13.5</ele><time>2026-04-17T08:32:14Z</time></trkpt><trkpt lat="-23.82509141359067" lon="114.01517505542377"><ele>14.0</ele><time>2026-04-17T08:32:15Z</time></trkpt><trkpt lat="-23.824839394889477" lon="114.01507063768865"><ele>14.0</ele><time>2026-04-17T08:32:16Z</time></trkpt><trkpt lat="-23.82459600079901" lon="114.01496905444198"><ele>14.0</ele><time>2026-04-17T08:32:17Z</time></trkpt><trkpt lat="-23.824350593332117" lon="114.01486431710785"><ele>14.0</ele><time>2026-04-17T08:32:18Z</time></trkpt><trkpt lat="-23.824108919162878" lon="114.014757029727"><ele>14.0</ele><time>2026-04-17T08:32:19Z</time></trkpt><trkpt lat="-23.823865221318066" lon="114.0146492144098"><ele>14.0</ele><time>2026-04-17T08:32:20Z</time></trkpt><trkpt lat="-23.82361974206232" lon="114.01454334347329"><ele>14.0</ele><time>2026-04-17T08:32:21Z</time></trkpt><trkpt lat="-23.823374862469652" lon="114.0144403104465"><ele>14.5</ele><time>2026-04-17T08:32:22Z</time></trkpt><trkpt lat="-23.8231253727711" lon="114.0143343444271"><ele>15.0</ele><time>2026-04-17T08:32:23Z</time></trkpt><trkpt lat="-23.82287938853425" lon="114.01422744367177"><ele>16.0</ele><time>2026-04-17T08:32:24Z</time></trkpt><trkpt lat="-23.8226305715835" lon="114.01411796943817"><ele>17.0</ele><time>2026-04-17T08:32:25Z</time></trkpt><trkpt lat="-23.822381113767904" lon="114.01400762401724"><ele>17.0</ele><time>2026-04-17T08:32:26Z</time></trkpt><trkpt lat="-23.822133674178307" lon="114.01389633315677"><ele>17.0</ele><time>2026-04-17T08:32:27Z</time></trkpt><trkpt lat="-23.82188638206501" lon="114.01378370061141"><ele>16.0</ele><time>2026-04-17T08:32:28Z</time></trkpt><trkpt lat="-23.82163843671312" lon="114.01367440347322"><ele>15.0</ele><time>2026-04-17T08:32:29Z</time></trkpt><trkpt lat="-23.821391287768783" lon="114.01357141205668"><ele>15.0</ele><time>2026-04-17T08:32:30Z</time></trkpt><trkpt lat="-23.821142485201573" lon="114.01346696329324"><ele>15.0</ele><time>2026-04-17T08:32:31Z</time></trkpt><trkpt lat="-23.82089262588836" lon="114.01335280765765"><ele>15.0</ele><time>2026-04-17T08:32:32Z</time></trkpt><trkpt lat="-23.820640885289567" lon="114.01322069855321"><ele>15.0</ele><time>2026-04-17T08:32:33Z</time></trkpt><trkpt lat="-23.820388160735742" lon="114.01307799165124"><ele>15.0</ele><time>2026-04-17T08:32:34Z</time></trkpt><trkpt lat="-23.820133026245188" lon="114.01293370045286"><ele>15.0</ele><time>2026-04-17T08:32:35Z</time></trkpt><trkpt lat="-23.81988064716131" lon="114.01278507316908"><ele>15.0</ele><time>2026-04-17T08:32:36Z</time></trkpt><trkpt lat="-23.819632270641844" lon="114.0126242215295"><ele>15.0</ele><time>2026-04-17T08:32:37Z</time></trkpt><trkpt lat="-23.819385156534942" lon="114.01245544542256"><ele>15.0</ele><time>2026-04-17T08:32:38Z</time></trkpt><trkpt lat="-23.819140983354426" lon="114.0122754901805"><ele>15.0</ele><time>2026-04-17T08:32:39Z</time></trkpt><trkpt lat="-23.818899519447175" lon="114.01208524569465"><ele>15.0</ele><time>2026-04-17T08:32:40Z</time></trkpt><trkpt lat="-23.818658059917418" lon="114.01189086780282"><ele>15.0</ele><time>2026-04-17T08:32:41Z</time></trkpt><trkpt lat="-23.8184265319115" lon="114.0116933872222"><ele>15.0</ele><time>2026-04-17T08:32:42Z</time></trkpt><trkpt lat="-23.818202446345758" lon="114.01149409738359"><ele>15.0</ele><time>2026-04-17T08:32:43Z</time></trkpt><trkpt lat="-23.817982993417864" lon="114.01129428587467"><ele>15.0</ele><time>2026-04-17T08:32:44Z</time></trkpt><trkpt lat="-23.81776866044384" lon="114.01109617378806"><ele>15.0</ele><time>2026-04-17T08:32:45Z</time></trkpt><trkpt lat="-23.817554893648783" lon="114.01089600346536"><ele>17.0</ele><time>2026-04-17T08:32:46Z</time></trkpt><trkpt lat="-23.817340211460767" lon="114.0107009270861"><ele>19.0</ele><time>2026-04-17T08:32:47Z</time></trkpt><trkpt lat="-23.817127856483584" lon="114.0105108402704"><ele>19.0</ele><time>2026-04-17T08:32:48Z</time></trkpt><trkpt lat="-23.816920563007645" lon="114.01032621431695"><ele>19.0</ele><time>2026-04-17T08:32:49Z</time></trkpt><trkpt lat="-23.816717744563316" lon="114.01014546348168"><ele>19.5</ele><time>2026-04-17T08:32:50Z</time></trkpt><trkpt lat="-23.816519712344984" lon="114.00996530798984"><ele>20.0</ele><time>2026-04-17T08:32:51Z</time></trkpt><trkpt lat="-23.816321665372175" lon="114.00978254813123"><ele>20.0</ele><time>2026-04-17T08:32:52Z</time></trkpt><trkpt lat="-23.81612447970363" lon="114.00960209239095"><ele>20.0</ele><time>2026-04-17T08:32:53Z</time></trkpt><trkpt lat="-23.815929950200218" lon="114.00942301588775"><ele>19.0</ele><time>2026-04-17T08:32:54Z</time></trkpt><trkpt lat="-23.815736851661885" lon="114.00924307132028"><ele>18.0</ele><time>2026-04-17T08:32:55Z</time></trkpt><trkpt lat="-23.815540241590536" lon="114.00906181690888"><ele>17.0</ele><time>2026-04-17T08:32:56Z</time></trkpt><trkpt lat="-23.81534306381408" lon="114.00888467839431"><ele>16.0</ele><time>2026-04-17T08:32:57Z</time></trkpt><trkpt lat="-23.81514489117707" lon="114.00870821864525"><ele>15.5</ele><time>2026-04-17T08:32:58Z</time></trkpt><trkpt lat="-23.814945494607507" lon="114.00853080084399"><ele>15.0</ele><time>2026-04-17T08:32:59Z</time></trkpt><trkpt lat="-23.81474467007106" lon="114.00835133105348"><ele>16.0</ele><time>2026-04-17T08:33:00Z</time></trkpt><trkpt lat="-23.81454608588646" lon="114.0081731390007"><ele>17.0</ele><time>2026-04-17T08:33:01Z</time></trkpt><trkpt lat="-23.814346904208026" lon="114.00799287635459"><ele>16.0</ele><time>2026-04-17T08:33:02Z</time></trkpt><trkpt lat="-23.8141456159391" lon="114.00781316368747"><ele>15.0</ele><time>2026-04-17T08:33:03Z</time></trkpt><trkpt lat="-23.813942471376503" lon="114.00763238469108"><ele>15.0</ele><time>2026-04-17T08:33:04Z</time></trkpt><trkpt lat="-23.813739868759427" lon="114.00744947351573"><ele>15.0</ele><time>2026-04-17T08:33:05Z</time></trkpt><trkpt lat="-23.813529043352073" lon="114.0072614821172"><ele>15.0</ele><time>2026-04-17T08:33:06Z</time></trkpt><trkpt lat="-23.813315340838557" lon="114.00706582266048"><ele>15.0</ele><time>2026-04-17T08:33:07Z</time></trkpt><trkpt lat="-23.81309936269579" lon="114.00686786048055"><ele>15.0</ele><time>2026-04-17T08:33:08Z</time></trkpt><trkpt lat="-23.81288561843773" lon="114.00666783286552"><ele>15.0</ele><time>2026-04-17T08:33:09Z</time></trkpt><trkpt lat="-23.812668076802055" lon="114.0064695591759"><ele>15.0</ele><time>2026-04-17T08:33:10Z</time></trkpt><trkpt lat="-23.812448630527147" lon="114.00627726236654"><ele>15.0</ele><time>2026-04-17T08:33:11Z</time></trkpt><trkpt lat="-23.812229798165685" lon="114.00608929382803"><ele>15.0</ele><time>2026-04-17T08:33:12Z</time></trkpt><trkpt lat="-23.81200864720673" lon="114.00591152685786"><ele>15.0</ele><time>2026-04-17T08:33:13Z</time></trkpt><trkpt lat="-23.81178238462437" lon="114.00574428903626"><ele>15.0</ele><time>2026-04-17T08:33:14Z</time></trkpt><trkpt lat="-23.811553627104374" lon="114.00558780375195"><ele>15.0</ele><time>2026-04-17T08:33:15Z</time></trkpt><trkpt lat="-23.81132425569183" lon="114.0054421570846"><ele>15.0</ele><time>2026-04-17T08:33:16Z</time></trkpt><trkpt lat="-23.811088838329105" lon="114.0053083798187"><ele>15.0</ele><time>2026-04-17T08:33:17Z</time></trkpt><trkpt lat="-23.810854005115157" lon="114.00518428845334"><ele>14.5</ele><time>2026-04-17T08:33:18Z</time></trkpt><trkpt lat="-23.810616850718926" lon="114.00505564959195"><ele>14.0</ele><time>2026-04-17T08:33:19Z</time></trkpt><trkpt lat="-23.810380544017367" lon="114.00493105184243"><ele>13.5</ele><time>2026-04-17T08:33:20Z</time></trkpt><trkpt lat="-23.81013793639324" lon="114.00481632086978"><ele>13.0</ele><time>2026-04-17T08:33:21Z</time></trkpt><trkpt lat="-23.80988646370329" lon="114.00470913606216"><ele>13.0</ele><time>2026-04-17T08:33:22Z</time></trkpt><trkpt lat="-23.809629851732765" lon="114.00461172202485"><ele>13.0</ele><time>2026-04-17T08:33:23Z</time></trkpt><trkpt lat="-23.809111686721515" lon="114.00444594272054"><ele>13.5</ele><time>2026-04-17T08:33:25Z</time></trkpt><trkpt lat="-23.80884881793291" lon="114.00437543999118"><ele>14.0</ele><time>2026-04-17T08:33:26Z</time></trkpt><trkpt lat="-23.808580943842653" lon="114.00431473068326"><ele>14.0</ele><time>2026-04-17T08:33:27Z</time></trkpt><trkpt lat="-23.808308018917717" lon="114.00426415062465"><ele>14.0</ele><time>2026-04-17T08:33:28Z</time></trkpt><trkpt lat="-23.808042008635155" lon="114.0042249943538"><ele>14.0</ele><time>2026-04-17T08:33:29Z</time></trkpt><trkpt lat="-23.80778900470773" lon="114.00419190999118"><ele>14.0</ele><time>2026-04-17T08:33:30Z</time></trkpt><trkpt lat="-23.8075367025533" lon="114.00416484950632"><ele>14.5</ele><time>2026-04-17T08:33:31Z</time></trkpt><trkpt lat="-23.80727821745425" lon="114.0041421145679"><ele>15.0</ele><time>2026-04-17T08:33:32Z</time></trkpt><trkpt lat="-23.807013198927006" lon="114.0041221708133"><ele>14.5</ele><time>2026-04-17T08:33:33Z</time></trkpt><trkpt lat="-23.806744223477786" lon="114.00410098793631"><ele>14.0</ele><time>2026-04-17T08:33:34Z</time></trkpt><trkpt lat="-23.806471977883977" lon="114.00407589990088"><ele>14.0</ele><time>2026-04-17T08:33:35Z</time></trkpt><trkpt lat="-23.806198544322836" lon="114.00404885291441"><ele>14.0</ele><time>2026-04-17T08:33:36Z</time></trkpt><trkpt lat="-23.8059207922231" lon="114.00402534312333"><ele>14.5</ele><time>2026-04-17T08:33:37Z</time></trkpt><trkpt lat="-23.80563813413429" lon="114.00400025732807"><ele>15.0</ele><time>2026-04-17T08:33:38Z</time></trkpt><trkpt lat="-23.805354081457452" lon="114.00397593927879"><ele>15.5</ele><time>2026-04-17T08:33:39Z</time></trkpt><trkpt lat="-23.805071294794516" lon="114.00395434777396"><ele>16.0</ele><time>2026-04-17T08:33:40Z</time></trkpt><trkpt lat="-23.804787468947804" lon="114.00393319351093"><ele>16.0</ele><time>2026-04-17T08:33:41Z</time></trkpt><trkpt lat="-23.80450385516467" lon="114.0039106035735"><ele>16.0</ele><time>2026-04-17T08:33:42Z</time></trkpt><trkpt lat="-23.804222878191478" lon="114.0038840374965"><ele>15.0</ele><time>2026-04-17T08:33:43Z</time></trkpt><trkpt lat="-23.803941524666655" lon="114.00385544299962"><ele>14.0</ele><time>2026-04-17T08:33:44Z</time></trkpt><trkpt lat="-23.80366125949375" lon="114.00382865799155"><ele>14.0</ele><time>2026-04-17T08:33:45Z</time></trkpt><trkpt lat="-23.803382124412447" lon="114.00380555070988"><ele>14.0</ele><time>2026-04-17T08:33:46Z</time></trkpt><trkpt lat="-23.80310353385348" lon="114.00378529017948"><ele>14.0</ele><time>2026-04-17T08:33:47Z</time></trkpt><trkpt lat="-23.802824603680673" lon="114.00376483052008"><ele>14.0</ele><time>2026-04-17T08:33:48Z</time></trkpt><trkpt lat="-23.802543673238052" lon="114.00374128338134"><ele>14.5</ele><time>2026-04-17T08:33:49Z</time></trkpt><trkpt lat="-23.80226141019011" lon="114.00371772802566"><ele>15.0</ele><time>2026-04-17T08:33:50Z</time></trkpt><trkpt lat="-23.80197925084055" lon="114.00369686255839"><ele>14.0</ele><time>2026-04-17T08:33:51Z</time></trkpt><trkpt lat="-23.801698932603458" lon="114.00367598424484"><ele>13.0</ele><time>2026-04-17T08:33:52Z</time></trkpt><trkpt lat="-23.801417132316725" lon="114.00365993295978"><ele>13.0</ele><time>2026-04-17T08:33:53Z</time></trkpt><trkpt lat="-23.801135998628375" lon="114.00365517439427"><ele>13.0</ele><time>2026-04-17T08:33:54Z</time></trkpt><trkpt lat="-23.800851722077724" lon="114.00366618066005"><ele>13.0</ele><time>2026-04-17T08:33:55Z</time></trkpt><trkpt lat="-23.800570059218202" lon="114.00368667393215"><ele>13.0</ele><time>2026-04-17T08:33:56Z</time></trkpt><trkpt lat="-23.800288860154364" lon="114.00371505196419"><ele>13.5</ele><time>2026-04-17T08:33:57Z</time></trkpt><trkpt lat="-23.800007747745898" lon="114.00375811151274"><ele>14.0</ele><time>2026-04-17T08:33:58Z</time></trkpt><trkpt lat="-23.79972688094671" lon="114.00381229551168"><ele>14.0</ele><time>2026-04-17T08:33:59Z</time></trkpt><trkpt lat="-23.799450870970855" lon="114.0038769082396"><ele>14.0</ele><time>2026-04-17T08:34:00Z</time></trkpt><trkpt lat="-23.79917655906179" lon="114.00395010335167"><ele>14.0</ele><time>2026-04-17T08:34:01Z</time></trkpt><trkpt lat="-23.798904322045285" lon="114.00403583651672"><ele>14.0</ele><time>2026-04-17T08:34:02Z</time></trkpt><trkpt lat="-23.79863538422081" lon="114.00412768513972"><ele>15.5</ele><time>2026-04-17T08:34:03Z</time></trkpt><trkpt lat="-23.798366893950757" lon="114.00423469003097"><ele>17.0</ele><time>2026-04-17T08:34:04Z</time></trkpt><trkpt lat="-23.798099237120592" lon="114.00434855476203"><ele>17.0</ele><time>2026-04-17T08:34:05Z</time></trkpt><trkpt lat="-23.797833781095367" lon="114.00447299691187"><ele>17.0</ele><time>2026-04-17T08:34:06Z</time></trkpt><trkpt lat="-23.797568770638648" lon="114.00460775406069"><ele>15.5</ele><time>2026-04-17T08:34:07Z</time></trkpt><trkpt lat="-23.797304822462767" lon="114.00474812833649"><ele>14.0</ele><time>2026-04-17T08:34:08Z</time></trkpt><trkpt lat="-23.797041660414596" lon="114.004891787666"><ele>13.5</ele><time>2026-04-17T08:34:09Z</time></trkpt><trkpt lat="-23.796775840776302" lon="114.00503371254007"><ele>13.0</ele><time>2026-04-17T08:34:10Z</time></trkpt><trkpt lat="-23.796509722954962" lon="114.0051724975981"><ele>13.0</ele><time>2026-04-17T08:34:11Z</time></trkpt><trkpt lat="-23.796241302038393" lon="114.00531257275523"><ele>13.0</ele><time>2026-04-17T08:34:12Z</time></trkpt><trkpt lat="-23.795969035627763" lon="114.00545310898431"><ele>14.0</ele><time>2026-04-17T08:34:13Z</time></trkpt><trkpt lat="-23.7956940785403" lon="114.00559463099863"><ele>15.0</ele><time>2026-04-17T08:34:14Z</time></trkpt><trkpt lat="-23.795420877174518" lon="114.00573657939975"><ele>14.0</ele><time>2026-04-17T08:34:15Z</time></trkpt><trkpt lat="-23.795149371322076" lon="114.00587837302253"><ele>13.0</ele><time>2026-04-17T08:34:16Z</time></trkpt><trkpt lat="-23.794879000924244" lon="114.00601796660392"><ele>13.0</ele><time>2026-04-17T08:34:17Z</time></trkpt><trkpt lat="-23.794607679449584" lon="114.0061583375772"><ele>13.0</ele><time>2026-04-17T08:34:18Z</time></trkpt><trkpt lat="-23.794336333181537" lon="114.00630093728775"><ele>13.0</ele><time>2026-04-17T08:34:19Z</time></trkpt><trkpt lat="-23.79406484085817" lon="114.00644196471909"><ele>13.0</ele><time>2026-04-17T08:34:20Z</time></trkpt><trkpt lat="-23.79379358276109" lon="114.00658461907496"><ele>13.5</ele><time>2026-04-17T08:34:21Z</time></trkpt><trkpt lat="-23.793525021891963" lon="114.00672620182804"><ele>14.0</ele><time>2026-04-17T08:34:22Z</time></trkpt><trkpt lat="-23.793250889795065" lon="114.00686690085064"><ele>14.5</ele><time>2026-04-17T08:34:23Z</time></trkpt><trkpt lat="-23.792974212290243" lon="114.00700674593365"><ele>15.0</ele><time>2026-04-17T08:34:24Z</time></trkpt><trkpt lat="-23.79269684796715" lon="114.00715183389788"><ele>14.5</ele><time>2026-04-17T08:34:25Z</time></trkpt><trkpt lat="-23.792417405869575" lon="114.00730089556426"><ele>14.0</ele><time>2026-04-17T08:34:26Z</time></trkpt><trkpt lat="-23.79213569857293" lon="114.00744863578205"><ele>14.0</ele><time>2026-04-17T08:34:27Z</time></trkpt><trkpt lat="-23.791855418170794" lon="114.00759323934528"><ele>14.0</ele><time>2026-04-17T08:34:28Z</time></trkpt><trkpt lat="-23.791572489897035" lon="114.0077368065624"><ele>14.5</ele><time>2026-04-17T08:34:29Z</time></trkpt><trkpt lat="-23.791288578129087" lon="114.00787852434435"><ele>15.0</ele><time>2026-04-17T08:34:30Z</time></trkpt><trkpt lat="-23.79100383353668" lon="114.00801595744284"><ele>16.5</ele><time>2026-04-17T08:34:31Z</time></trkpt><trkpt lat="-23.79071675559584" lon="114.00814964481857"><ele>18.0</ele><time>2026-04-17T08:34:32Z</time></trkpt><trkpt lat="-23.79042714368793" lon="114.00827414536562"><ele>16.5</ele><time>2026-04-17T08:34:33Z</time></trkpt><trkpt lat="-23.79013147787365" lon="114.00838985756593"><ele>15.0</ele><time>2026-04-17T08:34:34Z</time></trkpt><trkpt lat="-23.78983418904338" lon="114.00850163918602"><ele>15.0</ele><time>2026-04-17T08:34:35Z</time></trkpt><trkpt lat="-23.78953553256246" lon="114.00861081012856"><ele>15.0</ele><time>2026-04-17T08:34:36Z</time></trkpt><trkpt lat="-23.78923385016753" lon="114.00871927465431"><ele>14.5</ele><time>2026-04-17T08:34:37Z</time></trkpt><trkpt lat="-23.7889363269295" lon="114.0088199627786"><ele>14.0</ele><time>2026-04-17T08:34:38Z</time></trkpt><trkpt lat="-23.78863910339714" lon="114.00891718588615"><ele>13.0</ele><time>2026-04-17T08:34:39Z</time></trkpt><trkpt lat="-23.788340074908426" lon="114.0090103744511"><ele>12.0</ele><time>2026-04-17T08:34:40Z</time></trkpt><trkpt lat="-23.788042552084317" lon="114.00910356397655"><ele>12.0</ele><time>2026-04-17T08:34:41Z</time></trkpt><trkpt lat="-23.787741948287263" lon="114.00919994658388"><ele>12.0</ele><time>2026-04-17T08:34:42Z</time></trkpt><trkpt lat="-23.78744199070121" lon="114.00929876295115"><ele>12.0</ele><time>2026-04-17T08:34:43Z</time></trkpt><trkpt lat="-23.787144833314766" lon="114.00939676931391"><ele>12.0</ele><time>2026-04-17T08:34:44Z</time></trkpt><trkpt lat="-23.786848420561533" lon="114.00949434757229"><ele>13.0</ele><time>2026-04-17T08:34:45Z</time></trkpt><trkpt lat="-23.786550286300155" lon="114.00959338587435"><ele>14.0</ele><time>2026-04-17T08:34:46Z</time></trkpt><trkpt lat="-23.786253296003895" lon="114.00969066228473"><ele>13.0</ele><time>2026-04-17T08:34:47Z</time></trkpt><trkpt lat="-23.785956606231046" lon="114.00978660938016"><ele>12.0</ele><time>2026-04-17T08:34:48Z</time></trkpt><trkpt lat="-23.785655001908175" lon="114.00988402111686"><ele>12.0</ele><time>2026-04-17T08:34:49Z</time></trkpt><trkpt lat="-23.785354643481927" lon="114.0099814798726"><ele>12.0</ele><time>2026-04-17T08:34:50Z</time></trkpt><trkpt lat="-23.78505611950395" lon="114.01007929740456"><ele>12.5</ele><time>2026-04-17T08:34:51Z</time></trkpt><trkpt lat="-23.784755902346205" lon="114.01017522895428"><ele>13.0</ele><time>2026-04-17T08:34:52Z</time></trkpt><trkpt lat="-23.78445607465134" lon="114.01027115470002"><ele>12.5</ele><time>2026-04-17T08:34:53Z</time></trkpt><trkpt lat="-23.784152068127586" lon="114.01036852398205"><ele>12.0</ele><time>2026-04-17T08:34:54Z</time></trkpt><trkpt lat="-23.783849005855227" lon="114.01046537317364"><ele>12.0</ele><time>2026-04-17T08:34:55Z</time></trkpt><trkpt lat="-23.783542935983572" lon="114.01056731071702"><ele>12.0</ele><time>2026-04-17T08:34:56Z</time></trkpt><trkpt lat="-23.783240415680012" lon="114.01066765328272"><ele>12.0</ele><time>2026-04-17T08:34:57Z</time></trkpt><trkpt lat="-23.782937737148554" lon="114.01076597298464"><ele>12.0</ele><time>2026-04-17T08:34:58Z</time></trkpt><trkpt lat="-23.782631342110932" lon="114.01086538379143"><ele>12.0</ele><time>2026-04-17T08:34:59Z</time></trkpt><trkpt lat="-23.782325188430082" lon="114.0109647531747"><ele>12.0</ele><time>2026-04-17T08:35:00Z</time></trkpt><trkpt lat="-23.782017053833012" lon="114.01106447220688"><ele>12.5</ele><time>2026-04-17T08:35:01Z</time></trkpt><trkpt lat="-23.78170964013869" lon="114.01116430473336"><ele>13.0</ele><time>2026-04-17T08:35:02Z</time></trkpt><trkpt lat="-23.78140004897998" lon="114.0112646536777"><ele>13.0</ele><time>2026-04-17T08:35:03Z</time></trkpt><trkpt lat="-23.781095316500252" lon="114.01136530579014"><ele>13.0</ele><time>2026-04-17T08:35:04Z</time></trkpt><trkpt lat="-23.780792268165328" lon="114.01146492746747"><ele>13.0</ele><time>2026-04-17T08:35:05Z</time></trkpt><trkpt lat="-23.780490164216467" lon="114.01156227935628"><ele>13.0</ele><time>2026-04-17T08:35:06Z</time></trkpt><trkpt lat="-23.78018943956029" lon="114.0116608301826"><ele>13.0</ele><time>2026-04-17T08:35:07Z</time></trkpt><trkpt lat="-23.77988932107373" lon="114.01176132470489"><ele>13.0</ele><time>2026-04-17T08:35:08Z</time></trkpt><trkpt lat="-23.77958982186835" lon="114.01185786443422"><ele>14.0</ele><time>2026-04-17T08:35:09Z</time></trkpt><trkpt lat="-23.77929516353352" lon="114.01195340736518"><ele>15.0</ele><time>2026-04-17T08:35:10Z</time></trkpt><trkpt lat="-23.779003615715965" lon="114.0120489678483"><ele>15.0</ele><time>2026-04-17T08:35:11Z</time></trkpt><trkpt lat="-23.778714352173363" lon="114.01214354749877"><ele>15.0</ele><time>2026-04-17T08:35:12Z</time></trkpt><trkpt lat="-23.77842855981666" lon="114.0122354092058"><ele>15.0</ele><time>2026-04-17T08:35:13Z</time></trkpt><trkpt lat="-23.778140559802264" lon="114.01232376416122"><ele>15.0</ele><time>2026-04-17T08:35:14Z</time></trkpt><trkpt lat="-23.777853099616568" lon="114.01241499572411"><ele>15.0</ele><time>2026-04-17T08:35:15Z</time></trkpt><trkpt lat="-23.777569353207618" lon="114.01251167137892"><ele>15.0</ele><time>2026-04-17T08:35:16Z</time></trkpt><trkpt lat="-23.777284191036518" lon="114.0126106964717"><ele>15.0</ele><time>2026-04-17T08:35:17Z</time></trkpt><trkpt lat="-23.776992784251956" lon="114.01270814001388"><ele>15.0</ele><time>2026-04-17T08:35:18Z</time></trkpt><trkpt lat="-23.776702210895813" lon="114.01280499739462"><ele>14.5</ele><time>2026-04-17T08:35:19Z</time></trkpt><trkpt lat="-23.77640652570807" lon="114.01290065472323"><ele>14.0</ele><time>2026-04-17T08:35:20Z</time></trkpt><trkpt lat="-23.77611478411369" lon="114.01299598651953"><ele>13.0</ele><time>2026-04-17T08:35:21Z</time></trkpt><trkpt lat="-23.77582263188723" lon="114.0130935026272"><ele>12.0</ele><time>2026-04-17T08:35:22Z</time></trkpt><trkpt lat="-23.775534749068946" lon="114.01318791183822"><ele>12.0</ele><time>2026-04-17T08:35:23Z</time></trkpt><trkpt lat="-23.77524273098002" lon="114.0132823814542"><ele>12.0</ele><time>2026-04-17T08:35:24Z</time></trkpt><trkpt lat="-23.77494797230509" lon="114.01337530317234"><ele>12.5</ele><time>2026-04-17T08:35:25Z</time></trkpt><trkpt lat="-23.77465039770835" lon="114.01346589770746"><ele>13.0</ele><time>2026-04-17T08:35:26Z</time></trkpt><trkpt lat="-23.774354552604674" lon="114.01356122280568"><ele>13.5</ele><time>2026-04-17T08:35:27Z</time></trkpt><trkpt lat="-23.77405607260814" lon="114.01365961942335"><ele>14.0</ele><time>2026-04-17T08:35:28Z</time></trkpt><trkpt lat="-23.77375707061878" lon="114.01375889065811"><ele>14.0</ele><time>2026-04-17T08:35:29Z</time></trkpt><trkpt lat="-23.77346089250506" lon="114.01385778062695"><ele>14.0</ele><time>2026-04-17T08:35:30Z</time></trkpt><trkpt lat="-23.773165430358493" lon="114.01395478394726"><ele>14.0</ele><time>2026-04-17T08:35:31Z</time></trkpt><trkpt lat="-23.77287170875009" lon="114.01405350151063"><ele>14.0</ele><time>2026-04-17T08:35:32Z</time></trkpt><trkpt lat="-23.772586104985912" lon="114.01414827953336"><ele>14.5</ele><time>2026-04-17T08:35:33Z</time></trkpt><trkpt lat="-23.772301020548092" lon="114.01424019897014"><ele>15.0</ele><time>2026-04-17T08:35:34Z</time></trkpt><trkpt lat="-23.772012783572897" lon="114.01433253668222"><ele>15.0</ele><time>2026-04-17T08:35:35Z</time></trkpt><trkpt lat="-23.771723274918255" lon="114.01442386703309"><ele>15.0</ele><time>2026-04-17T08:35:36Z</time></trkpt><trkpt lat="-23.771429098617823" lon="114.01451640138241"><ele>15.0</ele><time>2026-04-17T08:35:37Z</time></trkpt><trkpt lat="-23.77113149080561" lon="114.01461298948622"><ele>15.0</ele><time>2026-04-17T08:35:38Z</time></trkpt><trkpt lat="-23.77083249396232" lon="114.0147127590379"><ele>14.5</ele><time>2026-04-17T08:35:39Z</time></trkpt><trkpt lat="-23.77053371659744" lon="114.01481251745885"><ele>14.0</ele><time>2026-04-17T08:35:40Z</time></trkpt><trkpt lat="-23.770231197874857" lon="114.01491138353951"><ele>13.5</ele><time>2026-04-17T08:35:41Z</time></trkpt><trkpt lat="-23.769929177706448" lon="114.01501178013434"><ele>13.0</ele><time>2026-04-17T08:35:42Z</time></trkpt><trkpt lat="-23.76962478384799" lon="114.01511224134217"><ele>12.5</ele><time>2026-04-17T08:35:43Z</time></trkpt><trkpt lat="-23.769321666472706" lon="114.01520752141096"><ele>12.0</ele><time>2026-04-17T08:35:44Z</time></trkpt><trkpt lat="-23.769014632644144" lon="114.01529393288051"><ele>12.0</ele><time>2026-04-17T08:35:45Z</time></trkpt><trkpt lat="-23.768706874856424" lon="114.01536883537337"><ele>12.0</ele><time>2026-04-17T08:35:46Z</time></trkpt><trkpt lat="-23.76839385146399" lon="114.0154277751818"><ele>12.5</ele><time>2026-04-17T08:35:47Z</time></trkpt><trkpt lat="-23.768082299888803" lon="114.01547126081012"><ele>13.0</ele><time>2026-04-17T08:35:48Z</time></trkpt><trkpt lat="-23.767764628662484" lon="114.01550367251163"><ele>12.0</ele><time>2026-04-17T08:35:49Z</time></trkpt><trkpt lat="-23.767449100555016" lon="114.01552204249968"><ele>11.0</ele><time>2026-04-17T08:35:50Z</time></trkpt><trkpt lat="-23.76713509585433" lon="114.01553060210047"><ele>12.5</ele><time>2026-04-17T08:35:51Z</time></trkpt><trkpt lat="-23.76682333981442" lon="114.01552770387977"><ele>14.0</ele><time>2026-04-17T08:35:52Z</time></trkpt><trkpt lat="-23.766509188053647" lon="114.01551598396203"><ele>14.0</ele><time>2026-04-17T08:35:53Z</time></trkpt><trkpt lat="-23.7661989240254" lon="114.01550445787437"><ele>14.0</ele><time>2026-04-17T08:35:54Z</time></trkpt><trkpt lat="-23.76588803654351" lon="114.01549429133607"><ele>14.0</ele><time>2026-04-17T08:35:55Z</time></trkpt><trkpt lat="-23.765577115314485" lon="114.0154836578322"><ele>14.0</ele><time>2026-04-17T08:35:56Z</time></trkpt><trkpt lat="-23.765265602303963" lon="114.01547600798067"><ele>14.5</ele><time>2026-04-17T08:35:57Z</time></trkpt><trkpt lat="-23.76495241000542" lon="114.01547147834313"><ele>15.0</ele><time>2026-04-17T08:35:58Z</time></trkpt><trkpt lat="-23.764638170395283" lon="114.01546581457903"><ele>14.0</ele><time>2026-04-17T08:35:59Z</time></trkpt><trkpt lat="-23.76431735942144" lon="114.0154596568841"><ele>13.0</ele><time>2026-04-17T08:36:00Z</time></trkpt><trkpt lat="-23.76399924740127" lon="114.01545037735013"><ele>13.0</ele><time>2026-04-17T08:36:01Z</time></trkpt><trkpt lat="-23.763682532698546" lon="114.0154396018472"><ele>13.0</ele><time>2026-04-17T08:36:02Z</time></trkpt><trkpt lat="-23.763366704959218" lon="114.01543288248304"><ele>12.5</ele><time>2026-04-17T08:36:03Z</time></trkpt><trkpt lat="-23.763051587279655" lon="114.01542820408241"><ele>12.0</ele><time>2026-04-17T08:36:04Z</time></trkpt><trkpt lat="-23.762740038833222" lon="114.01542427304906"><ele>12.0</ele><time>2026-04-17T08:36:05Z</time></trkpt><trkpt lat="-23.76243293399854" lon="114.01541909803889"><ele>12.0</ele><time>2026-04-17T08:36:06Z</time></trkpt><trkpt lat="-23.762122511538273" lon="114.01540947142705"><ele>13.0</ele><time>2026-04-17T08:36:07Z</time></trkpt><trkpt lat="-23.761812381628424" lon="114.01539608651218"><ele>14.0</ele><time>2026-04-17T08:36:08Z</time></trkpt><trkpt lat="-23.76149845977756" lon="114.01538624389438"><ele>14.0</ele><time>2026-04-17T08:36:09Z</time></trkpt><trkpt lat="-23.7611834591062" lon="114.01537962954859"><ele>14.0</ele><time>2026-04-17T08:36:10Z</time></trkpt><trkpt lat="-23.76087676511451" lon="114.01537467862944"><ele>13.5</ele><time>2026-04-17T08:36:11Z</time></trkpt><trkpt lat="-23.760561517306602" lon="114.01536828670005"><ele>13.0</ele><time>2026-04-17T08:36:12Z</time></trkpt><trkpt lat="-23.76024759393062" lon="114.01535830946042"><ele>12.5</ele><time>2026-04-17T08:36:13Z</time></trkpt><trkpt lat="-23.75994342933465" lon="114.01535085929432"><ele>12.0</ele><time>2026-04-17T08:36:14Z</time></trkpt><trkpt lat="-23.75966087697125" lon="114.01534528659226"><ele>12.0</ele><time>2026-04-17T08:36:15Z</time></trkpt><trkpt lat="-23.75937671867974" lon="114.01534290414894"><ele>12.0</ele><time>2026-04-17T08:36:16Z</time></trkpt><trkpt lat="-23.759082274334915" lon="114.01533996277716"><ele>12.5</ele><time>2026-04-17T08:36:17Z</time></trkpt><trkpt lat="-23.75878521592127" lon="114.01533637278882"><ele>13.0</ele><time>2026-04-17T08:36:18Z</time></trkpt><trkpt lat="-23.758484990320817" lon="114.01532922617864"><ele>14.0</ele><time>2026-04-17T08:36:19Z</time></trkpt><trkpt lat="-23.758180074458956" lon="114.01531838979417"><ele>15.0</ele><time>2026-04-17T08:36:20Z</time></trkpt><trkpt lat="-23.757874836578008" lon="114.01531243237325"><ele>15.0</ele><time>2026-04-17T08:36:21Z</time></trkpt><trkpt lat="-23.757569983011358" lon="114.01530760717554"><ele>15.0</ele><time>2026-04-17T08:36:22Z</time></trkpt><trkpt lat="-23.75726631671622" lon="114.01530303024413"><ele>15.0</ele><time>2026-04-17T08:36:23Z</time></trkpt><trkpt lat="-23.75696094881806" lon="114.01529672548928"><ele>15.0</ele><time>2026-04-17T08:36:24Z</time></trkpt><trkpt lat="-23.75666199369264" lon="114.01529054248729"><ele>15.5</ele><time>2026-04-17T08:36:25Z</time></trkpt><trkpt lat="-23.75636932837515" lon="114.0152879032464"><ele>16.0</ele><time>2026-04-17T08:36:26Z</time></trkpt><trkpt lat="-23.756083640409006" lon="114.01528332496294"><ele>15.5</ele><time>2026-04-17T08:36:27Z</time></trkpt><trkpt lat="-23.755797016038805" lon="114.01527707112308"><ele>15.0</ele><time>2026-04-17T08:36:28Z</time></trkpt><trkpt lat="-23.75550637223006" lon="114.01526782180633"><ele>15.0</ele><time>2026-04-17T08:36:29Z</time></trkpt><trkpt lat="-23.755215541777638" lon="114.01525965546065"><ele>15.0</ele><time>2026-04-17T08:36:30Z</time></trkpt><trkpt lat="-23.754926242849454" lon="114.01525396911015"><ele>15.5</ele><time>2026-04-17T08:36:31Z</time></trkpt><trkpt lat="-23.754644493527522" lon="114.01524813911688"><ele>16.0</ele><time>2026-04-17T08:36:32Z</time></trkpt><trkpt lat="-23.75435883097931" lon="114.01524218317543"><ele>14.5</ele><time>2026-04-17T08:36:33Z</time></trkpt><trkpt lat="-23.754078837282172" lon="114.01523634941422"><ele>13.0</ele><time>2026-04-17T08:36:34Z</time></trkpt><trkpt lat="-23.753799294841798" lon="114.01522862415918"><ele>14.0</ele><time>2026-04-17T08:36:35Z</time></trkpt><trkpt lat="-23.753521196372482" lon="114.01521770629215"><ele>15.0</ele><time>2026-04-17T08:36:36Z</time></trkpt><trkpt lat="-23.753250492552766" lon="114.01520889434111"><ele>15.0</ele><time>2026-04-17T08:36:37Z</time></trkpt><trkpt lat="-23.753003328099958" lon="114.01520240042885"><ele>15.0</ele><time>2026-04-17T08:36:38Z</time></trkpt><trkpt lat="-23.75276674073669" lon="114.01519839627372"><ele>14.666666666666668</ele><time>2026-04-17T08:36:39Z</time></trkpt><trkpt lat="-23.752541697415055" lon="114.01519564698486"><ele>14.333333333333334</ele><time>2026-04-17T08:36:40Z</time></trkpt><trkpt lat="-23.752341551212766" lon="114.01519010255856"><ele>14.0</ele><time>2026-04-17T08:36:41Z</time></trkpt><trkpt lat="-23.752178610791233" lon="114.0151778733765"><ele>14.0</ele><time>2026-04-17T08:36:42Z</time></trkpt><trkpt lat="-23.752051758506173" lon="114.01515508632157"><ele>13.999999999999998</ele><time>2026-04-17T08:36:43Z</time></trkpt><trkpt lat="-23.751948163625592" lon="114.0151210142715"><ele>13.999999999999998</ele><time>2026-04-17T08:36:44Z</time></trkpt><trkpt lat="-23.7518769075074" lon="114.01507168505157"><ele>14.0</ele><time>2026-04-17T08:36:45Z</time></trkpt><trkpt lat="-23.751822521038424" lon="114.0149936067241"><ele>14.0</ele><time>2026-04-17T08:36:46Z</time></trkpt><trkpt lat="-23.751780384063004" lon="114.01490121779857"><ele>13.75</ele><time>2026-04-17T08:36:47Z</time></trkpt><trkpt lat="-23.75174669651465" lon="114.01477758116617"><ele>13.5</ele><time>2026-04-17T08:36:48Z</time></trkpt><trkpt lat="-23.751712979617153" lon="114.01463463098506"><ele>13.25</ele><time>2026-04-17T08:36:49Z</time></trkpt><trkpt lat="-23.751671330847874" lon="114.01448806021502"><ele>13.0</ele><time>2026-04-17T08:36:50Z</time></trkpt><trkpt lat="-23.751625479195514" lon="114.01432038396185"><ele>13.0</ele><time>2026-04-17T08:36:51Z</time></trkpt><trkpt lat="-23.751575898417425" lon="114.01415335218515"><ele>13.0</ele><time>2026-04-17T08:36:52Z</time></trkpt><trkpt lat="-23.751515704545312" lon="114.0139628542224"><ele>13.0</ele><time>2026-04-17T08:36:53Z</time></trkpt><trkpt lat="-23.751450982773488" lon="114.01376061099167"><ele>13.0</ele><time>2026-04-17T08:36:54Z</time></trkpt><trkpt lat="-23.75138464115592" lon="114.01355832974524"><ele>13.0</ele><time>2026-04-17T08:36:55Z</time></trkpt><trkpt lat="-23.751316017707534" lon="114.01335526836532"><ele>13.0</ele><time>2026-04-17T08:36:56Z</time></trkpt><trkpt lat="-23.751246173942114" lon="114.0131507048326"><ele>13.0</ele><time>2026-04-17T08:36:57Z</time></trkpt><trkpt lat="-23.75116886621655" lon="114.01293275650762"><ele>13.0</ele><time>2026-04-17T08:36:58Z</time></trkpt><trkpt lat="-23.751083200741082" lon="114.01271677674028"><ele>13.0</ele><time>2026-04-17T08:36:59Z</time></trkpt><trkpt lat="-23.7509875607107" lon="114.01250825205801"><ele>12.666666666666666</ele><time>2026-04-17T08:37:00Z</time></trkpt><trkpt lat="-23.75087999350498" lon="114.01229846602729"><ele>12.333333333333332</ele><time>2026-04-17T08:37:01Z</time></trkpt><trkpt lat="-23.750757865102567" lon="114.012093034224"><ele>12.0</ele><time>2026-04-17T08:37:02Z</time></trkpt><trkpt lat="-23.750626726031296" lon="114.01189425005074"><ele>12.0</ele><time>2026-04-17T08:37:03Z</time></trkpt><trkpt lat="-23.750485869498686" lon="114.01170442252234"><ele>12.0</ele><time>2026-04-17T08:37:04Z</time></trkpt><trkpt lat="-23.750333998146406" lon="114.01151978269594"><ele>11.5</ele><time>2026-04-17T08:37:05Z</time></trkpt><trkpt lat="-23.75016838337608" lon="114.0113401824068"><ele>11.0</ele><time>2026-04-17T08:37:06Z</time></trkpt><trkpt lat="-23.74998414877841" lon="114.01116411883153"><ele>11.0</ele><time>2026-04-17T08:37:07Z</time></trkpt><trkpt lat="-23.74978493053597" lon="114.01099742081617"><ele>11.0</ele><time>2026-04-17T08:37:08Z</time></trkpt><trkpt lat="-23.74958006783087" lon="114.01084008424874"><ele>12.0</ele><time>2026-04-17T08:37:09Z</time></trkpt><trkpt lat="-23.74937051295866" lon="114.01069439504697"><ele>13.0</ele><time>2026-04-17T08:37:10Z</time></trkpt><trkpt lat="-23.74914150111673" lon="114.01055760546731"><ele>13.0</ele><time>2026-04-17T08:37:11Z</time></trkpt><trkpt lat="-23.748899481814775" lon="114.01043545817221"><ele>13.0</ele><time>2026-04-17T08:37:12Z</time></trkpt><trkpt lat="-23.74865270941627" lon="114.01031955786944"><ele>12.5</ele><time>2026-04-17T08:37:13Z</time></trkpt><trkpt lat="-23.748397650701225" lon="114.01020251348353"><ele>12.0</ele><time>2026-04-17T08:37:14Z</time></trkpt><trkpt lat="-23.748137760840415" lon="114.01008112019831"><ele>11.0</ele><time>2026-04-17T08:37:15Z</time></trkpt><trkpt lat="-23.747876975973128" lon="114.00995773541149"><ele>10.0</ele><time>2026-04-17T08:37:16Z</time></trkpt><trkpt lat="-23.747611799196655" lon="114.00983037903772"><ele>10.0</ele><time>2026-04-17T08:37:17Z</time></trkpt><trkpt lat="-23.74734703309648" lon="114.00969854950958"><ele>10.0</ele><time>2026-04-17T08:37:18Z</time></trkpt><trkpt lat="-23.747077133097104" lon="114.00956426776337"><ele>11.5</ele><time>2026-04-17T08:37:19Z</time></trkpt><trkpt lat="-23.746808220213097" lon="114.00943168081832"><ele>13.0</ele><time>2026-04-17T08:37:20Z</time></trkpt><trkpt lat="-23.746533959041123" lon="114.00929799965084"><ele>13.0</ele><time>2026-04-17T08:37:21Z</time></trkpt><trkpt lat="-23.746258569499386" lon="114.00916282522313"><ele>13.0</ele><time>2026-04-17T08:37:22Z</time></trkpt><trkpt lat="-23.745983238004815" lon="114.0090284490064"><ele>12.5</ele><time>2026-04-17T08:37:23Z</time></trkpt><trkpt lat="-23.745709188826446" lon="114.00889275663022"><ele>12.0</ele><time>2026-04-17T08:37:24Z</time></trkpt><trkpt lat="-23.745436972558338" lon="114.00875310606273"><ele>12.0</ele><time>2026-04-17T08:37:25Z</time></trkpt><trkpt lat="-23.745165701292816" lon="114.00860981026476"><ele>12.0</ele><time>2026-04-17T08:37:26Z</time></trkpt><trkpt lat="-23.74489569834292" lon="114.00846363953382"><ele>10.5</ele><time>2026-04-17T08:37:27Z</time></trkpt><trkpt lat="-23.744633891666883" lon="114.00831082281239"><ele>9.0</ele><time>2026-04-17T08:37:28Z</time></trkpt><trkpt lat="-23.744381364004024" lon="114.00814812685962"><ele>9.5</ele><time>2026-04-17T08:37:29Z</time></trkpt><trkpt lat="-23.744142412830843" lon="114.0079698521025"><ele>10.0</ele><time>2026-04-17T08:37:30Z</time></trkpt><trkpt lat="-23.743913397388194" lon="114.00777446941679"><ele>10.0</ele><time>2026-04-17T08:37:31Z</time></trkpt><trkpt lat="-23.74369288708528" lon="114.0075684122453"><ele>10.0</ele><time>2026-04-17T08:37:32Z</time></trkpt><trkpt lat="-23.743493213369693" lon="114.007359829525"><ele>11.0</ele><time>2026-04-17T08:37:33Z</time></trkpt><trkpt lat="-23.743297600860963" lon="114.00714200148215"><ele>12.0</ele><time>2026-04-17T08:37:34Z</time></trkpt><trkpt lat="-23.743106524212937" lon="114.0069132311759"><ele>12.0</ele><time>2026-04-17T08:37:35Z</time></trkpt><trkpt lat="-23.74291327613775" lon="114.00668510241181"><ele>12.0</ele><time>2026-04-17T08:37:36Z</time></trkpt><trkpt lat="-23.74272079339731" lon="114.00646525272872"><ele>12.0</ele><time>2026-04-17T08:37:37Z</time></trkpt><trkpt lat="-23.742526563505006" lon="114.00624865163338"><ele>12.0</ele><time>2026-04-17T08:37:38Z</time></trkpt><trkpt lat="-23.74233036258694" lon="114.00602884976182"><ele>12.0</ele><time>2026-04-17T08:37:39Z</time></trkpt><trkpt lat="-23.742137863388816" lon="114.00581380123467"><ele>12.0</ele><time>2026-04-17T08:37:40Z</time></trkpt><trkpt lat="-23.741945336849984" lon="114.0055971167973"><ele>11.5</ele><time>2026-04-17T08:37:41Z</time></trkpt><trkpt lat="-23.741752759603703" lon="114.00537783859734"><ele>11.0</ele><time>2026-04-17T08:37:42Z</time></trkpt><trkpt lat="-23.741561230931968" lon="114.0051586331159"><ele>11.0</ele><time>2026-04-17T08:37:43Z</time></trkpt><trkpt lat="-23.741373144545978" lon="114.00493761570262"><ele>11.0</ele><time>2026-04-17T08:37:44Z</time></trkpt><trkpt lat="-23.741179242269826" lon="114.00471804997132"><ele>10.5</ele><time>2026-04-17T08:37:45Z</time></trkpt><trkpt lat="-23.740984746245477" lon="114.00450374696403"><ele>10.0</ele><time>2026-04-17T08:37:46Z</time></trkpt><trkpt lat="-23.74059891469268" lon="114.00407338022768"><ele>10.0</ele><time>2026-04-17T08:37:48Z</time></trkpt><trkpt lat="-23.74040948665637" lon="114.00385811248833"><ele>10.0</ele><time>2026-04-17T08:37:49Z</time></trkpt><trkpt lat="-23.740220425366186" lon="114.00364280997087"><ele>11.0</ele><time>2026-04-17T08:37:50Z</time></trkpt><trkpt lat="-23.74002772617436" lon="114.00342552745357"><ele>12.0</ele><time>2026-04-17T08:37:51Z</time></trkpt><trkpt lat="-23.739833901134904" lon="114.00321088251845"><ele>12.0</ele><time>2026-04-17T08:37:52Z</time></trkpt><trkpt lat="-23.739639483787926" lon="114.00299880811365"><ele>12.0</ele><time>2026-04-17T08:37:53Z</time></trkpt><trkpt lat="-23.739445551733922" lon="114.00278096019797"><ele>12.0</ele><time>2026-04-17T08:37:54Z</time></trkpt><trkpt lat="-23.739253253208716" lon="114.00256039825011"><ele>12.0</ele><time>2026-04-17T08:37:55Z</time></trkpt><trkpt lat="-23.739062087251398" lon="114.00234195994219"><ele>12.0</ele><time>2026-04-17T08:37:56Z</time></trkpt><trkpt lat="-23.738871736104652" lon="114.0021210762732"><ele>12.0</ele><time>2026-04-17T08:37:57Z</time></trkpt><trkpt lat="-23.738681493272438" lon="114.00190436046606"><ele>12.0</ele><time>2026-04-17T08:37:58Z</time></trkpt><trkpt lat="-23.738489962979152" lon="114.00168739648042"><ele>12.0</ele><time>2026-04-17T08:37:59Z</time></trkpt><trkpt lat="-23.738298005402754" lon="114.00146989689257"><ele>12.0</ele><time>2026-04-17T08:38:00Z</time></trkpt><trkpt lat="-23.73810515447624" lon="114.00125458006731"><ele>12.0</ele><time>2026-04-17T08:38:01Z</time></trkpt><trkpt lat="-23.737910797051946" lon="114.00104134806323"><ele>11.5</ele><time>2026-04-17T08:38:02Z</time></trkpt><trkpt lat="-23.737719337476644" lon="114.00083150611309"><ele>11.0</ele><time>2026-04-17T08:38:03Z</time></trkpt><trkpt lat="-23.737526979830548" lon="114.00061527526121"><ele>11.0</ele><time>2026-04-17T08:38:04Z</time></trkpt><trkpt lat="-23.73733150572461" lon="114.00039514534542"><ele>11.0</ele><time>2026-04-17T08:38:05Z</time></trkpt><trkpt lat="-23.73713660517634" lon="114.0001753510419"><ele>11.0</ele><time>2026-04-17T08:38:06Z</time></trkpt><trkpt lat="-23.73694264994941" lon="113.99995796953178"><ele>11.0</ele><time>2026-04-17T08:38:07Z</time></trkpt><trkpt lat="-23.736745422958695" lon="113.99974696309928"><ele>11.5</ele><time>2026-04-17T08:38:08Z</time></trkpt><trkpt lat="-23.736542205399488" lon="113.99953931846157"><ele>12.0</ele><time>2026-04-17T08:38:09Z</time></trkpt><trkpt lat="-23.73633284633798" lon="113.99934033204627"><ele>12.5</ele><time>2026-04-17T08:38:10Z</time></trkpt><trkpt lat="-23.73612214767511" lon="113.9991473699896"><ele>13.0</ele><time>2026-04-17T08:38:11Z</time></trkpt><trkpt lat="-23.735904273381866" lon="113.99896287848757"><ele>13.0</ele><time>2026-04-17T08:38:12Z</time></trkpt><trkpt lat="-23.735681554496097" lon="113.99878399174635"><ele>13.0</ele><time>2026-04-17T08:38:13Z</time></trkpt><trkpt lat="-23.73545668784026" lon="113.99860347111112"><ele>13.0</ele><time>2026-04-17T08:38:14Z</time></trkpt><trkpt lat="-23.735232865276384" lon="113.99842138051852"><ele>13.0</ele><time>2026-04-17T08:38:15Z</time></trkpt><trkpt lat="-23.735007012987957" lon="113.99823589653897"><ele>11.5</ele><time>2026-04-17T08:38:16Z</time></trkpt><trkpt lat="-23.734780533801942" lon="113.99804763729117"><ele>10.0</ele><time>2026-04-17T08:38:17Z</time></trkpt><trkpt lat="-23.734555151966386" lon="113.99785843986008"><ele>10.5</ele><time>2026-04-17T08:38:18Z</time></trkpt><trkpt lat="-23.734329783840465" lon="113.9976697959027"><ele>11.0</ele><time>2026-04-17T08:38:19Z</time></trkpt><trkpt lat="-23.734102263052833" lon="113.99748403748606"><ele>11.0</ele><time>2026-04-17T08:38:20Z</time></trkpt><trkpt lat="-23.733875578973546" lon="113.99729979035266"><ele>11.0</ele><time>2026-04-17T08:38:21Z</time></trkpt><trkpt lat="-23.733650232186374" lon="113.99711509432751"><ele>11.5</ele><time>2026-04-17T08:38:22Z</time></trkpt><trkpt lat="-23.7334255426953" lon="113.996927534738"><ele>12.0</ele><time>2026-04-17T08:38:23Z</time></trkpt><trkpt lat="-23.733203338887044" lon="113.99674144329904"><ele>13.5</ele><time>2026-04-17T08:38:24Z</time></trkpt><trkpt lat="-23.732984990746335" lon="113.99655859188117"><ele>15.0</ele><time>2026-04-17T08:38:25Z</time></trkpt><trkpt lat="-23.73276766720973" lon="113.99637993628883"><ele>15.5</ele><time>2026-04-17T08:38:26Z</time></trkpt><trkpt lat="-23.732552673859857" lon="113.9962042980575"><ele>16.0</ele><time>2026-04-17T08:38:27Z</time></trkpt><trkpt lat="-23.73234258023969" lon="113.99602809433321"><ele>16.0</ele><time>2026-04-17T08:38:28Z</time></trkpt><trkpt lat="-23.732130935107296" lon="113.99584907782733"><ele>16.0</ele><time>2026-04-17T08:38:29Z</time></trkpt><trkpt lat="-23.731915092835212" lon="113.99567290765874"><ele>17.0</ele><time>2026-04-17T08:38:30Z</time></trkpt><trkpt lat="-23.731698811497633" lon="113.99549773005957"><ele>18.0</ele><time>2026-04-17T08:38:31Z</time></trkpt><trkpt lat="-23.731482860469626" lon="113.99531938524213"><ele>18.0</ele><time>2026-04-17T08:38:32Z</time></trkpt><trkpt lat="-23.73126392194679" lon="113.99513861944446"><ele>18.0</ele><time>2026-04-17T08:38:33Z</time></trkpt><trkpt lat="-23.7310466131445" lon="113.9949617280848"><ele>18.0</ele><time>2026-04-17T08:38:34Z</time></trkpt><trkpt lat="-23.73082550178029" lon="113.99477943535422"><ele>18.0</ele><time>2026-04-17T08:38:35Z</time></trkpt><trkpt lat="-23.73061025278798" lon="113.99460080650196"><ele>18.0</ele><time>2026-04-17T08:38:36Z</time></trkpt><trkpt lat="-23.73039786299172" lon="113.99442388808978"><ele>18.0</ele><time>2026-04-17T08:38:37Z</time></trkpt><trkpt lat="-23.73018897730387" lon="113.9942527352042"><ele>15.5</ele><time>2026-04-17T08:38:38Z</time></trkpt><trkpt lat="-23.729985718866835" lon="113.99408512373455"><ele>13.0</ele><time>2026-04-17T08:38:39Z</time></trkpt><trkpt lat="-23.72978432386068" lon="113.99391809021763"><ele>13.0</ele><time>2026-04-17T08:38:40Z</time></trkpt><trkpt lat="-23.72958905760683" lon="113.99375003440645"><ele>13.0</ele><time>2026-04-17T08:38:41Z</time></trkpt><trkpt lat="-23.72940182778185" lon="113.9935863891026"><ele>12.5</ele><time>2026-04-17T08:38:42Z</time></trkpt><trkpt lat="-23.72922477670021" lon="113.99342750602447"><ele>12.0</ele><time>2026-04-17T08:38:43Z</time></trkpt><trkpt lat="-23.72905625779138" lon="113.99327133242572"><ele>12.0</ele><time>2026-04-17T08:38:44Z</time></trkpt><trkpt lat="-23.728900166057233" lon="113.99311844917594"><ele>12.0</ele><time>2026-04-17T08:38:45Z</time></trkpt><trkpt lat="-23.728752976762095" lon="113.99296711848066"><ele>12.0</ele><time>2026-04-17T08:38:46Z</time></trkpt><trkpt lat="-23.728615695410983" lon="113.99281935307665"><ele>11.333333333333334</ele><time>2026-04-17T08:38:47Z</time></trkpt><trkpt lat="-23.728486466869548" lon="113.99267137101509"><ele>10.666666666666668</ele><time>2026-04-17T08:38:48Z</time></trkpt><trkpt lat="-23.728356608502096" lon="113.9925164916344"><ele>10.0</ele><time>2026-04-17T08:38:49Z</time></trkpt><trkpt lat="-23.7282264076468" lon="113.99236178492531"><ele>9.333333333333334</ele><time>2026-04-17T08:38:50Z</time></trkpt><trkpt lat="-23.728092785357834" lon="113.99220107716758"><ele>8.666666666666666</ele><time>2026-04-17T08:38:51Z</time></trkpt><trkpt lat="-23.727947584074897" lon="113.99202643327563"><ele>8.0</ele><time>2026-04-17T08:38:52Z</time></trkpt><trkpt lat="-23.72779645305645" lon="113.9918512625576"><ele>8.0</ele><time>2026-04-17T08:38:53Z</time></trkpt><trkpt lat="-23.72763697691044" lon="113.9916695603196"><ele>8.0</ele><time>2026-04-17T08:38:54Z</time></trkpt><trkpt lat="-23.72747476268559" lon="113.99148246110876"><ele>8.0</ele><time>2026-04-17T08:38:55Z</time></trkpt><trkpt lat="-23.727311701947222" lon="113.99129059595127"><ele>8.0</ele><time>2026-04-17T08:38:56Z</time></trkpt><trkpt lat="-23.727149436954182" lon="113.99109596580541"><ele>8.0</ele><time>2026-04-17T08:38:57Z</time></trkpt><trkpt lat="-23.726987967064243" lon="113.99090148115849"><ele>8.0</ele><time>2026-04-17T08:38:58Z</time></trkpt><trkpt lat="-23.726822828039467" lon="113.99070894118285"><ele>8.0</ele><time>2026-04-17T08:38:59Z</time></trkpt><trkpt lat="-23.72665772618669" lon="113.99051568986724"><ele>8.0</ele><time>2026-04-17T08:39:00Z</time></trkpt><trkpt lat="-23.726492613981364" lon="113.99032644960167"><ele>8.0</ele><time>2026-04-17T08:39:01Z</time></trkpt><trkpt lat="-23.726325168492792" lon="113.99013352693616"><ele>8.0</ele><time>2026-04-17T08:39:02Z</time></trkpt><trkpt lat="-23.726162520784893" lon="113.9899442650495"><ele>9.0</ele><time>2026-04-17T08:39:03Z</time></trkpt><trkpt lat="-23.725999725536177" lon="113.98975634346353"><ele>10.0</ele><time>2026-04-17T08:39:04Z</time></trkpt><trkpt lat="-23.72583423888796" lon="113.98956241969074"><ele>10.0</ele><time>2026-04-17T08:39:05Z</time></trkpt><trkpt lat="-23.725674826381344" lon="113.98937183661302"><ele>10.0</ele><time>2026-04-17T08:39:06Z</time></trkpt><trkpt lat="-23.72551451637725" lon="113.98917380534176"><ele>10.5</ele><time>2026-04-17T08:39:07Z</time></trkpt><trkpt lat="-23.725351435754092" lon="113.98897525471402"><ele>11.0</ele><time>2026-04-17T08:39:08Z</time></trkpt><trkpt lat="-23.72517934712924" lon="113.98877475275495"><ele>11.0</ele><time>2026-04-17T08:39:09Z</time></trkpt><trkpt lat="-23.72500682684114" lon="113.98857883879951"><ele>11.0</ele><time>2026-04-17T08:39:10Z</time></trkpt><trkpt lat="-23.724836915579893" lon="113.98838339240532"><ele>11.0</ele><time>2026-04-17T08:39:11Z</time></trkpt><trkpt lat="-23.724668174864732" lon="113.9881899165296"><ele>11.0</ele><time>2026-04-17T08:39:12Z</time></trkpt><trkpt lat="-23.724501694371135" lon="113.98799795113001"><ele>10.5</ele><time>2026-04-17T08:39:13Z</time></trkpt><trkpt lat="-23.724334338568088" lon="113.98780088870117"><ele>10.0</ele><time>2026-04-17T08:39:14Z</time></trkpt><trkpt lat="-23.724178534024915" lon="113.9876128366332"><ele>10.333333333333334</ele><time>2026-04-17T08:39:15Z</time></trkpt><trkpt lat="-23.724029012773634" lon="113.98744225584531"><ele>10.666666666666666</ele><time>2026-04-17T08:39:16Z</time></trkpt><trkpt lat="-23.723881324373128" lon="113.98728306560838"><ele>11.0</ele><time>2026-04-17T08:39:17Z</time></trkpt><trkpt lat="-23.723740397510603" lon="113.98712519011966"><ele>11.0</ele><time>2026-04-17T08:39:18Z</time></trkpt><trkpt lat="-23.723599442277692" lon="113.9869553553116"><ele>11.0</ele><time>2026-04-17T08:39:19Z</time></trkpt><trkpt lat="-23.723457087016012" lon="113.98678224827593"><ele>11.0</ele><time>2026-04-17T08:39:20Z</time></trkpt><trkpt lat="-23.72331066854964" lon="113.9866129387821"><ele>10.333333333333332</ele><time>2026-04-17T08:39:21Z</time></trkpt><trkpt lat="-23.72316880964748" lon="113.98644711774641"><ele>9.666666666666666</ele><time>2026-04-17T08:39:22Z</time></trkpt><trkpt lat="-23.72302656626601" lon="113.98627315019168"><ele>9.0</ele><time>2026-04-17T08:39:23Z</time></trkpt><trkpt lat="-23.722883837585115" lon="113.98609964892718"><ele>9.0</ele><time>2026-04-17T08:39:24Z</time></trkpt><trkpt lat="-23.72273306072425" lon="113.98592612646242"><ele>9.0</ele><time>2026-04-17T08:39:25Z</time></trkpt><trkpt lat="-23.722576248791412" lon="113.98575253754449"><ele>9.0</ele><time>2026-04-17T08:39:26Z</time></trkpt><trkpt lat="-23.722416810587827" lon="113.98558183112425"><ele>9.333333333333334</ele><time>2026-04-17T08:39:27Z</time></trkpt><trkpt lat="-23.722253528359786" lon="113.98541560705856"><ele>9.666666666666668</ele><time>2026-04-17T08:39:28Z</time></trkpt><trkpt lat="-23.722084607081364" lon="113.985255027289"><ele>10.0</ele><time>2026-04-17T08:39:29Z</time></trkpt><trkpt lat="-23.72190695447851" lon="113.98509743386627"><ele>9.5</ele><time>2026-04-17T08:39:30Z</time></trkpt><trkpt lat="-23.721726904694542" lon="113.98494131822537"><ele>9.0</ele><time>2026-04-17T08:39:31Z</time></trkpt><trkpt lat="-23.721541911258292" lon="113.98479296974791"><ele>9.0</ele><time>2026-04-17T08:39:32Z</time></trkpt><trkpt lat="-23.721348447339153" lon="113.98465152261845"><ele>9.0</ele><time>2026-04-17T08:39:33Z</time></trkpt><trkpt lat="-23.721150911917878" lon="113.98450981722547"><ele>10.5</ele><time>2026-04-17T08:39:34Z</time></trkpt><trkpt lat="-23.72094653805046" lon="113.98437211119895"><ele>12.0</ele><time>2026-04-17T08:39:35Z</time></trkpt><trkpt lat="-23.720732060833676" lon="113.98423960556431"><ele>12.0</ele><time>2026-04-17T08:39:36Z</time></trkpt><trkpt lat="-23.720512351808434" lon="113.98411708520132"><ele>12.0</ele><time>2026-04-17T08:39:37Z</time></trkpt><trkpt lat="-23.72028589330043" lon="113.98399807889477"><ele>12.5</ele><time>2026-04-17T08:39:38Z</time></trkpt><trkpt lat="-23.720057302411405" lon="113.98388448629944"><ele>13.0</ele><time>2026-04-17T08:39:39Z</time></trkpt><trkpt lat="-23.719829651225027" lon="113.98377543950976"><ele>13.0</ele><time>2026-04-17T08:39:40Z</time></trkpt><trkpt lat="-23.719594439052273" lon="113.98367119422956"><ele>13.0</ele><time>2026-04-17T08:39:41Z</time></trkpt><trkpt lat="-23.719360278655405" lon="113.9835750853084"><ele>13.5</ele><time>2026-04-17T08:39:42Z</time></trkpt><trkpt lat="-23.719126445472156" lon="113.98348966550894"><ele>14.0</ele><time>2026-04-17T08:39:43Z</time></trkpt><trkpt lat="-23.718891527586894" lon="113.98341416305524"><ele>14.0</ele><time>2026-04-17T08:39:44Z</time></trkpt><trkpt lat="-23.718652164799057" lon="113.98335233766099"><ele>14.0</ele><time>2026-04-17T08:39:45Z</time></trkpt><trkpt lat="-23.71841276992324" lon="113.98329559729954"><ele>14.0</ele><time>2026-04-17T08:39:46Z</time></trkpt><trkpt lat="-23.718173571682385" lon="113.98323317381644"><ele>14.0</ele><time>2026-04-17T08:39:47Z</time></trkpt><trkpt lat="-23.717933021155027" lon="113.9831632096914"><ele>14.5</ele><time>2026-04-17T08:39:48Z</time></trkpt><trkpt lat="-23.717692253694217" lon="113.9830942697006"><ele>15.0</ele><time>2026-04-17T08:39:49Z</time></trkpt><trkpt lat="-23.71744487440398" lon="113.9830262342927"><ele>15.0</ele><time>2026-04-17T08:39:50Z</time></trkpt><trkpt lat="-23.717190022311346" lon="113.98295701933202"><ele>15.0</ele><time>2026-04-17T08:39:51Z</time></trkpt><trkpt lat="-23.716933000427737" lon="113.9828854252353"><ele>15.0</ele><time>2026-04-17T08:39:52Z</time></trkpt><trkpt lat="-23.716675149493373" lon="113.98281136763441"><ele>15.0</ele><time>2026-04-17T08:39:53Z</time></trkpt><trkpt lat="-23.716416687976896" lon="113.9827364880278"><ele>15.0</ele><time>2026-04-17T08:39:54Z</time></trkpt><trkpt lat="-23.71616018604058" lon="113.98266399429602"><ele>15.0</ele><time>2026-04-17T08:39:55Z</time></trkpt><trkpt lat="-23.715902292863746" lon="113.98259295133163"><ele>15.0</ele><time>2026-04-17T08:39:56Z</time></trkpt><trkpt lat="-23.715643976802205" lon="113.98252491739525"><ele>15.0</ele><time>2026-04-17T08:39:57Z</time></trkpt><trkpt lat="-23.715381718603638" lon="113.98245371363736"><ele>16.5</ele><time>2026-04-17T08:39:58Z</time></trkpt><trkpt lat="-23.715119845580737" lon="113.98238014606518"><ele>18.0</ele><time>2026-04-17T08:39:59Z</time></trkpt><trkpt lat="-23.714857563057087" lon="113.98230456326658"><ele>18.0</ele><time>2026-04-17T08:40:00Z</time></trkpt><trkpt lat="-23.71459368631536" lon="113.98222704935505"><ele>18.0</ele><time>2026-04-17T08:40:01Z</time></trkpt><trkpt lat="-23.71433317856273" lon="113.98215504661057"><ele>18.0</ele><time>2026-04-17T08:40:02Z</time></trkpt><trkpt lat="-23.71407275668817" lon="113.98208526226327"><ele>18.0</ele><time>2026-04-17T08:40:03Z</time></trkpt><trkpt lat="-23.713812627275328" lon="113.98201521404634"><ele>17.5</ele><time>2026-04-17T08:40:04Z</time></trkpt><trkpt lat="-23.713554149522096" lon="113.98194455364676"><ele>17.0</ele><time>2026-04-17T08:40:05Z</time></trkpt><trkpt lat="-23.713292002531308" lon="113.98187138295023"><ele>17.0</ele><time>2026-04-17T08:40:06Z</time></trkpt><trkpt lat="-23.713026886182547" lon="113.98179634668907"><ele>17.0</ele><time>2026-04-17T08:40:07Z</time></trkpt><trkpt lat="-23.712753127622378" lon="113.98171788487763"><ele>17.0</ele><time>2026-04-17T08:40:08Z</time></trkpt><trkpt lat="-23.712475278124572" lon="113.98163908580126"><ele>17.0</ele><time>2026-04-17T08:40:09Z</time></trkpt><trkpt lat="-23.71219139413259" lon="113.98156071996351"><ele>17.0</ele><time>2026-04-17T08:40:10Z</time></trkpt><trkpt lat="-23.711907333044987" lon="113.98148506415038"><ele>17.0</ele><time>2026-04-17T08:40:11Z</time></trkpt><trkpt lat="-23.71162392296475" lon="113.98140609956478"><ele>17.0</ele><time>2026-04-17T08:40:12Z</time></trkpt><trkpt lat="-23.711339181264904" lon="113.98132613586579"><ele>17.0</ele><time>2026-04-17T08:40:13Z</time></trkpt><trkpt lat="-23.711053563958554" lon="113.9812434907538"><ele>17.0</ele><time>2026-04-17T08:40:14Z</time></trkpt><trkpt lat="-23.710770829012166" lon="113.98116544916846"><ele>17.0</ele><time>2026-04-17T08:40:15Z</time></trkpt><trkpt lat="-23.7104884026792" lon="113.9810881187333"><ele>18.0</ele><time>2026-04-17T08:40:16Z</time></trkpt><trkpt lat="-23.710207407172017" lon="113.98101101428699"><ele>19.0</ele><time>2026-04-17T08:40:17Z</time></trkpt><trkpt lat="-23.70992834081186" lon="113.98093636379997"><ele>19.0</ele><time>2026-04-17T08:40:18Z</time></trkpt><trkpt lat="-23.709650534935847" lon="113.98085946382669"><ele>19.0</ele><time>2026-04-17T08:40:19Z</time></trkpt><trkpt lat="-23.70937698846539" lon="113.98078127010949"><ele>19.5</ele><time>2026-04-17T08:40:20Z</time></trkpt><trkpt lat="-23.70909984466189" lon="113.98070270700092"><ele>20.0</ele><time>2026-04-17T08:40:21Z</time></trkpt><trkpt lat="-23.708826854881806" lon="113.98062539271265"><ele>19.5</ele><time>2026-04-17T08:40:22Z</time></trkpt><trkpt lat="-23.708554435476525" lon="113.98054946102685"><ele>19.0</ele><time>2026-04-17T08:40:23Z</time></trkpt><trkpt lat="-23.708285216546802" lon="113.98047525901197"><ele>19.0</ele><time>2026-04-17T08:40:24Z</time></trkpt><trkpt lat="-23.70801163854066" lon="113.98039843523797"><ele>19.0</ele><time>2026-04-17T08:40:25Z</time></trkpt><trkpt lat="-23.707736764541128" lon="113.98031866933421"><ele>18.5</ele><time>2026-04-17T08:40:26Z</time></trkpt><trkpt lat="-23.707464795524086" lon="113.98024066327444"><ele>18.0</ele><time>2026-04-17T08:40:27Z</time></trkpt><trkpt lat="-23.707195736367318" lon="113.98016590598917"><ele>18.0</ele><time>2026-04-17T08:40:28Z</time></trkpt><trkpt lat="-23.706927205600074" lon="113.98009213367244"><ele>18.0</ele><time>2026-04-17T08:40:29Z</time></trkpt><trkpt lat="-23.706658372964508" lon="113.98001907259024"><ele>18.0</ele><time>2026-04-17T08:40:30Z</time></trkpt><trkpt lat="-23.706389498395996" lon="113.97994677749385"><ele>18.0</ele><time>2026-04-17T08:40:31Z</time></trkpt><trkpt lat="-23.706120526865078" lon="113.97987349350022"><ele>19.0</ele><time>2026-04-17T08:40:32Z</time></trkpt><trkpt lat="-23.70585284046941" lon="113.9797997589879"><ele>20.0</ele><time>2026-04-17T08:40:33Z</time></trkpt><trkpt lat="-23.705585891182942" lon="113.97972355522795"><ele>20.0</ele><time>2026-04-17T08:40:34Z</time></trkpt><trkpt lat="-23.70531952129143" lon="113.97964576125145"><ele>20.0</ele><time>2026-04-17T08:40:35Z</time></trkpt><trkpt lat="-23.705050234656206" lon="113.97956746942076"><ele>19.5</ele><time>2026-04-17T08:40:36Z</time></trkpt><trkpt lat="-23.70477629245167" lon="113.97949046670102"><ele>19.0</ele><time>2026-04-17T08:40:37Z</time></trkpt><trkpt lat="-23.704502568844624" lon="113.9794152070065"><ele>18.5</ele><time>2026-04-17T08:40:38Z</time></trkpt><trkpt lat="-23.704233021436497" lon="113.97934081619137"><ele>18.0</ele><time>2026-04-17T08:40:39Z</time></trkpt><trkpt lat="-23.70396850359881" lon="113.97926772289091"><ele>18.0</ele><time>2026-04-17T08:40:40Z</time></trkpt><trkpt lat="-23.70371041026949" lon="113.97919551703603"><ele>18.0</ele><time>2026-04-17T08:40:41Z</time></trkpt><trkpt lat="-23.703462284925862" lon="113.97912683155367"><ele>19.0</ele><time>2026-04-17T08:40:42Z</time></trkpt><trkpt lat="-23.703217236603614" lon="113.97906003153007"><ele>20.0</ele><time>2026-04-17T08:40:43Z</time></trkpt><trkpt lat="-23.702971707619916" lon="113.97899165085035"><ele>20.0</ele><time>2026-04-17T08:40:44Z</time></trkpt><trkpt lat="-23.702741653960032" lon="113.9789285103065"><ele>20.0</ele><time>2026-04-17T08:40:45Z</time></trkpt><trkpt lat="-23.702523919858624" lon="113.97886961008976"><ele>20.0</ele><time>2026-04-17T08:40:46Z</time></trkpt><trkpt lat="-23.702316631002823" lon="113.978812459117"><ele>20.0</ele><time>2026-04-17T08:40:47Z</time></trkpt><trkpt lat="-23.70211523264469" lon="113.97875942134101"><ele>20.0</ele><time>2026-04-17T08:40:48Z</time></trkpt><trkpt lat="-23.70190524504505" lon="113.97869853470728"><ele>20.0</ele><time>2026-04-17T08:40:49Z</time></trkpt><trkpt lat="-23.701688265064497" lon="113.9786302583968"><ele>20.0</ele><time>2026-04-17T08:40:50Z</time></trkpt><trkpt lat="-23.701461370334496" lon="113.97856776098386"><ele>20.0</ele><time>2026-04-17T08:40:51Z</time></trkpt><trkpt lat="-23.701221351376095" lon="113.97850711028424"><ele>20.0</ele><time>2026-04-17T08:40:52Z</time></trkpt><trkpt lat="-23.70097238419148" lon="113.9784401290577"><ele>20.5</ele><time>2026-04-17T08:40:53Z</time></trkpt><trkpt lat="-23.70071590939659" lon="113.97836633412021"><ele>21.0</ele><time>2026-04-17T08:40:54Z</time></trkpt><trkpt lat="-23.70045562358932" lon="113.97829459596223"><ele>21.0</ele><time>2026-04-17T08:40:55Z</time></trkpt><trkpt lat="-23.7001894988832" lon="113.97822322794919"><ele>21.0</ele><time>2026-04-17T08:40:56Z</time></trkpt><trkpt lat="-23.699919325848622" lon="113.97814818661969"><ele>21.0</ele><time>2026-04-17T08:40:57Z</time></trkpt><trkpt lat="-23.699645423692758" lon="113.97806949430739"><ele>21.0</ele><time>2026-04-17T08:40:58Z</time></trkpt><trkpt lat="-23.69937414094538" lon="113.97799310995977"><ele>21.5</ele><time>2026-04-17T08:40:59Z</time></trkpt><trkpt lat="-23.699098111661602" lon="113.97791734241987"><ele>22.0</ele><time>2026-04-17T08:41:00Z</time></trkpt><trkpt lat="-23.69881883429215" lon="113.9778398793279"><ele>21.0</ele><time>2026-04-17T08:41:01Z</time></trkpt><trkpt lat="-23.698536719392045" lon="113.97775834600324"><ele>20.0</ele><time>2026-04-17T08:41:02Z</time></trkpt><trkpt lat="-23.69825454046464" lon="113.97767866247128"><ele>20.0</ele><time>2026-04-17T08:41:03Z</time></trkpt><trkpt lat="-23.697972001021377" lon="113.977603295299"><ele>20.0</ele><time>2026-04-17T08:41:04Z</time></trkpt><trkpt lat="-23.697690308335915" lon="113.97752942597025"><ele>21.0</ele><time>2026-04-17T08:41:05Z</time></trkpt><trkpt lat="-23.697406960557" lon="113.97745020890191"><ele>22.0</ele><time>2026-04-17T08:41:06Z</time></trkpt><trkpt lat="-23.6971210019733" lon="113.97736730343081"><ele>22.0</ele><time>2026-04-17T08:41:07Z</time></trkpt><trkpt lat="-23.696828859497252" lon="113.97728393079329"><ele>22.0</ele><time>2026-04-17T08:41:08Z</time></trkpt><trkpt lat="-23.696535763534037" lon="113.9772001609368"><ele>22.0</ele><time>2026-04-17T08:41:09Z</time></trkpt><trkpt lat="-23.69624138623356" lon="113.9771168980984"><ele>22.0</ele><time>2026-04-17T08:41:10Z</time></trkpt><trkpt lat="-23.69594782665172" lon="113.97703555281215"><ele>22.5</ele><time>2026-04-17T08:41:11Z</time></trkpt><trkpt lat="-23.695651840226617" lon="113.97695562538989"><ele>23.0</ele><time>2026-04-17T08:41:12Z</time></trkpt><trkpt lat="-23.695353502129116" lon="113.97687564468362"><ele>22.5</ele><time>2026-04-17T08:41:13Z</time></trkpt><trkpt lat="-23.695053045812106" lon="113.97679250034031"><ele>22.0</ele><time>2026-04-17T08:41:14Z</time></trkpt><trkpt lat="-23.694454088363617" lon="113.97662177657095"><ele>23.5</ele><time>2026-04-17T08:41:16Z</time></trkpt><trkpt lat="-23.694156956821285" lon="113.9765360142198"><ele>25.0</ele><time>2026-04-17T08:41:17Z</time></trkpt><trkpt lat="-23.693860944895373" lon="113.97645307477099"><ele>25.0</ele><time>2026-04-17T08:41:18Z</time></trkpt><trkpt lat="-23.69356792018391" lon="113.97637060607163"><ele>25.0</ele><time>2026-04-17T08:41:19Z</time></trkpt><trkpt lat="-23.693272675757427" lon="113.97628556167209"><ele>25.0</ele><time>2026-04-17T08:41:20Z</time></trkpt><trkpt lat="-23.692978783225545" lon="113.976201561438"><ele>25.0</ele><time>2026-04-17T08:41:21Z</time></trkpt><trkpt lat="-23.692684079678525" lon="113.97611946806103"><ele>24.0</ele><time>2026-04-17T08:41:22Z</time></trkpt><trkpt lat="-23.692388145675896" lon="113.9760405604727"><ele>23.0</ele><time>2026-04-17T08:41:23Z</time></trkpt><trkpt lat="-23.69209290448658" lon="113.97596277114218"><ele>24.0</ele><time>2026-04-17T08:41:24Z</time></trkpt><trkpt lat="-23.69179621684852" lon="113.97588409574146"><ele>25.0</ele><time>2026-04-17T08:41:25Z</time></trkpt><trkpt lat="-23.69150172007546" lon="113.97580382245357"><ele>26.0</ele><time>2026-04-17T08:41:26Z</time></trkpt><trkpt lat="-23.691202679464812" lon="113.97572128632127"><ele>27.0</ele><time>2026-04-17T08:41:27Z</time></trkpt><trkpt lat="-23.690900025366528" lon="113.97563450453839"><ele>25.0</ele><time>2026-04-17T08:41:28Z</time></trkpt><trkpt lat="-23.690600058019896" lon="113.9755480472111"><ele>23.0</ele><time>2026-04-17T08:41:29Z</time></trkpt><trkpt lat="-23.69029789170028" lon="113.9754642645837"><ele>22.5</ele><time>2026-04-17T08:41:30Z</time></trkpt><trkpt lat="-23.68999459518047" lon="113.9753809605041"><ele>22.0</ele><time>2026-04-17T08:41:31Z</time></trkpt><trkpt lat="-23.689694293895666" lon="113.97529564614197"><ele>23.0</ele><time>2026-04-17T08:41:32Z</time></trkpt><trkpt lat="-23.689392970033172" lon="113.97521063850378"><ele>24.0</ele><time>2026-04-17T08:41:33Z</time></trkpt><trkpt lat="-23.689094216348515" lon="113.97512798014341"><ele>24.0</ele><time>2026-04-17T08:41:34Z</time></trkpt><trkpt lat="-23.688795825723844" lon="113.9750467170101"><ele>24.0</ele><time>2026-04-17T08:41:35Z</time></trkpt><trkpt lat="-23.688500179458202" lon="113.97496566151679"><ele>24.0</ele><time>2026-04-17T08:41:36Z</time></trkpt><trkpt lat="-23.688202290585057" lon="113.97488313946766"><ele>24.0</ele><time>2026-04-17T08:41:37Z</time></trkpt><trkpt lat="-23.687905928358084" lon="113.97480298829485"><ele>23.0</ele><time>2026-04-17T08:41:38Z</time></trkpt><trkpt lat="-23.687606457921973" lon="113.97471971001721"><ele>22.0</ele><time>2026-04-17T08:41:39Z</time></trkpt><trkpt lat="-23.687307862228884" lon="113.97463395598068"><ele>22.0</ele><time>2026-04-17T08:41:40Z</time></trkpt><trkpt lat="-23.687012138129024" lon="113.97455020098417"><ele>22.0</ele><time>2026-04-17T08:41:41Z</time></trkpt><trkpt lat="-23.68671428034894" lon="113.9744651434307"><ele>22.5</ele><time>2026-04-17T08:41:42Z</time></trkpt><trkpt lat="-23.68641753252124" lon="113.97437836699233"><ele>23.0</ele><time>2026-04-17T08:41:43Z</time></trkpt><trkpt lat="-23.686124939131673" lon="113.97429169385751"><ele>23.5</ele><time>2026-04-17T08:41:44Z</time></trkpt><trkpt lat="-23.685830689543643" lon="113.97420375047801"><ele>24.0</ele><time>2026-04-17T08:41:45Z</time></trkpt><trkpt lat="-23.68553839072298" lon="113.97411554753549"><ele>22.5</ele><time>2026-04-17T08:41:46Z</time></trkpt><trkpt lat="-23.68524264159763" lon="113.97402336698106"><ele>21.0</ele><time>2026-04-17T08:41:47Z</time></trkpt><trkpt lat="-23.6849495794389" lon="113.97392962790224"><ele>21.0</ele><time>2026-04-17T08:41:48Z</time></trkpt><trkpt lat="-23.68465829236537" lon="113.97382888118406"><ele>21.0</ele><time>2026-04-17T08:41:49Z</time></trkpt><trkpt lat="-23.684369156918535" lon="113.97371888254276"><ele>19.5</ele><time>2026-04-17T08:41:50Z</time></trkpt><trkpt lat="-23.68408391259622" lon="113.9736006979883"><ele>18.0</ele><time>2026-04-17T08:41:51Z</time></trkpt><trkpt lat="-23.683798126853418" lon="113.97348336182993"><ele>17.5</ele><time>2026-04-17T08:41:52Z</time></trkpt><trkpt lat="-23.683509340187516" lon="113.97336628829127"><ele>17.0</ele><time>2026-04-17T08:41:53Z</time></trkpt><trkpt lat="-23.683223987505016" lon="113.97325172492577"><ele>17.0</ele><time>2026-04-17T08:41:54Z</time></trkpt><trkpt lat="-23.68293469726989" lon="113.9731384386588"><ele>17.0</ele><time>2026-04-17T08:41:55Z</time></trkpt><trkpt lat="-23.682646605108022" lon="113.97302800565497"><ele>17.0</ele><time>2026-04-17T08:41:56Z</time></trkpt><trkpt lat="-23.68235485715128" lon="113.97291765660692"><ele>17.0</ele><time>2026-04-17T08:41:57Z</time></trkpt><trkpt lat="-23.68206682602557" lon="113.97280550114954"><ele>19.0</ele><time>2026-04-17T08:41:58Z</time></trkpt><trkpt lat="-23.68177745232674" lon="113.9726909426266"><ele>21.0</ele><time>2026-04-17T08:41:59Z</time></trkpt><trkpt lat="-23.681488101039736" lon="113.97257832299246"><ele>21.0</ele><time>2026-04-17T08:42:00Z</time></trkpt><trkpt lat="-23.68120266343392" lon="113.97246577334118"><ele>21.0</ele><time>2026-04-17T08:42:01Z</time></trkpt><trkpt lat="-23.68091813534087" lon="113.97235361025014"><ele>21.5</ele><time>2026-04-17T08:42:02Z</time></trkpt><trkpt lat="-23.680633306200622" lon="113.97224398760338"><ele>22.0</ele><time>2026-04-17T08:42:03Z</time></trkpt><trkpt lat="-23.680349037414597" lon="113.97213370657302"><ele>23.0</ele><time>2026-04-17T08:42:04Z</time></trkpt><trkpt lat="-23.680067154664155" lon="113.9720238436246"><ele>24.0</ele><time>2026-04-17T08:42:05Z</time></trkpt><trkpt lat="-23.67978696943167" lon="113.9719143150206"><ele>24.0</ele><time>2026-04-17T08:42:06Z</time></trkpt><trkpt lat="-23.67950549424596" lon="113.97180451124143"><ele>24.0</ele><time>2026-04-17T08:42:07Z</time></trkpt><trkpt lat="-23.679225267424577" lon="113.97169539121958"><ele>23.5</ele><time>2026-04-17T08:42:08Z</time></trkpt><trkpt lat="-23.678949399641102" lon="113.97158419395593"><ele>23.0</ele><time>2026-04-17T08:42:09Z</time></trkpt><trkpt lat="-23.67866976126653" lon="113.971473621924"><ele>22.0</ele><time>2026-04-17T08:42:10Z</time></trkpt><trkpt lat="-23.6783931075393" lon="113.97136573464502"><ele>21.0</ele><time>2026-04-17T08:42:11Z</time></trkpt><trkpt lat="-23.678118132369626" lon="113.97125841560323"><ele>21.0</ele><time>2026-04-17T08:42:12Z</time></trkpt><trkpt lat="-23.677844066092387" lon="113.9711523623569"><ele>21.0</ele><time>2026-04-17T08:42:13Z</time></trkpt><trkpt lat="-23.677568896241013" lon="113.97104466285778"><ele>22.5</ele><time>2026-04-17T08:42:14Z</time></trkpt><trkpt lat="-23.67729228376535" lon="113.97093710603056"><ele>24.0</ele><time>2026-04-17T08:42:15Z</time></trkpt><trkpt lat="-23.677015172688023" lon="113.97083252860662"><ele>23.0</ele><time>2026-04-17T08:42:16Z</time></trkpt><trkpt lat="-23.676737686893794" lon="113.97072838147541"><ele>22.0</ele><time>2026-04-17T08:42:17Z</time></trkpt><trkpt lat="-23.676462962032826" lon="113.97062120012998"><ele>22.0</ele><time>2026-04-17T08:42:18Z</time></trkpt><trkpt lat="-23.67618640801218" lon="113.9705102450707"><ele>22.0</ele><time>2026-04-17T08:42:19Z</time></trkpt><trkpt lat="-23.675913189883723" lon="113.9704034566163"><ele>21.0</ele><time>2026-04-17T08:42:20Z</time></trkpt><trkpt lat="-23.675635975894334" lon="113.97029863283294"><ele>20.0</ele><time>2026-04-17T08:42:21Z</time></trkpt><trkpt lat="-23.675364933935228" lon="113.97019524467005"><ele>20.0</ele><time>2026-04-17T08:42:22Z</time></trkpt><trkpt lat="-23.67509410686315" lon="113.97009340113709"><ele>20.0</ele><time>2026-04-17T08:42:23Z</time></trkpt><trkpt lat="-23.674828058636596" lon="113.96999397375329"><ele>20.0</ele><time>2026-04-17T08:42:24Z</time></trkpt><trkpt lat="-23.67456873287759" lon="113.96989361066935"><ele>20.0</ele><time>2026-04-17T08:42:25Z</time></trkpt><trkpt lat="-23.674318985929887" lon="113.96979308730928"><ele>20.0</ele><time>2026-04-17T08:42:26Z</time></trkpt><trkpt lat="-23.6740711536707" lon="113.96969487999161"><ele>20.0</ele><time>2026-04-17T08:42:27Z</time></trkpt><trkpt lat="-23.673817121584385" lon="113.96959122687461"><ele>19.5</ele><time>2026-04-17T08:42:28Z</time></trkpt><trkpt lat="-23.67355466819162" lon="113.96948361236062"><ele>19.0</ele><time>2026-04-17T08:42:29Z</time></trkpt><trkpt lat="-23.673291638378355" lon="113.96937869424796"><ele>19.0</ele><time>2026-04-17T08:42:30Z</time></trkpt><trkpt lat="-23.673026850533418" lon="113.96927964194742"><ele>19.0</ele><time>2026-04-17T08:42:31Z</time></trkpt><trkpt lat="-23.67276306895016" lon="113.96918413316385"><ele>19.5</ele><time>2026-04-17T08:42:32Z</time></trkpt><trkpt lat="-23.672502696519416" lon="113.96908603724269"><ele>20.0</ele><time>2026-04-17T08:42:33Z</time></trkpt><trkpt lat="-23.672244952259973" lon="113.9689871656728"><ele>20.0</ele><time>2026-04-17T08:42:34Z</time></trkpt><trkpt lat="-23.671988672848375" lon="113.96888572468947"><ele>20.0</ele><time>2026-04-17T08:42:35Z</time></trkpt><trkpt lat="-23.67172791886835" lon="113.96878042796486"><ele>20.5</ele><time>2026-04-17T08:42:36Z</time></trkpt><trkpt lat="-23.67146129015178" lon="113.96867262809612"><ele>21.0</ele><time>2026-04-17T08:42:37Z</time></trkpt><trkpt lat="-23.671188183195802" lon="113.96856184853351"><ele>21.5</ele><time>2026-04-17T08:42:38Z</time></trkpt><trkpt lat="-23.670912980072877" lon="113.9684537582457"><ele>22.0</ele><time>2026-04-17T08:42:39Z</time></trkpt><trkpt lat="-23.67062917785317" lon="113.96834483269647"><ele>22.0</ele><time>2026-04-17T08:42:40Z</time></trkpt><trkpt lat="-23.670340217741817" lon="113.96823411227292"><ele>22.0</ele><time>2026-04-17T08:42:41Z</time></trkpt><trkpt lat="-23.670051746241345" lon="113.96812184887136"><ele>21.5</ele><time>2026-04-17T08:42:42Z</time></trkpt><trkpt lat="-23.669766878042957" lon="113.96801183959342"><ele>21.0</ele><time>2026-04-17T08:42:43Z</time></trkpt><trkpt lat="-23.669484206937057" lon="113.96790458389329"><ele>21.0</ele><time>2026-04-17T08:42:44Z</time></trkpt><trkpt lat="-23.669204321866484" lon="113.96779963274386"><ele>21.0</ele><time>2026-04-17T08:42:45Z</time></trkpt><trkpt lat="-23.668926977382235" lon="113.96769272212013"><ele>21.0</ele><time>2026-04-17T08:42:46Z</time></trkpt><trkpt lat="-23.66865152131611" lon="113.96758854214936"><ele>21.0</ele><time>2026-04-17T08:42:47Z</time></trkpt><trkpt lat="-23.668377508396723" lon="113.96748426008466"><ele>21.0</ele><time>2026-04-17T08:42:48Z</time></trkpt><trkpt lat="-23.668101722295958" lon="113.96737729500123"><ele>21.0</ele><time>2026-04-17T08:42:49Z</time></trkpt><trkpt lat="-23.66782987464344" lon="113.96727021437395"><ele>22.0</ele><time>2026-04-17T08:42:50Z</time></trkpt><trkpt lat="-23.667555633712112" lon="113.96716321080166"><ele>23.0</ele><time>2026-04-17T08:42:51Z</time></trkpt><trkpt lat="-23.667281669203" lon="113.96705542726681"><ele>23.0</ele><time>2026-04-17T08:42:52Z</time></trkpt><trkpt lat="-23.667005984287595" lon="113.966948034394"><ele>23.0</ele><time>2026-04-17T08:42:53Z</time></trkpt><trkpt lat="-23.66672947956008" lon="113.9668378818459"><ele>22.5</ele><time>2026-04-17T08:42:54Z</time></trkpt><trkpt lat="-23.666451158479727" lon="113.96672701001438"><ele>22.0</ele><time>2026-04-17T08:42:55Z</time></trkpt><trkpt lat="-23.666168584927888" lon="113.96661530777466"><ele>22.0</ele><time>2026-04-17T08:42:56Z</time></trkpt><trkpt lat="-23.665890414091244" lon="113.96650630155027"><ele>22.0</ele><time>2026-04-17T08:42:57Z</time></trkpt><trkpt lat="-23.665624843668372" lon="113.96640364855814"><ele>22.0</ele><time>2026-04-17T08:42:58Z</time></trkpt><trkpt lat="-23.665374706019797" lon="113.96631111318023"><ele>22.0</ele><time>2026-04-17T08:42:59Z</time></trkpt><trkpt lat="-23.665118467709274" lon="113.9662159595019"><ele>21.0</ele><time>2026-04-17T08:43:00Z</time></trkpt><trkpt lat="-23.664858859387987" lon="113.9661203555052"><ele>20.0</ele><time>2026-04-17T08:43:01Z</time></trkpt><trkpt lat="-23.664594209282384" lon="113.96602761768146"><ele>20.0</ele><time>2026-04-17T08:43:02Z</time></trkpt><trkpt lat="-23.6643289432158" lon="113.96593887296696"><ele>20.0</ele><time>2026-04-17T08:43:03Z</time></trkpt><trkpt lat="-23.664056745042565" lon="113.96585885546594"><ele>21.0</ele><time>2026-04-17T08:43:04Z</time></trkpt><trkpt lat="-23.663779966692836" lon="113.96579148142231"><ele>22.0</ele><time>2026-04-17T08:43:05Z</time></trkpt><trkpt lat="-23.66349877606834" lon="113.96573191892419"><ele>22.0</ele><time>2026-04-17T08:43:06Z</time></trkpt><trkpt lat="-23.663213972939154" lon="113.96568237062965"><ele>22.0</ele><time>2026-04-17T08:43:07Z</time></trkpt><trkpt lat="-23.66292597979142" lon="113.96563588068713"><ele>23.5</ele><time>2026-04-17T08:43:08Z</time></trkpt><trkpt lat="-23.66264338707855" lon="113.9655877935717"><ele>25.0</ele><time>2026-04-17T08:43:09Z</time></trkpt><trkpt lat="-23.662362785357335" lon="113.96553901295408"><ele>25.0</ele><time>2026-04-17T08:43:10Z</time></trkpt><trkpt lat="-23.662077705484563" lon="113.96548489730853"><ele>25.0</ele><time>2026-04-17T08:43:11Z</time></trkpt><trkpt lat="-23.661793933184384" lon="113.96542721401225"><ele>24.0</ele><time>2026-04-17T08:43:12Z</time></trkpt><trkpt lat="-23.66151029383727" lon="113.96537169846594"><ele>23.0</ele><time>2026-04-17T08:43:13Z</time></trkpt><trkpt lat="-23.66122581294976" lon="113.9653207809245"><ele>23.5</ele><time>2026-04-17T08:43:14Z</time></trkpt><trkpt lat="-23.66094462861412" lon="113.96526988363202"><ele>24.0</ele><time>2026-04-17T08:43:15Z</time></trkpt><trkpt lat="-23.660663528255025" lon="113.96521840332613"><ele>24.0</ele><time>2026-04-17T08:43:16Z</time></trkpt><trkpt lat="-23.66038519498227" lon="113.96516866439347"><ele>24.0</ele><time>2026-04-17T08:43:17Z</time></trkpt><trkpt lat="-23.660110003232923" lon="113.96511798502877"><ele>22.0</ele><time>2026-04-17T08:43:18Z</time></trkpt><trkpt lat="-23.659833398800252" lon="113.96506539189251"><ele>20.0</ele><time>2026-04-17T08:43:19Z</time></trkpt><trkpt lat="-23.659557618349655" lon="113.96501213956395"><ele>20.5</ele><time>2026-04-17T08:43:20Z</time></trkpt><trkpt lat="-23.65927871630117" lon="113.96495817155034"><ele>21.0</ele><time>2026-04-17T08:43:21Z</time></trkpt><trkpt lat="-23.65899933003203" lon="113.96490677088998"><ele>21.0</ele><time>2026-04-17T08:43:22Z</time></trkpt><trkpt lat="-23.658719107584975" lon="113.96485589781949"><ele>21.0</ele><time>2026-04-17T08:43:23Z</time></trkpt><trkpt lat="-23.6584410344899" lon="113.96480432659975"><ele>22.0</ele><time>2026-04-17T08:43:24Z</time></trkpt><trkpt lat="-23.658161202781113" lon="113.96475116628282"><ele>23.0</ele><time>2026-04-17T08:43:25Z</time></trkpt><trkpt lat="-23.6578808413422" lon="113.9647018377088"><ele>24.0</ele><time>2026-04-17T08:43:26Z</time></trkpt><trkpt lat="-23.657599032324363" lon="113.96465172223884"><ele>25.0</ele><time>2026-04-17T08:43:27Z</time></trkpt><trkpt lat="-23.65731679341741" lon="113.96460071465187"><ele>25.0</ele><time>2026-04-17T08:43:28Z</time></trkpt><trkpt lat="-23.657031697182404" lon="113.96454403011163"><ele>25.0</ele><time>2026-04-17T08:43:29Z</time></trkpt><trkpt lat="-23.656745543564533" lon="113.96448785100554"><ele>22.5</ele><time>2026-04-17T08:43:30Z</time></trkpt><trkpt lat="-23.656459010268254" lon="113.96443183985801"><ele>20.0</ele><time>2026-04-17T08:43:31Z</time></trkpt><trkpt lat="-23.656173517616786" lon="113.9643765563033"><ele>19.0</ele><time>2026-04-17T08:43:32Z</time></trkpt><trkpt lat="-23.655883996320185" lon="113.96432300755534"><ele>18.0</ele><time>2026-04-17T08:43:33Z</time></trkpt><trkpt lat="-23.655596107404154" lon="113.96426748946347"><ele>18.0</ele><time>2026-04-17T08:43:34Z</time></trkpt><trkpt lat="-23.655305602980256" lon="113.9642106408273"><ele>18.0</ele><time>2026-04-17T08:43:35Z</time></trkpt><trkpt lat="-23.655010534220143" lon="113.96415789082965"><ele>20.0</ele><time>2026-04-17T08:43:36Z</time></trkpt><trkpt lat="-23.654713984892215" lon="113.96410776429393"><ele>22.0</ele><time>2026-04-17T08:43:37Z</time></trkpt><trkpt lat="-23.654410184916795" lon="113.96405776077263"><ele>22.5</ele><time>2026-04-17T08:43:38Z</time></trkpt><trkpt lat="-23.654107755947273" lon="113.96400471969362"><ele>23.0</ele><time>2026-04-17T08:43:39Z</time></trkpt><trkpt lat="-23.653804028963762" lon="113.96394556225206"><ele>22.0</ele><time>2026-04-17T08:43:40Z</time></trkpt><trkpt lat="-23.653500605302316" lon="113.96388648871401"><ele>21.0</ele><time>2026-04-17T08:43:41Z</time></trkpt><trkpt lat="-23.65320003170602" lon="113.96383035759796"><ele>21.0</ele><time>2026-04-17T08:43:42Z</time></trkpt><trkpt lat="-23.652898338886473" lon="113.96377283966618"><ele>21.0</ele><time>2026-04-17T08:43:43Z</time></trkpt><trkpt lat="-23.652598239016516" lon="113.96371859119914"><ele>20.5</ele><time>2026-04-17T08:43:44Z</time></trkpt><trkpt lat="-23.65229804758821" lon="113.96366672631412"><ele>20.0</ele><time>2026-04-17T08:43:45Z</time></trkpt><trkpt lat="-23.652001035302696" lon="113.96361231971926"><ele>20.0</ele><time>2026-04-17T08:43:46Z</time></trkpt><trkpt lat="-23.65170375308614" lon="113.96355211741812"><ele>20.0</ele><time>2026-04-17T08:43:47Z</time></trkpt><trkpt lat="-23.65140487859068" lon="113.9634954888655"><ele>19.0</ele><time>2026-04-17T08:43:48Z</time></trkpt><trkpt lat="-23.65110727336035" lon="113.96344046358332"><ele>18.0</ele><time>2026-04-17T08:43:49Z</time></trkpt><trkpt lat="-23.65080695445969" lon="113.96338510961179"><ele>19.0</ele><time>2026-04-17T08:43:50Z</time></trkpt><trkpt lat="-23.650507286457" lon="113.96332806681207"><ele>20.0</ele><time>2026-04-17T08:43:51Z</time></trkpt><trkpt lat="-23.65020823884824" lon="113.96326947347022"><ele>21.0</ele><time>2026-04-17T08:43:52Z</time></trkpt><trkpt lat="-23.649909333767635" lon="113.96321223839477"><ele>22.0</ele><time>2026-04-17T08:43:53Z</time></trkpt><trkpt lat="-23.649609100157445" lon="113.96315608628063"><ele>23.0</ele><time>2026-04-17T08:43:54Z</time></trkpt><trkpt lat="-23.649313221386443" lon="113.96310309832671"><ele>24.0</ele><time>2026-04-17T08:43:55Z</time></trkpt><trkpt lat="-23.64901477856992" lon="113.96305075795222"><ele>24.0</ele><time>2026-04-17T08:43:56Z</time></trkpt><trkpt lat="-23.648721772024288" lon="113.96299852258375"><ele>24.0</ele><time>2026-04-17T08:43:57Z</time></trkpt><trkpt lat="-23.648440018156688" lon="113.96295011248361"><ele>23.0</ele><time>2026-04-17T08:43:58Z</time></trkpt><trkpt lat="-23.64815767873329" lon="113.96290311825199"><ele>22.0</ele><time>2026-04-17T08:43:59Z</time></trkpt><trkpt lat="-23.64788200695831" lon="113.96285097220078"><ele>21.0</ele><time>2026-04-17T08:44:00Z</time></trkpt><trkpt lat="-23.647605813342317" lon="113.96279318908965"><ele>20.0</ele><time>2026-04-17T08:44:01Z</time></trkpt><trkpt lat="-23.647331421285198" lon="113.96274176857303"><ele>20.0</ele><time>2026-04-17T08:44:02Z</time></trkpt><trkpt lat="-23.647054971207297" lon="113.96269297915467"><ele>20.0</ele><time>2026-04-17T08:44:03Z</time></trkpt><trkpt lat="-23.646776609504737" lon="113.96264013212844"><ele>21.0</ele><time>2026-04-17T08:44:04Z</time></trkpt><trkpt lat="-23.64649084473102" lon="113.9625859384457"><ele>22.0</ele><time>2026-04-17T08:44:05Z</time></trkpt><trkpt lat="-23.64620027426559" lon="113.96252716971887"><ele>22.5</ele><time>2026-04-17T08:44:06Z</time></trkpt><trkpt lat="-23.645909419686948" lon="113.96247203064192"><ele>23.0</ele><time>2026-04-17T08:44:07Z</time></trkpt><trkpt lat="-23.645614765408617" lon="113.9624169543235"><ele>23.0</ele><time>2026-04-17T08:44:08Z</time></trkpt><trkpt lat="-23.645321359983516" lon="113.96236037514096"><ele>23.0</ele><time>2026-04-17T08:44:09Z</time></trkpt><trkpt lat="-23.64502671346559" lon="113.96230258371536"><ele>22.0</ele><time>2026-04-17T08:44:10Z</time></trkpt><trkpt lat="-23.644730160464174" lon="113.96224534209874"><ele>21.0</ele><time>2026-04-17T08:44:11Z</time></trkpt><trkpt lat="-23.644433987756592" lon="113.96219028138486"><ele>21.0</ele><time>2026-04-17T08:44:12Z</time></trkpt><trkpt lat="-23.644138589788614" lon="113.96213870661295"><ele>21.0</ele><time>2026-04-17T08:44:13Z</time></trkpt><trkpt lat="-23.643840946317667" lon="113.962088141691"><ele>21.0</ele><time>2026-04-17T08:44:14Z</time></trkpt><trkpt lat="-23.643542836827983" lon="113.96203477998276"><ele>21.0</ele><time>2026-04-17T08:44:15Z</time></trkpt><trkpt lat="-23.643243022602636" lon="113.96197579762023"><ele>21.0</ele><time>2026-04-17T08:44:16Z</time></trkpt><trkpt lat="-23.64294439358878" lon="113.96191875852676"><ele>21.0</ele><time>2026-04-17T08:44:17Z</time></trkpt><trkpt lat="-23.642643747087895" lon="113.96186231656995"><ele>21.0</ele><time>2026-04-17T08:44:18Z</time></trkpt><trkpt lat="-23.642340081609014" lon="113.96180690390446"><ele>21.0</ele><time>2026-04-17T08:44:19Z</time></trkpt><trkpt lat="-23.642036396864512" lon="113.96175673252108"><ele>22.0</ele><time>2026-04-17T08:44:20Z</time></trkpt><trkpt lat="-23.641734424707803" lon="113.961711353867"><ele>23.0</ele><time>2026-04-17T08:44:21Z</time></trkpt><trkpt lat="-23.641433074627756" lon="113.96167430804105"><ele>23.5</ele><time>2026-04-17T08:44:22Z</time></trkpt><trkpt lat="-23.641134571280226" lon="113.96165283057294"><ele>24.0</ele><time>2026-04-17T08:44:23Z</time></trkpt><trkpt lat="-23.64083587574267" lon="113.9616522118325"><ele>24.0</ele><time>2026-04-17T08:44:24Z</time></trkpt><trkpt lat="-23.640538016131075" lon="113.96166432167476"><ele>24.0</ele><time>2026-04-17T08:44:25Z</time></trkpt><trkpt lat="-23.64024019714031" lon="113.96168523623828"><ele>23.5</ele><time>2026-04-17T08:44:26Z</time></trkpt><trkpt lat="-23.63994410453635" lon="113.96171927306534"><ele>23.0</ele><time>2026-04-17T08:44:27Z</time></trkpt><trkpt lat="-23.63964727408711" lon="113.96176558027366"><ele>24.0</ele><time>2026-04-17T08:44:28Z</time></trkpt><trkpt lat="-23.639350853689987" lon="113.96182309416194"><ele>25.0</ele><time>2026-04-17T08:44:29Z</time></trkpt><trkpt lat="-23.63905172615689" lon="113.9618845069473"><ele>25.0</ele><time>2026-04-17T08:44:30Z</time></trkpt><trkpt lat="-23.638751219684615" lon="113.96194940221147"><ele>25.0</ele><time>2026-04-17T08:44:31Z</time></trkpt><trkpt lat="-23.63845251197611" lon="113.96201519196133"><ele>23.5</ele><time>2026-04-17T08:44:32Z</time></trkpt><trkpt lat="-23.638155921156738" lon="113.96207966637118"><ele>22.0</ele><time>2026-04-17T08:44:33Z</time></trkpt><trkpt lat="-23.63785642140892" lon="113.96214216823726"><ele>22.5</ele><time>2026-04-17T08:44:34Z</time></trkpt><trkpt lat="-23.637561710970964" lon="113.96220207379173"><ele>23.0</ele><time>2026-04-17T08:44:35Z</time></trkpt><trkpt lat="-23.637267143595572" lon="113.96226537714048"><ele>23.0</ele><time>2026-04-17T08:44:36Z</time></trkpt><trkpt lat="-23.636975248204706" lon="113.9623296111609"><ele>23.0</ele><time>2026-04-17T08:44:37Z</time></trkpt><trkpt lat="-23.636685255302154" lon="113.96239620371554"><ele>23.0</ele><time>2026-04-17T08:44:38Z</time></trkpt><trkpt lat="-23.636396228930874" lon="113.96246006668035"><ele>23.0</ele><time>2026-04-17T08:44:39Z</time></trkpt><trkpt lat="-23.63610425717942" lon="113.96252190889047"><ele>21.5</ele><time>2026-04-17T08:44:40Z</time></trkpt><trkpt lat="-23.63581299414755" lon="113.96258068527447"><ele>20.0</ele><time>2026-04-17T08:44:41Z</time></trkpt><trkpt lat="-23.63552308012214" lon="113.96264002005672"><ele>22.0</ele><time>2026-04-17T08:44:42Z</time></trkpt><trkpt lat="-23.635232016372925" lon="113.96270255004585"><ele>24.0</ele><time>2026-04-17T08:44:43Z</time></trkpt><trkpt lat="-23.634941545478235" lon="113.96276425549587"><ele>24.0</ele><time>2026-04-17T08:44:44Z</time></trkpt><trkpt lat="-23.634645287233482" lon="113.96282477424235"><ele>24.0</ele><time>2026-04-17T08:44:45Z</time></trkpt><trkpt lat="-23.634343357276748" lon="113.96288372880989"><ele>25.0</ele><time>2026-04-17T08:44:46Z</time></trkpt><trkpt lat="-23.63404317605844" lon="113.96294463624284"><ele>26.0</ele><time>2026-04-17T08:44:47Z</time></trkpt><trkpt lat="-23.633747033472435" lon="113.96301070662454"><ele>25.0</ele><time>2026-04-17T08:44:48Z</time></trkpt><trkpt lat="-23.63345384751628" lon="113.96307887953908"><ele>24.0</ele><time>2026-04-17T08:44:49Z</time></trkpt><trkpt lat="-23.63315736856754" lon="113.96314620209344"><ele>24.0</ele><time>2026-04-17T08:44:50Z</time></trkpt><trkpt lat="-23.632863145278375" lon="113.9632106069702"><ele>24.0</ele><time>2026-04-17T08:44:51Z</time></trkpt><trkpt lat="-23.632566510288186" lon="113.96327562431571"><ele>24.0</ele><time>2026-04-17T08:44:52Z</time></trkpt><trkpt lat="-23.632271272686292" lon="113.96333760196556"><ele>24.0</ele><time>2026-04-17T08:44:53Z</time></trkpt><trkpt lat="-23.631971778902695" lon="113.96339762745053"><ele>22.5</ele><time>2026-04-17T08:44:54Z</time></trkpt><trkpt lat="-23.631676689980196" lon="113.96345857522043"><ele>21.0</ele><time>2026-04-17T08:44:55Z</time></trkpt><trkpt lat="-23.631383615180447" lon="113.96352083179953"><ele>21.0</ele><time>2026-04-17T08:44:56Z</time></trkpt><trkpt lat="-23.631090023869426" lon="113.96358497141769"><ele>21.0</ele><time>2026-04-17T08:44:57Z</time></trkpt><trkpt lat="-23.63080130050982" lon="113.96364696012573"><ele>21.0</ele><time>2026-04-17T08:44:58Z</time></trkpt><trkpt lat="-23.630509945682135" lon="113.96370844911799"><ele>21.0</ele><time>2026-04-17T08:44:59Z</time></trkpt><trkpt lat="-23.63021858494518" lon="113.96376837201053"><ele>21.5</ele><time>2026-04-17T08:45:00Z</time></trkpt><trkpt lat="-23.629929120748404" lon="113.96382739730076"><ele>22.0</ele><time>2026-04-17T08:45:01Z</time></trkpt><trkpt lat="-23.629638379387643" lon="113.96388801367931"><ele>21.5</ele><time>2026-04-17T08:45:02Z</time></trkpt><trkpt lat="-23.629349986678875" lon="113.9639551601557"><ele>21.0</ele><time>2026-04-17T08:45:03Z</time></trkpt><trkpt lat="-23.629054010532126" lon="113.96401331913624"><ele>21.0</ele><time>2026-04-17T08:45:04Z</time></trkpt><trkpt lat="-23.6287610555736" lon="113.96407731394635"><ele>21.0</ele><time>2026-04-17T08:45:05Z</time></trkpt><trkpt lat="-23.628466151376216" lon="113.96414223031202"><ele>20.5</ele><time>2026-04-17T08:45:06Z</time></trkpt><trkpt lat="-23.628173038823693" lon="113.96420547036013"><ele>20.0</ele><time>2026-04-17T08:45:07Z</time></trkpt><trkpt lat="-23.62787562614127" lon="113.96426684585774"><ele>20.5</ele><time>2026-04-17T08:45:08Z</time></trkpt><trkpt lat="-23.627575579988054" lon="113.96432736539485"><ele>21.0</ele><time>2026-04-17T08:45:09Z</time></trkpt><trkpt lat="-23.62727459945143" lon="113.96439022147221"><ele>21.0</ele><time>2026-04-17T08:45:10Z</time></trkpt><trkpt lat="-23.62697568824643" lon="113.96445535097047"><ele>21.0</ele><time>2026-04-17T08:45:11Z</time></trkpt><trkpt lat="-23.62667738458103" lon="113.96451899512073"><ele>21.0</ele><time>2026-04-17T08:45:12Z</time></trkpt><trkpt lat="-23.6263777184693" lon="113.96458261936874"><ele>21.0</ele><time>2026-04-17T08:45:13Z</time></trkpt><trkpt lat="-23.626076236303184" lon="113.96464571740343"><ele>21.5</ele><time>2026-04-17T08:45:14Z</time></trkpt><trkpt lat="-23.62577872184341" lon="113.96470748464048"><ele>22.0</ele><time>2026-04-17T08:45:15Z</time></trkpt><trkpt lat="-23.625483913291905" lon="113.96477141011142"><ele>22.0</ele><time>2026-04-17T08:45:16Z</time></trkpt><trkpt lat="-23.62519738581648" lon="113.9648334569698"><ele>22.0</ele><time>2026-04-17T08:45:17Z</time></trkpt><trkpt lat="-23.62491219283488" lon="113.96489799926199"><ele>22.0</ele><time>2026-04-17T08:45:18Z</time></trkpt><trkpt lat="-23.62462703398985" lon="113.96496348607405"><ele>22.0</ele><time>2026-04-17T08:45:19Z</time></trkpt><trkpt lat="-23.624339257225333" lon="113.96502788505217"><ele>20.5</ele><time>2026-04-17T08:45:20Z</time></trkpt><trkpt lat="-23.624049839752452" lon="113.96508868970383"><ele>19.0</ele><time>2026-04-17T08:45:21Z</time></trkpt><trkpt lat="-23.62376050200021" lon="113.96514819624505"><ele>20.0</ele><time>2026-04-17T08:45:22Z</time></trkpt><trkpt lat="-23.62347396662293" lon="113.96520824183744"><ele>21.0</ele><time>2026-04-17T08:45:23Z</time></trkpt><trkpt lat="-23.623184984136167" lon="113.96526869625221"><ele>21.0</ele><time>2026-04-17T08:45:24Z</time></trkpt><trkpt lat="-23.62289256531419" lon="113.96532866875492"><ele>21.0</ele><time>2026-04-17T08:45:25Z</time></trkpt><trkpt lat="-23.62259711507536" lon="113.9653881670358"><ele>21.0</ele><time>2026-04-17T08:45:26Z</time></trkpt><trkpt lat="-23.62230204890688" lon="113.96544930644923"><ele>21.0</ele><time>2026-04-17T08:45:27Z</time></trkpt><trkpt lat="-23.622003890034026" lon="113.9655134603704"><ele>21.5</ele><time>2026-04-17T08:45:28Z</time></trkpt><trkpt lat="-23.621705840520292" lon="113.96557820108222"><ele>22.0</ele><time>2026-04-17T08:45:29Z</time></trkpt><trkpt lat="-23.621404197573206" lon="113.96564161451995"><ele>20.5</ele><time>2026-04-17T08:45:30Z</time></trkpt><trkpt lat="-23.621106684856663" lon="113.96570253624873"><ele>19.0</ele><time>2026-04-17T08:45:31Z</time></trkpt><trkpt lat="-23.62080931308348" lon="113.9657649005723"><ele>19.0</ele><time>2026-04-17T08:45:32Z</time></trkpt><trkpt lat="-23.620517423127758" lon="113.96582883131568"><ele>19.0</ele><time>2026-04-17T08:45:33Z</time></trkpt><trkpt lat="-23.620229184282312" lon="113.96589094565536"><ele>20.0</ele><time>2026-04-17T08:45:34Z</time></trkpt><trkpt lat="-23.61994231680185" lon="113.96595292896762"><ele>21.0</ele><time>2026-04-17T08:45:35Z</time></trkpt><trkpt lat="-23.619655748386144" lon="113.96601468521469"><ele>20.5</ele><time>2026-04-17T08:45:36Z</time></trkpt><trkpt lat="-23.619367951214684" lon="113.96607694850695"><ele>20.0</ele><time>2026-04-17T08:45:37Z</time></trkpt><trkpt lat="-23.61908889509818" lon="113.96613730495493"><ele>20.0</ele><time>2026-04-17T08:45:38Z</time></trkpt><trkpt lat="-23.61881349852508" lon="113.96619938519545"><ele>20.0</ele><time>2026-04-17T08:45:39Z</time></trkpt><trkpt lat="-23.618534060647594" lon="113.9662620588765"><ele>19.0</ele><time>2026-04-17T08:45:40Z</time></trkpt><trkpt lat="-23.618246985109582" lon="113.96632149165735"><ele>18.0</ele><time>2026-04-17T08:45:41Z</time></trkpt><trkpt lat="-23.617955285800985" lon="113.96638073524171"><ele>19.0</ele><time>2026-04-17T08:45:42Z</time></trkpt><trkpt lat="-23.617663544830705" lon="113.96644162348228"><ele>20.0</ele><time>2026-04-17T08:45:43Z</time></trkpt><trkpt lat="-23.6173718336544" lon="113.96650467713233"><ele>20.0</ele><time>2026-04-17T08:45:44Z</time></trkpt><trkpt lat="-23.617077857355042" lon="113.9665674871987"><ele>20.0</ele><time>2026-04-17T08:45:45Z</time></trkpt><trkpt lat="-23.616786657760606" lon="113.96662814719024"><ele>20.0</ele><time>2026-04-17T08:45:46Z</time></trkpt><trkpt lat="-23.61649424077036" lon="113.96668591248024"><ele>20.0</ele><time>2026-04-17T08:45:47Z</time></trkpt><trkpt lat="-23.61620163569454" lon="113.96673997075675"><ele>20.0</ele><time>2026-04-17T08:45:48Z</time></trkpt><trkpt lat="-23.615908796342232" lon="113.96678791593129"><ele>20.0</ele><time>2026-04-17T08:45:49Z</time></trkpt><trkpt lat="-23.615617592907565" lon="113.96682683237786"><ele>20.0</ele><time>2026-04-17T08:45:50Z</time></trkpt><trkpt lat="-23.615325426643953" lon="113.9668550978186"><ele>20.0</ele><time>2026-04-17T08:45:51Z</time></trkpt><trkpt lat="-23.615032578130638" lon="113.9668734753117"><ele>19.0</ele><time>2026-04-17T08:45:52Z</time></trkpt><trkpt lat="-23.61474223229579" lon="113.9668846178667"><ele>18.0</ele><time>2026-04-17T08:45:53Z</time></trkpt><trkpt lat="-23.61444937846607" lon="113.96689494706027"><ele>18.0</ele><time>2026-04-17T08:45:54Z</time></trkpt><trkpt lat="-23.614158259830443" lon="113.96690690999884"><ele>18.0</ele><time>2026-04-17T08:45:55Z</time></trkpt><trkpt lat="-23.613864966482808" lon="113.96692191752372"><ele>17.5</ele><time>2026-04-17T08:45:56Z</time></trkpt><trkpt lat="-23.61357112101022" lon="113.96693814611294"><ele>17.0</ele><time>2026-04-17T08:45:57Z</time></trkpt><trkpt lat="-23.613275222678908" lon="113.96695408253058"><ele>17.0</ele><time>2026-04-17T08:45:58Z</time></trkpt><trkpt lat="-23.612976652308767" lon="113.96697039796358"><ele>17.0</ele><time>2026-04-17T08:45:59Z</time></trkpt><trkpt lat="-23.61267442107559" lon="113.96698846908555"><ele>17.5</ele><time>2026-04-17T08:46:00Z</time></trkpt><trkpt lat="-23.61237179441042" lon="113.9670056650732"><ele>18.0</ele><time>2026-04-17T08:46:01Z</time></trkpt><trkpt lat="-23.612069483597352" lon="113.96701954531397"><ele>18.0</ele><time>2026-04-17T08:46:02Z</time></trkpt><trkpt lat="-23.61176800735276" lon="113.96703213758428"><ele>18.0</ele><time>2026-04-17T08:46:03Z</time></trkpt><trkpt lat="-23.611463016134238" lon="113.96704603908267"><ele>18.0</ele><time>2026-04-17T08:46:04Z</time></trkpt><trkpt lat="-23.61115851247695" lon="113.96705944328895"><ele>18.0</ele><time>2026-04-17T08:46:05Z</time></trkpt><trkpt lat="-23.610853296024676" lon="113.96707378071176"><ele>18.0</ele><time>2026-04-17T08:46:06Z</time></trkpt><trkpt lat="-23.610543059730748" lon="113.9670892129953"><ele>18.0</ele><time>2026-04-17T08:46:07Z</time></trkpt><trkpt lat="-23.610230501650065" lon="113.96710386655046"><ele>19.0</ele><time>2026-04-17T08:46:08Z</time></trkpt><trkpt lat="-23.60991049408294" lon="113.96711820717162"><ele>20.0</ele><time>2026-04-17T08:46:09Z</time></trkpt><trkpt lat="-23.609588910013617" lon="113.96713306853393"><ele>19.5</ele><time>2026-04-17T08:46:10Z</time></trkpt><trkpt lat="-23.609269690535143" lon="113.96715092032953"><ele>19.0</ele><time>2026-04-17T08:46:11Z</time></trkpt><trkpt lat="-23.608633958108317" lon="113.96718290901974"><ele>19.0</ele><time>2026-04-17T08:46:13Z</time></trkpt><trkpt lat="-23.608319825554354" lon="113.9671961037427"><ele>19.0</ele><time>2026-04-17T08:46:14Z</time></trkpt><trkpt lat="-23.60800510620496" lon="113.96720744971915"><ele>19.0</ele><time>2026-04-17T08:46:15Z</time></trkpt><trkpt lat="-23.60769057250884" lon="113.96721902340082"><ele>19.0</ele><time>2026-04-17T08:46:16Z</time></trkpt><trkpt lat="-23.607377997659032" lon="113.96723390937726"><ele>19.0</ele><time>2026-04-17T08:46:17Z</time></trkpt><trkpt lat="-23.60706677479806" lon="113.96725146020957"><ele>19.0</ele><time>2026-04-17T08:46:18Z</time></trkpt><trkpt lat="-23.606759400982046" lon="113.96726836336991"><ele>19.0</ele><time>2026-04-17T08:46:19Z</time></trkpt><trkpt lat="-23.606455049462614" lon="113.96728627833507"><ele>19.0</ele><time>2026-04-17T08:46:20Z</time></trkpt><trkpt lat="-23.60614948853272" lon="113.96730486300102"><ele>19.5</ele><time>2026-04-17T08:46:21Z</time></trkpt><trkpt lat="-23.60584718203485" lon="113.96732192620715"><ele>20.0</ele><time>2026-04-17T08:46:22Z</time></trkpt><trkpt lat="-23.605546351115787" lon="113.96733518069422"><ele>20.5</ele><time>2026-04-17T08:46:23Z</time></trkpt><trkpt lat="-23.605243755390415" lon="113.96734625728365"><ele>21.0</ele><time>2026-04-17T08:46:24Z</time></trkpt><trkpt lat="-23.604939395740526" lon="113.96735913567895"><ele>21.0</ele><time>2026-04-17T08:46:25Z</time></trkpt><trkpt lat="-23.60463332682167" lon="113.96737437437174"><ele>21.0</ele><time>2026-04-17T08:46:26Z</time></trkpt><trkpt lat="-23.60432974948507" lon="113.96738906529033"><ele>20.0</ele><time>2026-04-17T08:46:27Z</time></trkpt><trkpt lat="-23.604027532103824" lon="113.96740491798393"><ele>19.0</ele><time>2026-04-17T08:46:28Z</time></trkpt><trkpt lat="-23.603721086892154" lon="113.96741863326199"><ele>18.5</ele><time>2026-04-17T08:46:29Z</time></trkpt><trkpt lat="-23.603414522059115" lon="113.96743223777409"><ele>18.0</ele><time>2026-04-17T08:46:30Z</time></trkpt><trkpt lat="-23.603102841426704" lon="113.9674465655042"><ele>18.0</ele><time>2026-04-17T08:46:31Z</time></trkpt><trkpt lat="-23.60279197771643" lon="113.96746322536154"><ele>18.0</ele><time>2026-04-17T08:46:32Z</time></trkpt><trkpt lat="-23.602481306834765" lon="113.96747813848668"><ele>18.0</ele><time>2026-04-17T08:46:33Z</time></trkpt><trkpt lat="-23.60217262220349" lon="113.96749582052902"><ele>18.0</ele><time>2026-04-17T08:46:34Z</time></trkpt><trkpt lat="-23.601864752941605" lon="113.96751376431284"><ele>17.5</ele><time>2026-04-17T08:46:35Z</time></trkpt><trkpt lat="-23.601558462966242" lon="113.96753039662003"><ele>17.0</ele><time>2026-04-17T08:46:36Z</time></trkpt><trkpt lat="-23.60125019295278" lon="113.96754569664932"><ele>18.0</ele><time>2026-04-17T08:46:37Z</time></trkpt><trkpt lat="-23.60094114652226" lon="113.96755715722088"><ele>19.0</ele><time>2026-04-17T08:46:38Z</time></trkpt><trkpt lat="-23.60062824443389" lon="113.96756912428951"><ele>18.5</ele><time>2026-04-17T08:46:39Z</time></trkpt><trkpt lat="-23.60031491465176" lon="113.96758432522226"><ele>18.0</ele><time>2026-04-17T08:46:40Z</time></trkpt><trkpt lat="-23.599999050912107" lon="113.96760128183254"><ele>18.0</ele><time>2026-04-17T08:46:41Z</time></trkpt><trkpt lat="-23.599682104169098" lon="113.96761739283757"><ele>18.0</ele><time>2026-04-17T08:46:42Z</time></trkpt><trkpt lat="-23.599367896070582" lon="113.96763249741313"><ele>18.5</ele><time>2026-04-17T08:46:43Z</time></trkpt><trkpt lat="-23.599056218436477" lon="113.96764681716937"><ele>19.0</ele><time>2026-04-17T08:46:44Z</time></trkpt><trkpt lat="-23.598747058247802" lon="113.96766339705346"><ele>18.0</ele><time>2026-04-17T08:46:45Z</time></trkpt><trkpt lat="-23.598439716363487" lon="113.96767916614517"><ele>17.0</ele><time>2026-04-17T08:46:46Z</time></trkpt><trkpt lat="-23.59813264233762" lon="113.96769431075721"><ele>17.5</ele><time>2026-04-17T08:46:47Z</time></trkpt><trkpt lat="-23.597823151578766" lon="113.96771082647577"><ele>18.0</ele><time>2026-04-17T08:46:48Z</time></trkpt><trkpt lat="-23.59751329888567" lon="113.9677303239257"><ele>18.0</ele><time>2026-04-17T08:46:49Z</time></trkpt><trkpt lat="-23.59720755489045" lon="113.96774499144674"><ele>18.0</ele><time>2026-04-17T08:46:50Z</time></trkpt><trkpt lat="-23.596897770167352" lon="113.96775895342057"><ele>18.0</ele><time>2026-04-17T08:46:51Z</time></trkpt><trkpt lat="-23.596586156290876" lon="113.96777579179252"><ele>18.0</ele><time>2026-04-17T08:46:52Z</time></trkpt><trkpt lat="-23.596272450024777" lon="113.96779224613526"><ele>17.0</ele><time>2026-04-17T08:46:53Z</time></trkpt><trkpt lat="-23.595964995966494" lon="113.96780845136514"><ele>16.0</ele><time>2026-04-17T08:46:54Z</time></trkpt><trkpt lat="-23.595655941301704" lon="113.96782632776896"><ele>16.0</ele><time>2026-04-17T08:46:55Z</time></trkpt><trkpt lat="-23.59534639916377" lon="113.96783982726967"><ele>16.0</ele><time>2026-04-17T08:46:56Z</time></trkpt><trkpt lat="-23.595035037802518" lon="113.96785223396004"><ele>16.5</ele><time>2026-04-17T08:46:57Z</time></trkpt><trkpt lat="-23.59472769279234" lon="113.96786438389861"><ele>17.0</ele><time>2026-04-17T08:46:58Z</time></trkpt><trkpt lat="-23.594418417649212" lon="113.96787634443345"><ele>17.0</ele><time>2026-04-17T08:46:59Z</time></trkpt><trkpt lat="-23.594107715304098" lon="113.96788751251032"><ele>17.0</ele><time>2026-04-17T08:47:00Z</time></trkpt><trkpt lat="-23.593798797986434" lon="113.96790219339935"><ele>17.5</ele><time>2026-04-17T08:47:01Z</time></trkpt><trkpt lat="-23.59349047375994" lon="113.96791362751868"><ele>18.0</ele><time>2026-04-17T08:47:02Z</time></trkpt><trkpt lat="-23.593180505814786" lon="113.96791898225581"><ele>18.0</ele><time>2026-04-17T08:47:03Z</time></trkpt><trkpt lat="-23.592872022377897" lon="113.96791696125746"><ele>18.0</ele><time>2026-04-17T08:47:04Z</time></trkpt><trkpt lat="-23.592561140671013" lon="113.96790918949738"><ele>17.0</ele><time>2026-04-17T08:47:05Z</time></trkpt><trkpt lat="-23.592250802640365" lon="113.96789615111031"><ele>16.0</ele><time>2026-04-17T08:47:06Z</time></trkpt><trkpt lat="-23.59193488001885" lon="113.96787817148642"><ele>16.0</ele><time>2026-04-17T08:47:07Z</time></trkpt><trkpt lat="-23.591621672597547" lon="113.96785693994116"><ele>16.0</ele><time>2026-04-17T08:47:08Z</time></trkpt><trkpt lat="-23.59130558191558" lon="113.96783872452193"><ele>16.0</ele><time>2026-04-17T08:47:09Z</time></trkpt><trkpt lat="-23.590989006339985" lon="113.96782163754098"><ele>16.0</ele><time>2026-04-17T08:47:10Z</time></trkpt><trkpt lat="-23.590669460014873" lon="113.96780612293561"><ele>16.0</ele><time>2026-04-17T08:47:11Z</time></trkpt><trkpt lat="-23.590353432967493" lon="113.96778974658224"><ele>16.0</ele><time>2026-04-17T08:47:12Z</time></trkpt><trkpt lat="-23.59003597848894" lon="113.96777549283205"><ele>16.5</ele><time>2026-04-17T08:47:13Z</time></trkpt><trkpt lat="-23.58971946755014" lon="113.96776129880087"><ele>17.0</ele><time>2026-04-17T08:47:14Z</time></trkpt><trkpt lat="-23.58940351171197" lon="113.96774613632533"><ele>18.0</ele><time>2026-04-17T08:47:15Z</time></trkpt><trkpt lat="-23.589086969329223" lon="113.96773206169387"><ele>19.0</ele><time>2026-04-17T08:47:16Z</time></trkpt><trkpt lat="-23.588768761374414" lon="113.96771766217721"><ele>18.5</ele><time>2026-04-17T08:47:17Z</time></trkpt><trkpt lat="-23.588456734262294" lon="113.96770442038134"><ele>18.0</ele><time>2026-04-17T08:47:18Z</time></trkpt><trkpt lat="-23.588142689152292" lon="113.96769172512518"><ele>17.0</ele><time>2026-04-17T08:47:19Z</time></trkpt><trkpt lat="-23.587828527862964" lon="113.9676785417396"><ele>16.0</ele><time>2026-04-17T08:47:20Z</time></trkpt><trkpt lat="-23.587515692478284" lon="113.96766469722577"><ele>16.0</ele><time>2026-04-17T08:47:21Z</time></trkpt><trkpt lat="-23.58720348349126" lon="113.96764592117114"><ele>16.0</ele><time>2026-04-17T08:47:22Z</time></trkpt><trkpt lat="-23.586891928677236" lon="113.9676267198302"><ele>17.0</ele><time>2026-04-17T08:47:23Z</time></trkpt><trkpt lat="-23.58658274709044" lon="113.96760937868694"><ele>18.0</ele><time>2026-04-17T08:47:24Z</time></trkpt><trkpt lat="-23.586273077289245" lon="113.96759431539806"><ele>17.0</ele><time>2026-04-17T08:47:25Z</time></trkpt><trkpt lat="-23.58596394218159" lon="113.9675772213308"><ele>16.0</ele><time>2026-04-17T08:47:26Z</time></trkpt><trkpt lat="-23.585659592872084" lon="113.96755999235216"><ele>16.0</ele><time>2026-04-17T08:47:27Z</time></trkpt><trkpt lat="-23.58535257880425" lon="113.96754397345573"><ele>16.0</ele><time>2026-04-17T08:47:28Z</time></trkpt><trkpt lat="-23.585047716059396" lon="113.96753057867514"><ele>17.0</ele><time>2026-04-17T08:47:29Z</time></trkpt><trkpt lat="-23.584742499521816" lon="113.96751904078322"><ele>18.0</ele><time>2026-04-17T08:47:30Z</time></trkpt><trkpt lat="-23.584436204576207" lon="113.96750941972185"><ele>18.5</ele><time>2026-04-17T08:47:31Z</time></trkpt><trkpt lat="-23.58412685544508" lon="113.96749688448755"><ele>19.0</ele><time>2026-04-17T08:47:32Z</time></trkpt><trkpt lat="-23.583814147711372" lon="113.96748375180377"><ele>20.5</ele><time>2026-04-17T08:47:33Z</time></trkpt><trkpt lat="-23.58350102247097" lon="113.96747116638451"><ele>22.0</ele><time>2026-04-17T08:47:34Z</time></trkpt><trkpt lat="-23.58318575687418" lon="113.96745572370395"><ele>22.0</ele><time>2026-04-17T08:47:35Z</time></trkpt><trkpt lat="-23.58287152830239" lon="113.96743891044017"><ele>22.0</ele><time>2026-04-17T08:47:36Z</time></trkpt><trkpt lat="-23.582554969760995" lon="113.96741941771593"><ele>21.0</ele><time>2026-04-17T08:47:37Z</time></trkpt><trkpt lat="-23.582239674288015" lon="113.96740184301444"><ele>20.0</ele><time>2026-04-17T08:47:38Z</time></trkpt><trkpt lat="-23.581924570802464" lon="113.96738569962616"><ele>20.0</ele><time>2026-04-17T08:47:39Z</time></trkpt><trkpt lat="-23.581608668200108" lon="113.96737002563778"><ele>20.0</ele><time>2026-04-17T08:47:40Z</time></trkpt><trkpt lat="-23.58128558404364" lon="113.96735303734445"><ele>19.0</ele><time>2026-04-17T08:47:41Z</time></trkpt><trkpt lat="-23.58096307464166" lon="113.96733583286279"><ele>18.0</ele><time>2026-04-17T08:47:42Z</time></trkpt><trkpt lat="-23.58064064760726" lon="113.96731953577074"><ele>17.0</ele><time>2026-04-17T08:47:43Z</time></trkpt><trkpt lat="-23.58031790728571" lon="113.9673026906888"><ele>16.0</ele><time>2026-04-17T08:47:44Z</time></trkpt><trkpt lat="-23.58000134276929" lon="113.96729024273044"><ele>16.0</ele><time>2026-04-17T08:47:45Z</time></trkpt><trkpt lat="-23.57968890518221" lon="113.96727902475936"><ele>16.0</ele><time>2026-04-17T08:47:46Z</time></trkpt><trkpt lat="-23.579378452434803" lon="113.96726691068324"><ele>16.5</ele><time>2026-04-17T08:47:47Z</time></trkpt><trkpt lat="-23.57906818134342" lon="113.96725240872856"><ele>17.0</ele><time>2026-04-17T08:47:48Z</time></trkpt><trkpt lat="-23.578753097153818" lon="113.9672340023879"><ele>17.0</ele><time>2026-04-17T08:47:49Z</time></trkpt><trkpt lat="-23.5784401193955" lon="113.96721666079539"><ele>17.0</ele><time>2026-04-17T08:47:50Z</time></trkpt><trkpt lat="-23.578128449284485" lon="113.96720055855295"><ele>16.5</ele><time>2026-04-17T08:47:51Z</time></trkpt><trkpt lat="-23.5778179461186" lon="113.96718871923744"><ele>16.0</ele><time>2026-04-17T08:47:52Z</time></trkpt><trkpt lat="-23.577511160306127" lon="113.96717814634016"><ele>16.0</ele><time>2026-04-17T08:47:53Z</time></trkpt><trkpt lat="-23.577204159158942" lon="113.96716605987868"><ele>16.0</ele><time>2026-04-17T08:47:54Z</time></trkpt><trkpt lat="-23.57689710123179" lon="113.96714915628137"><ele>16.5</ele><time>2026-04-17T08:47:55Z</time></trkpt><trkpt lat="-23.57659599745071" lon="113.967131631045"><ele>17.0</ele><time>2026-04-17T08:47:56Z</time></trkpt><trkpt lat="-23.576292888487462" lon="113.96711494341893"><ele>18.0</ele><time>2026-04-17T08:47:57Z</time></trkpt><trkpt lat="-23.57599072241508" lon="113.96709990329194"><ele>19.0</ele><time>2026-04-17T08:47:58Z</time></trkpt><trkpt lat="-23.575690618468137" lon="113.96708786707143"><ele>19.0</ele><time>2026-04-17T08:47:59Z</time></trkpt><trkpt lat="-23.57539014516744" lon="113.9670750729198"><ele>19.0</ele><time>2026-04-17T08:48:00Z</time></trkpt><trkpt lat="-23.575091741813587" lon="113.9670602485098"><ele>17.5</ele><time>2026-04-17T08:48:01Z</time></trkpt><trkpt lat="-23.5747935836691" lon="113.96704625689193"><ele>16.0</ele><time>2026-04-17T08:48:02Z</time></trkpt><trkpt lat="-23.574494373719073" lon="113.96703222426909"><ele>16.0</ele><time>2026-04-17T08:48:03Z</time></trkpt><trkpt lat="-23.574209978800656" lon="113.9670200672102"><ele>16.0</ele><time>2026-04-17T08:48:04Z</time></trkpt><trkpt lat="-23.573944796078322" lon="113.96700346889655"><ele>16.0</ele><time>2026-04-17T08:48:05Z</time></trkpt><trkpt lat="-23.5736765688565" lon="113.96698892980852"><ele>16.0</ele><time>2026-04-17T08:48:06Z</time></trkpt><trkpt lat="-23.573389448881112" lon="113.96697587907603"><ele>16.0</ele><time>2026-04-17T08:48:07Z</time></trkpt><trkpt lat="-23.57309309170067" lon="113.966965426741"><ele>16.0</ele><time>2026-04-17T08:48:08Z</time></trkpt><trkpt lat="-23.572797328105267" lon="113.96695689158804"><ele>15.5</ele><time>2026-04-17T08:48:09Z</time></trkpt><trkpt lat="-23.57249236384431" lon="113.96694884966071"><ele>15.0</ele><time>2026-04-17T08:48:10Z</time></trkpt><trkpt lat="-23.57218370108606" lon="113.96693601257235"><ele>15.5</ele><time>2026-04-17T08:48:11Z</time></trkpt><trkpt lat="-23.571871808875564" lon="113.96691994666838"><ele>16.0</ele><time>2026-04-17T08:48:12Z</time></trkpt><trkpt lat="-23.571559026522998" lon="113.96690371490276"><ele>16.0</ele><time>2026-04-17T08:48:13Z</time></trkpt><trkpt lat="-23.57124397671494" lon="113.96688463239505"><ele>16.0</ele><time>2026-04-17T08:48:14Z</time></trkpt><trkpt lat="-23.570923567734376" lon="113.9668647010005"><ele>16.0</ele><time>2026-04-17T08:48:15Z</time></trkpt><trkpt lat="-23.57060434852931" lon="113.96684980596861"><ele>16.0</ele><time>2026-04-17T08:48:16Z</time></trkpt><trkpt lat="-23.5702882050477" lon="113.96683994130473"><ele>16.0</ele><time>2026-04-17T08:48:17Z</time></trkpt><trkpt lat="-23.5699715077268" lon="113.96682473738694"><ele>16.0</ele><time>2026-04-17T08:48:18Z</time></trkpt><trkpt lat="-23.569653839621417" lon="113.96680877273127"><ele>15.0</ele><time>2026-04-17T08:48:19Z</time></trkpt><trkpt lat="-23.56933773199477" lon="113.96679593440237"><ele>14.0</ele><time>2026-04-17T08:48:20Z</time></trkpt><trkpt lat="-23.569023571164212" lon="113.96678075792242"><ele>14.0</ele><time>2026-04-17T08:48:21Z</time></trkpt><trkpt lat="-23.56870904124913" lon="113.96676384362348"><ele>14.0</ele><time>2026-04-17T08:48:22Z</time></trkpt><trkpt lat="-23.56839339086482" lon="113.96674431150554"><ele>14.0</ele><time>2026-04-17T08:48:23Z</time></trkpt><trkpt lat="-23.568079580158386" lon="113.96672545513867"><ele>14.0</ele><time>2026-04-17T08:48:24Z</time></trkpt><trkpt lat="-23.567762867238155" lon="113.96671041801743"><ele>15.0</ele><time>2026-04-17T08:48:25Z</time></trkpt><trkpt lat="-23.56744813318128" lon="113.96669383555528"><ele>16.0</ele><time>2026-04-17T08:48:26Z</time></trkpt><trkpt lat="-23.56713697375145" lon="113.96667561082074"><ele>16.0</ele><time>2026-04-17T08:48:27Z</time></trkpt><trkpt lat="-23.566824824536994" lon="113.96665783165591"><ele>16.0</ele><time>2026-04-17T08:48:28Z</time></trkpt><trkpt lat="-23.56651344226039" lon="113.96664345420655"><ele>16.0</ele><time>2026-04-17T08:48:29Z</time></trkpt><trkpt lat="-23.56620014307954" lon="113.96663026328301"><ele>16.0</ele><time>2026-04-17T08:48:30Z</time></trkpt><trkpt lat="-23.565890976151362" lon="113.96662038994738"><ele>15.5</ele><time>2026-04-17T08:48:31Z</time></trkpt><trkpt lat="-23.56558159294961" lon="113.96660741068965"><ele>15.0</ele><time>2026-04-17T08:48:32Z</time></trkpt><trkpt lat="-23.565277440409034" lon="113.96659555266743"><ele>14.5</ele><time>2026-04-17T08:48:33Z</time></trkpt><trkpt lat="-23.564971674054966" lon="113.96657707702347"><ele>14.0</ele><time>2026-04-17T08:48:34Z</time></trkpt><trkpt lat="-23.56467079585981" lon="113.96655906146567"><ele>13.5</ele><time>2026-04-17T08:48:35Z</time></trkpt><trkpt lat="-23.56437029999812" lon="113.9665390810581"><ele>13.0</ele><time>2026-04-17T08:48:36Z</time></trkpt><trkpt lat="-23.5640729259802" lon="113.96652252402698"><ele>13.0</ele><time>2026-04-17T08:48:37Z</time></trkpt><trkpt lat="-23.56377855730973" lon="113.966510829456"><ele>13.0</ele><time>2026-04-17T08:48:38Z</time></trkpt><trkpt lat="-23.56349639009132" lon="113.9665026689497"><ele>14.0</ele><time>2026-04-17T08:48:39Z</time></trkpt><trkpt lat="-23.563225356979864" lon="113.96649114203983"><ele>15.0</ele><time>2026-04-17T08:48:40Z</time></trkpt><trkpt lat="-23.56295340023634" lon="113.96647743380998"><ele>15.5</ele><time>2026-04-17T08:48:41Z</time></trkpt><trkpt lat="-23.562683919833965" lon="113.96646451689762"><ele>16.0</ele><time>2026-04-17T08:48:42Z</time></trkpt><trkpt lat="-23.562414237198542" lon="113.96645090258212"><ele>16.0</ele><time>2026-04-17T08:48:43Z</time></trkpt><trkpt lat="-23.562146169290063" lon="113.96643134117805"><ele>16.0</ele><time>2026-04-17T08:48:44Z</time></trkpt><trkpt lat="-23.561879132978362" lon="113.96639858439521"><ele>15.5</ele><time>2026-04-17T08:48:45Z</time></trkpt><trkpt lat="-23.56161063338749" lon="113.96636072026972"><ele>15.0</ele><time>2026-04-17T08:48:46Z</time></trkpt><trkpt lat="-23.56134124728187" lon="113.96631466198986"><ele>16.0</ele><time>2026-04-17T08:48:47Z</time></trkpt><trkpt lat="-23.561062442957347" lon="113.96626245506243"><ele>17.0</ele><time>2026-04-17T08:48:48Z</time></trkpt><trkpt lat="-23.560778435390194" lon="113.96620485851517"><ele>17.0</ele><time>2026-04-17T08:48:49Z</time></trkpt><trkpt lat="-23.56049173725124" lon="113.9661437965632"><ele>17.0</ele><time>2026-04-17T08:48:50Z</time></trkpt><trkpt lat="-23.560197857252906" lon="113.96607172268965"><ele>16.5</ele><time>2026-04-17T08:48:51Z</time></trkpt><trkpt lat="-23.559902815665826" lon="113.96599792754988"><ele>16.0</ele><time>2026-04-17T08:48:52Z</time></trkpt><trkpt lat="-23.55960279150091" lon="113.96592850725736"><ele>15.5</ele><time>2026-04-17T08:48:53Z</time></trkpt><trkpt lat="-23.559297810801556" lon="113.9658606237909"><ele>15.0</ele><time>2026-04-17T08:48:54Z</time></trkpt><trkpt lat="-23.55899296614209" lon="113.96579362261639"><ele>14.5</ele><time>2026-04-17T08:48:55Z</time></trkpt><trkpt lat="-23.55868729296931" lon="113.96572488390444"><ele>14.0</ele><time>2026-04-17T08:48:56Z</time></trkpt><trkpt lat="-23.558382414362793" lon="113.96565354894875"><ele>14.0</ele><time>2026-04-17T08:48:57Z</time></trkpt><trkpt lat="-23.55807940087136" lon="113.96558128679442"><ele>14.0</ele><time>2026-04-17T08:48:58Z</time></trkpt><trkpt lat="-23.557776577182388" lon="113.96550553975965"><ele>13.5</ele><time>2026-04-17T08:48:59Z</time></trkpt><trkpt lat="-23.557479506703626" lon="113.96543152854991"><ele>13.0</ele><time>2026-04-17T08:49:00Z</time></trkpt><trkpt lat="-23.55717656996332" lon="113.96536152255003"><ele>14.5</ele><time>2026-04-17T08:49:01Z</time></trkpt><trkpt lat="-23.5568768146109" lon="113.96529393314984"><ele>16.0</ele><time>2026-04-17T08:49:02Z</time></trkpt><trkpt lat="-23.556581648133992" lon="113.96522907157072"><ele>16.0</ele><time>2026-04-17T08:49:03Z</time></trkpt><trkpt lat="-23.556280678144745" lon="113.96516377606648"><ele>16.0</ele><time>2026-04-17T08:49:04Z</time></trkpt><trkpt lat="-23.555981802206976" lon="113.96509746359516"><ele>19.0</ele><time>2026-04-17T08:49:05Z</time></trkpt><trkpt lat="-23.555678019384736" lon="113.96502736990941"><ele>22.0</ele><time>2026-04-17T08:49:06Z</time></trkpt><trkpt lat="-23.555379297625095" lon="113.96495410898866"><ele>22.0</ele><time>2026-04-17T08:49:07Z</time></trkpt><trkpt lat="-23.555074558313674" lon="113.96488114243424"><ele>22.0</ele><time>2026-04-17T08:49:08Z</time></trkpt><trkpt lat="-23.55476846843651" lon="113.96481011451554"><ele>22.5</ele><time>2026-04-17T08:49:09Z</time></trkpt><trkpt lat="-23.55446162934965" lon="113.9647360156211"><ele>23.0</ele><time>2026-04-17T08:49:10Z</time></trkpt><trkpt lat="-23.554155695096046" lon="113.96466276917911"><ele>23.0</ele><time>2026-04-17T08:49:11Z</time></trkpt><trkpt lat="-23.553848591852187" lon="113.96459187636182"><ele>23.0</ele><time>2026-04-17T08:49:12Z</time></trkpt><trkpt lat="-23.553542025083846" lon="113.96452237761922"><ele>22.5</ele><time>2026-04-17T08:49:13Z</time></trkpt><trkpt lat="-23.553231828018742" lon="113.964453432618"><ele>22.0</ele><time>2026-04-17T08:49:14Z</time></trkpt><trkpt lat="-23.552922943599047" lon="113.96438226330311"><ele>21.0</ele><time>2026-04-17T08:49:15Z</time></trkpt><trkpt lat="-23.552610176958165" lon="113.96430850979068"><ele>20.0</ele><time>2026-04-17T08:49:16Z</time></trkpt><trkpt lat="-23.552298232514016" lon="113.96423503177134"><ele>19.0</ele><time>2026-04-17T08:49:17Z</time></trkpt><trkpt lat="-23.55198663522272" lon="113.96416361697507"><ele>18.0</ele><time>2026-04-17T08:49:18Z</time></trkpt><trkpt lat="-23.551676057892404" lon="113.96409441141728"><ele>18.0</ele><time>2026-04-17T08:49:19Z</time></trkpt><trkpt lat="-23.551366184445612" lon="113.96402262782091"><ele>18.0</ele><time>2026-04-17T08:49:20Z</time></trkpt><trkpt lat="-23.55105577167948" lon="113.963950162883"><ele>16.0</ele><time>2026-04-17T08:49:21Z</time></trkpt><trkpt lat="-23.55074572943436" lon="113.96387780915745"><ele>14.0</ele><time>2026-04-17T08:49:22Z</time></trkpt><trkpt lat="-23.550432409039562" lon="113.96380435727832"><ele>12.5</ele><time>2026-04-17T08:49:23Z</time></trkpt><trkpt lat="-23.550120471387157" lon="113.9637353994432"><ele>11.0</ele><time>2026-04-17T08:49:24Z</time></trkpt><trkpt lat="-23.54980737382007" lon="113.96368115748153"><ele>9.5</ele><time>2026-04-17T08:49:25Z</time></trkpt><trkpt lat="-23.549494628068317" lon="113.96364169595097"><ele>8.0</ele><time>2026-04-17T08:49:26Z</time></trkpt><trkpt lat="-23.549180437126278" lon="113.96361115557774"><ele>8.0</ele><time>2026-04-17T08:49:27Z</time></trkpt><trkpt lat="-23.548867636275077" lon="113.9635897895777"><ele>8.0</ele><time>2026-04-17T08:49:28Z</time></trkpt><trkpt lat="-23.548551348003677" lon="113.963579099547"><ele>8.0</ele><time>2026-04-17T08:49:29Z</time></trkpt><trkpt lat="-23.54823615209668" lon="113.9635761459813"><ele>8.0</ele><time>2026-04-17T08:49:30Z</time></trkpt><trkpt lat="-23.54791856846203" lon="113.96357701220137"><ele>8.5</ele><time>2026-04-17T08:49:31Z</time></trkpt><trkpt lat="-23.54760175685681" lon="113.96357601349177"><ele>9.0</ele><time>2026-04-17T08:49:32Z</time></trkpt><trkpt lat="-23.547284061387145" lon="113.9635747351189"><ele>9.5</ele><time>2026-04-17T08:49:33Z</time></trkpt><trkpt lat="-23.546970004648912" lon="113.9635693307445"><ele>10.0</ele><time>2026-04-17T08:49:34Z</time></trkpt><trkpt lat="-23.546658925956834" lon="113.96355867928162"><ele>10.0</ele><time>2026-04-17T08:49:35Z</time></trkpt><trkpt lat="-23.546343997924176" lon="113.96355060730431"><ele>10.0</ele><time>2026-04-17T08:49:36Z</time></trkpt><trkpt lat="-23.546025479310988" lon="113.96353929431228"><ele>8.5</ele><time>2026-04-17T08:49:37Z</time></trkpt><trkpt lat="-23.54570754120286" lon="113.96353538409933"><ele>7.0</ele><time>2026-04-17T08:49:38Z</time></trkpt><trkpt lat="-23.545388402121887" lon="113.96353263755027"><ele>7.5</ele><time>2026-04-17T08:49:39Z</time></trkpt><trkpt lat="-23.545071857070642" lon="113.96353005314425"><ele>8.0</ele><time>2026-04-17T08:49:40Z</time></trkpt><trkpt lat="-23.544754577449105" lon="113.9635260793557"><ele>7.0</ele><time>2026-04-17T08:49:41Z</time></trkpt><trkpt lat="-23.544446157458353" lon="113.96352066797165"><ele>6.0</ele><time>2026-04-17T08:49:42Z</time></trkpt><trkpt lat="-23.544142596255703" lon="113.96351488330612"><ele>6.0</ele><time>2026-04-17T08:49:43Z</time></trkpt><trkpt lat="-23.54384305930424" lon="113.96351089980936"><ele>6.0</ele><time>2026-04-17T08:49:44Z</time></trkpt><trkpt lat="-23.543553913475524" lon="113.96350693408807"><ele>5.0</ele><time>2026-04-17T08:49:45Z</time></trkpt><trkpt lat="-23.543272164529718" lon="113.96350025681748"><ele>4.0</ele><time>2026-04-17T08:49:46Z</time></trkpt><trkpt lat="-23.542998313242723" lon="113.96349484378923"><ele>4.5</ele><time>2026-04-17T08:49:47Z</time></trkpt><trkpt lat="-23.542732099652714" lon="113.96348887211022"><ele>5.0</ele><time>2026-04-17T08:49:48Z</time></trkpt><trkpt lat="-23.542479368675068" lon="113.9634847395834"><ele>5.0</ele><time>2026-04-17T08:49:49Z</time></trkpt><trkpt lat="-23.542244262086" lon="113.96348124122004"><ele>5.0</ele><time>2026-04-17T08:49:50Z</time></trkpt><trkpt lat="-23.542019751632825" lon="113.96348072234957"><ele>5.0</ele><time>2026-04-17T08:49:51Z</time></trkpt><trkpt lat="-23.541804779174967" lon="113.96347582829262"><ele>5.0</ele><time>2026-04-17T08:49:52Z</time></trkpt><trkpt lat="-23.541597310821366" lon="113.96347005232207"><ele>5.0</ele><time>2026-04-17T08:49:53Z</time></trkpt><trkpt lat="-23.54139926567806" lon="113.96346281398007"><ele>4.333333333333334</ele><time>2026-04-17T08:49:54Z</time></trkpt><trkpt lat="-23.541213972464426" lon="113.96345909596198"><ele>3.666666666666667</ele><time>2026-04-17T08:49:55Z</time></trkpt><trkpt lat="-23.541039589217196" lon="113.96345563155728"><ele>3.0</ele><time>2026-04-17T08:49:56Z</time></trkpt><trkpt lat="-23.540880311107045" lon="113.9634525160103"><ele>3.0</ele><time>2026-04-17T08:49:57Z</time></trkpt><trkpt lat="-23.540734407975215" lon="113.96344912108074"><ele>3.0</ele><time>2026-04-17T08:49:58Z</time></trkpt><trkpt lat="-23.54060526290582" lon="113.9634456175366"><ele>3.0</ele><time>2026-04-17T08:49:59Z</time></trkpt><trkpt lat="-23.540489526727097" lon="113.96344298308638"><ele>3.0</ele><time>2026-04-17T08:50:00Z</time></trkpt><trkpt lat="-23.54038527053682" lon="113.9634411249023"><ele>3.0</ele><time>2026-04-17T08:50:01Z</time></trkpt><trkpt lat="-23.540288222552793" lon="113.96343964781187"><ele>3.0</ele><time>2026-04-17T08:50:02Z</time></trkpt><trkpt lat="-23.540200082642496" lon="113.9634360403514"><ele>3.0</ele><time>2026-04-17T08:50:03Z</time></trkpt><trkpt lat="-23.540118824184486" lon="113.96343215126241"><ele>3.0</ele><time>2026-04-17T08:50:04Z</time></trkpt><trkpt lat="-23.540044459385147" lon="113.96342921068612"><ele>3.0</ele><time>2026-04-17T08:50:05Z</time></trkpt><trkpt lat="-23.539958915745334" lon="113.96342704519127"><ele>3.0</ele><time>2026-04-17T08:50:06Z</time></trkpt><trkpt lat="-23.539864656139493" lon="113.96342554726931"><ele>3.0</ele><time>2026-04-17T08:50:07Z</time></trkpt><trkpt lat="-23.539773762778147" lon="113.96342795268927"><ele>3.0</ele><time>2026-04-17T08:50:08Z</time></trkpt><trkpt lat="-23.53968353351949" lon="113.96343303862929"><ele>3.0</ele><time>2026-04-17T08:50:09Z</time></trkpt><trkpt lat="-23.539582895334153" lon="113.96343558854709"><ele>3.0</ele><time>2026-04-17T08:50:10Z</time></trkpt><trkpt lat="-23.539473961835718" lon="113.96343574493575"><ele>3.0</ele><time>2026-04-17T08:50:11Z</time></trkpt><trkpt lat="-23.53935118441325" lon="113.96343424910481"><ele>3.75</ele><time>2026-04-17T08:50:12Z</time></trkpt><trkpt lat="-23.53922915091564" lon="113.96343221109774"><ele>4.5</ele><time>2026-04-17T08:50:13Z</time></trkpt><trkpt lat="-23.53910406382147" lon="113.9634323596628"><ele>5.25</ele><time>2026-04-17T08:50:14Z</time></trkpt><trkpt lat="-23.53896872879175" lon="113.9634290651758"><ele>6.0</ele><time>2026-04-17T08:50:15Z</time></trkpt><trkpt lat="-23.538825511671906" lon="113.96342743370218"><ele>5.333333333333333</ele><time>2026-04-17T08:50:16Z</time></trkpt><trkpt lat="-23.538672146853628" lon="113.96342437532368"><ele>4.666666666666666</ele><time>2026-04-17T08:50:17Z</time></trkpt><trkpt lat="-23.538513145392074" lon="113.96341950879093"><ele>4.0</ele><time>2026-04-17T08:50:18Z</time></trkpt><trkpt lat="-23.53834164277819" lon="113.96341873964896"><ele>4.0</ele><time>2026-04-17T08:50:19Z</time></trkpt><trkpt lat="-23.53815383480572" lon="113.96341587519669"><ele>4.0</ele><time>2026-04-17T08:50:20Z</time></trkpt><trkpt lat="-23.53796119726182" lon="113.9634120391087"><ele>4.0</ele><time>2026-04-17T08:50:21Z</time></trkpt><trkpt lat="-23.53776565031809" lon="113.96341005133733"><ele>4.333333333333333</ele><time>2026-04-17T08:50:22Z</time></trkpt><trkpt lat="-23.537560013240494" lon="113.96340786009512"><ele>4.666666666666667</ele><time>2026-04-17T08:50:23Z</time></trkpt><trkpt lat="-23.537350682564547" lon="113.96340450094833"><ele>5.0</ele><time>2026-04-17T08:50:24Z</time></trkpt><trkpt lat="-23.537137212012865" lon="113.96339811077787"><ele>6.333333333333334</ele><time>2026-04-17T08:50:25Z</time></trkpt><trkpt lat="-23.536931575809344" lon="113.96339346647335"><ele>7.666666666666667</ele><time>2026-04-17T08:50:26Z</time></trkpt><trkpt lat="-23.536717185329636" lon="113.96338749661821"><ele>9.0</ele><time>2026-04-17T08:50:27Z</time></trkpt><trkpt lat="-23.536497444373737" lon="113.96337868137535"><ele>9.0</ele><time>2026-04-17T08:50:28Z</time></trkpt><trkpt lat="-23.536275724145856" lon="113.96337169129926"><ele>9.0</ele><time>2026-04-17T08:50:29Z</time></trkpt><trkpt lat="-23.536044024021226" lon="113.9633665845402"><ele>11.5</ele><time>2026-04-17T08:50:30Z</time></trkpt><trkpt lat="-23.535813415403176" lon="113.9633646231297"><ele>14.0</ele><time>2026-04-17T08:50:31Z</time></trkpt><trkpt lat="-23.53559266155217" lon="113.96336641573765"><ele>13.333333333333334</ele><time>2026-04-17T08:50:32Z</time></trkpt><trkpt lat="-23.535382378448574" lon="113.96336650732248"><ele>12.666666666666668</ele><time>2026-04-17T08:50:33Z</time></trkpt><trkpt lat="-23.535171164303655" lon="113.96336420915713"><ele>12.0</ele><time>2026-04-17T08:50:34Z</time></trkpt><trkpt lat="-23.534963105396393" lon="113.96336053928934"><ele>12.0</ele><time>2026-04-17T08:50:35Z</time></trkpt><trkpt lat="-23.534748789398492" lon="113.9633544624051"><ele>12.0</ele><time>2026-04-17T08:50:36Z</time></trkpt><trkpt lat="-23.53453528440552" lon="113.96335164434893"><ele>12.0</ele><time>2026-04-17T08:50:37Z</time></trkpt><trkpt lat="-23.5343397750327" lon="113.96335051744713"><ele>12.25</ele><time>2026-04-17T08:50:38Z</time></trkpt><trkpt lat="-23.534168542855955" lon="113.96334969418521"><ele>12.5</ele><time>2026-04-17T08:50:39Z</time></trkpt><trkpt lat="-23.534030584209187" lon="113.96334460834537"><ele>12.75</ele><time>2026-04-17T08:50:40Z</time></trkpt><trkpt lat="-23.53393272337764" lon="113.96334214741381"><ele>13.0</ele><time>2026-04-17T08:50:41Z</time></trkpt><trkpt lat="-23.533865408945946" lon="113.96333576910179"><ele>12.999999999999998</ele><time>2026-04-17T08:50:42Z</time></trkpt><trkpt lat="-23.5338380017494" lon="113.96322105657458"><ele>13.0</ele><time>2026-04-17T08:50:46Z</time></trkpt><trkpt lat="-23.53384959398539" lon="113.96313591110876"><ele>13.0</ele><time>2026-04-17T08:50:48Z</time></trkpt><trkpt lat="-23.533868807346263" lon="113.96305159013299"><ele>13.0</ele><time>2026-04-17T08:50:50Z</time></trkpt><trkpt lat="-23.53387580181425" lon="113.96297115333972"><ele>12.999999999999998</ele><time>2026-04-17T08:50:52Z</time></trkpt><trkpt lat="-23.533889536784837" lon="113.96289916779658"><ele>13.0</ele><time>2026-04-17T08:50:54Z</time></trkpt><trkpt lat="-23.53387518763519" lon="113.96283105298919"><ele>13.0</ele><time>2026-04-17T08:51:16Z</time></trkpt><trkpt lat="-23.533678938351734" lon="113.96282734189406"><ele>13.0</ele><time>2026-04-17T08:51:24Z</time></trkpt><trkpt lat="-23.53362220591361" lon="113.96291629154118"><ele>13.0</ele><time>2026-04-17T08:51:26Z</time></trkpt><trkpt lat="-23.53358597678138" lon="113.96298561180089"><ele>13.0</ele><time>2026-04-17T08:51:27Z</time></trkpt><trkpt lat="-23.53355056120676" lon="113.96307233152038"><ele>12.999999999999998</ele><time>2026-04-17T08:51:28Z</time></trkpt><trkpt lat="-23.53350560328179" lon="113.96314641906245"><ele>13.0</ele><time>2026-04-17T08:51:29Z</time></trkpt><trkpt lat="-23.533460861334913" lon="113.96320717572186"><ele>13.0</ele><time>2026-04-17T08:51:30Z</time></trkpt><trkpt lat="-23.53340904581806" lon="113.96325448771461"><ele>13.0</ele><time>2026-04-17T08:51:31Z</time></trkpt><trkpt lat="-23.5333435819269" lon="113.96329568542356"><ele>12.999999999999998</ele><time>2026-04-17T08:51:32Z</time></trkpt><trkpt lat="-23.533256043217058" lon="113.96332148575446"><ele>13.0</ele><time>2026-04-17T08:51:33Z</time></trkpt><trkpt lat="-23.53314747983737" lon="113.96333444536533"><ele>13.0</ele><time>2026-04-17T08:51:34Z</time></trkpt><trkpt lat="-23.5330268662507" lon="113.96333137144093"><ele>13.0</ele><time>2026-04-17T08:51:35Z</time></trkpt><trkpt lat="-23.532871532637934" lon="113.96332064141916"><ele>13.0</ele><time>2026-04-17T08:51:36Z</time></trkpt><trkpt lat="-23.532707021448182" lon="113.96331618415233"><ele>13.0</ele><time>2026-04-17T08:51:37Z</time></trkpt><trkpt lat="-23.532526784416362" lon="113.96331369282194"><ele>13.0</ele><time>2026-04-17T08:51:38Z</time></trkpt><trkpt lat="-23.532326663269338" lon="113.96331530920756"><ele>13.0</ele><time>2026-04-17T08:51:39Z</time></trkpt><trkpt lat="-23.53210684020282" lon="113.96331079077395"><ele>13.0</ele><time>2026-04-17T08:51:40Z</time></trkpt><trkpt lat="-23.531899492515237" lon="113.96330419961711"><ele>12.0</ele><time>2026-04-17T08:51:41Z</time></trkpt><trkpt lat="-23.531679419336633" lon="113.96329994980422"><ele>11.0</ele><time>2026-04-17T08:51:42Z</time></trkpt><trkpt lat="-23.531445442840525" lon="113.96330120535495"><ele>11.0</ele><time>2026-04-17T08:51:43Z</time></trkpt><trkpt lat="-23.53121033242894" lon="113.96330179124847"><ele>11.0</ele><time>2026-04-17T08:51:44Z</time></trkpt><trkpt lat="-23.53097033142639" lon="113.96330921764984"><ele>11.0</ele><time>2026-04-17T08:51:45Z</time></trkpt><trkpt lat="-23.53071624100198" lon="113.9633252151251"><ele>11.0</ele><time>2026-04-17T08:51:46Z</time></trkpt><trkpt lat="-23.530455215741632" lon="113.96335076586402"><ele>12.0</ele><time>2026-04-17T08:51:47Z</time></trkpt><trkpt lat="-23.530198653678884" lon="113.96338461025519"><ele>13.0</ele><time>2026-04-17T08:51:48Z</time></trkpt><trkpt lat="-23.52993541508672" lon="113.96342256614079"><ele>13.0</ele><time>2026-04-17T08:51:49Z</time></trkpt><trkpt lat="-23.529657849390862" lon="113.96347107252362"><ele>13.0</ele><time>2026-04-17T08:51:50Z</time></trkpt><trkpt lat="-23.52937330966018" lon="113.96352706969644"><ele>13.0</ele><time>2026-04-17T08:51:51Z</time></trkpt><trkpt lat="-23.52909141405515" lon="113.96358965526484"><ele>13.0</ele><time>2026-04-17T08:51:52Z</time></trkpt><trkpt lat="-23.528823479129354" lon="113.96365665276997"><ele>12.5</ele><time>2026-04-17T08:51:53Z</time></trkpt><trkpt lat="-23.528554993137266" lon="113.96373514445355"><ele>12.0</ele><time>2026-04-17T08:51:54Z</time></trkpt><trkpt lat="-23.528288541197803" lon="113.96382032009082"><ele>12.0</ele><time>2026-04-17T08:51:55Z</time></trkpt><trkpt lat="-23.528019986045017" lon="113.96390712266758"><ele>12.0</ele><time>2026-04-17T08:51:56Z</time></trkpt><trkpt lat="-23.52775358865886" lon="113.96399467070994"><ele>12.0</ele><time>2026-04-17T08:51:57Z</time></trkpt><trkpt lat="-23.527486255836585" lon="113.9640812834672"><ele>12.0</ele><time>2026-04-17T08:51:58Z</time></trkpt><trkpt lat="-23.527221151825373" lon="113.96416687169904"><ele>12.0</ele><time>2026-04-17T08:51:59Z</time></trkpt><trkpt lat="-23.526956796537174" lon="113.96425321974938"><ele>12.0</ele><time>2026-04-17T08:52:00Z</time></trkpt><trkpt lat="-23.52669227870323" lon="113.96433875002549"><ele>12.0</ele><time>2026-04-17T08:52:01Z</time></trkpt><trkpt lat="-23.52642539796479" lon="113.96442205697961"><ele>12.0</ele><time>2026-04-17T08:52:02Z</time></trkpt><trkpt lat="-23.526161743105323" lon="113.9645039034495"><ele>10.5</ele><time>2026-04-17T08:52:03Z</time></trkpt><trkpt lat="-23.525894957212774" lon="113.96458939663178"><ele>9.0</ele><time>2026-04-17T08:52:04Z</time></trkpt><trkpt lat="-23.52562964495458" lon="113.96467616377443"><ele>9.0</ele><time>2026-04-17T08:52:05Z</time></trkpt><trkpt lat="-23.525365830357075" lon="113.9647637332684"><ele>9.0</ele><time>2026-04-17T08:52:06Z</time></trkpt><trkpt lat="-23.52509843732565" lon="113.96484997295133"><ele>9.0</ele><time>2026-04-17T08:52:07Z</time></trkpt><trkpt lat="-23.524830847008417" lon="113.96493405936307"><ele>9.0</ele><time>2026-04-17T08:52:08Z</time></trkpt><trkpt lat="-23.524562681543475" lon="113.96501923739412"><ele>9.0</ele><time>2026-04-17T08:52:09Z</time></trkpt><trkpt lat="-23.524296850493187" lon="113.9651069237534"><ele>9.0</ele><time>2026-04-17T08:52:10Z</time></trkpt><trkpt lat="-23.524028692389667" lon="113.96519511588036"><ele>9.0</ele><time>2026-04-17T08:52:11Z</time></trkpt><trkpt lat="-23.523762544573735" lon="113.96527970270655"><ele>9.0</ele><time>2026-04-17T08:52:12Z</time></trkpt><trkpt lat="-23.52349468432736" lon="113.96536334795293"><ele>9.0</ele><time>2026-04-17T08:52:13Z</time></trkpt><trkpt lat="-23.523225938763975" lon="113.96544823200163"><ele>9.0</ele><time>2026-04-17T08:52:14Z</time></trkpt><trkpt lat="-23.52295101752392" lon="113.96553605847751"><ele>9.0</ele><time>2026-04-17T08:52:15Z</time></trkpt><trkpt lat="-23.52267655869911" lon="113.96562284488182"><ele>9.0</ele><time>2026-04-17T08:52:16Z</time></trkpt><trkpt lat="-23.522406440493516" lon="113.96570985118989"><ele>9.0</ele><time>2026-04-17T08:52:17Z</time></trkpt><trkpt lat="-23.52213676591629" lon="113.965797444741"><ele>9.0</ele><time>2026-04-17T08:52:18Z</time></trkpt><trkpt lat="-23.521868519956566" lon="113.9658861504631"><ele>9.5</ele><time>2026-04-17T08:52:19Z</time></trkpt><trkpt lat="-23.521601798263656" lon="113.96597298338793"><ele>10.0</ele><time>2026-04-17T08:52:20Z</time></trkpt><trkpt lat="-23.52132931409854" lon="113.96606108744201"><ele>9.5</ele><time>2026-04-17T08:52:21Z</time></trkpt><trkpt lat="-23.521058684194273" lon="113.96614982470568"><ele>9.0</ele><time>2026-04-17T08:52:22Z</time></trkpt><trkpt lat="-23.52078436433545" lon="113.96623795716884"><ele>9.0</ele><time>2026-04-17T08:52:23Z</time></trkpt><trkpt lat="-23.52051145966429" lon="113.96632425217953"><ele>9.0</ele><time>2026-04-17T08:52:24Z</time></trkpt><trkpt lat="-23.52023675603584" lon="113.96640887075698"><ele>8.0</ele><time>2026-04-17T08:52:25Z</time></trkpt><trkpt lat="-23.519962912251955" lon="113.9664942227322"><ele>7.0</ele><time>2026-04-17T08:52:26Z</time></trkpt><trkpt lat="-23.51968687599411" lon="113.96657774750096"><ele>7.5</ele><time>2026-04-17T08:52:27Z</time></trkpt><trkpt lat="-23.519409675523345" lon="113.96666333560614"><ele>8.0</ele><time>2026-04-17T08:52:28Z</time></trkpt><trkpt lat="-23.519125405465015" lon="113.9667527596624"><ele>8.0</ele><time>2026-04-17T08:52:29Z</time></trkpt><trkpt lat="-23.51884773950559" lon="113.96684375824488"><ele>8.0</ele><time>2026-04-17T08:52:30Z</time></trkpt><trkpt lat="-23.518568817588747" lon="113.96693544379102"><ele>7.5</ele><time>2026-04-17T08:52:31Z</time></trkpt><trkpt lat="-23.518290173111097" lon="113.96702467874039"><ele>7.0</ele><time>2026-04-17T08:52:32Z</time></trkpt><trkpt lat="-23.518012834822688" lon="113.9671149119014"><ele>8.0</ele><time>2026-04-17T08:52:33Z</time></trkpt><trkpt lat="-23.51773648358068" lon="113.96720540059694"><ele>9.0</ele><time>2026-04-17T08:52:34Z</time></trkpt><trkpt lat="-23.517461894120352" lon="113.96729598486712"><ele>9.0</ele><time>2026-04-17T08:52:35Z</time></trkpt><trkpt lat="-23.517186990161118" lon="113.96738840423549"><ele>9.0</ele><time>2026-04-17T08:52:36Z</time></trkpt><trkpt lat="-23.516910660197418" lon="113.96748293404987"><ele>9.0</ele><time>2026-04-17T08:52:37Z</time></trkpt><trkpt lat="-23.516635936261743" lon="113.96757714388548"><ele>9.0</ele><time>2026-04-17T08:52:38Z</time></trkpt><trkpt lat="-23.5163621409409" lon="113.9676764087177"><ele>8.5</ele><time>2026-04-17T08:52:39Z</time></trkpt><trkpt lat="-23.51609165883074" lon="113.96778778259637"><ele>8.0</ele><time>2026-04-17T08:52:40Z</time></trkpt><trkpt lat="-23.51582476808657" lon="113.96790889649917"><ele>8.0</ele><time>2026-04-17T08:52:41Z</time></trkpt><trkpt lat="-23.515561910129936" lon="113.96803924888718"><ele>8.0</ele><time>2026-04-17T08:52:42Z</time></trkpt><trkpt lat="-23.515300879928798" lon="113.96818122567635"><ele>7.5</ele><time>2026-04-17T08:52:43Z</time></trkpt><trkpt lat="-23.515044879551304" lon="113.96833147478611"><ele>7.0</ele><time>2026-04-17T08:52:44Z</time></trkpt><trkpt lat="-23.514794798805188" lon="113.96849419052532"><ele>8.0</ele><time>2026-04-17T08:52:45Z</time></trkpt><trkpt lat="-23.51455137209471" lon="113.96866310240507"><ele>9.0</ele><time>2026-04-17T08:52:46Z</time></trkpt><trkpt lat="-23.514313867263457" lon="113.9688413164049"><ele>9.0</ele><time>2026-04-17T08:52:47Z</time></trkpt><trkpt lat="-23.514085529382207" lon="113.96902764513025"><ele>9.0</ele><time>2026-04-17T08:52:48Z</time></trkpt><trkpt lat="-23.51386255761004" lon="113.96922211605093"><ele>9.0</ele><time>2026-04-17T08:52:49Z</time></trkpt><trkpt lat="-23.5136445198854" lon="113.96942785994388"><ele>9.0</ele><time>2026-04-17T08:52:50Z</time></trkpt><trkpt lat="-23.513431515297693" lon="113.96963883492434"><ele>9.0</ele><time>2026-04-17T08:52:51Z</time></trkpt><trkpt lat="-23.51322197447344" lon="113.96985332598122"><ele>9.0</ele><time>2026-04-17T08:52:52Z</time></trkpt><trkpt lat="-23.513010624630823" lon="113.97006905571953"><ele>9.5</ele><time>2026-04-17T08:52:53Z</time></trkpt><trkpt lat="-23.5127971810956" lon="113.9702843334833"><ele>10.0</ele><time>2026-04-17T08:52:54Z</time></trkpt><trkpt lat="-23.512584422638987" lon="113.9704935044944"><ele>10.0</ele><time>2026-04-17T08:52:55Z</time></trkpt><trkpt lat="-23.512369900068585" lon="113.97070612647084"><ele>10.0</ele><time>2026-04-17T08:52:56Z</time></trkpt><trkpt lat="-23.51215688100025" lon="113.97091574437552"><ele>11.0</ele><time>2026-04-17T08:52:57Z</time></trkpt><trkpt lat="-23.511947164396794" lon="113.97112466272766"><ele>12.0</ele><time>2026-04-17T08:52:58Z</time></trkpt><trkpt lat="-23.511733480645997" lon="113.97133813986811"><ele>12.0</ele><time>2026-04-17T08:52:59Z</time></trkpt><trkpt lat="-23.511523122646327" lon="113.97154731406657"><ele>12.0</ele><time>2026-04-17T08:53:00Z</time></trkpt><trkpt lat="-23.51131056809327" lon="113.97175422292452"><ele>12.5</ele><time>2026-04-17T08:53:01Z</time></trkpt><trkpt lat="-23.511101647502382" lon="113.97195883470373"><ele>13.0</ele><time>2026-04-17T08:53:02Z</time></trkpt><trkpt lat="-23.51089381002737" lon="113.97216429486156"><ele>13.0</ele><time>2026-04-17T08:53:03Z</time></trkpt><trkpt lat="-23.510686132139895" lon="113.97236640896244"><ele>13.0</ele><time>2026-04-17T08:53:04Z</time></trkpt><trkpt lat="-23.510479366535474" lon="113.97256402873407"><ele>13.5</ele><time>2026-04-17T08:53:05Z</time></trkpt><trkpt lat="-23.510276065439722" lon="113.97276358367705"><ele>14.0</ele><time>2026-04-17T08:53:06Z</time></trkpt><trkpt lat="-23.510075309335228" lon="113.9729650853843"><ele>14.0</ele><time>2026-04-17T08:53:07Z</time></trkpt><trkpt lat="-23.509867975780153" lon="113.97317258824933"><ele>14.0</ele><time>2026-04-17T08:53:08Z</time></trkpt><trkpt lat="-23.50966038057036" lon="113.97337848784743"><ele>15.5</ele><time>2026-04-17T08:53:09Z</time></trkpt><trkpt lat="-23.509446540143575" lon="113.97359053156838"><ele>17.0</ele><time>2026-04-17T08:53:10Z</time></trkpt><trkpt lat="-23.50923186566095" lon="113.97380657621883"><ele>17.0</ele><time>2026-04-17T08:53:11Z</time></trkpt><trkpt lat="-23.509014844903543" lon="113.97402491844062"><ele>17.0</ele><time>2026-04-17T08:53:12Z</time></trkpt><trkpt lat="-23.508793373052434" lon="113.97424883220496"><ele>19.5</ele><time>2026-04-17T08:53:13Z</time></trkpt><trkpt lat="-23.50856905612412" lon="113.9744737850902"><ele>22.0</ele><time>2026-04-17T08:53:14Z</time></trkpt><trkpt lat="-23.508342294771516" lon="113.97469775385638"><ele>22.0</ele><time>2026-04-17T08:53:15Z</time></trkpt><trkpt lat="-23.508116887610793" lon="113.97491620724774"><ele>22.0</ele><time>2026-04-17T08:53:16Z</time></trkpt><trkpt lat="-23.507895268736426" lon="113.97513520176993"><ele>23.0</ele><time>2026-04-17T08:53:17Z</time></trkpt><trkpt lat="-23.5076785029798" lon="113.9753543507676"><ele>24.0</ele><time>2026-04-17T08:53:18Z</time></trkpt><trkpt lat="-23.507460706483396" lon="113.97557434960552"><ele>24.0</ele><time>2026-04-17T08:53:19Z</time></trkpt><trkpt lat="-23.507242522553998" lon="113.97579312794822"><ele>24.0</ele><time>2026-04-17T08:53:20Z</time></trkpt><trkpt lat="-23.507022917516057" lon="113.97601133078048"><ele>24.5</ele><time>2026-04-17T08:53:21Z</time></trkpt><trkpt lat="-23.50680026643513" lon="113.97622700631001"><ele>25.0</ele><time>2026-04-17T08:53:22Z</time></trkpt><trkpt lat="-23.506580566786948" lon="113.97644376361885"><ele>25.0</ele><time>2026-04-17T08:53:23Z</time></trkpt><trkpt lat="-23.50635993708828" lon="113.97666068801857"><ele>25.0</ele><time>2026-04-17T08:53:24Z</time></trkpt><trkpt lat="-23.506142392819907" lon="113.97687662098446"><ele>25.5</ele><time>2026-04-17T08:53:25Z</time></trkpt><trkpt lat="-23.50592448006397" lon="113.97709460253151"><ele>26.0</ele><time>2026-04-17T08:53:26Z</time></trkpt><trkpt lat="-23.505711719897402" lon="113.97730850034084"><ele>26.0</ele><time>2026-04-17T08:53:27Z</time></trkpt><trkpt lat="-23.505496101792986" lon="113.9775227232185"><ele>26.0</ele><time>2026-04-17T08:53:28Z</time></trkpt><trkpt lat="-23.505281007873243" lon="113.97773638612662"><ele>26.0</ele><time>2026-04-17T08:53:29Z</time></trkpt><trkpt lat="-23.505065019473697" lon="113.97795178601082"><ele>26.0</ele><time>2026-04-17T08:53:30Z</time></trkpt><trkpt lat="-23.50485142046644" lon="113.97816043793989"><ele>26.0</ele><time>2026-04-17T08:53:31Z</time></trkpt><trkpt lat="-23.504640131818988" lon="113.97836941782799"><ele>26.0</ele><time>2026-04-17T08:53:32Z</time></trkpt><trkpt lat="-23.50443206745901" lon="113.97857806478417"><ele>26.5</ele><time>2026-04-17T08:53:33Z</time></trkpt><trkpt lat="-23.504227533393014" lon="113.97878521936636"><ele>27.0</ele><time>2026-04-17T08:53:34Z</time></trkpt><trkpt lat="-23.504021672701455" lon="113.97899117190526"><ele>26.5</ele><time>2026-04-17T08:53:35Z</time></trkpt><trkpt lat="-23.503809263131473" lon="113.9791968375853"><ele>26.0</ele><time>2026-04-17T08:53:36Z</time></trkpt><trkpt lat="-23.503594227194828" lon="113.97939822616155"><ele>27.0</ele><time>2026-04-17T08:53:37Z</time></trkpt><trkpt lat="-23.503372606700953" lon="113.97959407343579"><ele>28.0</ele><time>2026-04-17T08:53:38Z</time></trkpt><trkpt lat="-23.50314225087357" lon="113.97978222265628"><ele>28.0</ele><time>2026-04-17T08:53:39Z</time></trkpt><trkpt lat="-23.502907426893756" lon="113.97995911674234"><ele>28.0</ele><time>2026-04-17T08:53:40Z</time></trkpt><trkpt lat="-23.502658541213194" lon="113.98012515683762"><ele>28.0</ele><time>2026-04-17T08:53:41Z</time></trkpt><trkpt lat="-23.502407289019974" lon="113.98028461127696"><ele>28.0</ele><time>2026-04-17T08:53:42Z</time></trkpt><trkpt lat="-23.502146064232" lon="113.98043740026331"><ele>28.0</ele><time>2026-04-17T08:53:43Z</time></trkpt><trkpt lat="-23.501880948358647" lon="113.9805805903487"><ele>28.0</ele><time>2026-04-17T08:53:44Z</time></trkpt><trkpt lat="-23.501605653195064" lon="113.98071487961444"><ele>28.0</ele><time>2026-04-17T08:53:45Z</time></trkpt><trkpt lat="-23.50133207115205" lon="113.98084203962536"><ele>28.0</ele><time>2026-04-17T08:53:46Z</time></trkpt><trkpt lat="-23.501052055761697" lon="113.98095677552708"><ele>27.5</ele><time>2026-04-17T08:53:47Z</time></trkpt><trkpt lat="-23.500772636529007" lon="113.98105863308297"><ele>27.0</ele><time>2026-04-17T08:53:48Z</time></trkpt><trkpt lat="-23.500489856605103" lon="113.98114709148408"><ele>28.0</ele><time>2026-04-17T08:53:49Z</time></trkpt><trkpt lat="-23.500207286150527" lon="113.981221627308"><ele>29.0</ele><time>2026-04-17T08:53:50Z</time></trkpt><trkpt lat="-23.49992547568667" lon="113.98128552097377"><ele>29.0</ele><time>2026-04-17T08:53:51Z</time></trkpt><trkpt lat="-23.49964781755076" lon="113.98133700289333"><ele>29.0</ele><time>2026-04-17T08:53:52Z</time></trkpt><trkpt lat="-23.499364761455464" lon="113.98137433857588"><ele>29.0</ele><time>2026-04-17T08:53:53Z</time></trkpt><trkpt lat="-23.49908292476639" lon="113.98140223022519"><ele>29.0</ele><time>2026-04-17T08:53:54Z</time></trkpt><trkpt lat="-23.498796767595923" lon="113.98142484251085"><ele>30.0</ele><time>2026-04-17T08:53:55Z</time></trkpt><trkpt lat="-23.49850923464017" lon="113.98144080346856"><ele>31.0</ele><time>2026-04-17T08:53:56Z</time></trkpt><trkpt lat="-23.498218705551903" lon="113.9814484648012"><ele>31.0</ele><time>2026-04-17T08:53:57Z</time></trkpt><trkpt lat="-23.497926313452375" lon="113.9814415550016"><ele>31.0</ele><time>2026-04-17T08:53:58Z</time></trkpt><trkpt lat="-23.497625379801182" lon="113.98142157994856"><ele>31.0</ele><time>2026-04-17T08:53:59Z</time></trkpt><trkpt lat="-23.497320841311858" lon="113.98138967013156"><ele>31.0</ele><time>2026-04-17T08:54:00Z</time></trkpt><trkpt lat="-23.49701865503523" lon="113.9813437046279"><ele>32.0</ele><time>2026-04-17T08:54:01Z</time></trkpt><trkpt lat="-23.496718414582457" lon="113.98127928856857"><ele>33.0</ele><time>2026-04-17T08:54:02Z</time></trkpt><trkpt lat="-23.49641594188284" lon="113.98120451871769"><ele>34.0</ele><time>2026-04-17T08:54:03Z</time></trkpt><trkpt lat="-23.496117861073085" lon="113.98111774912141"><ele>35.0</ele><time>2026-04-17T08:54:04Z</time></trkpt><trkpt lat="-23.495822373083843" lon="113.98102290432729"><ele>35.0</ele><time>2026-04-17T08:54:05Z</time></trkpt><trkpt lat="-23.495527626377008" lon="113.98092105478719"><ele>35.0</ele><time>2026-04-17T08:54:06Z</time></trkpt><trkpt lat="-23.49523906588106" lon="113.98080744953629"><ele>33.5</ele><time>2026-04-17T08:54:07Z</time></trkpt><trkpt lat="-23.494956874600874" lon="113.98068444513902"><ele>32.0</ele><time>2026-04-17T08:54:08Z</time></trkpt><trkpt lat="-23.4946801124257" lon="113.98055867589711"><ele>30.0</ele><time>2026-04-17T08:54:09Z</time></trkpt><trkpt lat="-23.49440607660446" lon="113.98043090284824"><ele>28.0</ele><time>2026-04-17T08:54:10Z</time></trkpt><trkpt lat="-23.49413019345828" lon="113.98030845128152"><ele>28.0</ele><time>2026-04-17T08:54:11Z</time></trkpt><trkpt lat="-23.49385632278685" lon="113.9801892164604"><ele>28.0</ele><time>2026-04-17T08:54:12Z</time></trkpt><trkpt lat="-23.493583228934362" lon="113.98007308421377"><ele>29.5</ele><time>2026-04-17T08:54:13Z</time></trkpt><trkpt lat="-23.493308621378123" lon="113.97995656829256"><ele>31.0</ele><time>2026-04-17T08:54:14Z</time></trkpt><trkpt lat="-23.493036192418657" lon="113.97983752311958"><ele>30.0</ele><time>2026-04-17T08:54:15Z</time></trkpt><trkpt lat="-23.492759689495777" lon="113.97971864732519"><ele>29.0</ele><time>2026-04-17T08:54:16Z</time></trkpt><trkpt lat="-23.49248437738087" lon="113.9795978759706"><ele>29.0</ele><time>2026-04-17T08:54:17Z</time></trkpt><trkpt lat="-23.492203163067547" lon="113.97947537126883"><ele>29.0</ele><time>2026-04-17T08:54:18Z</time></trkpt><trkpt lat="-23.491914688594886" lon="113.97935127735234"><ele>28.5</ele><time>2026-04-17T08:54:19Z</time></trkpt><trkpt lat="-23.491636228234526" lon="113.9792332177186"><ele>28.0</ele><time>2026-04-17T08:54:20Z</time></trkpt><trkpt lat="-23.491376917469704" lon="113.9791233101424"><ele>28.5</ele><time>2026-04-17T08:54:21Z</time></trkpt><trkpt lat="-23.491124709363685" lon="113.97901252432692"><ele>29.0</ele><time>2026-04-17T08:54:22Z</time></trkpt><trkpt lat="-23.490860489132473" lon="113.97890145636761"><ele>29.0</ele><time>2026-04-17T08:54:23Z</time></trkpt><trkpt lat="-23.490590435113848" lon="113.97878957544471"><ele>29.0</ele><time>2026-04-17T08:54:24Z</time></trkpt><trkpt lat="-23.49031661337131" lon="113.97867391692203"><ele>29.0</ele><time>2026-04-17T08:54:25Z</time></trkpt><trkpt lat="-23.490043169181583" lon="113.97855840046371"><ele>29.0</ele><time>2026-04-17T08:54:26Z</time></trkpt><trkpt lat="-23.489768157502954" lon="113.97844348537602"><ele>28.0</ele><time>2026-04-17T08:54:27Z</time></trkpt><trkpt lat="-23.4894921141091" lon="113.97832542176845"><ele>27.0</ele><time>2026-04-17T08:54:28Z</time></trkpt><trkpt lat="-23.489213610039428" lon="113.97820445819869"><ele>27.0</ele><time>2026-04-17T08:54:29Z</time></trkpt><trkpt lat="-23.48893280135734" lon="113.9780825643997"><ele>27.0</ele><time>2026-04-17T08:54:30Z</time></trkpt><trkpt lat="-23.48865084548259" lon="113.97796011351917"><ele>28.5</ele><time>2026-04-17T08:54:31Z</time></trkpt><trkpt lat="-23.488365846650122" lon="113.9778361518576"><ele>30.0</ele><time>2026-04-17T08:54:32Z</time></trkpt><trkpt lat="-23.488082117582746" lon="113.97771312478572"><ele>29.0</ele><time>2026-04-17T08:54:33Z</time></trkpt><trkpt lat="-23.487793468367997" lon="113.97758518319009"><ele>28.0</ele><time>2026-04-17T08:54:34Z</time></trkpt><trkpt lat="-23.487509198849946" lon="113.97745947692903"><ele>28.0</ele><time>2026-04-17T08:54:35Z</time></trkpt><trkpt lat="-23.487219921543513" lon="113.97733488029886"><ele>28.0</ele><time>2026-04-17T08:54:36Z</time></trkpt><trkpt lat="-23.486930432951336" lon="113.97720896420456"><ele>27.5</ele><time>2026-04-17T08:54:37Z</time></trkpt><trkpt lat="-23.486640157377522" lon="113.97708346755115"><ele>27.0</ele><time>2026-04-17T08:54:38Z</time></trkpt><trkpt lat="-23.486350292624127" lon="113.97695671504412"><ele>24.5</ele><time>2026-04-17T08:54:39Z</time></trkpt><trkpt lat="-23.48605863288488" lon="113.97683139721217"><ele>22.0</ele><time>2026-04-17T08:54:40Z</time></trkpt><trkpt lat="-23.485768171278803" lon="113.97670658116311"><ele>22.0</ele><time>2026-04-17T08:54:41Z</time></trkpt><trkpt lat="-23.485478496410124" lon="113.97658419305871"><ele>22.0</ele><time>2026-04-17T08:54:42Z</time></trkpt><trkpt lat="-23.48518874462029" lon="113.97646154160697"><ele>22.0</ele><time>2026-04-17T08:54:43Z</time></trkpt><trkpt lat="-23.484900036905984" lon="113.97633730863912"><ele>22.0</ele><time>2026-04-17T08:54:44Z</time></trkpt><trkpt lat="-23.484609800582618" lon="113.97621345164767"><ele>21.5</ele><time>2026-04-17T08:54:45Z</time></trkpt><trkpt lat="-23.4843211822642" lon="113.97609030191401"><ele>21.0</ele><time>2026-04-17T08:54:46Z</time></trkpt><trkpt lat="-23.484030985388284" lon="113.97596522629922"><ele>19.0</ele><time>2026-04-17T08:54:47Z</time></trkpt><trkpt lat="-23.483739413530028" lon="113.97583757728269"><ele>17.0</ele><time>2026-04-17T08:54:48Z</time></trkpt><trkpt lat="-23.48344868831564" lon="113.97571069339779"><ele>17.0</ele><time>2026-04-17T08:54:49Z</time></trkpt><trkpt lat="-23.483152925426555" lon="113.97558293482308"><ele>17.0</ele><time>2026-04-17T08:54:50Z</time></trkpt><trkpt lat="-23.482860988138142" lon="113.97545850563944"><ele>16.5</ele><time>2026-04-17T08:54:51Z</time></trkpt><trkpt lat="-23.482569517839664" lon="113.97533405802828"><ele>16.0</ele><time>2026-04-17T08:54:52Z</time></trkpt><trkpt lat="-23.48227753729254" lon="113.97521009117138"><ele>15.5</ele><time>2026-04-17T08:54:53Z</time></trkpt><trkpt lat="-23.481987669916276" lon="113.97508704626095"><ele>15.0</ele><time>2026-04-17T08:54:54Z</time></trkpt><trkpt lat="-23.481697089465584" lon="113.97496090413607"><ele>15.0</ele><time>2026-04-17T08:54:55Z</time></trkpt><trkpt lat="-23.481407850131763" lon="113.97483370442751"><ele>15.0</ele><time>2026-04-17T08:54:56Z</time></trkpt><trkpt lat="-23.481114877527887" lon="113.97470563112512"><ele>14.5</ele><time>2026-04-17T08:54:57Z</time></trkpt><trkpt lat="-23.480815643316713" lon="113.974576081759"><ele>14.0</ele><time>2026-04-17T08:54:58Z</time></trkpt><trkpt lat="-23.480515234499737" lon="113.97444799640319"><ele>13.5</ele><time>2026-04-17T08:54:59Z</time></trkpt><trkpt lat="-23.48021661764987" lon="113.9743225930728"><ele>13.0</ele><time>2026-04-17T08:55:00Z</time></trkpt><trkpt lat="-23.479920656438875" lon="113.97419899311615"><ele>12.5</ele><time>2026-04-17T08:55:01Z</time></trkpt><trkpt lat="-23.47962496334881" lon="113.9740733716906"><ele>12.0</ele><time>2026-04-17T08:55:02Z</time></trkpt><trkpt lat="-23.47932905790558" lon="113.97394432326297"><ele>10.5</ele><time>2026-04-17T08:55:03Z</time></trkpt><trkpt lat="-23.479034496219978" lon="113.97381773787548"><ele>9.0</ele><time>2026-04-17T08:55:04Z</time></trkpt><trkpt lat="-23.478741000075967" lon="113.97369261460454"><ele>9.0</ele><time>2026-04-17T08:55:05Z</time></trkpt><trkpt lat="-23.47844964425344" lon="113.97356599853231"><ele>9.0</ele><time>2026-04-17T08:55:06Z</time></trkpt><trkpt lat="-23.478159438664605" lon="113.97343794337745"><ele>9.5</ele><time>2026-04-17T08:55:07Z</time></trkpt><trkpt lat="-23.477868616570643" lon="113.97330904601648"><ele>10.0</ele><time>2026-04-17T08:55:08Z</time></trkpt><trkpt lat="-23.47757730473988" lon="113.9731790057086"><ele>10.0</ele><time>2026-04-17T08:55:09Z</time></trkpt><trkpt lat="-23.477283746217644" lon="113.97304782430045"><ele>10.0</ele><time>2026-04-17T08:55:10Z</time></trkpt><trkpt lat="-23.476991734771712" lon="113.97292058426369"><ele>10.5</ele><time>2026-04-17T08:55:11Z</time></trkpt><trkpt lat="-23.476695725823784" lon="113.97279424588326"><ele>11.0</ele><time>2026-04-17T08:55:12Z</time></trkpt><trkpt lat="-23.476404372456347" lon="113.97266794906294"><ele>10.5</ele><time>2026-04-17T08:55:13Z</time></trkpt><trkpt lat="-23.476111392258527" lon="113.97254353526358"><ele>10.0</ele><time>2026-04-17T08:55:14Z</time></trkpt><trkpt lat="-23.475820889449928" lon="113.97242128261226"><ele>10.0</ele><time>2026-04-17T08:55:15Z</time></trkpt><trkpt lat="-23.47552812338038" lon="113.9722984711386"><ele>10.0</ele><time>2026-04-17T08:55:16Z</time></trkpt><trkpt lat="-23.47523566047001" lon="113.97217218529248"><ele>10.0</ele><time>2026-04-17T08:55:17Z</time></trkpt><trkpt lat="-23.474940934345064" lon="113.97204469491611"><ele>10.0</ele><time>2026-04-17T08:55:18Z</time></trkpt><trkpt lat="-23.47464521227382" lon="113.97191572165323"><ele>10.5</ele><time>2026-04-17T08:55:19Z</time></trkpt><trkpt lat="-23.474349505128053" lon="113.97177830814688"><ele>11.0</ele><time>2026-04-17T08:55:20Z</time></trkpt><trkpt lat="-23.474056119368605" lon="113.97163268134359"><ele>11.0</ele><time>2026-04-17T08:55:21Z</time></trkpt><trkpt lat="-23.47376329673747" lon="113.97148322681059"><ele>11.0</ele><time>2026-04-17T08:55:22Z</time></trkpt><trkpt lat="-23.4734768122965" lon="113.97133129353527"><ele>11.0</ele><time>2026-04-17T08:55:23Z</time></trkpt><trkpt lat="-23.47319498197053" lon="113.97117486793518"><ele>11.0</ele><time>2026-04-17T08:55:24Z</time></trkpt><trkpt lat="-23.472910718940888" lon="113.97101304171316"><ele>11.5</ele><time>2026-04-17T08:55:25Z</time></trkpt><trkpt lat="-23.472629379077" lon="113.97084859882875"><ele>12.0</ele><time>2026-04-17T08:55:26Z</time></trkpt><trkpt lat="-23.47235112984338" lon="113.97068236771256"><ele>12.5</ele><time>2026-04-17T08:55:27Z</time></trkpt><trkpt lat="-23.472071048717968" lon="113.97051132090701"><ele>13.0</ele><time>2026-04-17T08:55:28Z</time></trkpt><trkpt lat="-23.471795334564224" lon="113.97033850802396"><ele>13.0</ele><time>2026-04-17T08:55:29Z</time></trkpt><trkpt lat="-23.471522810103597" lon="113.97016272746508"><ele>13.0</ele><time>2026-04-17T08:55:30Z</time></trkpt><trkpt lat="-23.471250014930636" lon="113.96998319500607"><ele>12.0</ele><time>2026-04-17T08:55:31Z</time></trkpt><trkpt lat="-23.470980128137757" lon="113.96980611847945"><ele>11.0</ele><time>2026-04-17T08:55:32Z</time></trkpt><trkpt lat="-23.470709141635645" lon="113.96963050338145"><ele>12.5</ele><time>2026-04-17T08:55:33Z</time></trkpt><trkpt lat="-23.470438476074424" lon="113.96945742055136"><ele>14.0</ele><time>2026-04-17T08:55:34Z</time></trkpt><trkpt lat="-23.470169690621876" lon="113.9692847704591"><ele>13.5</ele><time>2026-04-17T08:55:35Z</time></trkpt><trkpt lat="-23.469903308043932" lon="113.96910948352"><ele>13.0</ele><time>2026-04-17T08:55:36Z</time></trkpt><trkpt lat="-23.469638162459834" lon="113.96893303353676"><ele>13.5</ele><time>2026-04-17T08:55:37Z</time></trkpt><trkpt lat="-23.469370502368346" lon="113.96875641989273"><ele>14.0</ele><time>2026-04-17T08:55:38Z</time></trkpt><trkpt lat="-23.46910155154151" lon="113.96858485444591"><ele>14.0</ele><time>2026-04-17T08:55:39Z</time></trkpt><trkpt lat="-23.468830411433263" lon="113.96841415111304"><ele>14.0</ele><time>2026-04-17T08:55:40Z</time></trkpt><trkpt lat="-23.46855649303621" lon="113.96824135261772"><ele>13.0</ele><time>2026-04-17T08:55:41Z</time></trkpt><trkpt lat="-23.468279055040778" lon="113.96806580077971"><ele>12.0</ele><time>2026-04-17T08:55:42Z</time></trkpt><trkpt lat="-23.46800286283928" lon="113.9678883235238"><ele>13.0</ele><time>2026-04-17T08:55:43Z</time></trkpt><trkpt lat="-23.467726524783032" lon="113.96770689540348"><ele>14.0</ele><time>2026-04-17T08:55:44Z</time></trkpt><trkpt lat="-23.467450723069383" lon="113.96752600695619"><ele>12.5</ele><time>2026-04-17T08:55:45Z</time></trkpt><trkpt lat="-23.46717602328797" lon="113.96734728304233"><ele>11.0</ele><time>2026-04-17T08:55:46Z</time></trkpt><trkpt lat="-23.46689820705682" lon="113.96716610439366"><ele>11.0</ele><time>2026-04-17T08:55:47Z</time></trkpt><trkpt lat="-23.46662264196846" lon="113.96698838038711"><ele>11.0</ele><time>2026-04-17T08:55:48Z</time></trkpt><trkpt lat="-23.466349018814032" lon="113.9668125783431"><ele>12.0</ele><time>2026-04-17T08:55:49Z</time></trkpt><trkpt lat="-23.466076849729937" lon="113.96663711703494"><ele>13.0</ele><time>2026-04-17T08:55:50Z</time></trkpt><trkpt lat="-23.465806895656563" lon="113.96646232042585"><ele>13.0</ele><time>2026-04-17T08:55:51Z</time></trkpt><trkpt lat="-23.46553873267979" lon="113.96629080704444"><ele>13.0</ele><time>2026-04-17T08:55:52Z</time></trkpt><trkpt lat="-23.46527019777988" lon="113.9661201582403"><ele>12.0</ele><time>2026-04-17T08:55:53Z</time></trkpt><trkpt lat="-23.465003108442495" lon="113.9659471154613"><ele>11.0</ele><time>2026-04-17T08:55:54Z</time></trkpt><trkpt lat="-23.4647356823604" lon="113.9657729117698"><ele>12.0</ele><time>2026-04-17T08:55:55Z</time></trkpt><trkpt lat="-23.464467749669982" lon="113.9655997056816"><ele>13.0</ele><time>2026-04-17T08:55:56Z</time></trkpt><trkpt lat="-23.464200720031698" lon="113.9654284212476"><ele>13.0</ele><time>2026-04-17T08:55:57Z</time></trkpt><trkpt lat="-23.463934175085544" lon="113.96525683997012"><ele>13.0</ele><time>2026-04-17T08:55:58Z</time></trkpt><trkpt lat="-23.463665567538133" lon="113.96508422558223"><ele>12.5</ele><time>2026-04-17T08:55:59Z</time></trkpt><trkpt lat="-23.463397055044073" lon="113.96491016232994"><ele>12.0</ele><time>2026-04-17T08:56:00Z</time></trkpt><trkpt lat="-23.463128505826806" lon="113.96473499046705"><ele>11.5</ele><time>2026-04-17T08:56:01Z</time></trkpt><trkpt lat="-23.462859134451953" lon="113.9645591486582"><ele>11.0</ele><time>2026-04-17T08:56:02Z</time></trkpt><trkpt lat="-23.462586928076863" lon="113.9643808790684"><ele>11.0</ele><time>2026-04-17T08:56:03Z</time></trkpt><trkpt lat="-23.46231451935789" lon="113.96420457769224"><ele>11.0</ele><time>2026-04-17T08:56:04Z</time></trkpt><trkpt lat="-23.462040448108098" lon="113.96402964603746"><ele>12.0</ele><time>2026-04-17T08:56:05Z</time></trkpt><trkpt lat="-23.461765009707428" lon="113.96385315252647"><ele>13.0</ele><time>2026-04-17T08:56:06Z</time></trkpt><trkpt lat="-23.461492767077733" lon="113.96367611923853"><ele>12.0</ele><time>2026-04-17T08:56:07Z</time></trkpt><trkpt lat="-23.461215828927635" lon="113.9634977839284"><ele>11.0</ele><time>2026-04-17T08:56:08Z</time></trkpt><trkpt lat="-23.460942477274937" lon="113.96332445827504"><ele>10.5</ele><time>2026-04-17T08:56:09Z</time></trkpt><trkpt lat="-23.460667047960527" lon="113.96314864066434"><ele>10.0</ele><time>2026-04-17T08:56:10Z</time></trkpt><trkpt lat="-23.460394026572335" lon="113.96297521300461"><ele>10.0</ele><time>2026-04-17T08:56:11Z</time></trkpt><trkpt lat="-23.460120794490958" lon="113.96280228224299"><ele>10.0</ele><time>2026-04-17T08:56:12Z</time></trkpt><trkpt lat="-23.45984834638215" lon="113.96262723674187"><ele>10.0</ele><time>2026-04-17T08:56:13Z</time></trkpt><trkpt lat="-23.459576621951992" lon="113.96245114562177"><ele>10.0</ele><time>2026-04-17T08:56:14Z</time></trkpt><trkpt lat="-23.459306476368923" lon="113.96227549689259"><ele>10.0</ele><time>2026-04-17T08:56:15Z</time></trkpt><trkpt lat="-23.459037272672024" lon="113.96209924858205"><ele>10.0</ele><time>2026-04-17T08:56:16Z</time></trkpt><trkpt lat="-23.45876545387923" lon="113.96192118348425"><ele>10.0</ele><time>2026-04-17T08:56:17Z</time></trkpt><trkpt lat="-23.458494024508898" lon="113.96174538323733"><ele>10.0</ele><time>2026-04-17T08:56:18Z</time></trkpt><trkpt lat="-23.458223298246168" lon="113.96156938699305"><ele>9.5</ele><time>2026-04-17T08:56:19Z</time></trkpt><trkpt lat="-23.457951540683563" lon="113.96139634207952"><ele>9.0</ele><time>2026-04-17T08:56:20Z</time></trkpt><trkpt lat="-23.457680419161875" lon="113.96122431112455"><ele>9.0</ele><time>2026-04-17T08:56:21Z</time></trkpt><trkpt lat="-23.457410947334427" lon="113.96103672025079"><ele>9.0</ele><time>2026-04-17T08:56:22Z</time></trkpt><trkpt lat="-23.45714081925152" lon="113.96087217338726"><ele>6.0</ele><time>2026-04-17T08:56:23Z</time></trkpt><trkpt lat="-23.456601563654942" lon="113.96053297597392"><ele>6.0</ele><time>2026-04-17T08:56:25Z</time></trkpt><trkpt lat="-23.456336535760677" lon="113.9603645690842"><ele>6.0</ele><time>2026-04-17T08:56:26Z</time></trkpt><trkpt lat="-23.456071954492735" lon="113.96019343264355"><ele>7.5</ele><time>2026-04-17T08:56:27Z</time></trkpt><trkpt lat="-23.455808234482785" lon="113.96002361324729"><ele>9.0</ele><time>2026-04-17T08:56:28Z</time></trkpt><trkpt lat="-23.455545281857" lon="113.9598516440277"><ele>9.5</ele><time>2026-04-17T08:56:29Z</time></trkpt><trkpt lat="-23.455279374594184" lon="113.95967682891592"><ele>10.0</ele><time>2026-04-17T08:56:30Z</time></trkpt><trkpt lat="-23.45501594832797" lon="113.95950237426516"><ele>10.0</ele><time>2026-04-17T08:56:31Z</time></trkpt><trkpt lat="-23.454753779787897" lon="113.959331704465"><ele>10.0</ele><time>2026-04-17T08:56:32Z</time></trkpt><trkpt lat="-23.454491876163427" lon="113.95916484751237"><ele>9.5</ele><time>2026-04-17T08:56:33Z</time></trkpt><trkpt lat="-23.45423034350884" lon="113.95899978758412"><ele>9.0</ele><time>2026-04-17T08:56:34Z</time></trkpt><trkpt lat="-23.453968303977575" lon="113.9588335790085"><ele>8.0</ele><time>2026-04-17T08:56:35Z</time></trkpt><trkpt lat="-23.453704354217255" lon="113.95867167238893"><ele>7.0</ele><time>2026-04-17T08:56:36Z</time></trkpt><trkpt lat="-23.453431042868765" lon="113.95851422253288"><ele>7.5</ele><time>2026-04-17T08:56:37Z</time></trkpt><trkpt lat="-23.453152913551893" lon="113.95836480110165"><ele>8.0</ele><time>2026-04-17T08:56:38Z</time></trkpt><trkpt lat="-23.4528713929372" lon="113.95822324043742"><ele>9.0</ele><time>2026-04-17T08:56:39Z</time></trkpt><trkpt lat="-23.452587068513626" lon="113.95808898860015"><ele>10.0</ele><time>2026-04-17T08:56:40Z</time></trkpt><trkpt lat="-23.45229943461482" lon="113.95796656115941"><ele>8.5</ele><time>2026-04-17T08:56:41Z</time></trkpt><trkpt lat="-23.45200821540751" lon="113.95785614913878"><ele>7.0</ele><time>2026-04-17T08:56:42Z</time></trkpt><trkpt lat="-23.451713986234864" lon="113.95775730989406"><ele>7.0</ele><time>2026-04-17T08:56:43Z</time></trkpt><trkpt lat="-23.451417845548225" lon="113.95765488647251"><ele>7.0</ele><time>2026-04-17T08:56:44Z</time></trkpt><trkpt lat="-23.451128400201632" lon="113.95755125002015"><ele>7.0</ele><time>2026-04-17T08:56:45Z</time></trkpt><trkpt lat="-23.450837097409938" lon="113.95744249293284"><ele>7.0</ele><time>2026-04-17T08:56:46Z</time></trkpt><trkpt lat="-23.4505469367781" lon="113.9573389183554"><ele>8.0</ele><time>2026-04-17T08:56:47Z</time></trkpt><trkpt lat="-23.45025462656786" lon="113.95723560367684"><ele>9.0</ele><time>2026-04-17T08:56:48Z</time></trkpt><trkpt lat="-23.449967075338048" lon="113.9571328960276"><ele>9.0</ele><time>2026-04-17T08:56:49Z</time></trkpt><trkpt lat="-23.449681362509953" lon="113.95702835663376"><ele>9.0</ele><time>2026-04-17T08:56:50Z</time></trkpt><trkpt lat="-23.449394237596508" lon="113.9569237638458"><ele>9.0</ele><time>2026-04-17T08:56:51Z</time></trkpt><trkpt lat="-23.449110573118507" lon="113.95682095623688"><ele>9.0</ele><time>2026-04-17T08:56:52Z</time></trkpt><trkpt lat="-23.448828028060746" lon="113.95672036606732"><ele>8.5</ele><time>2026-04-17T08:56:53Z</time></trkpt><trkpt lat="-23.448545529392504" lon="113.95662212458762"><ele>8.0</ele><time>2026-04-17T08:56:54Z</time></trkpt><trkpt lat="-23.448260827014558" lon="113.95652354991796"><ele>8.0</ele><time>2026-04-17T08:56:55Z</time></trkpt><trkpt lat="-23.44797804623696" lon="113.95642463097757"><ele>8.0</ele><time>2026-04-17T08:56:56Z</time></trkpt><trkpt lat="-23.447696596306855" lon="113.95632620528671"><ele>7.0</ele><time>2026-04-17T08:56:57Z</time></trkpt><trkpt lat="-23.447415897443385" lon="113.9562233634577"><ele>6.0</ele><time>2026-04-17T08:56:58Z</time></trkpt><trkpt lat="-23.44713570956844" lon="113.95611850941255"><ele>6.5</ele><time>2026-04-17T08:56:59Z</time></trkpt><trkpt lat="-23.44685124446202" lon="113.95601284938454"><ele>7.0</ele><time>2026-04-17T08:57:00Z</time></trkpt><trkpt lat="-23.446564461105147" lon="113.9559068503526"><ele>7.5</ele><time>2026-04-17T08:57:01Z</time></trkpt><trkpt lat="-23.44627699358814" lon="113.95580323453981"><ele>8.0</ele><time>2026-04-17T08:57:02Z</time></trkpt><trkpt lat="-23.44598629410798" lon="113.95569690096335"><ele>8.0</ele><time>2026-04-17T08:57:03Z</time></trkpt><trkpt lat="-23.445696255323213" lon="113.95559114978775"><ele>8.0</ele><time>2026-04-17T08:57:04Z</time></trkpt><trkpt lat="-23.445407621568442" lon="113.95548868523687"><ele>8.0</ele><time>2026-04-17T08:57:05Z</time></trkpt><trkpt lat="-23.445118108018196" lon="113.95538731278823"><ele>8.0</ele><time>2026-04-17T08:57:06Z</time></trkpt><trkpt lat="-23.444824477003813" lon="113.95528411119687"><ele>8.0</ele><time>2026-04-17T08:57:07Z</time></trkpt><trkpt lat="-23.44453414855669" lon="113.95518174768843"><ele>8.0</ele><time>2026-04-17T08:57:08Z</time></trkpt><trkpt lat="-23.444241299145016" lon="113.9550744926505"><ele>8.0</ele><time>2026-04-17T08:57:09Z</time></trkpt><trkpt lat="-23.443947382802637" lon="113.95496342974886"><ele>8.0</ele><time>2026-04-17T08:57:10Z</time></trkpt><trkpt lat="-23.44365945648417" lon="113.95485551600518"><ele>8.5</ele><time>2026-04-17T08:57:11Z</time></trkpt><trkpt lat="-23.443370302306963" lon="113.95475168264835"><ele>9.0</ele><time>2026-04-17T08:57:12Z</time></trkpt><trkpt lat="-23.44308279730112" lon="113.95464682958178"><ele>9.5</ele><time>2026-04-17T08:57:13Z</time></trkpt><trkpt lat="-23.442796714735902" lon="113.95454055217314"><ele>10.0</ele><time>2026-04-17T08:57:14Z</time></trkpt><trkpt lat="-23.442511438961372" lon="113.95443666646786"><ele>10.0</ele><time>2026-04-17T08:57:15Z</time></trkpt><trkpt lat="-23.442224130892463" lon="113.9543332107311"><ele>10.0</ele><time>2026-04-17T08:57:16Z</time></trkpt><trkpt lat="-23.441938915813598" lon="113.95423465180828"><ele>8.5</ele><time>2026-04-17T08:57:17Z</time></trkpt><trkpt lat="-23.441658309413892" lon="113.9541389418102"><ele>7.0</ele><time>2026-04-17T08:57:18Z</time></trkpt><trkpt lat="-23.441383013726895" lon="113.95404315292176"><ele>7.0</ele><time>2026-04-17T08:57:19Z</time></trkpt><trkpt lat="-23.441108888088802" lon="113.95394620781704"><ele>7.0</ele><time>2026-04-17T08:57:20Z</time></trkpt><trkpt lat="-23.440830581614698" lon="113.95385356230585"><ele>7.0</ele><time>2026-04-17T08:57:21Z</time></trkpt><trkpt lat="-23.44054309973344" lon="113.95376496744262"><ele>7.0</ele><time>2026-04-17T08:57:22Z</time></trkpt><trkpt lat="-23.44025439226823" lon="113.95368342442208"><ele>8.0</ele><time>2026-04-17T08:57:23Z</time></trkpt><trkpt lat="-23.439961583261272" lon="113.95361317222817"><ele>9.0</ele><time>2026-04-17T08:57:24Z</time></trkpt><trkpt lat="-23.439673935267844" lon="113.95355753386335"><ele>8.5</ele><time>2026-04-17T08:57:25Z</time></trkpt><trkpt lat="-23.439400710316413" lon="113.95350995279"><ele>8.0</ele><time>2026-04-17T08:57:26Z</time></trkpt><trkpt lat="-23.439147961320437" lon="113.95347036234827"><ele>8.0</ele><time>2026-04-17T08:57:27Z</time></trkpt><trkpt lat="-23.438898502915357" lon="113.9534376733575"><ele>8.0</ele><time>2026-04-17T08:57:28Z</time></trkpt><trkpt lat="-23.438640065541186" lon="113.953410876908"><ele>7.5</ele><time>2026-04-17T08:57:29Z</time></trkpt><trkpt lat="-23.43837264107702" lon="113.95339093227938"><ele>7.0</ele><time>2026-04-17T08:57:30Z</time></trkpt><trkpt lat="-23.4381016553835" lon="113.95337541946145"><ele>6.5</ele><time>2026-04-17T08:57:31Z</time></trkpt><trkpt lat="-23.437831918983214" lon="113.95335654173026"><ele>6.0</ele><time>2026-04-17T08:57:32Z</time></trkpt><trkpt lat="-23.437556610753973" lon="113.95333330856842"><ele>6.0</ele><time>2026-04-17T08:57:33Z</time></trkpt><trkpt lat="-23.437281867634564" lon="113.95331357834917"><ele>6.0</ele><time>2026-04-17T08:57:34Z</time></trkpt><trkpt lat="-23.437006055131288" lon="113.95329646928451"><ele>6.5</ele><time>2026-04-17T08:57:35Z</time></trkpt><trkpt lat="-23.436729251803445" lon="113.95327768810422"><ele>7.0</ele><time>2026-04-17T08:57:36Z</time></trkpt><trkpt lat="-23.436450260958395" lon="113.95325932424682"><ele>7.0</ele><time>2026-04-17T08:57:37Z</time></trkpt><trkpt lat="-23.43617184818023" lon="113.95324755767906"><ele>7.0</ele><time>2026-04-17T08:57:38Z</time></trkpt><trkpt lat="-23.435894467428856" lon="113.9532346546364"><ele>7.0</ele><time>2026-04-17T08:57:39Z</time></trkpt><trkpt lat="-23.43561398545863" lon="113.9532175807178"><ele>7.0</ele><time>2026-04-17T08:57:40Z</time></trkpt><trkpt lat="-23.435331580698456" lon="113.95319961166999"><ele>7.0</ele><time>2026-04-17T08:57:41Z</time></trkpt><trkpt lat="-23.43504721474772" lon="113.95318161562422"><ele>7.0</ele><time>2026-04-17T08:57:42Z</time></trkpt><trkpt lat="-23.434761940982884" lon="113.95316689245959"><ele>5.5</ele><time>2026-04-17T08:57:43Z</time></trkpt><trkpt lat="-23.434475562425003" lon="113.95315100600376"><ele>4.0</ele><time>2026-04-17T08:57:44Z</time></trkpt><trkpt lat="-23.434188780746513" lon="113.95313083517877"><ele>4.0</ele><time>2026-04-17T08:57:45Z</time></trkpt><trkpt lat="-23.433898821579113" lon="113.95310889553595"><ele>4.0</ele><time>2026-04-17T08:57:46Z</time></trkpt><trkpt lat="-23.433609971385476" lon="113.9530877600465"><ele>6.0</ele><time>2026-04-17T08:57:47Z</time></trkpt><trkpt lat="-23.433317102177735" lon="113.95306847558281"><ele>8.0</ele><time>2026-04-17T08:57:48Z</time></trkpt><trkpt lat="-23.433028163542637" lon="113.95304673025903"><ele>8.5</ele><time>2026-04-17T08:57:49Z</time></trkpt><trkpt lat="-23.432736844754057" lon="113.95302744198835"><ele>9.0</ele><time>2026-04-17T08:57:50Z</time></trkpt><trkpt lat="-23.432445159738386" lon="113.95300917099259"><ele>9.0</ele><time>2026-04-17T08:57:51Z</time></trkpt><trkpt lat="-23.432150832297072" lon="113.95299346717327"><ele>9.0</ele><time>2026-04-17T08:57:52Z</time></trkpt><trkpt lat="-23.431857135312264" lon="113.95297729970818"><ele>9.5</ele><time>2026-04-17T08:57:53Z</time></trkpt><trkpt lat="-23.4315598419157" lon="113.95296026980131"><ele>10.0</ele><time>2026-04-17T08:57:54Z</time></trkpt><trkpt lat="-23.431263154968516" lon="113.9529447975241"><ele>9.0</ele><time>2026-04-17T08:57:55Z</time></trkpt><trkpt lat="-23.43096534390079" lon="113.95292611095996"><ele>8.0</ele><time>2026-04-17T08:57:56Z</time></trkpt><trkpt lat="-23.430663318599574" lon="113.95290719577366"><ele>7.5</ele><time>2026-04-17T08:57:57Z</time></trkpt><trkpt lat="-23.430363486395194" lon="113.95288784758286"><ele>7.0</ele><time>2026-04-17T08:57:58Z</time></trkpt><trkpt lat="-23.43006227638677" lon="113.95286692900957"><ele>7.0</ele><time>2026-04-17T08:57:59Z</time></trkpt><trkpt lat="-23.429758834156658" lon="113.95284549269694"><ele>7.0</ele><time>2026-04-17T08:58:00Z</time></trkpt><trkpt lat="-23.42945585651499" lon="113.95282620106038"><ele>7.5</ele><time>2026-04-17T08:58:01Z</time></trkpt><trkpt lat="-23.429151605583154" lon="113.95280355974413"><ele>8.0</ele><time>2026-04-17T08:58:02Z</time></trkpt><trkpt lat="-23.428848602415446" lon="113.9527747099075"><ele>9.0</ele><time>2026-04-17T08:58:03Z</time></trkpt><trkpt lat="-23.428545952366896" lon="113.95274045895229"><ele>10.0</ele><time>2026-04-17T08:58:04Z</time></trkpt><trkpt lat="-23.42824566787778" lon="113.95270050017515"><ele>10.0</ele><time>2026-04-17T08:58:05Z</time></trkpt><trkpt lat="-23.42794749020309" lon="113.95264892421241"><ele>10.0</ele><time>2026-04-17T08:58:06Z</time></trkpt><trkpt lat="-23.427650767003534" lon="113.95258909289242"><ele>10.5</ele><time>2026-04-17T08:58:07Z</time></trkpt><trkpt lat="-23.427354449295535" lon="113.95252249259015"><ele>11.0</ele><time>2026-04-17T08:58:08Z</time></trkpt><trkpt lat="-23.427061872367183" lon="113.95244642707357"><ele>11.0</ele><time>2026-04-17T08:58:09Z</time></trkpt><trkpt lat="-23.42677345224389" lon="113.95235661056512"><ele>11.0</ele><time>2026-04-17T08:58:10Z</time></trkpt><trkpt lat="-23.426484632666707" lon="113.95226226014445"><ele>11.0</ele><time>2026-04-17T08:58:11Z</time></trkpt><trkpt lat="-23.426196283639282" lon="113.95216391257351"><ele>11.0</ele><time>2026-04-17T08:58:12Z</time></trkpt><trkpt lat="-23.425909674081062" lon="113.9520581850221"><ele>11.0</ele><time>2026-04-17T08:58:13Z</time></trkpt><trkpt lat="-23.42562981035538" lon="113.95194612222348"><ele>11.0</ele><time>2026-04-17T08:58:14Z</time></trkpt><trkpt lat="-23.425345296424275" lon="113.95183230156971"><ele>11.0</ele><time>2026-04-17T08:58:15Z</time></trkpt><trkpt lat="-23.42505998347681" lon="113.95172088480057"><ele>11.0</ele><time>2026-04-17T08:58:16Z</time></trkpt><trkpt lat="-23.424772724828856" lon="113.9516128170147"><ele>11.5</ele><time>2026-04-17T08:58:17Z</time></trkpt><trkpt lat="-23.424485606617573" lon="113.95150831644959"><ele>12.0</ele><time>2026-04-17T08:58:18Z</time></trkpt><trkpt lat="-23.424200883146227" lon="113.95140155045348"><ele>12.0</ele><time>2026-04-17T08:58:19Z</time></trkpt><trkpt lat="-23.423912692143514" lon="113.95129391462312"><ele>12.0</ele><time>2026-04-17T08:58:20Z</time></trkpt><trkpt lat="-23.42362277355236" lon="113.95118664263194"><ele>10.5</ele><time>2026-04-17T08:58:21Z</time></trkpt><trkpt lat="-23.423339139575415" lon="113.95108307828254"><ele>9.0</ele><time>2026-04-17T08:58:22Z</time></trkpt><trkpt lat="-23.423054061623933" lon="113.9509768240451"><ele>10.5</ele><time>2026-04-17T08:58:23Z</time></trkpt><trkpt lat="-23.422773471355022" lon="113.95087229737278"><ele>12.0</ele><time>2026-04-17T08:58:24Z</time></trkpt><trkpt lat="-23.42249344217746" lon="113.95076802597536"><ele>12.0</ele><time>2026-04-17T08:58:25Z</time></trkpt><trkpt lat="-23.422215827583116" lon="113.95066060650564"><ele>12.0</ele><time>2026-04-17T08:58:26Z</time></trkpt><trkpt lat="-23.42193984994534" lon="113.9505518556812"><ele>11.5</ele><time>2026-04-17T08:58:27Z</time></trkpt><trkpt lat="-23.421664030726674" lon="113.95044527496857"><ele>11.0</ele><time>2026-04-17T08:58:28Z</time></trkpt><trkpt lat="-23.421382749597615" lon="113.9503385492394"><ele>11.0</ele><time>2026-04-17T08:58:29Z</time></trkpt><trkpt lat="-23.421105360854497" lon="113.95023838255278"><ele>11.0</ele><time>2026-04-17T08:58:30Z</time></trkpt><trkpt lat="-23.420830673578905" lon="113.95013779121908"><ele>11.0</ele><time>2026-04-17T08:58:31Z</time></trkpt><trkpt lat="-23.42055450447309" lon="113.95003626279833"><ele>11.0</ele><time>2026-04-17T08:58:32Z</time></trkpt><trkpt lat="-23.42027598180221" lon="113.9499315335253"><ele>11.0</ele><time>2026-04-17T08:58:33Z</time></trkpt><trkpt lat="-23.419997092251833" lon="113.94982688390108"><ele>11.0</ele><time>2026-04-17T08:58:34Z</time></trkpt><trkpt lat="-23.41971780019672" lon="113.94972334685256"><ele>12.0</ele><time>2026-04-17T08:58:35Z</time></trkpt><trkpt lat="-23.419440657279377" lon="113.9496212272484"><ele>13.0</ele><time>2026-04-17T08:58:36Z</time></trkpt><trkpt lat="-23.419162290182197" lon="113.94951921156823"><ele>13.0</ele><time>2026-04-17T08:58:37Z</time></trkpt><trkpt lat="-23.41888660878771" lon="113.94942074578282"><ele>13.0</ele><time>2026-04-17T08:58:38Z</time></trkpt><trkpt lat="-23.418607627496396" lon="113.94932767243812"><ele>12.5</ele><time>2026-04-17T08:58:39Z</time></trkpt><trkpt lat="-23.41832883573751" lon="113.94924458700325"><ele>12.0</ele><time>2026-04-17T08:58:40Z</time></trkpt><trkpt lat="-23.418046072478287" lon="113.94916925889771"><ele>11.5</ele><time>2026-04-17T08:58:41Z</time></trkpt><trkpt lat="-23.41775763091051" lon="113.94910921890147"><ele>11.0</ele><time>2026-04-17T08:58:42Z</time></trkpt><trkpt lat="-23.417468123037807" lon="113.94906084052249"><ele>11.0</ele><time>2026-04-17T08:58:43Z</time></trkpt><trkpt lat="-23.41717787426716" lon="113.94901525637972"><ele>11.0</ele><time>2026-04-17T08:58:44Z</time></trkpt><trkpt lat="-23.416885538506722" lon="113.94897743535"><ele>10.5</ele><time>2026-04-17T08:58:45Z</time></trkpt><trkpt lat="-23.416596894692443" lon="113.94894350606896"><ele>10.0</ele><time>2026-04-17T08:58:46Z</time></trkpt><trkpt lat="-23.41630134520812" lon="113.94891669693932"><ele>10.0</ele><time>2026-04-17T08:58:47Z</time></trkpt><trkpt lat="-23.41600636039232" lon="113.94889969259692"><ele>10.0</ele><time>2026-04-17T08:58:48Z</time></trkpt><trkpt lat="-23.415709832574745" lon="113.94889776001428"><ele>9.5</ele><time>2026-04-17T08:58:49Z</time></trkpt><trkpt lat="-23.41541597617767" lon="113.94890275714758"><ele>9.0</ele><time>2026-04-17T08:58:50Z</time></trkpt><trkpt lat="-23.415118040092448" lon="113.94890824879042"><ele>9.0</ele><time>2026-04-17T08:58:51Z</time></trkpt><trkpt lat="-23.414821555820843" lon="113.9489155420417"><ele>9.0</ele><time>2026-04-17T08:58:52Z</time></trkpt><trkpt lat="-23.41452488699704" lon="113.94891683309004"><ele>10.0</ele><time>2026-04-17T08:58:53Z</time></trkpt><trkpt lat="-23.41422522553417" lon="113.94891544326109"><ele>11.0</ele><time>2026-04-17T08:58:54Z</time></trkpt><trkpt lat="-23.413928738669682" lon="113.94891059985581"><ele>10.0</ele><time>2026-04-17T08:58:55Z</time></trkpt><trkpt lat="-23.413633564525785" lon="113.94890905913984"><ele>9.0</ele><time>2026-04-17T08:58:56Z</time></trkpt><trkpt lat="-23.41333497435479" lon="113.94890871312735"><ele>9.0</ele><time>2026-04-17T08:58:57Z</time></trkpt><trkpt lat="-23.413036267573613" lon="113.94890531235727"><ele>9.0</ele><time>2026-04-17T08:58:58Z</time></trkpt><trkpt lat="-23.412733608849898" lon="113.94890092072"><ele>9.0</ele><time>2026-04-17T08:58:59Z</time></trkpt><trkpt lat="-23.412433593705572" lon="113.94889884530666"><ele>9.0</ele><time>2026-04-17T08:59:00Z</time></trkpt><trkpt lat="-23.412131109188113" lon="113.94889782702391"><ele>9.5</ele><time>2026-04-17T08:59:01Z</time></trkpt><trkpt lat="-23.41183130300739" lon="113.94889523123288"><ele>10.0</ele><time>2026-04-17T08:59:02Z</time></trkpt><trkpt lat="-23.411529362861664" lon="113.94889224025121"><ele>10.0</ele><time>2026-04-17T08:59:03Z</time></trkpt><trkpt lat="-23.411231867973502" lon="113.94889539132748"><ele>10.0</ele><time>2026-04-17T08:59:04Z</time></trkpt><trkpt lat="-23.410928460143445" lon="113.94889684663646"><ele>10.0</ele><time>2026-04-17T08:59:05Z</time></trkpt><trkpt lat="-23.41062423668985" lon="113.94889730542798"><ele>10.0</ele><time>2026-04-17T08:59:06Z</time></trkpt><trkpt lat="-23.410318775325585" lon="113.94889879508578"><ele>10.0</ele><time>2026-04-17T08:59:07Z</time></trkpt><trkpt lat="-23.410008914357714" lon="113.94889971661797"><ele>10.0</ele><time>2026-04-17T08:59:08Z</time></trkpt><trkpt lat="-23.40969862813973" lon="113.94889767014557"><ele>10.0</ele><time>2026-04-17T08:59:09Z</time></trkpt><trkpt lat="-23.409390623131404" lon="113.94889799814841"><ele>10.0</ele><time>2026-04-17T08:59:10Z</time></trkpt><trkpt lat="-23.40908065606118" lon="113.94889843033252"><ele>9.5</ele><time>2026-04-17T08:59:11Z</time></trkpt><trkpt lat="-23.40876918952732" lon="113.9488996044081"><ele>9.0</ele><time>2026-04-17T08:59:12Z</time></trkpt><trkpt lat="-23.408460596412297" lon="113.94889975371055"><ele>9.0</ele><time>2026-04-17T08:59:13Z</time></trkpt><trkpt lat="-23.408148843951697" lon="113.94890049693385"><ele>9.0</ele><time>2026-04-17T08:59:14Z</time></trkpt><trkpt lat="-23.407842606484323" lon="113.94889909438191"><ele>9.0</ele><time>2026-04-17T08:59:15Z</time></trkpt><trkpt lat="-23.407532818402704" lon="113.94889810879306"><ele>9.0</ele><time>2026-04-17T08:59:16Z</time></trkpt><trkpt lat="-23.407224220142208" lon="113.94889649696644"><ele>8.5</ele><time>2026-04-17T08:59:17Z</time></trkpt><trkpt lat="-23.406913985309462" lon="113.94889145925814"><ele>8.0</ele><time>2026-04-17T08:59:18Z</time></trkpt><trkpt lat="-23.406599458540228" lon="113.94888810912431"><ele>8.5</ele><time>2026-04-17T08:59:19Z</time></trkpt><trkpt lat="-23.406290042729403" lon="113.94888736652956"><ele>9.0</ele><time>2026-04-17T08:59:20Z</time></trkpt><trkpt lat="-23.405977237353106" lon="113.94888920440981"><ele>9.0</ele><time>2026-04-17T08:59:21Z</time></trkpt><trkpt lat="-23.405669670877476" lon="113.94889079726423"><ele>9.0</ele><time>2026-04-17T08:59:22Z</time></trkpt><trkpt lat="-23.405360692803384" lon="113.94889133549621"><ele>9.5</ele><time>2026-04-17T08:59:23Z</time></trkpt><trkpt lat="-23.40505389164266" lon="113.94888934702726"><ele>10.0</ele><time>2026-04-17T08:59:24Z</time></trkpt><trkpt lat="-23.404749532419892" lon="113.94888649723967"><ele>11.0</ele><time>2026-04-17T08:59:25Z</time></trkpt><trkpt lat="-23.404453490472424" lon="113.94888451577651"><ele>12.0</ele><time>2026-04-17T08:59:26Z</time></trkpt><trkpt lat="-23.404156498317995" lon="113.94888763738723"><ele>12.0</ele><time>2026-04-17T08:59:27Z</time></trkpt><trkpt lat="-23.4038633798725" lon="113.94888932373728"><ele>12.0</ele><time>2026-04-17T08:59:28Z</time></trkpt><trkpt lat="-23.40357100873395" lon="113.94888810161466"><ele>11.5</ele><time>2026-04-17T08:59:29Z</time></trkpt><trkpt lat="-23.403281999983147" lon="113.94888339021902"><ele>11.0</ele><time>2026-04-17T08:59:30Z</time></trkpt><trkpt lat="-23.402995049019516" lon="113.9488794297896"><ele>10.5</ele><time>2026-04-17T08:59:31Z</time></trkpt><trkpt lat="-23.402709804492414" lon="113.94887255727807"><ele>10.0</ele><time>2026-04-17T08:59:32Z</time></trkpt><trkpt lat="-23.402425143499723" lon="113.94886580052892"><ele>11.0</ele><time>2026-04-17T08:59:33Z</time></trkpt><trkpt lat="-23.402149416212676" lon="113.94886095736403"><ele>12.0</ele><time>2026-04-17T08:59:34Z</time></trkpt><trkpt lat="-23.40159941542318" lon="113.94886538937328"><ele>11.5</ele><time>2026-04-17T08:59:36Z</time></trkpt><trkpt lat="-23.401325725308176" lon="113.94887115653323"><ele>11.0</ele><time>2026-04-17T08:59:37Z</time></trkpt><trkpt lat="-23.401054360140982" lon="113.94887682660986"><ele>11.0</ele><time>2026-04-17T08:59:38Z</time></trkpt><trkpt lat="-23.400780025022208" lon="113.9488802603826"><ele>11.0</ele><time>2026-04-17T08:59:39Z</time></trkpt><trkpt lat="-23.400509405309958" lon="113.94887543404313"><ele>10.5</ele><time>2026-04-17T08:59:40Z</time></trkpt><trkpt lat="-23.400236711317902" lon="113.94886852808497"><ele>10.0</ele><time>2026-04-17T08:59:41Z</time></trkpt><trkpt lat="-23.39996989856986" lon="113.94886661303029"><ele>10.0</ele><time>2026-04-17T08:59:42Z</time></trkpt><trkpt lat="-23.399699910474176" lon="113.94886703346941"><ele>10.0</ele><time>2026-04-17T08:59:43Z</time></trkpt><trkpt lat="-23.399433728185063" lon="113.94886605015844"><ele>10.5</ele><time>2026-04-17T08:59:44Z</time></trkpt><trkpt lat="-23.399165949144518" lon="113.94886619608684"><ele>11.0</ele><time>2026-04-17T08:59:45Z</time></trkpt><trkpt lat="-23.39889816572927" lon="113.94886576002821"><ele>10.5</ele><time>2026-04-17T08:59:46Z</time></trkpt><trkpt lat="-23.398628411074398" lon="113.94886345519629"><ele>10.0</ele><time>2026-04-17T08:59:47Z</time></trkpt><trkpt lat="-23.398348612127528" lon="113.94886051971135"><ele>10.0</ele><time>2026-04-17T08:59:48Z</time></trkpt><trkpt lat="-23.39806576602558" lon="113.94885840778473"><ele>10.0</ele><time>2026-04-17T08:59:49Z</time></trkpt><trkpt lat="-23.397781754500674" lon="113.94885832694139"><ele>11.0</ele><time>2026-04-17T08:59:50Z</time></trkpt><trkpt lat="-23.397499461208064" lon="113.94885896168401"><ele>12.0</ele><time>2026-04-17T08:59:51Z</time></trkpt><trkpt lat="-23.397218039600585" lon="113.94885978146804"><ele>13.0</ele><time>2026-04-17T08:59:52Z</time></trkpt><trkpt lat="-23.39693634599989" lon="113.94885890848111"><ele>14.0</ele><time>2026-04-17T08:59:53Z</time></trkpt><trkpt lat="-23.39665530466697" lon="113.94885821934449"><ele>14.0</ele><time>2026-04-17T08:59:54Z</time></trkpt><trkpt lat="-23.396373799517647" lon="113.94885766430714"><ele>14.0</ele><time>2026-04-17T08:59:55Z</time></trkpt><trkpt lat="-23.39609207733818" lon="113.94885458929289"><ele>12.5</ele><time>2026-04-17T08:59:56Z</time></trkpt><trkpt lat="-23.39580917925923" lon="113.94885270053668"><ele>11.0</ele><time>2026-04-17T08:59:57Z</time></trkpt><trkpt lat="-23.395526807450185" lon="113.94885283167996"><ele>10.0</ele><time>2026-04-17T08:59:58Z</time></trkpt><trkpt lat="-23.39524330036329" lon="113.94885313994595"><ele>9.0</ele><time>2026-04-17T08:59:59Z</time></trkpt><trkpt lat="-23.39495613029873" lon="113.94885560876345"><ele>10.5</ele><time>2026-04-17T09:00:00Z</time></trkpt><trkpt lat="-23.394669664077682" lon="113.94885545767671"><ele>12.0</ele><time>2026-04-17T09:00:01Z</time></trkpt><trkpt lat="-23.394381310846388" lon="113.94885413305663"><ele>12.0</ele><time>2026-04-17T09:00:02Z</time></trkpt><trkpt lat="-23.3940932356265" lon="113.94885059336042"><ele>12.0</ele><time>2026-04-17T09:00:03Z</time></trkpt><trkpt lat="-23.393806001920503" lon="113.94884744256841"><ele>12.5</ele><time>2026-04-17T09:00:04Z</time></trkpt><trkpt lat="-23.39351771698224" lon="113.94884558542405"><ele>13.0</ele><time>2026-04-17T09:00:05Z</time></trkpt><trkpt lat="-23.39322694119965" lon="113.9488448673375"><ele>11.5</ele><time>2026-04-17T09:00:06Z</time></trkpt><trkpt lat="-23.39293788713725" lon="113.94884373139413"><ele>10.0</ele><time>2026-04-17T09:00:07Z</time></trkpt><trkpt lat="-23.39265017566252" lon="113.94883938474912"><ele>10.0</ele><time>2026-04-17T09:00:08Z</time></trkpt><trkpt lat="-23.392360543051176" lon="113.94883290692934"><ele>10.0</ele><time>2026-04-17T09:00:09Z</time></trkpt><trkpt lat="-23.392072985223567" lon="113.94882258896223"><ele>10.0</ele><time>2026-04-17T09:00:10Z</time></trkpt><trkpt lat="-23.39178181435739" lon="113.94880175975855"><ele>10.0</ele><time>2026-04-17T09:00:11Z</time></trkpt><trkpt lat="-23.391492983419347" lon="113.94877212836514"><ele>11.0</ele><time>2026-04-17T09:00:12Z</time></trkpt><trkpt lat="-23.391205421638187" lon="113.94873634682473"><ele>12.0</ele><time>2026-04-17T09:00:13Z</time></trkpt><trkpt lat="-23.390924286247223" lon="113.948690406514"><ele>12.0</ele><time>2026-04-17T09:00:14Z</time></trkpt><trkpt lat="-23.390645191081433" lon="113.94863607344905"><ele>12.0</ele><time>2026-04-17T09:00:15Z</time></trkpt><trkpt lat="-23.390368371295306" lon="113.94857656692606"><ele>11.5</ele><time>2026-04-17T09:00:16Z</time></trkpt><trkpt lat="-23.390090789920105" lon="113.94851280741148"><ele>11.0</ele><time>2026-04-17T09:00:17Z</time></trkpt><trkpt lat="-23.389812858054942" lon="113.94845070761394"><ele>12.0</ele><time>2026-04-17T09:00:18Z</time></trkpt><trkpt lat="-23.389535392748815" lon="113.94838588595792"><ele>13.0</ele><time>2026-04-17T09:00:19Z</time></trkpt><trkpt lat="-23.389257504661742" lon="113.94831897156362"><ele>13.0</ele><time>2026-04-17T09:00:20Z</time></trkpt><trkpt lat="-23.388979295255886" lon="113.94825484566518"><ele>13.0</ele><time>2026-04-17T09:00:21Z</time></trkpt><trkpt lat="-23.388696627478858" lon="113.94818931542768"><ele>13.0</ele><time>2026-04-17T09:00:22Z</time></trkpt><trkpt lat="-23.38841440369899" lon="113.94812339084442"><ele>13.0</ele><time>2026-04-17T09:00:23Z</time></trkpt><trkpt lat="-23.388127600497796" lon="113.9480576499786"><ele>12.0</ele><time>2026-04-17T09:00:24Z</time></trkpt><trkpt lat="-23.387841236537245" lon="113.94798994087623"><ele>11.0</ele><time>2026-04-17T09:00:25Z</time></trkpt><trkpt lat="-23.38755187459913" lon="113.94792212156331"><ele>11.0</ele><time>2026-04-17T09:00:26Z</time></trkpt><trkpt lat="-23.387265003358078" lon="113.94785556373114"><ele>11.0</ele><time>2026-04-17T09:00:27Z</time></trkpt><trkpt lat="-23.386972603936645" lon="113.9477879327943"><ele>10.5</ele><time>2026-04-17T09:00:28Z</time></trkpt><trkpt lat="-23.386678007381917" lon="113.94771889947658"><ele>10.0</ele><time>2026-04-17T09:00:29Z</time></trkpt><trkpt lat="-23.386379895197148" lon="113.94764961569672"><ele>10.5</ele><time>2026-04-17T09:00:30Z</time></trkpt><trkpt lat="-23.386083046478635" lon="113.94757912190947"><ele>11.0</ele><time>2026-04-17T09:00:31Z</time></trkpt><trkpt lat="-23.385786932782626" lon="113.94751118685235"><ele>10.0</ele><time>2026-04-17T09:00:32Z</time></trkpt><trkpt lat="-23.385488988110513" lon="113.94744206579738"><ele>9.0</ele><time>2026-04-17T09:00:33Z</time></trkpt><trkpt lat="-23.385189619628008" lon="113.9473737444591"><ele>9.0</ele><time>2026-04-17T09:00:34Z</time></trkpt><trkpt lat="-23.384889533000095" lon="113.94730474075493"><ele>9.0</ele><time>2026-04-17T09:00:35Z</time></trkpt><trkpt lat="-23.38458903001097" lon="113.94723359984663"><ele>10.5</ele><time>2026-04-17T09:00:36Z</time></trkpt><trkpt lat="-23.384294903715368" lon="113.94716279865682"><ele>12.0</ele><time>2026-04-17T09:00:37Z</time></trkpt><trkpt lat="-23.384011167107346" lon="113.94709585207472"><ele>11.5</ele><time>2026-04-17T09:00:38Z</time></trkpt><trkpt lat="-23.383747313123603" lon="113.94703508128568"><ele>11.0</ele><time>2026-04-17T09:00:39Z</time></trkpt><trkpt lat="-23.383478392138745" lon="113.94697227855595"><ele>11.0</ele><time>2026-04-17T09:00:40Z</time></trkpt><trkpt lat="-23.383199412132278" lon="113.94690944168536"><ele>11.0</ele><time>2026-04-17T09:00:41Z</time></trkpt><trkpt lat="-23.382919167002573" lon="113.94684832345595"><ele>10.0</ele><time>2026-04-17T09:00:42Z</time></trkpt><trkpt lat="-23.38263444108981" lon="113.94678345482329"><ele>9.0</ele><time>2026-04-17T09:00:43Z</time></trkpt><trkpt lat="-23.3823471679904" lon="113.94671497732243"><ele>9.5</ele><time>2026-04-17T09:00:44Z</time></trkpt><trkpt lat="-23.382052432911593" lon="113.94664557449501"><ele>10.0</ele><time>2026-04-17T09:00:45Z</time></trkpt><trkpt lat="-23.3817508989751" lon="113.94657448923971"><ele>10.0</ele><time>2026-04-17T09:00:46Z</time></trkpt><trkpt lat="-23.38144389831921" lon="113.94650315209942"><ele>10.0</ele><time>2026-04-17T09:00:47Z</time></trkpt><trkpt lat="-23.381130755329387" lon="113.94643039340566"><ele>10.5</ele><time>2026-04-17T09:00:48Z</time></trkpt><trkpt lat="-23.380814271141425" lon="113.94635527674914"><ele>11.0</ele><time>2026-04-17T09:00:49Z</time></trkpt><trkpt lat="-23.38049759141351" lon="113.94627859826836"><ele>11.5</ele><time>2026-04-17T09:00:50Z</time></trkpt><trkpt lat="-23.38018028131383" lon="113.94620420070956"><ele>12.0</ele><time>2026-04-17T09:00:51Z</time></trkpt><trkpt lat="-23.379865570622382" lon="113.9461318854231"><ele>11.5</ele><time>2026-04-17T09:00:52Z</time></trkpt><trkpt lat="-23.379549535033327" lon="113.94605805919723"><ele>11.0</ele><time>2026-04-17T09:00:53Z</time></trkpt><trkpt lat="-23.37923379082148" lon="113.94598406442888"><ele>11.0</ele><time>2026-04-17T09:00:54Z</time></trkpt><trkpt lat="-23.378919629270708" lon="113.94591100604134"><ele>11.0</ele><time>2026-04-17T09:00:55Z</time></trkpt><trkpt lat="-23.37860474662199" lon="113.94583821277811"><ele>10.5</ele><time>2026-04-17T09:00:56Z</time></trkpt><trkpt lat="-23.378291900852663" lon="113.94576571529991"><ele>10.0</ele><time>2026-04-17T09:00:57Z</time></trkpt><trkpt lat="-23.3779785895614" lon="113.94569358241452"><ele>9.0</ele><time>2026-04-17T09:00:58Z</time></trkpt><trkpt lat="-23.377667387516315" lon="113.94561861807057"><ele>8.0</ele><time>2026-04-17T09:00:59Z</time></trkpt><trkpt lat="-23.377356634710477" lon="113.94554336425863"><ele>9.5</ele><time>2026-04-17T09:01:00Z</time></trkpt><trkpt lat="-23.37704822390912" lon="113.94546825306132"><ele>11.0</ele><time>2026-04-17T09:01:01Z</time></trkpt><trkpt lat="-23.37673609429636" lon="113.94539324113977"><ele>11.0</ele><time>2026-04-17T09:01:02Z</time></trkpt><trkpt lat="-23.376426042007093" lon="113.94532109805013"><ele>11.0</ele><time>2026-04-17T09:01:03Z</time></trkpt><trkpt lat="-23.37611288639134" lon="113.94524794083857"><ele>11.0</ele><time>2026-04-17T09:01:04Z</time></trkpt><trkpt lat="-23.37579784469146" lon="113.94517508502001"><ele>11.0</ele><time>2026-04-17T09:01:05Z</time></trkpt><trkpt lat="-23.37548431366877" lon="113.9451027077168"><ele>10.5</ele><time>2026-04-17T09:01:06Z</time></trkpt><trkpt lat="-23.37517079181022" lon="113.94502924269995"><ele>10.0</ele><time>2026-04-17T09:01:07Z</time></trkpt><trkpt lat="-23.37485658235697" lon="113.94495676699755"><ele>10.5</ele><time>2026-04-17T09:01:08Z</time></trkpt><trkpt lat="-23.37454746857681" lon="113.94488763677293"><ele>11.0</ele><time>2026-04-17T09:01:09Z</time></trkpt><trkpt lat="-23.374235903736444" lon="113.94481603972581"><ele>11.0</ele><time>2026-04-17T09:01:10Z</time></trkpt><trkpt lat="-23.373930616928305" lon="113.94474680531542"><ele>11.0</ele><time>2026-04-17T09:01:11Z</time></trkpt><trkpt lat="-23.373620662418425" lon="113.94467504116032"><ele>11.0</ele><time>2026-04-17T09:01:12Z</time></trkpt><trkpt lat="-23.373313497904807" lon="113.94460195891892"><ele>11.0</ele><time>2026-04-17T09:01:13Z</time></trkpt><trkpt lat="-23.37300580170005" lon="113.944530884925"><ele>11.0</ele><time>2026-04-17T09:01:14Z</time></trkpt><trkpt lat="-23.37269959596903" lon="113.94445570947346"><ele>11.0</ele><time>2026-04-17T09:01:15Z</time></trkpt><trkpt lat="-23.372393685608543" lon="113.9443793793825"><ele>10.5</ele><time>2026-04-17T09:01:16Z</time></trkpt><trkpt lat="-23.37208652661561" lon="113.94430455524035"><ele>10.0</ele><time>2026-04-17T09:01:17Z</time></trkpt><trkpt lat="-23.371780255763962" lon="113.94423370085944"><ele>10.0</ele><time>2026-04-17T09:01:18Z</time></trkpt><trkpt lat="-23.371474697175337" lon="113.94416440015902"><ele>10.0</ele><time>2026-04-17T09:01:19Z</time></trkpt><trkpt lat="-23.371165998656164" lon="113.94409488521774"><ele>10.0</ele><time>2026-04-17T09:01:20Z</time></trkpt><trkpt lat="-23.37085691821503" lon="113.9440230031586"><ele>10.0</ele><time>2026-04-17T09:01:21Z</time></trkpt><trkpt lat="-23.370545065054124" lon="113.94394851109763"><ele>10.0</ele><time>2026-04-17T09:01:22Z</time></trkpt><trkpt lat="-23.37023401699453" lon="113.94387367442758"><ele>10.0</ele><time>2026-04-17T09:01:23Z</time></trkpt><trkpt lat="-23.369922073214855" lon="113.94380288823197"><ele>10.5</ele><time>2026-04-17T09:01:24Z</time></trkpt><trkpt lat="-23.369609435525753" lon="113.94373275744141"><ele>11.0</ele><time>2026-04-17T09:01:25Z</time></trkpt><trkpt lat="-23.3692970209119" lon="113.94366370185537"><ele>11.0</ele><time>2026-04-17T09:01:26Z</time></trkpt><trkpt lat="-23.36898125285915" lon="113.94359289026748"><ele>11.0</ele><time>2026-04-17T09:01:27Z</time></trkpt><trkpt lat="-23.368667526207922" lon="113.94351815611391"><ele>11.5</ele><time>2026-04-17T09:01:28Z</time></trkpt><trkpt lat="-23.368355857177566" lon="113.94344267293164"><ele>12.0</ele><time>2026-04-17T09:01:29Z</time></trkpt><trkpt lat="-23.36804452517148" lon="113.94337016853578"><ele>11.0</ele><time>2026-04-17T09:01:30Z</time></trkpt><trkpt lat="-23.367732618288205" lon="113.94329350405782"><ele>10.0</ele><time>2026-04-17T09:01:31Z</time></trkpt><trkpt lat="-23.367419503993958" lon="113.94322014543137"><ele>10.0</ele><time>2026-04-17T09:01:32Z</time></trkpt><trkpt lat="-23.367106352464504" lon="113.94314917907818"><ele>10.0</ele><time>2026-04-17T09:01:33Z</time></trkpt><trkpt lat="-23.366797954421187" lon="113.94307919150643"><ele>10.0</ele><time>2026-04-17T09:01:34Z</time></trkpt><trkpt lat="-23.366489560523956" lon="113.94300976563508"><ele>10.0</ele><time>2026-04-17T09:01:35Z</time></trkpt><trkpt lat="-23.36618175982371" lon="113.94294075182319"><ele>10.0</ele><time>2026-04-17T09:01:36Z</time></trkpt><trkpt lat="-23.365873555762462" lon="113.9428707780168"><ele>10.0</ele><time>2026-04-17T09:01:37Z</time></trkpt><trkpt lat="-23.3655662127532" lon="113.94279846925691"><ele>9.5</ele><time>2026-04-17T09:01:38Z</time></trkpt><trkpt lat="-23.365258755105966" lon="113.94272469106348"><ele>9.0</ele><time>2026-04-17T09:01:39Z</time></trkpt><trkpt lat="-23.364953170729844" lon="113.94265272999961"><ele>9.0</ele><time>2026-04-17T09:01:40Z</time></trkpt><trkpt lat="-23.364647417697014" lon="113.94257890361949"><ele>9.0</ele><time>2026-04-17T09:01:41Z</time></trkpt><trkpt lat="-23.36434412717237" lon="113.94250620174842"><ele>8.5</ele><time>2026-04-17T09:01:42Z</time></trkpt><trkpt lat="-23.36403831266807" lon="113.94243239612085"><ele>8.0</ele><time>2026-04-17T09:01:43Z</time></trkpt><trkpt lat="-23.36373375611287" lon="113.94236016273258"><ele>9.5</ele><time>2026-04-17T09:01:44Z</time></trkpt><trkpt lat="-23.363428538927916" lon="113.94228733537868"><ele>11.0</ele><time>2026-04-17T09:01:45Z</time></trkpt><trkpt lat="-23.363124303553068" lon="113.94221267806665"><ele>10.5</ele><time>2026-04-17T09:01:46Z</time></trkpt><trkpt lat="-23.36281813457115" lon="113.94214064549426"><ele>10.0</ele><time>2026-04-17T09:01:47Z</time></trkpt><trkpt lat="-23.362513489676807" lon="113.94207207058086"><ele>10.0</ele><time>2026-04-17T09:01:48Z</time></trkpt><trkpt lat="-23.362211721759508" lon="113.94200499066343"><ele>10.0</ele><time>2026-04-17T09:01:49Z</time></trkpt><trkpt lat="-23.361907801343644" lon="113.94193648206111"><ele>10.0</ele><time>2026-04-17T09:01:50Z</time></trkpt><trkpt lat="-23.361602556206865" lon="113.94186609606751"><ele>10.0</ele><time>2026-04-17T09:01:51Z</time></trkpt><trkpt lat="-23.36129526180876" lon="113.94179143088348"><ele>10.0</ele><time>2026-04-17T09:01:52Z</time></trkpt><trkpt lat="-23.360988823247602" lon="113.94171698589174"><ele>10.0</ele><time>2026-04-17T09:01:53Z</time></trkpt><trkpt lat="-23.360683133779098" lon="113.94164480893934"><ele>9.5</ele><time>2026-04-17T09:01:54Z</time></trkpt><trkpt lat="-23.360376232588077" lon="113.94157436604333"><ele>9.0</ele><time>2026-04-17T09:01:55Z</time></trkpt><trkpt lat="-23.3600715145787" lon="113.94150610864128"><ele>9.0</ele><time>2026-04-17T09:01:56Z</time></trkpt><trkpt lat="-23.359767204076405" lon="113.94143816913487"><ele>9.0</ele><time>2026-04-17T09:01:57Z</time></trkpt><trkpt lat="-23.35946271997469" lon="113.94136735580103"><ele>9.0</ele><time>2026-04-17T09:01:58Z</time></trkpt><trkpt lat="-23.359155874289552" lon="113.94129510542669"><ele>9.0</ele><time>2026-04-17T09:01:59Z</time></trkpt><trkpt lat="-23.35884948378047" lon="113.94122251314492"><ele>8.5</ele><time>2026-04-17T09:02:00Z</time></trkpt><trkpt lat="-23.358543883322962" lon="113.94114778775267"><ele>8.0</ele><time>2026-04-17T09:02:01Z</time></trkpt><trkpt lat="-23.35823814963596" lon="113.94107404181761"><ele>8.5</ele><time>2026-04-17T09:02:02Z</time></trkpt><trkpt lat="-23.357932591694333" lon="113.94100376664396"><ele>9.0</ele><time>2026-04-17T09:02:03Z</time></trkpt><trkpt lat="-23.357625109885117" lon="113.94093236381168"><ele>9.0</ele><time>2026-04-17T09:02:04Z</time></trkpt><trkpt lat="-23.357314537144095" lon="113.94085791117355"><ele>9.0</ele><time>2026-04-17T09:02:05Z</time></trkpt><trkpt lat="-23.356999913319683" lon="113.94078318943319"><ele>9.0</ele><time>2026-04-17T09:02:06Z</time></trkpt><trkpt lat="-23.356689446505655" lon="113.94071108714321"><ele>9.0</ele><time>2026-04-17T09:02:07Z</time></trkpt><trkpt lat="-23.356376302761657" lon="113.94064295673408"><ele>8.5</ele><time>2026-04-17T09:02:08Z</time></trkpt><trkpt lat="-23.35606784042858" lon="113.94057167194555"><ele>8.0</ele><time>2026-04-17T09:02:09Z</time></trkpt><trkpt lat="-23.355758710216012" lon="113.94049743622877"><ele>8.5</ele><time>2026-04-17T09:02:10Z</time></trkpt><trkpt lat="-23.355449762978026" lon="113.94042405480866"><ele>9.0</ele><time>2026-04-17T09:02:11Z</time></trkpt><trkpt lat="-23.35514090433052" lon="113.94035122240474"><ele>9.0</ele><time>2026-04-17T09:02:12Z</time></trkpt><trkpt lat="-23.354832091027014" lon="113.94027968101733"><ele>9.0</ele><time>2026-04-17T09:02:13Z</time></trkpt><trkpt lat="-23.354526904023192" lon="113.9402054634584"><ele>9.5</ele><time>2026-04-17T09:02:14Z</time></trkpt><trkpt lat="-23.354220727846972" lon="113.9401330958418"><ele>10.0</ele><time>2026-04-17T09:02:15Z</time></trkpt><trkpt lat="-23.353913630786835" lon="113.94006089649045"><ele>10.5</ele><time>2026-04-17T09:02:16Z</time></trkpt><trkpt lat="-23.353603134719222" lon="113.93999380303303"><ele>11.0</ele><time>2026-04-17T09:02:17Z</time></trkpt><trkpt lat="-23.35329329053964" lon="113.93993180374214"><ele>9.5</ele><time>2026-04-17T09:02:18Z</time></trkpt><trkpt lat="-23.35298339608476" lon="113.93987995280035"><ele>8.0</ele><time>2026-04-17T09:02:19Z</time></trkpt><trkpt lat="-23.352675172605792" lon="113.93983403336831"><ele>8.0</ele><time>2026-04-17T09:02:20Z</time></trkpt><trkpt lat="-23.352363879558833" lon="113.93979633604003"><ele>8.0</ele><time>2026-04-17T09:02:21Z</time></trkpt><trkpt lat="-23.352055537573474" lon="113.9397599009774"><ele>8.5</ele><time>2026-04-17T09:02:22Z</time></trkpt><trkpt lat="-23.35174828162665" lon="113.93972155583158"><ele>9.0</ele><time>2026-04-17T09:02:23Z</time></trkpt><trkpt lat="-23.351442865431853" lon="113.9396799448081"><ele>9.0</ele><time>2026-04-17T09:02:24Z</time></trkpt><trkpt lat="-23.351135903944044" lon="113.9396400845332"><ele>9.0</ele><time>2026-04-17T09:02:25Z</time></trkpt><trkpt lat="-23.350827177890853" lon="113.9396001406763"><ele>8.5</ele><time>2026-04-17T09:02:26Z</time></trkpt><trkpt lat="-23.35052206021005" lon="113.93956075176955"><ele>8.0</ele><time>2026-04-17T09:02:27Z</time></trkpt><trkpt lat="-23.35021750621502" lon="113.93952214113814"><ele>8.0</ele><time>2026-04-17T09:02:28Z</time></trkpt><trkpt lat="-23.349911246260927" lon="113.93948142746257"><ele>8.0</ele><time>2026-04-17T09:02:29Z</time></trkpt><trkpt lat="-23.349604064609146" lon="113.93943888540775"><ele>9.0</ele><time>2026-04-17T09:02:30Z</time></trkpt><trkpt lat="-23.349298249767347" lon="113.93939981645468"><ele>10.0</ele><time>2026-04-17T09:02:31Z</time></trkpt><trkpt lat="-23.34899114226228" lon="113.93936289158113"><ele>10.0</ele><time>2026-04-17T09:02:32Z</time></trkpt><trkpt lat="-23.348682397395304" lon="113.93932381015107"><ele>10.0</ele><time>2026-04-17T09:02:33Z</time></trkpt><trkpt lat="-23.3483691377267" lon="113.93928332791386"><ele>10.0</ele><time>2026-04-17T09:02:34Z</time></trkpt><trkpt lat="-23.348056455324354" lon="113.93924251134476"><ele>10.0</ele><time>2026-04-17T09:02:35Z</time></trkpt><trkpt lat="-23.347742998902103" lon="113.9391988165836"><ele>10.0</ele><time>2026-04-17T09:02:36Z</time></trkpt><trkpt lat="-23.34742964934745" lon="113.93915793298484"><ele>10.0</ele><time>2026-04-17T09:02:37Z</time></trkpt><trkpt lat="-23.347116333214117" lon="113.93912121924144"><ele>10.0</ele><time>2026-04-17T09:02:38Z</time></trkpt><trkpt lat="-23.346802819230582" lon="113.9390843419839"><ele>10.0</ele><time>2026-04-17T09:02:39Z</time></trkpt><trkpt lat="-23.346491190292948" lon="113.93904623792336"><ele>10.0</ele><time>2026-04-17T09:02:40Z</time></trkpt><trkpt lat="-23.34617815793058" lon="113.93900482461665"><ele>10.0</ele><time>2026-04-17T09:02:41Z</time></trkpt><trkpt lat="-23.34586605113722" lon="113.9389633750073"><ele>10.0</ele><time>2026-04-17T09:02:42Z</time></trkpt><trkpt lat="-23.34555491500401" lon="113.9389245845484"><ele>10.0</ele><time>2026-04-17T09:02:43Z</time></trkpt><trkpt lat="-23.345243752514197" lon="113.93888768879218"><ele>9.5</ele><time>2026-04-17T09:02:44Z</time></trkpt><trkpt lat="-23.344935370074182" lon="113.93884836513033"><ele>9.0</ele><time>2026-04-17T09:02:45Z</time></trkpt><trkpt lat="-23.34462679423708" lon="113.93880450257359"><ele>8.5</ele><time>2026-04-17T09:02:46Z</time></trkpt><trkpt lat="-23.344316740030212" lon="113.93875866179147"><ele>8.0</ele><time>2026-04-17T09:02:47Z</time></trkpt><trkpt lat="-23.344007227339745" lon="113.93871355091179"><ele>8.0</ele><time>2026-04-17T09:02:48Z</time></trkpt><trkpt lat="-23.34369342839373" lon="113.93867087381527"><ele>8.0</ele><time>2026-04-17T09:02:49Z</time></trkpt><trkpt lat="-23.343382806483596" lon="113.93863118189346"><ele>8.0</ele><time>2026-04-17T09:02:50Z</time></trkpt><trkpt lat="-23.34307319458479" lon="113.93859378205087"><ele>8.0</ele><time>2026-04-17T09:02:51Z</time></trkpt><trkpt lat="-23.342762334415365" lon="113.93855578031253"><ele>8.5</ele><time>2026-04-17T09:02:52Z</time></trkpt><trkpt lat="-23.34244816963525" lon="113.93851840044971"><ele>9.0</ele><time>2026-04-17T09:02:53Z</time></trkpt><trkpt lat="-23.342135294631706" lon="113.93847798145671"><ele>10.0</ele><time>2026-04-17T09:02:54Z</time></trkpt><trkpt lat="-23.34182340606916" lon="113.938439637945"><ele>11.0</ele><time>2026-04-17T09:02:55Z</time></trkpt><trkpt lat="-23.341511926363424" lon="113.93839741624406"><ele>10.0</ele><time>2026-04-17T09:02:56Z</time></trkpt><trkpt lat="-23.341198491225256" lon="113.93835430160289"><ele>9.0</ele><time>2026-04-17T09:02:57Z</time></trkpt><trkpt lat="-23.340884224220545" lon="113.9383128887402"><ele>9.0</ele><time>2026-04-17T09:02:58Z</time></trkpt><trkpt lat="-23.340570409209835" lon="113.93827273607148"><ele>9.0</ele><time>2026-04-17T09:02:59Z</time></trkpt><trkpt lat="-23.34025922515047" lon="113.93823060433799"><ele>9.5</ele><time>2026-04-17T09:03:00Z</time></trkpt><trkpt lat="-23.339944910790656" lon="113.93818831385126"><ele>10.0</ele><time>2026-04-17T09:03:01Z</time></trkpt><trkpt lat="-23.339631420250875" lon="113.93814650452451"><ele>10.0</ele><time>2026-04-17T09:03:02Z</time></trkpt><trkpt lat="-23.339320666749202" lon="113.93811040057174"><ele>10.0</ele><time>2026-04-17T09:03:03Z</time></trkpt><trkpt lat="-23.339010289824298" lon="113.93807451380444"><ele>10.0</ele><time>2026-04-17T09:03:04Z</time></trkpt><trkpt lat="-23.33869959065972" lon="113.93803388172995"><ele>10.0</ele><time>2026-04-17T09:03:05Z</time></trkpt><trkpt lat="-23.33838839808926" lon="113.93799029244373"><ele>10.0</ele><time>2026-04-17T09:03:06Z</time></trkpt><trkpt lat="-23.338075296970075" lon="113.93794681711441"><ele>10.0</ele><time>2026-04-17T09:03:07Z</time></trkpt><trkpt lat="-23.337761865205113" lon="113.93790504551842"><ele>10.0</ele><time>2026-04-17T09:03:08Z</time></trkpt><trkpt lat="-23.337451305010617" lon="113.93786683949052"><ele>10.0</ele><time>2026-04-17T09:03:09Z</time></trkpt><trkpt lat="-23.33714177601793" lon="113.9378307524387"><ele>10.5</ele><time>2026-04-17T09:03:10Z</time></trkpt><trkpt lat="-23.336832175982618" lon="113.9377910988615"><ele>11.0</ele><time>2026-04-17T09:03:11Z</time></trkpt><trkpt lat="-23.336526076018178" lon="113.93774888648144"><ele>10.0</ele><time>2026-04-17T09:03:12Z</time></trkpt><trkpt lat="-23.336216909932762" lon="113.93770565981094"><ele>9.0</ele><time>2026-04-17T09:03:13Z</time></trkpt><trkpt lat="-23.335905033455038" lon="113.93766466113532"><ele>9.0</ele><time>2026-04-17T09:03:14Z</time></trkpt><trkpt lat="-23.335594734582784" lon="113.93762982878654"><ele>9.0</ele><time>2026-04-17T09:03:15Z</time></trkpt><trkpt lat="-23.335287655335758" lon="113.93759204950048"><ele>9.5</ele><time>2026-04-17T09:03:16Z</time></trkpt><trkpt lat="-23.334978345092672" lon="113.93754983575306"><ele>10.0</ele><time>2026-04-17T09:03:17Z</time></trkpt><trkpt lat="-23.33466719065378" lon="113.93750803500406"><ele>10.0</ele><time>2026-04-17T09:03:18Z</time></trkpt><trkpt lat="-23.334359488964292" lon="113.93747039708367"><ele>10.0</ele><time>2026-04-17T09:03:19Z</time></trkpt><trkpt lat="-23.334053037602537" lon="113.93742841461625"><ele>9.5</ele><time>2026-04-17T09:03:20Z</time></trkpt><trkpt lat="-23.333743668037066" lon="113.9373749504781"><ele>9.0</ele><time>2026-04-17T09:03:21Z</time></trkpt><trkpt lat="-23.333436745326193" lon="113.93731459803791"><ele>9.0</ele><time>2026-04-17T09:03:22Z</time></trkpt><trkpt lat="-23.333132069789286" lon="113.93724374035911"><ele>9.0</ele><time>2026-04-17T09:03:23Z</time></trkpt><trkpt lat="-23.33283072896177" lon="113.93716291404621"><ele>9.0</ele><time>2026-04-17T09:03:24Z</time></trkpt><trkpt lat="-23.332527798414844" lon="113.93707617542952"><ele>9.0</ele><time>2026-04-17T09:03:25Z</time></trkpt><trkpt lat="-23.332231663704135" lon="113.93698151511455"><ele>9.5</ele><time>2026-04-17T09:03:26Z</time></trkpt><trkpt lat="-23.331936997481357" lon="113.93687591113856"><ele>10.0</ele><time>2026-04-17T09:03:27Z</time></trkpt><trkpt lat="-23.331643749978824" lon="113.93676009311433"><ele>10.5</ele><time>2026-04-17T09:03:28Z</time></trkpt><trkpt lat="-23.33135034636116" lon="113.93663680751644"><ele>11.0</ele><time>2026-04-17T09:03:29Z</time></trkpt><trkpt lat="-23.33105779432529" lon="113.9365093738773"><ele>11.0</ele><time>2026-04-17T09:03:30Z</time></trkpt><trkpt lat="-23.330764860094817" lon="113.93638168946977"><ele>11.0</ele><time>2026-04-17T09:03:31Z</time></trkpt><trkpt lat="-23.330476598087767" lon="113.9362529575626"><ele>9.5</ele><time>2026-04-17T09:03:32Z</time></trkpt><trkpt lat="-23.330187221571695" lon="113.9361243285251"><ele>8.0</ele><time>2026-04-17T09:03:33Z</time></trkpt><trkpt lat="-23.32989739025367" lon="113.93599478947527"><ele>9.5</ele><time>2026-04-17T09:03:34Z</time></trkpt><trkpt lat="-23.3296066545095" lon="113.93586569346795"><ele>11.0</ele><time>2026-04-17T09:03:35Z</time></trkpt><trkpt lat="-23.32931392219023" lon="113.93573877064661"><ele>11.0</ele><time>2026-04-17T09:03:36Z</time></trkpt><trkpt lat="-23.32902124728077" lon="113.93561212535532"><ele>11.0</ele><time>2026-04-17T09:03:37Z</time></trkpt><trkpt lat="-23.328730126728004" lon="113.93548283830728"><ele>10.5</ele><time>2026-04-17T09:03:38Z</time></trkpt><trkpt lat="-23.328438957669587" lon="113.93535080308041"><ele>10.0</ele><time>2026-04-17T09:03:39Z</time></trkpt><trkpt lat="-23.328146713527506" lon="113.9352202179374"><ele>11.0</ele><time>2026-04-17T09:03:40Z</time></trkpt><trkpt lat="-23.327855981227394" lon="113.93509351945153"><ele>12.0</ele><time>2026-04-17T09:03:41Z</time></trkpt><trkpt lat="-23.32756399497717" lon="113.93496947642059"><ele>12.0</ele><time>2026-04-17T09:03:42Z</time></trkpt><trkpt lat="-23.327272783348214" lon="113.93484216875709"><ele>12.0</ele><time>2026-04-17T09:03:43Z</time></trkpt><trkpt lat="-23.326983756164015" lon="113.93471514410562"><ele>10.0</ele><time>2026-04-17T09:03:44Z</time></trkpt><trkpt lat="-23.32669385437452" lon="113.93458491560968"><ele>8.0</ele><time>2026-04-17T09:03:45Z</time></trkpt><trkpt lat="-23.32640269404509" lon="113.93445561995297"><ele>8.0</ele><time>2026-04-17T09:03:46Z</time></trkpt><trkpt lat="-23.326108058378775" lon="113.9343252862971"><ele>8.0</ele><time>2026-04-17T09:03:47Z</time></trkpt><trkpt lat="-23.32581362382767" lon="113.93419429732873"><ele>8.0</ele><time>2026-04-17T09:03:48Z</time></trkpt><trkpt lat="-23.32551654612259" lon="113.93406374969797"><ele>8.0</ele><time>2026-04-17T09:03:49Z</time></trkpt><trkpt lat="-23.325220199466965" lon="113.93393454893696"><ele>8.0</ele><time>2026-04-17T09:03:50Z</time></trkpt><trkpt lat="-23.324920655412082" lon="113.93380417851647"><ele>8.0</ele><time>2026-04-17T09:03:51Z</time></trkpt><trkpt lat="-23.32462583381267" lon="113.93367443055008"><ele>7.5</ele><time>2026-04-17T09:03:52Z</time></trkpt><trkpt lat="-23.32433276589909" lon="113.93354556409756"><ele>7.0</ele><time>2026-04-17T09:03:53Z</time></trkpt><trkpt lat="-23.32404026090532" lon="113.9334173488795"><ele>7.5</ele><time>2026-04-17T09:03:54Z</time></trkpt><trkpt lat="-23.323749549380263" lon="113.93328991661154"><ele>8.0</ele><time>2026-04-17T09:03:55Z</time></trkpt><trkpt lat="-23.323462284800996" lon="113.93316360321813"><ele>8.0</ele><time>2026-04-17T09:03:56Z</time></trkpt><trkpt lat="-23.323174072792288" lon="113.93303636165376"><ele>8.0</ele><time>2026-04-17T09:03:57Z</time></trkpt><trkpt lat="-23.322888665349247" lon="113.93290818552893"><ele>8.0</ele><time>2026-04-17T09:03:58Z</time></trkpt><trkpt lat="-23.322603860063868" lon="113.93277869908326"><ele>8.0</ele><time>2026-04-17T09:03:59Z</time></trkpt><trkpt lat="-23.32232085518371" lon="113.93265068721591"><ele>8.0</ele><time>2026-04-17T09:04:00Z</time></trkpt><trkpt lat="-23.3220388516678" lon="113.93252522773294"><ele>8.0</ele><time>2026-04-17T09:04:01Z</time></trkpt><trkpt lat="-23.321757988518236" lon="113.93240282400195"><ele>8.0</ele><time>2026-04-17T09:04:02Z</time></trkpt><trkpt lat="-23.321478663463783" lon="113.93228185766145"><ele>8.0</ele><time>2026-04-17T09:04:03Z</time></trkpt><trkpt lat="-23.321199188536905" lon="113.93216145717832"><ele>9.0</ele><time>2026-04-17T09:04:04Z</time></trkpt><trkpt lat="-23.320917523088372" lon="113.93203650953414"><ele>10.0</ele><time>2026-04-17T09:04:05Z</time></trkpt><trkpt lat="-23.320635905303046" lon="113.93190807344419"><ele>10.0</ele><time>2026-04-17T09:04:06Z</time></trkpt><trkpt lat="-23.320351964046957" lon="113.93177890352216"><ele>10.0</ele><time>2026-04-17T09:04:07Z</time></trkpt><trkpt lat="-23.320069410514993" lon="113.93165573307597"><ele>10.0</ele><time>2026-04-17T09:04:08Z</time></trkpt><trkpt lat="-23.31979032570742" lon="113.93153664462474"><ele>10.0</ele><time>2026-04-17T09:04:09Z</time></trkpt><trkpt lat="-23.319513080549964" lon="113.9314177321397"><ele>11.0</ele><time>2026-04-17T09:04:10Z</time></trkpt><trkpt lat="-23.31924092273278" lon="113.93129789266784"><ele>12.0</ele><time>2026-04-17T09:04:11Z</time></trkpt><trkpt lat="-23.318968706924284" lon="113.93117809325429"><ele>10.5</ele><time>2026-04-17T09:04:12Z</time></trkpt><trkpt lat="-23.31869713330244" lon="113.93105802007692"><ele>9.0</ele><time>2026-04-17T09:04:13Z</time></trkpt><trkpt lat="-23.31842667693431" lon="113.93093720745767"><ele>8.5</ele><time>2026-04-17T09:04:14Z</time></trkpt><trkpt lat="-23.31815872195345" lon="113.93082101900785"><ele>8.0</ele><time>2026-04-17T09:04:15Z</time></trkpt><trkpt lat="-23.31789262750022" lon="113.93070326129744"><ele>7.5</ele><time>2026-04-17T09:04:16Z</time></trkpt><trkpt lat="-23.31762418363404" lon="113.93058416269065"><ele>7.0</ele><time>2026-04-17T09:04:17Z</time></trkpt><trkpt lat="-23.3173547275652" lon="113.93046212382698"><ele>7.5</ele><time>2026-04-17T09:04:18Z</time></trkpt><trkpt lat="-23.317080223132812" lon="113.93033592890697"><ele>8.0</ele><time>2026-04-17T09:04:19Z</time></trkpt><trkpt lat="-23.316803789868356" lon="113.9302119011997"><ele>8.0</ele><time>2026-04-17T09:04:20Z</time></trkpt><trkpt lat="-23.316523828903975" lon="113.93009155499395"><ele>8.0</ele><time>2026-04-17T09:04:21Z</time></trkpt><trkpt lat="-23.316246756176024" lon="113.92997096490168"><ele>8.5</ele><time>2026-04-17T09:04:22Z</time></trkpt><trkpt lat="-23.315972904623763" lon="113.929848331336"><ele>9.0</ele><time>2026-04-17T09:04:23Z</time></trkpt><trkpt lat="-23.315704311341882" lon="113.9297289403921"><ele>9.0</ele><time>2026-04-17T09:04:24Z</time></trkpt><trkpt lat="-23.315434289623035" lon="113.929612547722"><ele>9.0</ele><time>2026-04-17T09:04:25Z</time></trkpt><trkpt lat="-23.315166593665765" lon="113.92949593447227"><ele>9.0</ele><time>2026-04-17T09:04:26Z</time></trkpt><trkpt lat="-23.314895313711276" lon="113.92937659275945"><ele>9.0</ele><time>2026-04-17T09:04:27Z</time></trkpt><trkpt lat="-23.314625919523785" lon="113.92925645524326"><ele>9.0</ele><time>2026-04-17T09:04:28Z</time></trkpt><trkpt lat="-23.314352029914815" lon="113.92913879833196"><ele>9.0</ele><time>2026-04-17T09:04:29Z</time></trkpt><trkpt lat="-23.314078407589715" lon="113.92902019104824"><ele>10.0</ele><time>2026-04-17T09:04:30Z</time></trkpt><trkpt lat="-23.313803091895256" lon="113.92889806657564"><ele>11.0</ele><time>2026-04-17T09:04:31Z</time></trkpt><trkpt lat="-23.313522459385876" lon="113.9287746000547"><ele>11.0</ele><time>2026-04-17T09:04:32Z</time></trkpt><trkpt lat="-23.31324356949485" lon="113.92865384388364"><ele>11.0</ele><time>2026-04-17T09:04:33Z</time></trkpt><trkpt lat="-23.312960541599143" lon="113.9285323036545"><ele>11.5</ele><time>2026-04-17T09:04:34Z</time></trkpt><trkpt lat="-23.31268118684463" lon="113.92841025126481"><ele>12.0</ele><time>2026-04-17T09:04:35Z</time></trkpt><trkpt lat="-23.312398871753803" lon="113.92828440856933"><ele>13.5</ele><time>2026-04-17T09:04:36Z</time></trkpt><trkpt lat="-23.312117373116315" lon="113.92815485439381"><ele>15.0</ele><time>2026-04-17T09:04:37Z</time></trkpt><trkpt lat="-23.31183589675579" lon="113.92802698005472"><ele>15.0</ele><time>2026-04-17T09:04:38Z</time></trkpt><trkpt lat="-23.311557539851623" lon="113.9279033590318"><ele>15.0</ele><time>2026-04-17T09:04:39Z</time></trkpt><trkpt lat="-23.31127828464878" lon="113.92777563998311"><ele>14.0</ele><time>2026-04-17T09:04:40Z</time></trkpt><trkpt lat="-23.311003880217896" lon="113.92764356325506"><ele>13.0</ele><time>2026-04-17T09:04:41Z</time></trkpt><trkpt lat="-23.31073649899234" lon="113.92750549231158"><ele>13.5</ele><time>2026-04-17T09:04:42Z</time></trkpt><trkpt lat="-23.31047716442526" lon="113.92736299130827"><ele>14.0</ele><time>2026-04-17T09:04:43Z</time></trkpt><trkpt lat="-23.310224012713654" lon="113.92720885747539"><ele>14.0</ele><time>2026-04-17T09:04:44Z</time></trkpt><trkpt lat="-23.30997573736053" lon="113.92704926466041"><ele>14.0</ele><time>2026-04-17T09:04:45Z</time></trkpt><trkpt lat="-23.30973091557411" lon="113.9268880189882"><ele>13.0</ele><time>2026-04-17T09:04:46Z</time></trkpt><trkpt lat="-23.309488222532813" lon="113.92672165241513"><ele>12.0</ele><time>2026-04-17T09:04:47Z</time></trkpt><trkpt lat="-23.309245822755763" lon="113.92654618622255"><ele>12.0</ele><time>2026-04-17T09:04:48Z</time></trkpt><trkpt lat="-23.30900651349879" lon="113.92636388178312"><ele>12.0</ele><time>2026-04-17T09:04:49Z</time></trkpt><trkpt lat="-23.30877841345316" lon="113.92616997911635"><ele>11.0</ele><time>2026-04-17T09:04:50Z</time></trkpt><trkpt lat="-23.30855057340336" lon="113.92597132278729"><ele>10.0</ele><time>2026-04-17T09:04:51Z</time></trkpt><trkpt lat="-23.308322629629064" lon="113.92576721211975"><ele>9.5</ele><time>2026-04-17T09:04:52Z</time></trkpt><trkpt lat="-23.308099367725355" lon="113.92556041277878"><ele>9.0</ele><time>2026-04-17T09:04:53Z</time></trkpt><trkpt lat="-23.30787228810328" lon="113.92535160199846"><ele>10.0</ele><time>2026-04-17T09:04:54Z</time></trkpt><trkpt lat="-23.307646604922176" lon="113.92514349254958"><ele>11.0</ele><time>2026-04-17T09:04:55Z</time></trkpt><trkpt lat="-23.30741692388285" lon="113.92493456050684"><ele>11.5</ele><time>2026-04-17T09:04:56Z</time></trkpt><trkpt lat="-23.307190828455123" lon="113.92472777605889"><ele>12.0</ele><time>2026-04-17T09:04:57Z</time></trkpt><trkpt lat="-23.3069612058442" lon="113.92452461112042"><ele>12.0</ele><time>2026-04-17T09:04:58Z</time></trkpt><trkpt lat="-23.306733900817378" lon="113.92432669996607"><ele>12.0</ele><time>2026-04-17T09:04:59Z</time></trkpt><trkpt lat="-23.30650784311195" lon="113.92412841193735"><ele>10.0</ele><time>2026-04-17T09:05:00Z</time></trkpt><trkpt lat="-23.30628577444485" lon="113.92392633029121"><ele>8.0</ele><time>2026-04-17T09:05:01Z</time></trkpt><trkpt lat="-23.306064933390882" lon="113.9237187027972"><ele>8.0</ele><time>2026-04-17T09:05:02Z</time></trkpt><trkpt lat="-23.305845902117554" lon="113.9235150346971"><ele>8.0</ele><time>2026-04-17T09:05:03Z</time></trkpt><trkpt lat="-23.305626221680548" lon="113.9233163272565"><ele>9.0</ele><time>2026-04-17T09:05:04Z</time></trkpt><trkpt lat="-23.305405355296127" lon="113.92311632433989"><ele>10.0</ele><time>2026-04-17T09:05:05Z</time></trkpt><trkpt lat="-23.30518515531712" lon="113.9229135626514"><ele>10.0</ele><time>2026-04-17T09:05:06Z</time></trkpt><trkpt lat="-23.304967406907515" lon="113.92271110465498"><ele>10.0</ele><time>2026-04-17T09:05:07Z</time></trkpt><trkpt lat="-23.30474869975162" lon="113.92250555181285"><ele>10.0</ele><time>2026-04-17T09:05:08Z</time></trkpt><trkpt lat="-23.30453035822177" lon="113.92230314927903"><ele>10.0</ele><time>2026-04-17T09:05:09Z</time></trkpt><trkpt lat="-23.304310002796253" lon="113.92210325756659"><ele>10.0</ele><time>2026-04-17T09:05:10Z</time></trkpt><trkpt lat="-23.304087804404553" lon="113.92190350188085"><ele>10.0</ele><time>2026-04-17T09:05:11Z</time></trkpt><trkpt lat="-23.303865147444633" lon="113.92170216231656"><ele>9.5</ele><time>2026-04-17T09:05:12Z</time></trkpt><trkpt lat="-23.303641280866348" lon="113.92150365257457"><ele>9.0</ele><time>2026-04-17T09:05:13Z</time></trkpt><trkpt lat="-23.303427973304476" lon="113.92131120553218"><ele>9.0</ele><time>2026-04-17T09:05:14Z</time></trkpt><trkpt lat="-23.303232109650477" lon="113.92113246094698"><ele>9.0</ele><time>2026-04-17T09:05:15Z</time></trkpt><trkpt lat="-23.303041668549547" lon="113.92096094609195"><ele>9.0</ele><time>2026-04-17T09:05:16Z</time></trkpt><trkpt lat="-23.302845151344233" lon="113.92078559136984"><ele>9.0</ele><time>2026-04-17T09:05:17Z</time></trkpt><trkpt lat="-23.302643956032252" lon="113.92060584111763"><ele>9.0</ele><time>2026-04-17T09:05:18Z</time></trkpt><trkpt lat="-23.302439409681813" lon="113.92041809997198"><ele>9.0</ele><time>2026-04-17T09:05:19Z</time></trkpt><trkpt lat="-23.302233804976417" lon="113.92022768387285"><ele>10.0</ele><time>2026-04-17T09:05:20Z</time></trkpt><trkpt lat="-23.302026961543636" lon="113.92003642986661"><ele>11.0</ele><time>2026-04-17T09:05:21Z</time></trkpt><trkpt lat="-23.301813766817926" lon="113.91984103697777"><ele>11.0</ele><time>2026-04-17T09:05:22Z</time></trkpt><trkpt lat="-23.30160260571312" lon="113.91964846670017"><ele>11.0</ele><time>2026-04-17T09:05:23Z</time></trkpt><trkpt lat="-23.30138723804393" lon="113.91945360489184"><ele>10.5</ele><time>2026-04-17T09:05:24Z</time></trkpt><trkpt lat="-23.301172859444797" lon="113.91926081370711"><ele>10.0</ele><time>2026-04-17T09:05:25Z</time></trkpt><trkpt lat="-23.30095740867768" lon="113.91906785250559"><ele>10.0</ele><time>2026-04-17T09:05:26Z</time></trkpt><trkpt lat="-23.300743679122043" lon="113.91887573341862"><ele>10.0</ele><time>2026-04-17T09:05:27Z</time></trkpt><trkpt lat="-23.300529961445534" lon="113.91868072169417"><ele>10.0</ele><time>2026-04-17T09:05:28Z</time></trkpt><trkpt lat="-23.30031740459671" lon="113.91848454980197"><ele>10.0</ele><time>2026-04-17T09:05:29Z</time></trkpt><trkpt lat="-23.300103371825458" lon="113.91828930430681"><ele>10.0</ele><time>2026-04-17T09:05:30Z</time></trkpt><trkpt lat="-23.299887969172932" lon="113.91809260394206"><ele>10.0</ele><time>2026-04-17T09:05:31Z</time></trkpt><trkpt lat="-23.299672046277895" lon="113.91789504346907"><ele>10.0</ele><time>2026-04-17T09:05:32Z</time></trkpt><trkpt lat="-23.29945416390127" lon="113.91769598717823"><ele>10.0</ele><time>2026-04-17T09:05:33Z</time></trkpt><trkpt lat="-23.299232873168048" lon="113.91749336843145"><ele>10.0</ele><time>2026-04-17T09:05:33.999Z</time></trkpt><trkpt lat="-23.299010061118757" lon="113.91728773896246"><ele>10.0</ele><time>2026-04-17T09:05:34.999Z</time></trkpt><trkpt lat="-23.29878169246902" lon="113.91708057549413"><ele>10.0</ele><time>2026-04-17T09:05:35.999Z</time></trkpt><trkpt lat="-23.298557024807813" lon="113.91687745268754"><ele>10.0</ele><time>2026-04-17T09:05:36.999Z</time></trkpt><trkpt lat="-23.298331893098396" lon="113.91667379063946"><ele>10.0</ele><time>2026-04-17T09:05:37.999Z</time></trkpt><trkpt lat="-23.298109085270237" lon="113.91646886804237"><ele>10.0</ele><time>2026-04-17T09:05:38.999Z</time></trkpt><trkpt lat="-23.29788534849323" lon="113.91626375863618"><ele>10.0</ele><time>2026-04-17T09:05:39.999Z</time></trkpt><trkpt lat="-23.297663031896192" lon="113.91605777036474"><ele>10.0</ele><time>2026-04-17T09:05:40.999Z</time></trkpt><trkpt lat="-23.297440012309856" lon="113.91585304794653"><ele>10.5</ele><time>2026-04-17T09:05:41.999Z</time></trkpt><trkpt lat="-23.29721391436231" lon="113.91564970410083"><ele>11.0</ele><time>2026-04-17T09:05:42.999Z</time></trkpt><trkpt lat="-23.296987779785415" lon="113.91545018929042"><ele>11.0</ele><time>2026-04-17T09:05:43.999Z</time></trkpt><trkpt lat="-23.296763922706198" lon="113.91524805446502"><ele>11.0</ele><time>2026-04-17T09:05:44.999Z</time></trkpt><trkpt lat="-23.296539288796094" lon="113.91504715809577"><ele>10.5</ele><time>2026-04-17T09:05:45.999Z</time></trkpt><trkpt lat="-23.29631799658802" lon="113.91484917127461"><ele>10.0</ele><time>2026-04-17T09:05:46.999Z</time></trkpt><trkpt lat="-23.296099327437563" lon="113.91464883703634"><ele>10.0</ele><time>2026-04-17T09:05:47.999Z</time></trkpt><trkpt lat="-23.295882185473243" lon="113.91445082425557"><ele>10.0</ele><time>2026-04-17T09:05:48.999Z</time></trkpt><trkpt lat="-23.29566847666302" lon="113.91426112678143"><ele>10.5</ele><time>2026-04-17T09:05:49.999Z</time></trkpt><trkpt lat="-23.29545499559573" lon="113.91406774770579"><ele>11.0</ele><time>2026-04-17T09:05:50.999Z</time></trkpt><trkpt lat="-23.295244773316245" lon="113.91387562289574"><ele>11.0</ele><time>2026-04-17T09:05:51.999Z</time></trkpt><trkpt lat="-23.29503787433203" lon="113.91368422238511"><ele>11.0</ele><time>2026-04-17T09:05:52.999Z</time></trkpt><trkpt lat="-23.29483220438153" lon="113.91349482728545"><ele>9.5</ele><time>2026-04-17T09:05:53.999Z</time></trkpt><trkpt lat="-23.294627532592727" lon="113.91330644816944"><ele>8.0</ele><time>2026-04-17T09:05:54.999Z</time></trkpt><trkpt lat="-23.29442567748011" lon="113.91311854435108"><ele>8.0</ele><time>2026-04-17T09:05:55.999Z</time></trkpt><trkpt lat="-23.294225289770548" lon="113.91293535772759"><ele>8.0</ele><time>2026-04-17T09:05:56.999Z</time></trkpt><trkpt lat="-23.29402350004274" lon="113.9127547293876"><ele>8.0</ele><time>2026-04-17T09:05:57.999Z</time></trkpt><trkpt lat="-23.29382407960788" lon="113.91257364117823"><ele>8.0</ele><time>2026-04-17T09:05:58.999Z</time></trkpt><trkpt lat="-23.29362228725477" lon="113.91239027847097"><ele>8.5</ele><time>2026-04-17T09:05:59.999Z</time></trkpt><trkpt lat="-23.29341692776147" lon="113.91220135832785"><ele>9.0</ele><time>2026-04-17T09:06:00.999Z</time></trkpt><trkpt lat="-23.29321291178791" lon="113.91201299025225"><ele>9.0</ele><time>2026-04-17T09:06:01.999Z</time></trkpt><trkpt lat="-23.293005894252136" lon="113.91182414599453"><ele>9.0</ele><time>2026-04-17T09:06:02.999Z</time></trkpt><trkpt lat="-23.292802374064294" lon="113.91163709513906"><ele>8.5</ele><time>2026-04-17T09:06:03.999Z</time></trkpt><trkpt lat="-23.292599900820562" lon="113.91144997481106"><ele>8.0</ele><time>2026-04-17T09:06:04.999Z</time></trkpt><trkpt lat="-23.292395272500983" lon="113.91126367245876"><ele>8.5</ele><time>2026-04-17T09:06:05.999Z</time></trkpt><trkpt lat="-23.29219066807002" lon="113.91108278016613"><ele>9.0</ele><time>2026-04-17T09:06:06.999Z</time></trkpt><trkpt lat="-23.291986739224413" lon="113.91090771633314"><ele>9.0</ele><time>2026-04-17T09:06:07.999Z</time></trkpt><trkpt lat="-23.29178170541027" lon="113.91072999514859"><ele>9.0</ele><time>2026-04-17T09:06:08.999Z</time></trkpt><trkpt lat="-23.29158105716949" lon="113.91055069959064"><ele>10.0</ele><time>2026-04-17T09:06:09.999Z</time></trkpt><trkpt lat="-23.29138429945375" lon="113.91036657311743"><ele>11.0</ele><time>2026-04-17T09:06:10.999Z</time></trkpt><trkpt lat="-23.29118795673243" lon="113.91018343472267"><ele>11.0</ele><time>2026-04-17T09:06:11.999Z</time></trkpt><trkpt lat="-23.29099163437693" lon="113.90999823362412"><ele>11.0</ele><time>2026-04-17T09:06:12.999Z</time></trkpt><trkpt lat="-23.290798349731887" lon="113.90981651655842"><ele>11.0</ele><time>2026-04-17T09:06:13.999Z</time></trkpt><trkpt lat="-23.290607792320664" lon="113.90963519804777"><ele>11.0</ele><time>2026-04-17T09:06:14.999Z</time></trkpt><trkpt lat="-23.290415836231407" lon="113.90945492779258"><ele>10.5</ele><time>2026-04-17T09:06:16Z</time></trkpt><trkpt lat="-23.290225191747886" lon="113.90927361335146"><ele>10.0</ele><time>2026-04-17T09:06:17Z</time></trkpt><trkpt lat="-23.29003306925096" lon="113.90909357119237"><ele>9.0</ele><time>2026-04-17T09:06:18Z</time></trkpt><trkpt lat="-23.289839351081863" lon="113.90892318570769"><ele>8.0</ele><time>2026-04-17T09:06:19Z</time></trkpt><trkpt lat="-23.28964409143747" lon="113.90875422145973"><ele>7.0</ele><time>2026-04-17T09:06:20Z</time></trkpt><trkpt lat="-23.28945032996936" lon="113.9085856835427"><ele>6.0</ele><time>2026-04-17T09:06:21Z</time></trkpt><trkpt lat="-23.289258398858227" lon="113.90841478301051"><ele>6.5</ele><time>2026-04-17T09:06:22Z</time></trkpt><trkpt lat="-23.289067831601947" lon="113.90824257177104"><ele>7.0</ele><time>2026-04-17T09:06:23Z</time></trkpt><trkpt lat="-23.288876982303027" lon="113.90806992549209"><ele>7.0</ele><time>2026-04-17T09:06:24Z</time></trkpt><trkpt lat="-23.28868865636074" lon="113.90789732766123"><ele>7.0</ele><time>2026-04-17T09:06:25Z</time></trkpt><trkpt lat="-23.2885051195421" lon="113.90772090129171"><ele>8.0</ele><time>2026-04-17T09:06:26Z</time></trkpt><trkpt lat="-23.28831897408149" lon="113.90753960392252"><ele>9.0</ele><time>2026-04-17T09:06:27Z</time></trkpt><trkpt lat="-23.288132185858867" lon="113.90735442398736"><ele>8.0</ele><time>2026-04-17T09:06:28Z</time></trkpt><trkpt lat="-23.287952991740717" lon="113.90716475003084"><ele>7.0</ele><time>2026-04-17T09:06:29Z</time></trkpt><trkpt lat="-23.28777529333254" lon="113.90697013764567"><ele>7.0</ele><time>2026-04-17T09:06:30Z</time></trkpt><trkpt lat="-23.287601325290037" lon="113.90677315553852"><ele>7.0</ele><time>2026-04-17T09:06:31Z</time></trkpt><trkpt lat="-23.287430320325807" lon="113.90657360151161"><ele>7.5</ele><time>2026-04-17T09:06:32Z</time></trkpt><trkpt lat="-23.28726755287828" lon="113.90636628042256"><ele>8.0</ele><time>2026-04-17T09:06:33Z</time></trkpt><trkpt lat="-23.287111396024137" lon="113.90615340769311"><ele>8.5</ele><time>2026-04-17T09:06:34Z</time></trkpt><trkpt lat="-23.28696134625589" lon="113.90593843859311"><ele>9.0</ele><time>2026-04-17T09:06:35Z</time></trkpt><trkpt lat="-23.28681074078984" lon="113.90571953392404"><ele>8.0</ele><time>2026-04-17T09:06:36Z</time></trkpt><trkpt lat="-23.286655743663616" lon="113.90549010073222"><ele>7.0</ele><time>2026-04-17T09:06:37Z</time></trkpt><trkpt lat="-23.286504772414023" lon="113.90525748160834"><ele>6.5</ele><time>2026-04-17T09:06:38Z</time></trkpt><trkpt lat="-23.286354626368325" lon="113.90502253115302"><ele>6.0</ele><time>2026-04-17T09:06:39Z</time></trkpt><trkpt lat="-23.286208721503343" lon="113.90478563117945"><ele>6.0</ele><time>2026-04-17T09:06:40Z</time></trkpt><trkpt lat="-23.286073578756408" lon="113.90454544432359"><ele>6.0</ele><time>2026-04-17T09:06:41Z</time></trkpt><trkpt lat="-23.285949180614374" lon="113.90430026233183"><ele>7.0</ele><time>2026-04-17T09:06:42Z</time></trkpt><trkpt lat="-23.28582713566597" lon="113.9040528662476"><ele>8.0</ele><time>2026-04-17T09:06:43Z</time></trkpt><trkpt lat="-23.285705845274187" lon="113.90381351972576"><ele>8.0</ele><time>2026-04-17T09:06:44Z</time></trkpt><trkpt lat="-23.28558730019627" lon="113.90357048629726"><ele>8.0</ele><time>2026-04-17T09:06:45Z</time></trkpt><trkpt lat="-23.285474641669826" lon="113.90332795199595"><ele>7.5</ele><time>2026-04-17T09:06:46Z</time></trkpt><trkpt lat="-23.2853589186702" lon="113.90308852108343"><ele>7.0</ele><time>2026-04-17T09:06:47Z</time></trkpt><trkpt lat="-23.285238997070223" lon="113.90285428586112"><ele>7.0</ele><time>2026-04-17T09:06:48Z</time></trkpt><trkpt lat="-23.28512455471237" lon="113.90262269786122"><ele>7.0</ele><time>2026-04-17T09:06:49Z</time></trkpt><trkpt lat="-23.285013011323752" lon="113.90238414356571"><ele>7.5</ele><time>2026-04-17T09:06:50Z</time></trkpt><trkpt lat="-23.284897893864404" lon="113.90214730662161"><ele>8.0</ele><time>2026-04-17T09:06:51Z</time></trkpt><trkpt lat="-23.28478190614902" lon="113.90191609465028"><ele>8.5</ele><time>2026-04-17T09:06:52Z</time></trkpt><trkpt lat="-23.28466757121922" lon="113.90168408608424"><ele>9.0</ele><time>2026-04-17T09:06:53Z</time></trkpt><trkpt lat="-23.28455437906052" lon="113.90145612180318"><ele>9.0</ele><time>2026-04-17T09:06:54Z</time></trkpt><trkpt lat="-23.28443952678953" lon="113.9012254239137"><ele>9.0</ele><time>2026-04-17T09:06:55Z</time></trkpt><trkpt lat="-23.284326685766956" lon="113.90099727085023"><ele>7.5</ele><time>2026-04-17T09:06:56Z</time></trkpt><trkpt lat="-23.284213121388802" lon="113.90076794335344"><ele>6.0</ele><time>2026-04-17T09:06:57Z</time></trkpt><trkpt lat="-23.284101067320083" lon="113.90054225346526"><ele>6.0</ele><time>2026-04-17T09:06:58Z</time></trkpt><trkpt lat="-23.283989287141377" lon="113.90031040780559"><ele>6.0</ele><time>2026-04-17T09:06:59Z</time></trkpt><trkpt lat="-23.283876491003817" lon="113.90008027085719"><ele>8.0</ele><time>2026-04-17T09:06:59.999Z</time></trkpt><trkpt lat="-23.283762361677763" lon="113.89984865907006"><ele>10.0</ele><time>2026-04-17T09:07:00.999Z</time></trkpt><trkpt lat="-23.283645286769328" lon="113.89961122421163"><ele>10.0</ele><time>2026-04-17T09:07:01.999Z</time></trkpt><trkpt lat="-23.283522875801207" lon="113.89936850868119"><ele>10.0</ele><time>2026-04-17T09:07:02.999Z</time></trkpt><trkpt lat="-23.28340161439174" lon="113.89912384853422"><ele>7.0</ele><time>2026-04-17T09:07:03.999Z</time></trkpt><trkpt lat="-23.283279350861463" lon="113.89886890108946"><ele>4.0</ele><time>2026-04-17T09:07:04.999Z</time></trkpt><trkpt lat="-23.283157814145614" lon="113.89861464288026"><ele>6.5</ele><time>2026-04-17T09:07:05.999Z</time></trkpt><trkpt lat="-23.283032748281766" lon="113.89835887421994"><ele>9.0</ele><time>2026-04-17T09:07:06.999Z</time></trkpt><trkpt lat="-23.282905943627895" lon="113.89810197613846"><ele>9.0</ele><time>2026-04-17T09:07:07.999Z</time></trkpt><trkpt lat="-23.282779100183223" lon="113.89784572786387"><ele>9.0</ele><time>2026-04-17T09:07:08.999Z</time></trkpt><trkpt lat="-23.282652270936815" lon="113.89758853982798"><ele>9.0</ele><time>2026-04-17T09:07:09.999Z</time></trkpt><trkpt lat="-23.282529933814295" lon="113.89733324932487"><ele>9.0</ele><time>2026-04-17T09:07:10.999Z</time></trkpt><trkpt lat="-23.282411111152147" lon="113.89707558184747"><ele>9.0</ele><time>2026-04-17T09:07:11.999Z</time></trkpt><trkpt lat="-23.28228995906842" lon="113.89682314596985"><ele>9.0</ele><time>2026-04-17T09:07:12.999Z</time></trkpt><trkpt lat="-23.282164177462707" lon="113.89657524912752"><ele>9.0</ele><time>2026-04-17T09:07:13.999Z</time></trkpt><trkpt lat="-23.282038849896676" lon="113.89632985933758"><ele>9.0</ele><time>2026-04-17T09:07:14.999Z</time></trkpt><trkpt lat="-23.281914406272364" lon="113.89608238156936"><ele>10.0</ele><time>2026-04-17T09:07:15.999Z</time></trkpt><trkpt lat="-23.281793194127022" lon="113.89583121179695"><ele>11.0</ele><time>2026-04-17T09:07:16.999Z</time></trkpt><trkpt lat="-23.281672831650507" lon="113.89558523429928"><ele>11.0</ele><time>2026-04-17T09:07:17.999Z</time></trkpt><trkpt lat="-23.281552244605198" lon="113.89533813689508"><ele>11.0</ele><time>2026-04-17T09:07:18.999Z</time></trkpt><trkpt lat="-23.281431932209195" lon="113.89509580812071"><ele>11.5</ele><time>2026-04-17T09:07:19.999Z</time></trkpt><trkpt lat="-23.28131453927618" lon="113.89485612756411"><ele>12.0</ele><time>2026-04-17T09:07:20.999Z</time></trkpt><trkpt lat="-23.281197051216026" lon="113.89460910055712"><ele>12.0</ele><time>2026-04-17T09:07:21.999Z</time></trkpt><trkpt lat="-23.28107637988378" lon="113.89436597204082"><ele>12.0</ele><time>2026-04-17T09:07:22.999Z</time></trkpt><trkpt lat="-23.280953707301645" lon="113.8941197226054"><ele>10.5</ele><time>2026-04-17T09:07:23.999Z</time></trkpt><trkpt lat="-23.280831943451993" lon="113.89387670086087"><ele>9.0</ele><time>2026-04-17T09:07:24.999Z</time></trkpt><trkpt lat="-23.280710785368118" lon="113.89363200136425"><ele>9.0</ele><time>2026-04-17T09:07:25.999Z</time></trkpt><trkpt lat="-23.280588729371296" lon="113.89338393794893"><ele>9.0</ele><time>2026-04-17T09:07:26.999Z</time></trkpt><trkpt lat="-23.280462845744665" lon="113.89312815344728"><ele>9.0</ele><time>2026-04-17T09:07:27.999Z</time></trkpt><trkpt lat="-23.280337527724136" lon="113.89287253351061"><ele>9.0</ele><time>2026-04-17T09:07:28.999Z</time></trkpt><trkpt lat="-23.2802071467891" lon="113.89260959473957"><ele>8.5</ele><time>2026-04-17T09:07:29.999Z</time></trkpt><trkpt lat="-23.280079280504037" lon="113.8923468990435"><ele>8.0</ele><time>2026-04-17T09:07:30.999Z</time></trkpt><trkpt lat="-23.279950681488092" lon="113.89208182992341"><ele>8.0</ele><time>2026-04-17T09:07:31.999Z</time></trkpt><trkpt lat="-23.279821632542284" lon="113.89181447696184"><ele>8.0</ele><time>2026-04-17T09:07:32.999Z</time></trkpt><trkpt lat="-23.279690027836665" lon="113.89155263006597"><ele>8.5</ele><time>2026-04-17T09:07:33.999Z</time></trkpt><trkpt lat="-23.279558763371668" lon="113.89129404984142"><ele>9.0</ele><time>2026-04-17T09:07:34.999Z</time></trkpt><trkpt lat="-23.279431071225293" lon="113.89103413826452"><ele>9.5</ele><time>2026-04-17T09:07:35.999Z</time></trkpt><trkpt lat="-23.27930262670222" lon="113.89077246748192"><ele>10.0</ele><time>2026-04-17T09:07:36.999Z</time></trkpt><trkpt lat="-23.27916927579885" lon="113.89051185344576"><ele>10.0</ele><time>2026-04-17T09:07:37.999Z</time></trkpt><trkpt lat="-23.27902848370938" lon="113.89025592745816"><ele>10.0</ele><time>2026-04-17T09:07:38.999Z</time></trkpt><trkpt lat="-23.278883487237525" lon="113.89000539874883"><ele>10.0</ele><time>2026-04-17T09:07:39.999Z</time></trkpt><trkpt lat="-23.278730052026635" lon="113.88975556170023"><ele>10.0</ele><time>2026-04-17T09:07:40.999Z</time></trkpt><trkpt lat="-23.278564795019182" lon="113.8895231466477"><ele>10.0</ele><time>2026-04-17T09:07:41.999Z</time></trkpt><trkpt lat="-23.278395488328155" lon="113.8892931397002"><ele>10.0</ele><time>2026-04-17T09:07:42.999Z</time></trkpt><trkpt lat="-23.278225232468984" lon="113.88906427345918"><ele>12.0</ele><time>2026-04-17T09:07:43.999Z</time></trkpt><trkpt lat="-23.27805677810284" lon="113.88883575098713"><ele>14.0</ele><time>2026-04-17T09:07:44.999Z</time></trkpt><trkpt lat="-23.277884844523232" lon="113.88861569578387"><ele>14.0</ele><time>2026-04-17T09:07:45.999Z</time></trkpt><trkpt lat="-23.27770632830296" lon="113.88840353021989"><ele>14.0</ele><time>2026-04-17T09:07:46.999Z</time></trkpt><trkpt lat="-23.277523812523565" lon="113.88819572914787"><ele>14.0</ele><time>2026-04-17T09:07:47.999Z</time></trkpt><trkpt lat="-23.27733743864673" lon="113.88799718756722"><ele>14.0</ele><time>2026-04-17T09:07:48.999Z</time></trkpt><trkpt lat="-23.276973928856403" lon="113.88761029275555"><ele>15.0</ele><time>2026-04-17T09:07:50.999Z</time></trkpt><trkpt lat="-23.276792936565414" lon="113.88740848382456"><ele>16.0</ele><time>2026-04-17T09:07:51.999Z</time></trkpt><trkpt lat="-23.27661140562544" lon="113.8872051269745"><ele>16.0</ele><time>2026-04-17T09:07:52.999Z</time></trkpt><trkpt lat="-23.276426452540118" lon="113.8869973177327"><ele>16.0</ele><time>2026-04-17T09:07:53.999Z</time></trkpt><trkpt lat="-23.276238529201464" lon="113.8867849764453"><ele>16.5</ele><time>2026-04-17T09:07:54.999Z</time></trkpt><trkpt lat="-23.276044824805304" lon="113.88656838139192"><ele>17.0</ele><time>2026-04-17T09:07:55.999Z</time></trkpt><trkpt lat="-23.275845062800506" lon="113.88634729560192"><ele>17.0</ele><time>2026-04-17T09:07:56.999Z</time></trkpt><trkpt lat="-23.27564383416341" lon="113.88612588823325"><ele>17.0</ele><time>2026-04-17T09:07:57.999Z</time></trkpt><trkpt lat="-23.275438897829343" lon="113.88590357901775"><ele>18.0</ele><time>2026-04-17T09:07:58.999Z</time></trkpt><trkpt lat="-23.275233256804068" lon="113.88567430830669"><ele>19.0</ele><time>2026-04-17T09:07:59.999Z</time></trkpt><trkpt lat="-23.275030648723078" lon="113.88544149783964"><ele>19.0</ele><time>2026-04-17T09:08:00.999Z</time></trkpt><trkpt lat="-23.27482611312731" lon="113.88520883807428"><ele>19.0</ele><time>2026-04-17T09:08:01.999Z</time></trkpt><trkpt lat="-23.274616802815075" lon="113.88497681770704"><ele>19.0</ele><time>2026-04-17T09:08:02.999Z</time></trkpt><trkpt lat="-23.274404310386117" lon="113.8847479094637"><ele>19.0</ele><time>2026-04-17T09:08:03.999Z</time></trkpt><trkpt lat="-23.274193492854664" lon="113.88451997949001"><ele>19.0</ele><time>2026-04-17T09:08:04.999Z</time></trkpt><trkpt lat="-23.27398642350702" lon="113.88429191963945"><ele>19.0</ele><time>2026-04-17T09:08:05.999Z</time></trkpt><trkpt lat="-23.27377843726962" lon="113.88406086711842"><ele>20.0</ele><time>2026-04-17T09:08:06.999Z</time></trkpt><trkpt lat="-23.273570993159993" lon="113.88382460842612"><ele>21.0</ele><time>2026-04-17T09:08:07.999Z</time></trkpt><trkpt lat="-23.27336329413033" lon="113.88358985082182"><ele>21.5</ele><time>2026-04-17T09:08:08.999Z</time></trkpt><trkpt lat="-23.273155788270465" lon="113.88335973794824"><ele>22.0</ele><time>2026-04-17T09:08:09.999Z</time></trkpt><trkpt lat="-23.27294845380854" lon="113.88313309485923"><ele>22.5</ele><time>2026-04-17T09:08:10.999Z</time></trkpt><trkpt lat="-23.272741531080687" lon="113.88291012028384"><ele>23.0</ele><time>2026-04-17T09:08:11.999Z</time></trkpt><trkpt lat="-23.272534146159423" lon="113.88268130880246"><ele>23.0</ele><time>2026-04-17T09:08:12.999Z</time></trkpt><trkpt lat="-23.27233072704369" lon="113.88245225234603"><ele>23.0</ele><time>2026-04-17T09:08:13.999Z</time></trkpt><trkpt lat="-23.27212701140813" lon="113.88222631254715"><ele>24.0</ele><time>2026-04-17T09:08:14.999Z</time></trkpt><trkpt lat="-23.27192121330688" lon="113.8819989124608"><ele>25.0</ele><time>2026-04-17T09:08:15.999Z</time></trkpt><trkpt lat="-23.271716142459812" lon="113.88176976561272"><ele>25.5</ele><time>2026-04-17T09:08:16.999Z</time></trkpt><trkpt lat="-23.27150958178368" lon="113.88154082140578"><ele>26.0</ele><time>2026-04-17T09:08:17.999Z</time></trkpt><trkpt lat="-23.271302365957954" lon="113.88131211375189"><ele>26.0</ele><time>2026-04-17T09:08:18.999Z</time></trkpt><trkpt lat="-23.27109619975883" lon="113.8810840169698"><ele>26.0</ele><time>2026-04-17T09:08:19.999Z</time></trkpt><trkpt lat="-23.27088802950601" lon="113.88085676220021"><ele>26.5</ele><time>2026-04-17T09:08:20.999Z</time></trkpt><trkpt lat="-23.27067998625" lon="113.88062565854402"><ele>27.0</ele><time>2026-04-17T09:08:21.999Z</time></trkpt><trkpt lat="-23.270473288874843" lon="113.88039227439899"><ele>27.0</ele><time>2026-04-17T09:08:22.999Z</time></trkpt><trkpt lat="-23.270267327161612" lon="113.88016326209598"><ele>27.0</ele><time>2026-04-17T09:08:23.999Z</time></trkpt><trkpt lat="-23.27006068061168" lon="113.87993644066599"><ele>27.0</ele><time>2026-04-17T09:08:24.999Z</time></trkpt><trkpt lat="-23.26985618769196" lon="113.87970788161424"><ele>27.0</ele><time>2026-04-17T09:08:25.999Z</time></trkpt><trkpt lat="-23.269650432792016" lon="113.87948028886873"><ele>27.0</ele><time>2026-04-17T09:08:26.999Z</time></trkpt><trkpt lat="-23.269444292643982" lon="113.879253654847"><ele>27.0</ele><time>2026-04-17T09:08:27.999Z</time></trkpt><trkpt lat="-23.269240783021303" lon="113.87902713685898"><ele>27.0</ele><time>2026-04-17T09:08:28.999Z</time></trkpt><trkpt lat="-23.26903952489471" lon="113.8788062162882"><ele>27.0</ele><time>2026-04-17T09:08:29.999Z</time></trkpt><trkpt lat="-23.26883120321819" lon="113.87859050153806"><ele>26.5</ele><time>2026-04-17T09:08:30.999Z</time></trkpt><trkpt lat="-23.268615546489073" lon="113.87838318220476"><ele>26.0</ele><time>2026-04-17T09:08:31.999Z</time></trkpt><trkpt lat="-23.268398099986157" lon="113.87817505863913"><ele>26.0</ele><time>2026-04-17T09:08:32.999Z</time></trkpt><trkpt lat="-23.26817798217964" lon="113.87796780770583"><ele>26.0</ele><time>2026-04-17T09:08:33.999Z</time></trkpt><trkpt lat="-23.267950408325337" lon="113.87776776904666"><ele>24.0</ele><time>2026-04-17T09:08:34.999Z</time></trkpt><trkpt lat="-23.267719184492172" lon="113.87757657170317"><ele>22.0</ele><time>2026-04-17T09:08:35.999Z</time></trkpt><trkpt lat="-23.26749000351111" lon="113.87738739623795"><ele>21.5</ele><time>2026-04-17T09:08:36.999Z</time></trkpt><trkpt lat="-23.267262202289977" lon="113.8771938490599"><ele>21.0</ele><time>2026-04-17T09:08:37.999Z</time></trkpt><trkpt lat="-23.26703639323541" lon="113.87699979990245"><ele>21.0</ele><time>2026-04-17T09:08:38.999Z</time></trkpt><trkpt lat="-23.266815232895716" lon="113.87681131285541"><ele>21.0</ele><time>2026-04-17T09:08:39.999Z</time></trkpt><trkpt lat="-23.266590054699215" lon="113.87661767787002"><ele>22.0</ele><time>2026-04-17T09:08:40.999Z</time></trkpt><trkpt lat="-23.266365970436514" lon="113.87642751459101"><ele>23.0</ele><time>2026-04-17T09:08:41.999Z</time></trkpt><trkpt lat="-23.266142360242966" lon="113.87623520438595"><ele>23.0</ele><time>2026-04-17T09:08:42.999Z</time></trkpt><trkpt lat="-23.265917789223845" lon="113.87603789268277"><ele>23.0</ele><time>2026-04-17T09:08:43.999Z</time></trkpt><trkpt lat="-23.26568935345229" lon="113.87583962404727"><ele>22.5</ele><time>2026-04-17T09:08:44.999Z</time></trkpt><trkpt lat="-23.265462468338566" lon="113.87564542705134"><ele>22.0</ele><time>2026-04-17T09:08:45.999Z</time></trkpt><trkpt lat="-23.265236730967615" lon="113.87545416595017"><ele>22.0</ele><time>2026-04-17T09:08:46.999Z</time></trkpt><trkpt lat="-23.265015617901412" lon="113.87526284062903"><ele>22.0</ele><time>2026-04-17T09:08:47.999Z</time></trkpt><trkpt lat="-23.264796526787194" lon="113.87506418272444"><ele>23.0</ele><time>2026-04-17T09:08:48.999Z</time></trkpt><trkpt lat="-23.264575635102684" lon="113.87487231928645"><ele>24.0</ele><time>2026-04-17T09:08:49.999Z</time></trkpt><trkpt lat="-23.26434950291452" lon="113.87468117560418"><ele>24.0</ele><time>2026-04-17T09:08:50.999Z</time></trkpt><trkpt lat="-23.26412612356691" lon="113.87448604499663"><ele>24.0</ele><time>2026-04-17T09:08:51.999Z</time></trkpt><trkpt lat="-23.263901185151838" lon="113.87429222893532"><ele>25.0</ele><time>2026-04-17T09:08:52.999Z</time></trkpt><trkpt lat="-23.263675299329343" lon="113.87409669322057"><ele>26.0</ele><time>2026-04-17T09:08:53.999Z</time></trkpt><trkpt lat="-23.263455936044117" lon="113.87390259262719"><ele>26.0</ele><time>2026-04-17T09:08:54.999Z</time></trkpt><trkpt lat="-23.26323881205838" lon="113.87371345789714"><ele>26.0</ele><time>2026-04-17T09:08:55.999Z</time></trkpt><trkpt lat="-23.26302136330977" lon="113.87352841246035"><ele>26.5</ele><time>2026-04-17T09:08:56.999Z</time></trkpt><trkpt lat="-23.262804779508297" lon="113.87334025938175"><ele>27.0</ele><time>2026-04-17T09:08:57.999Z</time></trkpt><trkpt lat="-23.26258979272545" lon="113.87314937453984"><ele>27.0</ele><time>2026-04-17T09:08:58.999Z</time></trkpt><trkpt lat="-23.262377236507024" lon="113.87295664202816"><ele>27.0</ele><time>2026-04-17T09:08:59.999Z</time></trkpt><trkpt lat="-23.26216776435112" lon="113.87275608645291"><ele>28.0</ele><time>2026-04-17T09:09:00.999Z</time></trkpt><trkpt lat="-23.26196657398984" lon="113.87254865894779"><ele>29.0</ele><time>2026-04-17T09:09:01.999Z</time></trkpt><trkpt lat="-23.26176847843964" lon="113.87233104864558"><ele>29.0</ele><time>2026-04-17T09:09:02.999Z</time></trkpt><trkpt lat="-23.261576862312495" lon="113.87211290365065"><ele>29.0</ele><time>2026-04-17T09:09:03.999Z</time></trkpt><trkpt lat="-23.261390252250592" lon="113.87189456333223"><ele>28.5</ele><time>2026-04-17T09:09:04.999Z</time></trkpt><trkpt lat="-23.261206950237913" lon="113.87167261625885"><ele>28.0</ele><time>2026-04-17T09:09:05.999Z</time></trkpt><trkpt lat="-23.261029179207824" lon="113.87144557976804"><ele>28.0</ele><time>2026-04-17T09:09:06.999Z</time></trkpt><trkpt lat="-23.260866480360235" lon="113.8712187743971"><ele>28.0</ele><time>2026-04-17T09:09:07.999Z</time></trkpt><trkpt lat="-23.260720949886384" lon="113.87100272382192"><ele>28.5</ele><time>2026-04-17T09:09:08.999Z</time></trkpt><trkpt lat="-23.260585380903237" lon="113.87079687249124"><ele>29.0</ele><time>2026-04-17T09:09:09.999Z</time></trkpt><trkpt lat="-23.26044812282999" lon="113.87057557947676"><ele>29.0</ele><time>2026-04-17T09:09:10.999Z</time></trkpt><trkpt lat="-23.260312278341463" lon="113.8703464864709"><ele>29.0</ele><time>2026-04-17T09:09:11.999Z</time></trkpt><trkpt lat="-23.260175194032524" lon="113.87011198534199"><ele>30.0</ele><time>2026-04-17T09:09:12.999Z</time></trkpt><trkpt lat="-23.260035688179705" lon="113.8698754959348"><ele>31.0</ele><time>2026-04-17T09:09:13.999Z</time></trkpt><trkpt lat="-23.259896518207125" lon="113.86963888518402"><ele>30.5</ele><time>2026-04-17T09:09:14.999Z</time></trkpt><trkpt lat="-23.259753746757273" lon="113.86939755504625"><ele>30.0</ele><time>2026-04-17T09:09:15.999Z</time></trkpt><trkpt lat="-23.259609887005322" lon="113.86915010012014"><ele>29.0</ele><time>2026-04-17T09:09:16.999Z</time></trkpt><trkpt lat="-23.25946532324724" lon="113.86890254852685"><ele>28.0</ele><time>2026-04-17T09:09:17.999Z</time></trkpt><trkpt lat="-23.259319772826675" lon="113.86865475098621"><ele>29.0</ele><time>2026-04-17T09:09:18.999Z</time></trkpt><trkpt lat="-23.259174082502295" lon="113.86840798554502"><ele>30.0</ele><time>2026-04-17T09:09:19.999Z</time></trkpt><trkpt lat="-23.25902835480989" lon="113.86816090566896"><ele>29.5</ele><time>2026-04-17T09:09:20.999Z</time></trkpt><trkpt lat="-23.258882553020573" lon="113.86791057862501"><ele>29.0</ele><time>2026-04-17T09:09:21.999Z</time></trkpt><trkpt lat="-23.258740524117812" lon="113.86765950967732"><ele>30.0</ele><time>2026-04-17T09:09:22.999Z</time></trkpt><trkpt lat="-23.258596042134638" lon="113.86740439154676"><ele>31.0</ele><time>2026-04-17T09:09:23.999Z</time></trkpt><trkpt lat="-23.258448588267456" lon="113.86715008930125"><ele>31.0</ele><time>2026-04-17T09:09:24.999Z</time></trkpt><trkpt lat="-23.25829602435116" lon="113.86689566549452"><ele>31.0</ele><time>2026-04-17T09:09:25.999Z</time></trkpt><trkpt lat="-23.258139758149294" lon="113.86664187414482"><ele>32.0</ele><time>2026-04-17T09:09:26.999Z</time></trkpt><trkpt lat="-23.257981754315722" lon="113.86639058118753"><ele>33.0</ele><time>2026-04-17T09:09:27.999Z</time></trkpt><trkpt lat="-23.257817222252577" lon="113.8661420267012"><ele>34.5</ele><time>2026-04-17T09:09:28.999Z</time></trkpt><trkpt lat="-23.25764391835264" lon="113.86589467382268"><ele>36.0</ele><time>2026-04-17T09:09:29.999Z</time></trkpt><trkpt lat="-23.2574664753646" lon="113.86564641799825"><ele>37.0</ele><time>2026-04-17T09:09:30.999Z</time></trkpt><trkpt lat="-23.2572835833901" lon="113.86539951042221"><ele>38.0</ele><time>2026-04-17T09:09:31.999Z</time></trkpt><trkpt lat="-23.25709670625436" lon="113.8651625588553"><ele>38.5</ele><time>2026-04-17T09:09:32.999Z</time></trkpt><trkpt lat="-23.25690787664507" lon="113.8649324927318"><ele>39.0</ele><time>2026-04-17T09:09:33.999Z</time></trkpt><trkpt lat="-23.256721788392017" lon="113.86469865408324"><ele>39.0</ele><time>2026-04-17T09:09:34.999Z</time></trkpt><trkpt lat="-23.25653560727982" lon="113.8644626672499"><ele>39.0</ele><time>2026-04-17T09:09:35.999Z</time></trkpt><trkpt lat="-23.256351433264218" lon="113.86422373509654"><ele>40.0</ele><time>2026-04-17T09:09:36.999Z</time></trkpt><trkpt lat="-23.256167667978012" lon="113.86398417042305"><ele>41.0</ele><time>2026-04-17T09:09:37.999Z</time></trkpt><trkpt lat="-23.255984078020287" lon="113.86374723827281"><ele>41.0</ele><time>2026-04-17T09:09:38.999Z</time></trkpt><trkpt lat="-23.255801744829558" lon="113.86351328082446"><ele>41.0</ele><time>2026-04-17T09:09:39.999Z</time></trkpt><trkpt lat="-23.255620825524176" lon="113.86328076213826"><ele>41.5</ele><time>2026-04-17T09:09:40.999Z</time></trkpt><trkpt lat="-23.25544050255105" lon="113.8630510610684"><ele>42.0</ele><time>2026-04-17T09:09:41.999Z</time></trkpt><trkpt lat="-23.25526431004554" lon="113.86282288807587"><ele>43.0</ele><time>2026-04-17T09:09:42.999Z</time></trkpt><trkpt lat="-23.255086775580335" lon="113.86259030347937"><ele>44.0</ele><time>2026-04-17T09:09:43.999Z</time></trkpt><trkpt lat="-23.25491073013541" lon="113.86236002419275"><ele>44.0</ele><time>2026-04-17T09:09:44.999Z</time></trkpt><trkpt lat="-23.25473549023744" lon="113.86212914918609"><ele>44.0</ele><time>2026-04-17T09:09:45.999Z</time></trkpt><trkpt lat="-23.254558875556306" lon="113.86189907872543"><ele>45.0</ele><time>2026-04-17T09:09:46.999Z</time></trkpt><trkpt lat="-23.254379207174043" lon="113.86167122745884"><ele>46.0</ele><time>2026-04-17T09:09:47.999Z</time></trkpt><trkpt lat="-23.254195959911527" lon="113.86144052788093"><ele>46.0</ele><time>2026-04-17T09:09:48.999Z</time></trkpt><trkpt lat="-23.254014398711114" lon="113.86120636646496"><ele>46.0</ele><time>2026-04-17T09:09:49.999Z</time></trkpt><trkpt lat="-23.25383289592236" lon="113.86096156191856"><ele>48.0</ele><time>2026-04-17T09:09:50.999Z</time></trkpt><trkpt lat="-23.253655163681625" lon="113.86070755864917"><ele>50.0</ele><time>2026-04-17T09:09:51.999Z</time></trkpt><trkpt lat="-23.253485189262754" lon="113.86044972575242"><ele>50.0</ele><time>2026-04-17T09:09:52.999Z</time></trkpt><trkpt lat="-23.253327626762285" lon="113.86018628939499"><ele>50.0</ele><time>2026-04-17T09:09:53.999Z</time></trkpt><trkpt lat="-23.25317477234352" lon="113.85991555320712"><ele>50.5</ele><time>2026-04-17T09:09:54.999Z</time></trkpt><trkpt lat="-23.253029114370175" lon="113.85963677300583"><ele>51.0</ele><time>2026-04-17T09:09:55.999Z</time></trkpt><trkpt lat="-23.25288705048498" lon="113.85935626104849"><ele>51.0</ele><time>2026-04-17T09:09:56.999Z</time></trkpt><trkpt lat="-23.25274903447252" lon="113.85907403049131"><ele>51.0</ele><time>2026-04-17T09:09:57.999Z</time></trkpt><trkpt lat="-23.25261455961989" lon="113.85878818579343"><ele>51.0</ele><time>2026-04-17T09:09:58.999Z</time></trkpt><trkpt lat="-23.252483231889162" lon="113.85850120266471"><ele>51.0</ele><time>2026-04-17T09:09:59.999Z</time></trkpt><trkpt lat="-23.252349081498053" lon="113.85821641273057"><ele>51.5</ele><time>2026-04-17T09:10:00.999Z</time></trkpt><trkpt lat="-23.252210841048544" lon="113.85792935813535"><ele>52.0</ele><time>2026-04-17T09:10:01.999Z</time></trkpt><trkpt lat="-23.252073854813364" lon="113.85764817720381"><ele>51.5</ele><time>2026-04-17T09:10:03Z</time></trkpt><trkpt lat="-23.251936184201764" lon="113.85736338000913"><ele>51.0</ele><time>2026-04-17T09:10:04Z</time></trkpt><trkpt lat="-23.251798074579693" lon="113.85708105589362"><ele>51.0</ele><time>2026-04-17T09:10:05Z</time></trkpt><trkpt lat="-23.251659087965173" lon="113.85679700514372"><ele>51.0</ele><time>2026-04-17T09:10:06Z</time></trkpt><trkpt lat="-23.251519992634506" lon="113.85651617239867"><ele>52.5</ele><time>2026-04-17T09:10:07Z</time></trkpt><trkpt lat="-23.251375295966113" lon="113.85623482233763"><ele>54.0</ele><time>2026-04-17T09:10:08Z</time></trkpt><trkpt lat="-23.251227250449823" lon="113.85595576608786"><ele>53.0</ele><time>2026-04-17T09:10:09Z</time></trkpt><trkpt lat="-23.25106852855469" lon="113.85568388322035"><ele>52.0</ele><time>2026-04-17T09:10:10Z</time></trkpt><trkpt lat="-23.250893993192328" lon="113.85542242734375"><ele>52.0</ele><time>2026-04-17T09:10:11Z</time></trkpt><trkpt lat="-23.250704091052214" lon="113.8551670739073"><ele>52.0</ele><time>2026-04-17T09:10:12Z</time></trkpt><trkpt lat="-23.25050640880517" lon="113.85491443594518"><ele>52.5</ele><time>2026-04-17T09:10:13Z</time></trkpt><trkpt lat="-23.2502971849555" lon="113.85467147747532"><ele>53.0</ele><time>2026-04-17T09:10:14Z</time></trkpt><trkpt lat="-23.250078984953007" lon="113.85443654076333"><ele>53.0</ele><time>2026-04-17T09:10:15Z</time></trkpt><trkpt lat="-23.24985244495928" lon="113.8542094071239"><ele>53.0</ele><time>2026-04-17T09:10:16Z</time></trkpt><trkpt lat="-23.249620680243424" lon="113.85398869166467"><ele>52.5</ele><time>2026-04-17T09:10:17Z</time></trkpt><trkpt lat="-23.24938082950878" lon="113.85377812052988"><ele>52.0</ele><time>2026-04-17T09:10:18Z</time></trkpt><trkpt lat="-23.249138670617313" lon="113.85357473356179"><ele>53.5</ele><time>2026-04-17T09:10:19Z</time></trkpt><trkpt lat="-23.248891629895574" lon="113.85338459099846"><ele>55.0</ele><time>2026-04-17T09:10:20Z</time></trkpt><trkpt lat="-23.24863511252813" lon="113.85320482128543"><ele>55.0</ele><time>2026-04-17T09:10:21Z</time></trkpt><trkpt lat="-23.2483732983081" lon="113.8530374692664"><ele>55.0</ele><time>2026-04-17T09:10:22Z</time></trkpt><trkpt lat="-23.248105186801883" lon="113.85288233456392"><ele>54.5</ele><time>2026-04-17T09:10:23Z</time></trkpt><trkpt lat="-23.247829522808647" lon="113.85273958287802"><ele>54.0</ele><time>2026-04-17T09:10:24Z</time></trkpt><trkpt lat="-23.247544955364305" lon="113.85260680675358"><ele>54.0</ele><time>2026-04-17T09:10:25Z</time></trkpt><trkpt lat="-23.24725300035389" lon="113.85247670505873"><ele>54.0</ele><time>2026-04-17T09:10:26Z</time></trkpt><trkpt lat="-23.246959654841433" lon="113.8523571394842"><ele>54.0</ele><time>2026-04-17T09:10:27Z</time></trkpt><trkpt lat="-23.24666216420415" lon="113.85225017098752"><ele>54.0</ele><time>2026-04-17T09:10:28Z</time></trkpt><trkpt lat="-23.246358482232793" lon="113.85216081110754"><ele>54.0</ele><time>2026-04-17T09:10:29Z</time></trkpt><trkpt lat="-23.246052105849657" lon="113.8520787480282"><ele>54.0</ele><time>2026-04-17T09:10:30Z</time></trkpt><trkpt lat="-23.24574171449005" lon="113.85200921609409"><ele>55.5</ele><time>2026-04-17T09:10:31Z</time></trkpt><trkpt lat="-23.24542874540489" lon="113.85195462633612"><ele>57.0</ele><time>2026-04-17T09:10:32Z</time></trkpt><trkpt lat="-23.245114178978245" lon="113.85191478732708"><ele>57.0</ele><time>2026-04-17T09:10:33Z</time></trkpt><trkpt lat="-23.244801771373048" lon="113.85189384031831"><ele>57.0</ele><time>2026-04-17T09:10:34Z</time></trkpt><trkpt lat="-23.24448757620189" lon="113.85188208257834"><ele>55.5</ele><time>2026-04-17T09:10:35Z</time></trkpt><trkpt lat="-23.244174072699334" lon="113.85187895993406"><ele>54.0</ele><time>2026-04-17T09:10:36Z</time></trkpt><trkpt lat="-23.24385938066761" lon="113.85188161290351"><ele>54.0</ele><time>2026-04-17T09:10:37Z</time></trkpt><trkpt lat="-23.243543311380648" lon="113.85190152277646"><ele>54.0</ele><time>2026-04-17T09:10:38Z</time></trkpt><trkpt lat="-23.243228022529788" lon="113.85193433699911"><ele>53.0</ele><time>2026-04-17T09:10:39Z</time></trkpt><trkpt lat="-23.242593015285447" lon="113.85202147628432"><ele>54.0</ele><time>2026-04-17T09:10:41Z</time></trkpt><trkpt lat="-23.242274938545105" lon="113.85206151825079"><ele>55.0</ele><time>2026-04-17T09:10:42Z</time></trkpt><trkpt lat="-23.24195681323945" lon="113.85209845051484"><ele>55.0</ele><time>2026-04-17T09:10:43Z</time></trkpt><trkpt lat="-23.241640400664668" lon="113.8521305717978"><ele>55.0</ele><time>2026-04-17T09:10:44Z</time></trkpt><trkpt lat="-23.24132497319104" lon="113.85216081488691"><ele>55.5</ele><time>2026-04-17T09:10:45Z</time></trkpt><trkpt lat="-23.241006568087926" lon="113.85219321051112"><ele>56.0</ele><time>2026-04-17T09:10:46Z</time></trkpt><trkpt lat="-23.24068706082859" lon="113.85222709889655"><ele>56.0</ele><time>2026-04-17T09:10:47Z</time></trkpt><trkpt lat="-23.240370209692145" lon="113.85226289498686"><ele>56.0</ele><time>2026-04-17T09:10:48Z</time></trkpt><trkpt lat="-23.240052708986486" lon="113.85229862764295"><ele>55.5</ele><time>2026-04-17T09:10:49Z</time></trkpt><trkpt lat="-23.239733870012692" lon="113.85233454758844"><ele>55.0</ele><time>2026-04-17T09:10:50Z</time></trkpt><trkpt lat="-23.239415105265884" lon="113.85236824622349"><ele>55.0</ele><time>2026-04-17T09:10:51Z</time></trkpt><trkpt lat="-23.238785316695935" lon="113.85243395003666"><ele>55.0</ele><time>2026-04-17T09:10:53Z</time></trkpt><trkpt lat="-23.23847331951947" lon="113.8524691990904"><ele>55.0</ele><time>2026-04-17T09:10:54Z</time></trkpt><trkpt lat="-23.238162188257117" lon="113.85250656901965"><ele>56.0</ele><time>2026-04-17T09:10:55Z</time></trkpt><trkpt lat="-23.237850985002755" lon="113.85253981550171"><ele>57.0</ele><time>2026-04-17T09:10:56Z</time></trkpt><trkpt lat="-23.237536094079644" lon="113.8525665553383"><ele>56.0</ele><time>2026-04-17T09:10:57Z</time></trkpt><trkpt lat="-23.237225125255907" lon="113.85259930378632"><ele>55.0</ele><time>2026-04-17T09:10:58Z</time></trkpt><trkpt lat="-23.236918386500122" lon="113.85263833042607"><ele>55.0</ele><time>2026-04-17T09:10:59Z</time></trkpt><trkpt lat="-23.236612001369696" lon="113.8526782357793"><ele>55.0</ele><time>2026-04-17T09:11:00Z</time></trkpt><trkpt lat="-23.236304106386726" lon="113.85271304803503"><ele>55.0</ele><time>2026-04-17T09:11:01Z</time></trkpt><trkpt lat="-23.235993186337325" lon="113.85274467452481"><ele>55.0</ele><time>2026-04-17T09:11:02Z</time></trkpt><trkpt lat="-23.235679788905617" lon="113.85277739274359"><ele>56.0</ele><time>2026-04-17T09:11:03Z</time></trkpt><trkpt lat="-23.235366389965087" lon="113.85281251185224"><ele>57.0</ele><time>2026-04-17T09:11:04Z</time></trkpt><trkpt lat="-23.235052098504806" lon="113.85284346303202"><ele>57.0</ele><time>2026-04-17T09:11:05Z</time></trkpt><trkpt lat="-23.234733806518904" lon="113.85287506451849"><ele>57.0</ele><time>2026-04-17T09:11:06Z</time></trkpt><trkpt lat="-23.234411770666856" lon="113.85290931789349"><ele>57.0</ele><time>2026-04-17T09:11:07Z</time></trkpt><trkpt lat="-23.234086534723055" lon="113.85294410828557"><ele>57.0</ele><time>2026-04-17T09:11:08Z</time></trkpt><trkpt lat="-23.233758571423337" lon="113.85297984465674"><ele>56.0</ele><time>2026-04-17T09:11:09Z</time></trkpt><trkpt lat="-23.233437179662882" lon="113.85301487552458"><ele>55.0</ele><time>2026-04-17T09:11:10Z</time></trkpt><trkpt lat="-23.233118614903518" lon="113.85305249917765"><ele>55.0</ele><time>2026-04-17T09:11:11Z</time></trkpt><trkpt lat="-23.232793035218435" lon="113.85308581349814"><ele>55.0</ele><time>2026-04-17T09:11:12Z</time></trkpt><trkpt lat="-23.232468077920906" lon="113.8531146906039"><ele>55.5</ele><time>2026-04-17T09:11:13Z</time></trkpt><trkpt lat="-23.232143892981515" lon="113.853146810435"><ele>56.0</ele><time>2026-04-17T09:11:14Z</time></trkpt><trkpt lat="-23.231817424415148" lon="113.85318479534384"><ele>56.0</ele><time>2026-04-17T09:11:15Z</time></trkpt><trkpt lat="-23.231492324338724" lon="113.8532204109807"><ele>56.0</ele><time>2026-04-17T09:11:16Z</time></trkpt><trkpt lat="-23.231169841878305" lon="113.85325739607507"><ele>56.0</ele><time>2026-04-17T09:11:17Z</time></trkpt><trkpt lat="-23.230849507941564" lon="113.85329394275553"><ele>56.0</ele><time>2026-04-17T09:11:18Z</time></trkpt><trkpt lat="-23.23052440265688" lon="113.85332468139674"><ele>56.5</ele><time>2026-04-17T09:11:19Z</time></trkpt><trkpt lat="-23.23020013791427" lon="113.85335538323126"><ele>57.0</ele><time>2026-04-17T09:11:20Z</time></trkpt><trkpt lat="-23.229872836953458" lon="113.85339007838779"><ele>57.0</ele><time>2026-04-17T09:11:21Z</time></trkpt><trkpt lat="-23.229545700825515" lon="113.85342493784445"><ele>57.0</ele><time>2026-04-17T09:11:22Z</time></trkpt><trkpt lat="-23.22921708190391" lon="113.85346132484106"><ele>57.0</ele><time>2026-04-17T09:11:23Z</time></trkpt><trkpt lat="-23.22888984360831" lon="113.85349964739551"><ele>57.0</ele><time>2026-04-17T09:11:24Z</time></trkpt><trkpt lat="-23.22856249487549" lon="113.8535368875683"><ele>57.0</ele><time>2026-04-17T09:11:25Z</time></trkpt><trkpt lat="-23.22823361498973" lon="113.85357383160056"><ele>57.0</ele><time>2026-04-17T09:11:26Z</time></trkpt><trkpt lat="-23.227903006867514" lon="113.85361056044158"><ele>58.0</ele><time>2026-04-17T09:11:27Z</time></trkpt><trkpt lat="-23.227568621127627" lon="113.8536473599558"><ele>59.0</ele><time>2026-04-17T09:11:28Z</time></trkpt><trkpt lat="-23.227236565018142" lon="113.85368171454655"><ele>59.0</ele><time>2026-04-17T09:11:29Z</time></trkpt><trkpt lat="-23.226907595730147" lon="113.85371745642124"><ele>59.0</ele><time>2026-04-17T09:11:30Z</time></trkpt><trkpt lat="-23.226580631037706" lon="113.85375457506981"><ele>58.5</ele><time>2026-04-17T09:11:31Z</time></trkpt><trkpt lat="-23.226256083063273" lon="113.85379007932859"><ele>58.0</ele><time>2026-04-17T09:11:32Z</time></trkpt><trkpt lat="-23.225932212647628" lon="113.85382552974987"><ele>58.0</ele><time>2026-04-17T09:11:33Z</time></trkpt><trkpt lat="-23.225607715686674" lon="113.85386301381824"><ele>58.0</ele><time>2026-04-17T09:11:34Z</time></trkpt><trkpt lat="-23.22528457892693" lon="113.85389870424018"><ele>58.0</ele><time>2026-04-17T09:11:35Z</time></trkpt><trkpt lat="-23.22496242616351" lon="113.85393163459759"><ele>58.0</ele><time>2026-04-17T09:11:36Z</time></trkpt><trkpt lat="-23.224642244947862" lon="113.85396246293598"><ele>57.0</ele><time>2026-04-17T09:11:37Z</time></trkpt><trkpt lat="-23.224322483003238" lon="113.8539952338963"><ele>56.0</ele><time>2026-04-17T09:11:38Z</time></trkpt><trkpt lat="-23.2240041628341" lon="113.85403006191434"><ele>56.5</ele><time>2026-04-17T09:11:39Z</time></trkpt><trkpt lat="-23.223684380550907" lon="113.85406368728488"><ele>57.0</ele><time>2026-04-17T09:11:40Z</time></trkpt><trkpt lat="-23.223365012508125" lon="113.85410008895234"><ele>57.0</ele><time>2026-04-17T09:11:41Z</time></trkpt><trkpt lat="-23.22304556320475" lon="113.85413539296378"><ele>57.0</ele><time>2026-04-17T09:11:42Z</time></trkpt><trkpt lat="-23.22272954364399" lon="113.85416879980788"><ele>57.0</ele><time>2026-04-17T09:11:43Z</time></trkpt><trkpt lat="-23.222413711149777" lon="113.85420168503587"><ele>57.0</ele><time>2026-04-17T09:11:44Z</time></trkpt><trkpt lat="-23.2220954336653" lon="113.85423525413115"><ele>57.0</ele><time>2026-04-17T09:11:45Z</time></trkpt><trkpt lat="-23.2217754638343" lon="113.8542699107294"><ele>57.0</ele><time>2026-04-17T09:11:46Z</time></trkpt><trkpt lat="-23.221457885418634" lon="113.85430435858939"><ele>57.0</ele><time>2026-04-17T09:11:47Z</time></trkpt><trkpt lat="-23.221139509583345" lon="113.85433748729714"><ele>57.0</ele><time>2026-04-17T09:11:48Z</time></trkpt><trkpt lat="-23.220820636342008" lon="113.85437351700834"><ele>56.0</ele><time>2026-04-17T09:11:49Z</time></trkpt><trkpt lat="-23.22050424772185" lon="113.85440261248647"><ele>55.0</ele><time>2026-04-17T09:11:50Z</time></trkpt><trkpt lat="-23.220185846189715" lon="113.85442385758472"><ele>55.0</ele><time>2026-04-17T09:11:51Z</time></trkpt><trkpt lat="-23.219875835758284" lon="113.85443431604968"><ele>55.0</ele><time>2026-04-17T09:11:52Z</time></trkpt><trkpt lat="-23.21956158077876" lon="113.85442969071843"><ele>55.0</ele><time>2026-04-17T09:11:53Z</time></trkpt><trkpt lat="-23.21924907759052" lon="113.85441111252393"><ele>55.0</ele><time>2026-04-17T09:11:54Z</time></trkpt><trkpt lat="-23.218936558427117" lon="113.85438223636446"><ele>55.0</ele><time>2026-04-17T09:11:55Z</time></trkpt><trkpt lat="-23.218630797128338" lon="113.85434908806765"><ele>55.0</ele><time>2026-04-17T09:11:56Z</time></trkpt><trkpt lat="-23.218320811992236" lon="113.8543112241705"><ele>55.5</ele><time>2026-04-17T09:11:57Z</time></trkpt><trkpt lat="-23.21800653650319" lon="113.85427449219259"><ele>56.0</ele><time>2026-04-17T09:11:58Z</time></trkpt><trkpt lat="-23.217690101530355" lon="113.85424190522451"><ele>56.0</ele><time>2026-04-17T09:11:59Z</time></trkpt><trkpt lat="-23.217371298272052" lon="113.85421158976993"><ele>56.0</ele><time>2026-04-17T09:12:00Z</time></trkpt><trkpt lat="-23.217049073046198" lon="113.85418077319437"><ele>56.5</ele><time>2026-04-17T09:12:01Z</time></trkpt><trkpt lat="-23.21672920922455" lon="113.85414834396121"><ele>57.0</ele><time>2026-04-17T09:12:02Z</time></trkpt><trkpt lat="-23.216408207027367" lon="113.8541172951553"><ele>57.5</ele><time>2026-04-17T09:12:03Z</time></trkpt><trkpt lat="-23.216107063597907" lon="113.85408976604823"><ele>58.0</ele><time>2026-04-17T09:12:04Z</time></trkpt><trkpt lat="-23.21582792305844" lon="113.8540686079212"><ele>57.5</ele><time>2026-04-17T09:12:05Z</time></trkpt><trkpt lat="-23.215542741951534" lon="113.85405018117268"><ele>57.0</ele><time>2026-04-17T09:12:06Z</time></trkpt><trkpt lat="-23.215245665663907" lon="113.85403699056937"><ele>57.0</ele><time>2026-04-17T09:12:07Z</time></trkpt><trkpt lat="-23.214944169519868" lon="113.85403244553106"><ele>57.0</ele><time>2026-04-17T09:12:08Z</time></trkpt><trkpt lat="-23.21463361522129" lon="113.85403845383281"><ele>56.5</ele><time>2026-04-17T09:12:09Z</time></trkpt><trkpt lat="-23.21432244640633" lon="113.85405652533582"><ele>56.0</ele><time>2026-04-17T09:12:10Z</time></trkpt><trkpt lat="-23.214008538161192" lon="113.85408503150498"><ele>57.0</ele><time>2026-04-17T09:12:11Z</time></trkpt><trkpt lat="-23.213690761477586" lon="113.85412010742611"><ele>58.0</ele><time>2026-04-17T09:12:12Z</time></trkpt><trkpt lat="-23.21337183608495" lon="113.854156648917"><ele>57.5</ele><time>2026-04-17T09:12:13Z</time></trkpt><trkpt lat="-23.21304901457656" lon="113.85419522980223"><ele>57.0</ele><time>2026-04-17T09:12:14Z</time></trkpt><trkpt lat="-23.212725594612255" lon="113.85423289780393"><ele>57.0</ele><time>2026-04-17T09:12:15Z</time></trkpt><trkpt lat="-23.212399264712204" lon="113.85426704774889"><ele>57.0</ele><time>2026-04-17T09:12:16Z</time></trkpt><trkpt lat="-23.21207391120796" lon="113.8542996270243"><ele>55.5</ele><time>2026-04-17T09:12:17Z</time></trkpt><trkpt lat="-23.21175114395098" lon="113.85433385526578"><ele>54.0</ele><time>2026-04-17T09:12:18Z</time></trkpt><trkpt lat="-23.21143247347649" lon="113.85436720319423"><ele>54.0</ele><time>2026-04-17T09:12:19Z</time></trkpt><trkpt lat="-23.21111886731836" lon="113.85440544248917"><ele>54.0</ele><time>2026-04-17T09:12:20Z</time></trkpt><trkpt lat="-23.21080727148568" lon="113.85444180995363"><ele>54.5</ele><time>2026-04-17T09:12:21Z</time></trkpt><trkpt lat="-23.210495311127247" lon="113.8544773716654"><ele>55.0</ele><time>2026-04-17T09:12:22Z</time></trkpt><trkpt lat="-23.210180306685363" lon="113.85451457816094"><ele>55.0</ele><time>2026-04-17T09:12:23Z</time></trkpt><trkpt lat="-23.20986513690834" lon="113.85455040347742"><ele>55.0</ele><time>2026-04-17T09:12:24Z</time></trkpt><trkpt lat="-23.209546904012033" lon="113.85458454770747"><ele>55.5</ele><time>2026-04-17T09:12:25Z</time></trkpt><trkpt lat="-23.209224596475632" lon="113.85461938466383"><ele>56.0</ele><time>2026-04-17T09:12:26Z</time></trkpt><trkpt lat="-23.20889770519533" lon="113.85465454254958"><ele>56.0</ele><time>2026-04-17T09:12:27Z</time></trkpt><trkpt lat="-23.208571821599342" lon="113.85469082364897"><ele>56.0</ele><time>2026-04-17T09:12:28Z</time></trkpt><trkpt lat="-23.208242713874284" lon="113.85472607442945"><ele>55.5</ele><time>2026-04-17T09:12:29Z</time></trkpt><trkpt lat="-23.207914042014867" lon="113.85476291561427"><ele>55.0</ele><time>2026-04-17T09:12:30Z</time></trkpt><trkpt lat="-23.207586414835006" lon="113.8548030430771"><ele>55.0</ele><time>2026-04-17T09:12:31Z</time></trkpt><trkpt lat="-23.207261135047826" lon="113.85484441020238"><ele>55.0</ele><time>2026-04-17T09:12:32Z</time></trkpt><trkpt lat="-23.206936236989275" lon="113.85488265536526"><ele>55.0</ele><time>2026-04-17T09:12:33Z</time></trkpt><trkpt lat="-23.206611905290067" lon="113.85491953914807"><ele>55.0</ele><time>2026-04-17T09:12:34Z</time></trkpt><trkpt lat="-23.206291831675507" lon="113.85495358978149"><ele>54.5</ele><time>2026-04-17T09:12:35Z</time></trkpt><trkpt lat="-23.205971816209118" lon="113.85498669915535"><ele>54.0</ele><time>2026-04-17T09:12:36Z</time></trkpt><trkpt lat="-23.205654212109415" lon="113.85502202151618"><ele>54.0</ele><time>2026-04-17T09:12:37Z</time></trkpt><trkpt lat="-23.205334351642765" lon="113.85506001588915"><ele>54.0</ele><time>2026-04-17T09:12:38Z</time></trkpt><trkpt lat="-23.20500992601231" lon="113.85509842348314"><ele>54.0</ele><time>2026-04-17T09:12:39Z</time></trkpt><trkpt lat="-23.20468290306922" lon="113.85513558784402"><ele>54.0</ele><time>2026-04-17T09:12:40Z</time></trkpt><trkpt lat="-23.204356078371305" lon="113.85517178861444"><ele>54.0</ele><time>2026-04-17T09:12:41Z</time></trkpt><trkpt lat="-23.204030339692007" lon="113.85520693800179"><ele>54.0</ele><time>2026-04-17T09:12:42Z</time></trkpt><trkpt lat="-23.203704553132383" lon="113.85524230523326"><ele>54.0</ele><time>2026-04-17T09:12:43Z</time></trkpt><trkpt lat="-23.203377855628467" lon="113.85527697217006"><ele>54.0</ele><time>2026-04-17T09:12:44Z</time></trkpt><trkpt lat="-23.203053856045695" lon="113.85530961296475"><ele>54.0</ele><time>2026-04-17T09:12:45Z</time></trkpt><trkpt lat="-23.20273133060087" lon="113.85534622639683"><ele>54.0</ele><time>2026-04-17T09:12:46Z</time></trkpt><trkpt lat="-23.202412337929854" lon="113.85538512950045"><ele>54.0</ele><time>2026-04-17T09:12:47Z</time></trkpt><trkpt lat="-23.202093572696718" lon="113.85542356601425"><ele>54.0</ele><time>2026-04-17T09:12:48Z</time></trkpt><trkpt lat="-23.2017698085672" lon="113.85546215767482"><ele>54.5</ele><time>2026-04-17T09:12:49Z</time></trkpt><trkpt lat="-23.201437778682923" lon="113.85549888777732"><ele>55.0</ele><time>2026-04-17T09:12:50Z</time></trkpt><trkpt lat="-23.201098016992848" lon="113.85553539329976"><ele>55.0</ele><time>2026-04-17T09:12:51Z</time></trkpt><trkpt lat="-23.200759789007662" lon="113.85557258627303"><ele>55.0</ele><time>2026-04-17T09:12:52Z</time></trkpt><trkpt lat="-23.200425318852655" lon="113.85560800626199"><ele>55.0</ele><time>2026-04-17T09:12:53Z</time></trkpt><trkpt lat="-23.200094702571118" lon="113.85564380957744"><ele>55.0</ele><time>2026-04-17T09:12:54Z</time></trkpt><trkpt lat="-23.199769932127356" lon="113.85568324186593"><ele>55.0</ele><time>2026-04-17T09:12:55Z</time></trkpt><trkpt lat="-23.199452533026587" lon="113.85572246567597"><ele>55.0</ele><time>2026-04-17T09:12:56Z</time></trkpt><trkpt lat="-23.199136523377238" lon="113.8557574604475"><ele>55.0</ele><time>2026-04-17T09:12:57Z</time></trkpt><trkpt lat="-23.19882271573655" lon="113.85578869549016"><ele>55.0</ele><time>2026-04-17T09:12:58Z</time></trkpt><trkpt lat="-23.198512713763687" lon="113.85582254865993"><ele>55.0</ele><time>2026-04-17T09:12:59Z</time></trkpt><trkpt lat="-23.198209975086094" lon="113.85586138283867"><ele>55.0</ele><time>2026-04-17T09:13:00Z</time></trkpt><trkpt lat="-23.197915269610508" lon="113.85590109385676"><ele>56.5</ele><time>2026-04-17T09:13:01Z</time></trkpt><trkpt lat="-23.19762686617922" lon="113.85594349680547"><ele>58.0</ele><time>2026-04-17T09:13:02Z</time></trkpt><trkpt lat="-23.1973506164598" lon="113.85598724524432"><ele>58.5</ele><time>2026-04-17T09:13:03Z</time></trkpt><trkpt lat="-23.19707603432018" lon="113.856034353867"><ele>59.0</ele><time>2026-04-17T09:13:04Z</time></trkpt><trkpt lat="-23.196799728982757" lon="113.85609236416747"><ele>59.0</ele><time>2026-04-17T09:13:05Z</time></trkpt><trkpt lat="-23.196524254237243" lon="113.85615740739537"><ele>59.0</ele><time>2026-04-17T09:13:06Z</time></trkpt><trkpt lat="-23.196250813478464" lon="113.85622805858785"><ele>58.5</ele><time>2026-04-17T09:13:07Z</time></trkpt><trkpt lat="-23.195978013019037" lon="113.85630295165954"><ele>58.0</ele><time>2026-04-17T09:13:08Z</time></trkpt><trkpt lat="-23.195700012459515" lon="113.85638481857868"><ele>58.5</ele><time>2026-04-17T09:13:09Z</time></trkpt><trkpt lat="-23.195425681734854" lon="113.85646879492386"><ele>59.0</ele><time>2026-04-17T09:13:10Z</time></trkpt><trkpt lat="-23.19515764193689" lon="113.85655196153641"><ele>59.0</ele><time>2026-04-17T09:13:11Z</time></trkpt><trkpt lat="-23.194902420782544" lon="113.85663224460114"><ele>59.0</ele><time>2026-04-17T09:13:12Z</time></trkpt><trkpt lat="-23.194663995880806" lon="113.85670562351821"><ele>59.0</ele><time>2026-04-17T09:13:13Z</time></trkpt><trkpt lat="-23.19442502333296" lon="113.85677533603182"><ele>59.0</ele><time>2026-04-17T09:13:14Z</time></trkpt><trkpt lat="-23.19418298433531" lon="113.8568460300044"><ele>58.5</ele><time>2026-04-17T09:13:15Z</time></trkpt><trkpt lat="-23.193938541202954" lon="113.85691917795069"><ele>58.0</ele><time>2026-04-17T09:13:16Z</time></trkpt><trkpt lat="-23.19369164061607" lon="113.85699199589239"><ele>58.0</ele><time>2026-04-17T09:13:17Z</time></trkpt><trkpt lat="-23.193439403763378" lon="113.85706662165299"><ele>58.0</ele><time>2026-04-17T09:13:18Z</time></trkpt><trkpt lat="-23.193187315959374" lon="113.8571428324522"><ele>59.5</ele><time>2026-04-17T09:13:19Z</time></trkpt><trkpt lat="-23.192934668775635" lon="113.85722141207027"><ele>61.0</ele><time>2026-04-17T09:13:20Z</time></trkpt><trkpt lat="-23.192683364516615" lon="113.85730060112759"><ele>61.0</ele><time>2026-04-17T09:13:21Z</time></trkpt><trkpt lat="-23.192428413656604" lon="113.85737773045535"><ele>61.0</ele><time>2026-04-17T09:13:22Z</time></trkpt><trkpt lat="-23.192172286667383" lon="113.85745036371002"><ele>62.0</ele><time>2026-04-17T09:13:23Z</time></trkpt><trkpt lat="-23.191912660856858" lon="113.85751050885982"><ele>63.0</ele><time>2026-04-17T09:13:24Z</time></trkpt><trkpt lat="-23.19164547040701" lon="113.85755238758685"><ele>63.0</ele><time>2026-04-17T09:13:25Z</time></trkpt><trkpt lat="-23.19137072612737" lon="113.85758253627213"><ele>63.0</ele><time>2026-04-17T09:13:26Z</time></trkpt><trkpt lat="-23.191088718372807" lon="113.8576074677499"><ele>63.0</ele><time>2026-04-17T09:13:27Z</time></trkpt><trkpt lat="-23.190805310406514" lon="113.8576279254566"><ele>63.0</ele><time>2026-04-17T09:13:28Z</time></trkpt><trkpt lat="-23.190521316610777" lon="113.85764615920105"><ele>63.0</ele><time>2026-04-17T09:13:29Z</time></trkpt><trkpt lat="-23.190236268647073" lon="113.85766347789841"><ele>63.0</ele><time>2026-04-17T09:13:30Z</time></trkpt><trkpt lat="-23.189950917972595" lon="113.85768654850887"><ele>63.0</ele><time>2026-04-17T09:13:31Z</time></trkpt><trkpt lat="-23.18966614828773" lon="113.85771467288168"><ele>63.0</ele><time>2026-04-17T09:13:32Z</time></trkpt><trkpt lat="-23.189383210856512" lon="113.85774185285774"><ele>63.0</ele><time>2026-04-17T09:13:33Z</time></trkpt><trkpt lat="-23.18910022371875" lon="113.85776419507296"><ele>63.0</ele><time>2026-04-17T09:13:34Z</time></trkpt><trkpt lat="-23.188816601566717" lon="113.85778574804607"><ele>63.5</ele><time>2026-04-17T09:13:35Z</time></trkpt><trkpt lat="-23.188533824641812" lon="113.8578131662943"><ele>64.0</ele><time>2026-04-17T09:13:36Z</time></trkpt><trkpt lat="-23.18825105820075" lon="113.85784115607721"><ele>64.5</ele><time>2026-04-17T09:13:37Z</time></trkpt><trkpt lat="-23.187967563961823" lon="113.85786378212694"><ele>65.0</ele><time>2026-04-17T09:13:38Z</time></trkpt><trkpt lat="-23.187681650813" lon="113.85788620767804"><ele>65.0</ele><time>2026-04-17T09:13:39Z</time></trkpt><trkpt lat="-23.187396836774376" lon="113.85791066133133"><ele>65.0</ele><time>2026-04-17T09:13:40Z</time></trkpt><trkpt lat="-23.18711549055779" lon="113.85793196036076"><ele>66.0</ele><time>2026-04-17T09:13:41Z</time></trkpt><trkpt lat="-23.186831482957736" lon="113.85795293947524"><ele>67.0</ele><time>2026-04-17T09:13:42Z</time></trkpt><trkpt lat="-23.186538891393226" lon="113.85797575759787"><ele>67.5</ele><time>2026-04-17T09:13:43Z</time></trkpt><trkpt lat="-23.186241793263857" lon="113.85799942342321"><ele>68.0</ele><time>2026-04-17T09:13:44Z</time></trkpt><trkpt lat="-23.185937556039015" lon="113.85802595591099"><ele>68.0</ele><time>2026-04-17T09:13:45Z</time></trkpt><trkpt lat="-23.185634967326187" lon="113.85805628872863"><ele>68.0</ele><time>2026-04-17T09:13:46Z</time></trkpt><trkpt lat="-23.185327120158956" lon="113.85808855548073"><ele>68.0</ele><time>2026-04-17T09:13:47Z</time></trkpt><trkpt lat="-23.185015031060754" lon="113.85811436554349"><ele>68.0</ele><time>2026-04-17T09:13:48Z</time></trkpt><trkpt lat="-23.184697900394585" lon="113.8581343604525"><ele>68.0</ele><time>2026-04-17T09:13:49Z</time></trkpt><trkpt lat="-23.18438147142233" lon="113.85815610789827"><ele>68.0</ele><time>2026-04-17T09:13:50Z</time></trkpt><trkpt lat="-23.18406533953943" lon="113.85818287998131"><ele>69.0</ele><time>2026-04-17T09:13:51Z</time></trkpt><trkpt lat="-23.183751048559085" lon="113.85821401376711"><ele>70.0</ele><time>2026-04-17T09:13:52Z</time></trkpt><trkpt lat="-23.183438244124257" lon="113.85824989802192"><ele>69.5</ele><time>2026-04-17T09:13:53Z</time></trkpt><trkpt lat="-23.183125349842957" lon="113.85829028146654"><ele>69.0</ele><time>2026-04-17T09:13:54Z</time></trkpt><trkpt lat="-23.182818866106317" lon="113.85833791637371"><ele>69.0</ele><time>2026-04-17T09:13:55Z</time></trkpt><trkpt lat="-23.182515181207638" lon="113.8583964950335"><ele>69.0</ele><time>2026-04-17T09:13:56Z</time></trkpt><trkpt lat="-23.182214335253803" lon="113.85846537456551"><ele>69.5</ele><time>2026-04-17T09:13:57Z</time></trkpt><trkpt lat="-23.18191554139466" lon="113.85854122081892"><ele>70.0</ele><time>2026-04-17T09:13:58Z</time></trkpt><trkpt lat="-23.181618579475728" lon="113.85862685607587"><ele>69.0</ele><time>2026-04-17T09:13:59Z</time></trkpt><trkpt lat="-23.1813180671136" lon="113.85871658062707"><ele>68.0</ele><time>2026-04-17T09:14:00Z</time></trkpt><trkpt lat="-23.18101364096732" lon="113.85880336311473"><ele>68.0</ele><time>2026-04-17T09:14:01Z</time></trkpt><trkpt lat="-23.180698402667968" lon="113.85888685502768"><ele>68.0</ele><time>2026-04-17T09:14:02Z</time></trkpt><trkpt lat="-23.180381433105673" lon="113.85896943417505"><ele>68.0</ele><time>2026-04-17T09:14:03Z</time></trkpt><trkpt lat="-23.180065191414887" lon="113.85905564491729"><ele>68.0</ele><time>2026-04-17T09:14:04Z</time></trkpt><trkpt lat="-23.179753894521703" lon="113.8591427730715"><ele>67.0</ele><time>2026-04-17T09:14:05Z</time></trkpt><trkpt lat="-23.179442441138708" lon="113.85922796310508"><ele>66.0</ele><time>2026-04-17T09:14:06Z</time></trkpt><trkpt lat="-23.17913599461117" lon="113.85931241771536"><ele>67.5</ele><time>2026-04-17T09:14:07Z</time></trkpt><trkpt lat="-23.17882595073818" lon="113.85939655488204"><ele>69.0</ele><time>2026-04-17T09:14:08Z</time></trkpt><trkpt lat="-23.178518313394715" lon="113.85948099993183"><ele>69.0</ele><time>2026-04-17T09:14:09Z</time></trkpt><trkpt lat="-23.178210487477948" lon="113.85956454864298"><ele>69.0</ele><time>2026-04-17T09:14:10Z</time></trkpt><trkpt lat="-23.177902546143752" lon="113.85964767539349"><ele>67.0</ele><time>2026-04-17T09:14:11Z</time></trkpt><trkpt lat="-23.177597014213877" lon="113.85973217568518"><ele>65.0</ele><time>2026-04-17T09:14:12Z</time></trkpt><trkpt lat="-23.17729072360796" lon="113.8598171983592"><ele>63.5</ele><time>2026-04-17T09:14:13Z</time></trkpt><trkpt lat="-23.176981280721176" lon="113.8599036356639"><ele>62.0</ele><time>2026-04-17T09:14:14Z</time></trkpt><trkpt lat="-23.176670181358418" lon="113.85999170039949"><ele>62.5</ele><time>2026-04-17T09:14:15Z</time></trkpt><trkpt lat="-23.176359693103063" lon="113.86008002638044"><ele>63.0</ele><time>2026-04-17T09:14:16Z</time></trkpt><trkpt lat="-23.176045772814323" lon="113.8601654156132"><ele>64.5</ele><time>2026-04-17T09:14:17Z</time></trkpt><trkpt lat="-23.175729512554618" lon="113.8602529137377"><ele>66.0</ele><time>2026-04-17T09:14:18Z</time></trkpt><trkpt lat="-23.175416132672222" lon="113.86033825410175"><ele>66.5</ele><time>2026-04-17T09:14:19Z</time></trkpt><trkpt lat="-23.175100703593355" lon="113.86042379547872"><ele>67.0</ele><time>2026-04-17T09:14:20Z</time></trkpt><trkpt lat="-23.17478459377307" lon="113.86050988952674"><ele>67.5</ele><time>2026-04-17T09:14:21Z</time></trkpt><trkpt lat="-23.17446751852242" lon="113.86059702052961"><ele>68.0</ele><time>2026-04-17T09:14:22Z</time></trkpt><trkpt lat="-23.17415163821146" lon="113.86068349861533"><ele>68.5</ele><time>2026-04-17T09:14:23Z</time></trkpt><trkpt lat="-23.17383755836751" lon="113.86077026134616"><ele>69.0</ele><time>2026-04-17T09:14:24Z</time></trkpt><trkpt lat="-23.173519657290164" lon="113.86085597037503"><ele>69.0</ele><time>2026-04-17T09:14:25Z</time></trkpt><trkpt lat="-23.17320086335954" lon="113.86094179008522"><ele>69.0</ele><time>2026-04-17T09:14:26Z</time></trkpt><trkpt lat="-23.17288026923517" lon="113.86102676182162"><ele>69.5</ele><time>2026-04-17T09:14:27Z</time></trkpt><trkpt lat="-23.17256098390845" lon="113.86111592539655"><ele>70.0</ele><time>2026-04-17T09:14:28Z</time></trkpt><trkpt lat="-23.172244313187914" lon="113.86120595264178"><ele>70.5</ele><time>2026-04-17T09:14:29Z</time></trkpt><trkpt lat="-23.171927999019868" lon="113.86129937944283"><ele>71.0</ele><time>2026-04-17T09:14:30Z</time></trkpt><trkpt lat="-23.17161359717946" lon="113.8613986311302"><ele>70.5</ele><time>2026-04-17T09:14:31Z</time></trkpt><trkpt lat="-23.171297029127032" lon="113.86150555733386"><ele>70.0</ele><time>2026-04-17T09:14:32Z</time></trkpt><trkpt lat="-23.170982160061378" lon="113.86161552644162"><ele>69.5</ele><time>2026-04-17T09:14:33Z</time></trkpt><trkpt lat="-23.170666951610205" lon="113.86173114390294"><ele>69.0</ele><time>2026-04-17T09:14:34Z</time></trkpt><trkpt lat="-23.170354682728174" lon="113.86185182283656"><ele>69.0</ele><time>2026-04-17T09:14:35Z</time></trkpt><trkpt lat="-23.170046634342604" lon="113.86197313791531"><ele>69.0</ele><time>2026-04-17T09:14:36Z</time></trkpt><trkpt lat="-23.16974012176018" lon="113.86209782758262"><ele>69.0</ele><time>2026-04-17T09:14:37Z</time></trkpt><trkpt lat="-23.169432837847257" lon="113.86222302298434"><ele>69.0</ele><time>2026-04-17T09:14:38Z</time></trkpt><trkpt lat="-23.16912345888664" lon="113.86234394452025"><ele>69.0</ele><time>2026-04-17T09:14:39Z</time></trkpt><trkpt lat="-23.16881357943889" lon="113.86246354305338"><ele>69.0</ele><time>2026-04-17T09:14:40Z</time></trkpt><trkpt lat="-23.16850098580906" lon="113.8625827710788"><ele>69.0</ele><time>2026-04-17T09:14:41Z</time></trkpt><trkpt lat="-23.168193244056365" lon="113.86269771628554"><ele>69.0</ele><time>2026-04-17T09:14:42Z</time></trkpt><trkpt lat="-23.16788854921878" lon="113.86281697046773"><ele>68.5</ele><time>2026-04-17T09:14:43Z</time></trkpt><trkpt lat="-23.16758417022835" lon="113.86293401870645"><ele>68.0</ele><time>2026-04-17T09:14:44Z</time></trkpt><trkpt lat="-23.167282131526143" lon="113.86305143545238"><ele>68.0</ele><time>2026-04-17T09:14:45Z</time></trkpt><trkpt lat="-23.16698309411007" lon="113.86316717020064"><ele>68.0</ele><time>2026-04-17T09:14:46Z</time></trkpt><trkpt lat="-23.166682818563835" lon="113.86328530733661"><ele>68.0</ele><time>2026-04-17T09:14:47Z</time></trkpt><trkpt lat="-23.16637992384324" lon="113.86340419251995"><ele>68.0</ele><time>2026-04-17T09:14:48Z</time></trkpt><trkpt lat="-23.16608165920118" lon="113.86352096472038"><ele>68.0</ele><time>2026-04-17T09:14:49Z</time></trkpt><trkpt lat="-23.16578087828779" lon="113.86363800073404"><ele>68.0</ele><time>2026-04-17T09:14:50Z</time></trkpt><trkpt lat="-23.16547954020707" lon="113.86375595462489"><ele>67.0</ele><time>2026-04-17T09:14:51Z</time></trkpt><trkpt lat="-23.16517844675656" lon="113.86387548819526"><ele>66.0</ele><time>2026-04-17T09:14:52Z</time></trkpt><trkpt lat="-23.164873656981467" lon="113.86399448929778"><ele>65.0</ele><time>2026-04-17T09:14:53Z</time></trkpt><trkpt lat="-23.164565858177596" lon="113.86411317060534"><ele>64.0</ele><time>2026-04-17T09:14:54Z</time></trkpt><trkpt lat="-23.164254708290123" lon="113.86423342854978"><ele>65.0</ele><time>2026-04-17T09:14:55Z</time></trkpt><trkpt lat="-23.163944422126068" lon="113.86435473798079"><ele>66.0</ele><time>2026-04-17T09:14:56Z</time></trkpt><trkpt lat="-23.163636026086785" lon="113.8644790431938"><ele>66.0</ele><time>2026-04-17T09:14:57Z</time></trkpt><trkpt lat="-23.16332689803189" lon="113.86460345983522"><ele>66.0</ele><time>2026-04-17T09:14:58Z</time></trkpt><trkpt lat="-23.16301873327302" lon="113.86472604070528"><ele>64.5</ele><time>2026-04-17T09:14:59Z</time></trkpt><trkpt lat="-23.16271236000331" lon="113.86484827225735"><ele>63.0</ele><time>2026-04-17T09:15:00Z</time></trkpt><trkpt lat="-23.1624062986742" lon="113.86497336479502"><ele>62.5</ele><time>2026-04-17T09:15:01Z</time></trkpt><trkpt lat="-23.16210260314206" lon="113.86509963351413"><ele>62.0</ele><time>2026-04-17T09:15:02Z</time></trkpt><trkpt lat="-23.16179721546546" lon="113.86522797921904"><ele>61.5</ele><time>2026-04-17T09:15:03Z</time></trkpt><trkpt lat="-23.161490811620673" lon="113.86535712177175"><ele>61.0</ele><time>2026-04-17T09:15:04Z</time></trkpt><trkpt lat="-23.161186007711045" lon="113.86548746023969"><ele>61.0</ele><time>2026-04-17T09:15:05Z</time></trkpt><trkpt lat="-23.160880319298574" lon="113.86561798347618"><ele>61.0</ele><time>2026-04-17T09:15:06Z</time></trkpt><trkpt lat="-23.160575272390368" lon="113.86574867326067"><ele>61.0</ele><time>2026-04-17T09:15:07Z</time></trkpt><trkpt lat="-23.160272265667867" lon="113.86587929565945"><ele>61.0</ele><time>2026-04-17T09:15:08Z</time></trkpt><trkpt lat="-23.159968125282663" lon="113.86600951855051"><ele>62.0</ele><time>2026-04-17T09:15:09Z</time></trkpt><trkpt lat="-23.15966478607759" lon="113.86613374431477"><ele>63.0</ele><time>2026-04-17T09:15:10Z</time></trkpt><trkpt lat="-23.15936483019336" lon="113.8662615702824"><ele>63.0</ele><time>2026-04-17T09:15:11Z</time></trkpt><trkpt lat="-23.159065150499977" lon="113.86638746093452"><ele>63.0</ele><time>2026-04-17T09:15:12Z</time></trkpt><trkpt lat="-23.158766387351072" lon="113.8665149817504"><ele>63.5</ele><time>2026-04-17T09:15:13Z</time></trkpt><trkpt lat="-23.158468961475744" lon="113.86664373872607"><ele>64.0</ele><time>2026-04-17T09:15:14Z</time></trkpt><trkpt lat="-23.158175336472752" lon="113.86676817250641"><ele>65.0</ele><time>2026-04-17T09:15:15Z</time></trkpt><trkpt lat="-23.157878474820723" lon="113.86689311269313"><ele>66.0</ele><time>2026-04-17T09:15:16Z</time></trkpt><trkpt lat="-23.157583257542285" lon="113.86701811605798"><ele>64.5</ele><time>2026-04-17T09:15:17Z</time></trkpt><trkpt lat="-23.157286324965934" lon="113.8671429640119"><ele>63.0</ele><time>2026-04-17T09:15:18Z</time></trkpt><trkpt lat="-23.1569854705862" lon="113.86726790357476"><ele>63.0</ele><time>2026-04-17T09:15:19Z</time></trkpt><trkpt lat="-23.156684101683087" lon="113.86739384983369"><ele>63.0</ele><time>2026-04-17T09:15:20Z</time></trkpt><trkpt lat="-23.15638511259915" lon="113.86752023701948"><ele>64.5</ele><time>2026-04-17T09:15:21Z</time></trkpt><trkpt lat="-23.15608408868591" lon="113.86765074247394"><ele>66.0</ele><time>2026-04-17T09:15:22Z</time></trkpt><trkpt lat="-23.155781968929375" lon="113.86777998273222"><ele>64.0</ele><time>2026-04-17T09:15:23Z</time></trkpt><trkpt lat="-23.15547581764352" lon="113.86790728086044"><ele>62.0</ele><time>2026-04-17T09:15:24Z</time></trkpt><trkpt lat="-23.155171687255564" lon="113.86803429467876"><ele>62.0</ele><time>2026-04-17T09:15:25Z</time></trkpt><trkpt lat="-23.15487520594549" lon="113.868159476423"><ele>62.0</ele><time>2026-04-17T09:15:26Z</time></trkpt><trkpt lat="-23.154581093327632" lon="113.8682844155434"><ele>62.5</ele><time>2026-04-17T09:15:27Z</time></trkpt><trkpt lat="-23.154292105863114" lon="113.86841292784885"><ele>63.0</ele><time>2026-04-17T09:15:28Z</time></trkpt><trkpt lat="-23.154001850738812" lon="113.86854032906784"><ele>63.0</ele><time>2026-04-17T09:15:29Z</time></trkpt><trkpt lat="-23.15370498532427" lon="113.86866025475206"><ele>63.0</ele><time>2026-04-17T09:15:30Z</time></trkpt><trkpt lat="-23.153404603775655" lon="113.86876992194635"><ele>62.5</ele><time>2026-04-17T09:15:31Z</time></trkpt><trkpt lat="-23.153101194701552" lon="113.86886784337317"><ele>62.0</ele><time>2026-04-17T09:15:32Z</time></trkpt><trkpt lat="-23.15279370406203" lon="113.86895735301863"><ele>62.0</ele><time>2026-04-17T09:15:33Z</time></trkpt><trkpt lat="-23.152485056569546" lon="113.86903607074599"><ele>62.0</ele><time>2026-04-17T09:15:34Z</time></trkpt><trkpt lat="-23.15217537074319" lon="113.86910093951734"><ele>62.0</ele><time>2026-04-17T09:15:35Z</time></trkpt><trkpt lat="-23.15186679053787" lon="113.8691475780643"><ele>62.0</ele><time>2026-04-17T09:15:36Z</time></trkpt><trkpt lat="-23.15155396176432" lon="113.8691835458917"><ele>63.0</ele><time>2026-04-17T09:15:37Z</time></trkpt><trkpt lat="-23.15123713969906" lon="113.8692111850211"><ele>64.0</ele><time>2026-04-17T09:15:38Z</time></trkpt><trkpt lat="-23.150920803270385" lon="113.86922992638733"><ele>63.5</ele><time>2026-04-17T09:15:39Z</time></trkpt><trkpt lat="-23.150603054076097" lon="113.86924531359787"><ele>63.0</ele><time>2026-04-17T09:15:40Z</time></trkpt><trkpt lat="-23.15028274120446" lon="113.86926024242428"><ele>62.5</ele><time>2026-04-17T09:15:41Z</time></trkpt><trkpt lat="-23.149964377780577" lon="113.86927656746087"><ele>62.0</ele><time>2026-04-17T09:15:42Z</time></trkpt><trkpt lat="-23.149649399055832" lon="113.86929645498115"><ele>61.5</ele><time>2026-04-17T09:15:43Z</time></trkpt><trkpt lat="-23.14933368375742" lon="113.86931577611135"><ele>61.0</ele><time>2026-04-17T09:15:44Z</time></trkpt><trkpt lat="-23.149021564804634" lon="113.86933139302683"><ele>61.0</ele><time>2026-04-17T09:15:45Z</time></trkpt><trkpt lat="-23.148711614430418" lon="113.86935185041061"><ele>61.0</ele><time>2026-04-17T09:15:46Z</time></trkpt><trkpt lat="-23.14840473818393" lon="113.86937173879538"><ele>61.5</ele><time>2026-04-17T09:15:47Z</time></trkpt><trkpt lat="-23.14810311934057" lon="113.86939285961564"><ele>62.0</ele><time>2026-04-17T09:15:48Z</time></trkpt><trkpt lat="-23.14780589282407" lon="113.86941586733818"><ele>62.0</ele><time>2026-04-17T09:15:49Z</time></trkpt><trkpt lat="-23.147508344934366" lon="113.8694375575121"><ele>62.0</ele><time>2026-04-17T09:15:50Z</time></trkpt><trkpt lat="-23.147213780768723" lon="113.86945796701549"><ele>63.0</ele><time>2026-04-17T09:15:51Z</time></trkpt><trkpt lat="-23.14691656153816" lon="113.86947656311737"><ele>64.0</ele><time>2026-04-17T09:15:52Z</time></trkpt><trkpt lat="-23.146612892697934" lon="113.86949451105444"><ele>64.5</ele><time>2026-04-17T09:15:53Z</time></trkpt><trkpt lat="-23.1463047875199" lon="113.86951392473021"><ele>65.0</ele><time>2026-04-17T09:15:54Z</time></trkpt><trkpt lat="-23.14599539522488" lon="113.86953472883518"><ele>65.0</ele><time>2026-04-17T09:15:55Z</time></trkpt><trkpt lat="-23.145682753164643" lon="113.86955621663215"><ele>65.0</ele><time>2026-04-17T09:15:56Z</time></trkpt><trkpt lat="-23.145364600788064" lon="113.86957853524764"><ele>65.0</ele><time>2026-04-17T09:15:57Z</time></trkpt><trkpt lat="-23.145040834096477" lon="113.86959882470951"><ele>65.0</ele><time>2026-04-17T09:15:58Z</time></trkpt><trkpt lat="-23.144721740588988" lon="113.86961665751151"><ele>63.5</ele><time>2026-04-17T09:15:59Z</time></trkpt><trkpt lat="-23.144398848178906" lon="113.86963655606463"><ele>62.0</ele><time>2026-04-17T09:16:00Z</time></trkpt><trkpt lat="-23.144076564290263" lon="113.8696576036177"><ele>61.0</ele><time>2026-04-17T09:16:01Z</time></trkpt><trkpt lat="-23.14375164074858" lon="113.86968097114126"><ele>60.0</ele><time>2026-04-17T09:16:02Z</time></trkpt><trkpt lat="-23.1434263752888" lon="113.8697038557953"><ele>61.0</ele><time>2026-04-17T09:16:03Z</time></trkpt><trkpt lat="-23.14310220994566" lon="113.86972382999302"><ele>62.0</ele><time>2026-04-17T09:16:04Z</time></trkpt><trkpt lat="-23.142777713213615" lon="113.86974463997906"><ele>62.0</ele><time>2026-04-17T09:16:05Z</time></trkpt><trkpt lat="-23.142453602572562" lon="113.86976752547491"><ele>62.0</ele><time>2026-04-17T09:16:06Z</time></trkpt><trkpt lat="-23.14213008770492" lon="113.86978929032995"><ele>61.5</ele><time>2026-04-17T09:16:07Z</time></trkpt><trkpt lat="-23.141805396230435" lon="113.8698096163116"><ele>61.0</ele><time>2026-04-17T09:16:08Z</time></trkpt><trkpt lat="-23.1414835889706" lon="113.8698303846461"><ele>61.0</ele><time>2026-04-17T09:16:09Z</time></trkpt><trkpt lat="-23.141158294735824" lon="113.86985209717064"><ele>61.0</ele><time>2026-04-17T09:16:10Z</time></trkpt><trkpt lat="-23.140831528799946" lon="113.8698758232204"><ele>61.5</ele><time>2026-04-17T09:16:11Z</time></trkpt><trkpt lat="-23.140504305734996" lon="113.86989983602903"><ele>62.0</ele><time>2026-04-17T09:16:12Z</time></trkpt><trkpt lat="-23.140178558120578" lon="113.86992068865484"><ele>63.0</ele><time>2026-04-17T09:16:13Z</time></trkpt><trkpt lat="-23.13985301987422" lon="113.86994202109325"><ele>64.0</ele><time>2026-04-17T09:16:14Z</time></trkpt><trkpt lat="-23.13952765788503" lon="113.86996238135326"><ele>64.0</ele><time>2026-04-17T09:16:15Z</time></trkpt><trkpt lat="-23.13920332175303" lon="113.86998686145517"><ele>64.0</ele><time>2026-04-17T09:16:16Z</time></trkpt><trkpt lat="-23.138880417882103" lon="113.87000940903324"><ele>65.0</ele><time>2026-04-17T09:16:17Z</time></trkpt><trkpt lat="-23.13855708741592" lon="113.87003100152049"><ele>66.0</ele><time>2026-04-17T09:16:18Z</time></trkpt><trkpt lat="-23.13822934415863" lon="113.87004975981986"><ele>65.5</ele><time>2026-04-17T09:16:19Z</time></trkpt><trkpt lat="-23.137899282603787" lon="113.87006937796805"><ele>65.0</ele><time>2026-04-17T09:16:20Z</time></trkpt><trkpt lat="-23.13757093694777" lon="113.87008652238782"><ele>64.5</ele><time>2026-04-17T09:16:21Z</time></trkpt><trkpt lat="-23.137246829861084" lon="113.8701094791699"><ele>64.0</ele><time>2026-04-17T09:16:22Z</time></trkpt><trkpt lat="-23.13692181811106" lon="113.87013383942585"><ele>64.0</ele><time>2026-04-17T09:16:23Z</time></trkpt><trkpt lat="-23.136597081229112" lon="113.8701571010665"><ele>64.0</ele><time>2026-04-17T09:16:24Z</time></trkpt><trkpt lat="-23.13627340260728" lon="113.87017715173575"><ele>64.0</ele><time>2026-04-17T09:16:25Z</time></trkpt><trkpt lat="-23.13594897909502" lon="113.87019705005277"><ele>64.0</ele><time>2026-04-17T09:16:26Z</time></trkpt><trkpt lat="-23.13562538937252" lon="113.87021750500573"><ele>63.0</ele><time>2026-04-17T09:16:27Z</time></trkpt><trkpt lat="-23.135297091582327" lon="113.87023964854737"><ele>62.0</ele><time>2026-04-17T09:16:28Z</time></trkpt><trkpt lat="-23.13497025719704" lon="113.87026029619977"><ele>61.0</ele><time>2026-04-17T09:16:29Z</time></trkpt><trkpt lat="-23.134642433765258" lon="113.87028091964577"><ele>60.0</ele><time>2026-04-17T09:16:30Z</time></trkpt><trkpt lat="-23.134312633279443" lon="113.87030451932738"><ele>61.0</ele><time>2026-04-17T09:16:31Z</time></trkpt><trkpt lat="-23.133987366235228" lon="113.8703267115041"><ele>62.0</ele><time>2026-04-17T09:16:32Z</time></trkpt><trkpt lat="-23.133664717565566" lon="113.87035061318034"><ele>62.0</ele><time>2026-04-17T09:16:33Z</time></trkpt><trkpt lat="-23.133342474453546" lon="113.870371386898"><ele>62.0</ele><time>2026-04-17T09:16:34Z</time></trkpt><trkpt lat="-23.133019968806238" lon="113.87039280306746"><ele>62.0</ele><time>2026-04-17T09:16:35Z</time></trkpt><trkpt lat="-23.132703577159788" lon="113.87041852553911"><ele>62.0</ele><time>2026-04-17T09:16:36Z</time></trkpt><trkpt lat="-23.132383173915773" lon="113.87044865315141"><ele>62.0</ele><time>2026-04-17T09:16:37Z</time></trkpt><trkpt lat="-23.132063420097733" lon="113.8704836219302"><ele>62.0</ele><time>2026-04-17T09:16:38Z</time></trkpt><trkpt lat="-23.13173907963766" lon="113.87052414863743"><ele>61.5</ele><time>2026-04-17T09:16:39Z</time></trkpt><trkpt lat="-23.13141462567341" lon="113.87057406614181"><ele>61.0</ele><time>2026-04-17T09:16:40Z</time></trkpt><trkpt lat="-23.131090102550413" lon="113.87062922579449"><ele>61.0</ele><time>2026-04-17T09:16:41Z</time></trkpt><trkpt lat="-23.130764462924322" lon="113.87068756751674"><ele>61.0</ele><time>2026-04-17T09:16:42Z</time></trkpt><trkpt lat="-23.13044048664545" lon="113.8707437769942"><ele>63.0</ele><time>2026-04-17T09:16:43Z</time></trkpt><trkpt lat="-23.13011548400951" lon="113.87080045910204"><ele>65.0</ele><time>2026-04-17T09:16:44Z</time></trkpt><trkpt lat="-23.12979367056066" lon="113.87085365045952"><ele>65.5</ele><time>2026-04-17T09:16:45Z</time></trkpt><trkpt lat="-23.12947298616576" lon="113.87090737550216"><ele>66.0</ele><time>2026-04-17T09:16:46.001Z</time></trkpt><trkpt lat="-23.129156245948284" lon="113.87096075360364"><ele>63.5</ele><time>2026-04-17T09:16:47.001Z</time></trkpt><trkpt lat="-23.128842180407712" lon="113.87101416258069"><ele>61.0</ele><time>2026-04-17T09:16:48.001Z</time></trkpt><trkpt lat="-23.128525720664552" lon="113.87106756315187"><ele>61.5</ele><time>2026-04-17T09:16:49.001Z</time></trkpt><trkpt lat="-23.128204046846985" lon="113.87112269476964"><ele>62.0</ele><time>2026-04-17T09:16:50.001Z</time></trkpt><trkpt lat="-23.12787910908232" lon="113.87117584597472"><ele>62.0</ele><time>2026-04-17T09:16:51.001Z</time></trkpt><trkpt lat="-23.127554587219457" lon="113.87122900344127"><ele>62.0</ele><time>2026-04-17T09:16:52.001Z</time></trkpt><trkpt lat="-23.127231234597687" lon="113.87128547689024"><ele>62.5</ele><time>2026-04-17T09:16:53.001Z</time></trkpt><trkpt lat="-23.12690892909835" lon="113.8713424824787"><ele>63.0</ele><time>2026-04-17T09:16:54.001Z</time></trkpt><trkpt lat="-23.12658407171094" lon="113.87139678781546"><ele>63.0</ele><time>2026-04-17T09:16:55.001Z</time></trkpt><trkpt lat="-23.12625989623761" lon="113.87144981081589"><ele>63.0</ele><time>2026-04-17T09:16:56.001Z</time></trkpt><trkpt lat="-23.125935500241056" lon="113.8715024407428"><ele>62.0</ele><time>2026-04-17T09:16:57.001Z</time></trkpt><trkpt lat="-23.12561560132556" lon="113.87155522477445"><ele>61.0</ele><time>2026-04-17T09:16:58.001Z</time></trkpt><trkpt lat="-23.125297734915137" lon="113.87161251133328"><ele>61.0</ele><time>2026-04-17T09:16:59.001Z</time></trkpt><trkpt lat="-23.124982572768243" lon="113.8716694992987"><ele>61.0</ele><time>2026-04-17T09:17:00.001Z</time></trkpt><trkpt lat="-23.12467224622192" lon="113.87172711222516"><ele>59.5</ele><time>2026-04-17T09:17:01.001Z</time></trkpt><trkpt lat="-23.124361139336976" lon="113.87178308955994"><ele>58.0</ele><time>2026-04-17T09:17:02.001Z</time></trkpt><trkpt lat="-23.124048057045268" lon="113.87183506088516"><ele>58.0</ele><time>2026-04-17T09:17:03.001Z</time></trkpt><trkpt lat="-23.12373408245013" lon="113.87188499481007"><ele>58.0</ele><time>2026-04-17T09:17:04.001Z</time></trkpt><trkpt lat="-23.123418080440366" lon="113.87193433529102"><ele>59.0</ele><time>2026-04-17T09:17:05.001Z</time></trkpt><trkpt lat="-23.123103084138172" lon="113.87198671743975"><ele>60.0</ele><time>2026-04-17T09:17:06.001Z</time></trkpt><trkpt lat="-23.122786762990746" lon="113.87204200005228"><ele>60.0</ele><time>2026-04-17T09:17:07.001Z</time></trkpt><trkpt lat="-23.122467439880523" lon="113.8720981547575"><ele>60.0</ele><time>2026-04-17T09:17:08.001Z</time></trkpt><trkpt lat="-23.122161672669417" lon="113.8721500778061"><ele>59.5</ele><time>2026-04-17T09:17:09.001Z</time></trkpt><trkpt lat="-23.12187128920553" lon="113.87219974151974"><ele>59.0</ele><time>2026-04-17T09:17:10.001Z</time></trkpt><trkpt lat="-23.121600586325705" lon="113.87224543221758"><ele>59.0</ele><time>2026-04-17T09:17:11.001Z</time></trkpt><trkpt lat="-23.12133272485551" lon="113.87229051155013"><ele>59.0</ele><time>2026-04-17T09:17:12.001Z</time></trkpt><trkpt lat="-23.121061728630885" lon="113.87233644028228"><ele>59.0</ele><time>2026-04-17T09:17:13.001Z</time></trkpt><trkpt lat="-23.120784560134226" lon="113.87238430579588"><ele>59.0</ele><time>2026-04-17T09:17:14.001Z</time></trkpt><trkpt lat="-23.12050590420654" lon="113.87243126643293"><ele>59.0</ele><time>2026-04-17T09:17:15.001Z</time></trkpt><trkpt lat="-23.120224504870794" lon="113.87247688903763"><ele>59.0</ele><time>2026-04-17T09:17:16.001Z</time></trkpt><trkpt lat="-23.119941996754477" lon="113.8725224506285"><ele>60.0</ele><time>2026-04-17T09:17:17.001Z</time></trkpt><trkpt lat="-23.119665769760733" lon="113.87256708877847"><ele>61.0</ele><time>2026-04-17T09:17:18.001Z</time></trkpt><trkpt lat="-23.11939188975543" lon="113.8726123464707"><ele>59.5</ele><time>2026-04-17T09:17:19.001Z</time></trkpt><trkpt lat="-23.11912244993744" lon="113.87266158634571"><ele>58.0</ele><time>2026-04-17T09:17:20.001Z</time></trkpt><trkpt lat="-23.11885039956003" lon="113.87271076569574"><ele>58.0</ele><time>2026-04-17T09:17:21Z</time></trkpt><trkpt lat="-23.118583115425967" lon="113.87275947865912"><ele>58.0</ele><time>2026-04-17T09:17:22Z</time></trkpt><trkpt lat="-23.118316894814924" lon="113.87280612356683"><ele>58.0</ele><time>2026-04-17T09:17:23Z</time></trkpt><trkpt lat="-23.118048227821895" lon="113.8728489752252"><ele>58.0</ele><time>2026-04-17T09:17:24Z</time></trkpt><trkpt lat="-23.11777829174886" lon="113.87289177856539"><ele>63.0</ele><time>2026-04-17T09:17:25Z</time></trkpt><trkpt lat="-23.127231234597687" lon="113.87128547689024"><ele>63.0</ele><time>2026-04-17T09:16:53.001Z</time></trkpt><trkpt lat="-23.12690892909835" lon="113.8713424824787"><ele>63.0</ele><time>2026-04-17T09:16:54.001Z</time></trkpt><trkpt lat="-23.12658407171094" lon="113.87139678781546"><ele>63.0</ele><time>2026-04-17T09:16:55.001Z</time></trkpt><trkpt lat="-23.12625989623761" lon="113.87144981081589"><ele>63.0</ele><time>2026-04-17T09:16:56.001Z</time></trkpt><trkpt lat="-23.125935500241056" lon="113.8715024407428"><ele>62.0</ele><time>2026-04-17T09:16:57.001Z</time></trkpt><trkpt lat="-23.12561560132556" lon="113.87155522477445"><ele>61.0</ele><time>2026-04-17T09:16:58.001Z</time></trkpt><trkpt lat="-23.125297734915137" lon="113.87161251133328"><ele>61.0</ele><time>2026-04-17T09:16:59.001Z</time></trkpt><trkpt lat="-23.124982572768243" lon="113.8716694992987"><ele>61.0</ele><time>2026-04-17T09:17:00.001Z</time></trkpt><trkpt lat="-23.12467224622192" lon="113.87172711222516"><ele>59.5</ele><time>2026-04-17T09:17:01.001Z</time></trkpt><trkpt lat="-23.124361139336976" lon="113.87178308955994"><ele>58.0</ele><time>2026-04-17T09:17:02.001Z</time></trkpt><trkpt lat="-23.124048057045268" lon="113.87183506088516"><ele>58.0</ele><time>2026-04-17T09:17:03.001Z</time></trkpt><trkpt lat="-23.12373408245013" lon="113.87188499481007"><ele>58.0</ele><time>2026-04-17T09:17:04.001Z</time></trkpt><trkpt lat="-23.123418080440366" lon="113.87193433529102"><ele>59.0</ele><time>2026-04-17T09:17:05.001Z</time></trkpt><trkpt lat="-23.123103084138172" lon="113.87198671743975"><ele>60.0</ele><time>2026-04-17T09:17:06.001Z</time></trkpt><trkpt lat="-23.122786762990746" lon="113.87204200005228"><ele>60.0</ele><time>2026-04-17T09:17:07.001Z</time></trkpt><trkpt lat="-23.122467439880523" lon="113.8720981547575"><ele>60.0</ele><time>2026-04-17T09:17:08.001Z</time></trkpt><trkpt lat="-23.122161672669417" lon="113.8721500778061"><ele>59.5</ele><time>2026-04-17T09:17:09.001Z</time></trkpt><trkpt lat="-23.12187128920553" lon="113.87219974151974"><ele>59.0</ele><time>2026-04-17T09:17:10.001Z</time></trkpt><trkpt lat="-23.121600586325705" lon="113.87224543221758"><ele>59.0</ele><time>2026-04-17T09:17:11.001Z</time></trkpt><trkpt lat="-23.12133272485551" lon="113.87229051155013"><ele>59.0</ele><time>2026-04-17T09:17:12.001Z</time></trkpt><trkpt lat="-23.121061728630885" lon="113.87233644028228"><ele>59.0</ele><time>2026-04-17T09:17:13.001Z</time></trkpt><trkpt lat="-23.120784560134226" lon="113.87238430579588"><ele>59.0</ele><time>2026-04-17T09:17:14.001Z</time></trkpt><trkpt lat="-23.12050590420654" lon="113.87243126643293"><ele>59.0</ele><time>2026-04-17T09:17:15.001Z</time></trkpt><trkpt lat="-23.120224504870794" lon="113.87247688903763"><ele>59.0</ele><time>2026-04-17T09:17:16.001Z</time></trkpt><trkpt lat="-23.119941996754477" lon="113.8725224506285"><ele>60.0</ele><time>2026-04-17T09:17:17.001Z</time></trkpt><trkpt lat="-23.119665769760733" lon="113.87256708877847"><ele>61.0</ele><time>2026-04-17T09:17:18.001Z</time></trkpt><trkpt lat="-23.11939188975543" lon="113.8726123464707"><ele>59.5</ele><time>2026-04-17T09:17:19.001Z</time></trkpt><trkpt lat="-23.11912244993744" lon="113.87266158634571"><ele>58.0</ele><time>2026-04-17T09:17:20.001Z</time></trkpt><trkpt lat="-23.11885039956003" lon="113.87271076569574"><ele>58.0</ele><time>2026-04-17T09:17:21Z</time></trkpt><trkpt lat="-23.118583115425967" lon="113.87275947865912"><ele>58.0</ele><time>2026-04-17T09:17:22Z</time></trkpt><trkpt lat="-23.118316894814924" lon="113.87280612356683"><ele>58.0</ele><time>2026-04-17T09:17:23Z</time></trkpt><trkpt lat="-23.118048227821895" lon="113.8728489752252"><ele>58.0</ele><time>2026-04-17T09:17:24Z</time></trkpt><trkpt lat="-23.11777829174886" lon="113.87289177856539"><ele>58.0</ele><time>2026-04-17T09:17:25Z</time></trkpt><trkpt lat="-23.117512910321842" lon="113.87293994869843"><ele>58.0</ele><time>2026-04-17T09:17:26Z</time></trkpt><trkpt lat="-23.117251818585626" lon="113.87298630012181"><ele>57.0</ele><time>2026-04-17T09:17:27Z</time></trkpt><trkpt lat="-23.116998178287055" lon="113.87302859264591"><ele>56.0</ele><time>2026-04-17T09:17:28Z</time></trkpt><trkpt lat="-23.116751884255837" lon="113.87306846749468"><ele>57.0</ele><time>2026-04-17T09:17:29Z</time></trkpt><trkpt lat="-23.116517787077047" lon="113.87310805777523"><ele>58.0</ele><time>2026-04-17T09:17:30Z</time></trkpt><trkpt lat="-23.11629357449689" lon="113.87314699861697"><ele>58.0</ele><time>2026-04-17T09:17:31Z</time></trkpt><trkpt lat="-23.116089542546042" lon="113.8731836986421"><ele>58.0</ele><time>2026-04-17T09:17:32Z</time></trkpt><trkpt lat="-23.115909596662302" lon="113.87321519678595"><ele>58.0</ele><time>2026-04-17T09:17:33Z</time></trkpt><trkpt lat="-23.115749555998047" lon="113.87324204973017"><ele>59.0</ele><time>2026-04-17T09:17:34Z</time></trkpt><trkpt lat="-23.115585815476734" lon="113.87326928880717"><ele>60.0</ele><time>2026-04-17T09:17:35Z</time></trkpt><trkpt lat="-23.115414019722845" lon="113.87329971857635"><ele>61.0</ele><time>2026-04-17T09:17:36Z</time></trkpt><trkpt lat="-23.11523131234105" lon="113.87332973896883"><ele>61.0</ele><time>2026-04-17T09:17:37Z</time></trkpt><trkpt lat="-23.115040710078222" lon="113.87335996356052"><ele>61.0</ele><time>2026-04-17T09:17:38Z</time></trkpt><trkpt lat="-23.11484983257881" lon="113.87338986677294"><ele>61.0</ele><time>2026-04-17T09:17:39Z</time></trkpt><trkpt lat="-23.114657936120466" lon="113.87341937269052"><ele>59.33333333333333</ele><time>2026-04-17T09:17:40Z</time></trkpt><trkpt lat="-23.11446202455905" lon="113.87344613834836"><ele>57.66666666666667</ele><time>2026-04-17T09:17:41Z</time></trkpt><trkpt lat="-23.114271794794703" lon="113.87347109319474"><ele>56.0</ele><time>2026-04-17T09:17:42Z</time></trkpt><trkpt lat="-23.11409094828481" lon="113.87349324713216"><ele>56.333333333333336</ele><time>2026-04-17T09:17:43Z</time></trkpt><trkpt lat="-23.113918906115703" lon="113.87351828361415"><ele>56.66666666666667</ele><time>2026-04-17T09:17:44Z</time></trkpt><trkpt lat="-23.113757011482626" lon="113.87354921609338"><ele>57.0</ele><time>2026-04-17T09:17:45Z</time></trkpt><trkpt lat="-23.113616817861825" lon="113.87357953818216"><ele>57.0</ele><time>2026-04-17T09:17:46Z</time></trkpt><trkpt lat="-23.11347566499567" lon="113.8736086434216"><ele>57.0</ele><time>2026-04-17T09:17:47Z</time></trkpt><trkpt lat="-23.11334657331969" lon="113.87363155648912"><ele>57.0</ele><time>2026-04-17T09:17:48Z</time></trkpt><trkpt lat="-23.113234877120597" lon="113.87363485437686"><ele>57.0</ele><time>2026-04-17T09:17:49Z</time></trkpt><trkpt lat="-23.11314782092439" lon="113.87361838152914"><ele>57.400000000000006</ele><time>2026-04-17T09:17:50Z</time></trkpt><trkpt lat="-23.113069980402507" lon="113.87356645199138"><ele>57.800000000000004</ele><time>2026-04-17T09:17:51Z</time></trkpt><trkpt lat="-23.11300832046239" lon="113.8734962969278"><ele>58.2</ele><time>2026-04-17T09:17:52Z</time></trkpt><trkpt lat="-23.112969413124258" lon="113.87340635814978"><ele>58.6</ele><time>2026-04-17T09:17:53Z</time></trkpt><trkpt lat="-23.112960361686294" lon="113.87330209729544"><ele>59.0</ele><time>2026-04-17T09:17:54Z</time></trkpt><trkpt lat="-23.112989717955347" lon="113.8731733720511"><ele>59.66666666666667</ele><time>2026-04-17T09:17:55Z</time></trkpt><trkpt lat="-23.11303503754515" lon="113.87303345309108"><ele>60.33333333333333</ele><time>2026-04-17T09:17:56Z</time></trkpt><trkpt lat="-23.113089872513566" lon="113.87287539286564"><ele>61.0</ele><time>2026-04-17T09:17:57Z</time></trkpt><trkpt lat="-23.11314337797513" lon="113.87270553469048"><ele>61.33333333333333</ele><time>2026-04-17T09:17:58Z</time></trkpt><trkpt lat="-23.113202149933805" lon="113.87251624742983"><ele>61.66666666666667</ele><time>2026-04-17T09:17:59Z</time></trkpt><trkpt lat="-23.113265650397114" lon="113.87231093747575"><ele>62.0</ele><time>2026-04-17T09:18:00Z</time></trkpt><trkpt lat="-23.1133316540022" lon="113.87209356744965"><ele>62.0</ele><time>2026-04-17T09:18:01Z</time></trkpt><trkpt lat="-23.113395281506286" lon="113.87187570270079"><ele>62.0</ele><time>2026-04-17T09:18:02Z</time></trkpt><trkpt lat="-23.113457346839212" lon="113.87165137704424"><ele>62.0</ele><time>2026-04-17T09:18:03Z</time></trkpt><trkpt lat="-23.11352191138646" lon="113.87141552978895"><ele>62.0</ele><time>2026-04-17T09:18:04Z</time></trkpt><trkpt lat="-23.113588154996243" lon="113.87117294128791"><ele>62.0</ele><time>2026-04-17T09:18:05Z</time></trkpt><trkpt lat="-23.113652578970964" lon="113.87094043660248"><ele>61.0</ele><time>2026-04-17T09:18:06Z</time></trkpt><trkpt lat="-23.113719642825767" lon="113.87069911528937"><ele>60.0</ele><time>2026-04-17T09:18:07Z</time></trkpt><trkpt lat="-23.11378709975365" lon="113.8704565458578"><ele>60.0</ele><time>2026-04-17T09:18:08Z</time></trkpt><trkpt lat="-23.113855652913752" lon="113.87021254847362"><ele>60.0</ele><time>2026-04-17T09:18:09Z</time></trkpt><trkpt lat="-23.113928189510233" lon="113.86995937616919"><ele>59.0</ele><time>2026-04-17T09:18:10Z</time></trkpt><trkpt lat="-23.114003247356635" lon="113.86970268358807"><ele>58.0</ele><time>2026-04-17T09:18:11Z</time></trkpt><trkpt lat="-23.114079710356144" lon="113.8694490843301"><ele>59.0</ele><time>2026-04-17T09:18:12Z</time></trkpt><trkpt lat="-23.11415669907431" lon="113.86919428016716"><ele>60.0</ele><time>2026-04-17T09:18:13Z</time></trkpt><trkpt lat="-23.114234429470205" lon="113.86893871601544"><ele>60.0</ele><time>2026-04-17T09:18:14Z</time></trkpt><trkpt lat="-23.114309754044225" lon="113.86868236658019"><ele>60.0</ele><time>2026-04-17T09:18:15Z</time></trkpt><trkpt lat="-23.114387474805" lon="113.86842546020749"><ele>60.0</ele><time>2026-04-17T09:18:16Z</time></trkpt><trkpt lat="-23.11445937392203" lon="113.86817074782478"><ele>60.0</ele><time>2026-04-17T09:18:17Z</time></trkpt><trkpt lat="-23.114528848032577" lon="113.86791570629798"><ele>60.0</ele><time>2026-04-17T09:18:18Z</time></trkpt><trkpt lat="-23.114603339041746" lon="113.8676553600087"><ele>60.0</ele><time>2026-04-17T09:18:19Z</time></trkpt><trkpt lat="-23.114678374264997" lon="113.8673939486715"><ele>59.5</ele><time>2026-04-17T09:18:20Z</time></trkpt><trkpt lat="-23.114754381643124" lon="113.86712624035334"><ele>59.0</ele><time>2026-04-17T09:18:21Z</time></trkpt><trkpt lat="-23.114828705644673" lon="113.86686604221937"><ele>60.0</ele><time>2026-04-17T09:18:22Z</time></trkpt><trkpt lat="-23.11490417890325" lon="113.8666102221086"><ele>61.0</ele><time>2026-04-17T09:18:23Z</time></trkpt><trkpt lat="-23.114981515201514" lon="113.8663516552453"><ele>61.0</ele><time>2026-04-17T09:18:24Z</time></trkpt><trkpt lat="-23.115056698748074" lon="113.8660922495832"><ele>61.0</ele><time>2026-04-17T09:18:25Z</time></trkpt><trkpt lat="-23.11512906224318" lon="113.865836955075"><ele>61.5</ele><time>2026-04-17T09:18:26Z</time></trkpt><trkpt lat="-23.115200095234627" lon="113.86557704207874"><ele>62.0</ele><time>2026-04-17T09:18:27Z</time></trkpt><trkpt lat="-23.115272572566763" lon="113.86531624993144"><ele>63.5</ele><time>2026-04-17T09:18:28Z</time></trkpt><trkpt lat="-23.115348248331824" lon="113.86505553984553"><ele>65.0</ele><time>2026-04-17T09:18:29Z</time></trkpt><trkpt lat="-23.115424620386026" lon="113.86478904375062"><ele>65.0</ele><time>2026-04-17T09:18:30Z</time></trkpt><trkpt lat="-23.115502375372614" lon="113.86452221420514"><ele>65.0</ele><time>2026-04-17T09:18:31Z</time></trkpt><trkpt lat="-23.11558227595411" lon="113.86425497770526"><ele>64.0</ele><time>2026-04-17T09:18:32Z</time></trkpt><trkpt lat="-23.115664431609524" lon="113.86398459465549"><ele>63.0</ele><time>2026-04-17T09:18:33Z</time></trkpt><trkpt lat="-23.11574676017077" lon="113.86371417790008"><ele>65.5</ele><time>2026-04-17T09:18:34Z</time></trkpt><trkpt lat="-23.115825131013285" lon="113.86344220811232"><ele>68.0</ele><time>2026-04-17T09:18:35Z</time></trkpt><trkpt lat="-23.115897127987854" lon="113.86316978374883"><ele>68.0</ele><time>2026-04-17T09:18:36Z</time></trkpt><trkpt lat="-23.11596508141571" lon="113.86289493106574"><ele>68.0</ele><time>2026-04-17T09:18:37Z</time></trkpt><trkpt lat="-23.116026483575517" lon="113.86261351948936"><ele>67.5</ele><time>2026-04-17T09:18:38Z</time></trkpt><trkpt lat="-23.116074789975123" lon="113.86232679201338"><ele>67.0</ele><time>2026-04-17T09:18:39Z</time></trkpt><trkpt lat="-23.116110446244164" lon="113.86203627264321"><ele>66.5</ele><time>2026-04-17T09:18:40Z</time></trkpt><trkpt lat="-23.11613287496031" lon="113.86174243626189"><ele>66.0</ele><time>2026-04-17T09:18:41Z</time></trkpt><trkpt lat="-23.11614814789611" lon="113.86144904924129"><ele>66.0</ele><time>2026-04-17T09:18:42Z</time></trkpt><trkpt lat="-23.116159114984672" lon="113.86115345583583"><ele>66.0</ele><time>2026-04-17T09:18:43Z</time></trkpt><trkpt lat="-23.116160595203677" lon="113.86085932439175"><ele>67.0</ele><time>2026-04-17T09:18:44Z</time></trkpt><trkpt lat="-23.11615532207456" lon="113.86056486286611"><ele>68.0</ele><time>2026-04-17T09:18:45Z</time></trkpt><trkpt lat="-23.116141413817704" lon="113.86026811795493"><ele>65.5</ele><time>2026-04-17T09:18:46Z</time></trkpt><trkpt lat="-23.116120217139915" lon="113.85997277213627"><ele>63.0</ele><time>2026-04-17T09:18:47Z</time></trkpt><trkpt lat="-23.116096434699685" lon="113.85967903771756"><ele>63.0</ele><time>2026-04-17T09:18:48Z</time></trkpt><trkpt lat="-23.116075189668386" lon="113.85938203651725"><ele>63.0</ele><time>2026-04-17T09:18:49Z</time></trkpt><trkpt lat="-23.116056745063723" lon="113.85908474882048"><ele>62.0</ele><time>2026-04-17T09:18:50Z</time></trkpt><trkpt lat="-23.1160381759652" lon="113.85878369694407"><ele>61.0</ele><time>2026-04-17T09:18:51Z</time></trkpt><trkpt lat="-23.116020615232816" lon="113.85848399481362"><ele>59.0</ele><time>2026-04-17T09:18:52.001Z</time></trkpt><trkpt lat="-23.116003251591597" lon="113.8581843414702"><ele>57.0</ele><time>2026-04-17T09:18:53.001Z</time></trkpt><trkpt lat="-23.11598840790386" lon="113.85788467555709"><ele>58.0</ele><time>2026-04-17T09:18:54.001Z</time></trkpt><trkpt lat="-23.115973689012417" lon="113.85758007526653"><ele>59.0</ele><time>2026-04-17T09:18:55.001Z</time></trkpt><trkpt lat="-23.11595487162333" lon="113.85727949616792"><ele>59.0</ele><time>2026-04-17T09:18:56.001Z</time></trkpt><trkpt lat="-23.115937262519715" lon="113.85697554559255"><ele>59.0</ele><time>2026-04-17T09:18:57.001Z</time></trkpt><trkpt lat="-23.115921404283657" lon="113.85667238785288"><ele>58.0</ele><time>2026-04-17T09:18:58.001Z</time></trkpt><trkpt lat="-23.115906425398357" lon="113.85636861755347"><ele>57.0</ele><time>2026-04-17T09:18:59.001Z</time></trkpt><trkpt lat="-23.1158892524615" lon="113.85606276969713"><ele>56.0</ele><time>2026-04-17T09:19:00.001Z</time></trkpt><trkpt lat="-23.11587023123893" lon="113.85575798659707"><ele>55.0</ele><time>2026-04-17T09:19:01.001Z</time></trkpt><trkpt lat="-23.11585223176727" lon="113.85545214290492"><ele>55.0</ele><time>2026-04-17T09:19:02.001Z</time></trkpt><trkpt lat="-23.11583470350739" lon="113.85514605625693"><ele>55.0</ele><time>2026-04-17T09:19:03.001Z</time></trkpt><trkpt lat="-23.11581764781568" lon="113.85484019109909"><ele>55.5</ele><time>2026-04-17T09:19:04.001Z</time></trkpt><trkpt lat="-23.115799011232046" lon="113.8545345077958"><ele>56.0</ele><time>2026-04-17T09:19:05.001Z</time></trkpt><trkpt lat="-23.115782056448428" lon="113.8542229865178"><ele>56.0</ele><time>2026-04-17T09:19:06.001Z</time></trkpt><trkpt lat="-23.115765940888235" lon="113.85391343147218"><ele>56.0</ele><time>2026-04-17T09:19:07.001Z</time></trkpt><trkpt lat="-23.115747510558144" lon="113.85360086247269"><ele>55.0</ele><time>2026-04-17T09:19:08.001Z</time></trkpt><trkpt lat="-23.11573001139964" lon="113.8532909941029"><ele>54.0</ele><time>2026-04-17T09:19:09.001Z</time></trkpt><trkpt lat="-23.115713674609502" lon="113.85298070984571"><ele>54.0</ele><time>2026-04-17T09:19:10.001Z</time></trkpt><trkpt lat="-23.115697429961156" lon="113.8526693498529"><ele>54.0</ele><time>2026-04-17T09:19:11.001Z</time></trkpt><trkpt lat="-23.115679253663632" lon="113.85235997609149"><ele>54.0</ele><time>2026-04-17T09:19:12.001Z</time></trkpt><trkpt lat="-23.11565881485261" lon="113.85205469483444"><ele>54.0</ele><time>2026-04-17T09:19:13.001Z</time></trkpt><trkpt lat="-23.11564197811172" lon="113.85175127064039"><ele>54.0</ele><time>2026-04-17T09:19:14.001Z</time></trkpt><trkpt lat="-23.115628916731985" lon="113.8514459912281"><ele>54.0</ele><time>2026-04-17T09:19:15.001Z</time></trkpt><trkpt lat="-23.11561608427598" lon="113.85113930711536"><ele>52.0</ele><time>2026-04-17T09:19:16.001Z</time></trkpt><trkpt lat="-23.11560222291686" lon="113.85082992484976"><ele>50.0</ele><time>2026-04-17T09:19:17.001Z</time></trkpt><trkpt lat="-23.11558415467677" lon="113.85051735339768"><ele>50.0</ele><time>2026-04-17T09:19:18.001Z</time></trkpt><trkpt lat="-23.11556282750847" lon="113.85020602928296"><ele>50.0</ele><time>2026-04-17T09:19:19.001Z</time></trkpt><trkpt lat="-23.11553752643998" lon="113.84989656597475"><ele>49.0</ele><time>2026-04-17T09:19:20.001Z</time></trkpt><trkpt lat="-23.115514908146036" lon="113.84959107779977"><ele>48.0</ele><time>2026-04-17T09:19:21.001Z</time></trkpt><trkpt lat="-23.115496432273172" lon="113.84928153142906"><ele>48.0</ele><time>2026-04-17T09:19:22.001Z</time></trkpt><trkpt lat="-23.11548089765041" lon="113.84897461189823"><ele>48.0</ele><time>2026-04-17T09:19:23.001Z</time></trkpt><trkpt lat="-23.115466253244346" lon="113.8486664952999"><ele>46.5</ele><time>2026-04-17T09:19:24.001Z</time></trkpt><trkpt lat="-23.115448964274734" lon="113.8483619052669"><ele>45.0</ele><time>2026-04-17T09:19:25.001Z</time></trkpt><trkpt lat="-23.115429542725614" lon="113.8480523453008"><ele>45.0</ele><time>2026-04-17T09:19:26.001Z</time></trkpt><trkpt lat="-23.115409424852135" lon="113.84773787334699"><ele>45.0</ele><time>2026-04-17T09:19:27Z</time></trkpt><trkpt lat="-23.11539233634111" lon="113.84742563835752"><ele>45.0</ele><time>2026-04-17T09:19:28Z</time></trkpt><trkpt lat="-23.115376163656332" lon="113.84711782772355"><ele>45.0</ele><time>2026-04-17T09:19:29Z</time></trkpt><trkpt lat="-23.11535730751794" lon="113.84681753076585"><ele>46.0</ele><time>2026-04-17T09:19:30Z</time></trkpt><trkpt lat="-23.115336710264145" lon="113.84652404084474"><ele>47.0</ele><time>2026-04-17T09:19:31Z</time></trkpt><trkpt lat="-23.11531153717635" lon="113.84622722358296"><ele>47.0</ele><time>2026-04-17T09:19:32Z</time></trkpt><trkpt lat="-23.115271787820323" lon="113.84593541546535"><ele>47.0</ele><time>2026-04-17T09:19:33Z</time></trkpt><trkpt lat="-23.115213935055813" lon="113.84564542710818"><ele>47.0</ele><time>2026-04-17T09:19:34Z</time></trkpt><trkpt lat="-23.11515258061783" lon="113.84536090137208"><ele>47.0</ele><time>2026-04-17T09:19:35Z</time></trkpt><trkpt lat="-23.1150921654209" lon="113.84507625439244"><ele>44.5</ele><time>2026-04-17T09:19:36Z</time></trkpt><trkpt lat="-23.115023697445004" lon="113.84479714698908"><ele>42.0</ele><time>2026-04-17T09:19:37Z</time></trkpt><trkpt lat="-23.11494186416401" lon="113.84452763558866"><ele>44.5</ele><time>2026-04-17T09:19:38Z</time></trkpt><trkpt lat="-23.114857668148463" lon="113.84426474246216"><ele>47.0</ele><time>2026-04-17T09:19:39Z</time></trkpt><trkpt lat="-23.114766953417426" lon="113.84401105180558"><ele>47.0</ele><time>2026-04-17T09:19:40Z</time></trkpt><trkpt lat="-23.114674108884337" lon="113.84376340520552"><ele>47.0</ele><time>2026-04-17T09:19:41Z</time></trkpt><trkpt lat="-23.114575294347787" lon="113.84352407578046"><ele>47.0</ele><time>2026-04-17T09:19:42Z</time></trkpt><trkpt lat="-23.114474757895575" lon="113.84329340273838"><ele>47.0</ele><time>2026-04-17T09:19:43Z</time></trkpt><trkpt lat="-23.114370482519316" lon="113.84306510410366"><ele>47.0</ele><time>2026-04-17T09:19:44Z</time></trkpt><trkpt lat="-23.1142606028443" lon="113.84283949374156"><ele>47.0</ele><time>2026-04-17T09:19:45Z</time></trkpt><trkpt lat="-23.11414154779608" lon="113.84261783135764"><ele>47.0</ele><time>2026-04-17T09:19:46Z</time></trkpt><trkpt lat="-23.114015392944093" lon="113.84239702713593"><ele>47.0</ele><time>2026-04-17T09:19:47Z</time></trkpt><trkpt lat="-23.113883303239867" lon="113.84218163633604"><ele>47.0</ele><time>2026-04-17T09:19:48Z</time></trkpt><trkpt lat="-23.113748660473775" lon="113.84196695844814"><ele>47.0</ele><time>2026-04-17T09:19:49Z</time></trkpt><trkpt lat="-23.113612339976566" lon="113.8417531379704"><ele>47.5</ele><time>2026-04-17T09:19:50Z</time></trkpt><trkpt lat="-23.11347266913214" lon="113.84154064506558"><ele>48.0</ele><time>2026-04-17T09:19:51Z</time></trkpt><trkpt lat="-23.113331161819364" lon="113.84132923827185"><ele>47.5</ele><time>2026-04-17T09:19:52Z</time></trkpt><trkpt lat="-23.113188885350382" lon="113.84111042265316"><ele>47.0</ele><time>2026-04-17T09:19:53Z</time></trkpt><trkpt lat="-23.113046770106326" lon="113.8408868385485"><ele>45.5</ele><time>2026-04-17T09:19:54Z</time></trkpt><trkpt lat="-23.112904347542152" lon="113.84066347831268"><ele>44.0</ele><time>2026-04-17T09:19:55Z</time></trkpt><trkpt lat="-23.11276178790554" lon="113.84044226834564"><ele>44.0</ele><time>2026-04-17T09:19:56Z</time></trkpt><trkpt lat="-23.112618364922728" lon="113.84021918670886"><ele>44.0</ele><time>2026-04-17T09:19:57Z</time></trkpt><trkpt lat="-23.112475874153574" lon="113.83999272679914"><ele>44.5</ele><time>2026-04-17T09:19:58Z</time></trkpt><trkpt lat="-23.11233226648282" lon="113.83976914758625"><ele>45.0</ele><time>2026-04-17T09:19:59Z</time></trkpt><trkpt lat="-23.112186541371937" lon="113.83955583191211"><ele>45.0</ele><time>2026-04-17T09:20:00Z</time></trkpt><trkpt lat="-23.11204510923778" lon="113.83934375275659"><ele>45.0</ele><time>2026-04-17T09:20:01Z</time></trkpt><trkpt lat="-23.111906958808095" lon="113.83913020905173"><ele>45.0</ele><time>2026-04-17T09:20:02Z</time></trkpt><trkpt lat="-23.111767428696727" lon="113.83891131396004"><ele>45.0</ele><time>2026-04-17T09:20:03Z</time></trkpt><trkpt lat="-23.111627381992907" lon="113.83869591396659"><ele>45.5</ele><time>2026-04-17T09:20:04Z</time></trkpt><trkpt lat="-23.111482205700806" lon="113.83847980508986"><ele>46.0</ele><time>2026-04-17T09:20:05Z</time></trkpt><trkpt lat="-23.111340377347858" lon="113.83826710583742"><ele>46.0</ele><time>2026-04-17T09:20:06Z</time></trkpt><trkpt lat="-23.11120285008453" lon="113.83804974318987"><ele>46.0</ele><time>2026-04-17T09:20:07Z</time></trkpt><trkpt lat="-23.111065840702633" lon="113.83782918088596"><ele>44.0</ele><time>2026-04-17T09:20:08Z</time></trkpt><trkpt lat="-23.11092439719514" lon="113.83760775372129"><ele>42.0</ele><time>2026-04-17T09:20:09Z</time></trkpt><trkpt lat="-23.11077820539826" lon="113.83738930289002"><ele>42.5</ele><time>2026-04-17T09:20:10Z</time></trkpt><trkpt lat="-23.11063146253444" lon="113.83716844825496"><ele>43.0</ele><time>2026-04-17T09:20:11Z</time></trkpt><trkpt lat="-23.110484717488998" lon="113.83694623558392"><ele>41.5</ele><time>2026-04-17T09:20:12Z</time></trkpt><trkpt lat="-23.110336086218453" lon="113.83672317202416"><ele>40.0</ele><time>2026-04-17T09:20:13Z</time></trkpt><trkpt lat="-23.11018650780338" lon="113.83648982939103"><ele>40.0</ele><time>2026-04-17T09:20:14Z</time></trkpt><trkpt lat="-23.110035553328878" lon="113.83624724605778"><ele>40.0</ele><time>2026-04-17T09:20:15Z</time></trkpt><trkpt lat="-23.10989099936359" lon="113.83599558410371"><ele>40.5</ele><time>2026-04-17T09:20:16Z</time></trkpt><trkpt lat="-23.10975872226215" lon="113.8357327969177"><ele>41.0</ele><time>2026-04-17T09:20:17Z</time></trkpt><trkpt lat="-23.109634917998687" lon="113.83546473265393"><ele>41.0</ele><time>2026-04-17T09:20:18Z</time></trkpt><trkpt lat="-23.10952013085904" lon="113.83519879335945"><ele>41.0</ele><time>2026-04-17T09:20:19Z</time></trkpt><trkpt lat="-23.109424289426947" lon="113.83494271282477"><ele>42.0</ele><time>2026-04-17T09:20:20Z</time></trkpt><trkpt lat="-23.109343486400896" lon="113.83470426827436"><ele>43.0</ele><time>2026-04-17T09:20:21Z</time></trkpt><trkpt lat="-23.109276716246033" lon="113.83448290222631"><ele>44.0</ele><time>2026-04-17T09:20:22Z</time></trkpt><trkpt lat="-23.10922193464631" lon="113.83426879151726"><ele>45.0</ele><time>2026-04-17T09:20:23Z</time></trkpt><trkpt lat="-23.109172115916483" lon="113.83406877251545"><ele>46.0</ele><time>2026-04-17T09:20:24Z</time></trkpt><trkpt lat="-23.109127830459673" lon="113.83388119327418"><ele>47.0</ele><time>2026-04-17T09:20:25Z</time></trkpt><trkpt lat="-23.1090895140545" lon="113.8337116588555"><ele>47.0</ele><time>2026-04-17T09:20:26Z</time></trkpt><trkpt lat="-23.10905744336003" lon="113.83354909832553"><ele>47.0</ele><time>2026-04-17T09:20:27Z</time></trkpt><trkpt lat="-23.10903155916802" lon="113.83339260933329"><ele>47.0</ele><time>2026-04-17T09:20:28Z</time></trkpt><trkpt lat="-23.109011631710665" lon="113.83322905957483"><ele>46.0</ele><time>2026-04-17T09:20:29Z</time></trkpt><trkpt lat="-23.108991524103107" lon="113.83305291832653"><ele>45.0</ele><time>2026-04-17T09:20:30Z</time></trkpt><trkpt lat="-23.108972898414045" lon="113.83286742130986"><ele>44.0</ele><time>2026-04-17T09:20:31Z</time></trkpt><trkpt lat="-23.108956183559112" lon="113.8326860885691"><ele>44.0</ele><time>2026-04-17T09:20:32Z</time></trkpt><trkpt lat="-23.108944875979773" lon="113.83250798515142"><ele>44.0</ele><time>2026-04-17T09:20:33Z</time></trkpt><trkpt lat="-23.108939550837306" lon="113.83232940929216"><ele>44.0</ele><time>2026-04-17T09:20:34Z</time></trkpt><trkpt lat="-23.108938617817063" lon="113.83215290524842"><ele>44.0</ele><time>2026-04-17T09:20:35Z</time></trkpt><trkpt lat="-23.108939379058054" lon="113.83197196887305"><ele>44.0</ele><time>2026-04-17T09:20:36Z</time></trkpt><trkpt lat="-23.108942108999443" lon="113.83178929063259"><ele>44.0</ele><time>2026-04-17T09:20:37Z</time></trkpt><trkpt lat="-23.108945372648098" lon="113.8315935380855"><ele>43.666666666666664</ele><time>2026-04-17T09:20:38Z</time></trkpt><trkpt lat="-23.108948293603127" lon="113.83137208780687"><ele>43.333333333333336</ele><time>2026-04-17T09:20:39Z</time></trkpt><trkpt lat="-23.108978102350502" lon="113.83113637123638"><ele>43.0</ele><time>2026-04-17T09:20:40Z</time></trkpt><trkpt lat="-23.10900517062893" lon="113.83089981384589"><ele>43.0</ele><time>2026-04-17T09:20:41Z</time></trkpt><trkpt lat="-23.109022082018917" lon="113.83065521918373"><ele>43.0</ele><time>2026-04-17T09:20:42Z</time></trkpt><trkpt lat="-23.109066561898874" lon="113.83040519240082"><ele>42.5</ele><time>2026-04-17T09:20:43Z</time></trkpt><trkpt lat="-23.10910764507917" lon="113.8301461818687"><ele>42.0</ele><time>2026-04-17T09:20:44Z</time></trkpt><trkpt lat="-23.10914134485427" lon="113.82987580835473"><ele>41.5</ele><time>2026-04-17T09:20:45Z</time></trkpt><trkpt lat="-23.109174092846946" lon="113.82960443039376"><ele>41.0</ele><time>2026-04-17T09:20:46Z</time></trkpt><trkpt lat="-23.109206885289723" lon="113.82933751883473"><ele>39.5</ele><time>2026-04-17T09:20:47Z</time></trkpt><trkpt lat="-23.10923867845862" lon="113.82906318167454"><ele>38.0</ele><time>2026-04-17T09:20:48Z</time></trkpt><trkpt lat="-23.10926747425242" lon="113.82879004819056"><ele>38.0</ele><time>2026-04-17T09:20:49Z</time></trkpt><trkpt lat="-23.109299682800405" lon="113.82851356906788"><ele>38.0</ele><time>2026-04-17T09:20:50Z</time></trkpt><trkpt lat="-23.10933189384033" lon="113.82823758057582"><ele>38.0</ele><time>2026-04-17T09:20:51Z</time></trkpt><trkpt lat="-23.10936592547824" lon="113.82796134787733"><ele>38.0</ele><time>2026-04-17T09:20:52Z</time></trkpt><trkpt lat="-23.109402890790847" lon="113.82768761133167"><ele>38.0</ele><time>2026-04-17T09:20:53Z</time></trkpt><trkpt lat="-23.10944018305536" lon="113.82741251993811"><ele>38.0</ele><time>2026-04-17T09:20:54Z</time></trkpt><trkpt lat="-23.10947223660135" lon="113.82713795200753"><ele>38.0</ele><time>2026-04-17T09:20:55Z</time></trkpt><trkpt lat="-23.10949995851405" lon="113.82686088943517"><ele>38.0</ele><time>2026-04-17T09:20:56Z</time></trkpt><trkpt lat="-23.1095282326467" lon="113.82658454602539"><ele>36.0</ele><time>2026-04-17T09:20:57Z</time></trkpt><trkpt lat="-23.1095608871508" lon="113.82631026281467"><ele>34.0</ele><time>2026-04-17T09:20:58.001Z</time></trkpt><trkpt lat="-23.109598020459295" lon="113.82603784035895"><ele>34.5</ele><time>2026-04-17T09:20:59.001Z</time></trkpt><trkpt lat="-23.10963654000066" lon="113.8257675315341"><ele>35.0</ele><time>2026-04-17T09:21:00.001Z</time></trkpt><trkpt lat="-23.109677133732866" lon="113.82549553732936"><ele>35.0</ele><time>2026-04-17T09:21:01.001Z</time></trkpt><trkpt lat="-23.10972373674531" lon="113.82522569394771"><ele>35.0</ele><time>2026-04-17T09:21:02.001Z</time></trkpt><trkpt lat="-23.109778148398416" lon="113.82495669477002"><ele>35.5</ele><time>2026-04-17T09:21:03.001Z</time></trkpt><trkpt lat="-23.109837788090246" lon="113.82469092740695"><ele>36.0</ele><time>2026-04-17T09:21:04.001Z</time></trkpt><trkpt lat="-23.10991075229562" lon="113.82442200539936"><ele>34.5</ele><time>2026-04-17T09:21:05.001Z</time></trkpt><trkpt lat="-23.109990621902206" lon="113.82415563251513"><ele>33.0</ele><time>2026-04-17T09:21:06.001Z</time></trkpt><trkpt lat="-23.110078650611353" lon="113.82389138628392"><ele>33.0</ele><time>2026-04-17T09:21:07.001Z</time></trkpt><trkpt lat="-23.11017968250394" lon="113.8236278453404"><ele>33.0</ele><time>2026-04-17T09:21:08.001Z</time></trkpt><trkpt lat="-23.110291164614157" lon="113.82336917673469"><ele>34.5</ele><time>2026-04-17T09:21:09.001Z</time></trkpt><trkpt lat="-23.110407660890434" lon="113.82311300156739"><ele>36.0</ele><time>2026-04-17T09:21:10.001Z</time></trkpt><trkpt lat="-23.11052899022885" lon="113.82286175851644"><ele>36.5</ele><time>2026-04-17T09:21:11.001Z</time></trkpt><trkpt lat="-23.11065818518722" lon="113.82261595341602"><ele>37.0</ele><time>2026-04-17T09:21:12.001Z</time></trkpt><trkpt lat="-23.11078812957056" lon="113.82237355831403"><ele>37.0</ele><time>2026-04-17T09:21:13.001Z</time></trkpt><trkpt lat="-23.11092655715335" lon="113.82213737013915"><ele>37.0</ele><time>2026-04-17T09:21:14.001Z</time></trkpt><trkpt lat="-23.11106930825581" lon="113.82190957197014"><ele>36.0</ele><time>2026-04-17T09:21:15.001Z</time></trkpt><trkpt lat="-23.111219929648882" lon="113.82168550488981"><ele>35.0</ele><time>2026-04-17T09:21:16.001Z</time></trkpt><trkpt lat="-23.111380774403422" lon="113.82146683828113"><ele>35.0</ele><time>2026-04-17T09:21:17.001Z</time></trkpt><trkpt lat="-23.111551603448216" lon="113.82125638409279"><ele>35.0</ele><time>2026-04-17T09:21:18.001Z</time></trkpt><trkpt lat="-23.11172876021449" lon="113.82104969379168"><ele>34.0</ele><time>2026-04-17T09:21:19.001Z</time></trkpt><trkpt lat="-23.11190866872952" lon="113.8208455623579"><ele>33.0</ele><time>2026-04-17T09:21:20.001Z</time></trkpt><trkpt lat="-23.112090076839532" lon="113.82064088184222"><ele>33.0</ele><time>2026-04-17T09:21:21.001Z</time></trkpt><trkpt lat="-23.112269167346216" lon="113.8204401822181"><ele>33.0</ele><time>2026-04-17T09:21:22.001Z</time></trkpt><trkpt lat="-23.112448633289887" lon="113.8202440446031"><ele>32.0</ele><time>2026-04-17T09:21:23.001Z</time></trkpt><trkpt lat="-23.11263044760384" lon="113.82004502490469"><ele>31.0</ele><time>2026-04-17T09:21:24Z</time></trkpt><trkpt lat="-23.112810991408473" lon="113.81984075701743"><ele>31.0</ele><time>2026-04-17T09:21:25Z</time></trkpt><trkpt lat="-23.11297809893339" lon="113.81964662249102"><ele>31.0</ele><time>2026-04-17T09:21:26Z</time></trkpt><trkpt lat="-23.11314335610176" lon="113.81945498204165"><ele>30.0</ele><time>2026-04-17T09:21:27Z</time></trkpt><trkpt lat="-23.113304835899722" lon="113.81926880192368"><ele>29.0</ele><time>2026-04-17T09:21:28Z</time></trkpt><trkpt lat="-23.113467985487326" lon="113.81908308536106"><ele>29.0</ele><time>2026-04-17T09:21:29Z</time></trkpt><trkpt lat="-23.11363463016046" lon="113.8188964401494"><ele>29.0</ele><time>2026-04-17T09:21:30Z</time></trkpt><trkpt lat="-23.113803412906716" lon="113.81870596146577"><ele>29.0</ele><time>2026-04-17T09:21:31Z</time></trkpt><trkpt lat="-23.113970101907654" lon="113.8185173615858"><ele>29.0</ele><time>2026-04-17T09:21:32Z</time></trkpt><trkpt lat="-23.114132304144018" lon="113.81833891594744"><ele>30.666666666666664</ele><time>2026-04-17T09:21:33Z</time></trkpt><trkpt lat="-23.114286409410134" lon="113.8181676665748"><ele>32.333333333333336</ele><time>2026-04-17T09:21:34Z</time></trkpt><trkpt lat="-23.114444840932755" lon="113.8179905321312"><ele>34.0</ele><time>2026-04-17T09:21:35Z</time></trkpt><trkpt lat="-23.1146061122339" lon="113.81781081513445"><ele>34.0</ele><time>2026-04-17T09:21:36Z</time></trkpt><trkpt lat="-23.114769812907603" lon="113.81762705831201"><ele>34.0</ele><time>2026-04-17T09:21:37Z</time></trkpt><trkpt lat="-23.11493358004174" lon="113.81744091510419"><ele>34.0</ele><time>2026-04-17T09:21:38Z</time></trkpt><trkpt lat="-23.11509909339202" lon="113.8172512769501"><ele>34.0</ele><time>2026-04-17T09:21:39Z</time></trkpt><trkpt lat="-23.115261978342247" lon="113.81706034763461"><ele>34.0</ele><time>2026-04-17T09:21:40Z</time></trkpt><trkpt lat="-23.115429387229977" lon="113.8168692669088"><ele>34.0</ele><time>2026-04-17T09:21:41Z</time></trkpt><trkpt lat="-23.11560105169716" lon="113.81667997244801"><ele>33.0</ele><time>2026-04-17T09:21:42Z</time></trkpt><trkpt lat="-23.115773641138087" lon="113.81648913878236"><ele>32.0</ele><time>2026-04-17T09:21:43Z</time></trkpt><trkpt lat="-23.115947802397898" lon="113.81629724068667"><ele>32.0</ele><time>2026-04-17T09:21:44Z</time></trkpt><trkpt lat="-23.11612135662917" lon="113.8161043790657"><ele>32.0</ele><time>2026-04-17T09:21:45Z</time></trkpt><trkpt lat="-23.11629778416476" lon="113.81590772045094"><ele>32.0</ele><time>2026-04-17T09:21:46Z</time></trkpt><trkpt lat="-23.116472150530793" lon="113.81571235663775"><ele>32.0</ele><time>2026-04-17T09:21:47Z</time></trkpt><trkpt lat="-23.11664548521365" lon="113.81551560645096"><ele>32.0</ele><time>2026-04-17T09:21:48Z</time></trkpt><trkpt lat="-23.1168167991383" lon="113.81531576569586"><ele>32.0</ele><time>2026-04-17T09:21:49Z</time></trkpt><trkpt lat="-23.11698866384215" lon="113.81511451865283"><ele>31.5</ele><time>2026-04-17T09:21:50Z</time></trkpt><trkpt lat="-23.117160763328197" lon="113.81491552148016"><ele>31.0</ele><time>2026-04-17T09:21:51Z</time></trkpt><trkpt lat="-23.11733218234892" lon="113.81472134124594"><ele>29.5</ele><time>2026-04-17T09:21:52Z</time></trkpt><trkpt lat="-23.117504497093076" lon="113.81452950349343"><ele>28.0</ele><time>2026-04-17T09:21:53Z</time></trkpt><trkpt lat="-23.117675386327107" lon="113.8143389128215"><ele>26.0</ele><time>2026-04-17T09:21:54Z</time></trkpt><trkpt lat="-23.117847143619393" lon="113.81414359471054"><ele>24.0</ele><time>2026-04-17T09:21:55Z</time></trkpt><trkpt lat="-23.118017355908936" lon="113.8139460196757"><ele>24.0</ele><time>2026-04-17T09:21:56Z</time></trkpt><trkpt lat="-23.118186411242664" lon="113.81374834310591"><ele>24.0</ele><time>2026-04-17T09:21:57Z</time></trkpt><trkpt lat="-23.118358379152053" lon="113.81355484657259"><ele>24.0</ele><time>2026-04-17T09:21:58Z</time></trkpt><trkpt lat="-23.118531498948414" lon="113.81336152676387"><ele>24.0</ele><time>2026-04-17T09:21:59Z</time></trkpt><trkpt lat="-23.118702957512603" lon="113.81316905894886"><ele>24.0</ele><time>2026-04-17T09:22:00Z</time></trkpt><trkpt lat="-23.118876031959587" lon="113.81297515809284"><ele>24.0</ele><time>2026-04-17T09:22:01Z</time></trkpt><trkpt lat="-23.119046916407935" lon="113.81277949123647"><ele>22.5</ele><time>2026-04-17T09:22:02Z</time></trkpt><trkpt lat="-23.119219165223015" lon="113.81257772692578"><ele>21.0</ele><time>2026-04-17T09:22:03Z</time></trkpt><trkpt lat="-23.119388896613234" lon="113.81236923958897"><ele>21.0</ele><time>2026-04-17T09:22:04Z</time></trkpt><trkpt lat="-23.11955381756173" lon="113.81215262375264"><ele>21.0</ele><time>2026-04-17T09:22:05Z</time></trkpt><trkpt lat="-23.119708614879908" lon="113.81193441906765"><ele>19.5</ele><time>2026-04-17T09:22:06Z</time></trkpt><trkpt lat="-23.119862085937108" lon="113.81170757929816"><ele>18.0</ele><time>2026-04-17T09:22:07Z</time></trkpt><trkpt lat="-23.120015783261852" lon="113.81147762893679"><ele>18.0</ele><time>2026-04-17T09:22:08Z</time></trkpt><trkpt lat="-23.120164383758148" lon="113.81124207281225"><ele>18.0</ele><time>2026-04-17T09:22:09Z</time></trkpt><trkpt lat="-23.120310262904034" lon="113.81100007821391"><ele>15.5</ele><time>2026-04-17T09:22:10Z</time></trkpt><trkpt lat="-23.120444875127273" lon="113.8107542760848"><ele>13.0</ele><time>2026-04-17T09:22:11Z</time></trkpt><trkpt lat="-23.12057843796981" lon="113.81049808164357"><ele>13.0</ele><time>2026-04-17T09:22:12Z</time></trkpt><trkpt lat="-23.12070915133723" lon="113.81024025619678"><ele>13.0</ele><time>2026-04-17T09:22:13Z</time></trkpt><trkpt lat="-23.120841300928813" lon="113.80998435879549"><ele>13.0</ele><time>2026-04-17T09:22:14Z</time></trkpt><trkpt lat="-23.12097091396941" lon="113.80972492865882"><ele>13.0</ele><time>2026-04-17T09:22:15Z</time></trkpt><trkpt lat="-23.121093426512132" lon="113.80946428444587"><ele>13.0</ele><time>2026-04-17T09:22:16Z</time></trkpt><trkpt lat="-23.121213395151717" lon="113.80920110411274"><ele>13.0</ele><time>2026-04-17T09:22:17Z</time></trkpt><trkpt lat="-23.12133156735423" lon="113.80893862064046"><ele>13.0</ele><time>2026-04-17T09:22:18Z</time></trkpt><trkpt lat="-23.121449534601826" lon="113.80868348791203"><ele>13.0</ele><time>2026-04-17T09:22:19Z</time></trkpt><trkpt lat="-23.121570470397575" lon="113.80842463826008"><ele>14.0</ele><time>2026-04-17T09:22:20Z</time></trkpt><trkpt lat="-23.12169567643469" lon="113.80816788535178"><ele>15.0</ele><time>2026-04-17T09:22:21Z</time></trkpt><trkpt lat="-23.121822331533185" lon="113.80791160876376"><ele>15.0</ele><time>2026-04-17T09:22:22Z</time></trkpt><trkpt lat="-23.121951151819836" lon="113.80766477030086"><ele>15.0</ele><time>2026-04-17T09:22:23Z</time></trkpt><trkpt lat="-23.12208447428198" lon="113.80742051612381"><ele>15.5</ele><time>2026-04-17T09:22:24Z</time></trkpt><trkpt lat="-23.122219374408708" lon="113.8071780971545"><ele>16.0</ele><time>2026-04-17T09:22:25Z</time></trkpt><trkpt lat="-23.122355571608455" lon="113.8069425829066"><ele>15.0</ele><time>2026-04-17T09:22:26Z</time></trkpt><trkpt lat="-23.12250095639285" lon="113.80671001921623"><ele>14.0</ele><time>2026-04-17T09:22:27Z</time></trkpt><trkpt lat="-23.122651189523893" lon="113.80647920872424"><ele>14.0</ele><time>2026-04-17T09:22:28Z</time></trkpt><trkpt lat="-23.12280265021505" lon="113.80625257392865"><ele>14.0</ele><time>2026-04-17T09:22:29Z</time></trkpt><trkpt lat="-23.12296144539776" lon="113.80602512410259"><ele>13.5</ele><time>2026-04-17T09:22:30Z</time></trkpt><trkpt lat="-23.12312828336922" lon="113.8058032035243"><ele>13.0</ele><time>2026-04-17T09:22:31Z</time></trkpt><trkpt lat="-23.123303938748222" lon="113.80558471588766"><ele>13.0</ele><time>2026-04-17T09:22:32Z</time></trkpt><trkpt lat="-23.12347687075052" lon="113.80536689100686"><ele>13.0</ele><time>2026-04-17T09:22:33Z</time></trkpt><trkpt lat="-23.123650320742268" lon="113.80514886859724"><ele>11.5</ele><time>2026-04-17T09:22:34Z</time></trkpt><trkpt lat="-23.123828148387734" lon="113.80493516201662"><ele>10.0</ele><time>2026-04-17T09:22:35Z</time></trkpt><trkpt lat="-23.124011239455186" lon="113.8047229126744"><ele>10.0</ele><time>2026-04-17T09:22:36Z</time></trkpt><trkpt lat="-23.124197343741443" lon="113.80452009120614"><ele>10.0</ele><time>2026-04-17T09:22:37Z</time></trkpt><trkpt lat="-23.12438983800346" lon="113.80432035268979"><ele>9.5</ele><time>2026-04-17T09:22:38Z</time></trkpt><trkpt lat="-23.124589985181807" lon="113.80412576493707"><ele>9.0</ele><time>2026-04-17T09:22:39Z</time></trkpt><trkpt lat="-23.12479339024826" lon="113.80393826239602"><ele>10.0</ele><time>2026-04-17T09:22:40Z</time></trkpt><trkpt lat="-23.124995203264202" lon="113.80375628147168"><ele>11.0</ele><time>2026-04-17T09:22:41Z</time></trkpt><trkpt lat="-23.125196857295865" lon="113.80357667083918"><ele>11.5</ele><time>2026-04-17T09:22:42Z</time></trkpt><trkpt lat="-23.12539900829189" lon="113.8034000365669"><ele>12.0</ele><time>2026-04-17T09:22:43Z</time></trkpt><trkpt lat="-23.12560295255981" lon="113.80322826191028"><ele>11.0</ele><time>2026-04-17T09:22:44Z</time></trkpt><trkpt lat="-23.12581160539485" lon="113.80306157295841"><ele>10.0</ele><time>2026-04-17T09:22:45Z</time></trkpt><trkpt lat="-23.126025774298768" lon="113.80289962851656"><ele>10.0</ele><time>2026-04-17T09:22:46Z</time></trkpt><trkpt lat="-23.12624206994876" lon="113.80274439774702"><ele>10.0</ele><time>2026-04-17T09:22:47Z</time></trkpt><trkpt lat="-23.12646193003486" lon="113.80259529346704"><ele>10.5</ele><time>2026-04-17T09:22:48Z</time></trkpt><trkpt lat="-23.126683251536548" lon="113.80244716196934"><ele>11.0</ele><time>2026-04-17T09:22:49Z</time></trkpt><trkpt lat="-23.126906634607877" lon="113.8023052088374"><ele>11.0</ele><time>2026-04-17T09:22:50Z</time></trkpt><trkpt lat="-23.12713194093738" lon="113.80216833018103"><ele>11.0</ele><time>2026-04-17T09:22:51Z</time></trkpt><trkpt lat="-23.127361104348417" lon="113.802032196056"><ele>10.5</ele><time>2026-04-17T09:22:52Z</time></trkpt><trkpt lat="-23.127590067174808" lon="113.80190202201467"><ele>10.0</ele><time>2026-04-17T09:22:53Z</time></trkpt><trkpt lat="-23.127826128225838" lon="113.8017744719251"><ele>10.0</ele><time>2026-04-17T09:22:54Z</time></trkpt><trkpt lat="-23.128064300995696" lon="113.80164939420992"><ele>10.0</ele><time>2026-04-17T09:22:55Z</time></trkpt><trkpt lat="-23.128315030780758" lon="113.80151840440254"><ele>10.0</ele><time>2026-04-17T09:22:56Z</time></trkpt><trkpt lat="-23.12856480369991" lon="113.80138718255381"><ele>10.0</ele><time>2026-04-17T09:22:57Z</time></trkpt><trkpt lat="-23.128818327785957" lon="113.80124951315796"><ele>9.0</ele><time>2026-04-17T09:22:58Z</time></trkpt><trkpt lat="-23.12906787737848" lon="113.80111227470836"><ele>8.0</ele><time>2026-04-17T09:22:59Z</time></trkpt><trkpt lat="-23.129313758837604" lon="113.80097671875674"><ele>8.0</ele><time>2026-04-17T09:23:00Z</time></trkpt><trkpt lat="-23.129561575287184" lon="113.80084251387203"><ele>8.0</ele><time>2026-04-17T09:23:01Z</time></trkpt><trkpt lat="-23.12980994610622" lon="113.80070917850794"><ele>8.0</ele><time>2026-04-17T09:23:02Z</time></trkpt><trkpt lat="-23.130057886644263" lon="113.80057591711466"><ele>8.0</ele><time>2026-04-17T09:23:03Z</time></trkpt><trkpt lat="-23.130306170245742" lon="113.80043942127269"><ele>8.0</ele><time>2026-04-17T09:23:04.001Z</time></trkpt><trkpt lat="-23.13055851851218" lon="113.8003022102835"><ele>8.0</ele><time>2026-04-17T09:23:05.001Z</time></trkpt><trkpt lat="-23.130808774424114" lon="113.80016673522171"><ele>8.5</ele><time>2026-04-17T09:23:06.001Z</time></trkpt><trkpt lat="-23.13105970995507" lon="113.80003436365972"><ele>9.0</ele><time>2026-04-17T09:23:07.001Z</time></trkpt><trkpt lat="-23.131305707776075" lon="113.79990170604381"><ele>9.0</ele><time>2026-04-17T09:23:08.001Z</time></trkpt><trkpt lat="-23.131550635935408" lon="113.79976903277435"><ele>9.0</ele><time>2026-04-17T09:23:09.001Z</time></trkpt><trkpt lat="-23.13179618303947" lon="113.79963418903313"><ele>10.0</ele><time>2026-04-17T09:23:10.001Z</time></trkpt><trkpt lat="-23.132041608401682" lon="113.79950375679101"><ele>11.0</ele><time>2026-04-17T09:23:11.001Z</time></trkpt><trkpt lat="-23.132283312708005" lon="113.79937139217901"><ele>11.5</ele><time>2026-04-17T09:23:12.001Z</time></trkpt><trkpt lat="-23.1325191900237" lon="113.7992382448743"><ele>12.0</ele><time>2026-04-17T09:23:13.001Z</time></trkpt><trkpt lat="-23.13275800882634" lon="113.79910416730631"><ele>12.0</ele><time>2026-04-17T09:23:14.001Z</time></trkpt><trkpt lat="-23.13299737629745" lon="113.79897639854991"><ele>12.0</ele><time>2026-04-17T09:23:15.001Z</time></trkpt><trkpt lat="-23.133240115683602" lon="113.79884806397146"><ele>13.0</ele><time>2026-04-17T09:23:16.001Z</time></trkpt><trkpt lat="-23.133485972123346" lon="113.7987182353579"><ele>14.0</ele><time>2026-04-17T09:23:17.001Z</time></trkpt><trkpt lat="-23.13373030959785" lon="113.79858849892408"><ele>14.0</ele><time>2026-04-17T09:23:18.001Z</time></trkpt><trkpt lat="-23.13397241673679" lon="113.79845633108094"><ele>14.0</ele><time>2026-04-17T09:23:19.001Z</time></trkpt><trkpt lat="-23.134214243606138" lon="113.79832337954694"><ele>14.0</ele><time>2026-04-17T09:23:20.001Z</time></trkpt><trkpt lat="-23.134454549031084" lon="113.79819616424896"><ele>14.0</ele><time>2026-04-17T09:23:21.001Z</time></trkpt><trkpt lat="-23.13469615332079" lon="113.79806752825985"><ele>15.0</ele><time>2026-04-17T09:23:22.001Z</time></trkpt><trkpt lat="-23.13493527048784" lon="113.79794070884758"><ele>16.0</ele><time>2026-04-17T09:23:23.001Z</time></trkpt><trkpt lat="-23.135173191660858" lon="113.79781387409118"><ele>16.0</ele><time>2026-04-17T09:23:24.001Z</time></trkpt><trkpt lat="-23.135408042165295" lon="113.79768637060585"><ele>16.0</ele><time>2026-04-17T09:23:25.001Z</time></trkpt><trkpt lat="-23.135643028642342" lon="113.79756064888902"><ele>17.0</ele><time>2026-04-17T09:23:26.001Z</time></trkpt><trkpt lat="-23.135878792477364" lon="113.79743227918576"><ele>18.0</ele><time>2026-04-17T09:23:27Z</time></trkpt><trkpt lat="-23.136111584512385" lon="113.79730447577666"><ele>18.0</ele><time>2026-04-17T09:23:28Z</time></trkpt><trkpt lat="-23.1363427400276" lon="113.79717641047533"><ele>18.0</ele><time>2026-04-17T09:23:29Z</time></trkpt><trkpt lat="-23.13657586550746" lon="113.79704985585298"><ele>17.5</ele><time>2026-04-17T09:23:30Z</time></trkpt><trkpt lat="-23.136812335722436" lon="113.79692153583807"><ele>17.0</ele><time>2026-04-17T09:23:31Z</time></trkpt><trkpt lat="-23.13705142507109" lon="113.7967927819158"><ele>16.0</ele><time>2026-04-17T09:23:32Z</time></trkpt><trkpt lat="-23.137291490327634" lon="113.79666415208392"><ele>15.0</ele><time>2026-04-17T09:23:33Z</time></trkpt><trkpt lat="-23.13752966270713" lon="113.79653618373565"><ele>15.0</ele><time>2026-04-17T09:23:34Z</time></trkpt><trkpt lat="-23.13776742854672" lon="113.79640453239483"><ele>15.0</ele><time>2026-04-17T09:23:35Z</time></trkpt><trkpt lat="-23.138003837426744" lon="113.7962742959856"><ele>14.5</ele><time>2026-04-17T09:23:36Z</time></trkpt><trkpt lat="-23.138243449446485" lon="113.79614559247901"><ele>14.0</ele><time>2026-04-17T09:23:37Z</time></trkpt><trkpt lat="-23.13848211301204" lon="113.79601797273043"><ele>12.5</ele><time>2026-04-17T09:23:38Z</time></trkpt><trkpt lat="-23.138721774872185" lon="113.7958891843182"><ele>11.0</ele><time>2026-04-17T09:23:39Z</time></trkpt><trkpt lat="-23.1389654562326" lon="113.79575909313508"><ele>13.0</ele><time>2026-04-17T09:23:40Z</time></trkpt><trkpt lat="-23.1392058469941" lon="113.79562868359554"><ele>15.0</ele><time>2026-04-17T09:23:41Z</time></trkpt><trkpt lat="-23.139444218173754" lon="113.79549780276035"><ele>15.0</ele><time>2026-04-17T09:23:42Z</time></trkpt><trkpt lat="-23.13968297986705" lon="113.79536871015831"><ele>15.0</ele><time>2026-04-17T09:23:43Z</time></trkpt><trkpt lat="-23.13992222375848" lon="113.7952393804033"><ele>14.0</ele><time>2026-04-17T09:23:44Z</time></trkpt><trkpt lat="-23.14016221245258" lon="113.79511117654928"><ele>13.0</ele><time>2026-04-17T09:23:45Z</time></trkpt><trkpt lat="-23.14040492287672" lon="113.79498056123002"><ele>13.0</ele><time>2026-04-17T09:23:46Z</time></trkpt><trkpt lat="-23.140649442593052" lon="113.79485165660739"><ele>13.0</ele><time>2026-04-17T09:23:47Z</time></trkpt><trkpt lat="-23.140890212408962" lon="113.79472502317343"><ele>14.0</ele><time>2026-04-17T09:23:48Z</time></trkpt><trkpt lat="-23.141129585981968" lon="113.79459806389023"><ele>15.0</ele><time>2026-04-17T09:23:49Z</time></trkpt><trkpt lat="-23.141364081432084" lon="113.7944687605908"><ele>13.0</ele><time>2026-04-17T09:23:50Z</time></trkpt><trkpt lat="-23.141593504045638" lon="113.79433366193649"><ele>11.0</ele><time>2026-04-17T09:23:51Z</time></trkpt><trkpt lat="-23.141816229956717" lon="113.79418922847195"><ele>11.0</ele><time>2026-04-17T09:23:52Z</time></trkpt><trkpt lat="-23.142034863762397" lon="113.79404109493379"><ele>11.0</ele><time>2026-04-17T09:23:53Z</time></trkpt><trkpt lat="-23.142249395672113" lon="113.79388541929904"><ele>11.0</ele><time>2026-04-17T09:23:54Z</time></trkpt><trkpt lat="-23.14246230543621" lon="113.79371934230917"><ele>11.0</ele><time>2026-04-17T09:23:55Z</time></trkpt><trkpt lat="-23.14267114162445" lon="113.79354662401693"><ele>10.5</ele><time>2026-04-17T09:23:56Z</time></trkpt><trkpt lat="-23.14287409884569" lon="113.79336815300492"><ele>10.0</ele><time>2026-04-17T09:23:57Z</time></trkpt><trkpt lat="-23.143069421850033" lon="113.79318236863841"><ele>9.5</ele><time>2026-04-17T09:23:58Z</time></trkpt><trkpt lat="-23.14325755883069" lon="113.79299352487976"><ele>9.0</ele><time>2026-04-17T09:23:59Z</time></trkpt><trkpt lat="-23.14343835626376" lon="113.79279056423312"><ele>9.0</ele><time>2026-04-17T09:24:00Z</time></trkpt><trkpt lat="-23.143612692224316" lon="113.79257964295859"><ele>9.0</ele><time>2026-04-17T09:24:01Z</time></trkpt><trkpt lat="-23.143782377669986" lon="113.79236249184025"><ele>9.0</ele><time>2026-04-17T09:24:02Z</time></trkpt><trkpt lat="-23.143942871486633" lon="113.7921368717127"><ele>9.0</ele><time>2026-04-17T09:24:03Z</time></trkpt><trkpt lat="-23.144093702371187" lon="113.79190398754908"><ele>8.5</ele><time>2026-04-17T09:24:04Z</time></trkpt><trkpt lat="-23.144239008421795" lon="113.79166194422812"><ele>8.0</ele><time>2026-04-17T09:24:05Z</time></trkpt><trkpt lat="-23.144379998398964" lon="113.79141860241964"><ele>8.0</ele><time>2026-04-17T09:24:06Z</time></trkpt><trkpt lat="-23.144511585520817" lon="113.79117292230626"><ele>8.0</ele><time>2026-04-17T09:24:07Z</time></trkpt><trkpt lat="-23.144634302940325" lon="113.79092360130237"><ele>9.0</ele><time>2026-04-17T09:24:08Z</time></trkpt><trkpt lat="-23.144745220377157" lon="113.79067240347192"><ele>10.0</ele><time>2026-04-17T09:24:09Z</time></trkpt><trkpt lat="-23.144845024108616" lon="113.79041599863083"><ele>9.5</ele><time>2026-04-17T09:24:10Z</time></trkpt><trkpt lat="-23.144941255532704" lon="113.79015322543255"><ele>9.0</ele><time>2026-04-17T09:24:11Z</time></trkpt><trkpt lat="-23.145028359785503" lon="113.78988378616738"><ele>9.0</ele><time>2026-04-17T09:24:12Z</time></trkpt><trkpt lat="-23.14510643606277" lon="113.78960975168174"><ele>9.0</ele><time>2026-04-17T09:24:13Z</time></trkpt><trkpt lat="-23.14517480192782" lon="113.78932836497971"><ele>7.5</ele><time>2026-04-17T09:24:14Z</time></trkpt><trkpt lat="-23.145237909836503" lon="113.78904034029252"><ele>6.0</ele><time>2026-04-17T09:24:15Z</time></trkpt><trkpt lat="-23.145286901244695" lon="113.78874703790414"><ele>6.5</ele><time>2026-04-17T09:24:16Z</time></trkpt><trkpt lat="-23.145323911312474" lon="113.78844565880559"><ele>7.0</ele><time>2026-04-17T09:24:17Z</time></trkpt><trkpt lat="-23.145355995748975" lon="113.78814501126391"><ele>7.0</ele><time>2026-04-17T09:24:18Z</time></trkpt><trkpt lat="-23.145379358242003" lon="113.78784274974451"><ele>7.0</ele><time>2026-04-17T09:24:19Z</time></trkpt><trkpt lat="-23.145391191509795" lon="113.78754132407704"><ele>9.5</ele><time>2026-04-17T09:24:20Z</time></trkpt><trkpt lat="-23.145394546307525" lon="113.78724306377937"><ele>12.0</ele><time>2026-04-17T09:24:21Z</time></trkpt><trkpt lat="-23.14538064298782" lon="113.7869457133107"><ele>10.5</ele><time>2026-04-17T09:24:22Z</time></trkpt><trkpt lat="-23.145357390411956" lon="113.78665136336187"><ele>9.0</ele><time>2026-04-17T09:24:23Z</time></trkpt><trkpt lat="-23.14532139517749" lon="113.78635673908435"><ele>9.0</ele><time>2026-04-17T09:24:24Z</time></trkpt><trkpt lat="-23.14526988641547" lon="113.78606276146455"><ele>9.0</ele><time>2026-04-17T09:24:25Z</time></trkpt><trkpt lat="-23.145213174788918" lon="113.78576689283484"><ele>7.5</ele><time>2026-04-17T09:24:26Z</time></trkpt><trkpt lat="-23.14515052205661" lon="113.78547196236931"><ele>6.0</ele><time>2026-04-17T09:24:27Z</time></trkpt><trkpt lat="-23.14507797246741" lon="113.78517699654893"><ele>6.0</ele><time>2026-04-17T09:24:28Z</time></trkpt><trkpt lat="-23.14499544307604" lon="113.78488429068895"><ele>6.0</ele><time>2026-04-17T09:24:29Z</time></trkpt><trkpt lat="-23.144906026305147" lon="113.78459250647984"><ele>6.0</ele><time>2026-04-17T09:24:30Z</time></trkpt><trkpt lat="-23.144814206220005" lon="113.78430197064993"><ele>6.0</ele><time>2026-04-17T09:24:31Z</time></trkpt><trkpt lat="-23.144723094620552" lon="113.78400946799555"><ele>6.0</ele><time>2026-04-17T09:24:32Z</time></trkpt><trkpt lat="-23.144634275064284" lon="113.78371566425653"><ele>6.0</ele><time>2026-04-17T09:24:33Z</time></trkpt><trkpt lat="-23.144546801321813" lon="113.78342707600851"><ele>8.0</ele><time>2026-04-17T09:24:34Z</time></trkpt><trkpt lat="-23.144458905992675" lon="113.78313946410299"><ele>10.0</ele><time>2026-04-17T09:24:35Z</time></trkpt><trkpt lat="-23.144365720765915" lon="113.78285312634074"><ele>9.5</ele><time>2026-04-17T09:24:36Z</time></trkpt><trkpt lat="-23.14425755240897" lon="113.78257555121169"><ele>9.0</ele><time>2026-04-17T09:24:37Z</time></trkpt><trkpt lat="-23.144129266491525" lon="113.78230583191461"><ele>8.5</ele><time>2026-04-17T09:24:38Z</time></trkpt><trkpt lat="-23.143992698875678" lon="113.7820365335875"><ele>8.0</ele><time>2026-04-17T09:24:39Z</time></trkpt><trkpt lat="-23.143849932493023" lon="113.78177944587364"><ele>8.0</ele><time>2026-04-17T09:24:40Z</time></trkpt><trkpt lat="-23.143706436137872" lon="113.7815328285608"><ele>8.0</ele><time>2026-04-17T09:24:41Z</time></trkpt><trkpt lat="-23.14355870158063" lon="113.781293853716"><ele>8.0</ele><time>2026-04-17T09:24:42Z</time></trkpt><trkpt lat="-23.143405083246364" lon="113.78105782728927"><ele>8.0</ele><time>2026-04-17T09:24:43Z</time></trkpt><trkpt lat="-23.143243045145002" lon="113.78082844865374"><ele>6.5</ele><time>2026-04-17T09:24:44Z</time></trkpt><trkpt lat="-23.143064959337252" lon="113.78061057605498"><ele>5.0</ele><time>2026-04-17T09:24:45Z</time></trkpt><trkpt lat="-23.142875648653614" lon="113.78040500796341"><ele>5.0</ele><time>2026-04-17T09:24:46Z</time></trkpt><trkpt lat="-23.142682968630467" lon="113.78020578359398"><ele>5.0</ele><time>2026-04-17T09:24:47Z</time></trkpt><trkpt lat="-23.14249047921135" lon="113.78001026209618"><ele>3.5</ele><time>2026-04-17T09:24:48Z</time></trkpt><trkpt lat="-23.142299876984218" lon="113.77981605047712"><ele>2.0</ele><time>2026-04-17T09:24:49Z</time></trkpt><trkpt lat="-23.142117417137975" lon="113.77962534970779"><ele>2.0</ele><time>2026-04-17T09:24:50Z</time></trkpt><trkpt lat="-23.14195110481124" lon="113.77942452821001"><ele>2.0</ele><time>2026-04-17T09:24:51Z</time></trkpt><trkpt lat="-23.141797531291537" lon="113.7792145383101"><ele>2.5</ele><time>2026-04-17T09:24:52Z</time></trkpt><trkpt lat="-23.14165989075151" lon="113.77899623167798"><ele>3.0</ele><time>2026-04-17T09:24:53Z</time></trkpt><trkpt lat="-23.141547650221085" lon="113.77875762599567"><ele>3.0</ele><time>2026-04-17T09:24:54Z</time></trkpt><trkpt lat="-23.141421629047652" lon="113.77853816319877"><ele>3.0</ele><time>2026-04-17T09:24:55Z</time></trkpt><trkpt lat="-23.14132234251236" lon="113.77830685017476"><ele>3.5</ele><time>2026-04-17T09:24:56Z</time></trkpt><trkpt lat="-23.14123412989518" lon="113.77807019971604"><ele>4.0</ele><time>2026-04-17T09:24:57Z</time></trkpt><trkpt lat="-23.141177754752295" lon="113.77782496735192"><ele>4.0</ele><time>2026-04-17T09:24:58Z</time></trkpt><trkpt lat="-23.14110437336002" lon="113.77758249288382"><ele>4.0</ele><time>2026-04-17T09:24:59Z</time></trkpt><trkpt lat="-23.141075749306346" lon="113.77733083646208"><ele>4.0</ele><time>2026-04-17T09:25:00Z</time></trkpt><trkpt lat="-23.141041963600344" lon="113.77708289511793"><ele>4.0</ele><time>2026-04-17T09:25:01Z</time></trkpt><trkpt lat="-23.14102386802381" lon="113.77683561667924"><ele>5.0</ele><time>2026-04-17T09:25:02Z</time></trkpt><trkpt lat="-23.14101869216762" lon="113.77658973567756"><ele>6.0</ele><time>2026-04-17T09:25:03Z</time></trkpt><trkpt lat="-23.141025404432316" lon="113.77635264454692"><ele>7.0</ele><time>2026-04-17T09:25:04Z</time></trkpt><trkpt lat="-23.141044726828362" lon="113.77612925705418"><ele>7.0</ele><time>2026-04-17T09:25:05Z</time></trkpt><trkpt lat="-23.14105775487518" lon="113.77592637738138"><ele>7.0</ele><time>2026-04-17T09:25:06Z</time></trkpt><trkpt lat="-23.1410918038127" lon="113.7757367873323"><ele>7.0</ele><time>2026-04-17T09:25:07Z</time></trkpt><trkpt lat="-23.141127773955578" lon="113.7755598277716"><ele>7.0</ele><time>2026-04-17T09:25:08Z</time></trkpt><trkpt lat="-23.14116570441588" lon="113.77540034491352"><ele>7.0</ele><time>2026-04-17T09:25:09Z</time></trkpt><trkpt lat="-23.141207903447576" lon="113.77525256326425"><ele>7.0</ele><time>2026-04-17T09:25:10.001Z</time></trkpt><trkpt lat="-23.14125339177609" lon="113.77511945685575"><ele>7.0</ele><time>2026-04-17T09:25:11.001Z</time></trkpt><trkpt lat="-23.141294110535497" lon="113.77499425903143"><ele>7.166666666666667</ele><time>2026-04-17T09:25:12.001Z</time></trkpt><trkpt lat="-23.141333606165574" lon="113.77487913585179"><ele>7.333333333333334</ele><time>2026-04-17T09:25:13.001Z</time></trkpt><trkpt lat="-23.1413713381585" lon="113.77478203003184"><ele>7.5</ele><time>2026-04-17T09:25:14.001Z</time></trkpt><trkpt lat="-23.141403684052705" lon="113.77470324387038"><ele>7.666666666666666</ele><time>2026-04-17T09:25:15.001Z</time></trkpt><trkpt lat="-23.141432962425068" lon="113.77462878793521"><ele>7.833333333333333</ele><time>2026-04-17T09:25:16.001Z</time></trkpt><trkpt lat="-23.14145851514664" lon="113.774561334135"><ele>8.0</ele><time>2026-04-17T09:25:17.001Z</time></trkpt><trkpt lat="-23.141494546984266" lon="113.77450093976346"><ele>7.999999999999999</ele><time>2026-04-17T09:25:18.001Z</time></trkpt><trkpt lat="-23.14151896928649" lon="113.77443546587762"><ele>8.0</ele><time>2026-04-17T09:25:19.001Z</time></trkpt><trkpt lat="-23.141550950126565" lon="113.77434373964903"><ele>8.0</ele><time>2026-04-17T09:25:21.001Z</time></trkpt><trkpt lat="-23.141581654499095" lon="113.77425614353828"><ele>8.0</ele><time>2026-04-17T09:25:23.001Z</time></trkpt><trkpt lat="-23.141611692598737" lon="113.77417293069526"><ele>7.999999999999999</ele><time>2026-04-17T09:25:25.001Z</time></trkpt><trkpt lat="-23.141641145666917" lon="113.77409440630774"><ele>8.0</ele><time>2026-04-17T09:25:27Z</time></trkpt><trkpt lat="-23.141676333675406" lon="113.77400059209046"><ele>7.6000000000000005</ele><time>2026-04-17T09:25:29Z</time></trkpt><trkpt lat="-23.141713071180746" lon="113.7739026467746"><ele>7.200000000000001</ele><time>2026-04-17T09:25:31Z</time></trkpt><trkpt lat="-23.141751820461497" lon="113.77379668737856"><ele>6.8</ele><time>2026-04-17T09:25:33Z</time></trkpt><trkpt lat="-23.14178879297378" lon="113.77369562919472"><ele>6.4</ele><time>2026-04-17T09:25:35Z</time></trkpt><trkpt lat="-23.141820793866756" lon="113.77360816005417"><ele>6.0</ele><time>2026-04-17T09:25:37Z</time></trkpt><trkpt lat="-23.141850806707502" lon="113.77352391256188"><ele>6.166666666666667</ele><time>2026-04-17T09:25:40Z</time></trkpt><trkpt lat="-23.141867609775236" lon="113.77345656768823"><ele>6.333333333333334</ele><time>2026-04-17T09:25:42Z</time></trkpt><trkpt lat="-23.14191111724107" lon="113.77336597396412"><ele>6.5</ele><time>2026-04-17T09:25:44Z</time></trkpt><trkpt lat="-23.141944446075755" lon="113.77328178620658"><ele>6.666666666666667</ele><time>2026-04-17T09:25:46Z</time></trkpt><trkpt lat="-23.141971388734625" lon="113.77321372989161"><ele>6.833333333333334</ele><time>2026-04-17T09:25:48Z</time></trkpt><trkpt lat="-23.14188951709164" lon="113.77315337284654"><ele>7.0</ele><time>2026-04-17T09:25:49Z</time></trkpt><trkpt lat="-23.141828504764405" lon="113.77312470513151"><ele>7.000000000000001</ele><time>2026-04-17T09:26:15Z</time></trkpt><trkpt lat="-23.14174963575665" lon="113.77308971708788"><ele>7.0</ele><time>2026-04-17T09:26:17Z</time></trkpt><trkpt lat="-23.141640304988243" lon="113.77306089195788"><ele>7.0</ele><time>2026-04-17T09:26:19Z</time></trkpt><trkpt lat="-23.14154520334906" lon="113.77303553881661"><ele>7.0</ele><time>2026-04-17T09:26:21Z</time></trkpt><trkpt lat="-23.141461481067584" lon="113.7730307132873"><ele>7.000000000000001</ele><time>2026-04-17T09:26:23Z</time></trkpt><trkpt lat="-23.141394551714367" lon="113.77302742739053"><ele>7.0</ele><time>2026-04-17T09:26:25Z</time></trkpt><trkpt lat="-23.141302693159016" lon="113.77301594859286"><ele>7.0</ele><time>2026-04-17T09:26:28Z</time></trkpt><trkpt lat="-23.141237918856632" lon="113.77314599321154"><ele>6.999999999999999</ele><time>2026-04-17T09:26:32Z</time></trkpt><trkpt lat="-23.141205035747735" lon="113.77323004325486"><ele>6.999999999999999</ele><time>2026-04-17T09:26:34Z</time></trkpt><trkpt lat="-23.14116923744695" lon="113.7733214617722"><ele>7.0</ele><time>2026-04-17T09:26:36Z</time></trkpt><trkpt lat="-23.14112886108339" lon="113.77342457132501"><ele>7.0</ele><time>2026-04-17T09:26:38Z</time></trkpt><trkpt lat="-23.141083505488858" lon="113.7735014622487"><ele>7.000000000000001</ele><time>2026-04-17T09:26:40Z</time></trkpt><trkpt lat="-23.141144117776697" lon="113.77358053449689"><ele>7.0</ele><time>2026-04-17T09:26:42Z</time></trkpt><trkpt lat="-23.141192872265822" lon="113.77364277682112"><ele>7.0</ele><time>2026-04-17T09:26:44Z</time></trkpt><trkpt lat="-23.14113311070124" lon="113.77369705259153"><ele>7.0</ele><time>2026-04-17T09:26:46Z</time></trkpt><trkpt lat="-23.141052577137497" lon="113.77368268305092"><ele>7.000000000000001</ele><time>2026-04-17T09:26:52Z</time></trkpt><trkpt lat="-23.14113264876128" lon="113.77368192883051"><ele>7.0</ele><time>2026-04-17T09:28:10Z</time></trkpt><trkpt lat="-23.14125877396682" lon="113.77361807708294"><ele>7.000000000000001</ele><time>2026-04-17T09:28:37Z</time></trkpt><trkpt lat="-23.141321717617572" lon="113.77358697756716"><ele>7.0</ele><time>2026-04-17T09:28:43Z</time></trkpt><trkpt lat="-23.141347488710043" lon="113.77350754065709"><ele>7.0</ele><time>2026-04-17T09:28:50Z</time></trkpt><trkpt lat="-23.14139943745777" lon="113.77345593619394"><ele>7.0</ele><time>2026-04-17T09:28:55Z</time></trkpt><trkpt lat="-23.14142324766018" lon="113.77338421491613"><ele>7.000000000000001</ele><time>2026-04-17T09:29:02Z</time></trkpt><trkpt lat="-23.141479493110435" lon="113.77329228196596"><ele>7.0</ele><time>2026-04-17T09:29:33.058Z</time></trkpt><trkpt lat="-23.141615001930862" lon="113.77335191116822"><ele>7.0</ele><time>2026-04-17T09:29:34.059Z</time></trkpt><trkpt lat="-23.14163635678542" lon="113.77328097718373"><ele>7.0</ele><time>2026-04-17T09:29:39.059Z</time></trkpt><trkpt lat="-23.14154996586176" lon="113.77331064522835"><ele>7.0</ele><time>2026-04-17T09:29:57.585Z</time></trkpt><trkpt lat="-23.141271804922535" lon="113.77345765731984"><ele>7.0</ele><time>2026-04-17T09:33:24.567Z</time></trkpt><trkpt lat="-23.14149962546529" lon="113.77328757746004"><ele>7.0</ele><time>2026-04-17T09:34:05.567Z</time></trkpt><trkpt lat="-23.141370642566947" lon="113.77332782153998"><ele>7.0</ele><time>2026-04-17T09:35:13.014Z</time></trkpt><trkpt lat="-23.141309891528522" lon="113.7732864946801"><ele>7.0</ele><time>2026-04-17T09:35:20.014Z</time></trkpt><trkpt lat="-23.141404078483475" lon="113.77329729350707"><ele>7.0</ele><time>2026-04-17T09:35:47.014Z</time></trkpt><trkpt lat="-23.141526262269778" lon="113.77330905409171"><ele>7.0</ele><time>2026-04-17T09:36:29.011Z</time></trkpt><trkpt lat="-23.141470425265613" lon="113.77337146747001"><ele>7.0</ele><time>2026-04-17T09:36:50.011Z</time></trkpt><trkpt lat="-23.141388230560544" lon="113.77351745423564"><ele>7.0</ele><time>2026-04-17T09:37:11.713Z</time></trkpt><trkpt lat="-23.141502600587735" lon="113.77348401363223"><ele>6.999999999999999</ele><time>2026-04-17T09:37:17.566Z</time></trkpt><trkpt lat="-23.14142272889608" lon="113.77341967146245"><ele>6.999999999999999</ele><time>2026-04-17T09:37:45.997Z</time></trkpt><trkpt lat="-23.141353310165073" lon="113.77342987411818"><ele>7.0</ele><time>2026-04-17T09:37:49.997Z</time></trkpt><trkpt lat="-23.141270467488717" lon="113.7733826352001"><ele>7.0</ele><time>2026-04-17T09:38:21Z</time></trkpt><trkpt lat="-23.141391081988832" lon="113.7732745780966"><ele>7.0</ele><time>2026-04-17T09:38:29Z</time></trkpt><trkpt lat="-23.141464613556163" lon="113.77329641985247"><ele>6.999999999999999</ele><time>2026-04-17T09:38:31Z</time></trkpt><trkpt lat="-23.141410397247242" lon="113.77333942959501"><ele>6.999999999999999</ele><time>2026-04-17T09:39:28.999Z</time></trkpt><trkpt lat="-23.14153055630912" lon="113.77330779642442"><ele>7.0</ele><time>2026-04-17T09:39:51.57Z</time></trkpt><trkpt lat="-23.141644129178495" lon="113.77335948300424"><ele>7.0</ele><time>2026-04-17T09:40:56.565Z</time></trkpt><trkpt lat="-23.141663589042654" lon="113.77357033079369"><ele>7.0</ele><time>2026-04-17T09:41:02.565Z</time></trkpt><trkpt lat="-23.141517668914684" lon="113.77338723718432"><ele>7.0</ele><time>2026-04-17T09:41:32.564Z</time></trkpt><trkpt lat="-23.14142261066725" lon="113.77324248822465"><ele>7.0</ele><time>2026-04-17T09:41:35.013Z</time></trkpt><trkpt lat="-23.141371507482088" lon="113.77348877148846"><ele>7.0</ele><time>2026-04-17T09:41:56.579Z</time></trkpt><trkpt lat="-23.141436817213297" lon="113.77324336518599"><ele>7.0</ele><time>2026-04-17T09:42:02.01Z</time></trkpt><trkpt lat="-23.14138109806292" lon="113.77319853423396"><ele>7.0</ele><time>2026-04-17T09:42:08.01Z</time></trkpt><trkpt lat="-23.141465443976134" lon="113.77319710352738"><ele>7.0</ele><time>2026-04-17T09:42:12.011Z</time></trkpt><trkpt lat="-23.14154468589241" lon="113.77321452930289"><ele>7.0</ele><time>2026-04-17T09:42:17.011Z</time></trkpt><trkpt lat="-23.141606462895567" lon="113.77319585377346"><ele>7.0</ele><time>2026-04-17T09:42:19.011Z</time></trkpt><trkpt lat="-23.141646499835975" lon="113.773441737411"><ele>7.0</ele><time>2026-04-17T09:42:38.566Z</time></trkpt><trkpt lat="-23.14158261860461" lon="113.77337809902141"><ele>7.0</ele><time>2026-04-17T09:43:30.57Z</time></trkpt><trkpt lat="-23.141311914471093" lon="113.77328848779109"><ele>7.0</ele><time>2026-04-17T09:43:33.012Z</time></trkpt><trkpt lat="-23.141262584094292" lon="113.77335283450174"><ele>7.0</ele><time>2026-04-17T09:43:45.01Z</time></trkpt><trkpt lat="-23.141302627788566" lon="113.77341388081797"><ele>7.0</ele><time>2026-04-17T09:43:51.01Z</time></trkpt><trkpt lat="-23.14159484079806" lon="113.77345291129092"><ele>7.0</ele><time>2026-04-17T09:44:12.573Z</time></trkpt><trkpt lat="-23.141675646711658" lon="113.77355866469156"><ele>7.0</ele><time>2026-04-17T09:44:18.569Z</time></trkpt><trkpt lat="-23.141610831187148" lon="113.7734100991266"><ele>7.0</ele><time>2026-04-17T09:44:24.566Z</time></trkpt><trkpt lat="-23.14158687047663" lon="113.77347951824775"><ele>7.0</ele><time>2026-04-17T09:44:36.572Z</time></trkpt><trkpt lat="-23.141104855688102" lon="113.77352235189069"><ele>7.0</ele><time>2026-04-17T09:44:47.011Z</time></trkpt><trkpt lat="-23.141110843192518" lon="113.77342104256459"><ele>6.999999999999999</ele><time>2026-04-17T09:44:50.01Z</time></trkpt><trkpt lat="-23.141017885153616" lon="113.77341564025618"><ele>6.999999999999999</ele><time>2026-04-17T09:44:56.012Z</time></trkpt><trkpt lat="-23.140854585788695" lon="113.77339274507047"><ele>7.0</ele><time>2026-04-17T09:44:57.011Z</time></trkpt><trkpt lat="-23.140918694558128" lon="113.77335193858698"><ele>7.0</ele><time>2026-04-17T09:45:02.012Z</time></trkpt><trkpt lat="-23.140968500519023" lon="113.77329298778999"><ele>7.0</ele><time>2026-04-17T09:45:05.013Z</time></trkpt><trkpt lat="-23.141037626407872" lon="113.77334162701914"><ele>7.0</ele><time>2026-04-17T09:45:31.011Z</time></trkpt><trkpt lat="-23.141094522587164" lon="113.77327558414557"><ele>7.0</ele><time>2026-04-17T09:45:43.012Z</time></trkpt><trkpt lat="-23.141547709703552" lon="113.77336828178578"><ele>7.0</ele><time>2026-04-17T09:45:56.571Z</time></trkpt><trkpt lat="-23.14132901676853" lon="113.77323649295337"><ele>7.0</ele><time>2026-04-17T09:45:58.011Z</time></trkpt><trkpt lat="-23.14115734242829" lon="113.77322840450034"><ele>7.0</ele><time>2026-04-17T09:46:55.017Z</time></trkpt><trkpt lat="-23.141219513764472" lon="113.77328979227558"><ele>7.0</ele><time>2026-04-17T09:47:06.015Z</time></trkpt><trkpt lat="-23.141183399296505" lon="113.7731722773577"><ele>6.999999999999999</ele><time>2026-04-17T09:47:40.015Z</time></trkpt><trkpt lat="-23.14125280508618" lon="113.77315973728147"><ele>6.999999999999999</ele><time>2026-04-17T09:47:41.015Z</time></trkpt><trkpt lat="-23.141411343133324" lon="113.77311479636013"><ele>7.0</ele><time>2026-04-17T09:47:43.015Z</time></trkpt><trkpt lat="-23.14150122922728" lon="113.77311921227368"><ele>7.0</ele><time>2026-04-17T09:47:44.015Z</time></trkpt><trkpt lat="-23.14156374920343" lon="113.77315677669567"><ele>7.0</ele><time>2026-04-17T09:47:45.014Z</time></trkpt><trkpt lat="-23.141462028638934" lon="113.7731823481803"><ele>6.999999999999999</ele><time>2026-04-17T09:47:47.015Z</time></trkpt><trkpt lat="-23.14135197181864" lon="113.77319569453968"><ele>6.999999999999999</ele><time>2026-04-17T09:47:48.014Z</time></trkpt><trkpt lat="-23.141429033561323" lon="113.77312095970355"><ele>7.0</ele><time>2026-04-17T09:47:51.014Z</time></trkpt><trkpt lat="-23.14148775614223" lon="113.77307401847328"><ele>7.0</ele><time>2026-04-17T09:47:52.014Z</time></trkpt><trkpt lat="-23.141426142133163" lon="113.77313962596922"><ele>7.0</ele><time>2026-04-17T09:48:51.015Z</time></trkpt><trkpt lat="-23.14148430954281" lon="113.77325622120378"><ele>6.999999999999999</ele><time>2026-04-17T09:49:02.013Z</time></trkpt><trkpt lat="-23.141443305536015" lon="113.77335530830008"><ele>6.999999999999999</ele><time>2026-04-17T09:49:28.024Z</time></trkpt><trkpt lat="-23.141514839116983" lon="113.77339109436828"><ele>7.0</ele><time>2026-04-17T09:50:07.018Z</time></trkpt><trkpt lat="-23.14156644331854" lon="113.77346752949312"><ele>7.0</ele><time>2026-04-17T09:50:41.017Z</time></trkpt><trkpt lat="-23.141532540891212" lon="113.77340519222797"><ele>7.0</ele><time>2026-04-17T09:51:01.995Z</time></trkpt><trkpt lat="-23.141467198361198" lon="113.77340809615282"><ele>7.0</ele><time>2026-04-17T09:51:37Z</time></trkpt><trkpt lat="-23.141408591426078" lon="113.7734431856647"><ele>7.0</ele><time>2026-04-17T09:51:43Z</time></trkpt><trkpt lat="-23.141370151048296" lon="113.77351280809886"><ele>7.0</ele><time>2026-04-17T09:51:50Z</time></trkpt><trkpt lat="-23.14133548985978" lon="113.77357923646352"><ele>7.0</ele><time>2026-04-17T09:51:55Z</time></trkpt><trkpt lat="-23.141272302813594" lon="113.77361303211858"><ele>7.0</ele><time>2026-04-17T09:52:00Z</time></trkpt><trkpt lat="-23.141255481206127" lon="113.77367970244288"><ele>7.0</ele><time>2026-04-17T09:52:04Z</time></trkpt><trkpt lat="-23.141257851184594" lon="113.77376380594598"><ele>7.0</ele><time>2026-04-17T09:52:08.999Z</time></trkpt><trkpt lat="-23.141318477742946" lon="113.77379203087848"><ele>7.0</ele><time>2026-04-17T09:52:13.999Z</time></trkpt><trkpt lat="-23.14138418105996" lon="113.7737834018329"><ele>7.0</ele><time>2026-04-17T09:52:37.999Z</time></trkpt><trkpt lat="-23.14150757134105" lon="113.77384153418981"><ele>7.0</ele><time>2026-04-17T09:52:51.65Z</time></trkpt><trkpt lat="-23.141312109967778" lon="113.773759031569"><ele>7.0</ele><time>2026-04-17T09:55:05.998Z</time></trkpt><trkpt lat="-23.141249143627263" lon="113.7737575653761"><ele>7.0</ele><time>2026-04-17T09:55:12Z</time></trkpt><trkpt lat="-23.14117858742052" lon="113.77371742379931"><ele>7.0</ele><time>2026-04-17T09:55:18Z</time></trkpt><trkpt lat="-23.141115913140933" lon="113.77367554806388"><ele>7.0</ele><time>2026-04-17T09:55:22Z</time></trkpt><trkpt lat="-23.14105435071172" lon="113.77365136718406"><ele>7.0</ele><time>2026-04-17T09:57:35Z</time></trkpt><trkpt lat="-23.140987918176126" lon="113.77362885488266"><ele>7.0</ele><time>2026-04-17T09:57:41Z</time></trkpt><trkpt lat="-23.14092139761926" lon="113.7736744272767"><ele>7.0</ele><time>2026-04-17T09:57:45Z</time></trkpt><trkpt lat="-23.14090246984014" lon="113.77374576747437"><ele>7.000000000000001</ele><time>2026-04-17T09:58:02.999Z</time></trkpt><trkpt lat="-23.14090887166306" lon="113.77383045202899"><ele>7.0</ele><time>2026-04-17T09:58:06.999Z</time></trkpt><trkpt lat="-23.14088795383322" lon="113.77389653932394"><ele>7.0</ele><time>2026-04-17T09:58:10.999Z</time></trkpt><trkpt lat="-23.140951859829766" lon="113.77389708793152"><ele>7.0</ele><time>2026-04-17T09:58:50.999Z</time></trkpt><trkpt lat="-23.1410270759209" lon="113.77381644721397"><ele>7.000000000000001</ele><time>2026-04-17T10:00:03Z</time></trkpt><trkpt lat="-23.141070705168502" lon="113.77375955923505"><ele>7.0</ele><time>2026-04-17T10:00:08.999Z</time></trkpt><trkpt lat="-23.141123934183494" lon="113.77370945427813"><ele>7.000000000000001</ele><time>2026-04-17T10:00:10.999Z</time></trkpt><trkpt lat="-23.141180726821386" lon="113.77364959253143"><ele>7.0</ele><time>2026-04-17T10:00:46.999Z</time></trkpt><trkpt lat="-23.141198158667745" lon="113.77357359600396"><ele>7.0</ele><time>2026-04-17T10:00:49.999Z</time></trkpt><trkpt lat="-23.14116361484741" lon="113.77351312352921"><ele>7.0</ele><time>2026-04-17T10:00:52.999Z</time></trkpt><trkpt lat="-23.14112664714879" lon="113.77342304277508"><ele>7.000000000000001</ele><time>2026-04-17T10:00:59.999Z</time></trkpt><trkpt lat="-23.141120798019106" lon="113.77333825728954"><ele>7.0</ele><time>2026-04-17T10:01:01.999Z</time></trkpt><trkpt lat="-23.141044326590062" lon="113.77334485116268"><ele>7.000000000000001</ele><time>2026-04-17T10:01:21.999Z</time></trkpt><trkpt lat="-23.14104902866694" lon="113.77344132323479"><ele>7.0</ele><time>2026-04-17T10:01:23.999Z</time></trkpt><trkpt lat="-23.14109442182079" lon="113.77352420815775"><ele>7.0</ele><time>2026-04-17T10:01:25.999Z</time></trkpt><trkpt lat="-23.141130440117898" lon="113.77360084246135"><ele>7.0</ele><time>2026-04-17T10:01:28Z</time></trkpt><trkpt lat="-23.141121776682056" lon="113.77369892926733"><ele>7.000000000000001</ele><time>2026-04-17T10:01:31Z</time></trkpt><trkpt lat="-23.141079808922193" lon="113.77376349417683"><ele>7.0</ele><time>2026-04-17T10:01:34Z</time></trkpt><trkpt lat="-23.141016313885583" lon="113.77380340854131"><ele>7.0</ele><time>2026-04-17T10:01:36Z</time></trkpt><trkpt lat="-23.14096978903842" lon="113.77386125566784"><ele>7.0</ele><time>2026-04-17T10:01:38Z</time></trkpt></trkseg></trk></gpx>